﻿<?xml version="1.0" encoding="UTF-8" standalone="no" ?>
<gpx xmlns="http://www.topografix.com/GPX/1/1" creator="CompeGPS" version="1.1" xmlns:xsi="http://www.w3.org/2001/XMLSchema-instance" xsi:schemaLocation="http://www.topografix.com/GPX/1/1 http://www.topografix.com/GPX/1/1/gpx.xsd">
  <metadata>
    <link href="http://www.compegps.com">
      <text>CompeGPS TEAM, SL</text>
    </link>
    <time>2023-06-11T09:51:56Z</time>
    <bounds maxlat="38.418078" maxlon="-1.422800" minlat="38.091271" minlon="-2.700017"/>
  </metadata>
  <trk>
    <name>20220116a20230430_RioSegura_01_Nacimiento-Cieza_track_ET</name>
    <desc>&lt;p&gt;Hora Inicio: 10:11 16 ene. 2022&lt;br/&gt;Hora Fin: 17:27 16 ene. 2022&lt;br/&gt;Distancia recorrida: 22 km (07:16)&lt;br/&gt;Tiempo en movimiento: 05:02&lt;br/&gt;Velocidad media: 3,02 km/h&lt;br/&gt;Vel. en Mov.: 4,36 km/h&lt;br/&gt;Velocidad Máxima: 7,86 km/h&lt;br/&gt;Altura Mínima: 927 m&lt;br/&gt;Altura Máxima: 1408 m&lt;br/&gt;Velocidad Ascenso: 247,5 m/h&lt;br/&gt;Velocidad Descenso: 283,5 m/h&lt;br/&gt;Ganancia Altitud: 205 m&lt;br/&gt;Pérdida Altitud: 697 m&lt;br/&gt;Tiempo Ascenso: 00:49&lt;br/&gt;Tiempo Descenso: 02:27&lt;br/&gt;&lt;/p&gt;&lt;hr align=&quot;center&quot; width=&quot;480&quot; style=&quot;height: 2px; width: 517px&quot;/&gt;</desc>
    <trkseg>
      <trkpt lat="38.091366" lon="-2.700017">
        <ele>1419.5</ele>
        <time>2022-01-16T09:11:01Z</time>
      </trkpt>
      <trkpt lat="38.091271" lon="-2.699827">
        <ele>1411.4</ele>
        <time>2022-01-16T09:12:37Z</time>
      </trkpt>
      <trkpt lat="38.091279" lon="-2.699596">
        <ele>1405.5</ele>
        <time>2022-01-16T09:13:04Z</time>
      </trkpt>
      <trkpt lat="38.091386" lon="-2.699477">
        <ele>1414.4</ele>
        <time>2022-01-16T09:15:26Z</time>
      </trkpt>
      <trkpt lat="38.091393" lon="-2.699645">
        <ele>1410.2</ele>
        <time>2022-01-16T09:18:09Z</time>
      </trkpt>
      <trkpt lat="38.091572" lon="-2.699704">
        <ele>1409.8</ele>
        <time>2022-01-16T09:18:27Z</time>
      </trkpt>
      <trkpt lat="38.091757" lon="-2.699656">
        <ele>1408.8</ele>
        <time>2022-01-16T09:18:47Z</time>
      </trkpt>
      <trkpt lat="38.091909" lon="-2.699527">
        <ele>1400.5</ele>
        <time>2022-01-16T09:19:23Z</time>
      </trkpt>
      <trkpt lat="38.092092" lon="-2.699497">
        <ele>1404.5</ele>
        <time>2022-01-16T09:19:38Z</time>
      </trkpt>
      <trkpt lat="38.092271" lon="-2.699541">
        <ele>1408.5</ele>
        <time>2022-01-16T09:19:53Z</time>
      </trkpt>
      <trkpt lat="38.092452" lon="-2.699498">
        <ele>1407.5</ele>
        <time>2022-01-16T09:20:07Z</time>
      </trkpt>
      <trkpt lat="38.092631" lon="-2.699471">
        <ele>1405.8</ele>
        <time>2022-01-16T09:20:19Z</time>
      </trkpt>
      <trkpt lat="38.092813" lon="-2.699459">
        <ele>1403.5</ele>
        <time>2022-01-16T09:20:39Z</time>
      </trkpt>
      <trkpt lat="38.092996" lon="-2.699459">
        <ele>1400.5</ele>
        <time>2022-01-16T09:20:52Z</time>
      </trkpt>
      <trkpt lat="38.093181" lon="-2.699464">
        <ele>1399.5</ele>
        <time>2022-01-16T09:21:08Z</time>
      </trkpt>
      <trkpt lat="38.093345" lon="-2.699360">
        <ele>1400.5</ele>
        <time>2022-01-16T09:21:24Z</time>
      </trkpt>
      <trkpt lat="38.093511" lon="-2.699253">
        <ele>1400.5</ele>
        <time>2022-01-16T09:21:42Z</time>
      </trkpt>
      <trkpt lat="38.093691" lon="-2.699224">
        <ele>1401.4</ele>
        <time>2022-01-16T09:21:55Z</time>
      </trkpt>
      <trkpt lat="38.093865" lon="-2.699142">
        <ele>1399.5</ele>
        <time>2022-01-16T09:22:09Z</time>
      </trkpt>
      <trkpt lat="38.094033" lon="-2.699038">
        <ele>1397.5</ele>
        <time>2022-01-16T09:22:24Z</time>
      </trkpt>
      <trkpt lat="38.094210" lon="-2.699001">
        <ele>1400.4</ele>
        <time>2022-01-16T09:22:35Z</time>
      </trkpt>
      <trkpt lat="38.094384" lon="-2.698928">
        <ele>1401.6</ele>
        <time>2022-01-16T09:22:50Z</time>
      </trkpt>
      <trkpt lat="38.094550" lon="-2.698825">
        <ele>1401.4</ele>
        <time>2022-01-16T09:23:06Z</time>
      </trkpt>
      <trkpt lat="38.094731" lon="-2.698773">
        <ele>1399.5</ele>
        <time>2022-01-16T09:23:22Z</time>
      </trkpt>
      <trkpt lat="38.094914" lon="-2.698738">
        <ele>1399.5</ele>
        <time>2022-01-16T09:23:38Z</time>
      </trkpt>
      <trkpt lat="38.095097" lon="-2.698706">
        <ele>1399.4</ele>
        <time>2022-01-16T09:23:50Z</time>
      </trkpt>
      <trkpt lat="38.095279" lon="-2.698706">
        <ele>1398.2</ele>
        <time>2022-01-16T09:24:05Z</time>
      </trkpt>
      <trkpt lat="38.095454" lon="-2.698626">
        <ele>1396.5</ele>
        <time>2022-01-16T09:24:23Z</time>
      </trkpt>
      <trkpt lat="38.095636" lon="-2.698596">
        <ele>1398.4</ele>
        <time>2022-01-16T09:24:35Z</time>
      </trkpt>
      <trkpt lat="38.095814" lon="-2.698556">
        <ele>1396.8</ele>
        <time>2022-01-16T09:24:49Z</time>
      </trkpt>
      <trkpt lat="38.095995" lon="-2.698521">
        <ele>1396.8</ele>
        <time>2022-01-16T09:25:03Z</time>
      </trkpt>
      <trkpt lat="38.096174" lon="-2.698474">
        <ele>1395.5</ele>
        <time>2022-01-16T09:25:20Z</time>
      </trkpt>
      <trkpt lat="38.096352" lon="-2.698405">
        <ele>1394.5</ele>
        <time>2022-01-16T09:25:36Z</time>
      </trkpt>
      <trkpt lat="38.096534" lon="-2.698327">
        <ele>1393.2</ele>
        <time>2022-01-16T09:25:53Z</time>
      </trkpt>
      <trkpt lat="38.096716" lon="-2.698288">
        <ele>1393.5</ele>
        <time>2022-01-16T09:26:03Z</time>
      </trkpt>
      <trkpt lat="38.096890" lon="-2.698214">
        <ele>1393.8</ele>
        <time>2022-01-16T09:26:16Z</time>
      </trkpt>
      <trkpt lat="38.097063" lon="-2.698124">
        <ele>1393.5</ele>
        <time>2022-01-16T09:26:32Z</time>
      </trkpt>
      <trkpt lat="38.097246" lon="-2.698082">
        <ele>1394.8</ele>
        <time>2022-01-16T09:26:44Z</time>
      </trkpt>
      <trkpt lat="38.097412" lon="-2.697976">
        <ele>1396.2</ele>
        <time>2022-01-16T09:26:57Z</time>
      </trkpt>
      <trkpt lat="38.097569" lon="-2.697859">
        <ele>1395.5</ele>
        <time>2022-01-16T09:27:12Z</time>
      </trkpt>
      <trkpt lat="38.097733" lon="-2.697750">
        <ele>1393.5</ele>
        <time>2022-01-16T09:27:43Z</time>
      </trkpt>
      <trkpt lat="38.097906" lon="-2.697655">
        <ele>1395.5</ele>
        <time>2022-01-16T09:28:30Z</time>
      </trkpt>
      <trkpt lat="38.098038" lon="-2.697498">
        <ele>1398.2</ele>
        <time>2022-01-16T09:28:41Z</time>
      </trkpt>
      <trkpt lat="38.098176" lon="-2.697333">
        <ele>1396.6</ele>
        <time>2022-01-16T09:28:55Z</time>
      </trkpt>
      <trkpt lat="38.098305" lon="-2.697170">
        <ele>1393.6</ele>
        <time>2022-01-16T09:29:33Z</time>
      </trkpt>
      <trkpt lat="38.098466" lon="-2.697065">
        <ele>1396.5</ele>
        <time>2022-01-16T09:29:48Z</time>
      </trkpt>
      <trkpt lat="38.098618" lon="-2.696932">
        <ele>1398.5</ele>
        <time>2022-01-16T09:30:01Z</time>
      </trkpt>
      <trkpt lat="38.098771" lon="-2.696803">
        <ele>1397.5</ele>
        <time>2022-01-16T09:30:14Z</time>
      </trkpt>
      <trkpt lat="38.098895" lon="-2.696628">
        <ele>1399.5</ele>
        <time>2022-01-16T09:30:31Z</time>
      </trkpt>
      <trkpt lat="38.099047" lon="-2.696498">
        <ele>1399.5</ele>
        <time>2022-01-16T09:30:44Z</time>
      </trkpt>
      <trkpt lat="38.099192" lon="-2.696362">
        <ele>1398.5</ele>
        <time>2022-01-16T09:30:57Z</time>
      </trkpt>
      <trkpt lat="38.099355" lon="-2.696258">
        <ele>1397.5</ele>
        <time>2022-01-16T09:31:13Z</time>
      </trkpt>
      <trkpt lat="38.099530" lon="-2.696187">
        <ele>1397.5</ele>
        <time>2022-01-16T09:31:30Z</time>
      </trkpt>
      <trkpt lat="38.099709" lon="-2.696119">
        <ele>1396.5</ele>
        <time>2022-01-16T09:31:44Z</time>
      </trkpt>
      <trkpt lat="38.099874" lon="-2.696027">
        <ele>1399.5</ele>
        <time>2022-01-16T09:31:58Z</time>
      </trkpt>
      <trkpt lat="38.100047" lon="-2.695960">
        <ele>1400.5</ele>
        <time>2022-01-16T09:32:15Z</time>
      </trkpt>
      <trkpt lat="38.100228" lon="-2.695933">
        <ele>1403.5</ele>
        <time>2022-01-16T09:32:27Z</time>
      </trkpt>
      <trkpt lat="38.100408" lon="-2.695916">
        <ele>1405.5</ele>
        <time>2022-01-16T09:32:45Z</time>
      </trkpt>
      <trkpt lat="38.100591" lon="-2.695900">
        <ele>1403.4</ele>
        <time>2022-01-16T09:32:56Z</time>
      </trkpt>
      <trkpt lat="38.100751" lon="-2.695792">
        <ele>1404.2</ele>
        <time>2022-01-16T09:33:08Z</time>
      </trkpt>
      <trkpt lat="38.100883" lon="-2.695628">
        <ele>1401.5</ele>
        <time>2022-01-16T09:33:20Z</time>
      </trkpt>
      <trkpt lat="38.101030" lon="-2.695488">
        <ele>1399.5</ele>
        <time>2022-01-16T09:33:32Z</time>
      </trkpt>
      <trkpt lat="38.101206" lon="-2.695549">
        <ele>1398.5</ele>
        <time>2022-01-16T09:33:54Z</time>
      </trkpt>
      <trkpt lat="38.101347" lon="-2.695695">
        <ele>1399.5</ele>
        <time>2022-01-16T09:34:07Z</time>
      </trkpt>
      <trkpt lat="38.101526" lon="-2.695705">
        <ele>1399.5</ele>
        <time>2022-01-16T09:34:24Z</time>
      </trkpt>
      <trkpt lat="38.101641" lon="-2.695527">
        <ele>1397.5</ele>
        <time>2022-01-16T09:34:34Z</time>
      </trkpt>
      <trkpt lat="38.101708" lon="-2.695312">
        <ele>1394.5</ele>
        <time>2022-01-16T09:35:13Z</time>
      </trkpt>
      <trkpt lat="38.101751" lon="-2.695087">
        <ele>1392.5</ele>
        <time>2022-01-16T09:35:29Z</time>
      </trkpt>
      <trkpt lat="38.101812" lon="-2.694856">
        <ele>1390.5</ele>
        <time>2022-01-16T09:36:06Z</time>
      </trkpt>
      <trkpt lat="38.101886" lon="-2.694643">
        <ele>1388.4</ele>
        <time>2022-01-16T09:36:25Z</time>
      </trkpt>
      <trkpt lat="38.102047" lon="-2.694536">
        <ele>1392.5</ele>
        <time>2022-01-16T09:38:18Z</time>
      </trkpt>
      <trkpt lat="38.102146" lon="-2.694334">
        <ele>1392.6</ele>
        <time>2022-01-16T09:38:39Z</time>
      </trkpt>
      <trkpt lat="38.102241" lon="-2.694135">
        <ele>1389.5</ele>
        <time>2022-01-16T09:38:53Z</time>
      </trkpt>
      <trkpt lat="38.102364" lon="-2.693959">
        <ele>1387.5</ele>
        <time>2022-01-16T09:39:13Z</time>
      </trkpt>
      <trkpt lat="38.102517" lon="-2.693836">
        <ele>1385.5</ele>
        <time>2022-01-16T09:39:30Z</time>
      </trkpt>
      <trkpt lat="38.102667" lon="-2.693705">
        <ele>1386.5</ele>
        <time>2022-01-16T09:39:50Z</time>
      </trkpt>
      <trkpt lat="38.102750" lon="-2.693502">
        <ele>1384.6</ele>
        <time>2022-01-16T09:40:06Z</time>
      </trkpt>
      <trkpt lat="38.102827" lon="-2.693291">
        <ele>1384.5</ele>
        <time>2022-01-16T09:40:22Z</time>
      </trkpt>
      <trkpt lat="38.102944" lon="-2.693111">
        <ele>1385.5</ele>
        <time>2022-01-16T09:40:42Z</time>
      </trkpt>
      <trkpt lat="38.103081" lon="-2.692954">
        <ele>1383.5</ele>
        <time>2022-01-16T09:40:59Z</time>
      </trkpt>
      <trkpt lat="38.103232" lon="-2.692830">
        <ele>1382.5</ele>
        <time>2022-01-16T09:41:12Z</time>
      </trkpt>
      <trkpt lat="38.103369" lon="-2.692671">
        <ele>1384.5</ele>
        <time>2022-01-16T09:41:28Z</time>
      </trkpt>
      <trkpt lat="38.103534" lon="-2.692561">
        <ele>1385.5</ele>
        <time>2022-01-16T09:41:43Z</time>
      </trkpt>
      <trkpt lat="38.103698" lon="-2.692459">
        <ele>1384.5</ele>
        <time>2022-01-16T09:42:35Z</time>
      </trkpt>
      <trkpt lat="38.103870" lon="-2.692373">
        <ele>1386.5</ele>
        <time>2022-01-16T09:43:04Z</time>
      </trkpt>
      <trkpt lat="38.104044" lon="-2.692454">
        <ele>1387.8</ele>
        <time>2022-01-16T09:43:22Z</time>
      </trkpt>
      <trkpt lat="38.104225" lon="-2.692483">
        <ele>1386.5</ele>
        <time>2022-01-16T09:43:45Z</time>
      </trkpt>
      <trkpt lat="38.104387" lon="-2.692377">
        <ele>1388.5</ele>
        <time>2022-01-16T09:44:21Z</time>
      </trkpt>
      <trkpt lat="38.104526" lon="-2.692221">
        <ele>1389.5</ele>
        <time>2022-01-16T09:44:32Z</time>
      </trkpt>
      <trkpt lat="38.104666" lon="-2.692063">
        <ele>1388.6</ele>
        <time>2022-01-16T09:44:47Z</time>
      </trkpt>
      <trkpt lat="38.104750" lon="-2.691866">
        <ele>1387.5</ele>
        <time>2022-01-16T09:45:00Z</time>
      </trkpt>
      <trkpt lat="38.104908" lon="-2.691980">
        <ele>1384.5</ele>
        <time>2022-01-16T09:46:52Z</time>
      </trkpt>
      <trkpt lat="38.105032" lon="-2.692162">
        <ele>1387.5</ele>
        <time>2022-01-16T09:47:09Z</time>
      </trkpt>
      <trkpt lat="38.105162" lon="-2.692322">
        <ele>1387.5</ele>
        <time>2022-01-16T09:47:45Z</time>
      </trkpt>
      <trkpt lat="38.105225" lon="-2.692551">
        <ele>1383.8</ele>
        <time>2022-01-16T09:49:12Z</time>
      </trkpt>
      <trkpt lat="38.105318" lon="-2.692751">
        <ele>1384.5</ele>
        <time>2022-01-16T09:49:26Z</time>
      </trkpt>
      <trkpt lat="38.105389" lon="-2.692965">
        <ele>1387.5</ele>
        <time>2022-01-16T09:49:55Z</time>
      </trkpt>
      <trkpt lat="38.105434" lon="-2.693187">
        <ele>1387.5</ele>
        <time>2022-01-16T09:50:13Z</time>
      </trkpt>
      <trkpt lat="38.105416" lon="-2.693422">
        <ele>1386.5</ele>
        <time>2022-01-16T09:50:53Z</time>
      </trkpt>
      <trkpt lat="38.105419" lon="-2.693656">
        <ele>1385.8</ele>
        <time>2022-01-16T09:51:11Z</time>
      </trkpt>
      <trkpt lat="38.105416" lon="-2.693893">
        <ele>1381.5</ele>
        <time>2022-01-16T09:51:53Z</time>
      </trkpt>
      <trkpt lat="38.105384" lon="-2.694123">
        <ele>1381.4</ele>
        <time>2022-01-16T09:52:10Z</time>
      </trkpt>
      <trkpt lat="38.105348" lon="-2.694352">
        <ele>1382.5</ele>
        <time>2022-01-16T09:52:22Z</time>
      </trkpt>
      <trkpt lat="38.105384" lon="-2.694578">
        <ele>1382.6</ele>
        <time>2022-01-16T09:52:39Z</time>
      </trkpt>
      <trkpt lat="38.105535" lon="-2.694728">
        <ele>1384.2</ele>
        <time>2022-01-16T09:52:52Z</time>
      </trkpt>
      <trkpt lat="38.105723" lon="-2.694708">
        <ele>1384.5</ele>
        <time>2022-01-16T09:53:03Z</time>
      </trkpt>
      <trkpt lat="38.105887" lon="-2.694612">
        <ele>1383.5</ele>
        <time>2022-01-16T09:53:16Z</time>
      </trkpt>
      <trkpt lat="38.106038" lon="-2.694478">
        <ele>1379.9</ele>
        <time>2022-01-16T09:53:31Z</time>
      </trkpt>
      <trkpt lat="38.106177" lon="-2.694328">
        <ele>1379.6</ele>
        <time>2022-01-16T09:53:46Z</time>
      </trkpt>
      <trkpt lat="38.106338" lon="-2.694218">
        <ele>1381.6</ele>
        <time>2022-01-16T09:54:02Z</time>
      </trkpt>
      <trkpt lat="38.106496" lon="-2.694343">
        <ele>1382.6</ele>
        <time>2022-01-16T09:54:24Z</time>
      </trkpt>
      <trkpt lat="38.106618" lon="-2.694524">
        <ele>1381.8</ele>
        <time>2022-01-16T09:54:40Z</time>
      </trkpt>
      <trkpt lat="38.106789" lon="-2.694617">
        <ele>1379.6</ele>
        <time>2022-01-16T09:56:24Z</time>
      </trkpt>
      <trkpt lat="38.106947" lon="-2.694728">
        <ele>1376.6</ele>
        <time>2022-01-16T09:56:35Z</time>
      </trkpt>
      <trkpt lat="38.107110" lon="-2.694845">
        <ele>1377.2</ele>
        <time>2022-01-16T09:56:49Z</time>
      </trkpt>
      <trkpt lat="38.107276" lon="-2.694947">
        <ele>1379.5</ele>
        <time>2022-01-16T09:57:00Z</time>
      </trkpt>
      <trkpt lat="38.107461" lon="-2.694947">
        <ele>1377.9</ele>
        <time>2022-01-16T09:57:13Z</time>
      </trkpt>
      <trkpt lat="38.107583" lon="-2.694779">
        <ele>1375.6</ele>
        <time>2022-01-16T09:57:29Z</time>
      </trkpt>
      <trkpt lat="38.107763" lon="-2.694723">
        <ele>1375.2</ele>
        <time>2022-01-16T09:57:43Z</time>
      </trkpt>
      <trkpt lat="38.107946" lon="-2.694694">
        <ele>1374.6</ele>
        <time>2022-01-16T09:58:03Z</time>
      </trkpt>
      <trkpt lat="38.108101" lon="-2.694577">
        <ele>1380.3</ele>
        <time>2022-01-16T09:59:05Z</time>
      </trkpt>
      <trkpt lat="38.108189" lon="-2.694373">
        <ele>1378.6</ele>
        <time>2022-01-16T09:59:24Z</time>
      </trkpt>
      <trkpt lat="38.108282" lon="-2.694175">
        <ele>1379.6</ele>
        <time>2022-01-16T09:59:36Z</time>
      </trkpt>
      <trkpt lat="38.108341" lon="-2.693956">
        <ele>1378.6</ele>
        <time>2022-01-16T09:59:52Z</time>
      </trkpt>
      <trkpt lat="38.108388" lon="-2.693726">
        <ele>1379.3</ele>
        <time>2022-01-16T10:00:04Z</time>
      </trkpt>
      <trkpt lat="38.108521" lon="-2.693572">
        <ele>1378.7</ele>
        <time>2022-01-16T10:00:17Z</time>
      </trkpt>
      <trkpt lat="38.108696" lon="-2.693492">
        <ele>1378.6</ele>
        <time>2022-01-16T10:00:35Z</time>
      </trkpt>
      <trkpt lat="38.108820" lon="-2.693321">
        <ele>1376.6</ele>
        <time>2022-01-16T10:00:52Z</time>
      </trkpt>
      <trkpt lat="38.108950" lon="-2.693161">
        <ele>1376.6</ele>
        <time>2022-01-16T10:01:07Z</time>
      </trkpt>
      <trkpt lat="38.109094" lon="-2.693011">
        <ele>1378.5</ele>
        <time>2022-01-16T10:01:22Z</time>
      </trkpt>
      <trkpt lat="38.109251" lon="-2.692890">
        <ele>1378.6</ele>
        <time>2022-01-16T10:01:36Z</time>
      </trkpt>
      <trkpt lat="38.109391" lon="-2.692741">
        <ele>1379.5</ele>
        <time>2022-01-16T10:01:50Z</time>
      </trkpt>
      <trkpt lat="38.109544" lon="-2.692620">
        <ele>1379.6</ele>
        <time>2022-01-16T10:02:04Z</time>
      </trkpt>
      <trkpt lat="38.109696" lon="-2.692490">
        <ele>1379.6</ele>
        <time>2022-01-16T10:02:17Z</time>
      </trkpt>
      <trkpt lat="38.109814" lon="-2.692310">
        <ele>1382.3</ele>
        <time>2022-01-16T10:02:31Z</time>
      </trkpt>
      <trkpt lat="38.109954" lon="-2.692164">
        <ele>1383.8</ele>
        <time>2022-01-16T10:02:52Z</time>
      </trkpt>
      <trkpt lat="38.110127" lon="-2.692087">
        <ele>1381.9</ele>
        <time>2022-01-16T10:03:05Z</time>
      </trkpt>
      <trkpt lat="38.110307" lon="-2.692048">
        <ele>1382.6</ele>
        <time>2022-01-16T10:03:21Z</time>
      </trkpt>
      <trkpt lat="38.110473" lon="-2.691947">
        <ele>1381.6</ele>
        <time>2022-01-16T10:03:37Z</time>
      </trkpt>
      <trkpt lat="38.110557" lon="-2.691744">
        <ele>1382.6</ele>
        <time>2022-01-16T10:03:54Z</time>
      </trkpt>
      <trkpt lat="38.110666" lon="-2.691559">
        <ele>1383.5</ele>
        <time>2022-01-16T10:04:09Z</time>
      </trkpt>
      <trkpt lat="38.110830" lon="-2.691462">
        <ele>1384.3</ele>
        <time>2022-01-16T10:04:36Z</time>
      </trkpt>
      <trkpt lat="38.110957" lon="-2.691297">
        <ele>1385.6</ele>
        <time>2022-01-16T10:04:49Z</time>
      </trkpt>
      <trkpt lat="38.111087" lon="-2.691111">
        <ele>1383.3</ele>
        <time>2022-01-16T10:05:04Z</time>
      </trkpt>
      <trkpt lat="38.111216" lon="-2.690944">
        <ele>1384.6</ele>
        <time>2022-01-16T10:05:19Z</time>
      </trkpt>
      <trkpt lat="38.111388" lon="-2.690866">
        <ele>1380.6</ele>
        <time>2022-01-16T10:05:34Z</time>
      </trkpt>
      <trkpt lat="38.111556" lon="-2.690768">
        <ele>1381.6</ele>
        <time>2022-01-16T10:05:50Z</time>
      </trkpt>
      <trkpt lat="38.111711" lon="-2.690651">
        <ele>1384.6</ele>
        <time>2022-01-16T10:06:02Z</time>
      </trkpt>
      <trkpt lat="38.111806" lon="-2.690450">
        <ele>1383.8</ele>
        <time>2022-01-16T10:06:30Z</time>
      </trkpt>
      <trkpt lat="38.111955" lon="-2.690322">
        <ele>1385.5</ele>
        <time>2022-01-16T10:06:43Z</time>
      </trkpt>
      <trkpt lat="38.112082" lon="-2.690150">
        <ele>1388.5</ele>
        <time>2022-01-16T10:07:00Z</time>
      </trkpt>
      <trkpt lat="38.112183" lon="-2.689959">
        <ele>1390.3</ele>
        <time>2022-01-16T10:07:11Z</time>
      </trkpt>
      <trkpt lat="38.112287" lon="-2.689766">
        <ele>1391.6</ele>
        <time>2022-01-16T10:07:25Z</time>
      </trkpt>
      <trkpt lat="38.112415" lon="-2.689605">
        <ele>1387.9</ele>
        <time>2022-01-16T10:07:40Z</time>
      </trkpt>
      <trkpt lat="38.112547" lon="-2.689439">
        <ele>1387.6</ele>
        <time>2022-01-16T10:07:53Z</time>
      </trkpt>
      <trkpt lat="38.112664" lon="-2.689253">
        <ele>1386.3</ele>
        <time>2022-01-16T10:08:07Z</time>
      </trkpt>
      <trkpt lat="38.112793" lon="-2.689081">
        <ele>1385.6</ele>
        <time>2022-01-16T10:08:21Z</time>
      </trkpt>
      <trkpt lat="38.112914" lon="-2.688898">
        <ele>1385.6</ele>
        <time>2022-01-16T10:08:33Z</time>
      </trkpt>
      <trkpt lat="38.113007" lon="-2.688702">
        <ele>1387.6</ele>
        <time>2022-01-16T10:08:46Z</time>
      </trkpt>
      <trkpt lat="38.113130" lon="-2.688528">
        <ele>1387.9</ele>
        <time>2022-01-16T10:09:00Z</time>
      </trkpt>
      <trkpt lat="38.113297" lon="-2.688399">
        <ele>1388.7</ele>
        <time>2022-01-16T10:09:14Z</time>
      </trkpt>
      <trkpt lat="38.113460" lon="-2.688296">
        <ele>1387.6</ele>
        <time>2022-01-16T10:09:31Z</time>
      </trkpt>
      <trkpt lat="38.113640" lon="-2.688268">
        <ele>1386.6</ele>
        <time>2022-01-16T10:09:42Z</time>
      </trkpt>
      <trkpt lat="38.113798" lon="-2.688147">
        <ele>1386.6</ele>
        <time>2022-01-16T10:09:57Z</time>
      </trkpt>
      <trkpt lat="38.113965" lon="-2.688050">
        <ele>1386.7</ele>
        <time>2022-01-16T10:10:12Z</time>
      </trkpt>
      <trkpt lat="38.114108" lon="-2.687903">
        <ele>1387.7</ele>
        <time>2022-01-16T10:10:50Z</time>
      </trkpt>
      <trkpt lat="38.114210" lon="-2.687712">
        <ele>1389.6</ele>
        <time>2022-01-16T10:10:59Z</time>
      </trkpt>
      <trkpt lat="38.114337" lon="-2.687543">
        <ele>1390.6</ele>
        <time>2022-01-16T10:11:12Z</time>
      </trkpt>
      <trkpt lat="38.114437" lon="-2.687352">
        <ele>1390.6</ele>
        <time>2022-01-16T10:11:26Z</time>
      </trkpt>
      <trkpt lat="38.114518" lon="-2.687140">
        <ele>1391.5</ele>
        <time>2022-01-16T10:11:41Z</time>
      </trkpt>
      <trkpt lat="38.114666" lon="-2.686920">
        <ele>1387.9</ele>
        <time>2022-01-16T10:12:11Z</time>
      </trkpt>
      <trkpt lat="38.114800" lon="-2.686917">
        <ele>1391.5</ele>
        <time>2022-01-16T10:12:58Z</time>
      </trkpt>
      <trkpt lat="38.114978" lon="-2.686924">
        <ele>1388.9</ele>
        <time>2022-01-16T10:13:10Z</time>
      </trkpt>
      <trkpt lat="38.115183" lon="-2.686917">
        <ele>1381.9</ele>
        <time>2022-01-16T10:13:26Z</time>
      </trkpt>
      <trkpt lat="38.115324" lon="-2.686898">
        <ele>1390.6</ele>
        <time>2022-01-16T10:16:00Z</time>
      </trkpt>
      <trkpt lat="38.115514" lon="-2.686698">
        <ele>1390.6</ele>
        <time>2022-01-16T10:16:22Z</time>
      </trkpt>
      <trkpt lat="38.115665" lon="-2.686481">
        <ele>1386.7</ele>
        <time>2022-01-16T10:16:59Z</time>
      </trkpt>
      <trkpt lat="38.115753" lon="-2.686338">
        <ele>1383.6</ele>
        <time>2022-01-16T10:17:24Z</time>
      </trkpt>
      <trkpt lat="38.115873" lon="-2.686166">
        <ele>1376.6</ele>
        <time>2022-01-16T10:18:13Z</time>
      </trkpt>
      <trkpt lat="38.115792" lon="-2.685895">
        <ele>1367.6</ele>
        <time>2022-01-16T10:20:24Z</time>
      </trkpt>
      <trkpt lat="38.115924" lon="-2.685738">
        <ele>1366.6</ele>
        <time>2022-01-16T10:20:48Z</time>
      </trkpt>
      <trkpt lat="38.115883" lon="-2.685653">
        <ele>1365.6</ele>
        <time>2022-01-16T10:21:12Z</time>
      </trkpt>
      <trkpt lat="38.116308" lon="-2.685508">
        <ele>1376.7</ele>
        <time>2022-01-16T10:21:25Z</time>
      </trkpt>
      <trkpt lat="38.116325" lon="-2.685256">
        <ele>1359.3</ele>
        <time>2022-01-16T10:21:41Z</time>
      </trkpt>
      <trkpt lat="38.116382" lon="-2.685064">
        <ele>1360.7</ele>
        <time>2022-01-16T10:22:22Z</time>
      </trkpt>
      <trkpt lat="38.116420" lon="-2.684840">
        <ele>1360.6</ele>
        <time>2022-01-16T10:22:33Z</time>
      </trkpt>
      <trkpt lat="38.116537" lon="-2.684650">
        <ele>1363.6</ele>
        <time>2022-01-16T10:22:52Z</time>
      </trkpt>
      <trkpt lat="38.116571" lon="-2.684418">
        <ele>1363.5</ele>
        <time>2022-01-16T10:23:09Z</time>
      </trkpt>
      <trkpt lat="38.116635" lon="-2.684199">
        <ele>1365.6</ele>
        <time>2022-01-16T10:23:20Z</time>
      </trkpt>
      <trkpt lat="38.116707" lon="-2.683985">
        <ele>1364.9</ele>
        <time>2022-01-16T10:23:37Z</time>
      </trkpt>
      <trkpt lat="38.116794" lon="-2.683785">
        <ele>1365.6</ele>
        <time>2022-01-16T10:23:56Z</time>
      </trkpt>
      <trkpt lat="38.116919" lon="-2.683616">
        <ele>1365.7</ele>
        <time>2022-01-16T10:24:09Z</time>
      </trkpt>
      <trkpt lat="38.117071" lon="-2.683481">
        <ele>1371.3</ele>
        <time>2022-01-16T10:24:32Z</time>
      </trkpt>
      <trkpt lat="38.117241" lon="-2.683396">
        <ele>1365.6</ele>
        <time>2022-01-16T10:25:03Z</time>
      </trkpt>
      <trkpt lat="38.117354" lon="-2.683212">
        <ele>1368.6</ele>
        <time>2022-01-16T10:26:33Z</time>
      </trkpt>
      <trkpt lat="38.117312" lon="-2.682990">
        <ele>1364.9</ele>
        <time>2022-01-16T10:27:03Z</time>
      </trkpt>
      <trkpt lat="38.117201" lon="-2.682809">
        <ele>1363.6</ele>
        <time>2022-01-16T10:27:21Z</time>
      </trkpt>
      <trkpt lat="38.117115" lon="-2.682604">
        <ele>1356.9</ele>
        <time>2022-01-16T10:27:34Z</time>
      </trkpt>
      <trkpt lat="38.117070" lon="-2.682371">
        <ele>1357.3</ele>
        <time>2022-01-16T10:27:51Z</time>
      </trkpt>
      <trkpt lat="38.117098" lon="-2.682137">
        <ele>1361.6</ele>
        <time>2022-01-16T10:28:07Z</time>
      </trkpt>
      <trkpt lat="38.117223" lon="-2.681949">
        <ele>1364.7</ele>
        <time>2022-01-16T10:28:26Z</time>
      </trkpt>
      <trkpt lat="38.117367" lon="-2.681773">
        <ele>1365.6</ele>
        <time>2022-01-16T10:28:41Z</time>
      </trkpt>
      <trkpt lat="38.117462" lon="-2.681565">
        <ele>1365.6</ele>
        <time>2022-01-16T10:28:56Z</time>
      </trkpt>
      <trkpt lat="38.117580" lon="-2.681389">
        <ele>1366.3</ele>
        <time>2022-01-16T10:29:07Z</time>
      </trkpt>
      <trkpt lat="38.117712" lon="-2.681219">
        <ele>1367.6</ele>
        <time>2022-01-16T10:29:24Z</time>
      </trkpt>
      <trkpt lat="38.117828" lon="-2.681043">
        <ele>1370.5</ele>
        <time>2022-01-16T10:29:35Z</time>
      </trkpt>
      <trkpt lat="38.117891" lon="-2.680812">
        <ele>1368.6</ele>
        <time>2022-01-16T10:29:48Z</time>
      </trkpt>
      <trkpt lat="38.117920" lon="-2.680571">
        <ele>1363.6</ele>
        <time>2022-01-16T10:30:05Z</time>
      </trkpt>
      <trkpt lat="38.117975" lon="-2.680353">
        <ele>1362.3</ele>
        <time>2022-01-16T10:30:18Z</time>
      </trkpt>
      <trkpt lat="38.118022" lon="-2.680126">
        <ele>1362.6</ele>
        <time>2022-01-16T10:30:39Z</time>
      </trkpt>
      <trkpt lat="38.118085" lon="-2.679905">
        <ele>1362.6</ele>
        <time>2022-01-16T10:30:52Z</time>
      </trkpt>
      <trkpt lat="38.118164" lon="-2.679676">
        <ele>1362.6</ele>
        <time>2022-01-16T10:31:10Z</time>
      </trkpt>
      <trkpt lat="38.118261" lon="-2.679468">
        <ele>1360.9</ele>
        <time>2022-01-16T10:31:27Z</time>
      </trkpt>
      <trkpt lat="38.118342" lon="-2.679259">
        <ele>1361.3</ele>
        <time>2022-01-16T10:31:40Z</time>
      </trkpt>
      <trkpt lat="38.118425" lon="-2.679049">
        <ele>1358.7</ele>
        <time>2022-01-16T10:31:55Z</time>
      </trkpt>
      <trkpt lat="38.118501" lon="-2.678833">
        <ele>1357.6</ele>
        <time>2022-01-16T10:32:10Z</time>
      </trkpt>
      <trkpt lat="38.118577" lon="-2.678625">
        <ele>1356.6</ele>
        <time>2022-01-16T10:32:20Z</time>
      </trkpt>
      <trkpt lat="38.118689" lon="-2.678426">
        <ele>1357.6</ele>
        <time>2022-01-16T10:32:35Z</time>
      </trkpt>
      <trkpt lat="38.118768" lon="-2.678215">
        <ele>1357.6</ele>
        <time>2022-01-16T10:32:47Z</time>
      </trkpt>
      <trkpt lat="38.118867" lon="-2.678022">
        <ele>1358.6</ele>
        <time>2022-01-16T10:33:01Z</time>
      </trkpt>
      <trkpt lat="38.118951" lon="-2.677811">
        <ele>1357.3</ele>
        <time>2022-01-16T10:33:23Z</time>
      </trkpt>
      <trkpt lat="38.119024" lon="-2.677597">
        <ele>1358.6</ele>
        <time>2022-01-16T10:33:36Z</time>
      </trkpt>
      <trkpt lat="38.119123" lon="-2.677395">
        <ele>1359.6</ele>
        <time>2022-01-16T10:33:50Z</time>
      </trkpt>
      <trkpt lat="38.119169" lon="-2.677161">
        <ele>1359.6</ele>
        <time>2022-01-16T10:34:03Z</time>
      </trkpt>
      <trkpt lat="38.119250" lon="-2.676953">
        <ele>1358.6</ele>
        <time>2022-01-16T10:34:17Z</time>
      </trkpt>
      <trkpt lat="38.119296" lon="-2.676728">
        <ele>1358.6</ele>
        <time>2022-01-16T10:34:31Z</time>
      </trkpt>
      <trkpt lat="38.119347" lon="-2.676498">
        <ele>1358.9</ele>
        <time>2022-01-16T10:34:48Z</time>
      </trkpt>
      <trkpt lat="38.119387" lon="-2.676265">
        <ele>1358.6</ele>
        <time>2022-01-16T10:35:03Z</time>
      </trkpt>
      <trkpt lat="38.119450" lon="-2.676040">
        <ele>1359.6</ele>
        <time>2022-01-16T10:35:16Z</time>
      </trkpt>
      <trkpt lat="38.119479" lon="-2.675794">
        <ele>1359.6</ele>
        <time>2022-01-16T10:35:31Z</time>
      </trkpt>
      <trkpt lat="38.119510" lon="-2.675556">
        <ele>1360.6</ele>
        <time>2022-01-16T10:35:46Z</time>
      </trkpt>
      <trkpt lat="38.119541" lon="-2.675328">
        <ele>1358.6</ele>
        <time>2022-01-16T10:36:00Z</time>
      </trkpt>
      <trkpt lat="38.119553" lon="-2.675097">
        <ele>1357.6</ele>
        <time>2022-01-16T10:36:13Z</time>
      </trkpt>
      <trkpt lat="38.119538" lon="-2.674856">
        <ele>1355.6</ele>
        <time>2022-01-16T10:36:28Z</time>
      </trkpt>
      <trkpt lat="38.119507" lon="-2.674627">
        <ele>1353.9</ele>
        <time>2022-01-16T10:36:45Z</time>
      </trkpt>
      <trkpt lat="38.119460" lon="-2.674393">
        <ele>1354.6</ele>
        <time>2022-01-16T10:36:58Z</time>
      </trkpt>
      <trkpt lat="38.119437" lon="-2.674160">
        <ele>1352.7</ele>
        <time>2022-01-16T10:37:20Z</time>
      </trkpt>
      <trkpt lat="38.119391" lon="-2.673925">
        <ele>1350.6</ele>
        <time>2022-01-16T10:37:32Z</time>
      </trkpt>
      <trkpt lat="38.119324" lon="-2.673709">
        <ele>1344.9</ele>
        <time>2022-01-16T10:38:25Z</time>
      </trkpt>
      <trkpt lat="38.119311" lon="-2.673467">
        <ele>1344.6</ele>
        <time>2022-01-16T10:40:40Z</time>
      </trkpt>
      <trkpt lat="38.119293" lon="-2.673227">
        <ele>1343.6</ele>
        <time>2022-01-16T10:40:55Z</time>
      </trkpt>
      <trkpt lat="38.119289" lon="-2.672994">
        <ele>1339.7</ele>
        <time>2022-01-16T10:41:14Z</time>
      </trkpt>
      <trkpt lat="38.119239" lon="-2.672765">
        <ele>1342.3</ele>
        <time>2022-01-16T10:41:28Z</time>
      </trkpt>
      <trkpt lat="38.119172" lon="-2.672541">
        <ele>1339.7</ele>
        <time>2022-01-16T10:41:38Z</time>
      </trkpt>
      <trkpt lat="38.119110" lon="-2.672320">
        <ele>1338.6</ele>
        <time>2022-01-16T10:41:51Z</time>
      </trkpt>
      <trkpt lat="38.119062" lon="-2.672087">
        <ele>1337.6</ele>
        <time>2022-01-16T10:42:07Z</time>
      </trkpt>
      <trkpt lat="38.119051" lon="-2.671853">
        <ele>1333.6</ele>
        <time>2022-01-16T10:42:31Z</time>
      </trkpt>
      <trkpt lat="38.119003" lon="-2.671628">
        <ele>1337.8</ele>
        <time>2022-01-16T10:42:59Z</time>
      </trkpt>
      <trkpt lat="38.118962" lon="-2.671402">
        <ele>1335.7</ele>
        <time>2022-01-16T10:43:11Z</time>
      </trkpt>
      <trkpt lat="38.118888" lon="-2.671193">
        <ele>1331.9</ele>
        <time>2022-01-16T10:43:27Z</time>
      </trkpt>
      <trkpt lat="38.118885" lon="-2.670958">
        <ele>1333.6</ele>
        <time>2022-01-16T10:43:57Z</time>
      </trkpt>
      <trkpt lat="38.118937" lon="-2.670729">
        <ele>1333.6</ele>
        <time>2022-01-16T10:44:07Z</time>
      </trkpt>
      <trkpt lat="38.119033" lon="-2.670517">
        <ele>1334.5</ele>
        <time>2022-01-16T10:44:21Z</time>
      </trkpt>
      <trkpt lat="38.119168" lon="-2.670353">
        <ele>1332.6</ele>
        <time>2022-01-16T10:44:52Z</time>
      </trkpt>
      <trkpt lat="38.119285" lon="-2.670158">
        <ele>1330.6</ele>
        <time>2022-01-16T10:45:07Z</time>
      </trkpt>
      <trkpt lat="38.119372" lon="-2.669951">
        <ele>1330.6</ele>
        <time>2022-01-16T10:45:20Z</time>
      </trkpt>
      <trkpt lat="38.119356" lon="-2.669755">
        <ele>1331.5</ele>
        <time>2022-01-16T10:45:41Z</time>
      </trkpt>
      <trkpt lat="38.119378" lon="-2.669648">
        <ele>1331.6</ele>
        <time>2022-01-16T11:04:59Z</time>
      </trkpt>
      <trkpt lat="38.119433" lon="-2.669483">
        <ele>1335.6</ele>
        <time>2022-01-16T11:05:38Z</time>
      </trkpt>
      <trkpt lat="38.119495" lon="-2.669266">
        <ele>1334.6</ele>
        <time>2022-01-16T11:05:53Z</time>
      </trkpt>
      <trkpt lat="38.119585" lon="-2.669057">
        <ele>1331.6</ele>
        <time>2022-01-16T11:06:14Z</time>
      </trkpt>
      <trkpt lat="38.119634" lon="-2.668834">
        <ele>1329.6</ele>
        <time>2022-01-16T11:06:32Z</time>
      </trkpt>
      <trkpt lat="38.119700" lon="-2.668625">
        <ele>1329.3</ele>
        <time>2022-01-16T11:06:44Z</time>
      </trkpt>
      <trkpt lat="38.119810" lon="-2.668438">
        <ele>1327.7</ele>
        <time>2022-01-16T11:06:58Z</time>
      </trkpt>
      <trkpt lat="38.119962" lon="-2.668306">
        <ele>1325.6</ele>
        <time>2022-01-16T11:07:11Z</time>
      </trkpt>
      <trkpt lat="38.120086" lon="-2.668138">
        <ele>1325.6</ele>
        <time>2022-01-16T11:07:25Z</time>
      </trkpt>
      <trkpt lat="38.120202" lon="-2.667949">
        <ele>1325.6</ele>
        <time>2022-01-16T11:07:36Z</time>
      </trkpt>
      <trkpt lat="38.120345" lon="-2.667783">
        <ele>1327.5</ele>
        <time>2022-01-16T11:07:50Z</time>
      </trkpt>
      <trkpt lat="38.120506" lon="-2.667658">
        <ele>1327.6</ele>
        <time>2022-01-16T11:08:04Z</time>
      </trkpt>
      <trkpt lat="38.120668" lon="-2.667550">
        <ele>1325.6</ele>
        <time>2022-01-16T11:08:20Z</time>
      </trkpt>
      <trkpt lat="38.120853" lon="-2.667527">
        <ele>1324.6</ele>
        <time>2022-01-16T11:08:32Z</time>
      </trkpt>
      <trkpt lat="38.121033" lon="-2.667575">
        <ele>1322.6</ele>
        <time>2022-01-16T11:08:47Z</time>
      </trkpt>
      <trkpt lat="38.121172" lon="-2.667720">
        <ele>1321.6</ele>
        <time>2022-01-16T11:09:05Z</time>
      </trkpt>
      <trkpt lat="38.121340" lon="-2.667833">
        <ele>1319.4</ele>
        <time>2022-01-16T11:09:21Z</time>
      </trkpt>
      <trkpt lat="38.121497" lon="-2.667946">
        <ele>1318.6</ele>
        <time>2022-01-16T11:09:37Z</time>
      </trkpt>
      <trkpt lat="38.121679" lon="-2.667993">
        <ele>1321.6</ele>
        <time>2022-01-16T11:09:52Z</time>
      </trkpt>
      <trkpt lat="38.121865" lon="-2.668001">
        <ele>1321.7</ele>
        <time>2022-01-16T11:10:09Z</time>
      </trkpt>
      <trkpt lat="38.122044" lon="-2.667952">
        <ele>1323.6</ele>
        <time>2022-01-16T11:10:23Z</time>
      </trkpt>
      <trkpt lat="38.122228" lon="-2.667870">
        <ele>1324.6</ele>
        <time>2022-01-16T11:10:37Z</time>
      </trkpt>
      <trkpt lat="38.122412" lon="-2.667900">
        <ele>1322.9</ele>
        <time>2022-01-16T11:10:55Z</time>
      </trkpt>
      <trkpt lat="38.122576" lon="-2.667994">
        <ele>1322.6</ele>
        <time>2022-01-16T11:11:11Z</time>
      </trkpt>
      <trkpt lat="38.122756" lon="-2.668070">
        <ele>1322.6</ele>
        <time>2022-01-16T11:11:28Z</time>
      </trkpt>
      <trkpt lat="38.122939" lon="-2.668076">
        <ele>1321.5</ele>
        <time>2022-01-16T11:12:17Z</time>
      </trkpt>
      <trkpt lat="38.123126" lon="-2.668055">
        <ele>1321.6</ele>
        <time>2022-01-16T11:12:36Z</time>
      </trkpt>
      <trkpt lat="38.123294" lon="-2.667951">
        <ele>1323.3</ele>
        <time>2022-01-16T11:12:48Z</time>
      </trkpt>
      <trkpt lat="38.123441" lon="-2.667814">
        <ele>1323.6</ele>
        <time>2022-01-16T11:13:01Z</time>
      </trkpt>
      <trkpt lat="38.123607" lon="-2.667723">
        <ele>1322.6</ele>
        <time>2022-01-16T11:13:14Z</time>
      </trkpt>
      <trkpt lat="38.123740" lon="-2.667562">
        <ele>1322.3</ele>
        <time>2022-01-16T11:13:31Z</time>
      </trkpt>
      <trkpt lat="38.123886" lon="-2.667417">
        <ele>1323.6</ele>
        <time>2022-01-16T11:13:44Z</time>
      </trkpt>
      <trkpt lat="38.124039" lon="-2.667287">
        <ele>1324.6</ele>
        <time>2022-01-16T11:13:58Z</time>
      </trkpt>
      <trkpt lat="38.124140" lon="-2.667087">
        <ele>1322.6</ele>
        <time>2022-01-16T11:14:13Z</time>
      </trkpt>
      <trkpt lat="38.124163" lon="-2.666857">
        <ele>1321.6</ele>
        <time>2022-01-16T11:14:32Z</time>
      </trkpt>
      <trkpt lat="38.124157" lon="-2.666620">
        <ele>1323.6</ele>
        <time>2022-01-16T11:14:50Z</time>
      </trkpt>
      <trkpt lat="38.124015" lon="-2.666436">
        <ele>1318.6</ele>
        <time>2022-01-16T11:15:59Z</time>
      </trkpt>
      <trkpt lat="38.123893" lon="-2.666255">
        <ele>1318.6</ele>
        <time>2022-01-16T11:16:14Z</time>
      </trkpt>
      <trkpt lat="38.123834" lon="-2.666020">
        <ele>1319.5</ele>
        <time>2022-01-16T11:16:28Z</time>
      </trkpt>
      <trkpt lat="38.123855" lon="-2.665736">
        <ele>1320.6</ele>
        <time>2022-01-16T11:16:42Z</time>
      </trkpt>
      <trkpt lat="38.124019" lon="-2.665656">
        <ele>1318.6</ele>
        <time>2022-01-16T11:16:54Z</time>
      </trkpt>
      <trkpt lat="38.124196" lon="-2.665704">
        <ele>1317.6</ele>
        <time>2022-01-16T11:17:09Z</time>
      </trkpt>
      <trkpt lat="38.124360" lon="-2.665795">
        <ele>1317.6</ele>
        <time>2022-01-16T11:17:20Z</time>
      </trkpt>
      <trkpt lat="38.124519" lon="-2.665902">
        <ele>1320.3</ele>
        <time>2022-01-16T11:17:48Z</time>
      </trkpt>
      <trkpt lat="38.124702" lon="-2.665871">
        <ele>1319.6</ele>
        <time>2022-01-16T11:18:01Z</time>
      </trkpt>
      <trkpt lat="38.124884" lon="-2.665778">
        <ele>1319.6</ele>
        <time>2022-01-16T11:18:17Z</time>
      </trkpt>
      <trkpt lat="38.125045" lon="-2.665664">
        <ele>1321.6</ele>
        <time>2022-01-16T11:18:28Z</time>
      </trkpt>
      <trkpt lat="38.125151" lon="-2.665475">
        <ele>1321.6</ele>
        <time>2022-01-16T11:18:44Z</time>
      </trkpt>
      <trkpt lat="38.125292" lon="-2.665320">
        <ele>1320.6</ele>
        <time>2022-01-16T11:18:57Z</time>
      </trkpt>
      <trkpt lat="38.125414" lon="-2.665150">
        <ele>1321.6</ele>
        <time>2022-01-16T11:19:11Z</time>
      </trkpt>
      <trkpt lat="38.125558" lon="-2.664997">
        <ele>1320.6</ele>
        <time>2022-01-16T11:19:25Z</time>
      </trkpt>
      <trkpt lat="38.125720" lon="-2.664889">
        <ele>1317.7</ele>
        <time>2022-01-16T11:19:38Z</time>
      </trkpt>
      <trkpt lat="38.125921" lon="-2.664921">
        <ele>1316.7</ele>
        <time>2022-01-16T11:19:50Z</time>
      </trkpt>
      <trkpt lat="38.126105" lon="-2.664916">
        <ele>1313.6</ele>
        <time>2022-01-16T11:20:07Z</time>
      </trkpt>
      <trkpt lat="38.126275" lon="-2.664817">
        <ele>1315.5</ele>
        <time>2022-01-16T11:20:33Z</time>
      </trkpt>
      <trkpt lat="38.126460" lon="-2.664819">
        <ele>1313.7</ele>
        <time>2022-01-16T11:20:57Z</time>
      </trkpt>
      <trkpt lat="38.126633" lon="-2.664716">
        <ele>1311.6</ele>
        <time>2022-01-16T11:21:07Z</time>
      </trkpt>
      <trkpt lat="38.126741" lon="-2.664509">
        <ele>1310.8</ele>
        <time>2022-01-16T11:21:43Z</time>
      </trkpt>
      <trkpt lat="38.126806" lon="-2.664289">
        <ele>1308.7</ele>
        <time>2022-01-16T11:21:56Z</time>
      </trkpt>
      <trkpt lat="38.126878" lon="-2.664071">
        <ele>1308.6</ele>
        <time>2022-01-16T11:22:09Z</time>
      </trkpt>
      <trkpt lat="38.126924" lon="-2.663847">
        <ele>1306.6</ele>
        <time>2022-01-16T11:22:21Z</time>
      </trkpt>
      <trkpt lat="38.126977" lon="-2.663616">
        <ele>1305.6</ele>
        <time>2022-01-16T11:22:34Z</time>
      </trkpt>
      <trkpt lat="38.127010" lon="-2.663387">
        <ele>1304.6</ele>
        <time>2022-01-16T11:22:49Z</time>
      </trkpt>
      <trkpt lat="38.127003" lon="-2.663144">
        <ele>1303.9</ele>
        <time>2022-01-16T11:23:01Z</time>
      </trkpt>
      <trkpt lat="38.127057" lon="-2.662912">
        <ele>1306.6</ele>
        <time>2022-01-16T11:23:12Z</time>
      </trkpt>
      <trkpt lat="38.127086" lon="-2.662677">
        <ele>1303.6</ele>
        <time>2022-01-16T11:23:28Z</time>
      </trkpt>
      <trkpt lat="38.127076" lon="-2.662432">
        <ele>1304.3</ele>
        <time>2022-01-16T11:23:38Z</time>
      </trkpt>
      <trkpt lat="38.127063" lon="-2.662184">
        <ele>1304.6</ele>
        <time>2022-01-16T11:23:57Z</time>
      </trkpt>
      <trkpt lat="38.126969" lon="-2.662003">
        <ele>1300.6</ele>
        <time>2022-01-16T11:24:18Z</time>
      </trkpt>
      <trkpt lat="38.126895" lon="-2.661756">
        <ele>1301.6</ele>
        <time>2022-01-16T11:24:37Z</time>
      </trkpt>
      <trkpt lat="38.126864" lon="-2.661543">
        <ele>1300.6</ele>
        <time>2022-01-16T11:24:55Z</time>
      </trkpt>
      <trkpt lat="38.126722" lon="-2.661369">
        <ele>1299.5</ele>
        <time>2022-01-16T11:25:08Z</time>
      </trkpt>
      <trkpt lat="38.126690" lon="-2.661162">
        <ele>1299.6</ele>
        <time>2022-01-16T11:25:22Z</time>
      </trkpt>
      <trkpt lat="38.126932" lon="-2.661135">
        <ele>1299.9</ele>
        <time>2022-01-16T11:26:04Z</time>
      </trkpt>
      <trkpt lat="38.127100" lon="-2.661269">
        <ele>1299.6</ele>
        <time>2022-01-16T11:26:15Z</time>
      </trkpt>
      <trkpt lat="38.127263" lon="-2.661349">
        <ele>1301.3</ele>
        <time>2022-01-16T11:26:33Z</time>
      </trkpt>
      <trkpt lat="38.127472" lon="-2.661346">
        <ele>1301.6</ele>
        <time>2022-01-16T11:26:54Z</time>
      </trkpt>
      <trkpt lat="38.127642" lon="-2.661251">
        <ele>1300.5</ele>
        <time>2022-01-16T11:27:05Z</time>
      </trkpt>
      <trkpt lat="38.127757" lon="-2.661072">
        <ele>1299.6</ele>
        <time>2022-01-16T11:27:21Z</time>
      </trkpt>
      <trkpt lat="38.127835" lon="-2.660882">
        <ele>1300.6</ele>
        <time>2022-01-16T11:27:33Z</time>
      </trkpt>
      <trkpt lat="38.127856" lon="-2.660621">
        <ele>1300.6</ele>
        <time>2022-01-16T11:27:50Z</time>
      </trkpt>
      <trkpt lat="38.127908" lon="-2.660401">
        <ele>1299.6</ele>
        <time>2022-01-16T11:28:05Z</time>
      </trkpt>
      <trkpt lat="38.128000" lon="-2.660195">
        <ele>1298.9</ele>
        <time>2022-01-16T11:28:20Z</time>
      </trkpt>
      <trkpt lat="38.128029" lon="-2.659955">
        <ele>1299.3</ele>
        <time>2022-01-16T11:28:36Z</time>
      </trkpt>
      <trkpt lat="38.128107" lon="-2.659745">
        <ele>1298.6</ele>
        <time>2022-01-16T11:28:51Z</time>
      </trkpt>
      <trkpt lat="38.128170" lon="-2.659522">
        <ele>1297.6</ele>
        <time>2022-01-16T11:29:07Z</time>
      </trkpt>
      <trkpt lat="38.128251" lon="-2.659314">
        <ele>1299.6</ele>
        <time>2022-01-16T11:29:22Z</time>
      </trkpt>
      <trkpt lat="38.128297" lon="-2.659083">
        <ele>1298.7</ele>
        <time>2022-01-16T11:29:39Z</time>
      </trkpt>
      <trkpt lat="38.128412" lon="-2.658899">
        <ele>1293.7</ele>
        <time>2022-01-16T11:29:55Z</time>
      </trkpt>
      <trkpt lat="38.128518" lon="-2.658711">
        <ele>1295.6</ele>
        <time>2022-01-16T11:30:09Z</time>
      </trkpt>
      <trkpt lat="38.128683" lon="-2.658609">
        <ele>1295.6</ele>
        <time>2022-01-16T11:30:24Z</time>
      </trkpt>
      <trkpt lat="38.128863" lon="-2.658554">
        <ele>1293.6</ele>
        <time>2022-01-16T11:30:41Z</time>
      </trkpt>
      <trkpt lat="38.129040" lon="-2.658623">
        <ele>1292.6</ele>
        <time>2022-01-16T11:30:55Z</time>
      </trkpt>
      <trkpt lat="38.129205" lon="-2.658730">
        <ele>1294.6</ele>
        <time>2022-01-16T11:31:12Z</time>
      </trkpt>
      <trkpt lat="38.129379" lon="-2.658824">
        <ele>1292.9</ele>
        <time>2022-01-16T11:31:23Z</time>
      </trkpt>
      <trkpt lat="38.129527" lon="-2.658956">
        <ele>1291.6</ele>
        <time>2022-01-16T11:31:41Z</time>
      </trkpt>
      <trkpt lat="38.129694" lon="-2.659056">
        <ele>1289.7</ele>
        <time>2022-01-16T11:31:58Z</time>
      </trkpt>
      <trkpt lat="38.129863" lon="-2.659155">
        <ele>1288.6</ele>
        <time>2022-01-16T11:32:13Z</time>
      </trkpt>
      <trkpt lat="38.130013" lon="-2.659283">
        <ele>1287.6</ele>
        <time>2022-01-16T11:32:25Z</time>
      </trkpt>
      <trkpt lat="38.130167" lon="-2.659410">
        <ele>1287.7</ele>
        <time>2022-01-16T11:32:41Z</time>
      </trkpt>
      <trkpt lat="38.130337" lon="-2.659486">
        <ele>1288.9</ele>
        <time>2022-01-16T11:32:57Z</time>
      </trkpt>
      <trkpt lat="38.130512" lon="-2.659579">
        <ele>1287.6</ele>
        <time>2022-01-16T11:33:13Z</time>
      </trkpt>
      <trkpt lat="38.130674" lon="-2.659697">
        <ele>1284.6</ele>
        <time>2022-01-16T11:33:34Z</time>
      </trkpt>
      <trkpt lat="38.130840" lon="-2.659787">
        <ele>1283.7</ele>
        <time>2022-01-16T11:33:46Z</time>
      </trkpt>
      <trkpt lat="38.131019" lon="-2.659853">
        <ele>1285.6</ele>
        <time>2022-01-16T11:34:07Z</time>
      </trkpt>
      <trkpt lat="38.131204" lon="-2.659850">
        <ele>1285.6</ele>
        <time>2022-01-16T11:34:21Z</time>
      </trkpt>
      <trkpt lat="38.131383" lon="-2.659917">
        <ele>1287.3</ele>
        <time>2022-01-16T11:34:43Z</time>
      </trkpt>
      <trkpt lat="38.131572" lon="-2.659958">
        <ele>1279.9</ele>
        <time>2022-01-16T11:36:15Z</time>
      </trkpt>
      <trkpt lat="38.131731" lon="-2.660085">
        <ele>1278.9</ele>
        <time>2022-01-16T11:36:32Z</time>
      </trkpt>
      <trkpt lat="38.131909" lon="-2.660180">
        <ele>1285.3</ele>
        <time>2022-01-16T11:36:57Z</time>
      </trkpt>
      <trkpt lat="38.132045" lon="-2.660002">
        <ele>1286.7</ele>
        <time>2022-01-16T11:37:09Z</time>
      </trkpt>
      <trkpt lat="38.132161" lon="-2.659784">
        <ele>1288.6</ele>
        <time>2022-01-16T11:37:44Z</time>
      </trkpt>
      <trkpt lat="38.132209" lon="-2.659554">
        <ele>1288.7</ele>
        <time>2022-01-16T11:38:00Z</time>
      </trkpt>
      <trkpt lat="38.132224" lon="-2.659351">
        <ele>1287.6</ele>
        <time>2022-01-16T11:38:14Z</time>
      </trkpt>
      <trkpt lat="38.132359" lon="-2.659138">
        <ele>1287.7</ele>
        <time>2022-01-16T11:38:26Z</time>
      </trkpt>
      <trkpt lat="38.132537" lon="-2.659175">
        <ele>1281.6</ele>
        <time>2022-01-16T11:38:41Z</time>
      </trkpt>
      <trkpt lat="38.132677" lon="-2.659312">
        <ele>1283.5</ele>
        <time>2022-01-16T11:38:58Z</time>
      </trkpt>
      <trkpt lat="38.132819" lon="-2.659385">
        <ele>1283.9</ele>
        <time>2022-01-16T11:39:11Z</time>
      </trkpt>
      <trkpt lat="38.133029" lon="-2.659559">
        <ele>1280.6</ele>
        <time>2022-01-16T11:39:25Z</time>
      </trkpt>
      <trkpt lat="38.133155" lon="-2.659606">
        <ele>1279.6</ele>
        <time>2022-01-16T11:39:38Z</time>
      </trkpt>
      <trkpt lat="38.133129" lon="-2.659365">
        <ele>1279.6</ele>
        <time>2022-01-16T11:39:53Z</time>
      </trkpt>
      <trkpt lat="38.133013" lon="-2.659191">
        <ele>1282.5</ele>
        <time>2022-01-16T11:40:05Z</time>
      </trkpt>
      <trkpt lat="38.132929" lon="-2.658937">
        <ele>1284.6</ele>
        <time>2022-01-16T11:40:21Z</time>
      </trkpt>
      <trkpt lat="38.133050" lon="-2.658699">
        <ele>1285.6</ele>
        <time>2022-01-16T11:40:35Z</time>
      </trkpt>
      <trkpt lat="38.133168" lon="-2.658522">
        <ele>1283.6</ele>
        <time>2022-01-16T11:40:52Z</time>
      </trkpt>
      <trkpt lat="38.133293" lon="-2.658353">
        <ele>1282.6</ele>
        <time>2022-01-16T11:41:07Z</time>
      </trkpt>
      <trkpt lat="38.133421" lon="-2.658187">
        <ele>1284.3</ele>
        <time>2022-01-16T11:41:20Z</time>
      </trkpt>
      <trkpt lat="38.133538" lon="-2.658009">
        <ele>1283.6</ele>
        <time>2022-01-16T11:41:35Z</time>
      </trkpt>
      <trkpt lat="38.133606" lon="-2.657789">
        <ele>1282.6</ele>
        <time>2022-01-16T11:41:49Z</time>
      </trkpt>
      <trkpt lat="38.133674" lon="-2.657556">
        <ele>1284.6</ele>
        <time>2022-01-16T11:42:02Z</time>
      </trkpt>
      <trkpt lat="38.133780" lon="-2.657360">
        <ele>1282.7</ele>
        <time>2022-01-16T11:42:16Z</time>
      </trkpt>
      <trkpt lat="38.133904" lon="-2.657180">
        <ele>1284.6</ele>
        <time>2022-01-16T11:42:31Z</time>
      </trkpt>
      <trkpt lat="38.133990" lon="-2.656977">
        <ele>1284.7</ele>
        <time>2022-01-16T11:42:46Z</time>
      </trkpt>
      <trkpt lat="38.134075" lon="-2.656771">
        <ele>1283.6</ele>
        <time>2022-01-16T11:43:06Z</time>
      </trkpt>
      <trkpt lat="38.134200" lon="-2.656604">
        <ele>1286.6</ele>
        <time>2022-01-16T11:43:24Z</time>
      </trkpt>
      <trkpt lat="38.134298" lon="-2.656408">
        <ele>1287.3</ele>
        <time>2022-01-16T11:43:38Z</time>
      </trkpt>
      <trkpt lat="38.134397" lon="-2.656212">
        <ele>1288.3</ele>
        <time>2022-01-16T11:43:55Z</time>
      </trkpt>
      <trkpt lat="38.134435" lon="-2.655981">
        <ele>1288.6</ele>
        <time>2022-01-16T11:44:06Z</time>
      </trkpt>
      <trkpt lat="38.134450" lon="-2.655737">
        <ele>1286.6</ele>
        <time>2022-01-16T11:44:21Z</time>
      </trkpt>
      <trkpt lat="38.134521" lon="-2.655521">
        <ele>1281.7</ele>
        <time>2022-01-16T11:44:41Z</time>
      </trkpt>
      <trkpt lat="38.134586" lon="-2.655306">
        <ele>1281.6</ele>
        <time>2022-01-16T11:44:55Z</time>
      </trkpt>
      <trkpt lat="38.134577" lon="-2.655078">
        <ele>1281.7</ele>
        <time>2022-01-16T11:45:06Z</time>
      </trkpt>
      <trkpt lat="38.134615" lon="-2.654847">
        <ele>1281.7</ele>
        <time>2022-01-16T11:45:24Z</time>
      </trkpt>
      <trkpt lat="38.134659" lon="-2.654619">
        <ele>1276.6</ele>
        <time>2022-01-16T11:45:42Z</time>
      </trkpt>
      <trkpt lat="38.134738" lon="-2.654402">
        <ele>1277.3</ele>
        <time>2022-01-16T11:45:56Z</time>
      </trkpt>
      <trkpt lat="38.134853" lon="-2.654225">
        <ele>1274.7</ele>
        <time>2022-01-16T11:46:12Z</time>
      </trkpt>
      <trkpt lat="38.134868" lon="-2.653993">
        <ele>1273.6</ele>
        <time>2022-01-16T11:46:28Z</time>
      </trkpt>
      <trkpt lat="38.134930" lon="-2.653769">
        <ele>1276.5</ele>
        <time>2022-01-16T11:46:42Z</time>
      </trkpt>
      <trkpt lat="38.135075" lon="-2.653631">
        <ele>1278.7</ele>
        <time>2022-01-16T11:46:59Z</time>
      </trkpt>
      <trkpt lat="38.135258" lon="-2.653611">
        <ele>1278.6</ele>
        <time>2022-01-16T11:47:13Z</time>
      </trkpt>
      <trkpt lat="38.135396" lon="-2.653456">
        <ele>1277.6</ele>
        <time>2022-01-16T11:47:29Z</time>
      </trkpt>
      <trkpt lat="38.135540" lon="-2.653301">
        <ele>1275.7</ele>
        <time>2022-01-16T11:47:41Z</time>
      </trkpt>
      <trkpt lat="38.135656" lon="-2.653118">
        <ele>1273.9</ele>
        <time>2022-01-16T11:47:56Z</time>
      </trkpt>
      <trkpt lat="38.135781" lon="-2.652945">
        <ele>1270.6</ele>
        <time>2022-01-16T11:48:11Z</time>
      </trkpt>
      <trkpt lat="38.135895" lon="-2.652764">
        <ele>1270.6</ele>
        <time>2022-01-16T11:48:23Z</time>
      </trkpt>
      <trkpt lat="38.136041" lon="-2.652627">
        <ele>1270.6</ele>
        <time>2022-01-16T11:48:36Z</time>
      </trkpt>
      <trkpt lat="38.136162" lon="-2.652455">
        <ele>1270.6</ele>
        <time>2022-01-16T11:48:51Z</time>
      </trkpt>
      <trkpt lat="38.136316" lon="-2.652322">
        <ele>1271.6</ele>
        <time>2022-01-16T11:49:05Z</time>
      </trkpt>
      <trkpt lat="38.136364" lon="-2.652101">
        <ele>1273.4</ele>
        <time>2022-01-16T11:49:17Z</time>
      </trkpt>
      <trkpt lat="38.136448" lon="-2.651891">
        <ele>1274.6</ele>
        <time>2022-01-16T11:49:36Z</time>
      </trkpt>
      <trkpt lat="38.136500" lon="-2.651664">
        <ele>1274.6</ele>
        <time>2022-01-16T11:49:56Z</time>
      </trkpt>
      <trkpt lat="38.136625" lon="-2.651491">
        <ele>1273.6</ele>
        <time>2022-01-16T11:50:12Z</time>
      </trkpt>
      <trkpt lat="38.136723" lon="-2.651299">
        <ele>1273.7</ele>
        <time>2022-01-16T11:50:27Z</time>
      </trkpt>
      <trkpt lat="38.136801" lon="-2.651087">
        <ele>1274.6</ele>
        <time>2022-01-16T11:50:43Z</time>
      </trkpt>
      <trkpt lat="38.136836" lon="-2.650855">
        <ele>1274.6</ele>
        <time>2022-01-16T11:50:59Z</time>
      </trkpt>
      <trkpt lat="38.136791" lon="-2.650626">
        <ele>1274.6</ele>
        <time>2022-01-16T11:51:16Z</time>
      </trkpt>
      <trkpt lat="38.136707" lon="-2.650423">
        <ele>1273.6</ele>
        <time>2022-01-16T11:51:26Z</time>
      </trkpt>
      <trkpt lat="38.136736" lon="-2.650194">
        <ele>1274.6</ele>
        <time>2022-01-16T11:52:03Z</time>
      </trkpt>
      <trkpt lat="38.137012" lon="-2.650240">
        <ele>1270.1</ele>
        <time>2022-01-16T11:52:27Z</time>
      </trkpt>
      <trkpt lat="38.137183" lon="-2.650321">
        <ele>1274.6</ele>
        <time>2022-01-16T11:52:38Z</time>
      </trkpt>
      <trkpt lat="38.137332" lon="-2.650172">
        <ele>1271.7</ele>
        <time>2022-01-16T11:52:50Z</time>
      </trkpt>
      <trkpt lat="38.137408" lon="-2.649951">
        <ele>1270.3</ele>
        <time>2022-01-16T11:53:01Z</time>
      </trkpt>
      <trkpt lat="38.137511" lon="-2.649754">
        <ele>1276.6</ele>
        <time>2022-01-16T11:53:18Z</time>
      </trkpt>
      <trkpt lat="38.137563" lon="-2.649527">
        <ele>1276.6</ele>
        <time>2022-01-16T11:53:31Z</time>
      </trkpt>
      <trkpt lat="38.137484" lon="-2.649314">
        <ele>1273.7</ele>
        <time>2022-01-16T11:53:44Z</time>
      </trkpt>
      <trkpt lat="38.137352" lon="-2.649149">
        <ele>1271.7</ele>
        <time>2022-01-16T11:53:59Z</time>
      </trkpt>
      <trkpt lat="38.137245" lon="-2.648955">
        <ele>1271.6</ele>
        <time>2022-01-16T11:54:12Z</time>
      </trkpt>
      <trkpt lat="38.137157" lon="-2.648753">
        <ele>1266.4</ele>
        <time>2022-01-16T11:55:14Z</time>
      </trkpt>
      <trkpt lat="38.137230" lon="-2.648533">
        <ele>1272.7</ele>
        <time>2022-01-16T11:56:20Z</time>
      </trkpt>
      <trkpt lat="38.137406" lon="-2.648477">
        <ele>1269.7</ele>
        <time>2022-01-16T11:56:34Z</time>
      </trkpt>
      <trkpt lat="38.137538" lon="-2.648307">
        <ele>1269.7</ele>
        <time>2022-01-16T11:56:46Z</time>
      </trkpt>
      <trkpt lat="38.137709" lon="-2.648221">
        <ele>1269.4</ele>
        <time>2022-01-16T11:57:09Z</time>
      </trkpt>
      <trkpt lat="38.137894" lon="-2.648154">
        <ele>1268.7</ele>
        <time>2022-01-16T11:57:21Z</time>
      </trkpt>
      <trkpt lat="38.138047" lon="-2.648033">
        <ele>1266.7</ele>
        <time>2022-01-16T11:57:36Z</time>
      </trkpt>
      <trkpt lat="38.138211" lon="-2.647933">
        <ele>1265.7</ele>
        <time>2022-01-16T11:58:06Z</time>
      </trkpt>
      <trkpt lat="38.138370" lon="-2.648055">
        <ele>1262.3</ele>
        <time>2022-01-16T11:59:02Z</time>
      </trkpt>
      <trkpt lat="38.138546" lon="-2.648141">
        <ele>1258.7</ele>
        <time>2022-01-16T11:59:16Z</time>
      </trkpt>
      <trkpt lat="38.138717" lon="-2.648229">
        <ele>1258.3</ele>
        <time>2022-01-16T11:59:33Z</time>
      </trkpt>
      <trkpt lat="38.138898" lon="-2.648258">
        <ele>1260.6</ele>
        <time>2022-01-16T11:59:48Z</time>
      </trkpt>
      <trkpt lat="38.139080" lon="-2.648307">
        <ele>1260.7</ele>
        <time>2022-01-16T12:00:08Z</time>
      </trkpt>
      <trkpt lat="38.139257" lon="-2.648264">
        <ele>1262.6</ele>
        <time>2022-01-16T12:00:32Z</time>
      </trkpt>
      <trkpt lat="38.139421" lon="-2.648371">
        <ele>1260.7</ele>
        <time>2022-01-16T12:01:24Z</time>
      </trkpt>
      <trkpt lat="38.139609" lon="-2.648401">
        <ele>1262.9</ele>
        <time>2022-01-16T12:03:21Z</time>
      </trkpt>
      <trkpt lat="38.139768" lon="-2.648527">
        <ele>1260.7</ele>
        <time>2022-01-16T12:03:37Z</time>
      </trkpt>
      <trkpt lat="38.139949" lon="-2.648569">
        <ele>1260.3</ele>
        <time>2022-01-16T12:03:56Z</time>
      </trkpt>
      <trkpt lat="38.140100" lon="-2.648700">
        <ele>1256.7</ele>
        <time>2022-01-16T12:04:06Z</time>
      </trkpt>
      <trkpt lat="38.140240" lon="-2.648846">
        <ele>1259.9</ele>
        <time>2022-01-16T12:04:29Z</time>
      </trkpt>
      <trkpt lat="38.140380" lon="-2.649002">
        <ele>1259.7</ele>
        <time>2022-01-16T12:04:42Z</time>
      </trkpt>
      <trkpt lat="38.140540" lon="-2.649116">
        <ele>1259.7</ele>
        <time>2022-01-16T12:04:56Z</time>
      </trkpt>
      <trkpt lat="38.140726" lon="-2.649146">
        <ele>1260.7</ele>
        <time>2022-01-16T12:05:14Z</time>
      </trkpt>
      <trkpt lat="38.140904" lon="-2.649189">
        <ele>1260.7</ele>
        <time>2022-01-16T12:05:31Z</time>
      </trkpt>
      <trkpt lat="38.141068" lon="-2.649324">
        <ele>1258.7</ele>
        <time>2022-01-16T12:05:53Z</time>
      </trkpt>
      <trkpt lat="38.141255" lon="-2.649295">
        <ele>1257.7</ele>
        <time>2022-01-16T12:06:04Z</time>
      </trkpt>
      <trkpt lat="38.141438" lon="-2.649318">
        <ele>1255.7</ele>
        <time>2022-01-16T12:06:17Z</time>
      </trkpt>
      <trkpt lat="38.141622" lon="-2.649321">
        <ele>1258.6</ele>
        <time>2022-01-16T12:06:35Z</time>
      </trkpt>
      <trkpt lat="38.141807" lon="-2.649276">
        <ele>1260.7</ele>
        <time>2022-01-16T12:06:51Z</time>
      </trkpt>
      <trkpt lat="38.141991" lon="-2.649296">
        <ele>1261.6</ele>
        <time>2022-01-16T12:07:08Z</time>
      </trkpt>
      <trkpt lat="38.142147" lon="-2.649434">
        <ele>1260.4</ele>
        <time>2022-01-16T12:07:24Z</time>
      </trkpt>
      <trkpt lat="38.142285" lon="-2.649591">
        <ele>1258.7</ele>
        <time>2022-01-16T12:07:39Z</time>
      </trkpt>
      <trkpt lat="38.142427" lon="-2.649735">
        <ele>1260.0</ele>
        <time>2022-01-16T12:07:53Z</time>
      </trkpt>
      <trkpt lat="38.142600" lon="-2.649657">
        <ele>1262.7</ele>
        <time>2022-01-16T12:08:09Z</time>
      </trkpt>
      <trkpt lat="38.142769" lon="-2.649564">
        <ele>1266.3</ele>
        <time>2022-01-16T12:08:28Z</time>
      </trkpt>
      <trkpt lat="38.142925" lon="-2.649438">
        <ele>1268.4</ele>
        <time>2022-01-16T12:08:40Z</time>
      </trkpt>
      <trkpt lat="38.143044" lon="-2.649265">
        <ele>1268.7</ele>
        <time>2022-01-16T12:08:57Z</time>
      </trkpt>
      <trkpt lat="38.143206" lon="-2.649153">
        <ele>1272.6</ele>
        <time>2022-01-16T12:09:17Z</time>
      </trkpt>
      <trkpt lat="38.143389" lon="-2.649081">
        <ele>1285.6</ele>
        <time>2022-01-16T12:09:30Z</time>
      </trkpt>
      <trkpt lat="38.143539" lon="-2.648944">
        <ele>1280.7</ele>
        <time>2022-01-16T12:09:40Z</time>
      </trkpt>
      <trkpt lat="38.143719" lon="-2.648999">
        <ele>1274.8</ele>
        <time>2022-01-16T12:10:02Z</time>
      </trkpt>
      <trkpt lat="38.143900" lon="-2.649035">
        <ele>1272.7</ele>
        <time>2022-01-16T12:10:15Z</time>
      </trkpt>
      <trkpt lat="38.144074" lon="-2.649108">
        <ele>1271.7</ele>
        <time>2022-01-16T12:10:27Z</time>
      </trkpt>
      <trkpt lat="38.144257" lon="-2.649186">
        <ele>1272.4</ele>
        <time>2022-01-16T12:10:45Z</time>
      </trkpt>
      <trkpt lat="38.144438" lon="-2.649227">
        <ele>1277.4</ele>
        <time>2022-01-16T12:10:59Z</time>
      </trkpt>
      <trkpt lat="38.144598" lon="-2.649112">
        <ele>1280.7</ele>
        <time>2022-01-16T12:11:13Z</time>
      </trkpt>
      <trkpt lat="38.144756" lon="-2.648979">
        <ele>1282.7</ele>
        <time>2022-01-16T12:11:28Z</time>
      </trkpt>
      <trkpt lat="38.144925" lon="-2.648894">
        <ele>1281.7</ele>
        <time>2022-01-16T12:11:53Z</time>
      </trkpt>
      <trkpt lat="38.145091" lon="-2.648776">
        <ele>1279.8</ele>
        <time>2022-01-16T12:12:07Z</time>
      </trkpt>
      <trkpt lat="38.145241" lon="-2.648639">
        <ele>1281.6</ele>
        <time>2022-01-16T12:12:23Z</time>
      </trkpt>
      <trkpt lat="38.145401" lon="-2.648524">
        <ele>1284.7</ele>
        <time>2022-01-16T12:12:41Z</time>
      </trkpt>
      <trkpt lat="38.145554" lon="-2.648651">
        <ele>1278.7</ele>
        <time>2022-01-16T12:13:15Z</time>
      </trkpt>
      <trkpt lat="38.145719" lon="-2.648549">
        <ele>1281.4</ele>
        <time>2022-01-16T12:14:07Z</time>
      </trkpt>
      <trkpt lat="38.145877" lon="-2.648433">
        <ele>1277.7</ele>
        <time>2022-01-16T12:14:30Z</time>
      </trkpt>
      <trkpt lat="38.146050" lon="-2.648328">
        <ele>1281.6</ele>
        <time>2022-01-16T12:14:48Z</time>
      </trkpt>
      <trkpt lat="38.146192" lon="-2.648178">
        <ele>1288.4</ele>
        <time>2022-01-16T12:15:05Z</time>
      </trkpt>
      <trkpt lat="38.146331" lon="-2.648026">
        <ele>1288.7</ele>
        <time>2022-01-16T12:15:20Z</time>
      </trkpt>
      <trkpt lat="38.146417" lon="-2.647822">
        <ele>1288.7</ele>
        <time>2022-01-16T12:15:39Z</time>
      </trkpt>
      <trkpt lat="38.146564" lon="-2.647689">
        <ele>1291.7</ele>
        <time>2022-01-16T12:15:56Z</time>
      </trkpt>
      <trkpt lat="38.146712" lon="-2.647553">
        <ele>1291.8</ele>
        <time>2022-01-16T12:16:16Z</time>
      </trkpt>
      <trkpt lat="38.146815" lon="-2.647355">
        <ele>1292.4</ele>
        <time>2022-01-16T12:16:31Z</time>
      </trkpt>
      <trkpt lat="38.146923" lon="-2.647167">
        <ele>1297.0</ele>
        <time>2022-01-16T12:16:50Z</time>
      </trkpt>
      <trkpt lat="38.147070" lon="-2.647012">
        <ele>1297.7</ele>
        <time>2022-01-16T12:17:05Z</time>
      </trkpt>
      <trkpt lat="38.147213" lon="-2.646858">
        <ele>1296.7</ele>
        <time>2022-01-16T12:17:19Z</time>
      </trkpt>
      <trkpt lat="38.147357" lon="-2.646709">
        <ele>1297.7</ele>
        <time>2022-01-16T12:17:41Z</time>
      </trkpt>
      <trkpt lat="38.147476" lon="-2.646536">
        <ele>1298.0</ele>
        <time>2022-01-16T12:17:53Z</time>
      </trkpt>
      <trkpt lat="38.147551" lon="-2.646328">
        <ele>1304.7</ele>
        <time>2022-01-16T12:18:14Z</time>
      </trkpt>
      <trkpt lat="38.147622" lon="-2.646106">
        <ele>1305.7</ele>
        <time>2022-01-16T12:18:32Z</time>
      </trkpt>
      <trkpt lat="38.147693" lon="-2.645882">
        <ele>1304.1</ele>
        <time>2022-01-16T12:19:32Z</time>
      </trkpt>
      <trkpt lat="38.147696" lon="-2.645636">
        <ele>1304.8</ele>
        <time>2022-01-16T12:19:54Z</time>
      </trkpt>
      <trkpt lat="38.147791" lon="-2.645435">
        <ele>1307.7</ele>
        <time>2022-01-16T12:20:10Z</time>
      </trkpt>
      <trkpt lat="38.147900" lon="-2.645249">
        <ele>1308.7</ele>
        <time>2022-01-16T12:20:27Z</time>
      </trkpt>
      <trkpt lat="38.147812" lon="-2.645049">
        <ele>1314.7</ele>
        <time>2022-01-16T12:20:44Z</time>
      </trkpt>
      <trkpt lat="38.147876" lon="-2.644831">
        <ele>1321.6</ele>
        <time>2022-01-16T12:21:03Z</time>
      </trkpt>
      <trkpt lat="38.147884" lon="-2.644602">
        <ele>1328.7</ele>
        <time>2022-01-16T12:21:25Z</time>
      </trkpt>
      <trkpt lat="38.148064" lon="-2.644548">
        <ele>1320.0</ele>
        <time>2022-01-16T12:22:04Z</time>
      </trkpt>
      <trkpt lat="38.148247" lon="-2.644533">
        <ele>1319.0</ele>
        <time>2022-01-16T12:22:28Z</time>
      </trkpt>
      <trkpt lat="38.148366" lon="-2.644360">
        <ele>1324.5</ele>
        <time>2022-01-16T12:22:47Z</time>
      </trkpt>
      <trkpt lat="38.148466" lon="-2.644168">
        <ele>1328.4</ele>
        <time>2022-01-16T12:23:05Z</time>
      </trkpt>
      <trkpt lat="38.148625" lon="-2.644060">
        <ele>1326.7</ele>
        <time>2022-01-16T12:23:35Z</time>
      </trkpt>
      <trkpt lat="38.148780" lon="-2.643919">
        <ele>1333.6</ele>
        <time>2022-01-16T12:23:54Z</time>
      </trkpt>
      <trkpt lat="38.148872" lon="-2.643717">
        <ele>1335.7</ele>
        <time>2022-01-16T12:24:15Z</time>
      </trkpt>
      <trkpt lat="38.149040" lon="-2.643630">
        <ele>1334.5</ele>
        <time>2022-01-16T12:24:29Z</time>
      </trkpt>
      <trkpt lat="38.149220" lon="-2.643620">
        <ele>1341.7</ele>
        <time>2022-01-16T12:25:11Z</time>
      </trkpt>
      <trkpt lat="38.149327" lon="-2.643430">
        <ele>1339.7</ele>
        <time>2022-01-16T12:27:44Z</time>
      </trkpt>
      <trkpt lat="38.149424" lon="-2.643223">
        <ele>1335.9</ele>
        <time>2022-01-16T12:29:11Z</time>
      </trkpt>
      <trkpt lat="38.149595" lon="-2.643146">
        <ele>1326.8</ele>
        <time>2022-01-16T12:29:36Z</time>
      </trkpt>
      <trkpt lat="38.149775" lon="-2.643140">
        <ele>1326.0</ele>
        <time>2022-01-16T12:30:03Z</time>
      </trkpt>
      <trkpt lat="38.149932" lon="-2.643026">
        <ele>1322.6</ele>
        <time>2022-01-16T12:30:30Z</time>
      </trkpt>
      <trkpt lat="38.150040" lon="-2.642842">
        <ele>1323.7</ele>
        <time>2022-01-16T12:30:58Z</time>
      </trkpt>
      <trkpt lat="38.149881" lon="-2.642718">
        <ele>1319.7</ele>
        <time>2022-01-16T12:31:17Z</time>
      </trkpt>
      <trkpt lat="38.149771" lon="-2.642534">
        <ele>1314.7</ele>
        <time>2022-01-16T12:32:44Z</time>
      </trkpt>
      <trkpt lat="38.149850" lon="-2.642322">
        <ele>1308.7</ele>
        <time>2022-01-16T12:33:21Z</time>
      </trkpt>
      <trkpt lat="38.150031" lon="-2.642317">
        <ele>1302.0</ele>
        <time>2022-01-16T12:33:58Z</time>
      </trkpt>
      <trkpt lat="38.150231" lon="-2.642301">
        <ele>1302.7</ele>
        <time>2022-01-16T12:34:21Z</time>
      </trkpt>
      <trkpt lat="38.150170" lon="-2.642082">
        <ele>1292.7</ele>
        <time>2022-01-16T12:35:26Z</time>
      </trkpt>
      <trkpt lat="38.150038" lon="-2.641927">
        <ele>1292.8</ele>
        <time>2022-01-16T12:35:47Z</time>
      </trkpt>
      <trkpt lat="38.149882" lon="-2.641809">
        <ele>1292.7</ele>
        <time>2022-01-16T12:36:14Z</time>
      </trkpt>
      <trkpt lat="38.149864" lon="-2.641573">
        <ele>1284.0</ele>
        <time>2022-01-16T12:37:43Z</time>
      </trkpt>
      <trkpt lat="38.150051" lon="-2.641547">
        <ele>1266.9</ele>
        <time>2022-01-16T12:38:59Z</time>
      </trkpt>
      <trkpt lat="38.150235" lon="-2.641502">
        <ele>1260.7</ele>
        <time>2022-01-16T12:39:46Z</time>
      </trkpt>
      <trkpt lat="38.150407" lon="-2.641374">
        <ele>1259.0</ele>
        <time>2022-01-16T12:40:19Z</time>
      </trkpt>
      <trkpt lat="38.150535" lon="-2.641209">
        <ele>1249.8</ele>
        <time>2022-01-16T12:40:38Z</time>
      </trkpt>
      <trkpt lat="38.150690" lon="-2.641090">
        <ele>1247.0</ele>
        <time>2022-01-16T12:41:17Z</time>
      </trkpt>
      <trkpt lat="38.150817" lon="-2.640924">
        <ele>1241.9</ele>
        <time>2022-01-16T12:41:42Z</time>
      </trkpt>
      <trkpt lat="38.150882" lon="-2.640705">
        <ele>1242.4</ele>
        <time>2022-01-16T12:42:13Z</time>
      </trkpt>
      <trkpt lat="38.150810" lon="-2.640495">
        <ele>1242.0</ele>
        <time>2022-01-16T12:42:39Z</time>
      </trkpt>
      <trkpt lat="38.150818" lon="-2.640262">
        <ele>1240.7</ele>
        <time>2022-01-16T12:43:01Z</time>
      </trkpt>
      <trkpt lat="38.150892" lon="-2.640042">
        <ele>1239.4</ele>
        <time>2022-01-16T12:43:21Z</time>
      </trkpt>
      <trkpt lat="38.150922" lon="-2.639811">
        <ele>1236.0</ele>
        <time>2022-01-16T12:43:38Z</time>
      </trkpt>
      <trkpt lat="38.151038" lon="-2.639622">
        <ele>1227.0</ele>
        <time>2022-01-16T12:44:01Z</time>
      </trkpt>
      <trkpt lat="38.151066" lon="-2.639387">
        <ele>1224.7</ele>
        <time>2022-01-16T12:44:18Z</time>
      </trkpt>
      <trkpt lat="38.150966" lon="-2.639187">
        <ele>1225.6</ele>
        <time>2022-01-16T12:44:35Z</time>
      </trkpt>
      <trkpt lat="38.150799" lon="-2.639084">
        <ele>1225.7</ele>
        <time>2022-01-16T12:44:53Z</time>
      </trkpt>
      <trkpt lat="38.150640" lon="-2.638965">
        <ele>1227.4</ele>
        <time>2022-01-16T12:45:14Z</time>
      </trkpt>
      <trkpt lat="38.150488" lon="-2.638841">
        <ele>1224.1</ele>
        <time>2022-01-16T12:45:42Z</time>
      </trkpt>
      <trkpt lat="38.150338" lon="-2.638712">
        <ele>1217.4</ele>
        <time>2022-01-16T12:46:37Z</time>
      </trkpt>
      <trkpt lat="38.150230" lon="-2.638529">
        <ele>1216.4</ele>
        <time>2022-01-16T12:46:55Z</time>
      </trkpt>
      <trkpt lat="38.150123" lon="-2.638332">
        <ele>1219.7</ele>
        <time>2022-01-16T12:47:12Z</time>
      </trkpt>
      <trkpt lat="38.150058" lon="-2.638118">
        <ele>1225.8</ele>
        <time>2022-01-16T12:47:31Z</time>
      </trkpt>
      <trkpt lat="38.149966" lon="-2.637906">
        <ele>1226.7</ele>
        <time>2022-01-16T12:47:45Z</time>
      </trkpt>
      <trkpt lat="38.149843" lon="-2.637734">
        <ele>1226.6</ele>
        <time>2022-01-16T12:48:00Z</time>
      </trkpt>
      <trkpt lat="38.149717" lon="-2.637559">
        <ele>1224.8</ele>
        <time>2022-01-16T12:48:16Z</time>
      </trkpt>
      <trkpt lat="38.149591" lon="-2.637384">
        <ele>1225.7</ele>
        <time>2022-01-16T12:48:47Z</time>
      </trkpt>
      <trkpt lat="38.149452" lon="-2.637229">
        <ele>1221.8</ele>
        <time>2022-01-16T12:49:17Z</time>
      </trkpt>
      <trkpt lat="38.149398" lon="-2.637007">
        <ele>1224.6</ele>
        <time>2022-01-16T12:49:40Z</time>
      </trkpt>
      <trkpt lat="38.149283" lon="-2.636820">
        <ele>1221.7</ele>
        <time>2022-01-16T12:50:01Z</time>
      </trkpt>
      <trkpt lat="38.149144" lon="-2.636674">
        <ele>1220.4</ele>
        <time>2022-01-16T12:50:17Z</time>
      </trkpt>
      <trkpt lat="38.149043" lon="-2.636481">
        <ele>1221.8</ele>
        <time>2022-01-16T12:50:34Z</time>
      </trkpt>
      <trkpt lat="38.148944" lon="-2.636288">
        <ele>1215.0</ele>
        <time>2022-01-16T12:50:57Z</time>
      </trkpt>
      <trkpt lat="38.148881" lon="-2.636057">
        <ele>1215.6</ele>
        <time>2022-01-16T12:51:13Z</time>
      </trkpt>
      <trkpt lat="38.148724" lon="-2.635940">
        <ele>1216.7</ele>
        <time>2022-01-16T12:51:43Z</time>
      </trkpt>
      <trkpt lat="38.148582" lon="-2.635787">
        <ele>1213.7</ele>
        <time>2022-01-16T12:52:07Z</time>
      </trkpt>
      <trkpt lat="38.148568" lon="-2.635546">
        <ele>1212.8</ele>
        <time>2022-01-16T12:52:34Z</time>
      </trkpt>
      <trkpt lat="38.148529" lon="-2.635310">
        <ele>1214.8</ele>
        <time>2022-01-16T12:52:52Z</time>
      </trkpt>
      <trkpt lat="38.148552" lon="-2.635073">
        <ele>1215.6</ele>
        <time>2022-01-16T12:53:07Z</time>
      </trkpt>
      <trkpt lat="38.148493" lon="-2.634846">
        <ele>1217.0</ele>
        <time>2022-01-16T12:54:03Z</time>
      </trkpt>
      <trkpt lat="38.148500" lon="-2.634609">
        <ele>1211.0</ele>
        <time>2022-01-16T12:54:22Z</time>
      </trkpt>
      <trkpt lat="38.148527" lon="-2.634378">
        <ele>1209.6</ele>
        <time>2022-01-16T12:55:09Z</time>
      </trkpt>
      <trkpt lat="38.148577" lon="-2.634140">
        <ele>1208.7</ele>
        <time>2022-01-16T12:55:26Z</time>
      </trkpt>
      <trkpt lat="38.148628" lon="-2.633916">
        <ele>1209.7</ele>
        <time>2022-01-16T12:55:43Z</time>
      </trkpt>
      <trkpt lat="38.148673" lon="-2.633683">
        <ele>1211.9</ele>
        <time>2022-01-16T12:55:58Z</time>
      </trkpt>
      <trkpt lat="38.148676" lon="-2.633452">
        <ele>1210.7</ele>
        <time>2022-01-16T12:56:13Z</time>
      </trkpt>
      <trkpt lat="38.148508" lon="-2.633363">
        <ele>1209.7</ele>
        <time>2022-01-16T12:56:26Z</time>
      </trkpt>
      <trkpt lat="38.148432" lon="-2.633154">
        <ele>1208.7</ele>
        <time>2022-01-16T12:56:55Z</time>
      </trkpt>
      <trkpt lat="38.148434" lon="-2.632921">
        <ele>1202.0</ele>
        <time>2022-01-16T12:57:21Z</time>
      </trkpt>
      <trkpt lat="38.148503" lon="-2.632702">
        <ele>1202.6</ele>
        <time>2022-01-16T12:57:57Z</time>
      </trkpt>
      <trkpt lat="38.148638" lon="-2.632538">
        <ele>1189.7</ele>
        <time>2022-01-16T12:58:33Z</time>
      </trkpt>
      <trkpt lat="38.148681" lon="-2.632315">
        <ele>1183.7</ele>
        <time>2022-01-16T12:59:12Z</time>
      </trkpt>
      <trkpt lat="38.148603" lon="-2.632108">
        <ele>1181.9</ele>
        <time>2022-01-16T12:59:37Z</time>
      </trkpt>
      <trkpt lat="38.148783" lon="-2.632050">
        <ele>1181.7</ele>
        <time>2022-01-16T13:04:16Z</time>
      </trkpt>
      <trkpt lat="38.148806" lon="-2.631820">
        <ele>1183.6</ele>
        <time>2022-01-16T13:06:25Z</time>
      </trkpt>
      <trkpt lat="38.148913" lon="-2.631632">
        <ele>1179.6</ele>
        <time>2022-01-16T13:06:46Z</time>
      </trkpt>
      <trkpt lat="38.149080" lon="-2.631524">
        <ele>1176.7</ele>
        <time>2022-01-16T13:07:33Z</time>
      </trkpt>
      <trkpt lat="38.149116" lon="-2.631300">
        <ele>1173.7</ele>
        <time>2022-01-16T13:08:04Z</time>
      </trkpt>
      <trkpt lat="38.148978" lon="-2.631148">
        <ele>1175.7</ele>
        <time>2022-01-16T13:09:42Z</time>
      </trkpt>
      <trkpt lat="38.148831" lon="-2.631005">
        <ele>1182.7</ele>
        <time>2022-01-16T13:10:54Z</time>
      </trkpt>
      <trkpt lat="38.148814" lon="-2.630764">
        <ele>1187.7</ele>
        <time>2022-01-16T13:11:58Z</time>
      </trkpt>
      <trkpt lat="38.148883" lon="-2.630548">
        <ele>1190.7</ele>
        <time>2022-01-16T13:12:13Z</time>
      </trkpt>
      <trkpt lat="38.149050" lon="-2.630428">
        <ele>1189.4</ele>
        <time>2022-01-16T13:12:30Z</time>
      </trkpt>
      <trkpt lat="38.149050" lon="-2.630196">
        <ele>1194.4</ele>
        <time>2022-01-16T13:13:20Z</time>
      </trkpt>
      <trkpt lat="38.149168" lon="-2.630019">
        <ele>1187.0</ele>
        <time>2022-01-16T13:15:34Z</time>
      </trkpt>
      <trkpt lat="38.149248" lon="-2.629811">
        <ele>1188.8</ele>
        <time>2022-01-16T13:15:56Z</time>
      </trkpt>
      <trkpt lat="38.149379" lon="-2.629649">
        <ele>1182.0</ele>
        <time>2022-01-16T13:16:18Z</time>
      </trkpt>
      <trkpt lat="38.149502" lon="-2.629472">
        <ele>1179.7</ele>
        <time>2022-01-16T13:16:43Z</time>
      </trkpt>
      <trkpt lat="38.149581" lon="-2.629253">
        <ele>1180.7</ele>
        <time>2022-01-16T13:17:19Z</time>
      </trkpt>
      <trkpt lat="38.149700" lon="-2.629074">
        <ele>1176.7</ele>
        <time>2022-01-16T13:17:45Z</time>
      </trkpt>
      <trkpt lat="38.149805" lon="-2.628885">
        <ele>1175.6</ele>
        <time>2022-01-16T13:18:03Z</time>
      </trkpt>
      <trkpt lat="38.149968" lon="-2.628771">
        <ele>1173.7</ele>
        <time>2022-01-16T13:18:25Z</time>
      </trkpt>
      <trkpt lat="38.150031" lon="-2.628549">
        <ele>1170.7</ele>
        <time>2022-01-16T13:18:42Z</time>
      </trkpt>
      <trkpt lat="38.150130" lon="-2.628351">
        <ele>1170.7</ele>
        <time>2022-01-16T13:18:53Z</time>
      </trkpt>
      <trkpt lat="38.150268" lon="-2.628178">
        <ele>1167.1</ele>
        <time>2022-01-16T13:19:08Z</time>
      </trkpt>
      <trkpt lat="38.150426" lon="-2.628062">
        <ele>1163.7</ele>
        <time>2022-01-16T13:19:22Z</time>
      </trkpt>
      <trkpt lat="38.150547" lon="-2.627887">
        <ele>1159.8</ele>
        <time>2022-01-16T13:19:38Z</time>
      </trkpt>
      <trkpt lat="38.150567" lon="-2.627653">
        <ele>1158.0</ele>
        <time>2022-01-16T13:19:52Z</time>
      </trkpt>
      <trkpt lat="38.150668" lon="-2.627452">
        <ele>1156.7</ele>
        <time>2022-01-16T13:20:16Z</time>
      </trkpt>
      <trkpt lat="38.150713" lon="-2.627230">
        <ele>1154.7</ele>
        <time>2022-01-16T13:20:34Z</time>
      </trkpt>
      <trkpt lat="38.150789" lon="-2.627020">
        <ele>1145.4</ele>
        <time>2022-01-16T13:21:11Z</time>
      </trkpt>
      <trkpt lat="38.150939" lon="-2.626891">
        <ele>1148.9</ele>
        <time>2022-01-16T13:22:05Z</time>
      </trkpt>
      <trkpt lat="38.151095" lon="-2.626749">
        <ele>1150.0</ele>
        <time>2022-01-16T13:22:21Z</time>
      </trkpt>
      <trkpt lat="38.151167" lon="-2.626536">
        <ele>1149.6</ele>
        <time>2022-01-16T13:22:38Z</time>
      </trkpt>
      <trkpt lat="38.151222" lon="-2.626311">
        <ele>1145.8</ele>
        <time>2022-01-16T13:23:10Z</time>
      </trkpt>
      <trkpt lat="38.151190" lon="-2.626079">
        <ele>1144.7</ele>
        <time>2022-01-16T13:23:39Z</time>
      </trkpt>
      <trkpt lat="38.151157" lon="-2.625852">
        <ele>1145.4</ele>
        <time>2022-01-16T13:24:00Z</time>
      </trkpt>
      <trkpt lat="38.151266" lon="-2.625661">
        <ele>1147.3</ele>
        <time>2022-01-16T13:24:19Z</time>
      </trkpt>
      <trkpt lat="38.151410" lon="-2.625517">
        <ele>1146.9</ele>
        <time>2022-01-16T13:24:33Z</time>
      </trkpt>
      <trkpt lat="38.151500" lon="-2.625307">
        <ele>1145.4</ele>
        <time>2022-01-16T13:24:48Z</time>
      </trkpt>
      <trkpt lat="38.151567" lon="-2.625086">
        <ele>1146.8</ele>
        <time>2022-01-16T13:25:06Z</time>
      </trkpt>
      <trkpt lat="38.151657" lon="-2.624905">
        <ele>1142.8</ele>
        <time>2022-01-16T13:25:21Z</time>
      </trkpt>
      <trkpt lat="38.151748" lon="-2.624738">
        <ele>1136.9</ele>
        <time>2022-01-16T13:26:20Z</time>
      </trkpt>
      <trkpt lat="38.151865" lon="-2.624593">
        <ele>1135.8</ele>
        <time>2022-01-16T13:26:35Z</time>
      </trkpt>
      <trkpt lat="38.152034" lon="-2.624498">
        <ele>1132.0</ele>
        <time>2022-01-16T13:26:47Z</time>
      </trkpt>
      <trkpt lat="38.152177" lon="-2.624403">
        <ele>1132.6</ele>
        <time>2022-01-16T13:26:57Z</time>
      </trkpt>
      <trkpt lat="38.152312" lon="-2.624330">
        <ele>1132.1</ele>
        <time>2022-01-16T13:27:13Z</time>
      </trkpt>
      <trkpt lat="38.152458" lon="-2.624154">
        <ele>1133.7</ele>
        <time>2022-01-16T13:27:27Z</time>
      </trkpt>
      <trkpt lat="38.152597" lon="-2.623990">
        <ele>1132.7</ele>
        <time>2022-01-16T13:27:44Z</time>
      </trkpt>
      <trkpt lat="38.152675" lon="-2.623878">
        <ele>1127.7</ele>
        <time>2022-01-16T13:28:01Z</time>
      </trkpt>
      <trkpt lat="38.152794" lon="-2.623772">
        <ele>1125.7</ele>
        <time>2022-01-16T13:28:14Z</time>
      </trkpt>
      <trkpt lat="38.152933" lon="-2.623620">
        <ele>1129.7</ele>
        <time>2022-01-16T13:28:46Z</time>
      </trkpt>
      <trkpt lat="38.153105" lon="-2.623403">
        <ele>1124.7</ele>
        <time>2022-01-16T13:29:47Z</time>
      </trkpt>
      <trkpt lat="38.153227" lon="-2.623304">
        <ele>1126.7</ele>
        <time>2022-01-16T13:32:36Z</time>
      </trkpt>
      <trkpt lat="38.153427" lon="-2.623132">
        <ele>1122.7</ele>
        <time>2022-01-16T13:33:02Z</time>
      </trkpt>
      <trkpt lat="38.153560" lon="-2.622964">
        <ele>1119.8</ele>
        <time>2022-01-16T13:33:20Z</time>
      </trkpt>
      <trkpt lat="38.153640" lon="-2.622856">
        <ele>1112.8</ele>
        <time>2022-01-16T13:33:48Z</time>
      </trkpt>
      <trkpt lat="38.153729" lon="-2.622731">
        <ele>1105.8</ele>
        <time>2022-01-16T13:34:16Z</time>
      </trkpt>
      <trkpt lat="38.153817" lon="-2.622658">
        <ele>1110.4</ele>
        <time>2022-01-16T13:34:45Z</time>
      </trkpt>
      <trkpt lat="38.153915" lon="-2.622550">
        <ele>1113.3</ele>
        <time>2022-01-16T13:34:58Z</time>
      </trkpt>
      <trkpt lat="38.154051" lon="-2.622498">
        <ele>1113.3</ele>
        <time>2022-01-16T13:35:21Z</time>
      </trkpt>
      <trkpt lat="38.154242" lon="-2.622435">
        <ele>1116.7</ele>
        <time>2022-01-16T13:35:53Z</time>
      </trkpt>
      <trkpt lat="38.154402" lon="-2.622396">
        <ele>1121.8</ele>
        <time>2022-01-16T13:36:24Z</time>
      </trkpt>
      <trkpt lat="38.154529" lon="-2.622439">
        <ele>1132.3</ele>
        <time>2022-01-16T13:37:07Z</time>
      </trkpt>
      <trkpt lat="38.154683" lon="-2.622533">
        <ele>1138.0</ele>
        <time>2022-01-16T13:41:43Z</time>
      </trkpt>
      <trkpt lat="38.154907" lon="-2.622502">
        <ele>1137.7</ele>
        <time>2022-01-16T13:42:03Z</time>
      </trkpt>
      <trkpt lat="38.155032" lon="-2.622271">
        <ele>1137.7</ele>
        <time>2022-01-16T13:42:21Z</time>
      </trkpt>
      <trkpt lat="38.155167" lon="-2.622113">
        <ele>1136.0</ele>
        <time>2022-01-16T13:42:42Z</time>
      </trkpt>
      <trkpt lat="38.155302" lon="-2.621958">
        <ele>1133.0</ele>
        <time>2022-01-16T13:42:58Z</time>
      </trkpt>
      <trkpt lat="38.155473" lon="-2.621863">
        <ele>1130.7</ele>
        <time>2022-01-16T13:43:16Z</time>
      </trkpt>
      <trkpt lat="38.155653" lon="-2.621868">
        <ele>1137.6</ele>
        <time>2022-01-16T13:43:34Z</time>
      </trkpt>
      <trkpt lat="38.155837" lon="-2.621876">
        <ele>1141.4</ele>
        <time>2022-01-16T13:43:52Z</time>
      </trkpt>
      <trkpt lat="38.156011" lon="-2.621805">
        <ele>1146.6</ele>
        <time>2022-01-16T13:44:09Z</time>
      </trkpt>
      <trkpt lat="38.156082" lon="-2.621594">
        <ele>1151.8</ele>
        <time>2022-01-16T13:44:31Z</time>
      </trkpt>
      <trkpt lat="38.156090" lon="-2.621362">
        <ele>1148.7</ele>
        <time>2022-01-16T13:45:13Z</time>
      </trkpt>
      <trkpt lat="38.156032" lon="-2.621136">
        <ele>1147.7</ele>
        <time>2022-01-16T13:45:41Z</time>
      </trkpt>
      <trkpt lat="38.155907" lon="-2.620965">
        <ele>1143.8</ele>
        <time>2022-01-16T13:46:05Z</time>
      </trkpt>
      <trkpt lat="38.155784" lon="-2.620786">
        <ele>1139.7</ele>
        <time>2022-01-16T13:46:47Z</time>
      </trkpt>
      <trkpt lat="38.155669" lon="-2.620599">
        <ele>1138.7</ele>
        <time>2022-01-16T13:47:36Z</time>
      </trkpt>
      <trkpt lat="38.155611" lon="-2.620380">
        <ele>1127.8</ele>
        <time>2022-01-16T13:48:24Z</time>
      </trkpt>
      <trkpt lat="38.155659" lon="-2.620159">
        <ele>1121.7</ele>
        <time>2022-01-16T13:48:52Z</time>
      </trkpt>
      <trkpt lat="38.155779" lon="-2.619986">
        <ele>1118.7</ele>
        <time>2022-01-16T13:49:23Z</time>
      </trkpt>
      <trkpt lat="38.155955" lon="-2.620048">
        <ele>1118.0</ele>
        <time>2022-01-16T13:50:16Z</time>
      </trkpt>
      <trkpt lat="38.156140" lon="-2.620073">
        <ele>1113.4</ele>
        <time>2022-01-16T13:50:53Z</time>
      </trkpt>
      <trkpt lat="38.156289" lon="-2.619927">
        <ele>1105.1</ele>
        <time>2022-01-16T13:51:18Z</time>
      </trkpt>
      <trkpt lat="38.156313" lon="-2.619700">
        <ele>1094.7</ele>
        <time>2022-01-16T13:51:34Z</time>
      </trkpt>
      <trkpt lat="38.156189" lon="-2.619527">
        <ele>1093.8</ele>
        <time>2022-01-16T13:52:30Z</time>
      </trkpt>
      <trkpt lat="38.156361" lon="-2.619629">
        <ele>1092.8</ele>
        <time>2022-01-16T13:53:21Z</time>
      </trkpt>
      <trkpt lat="38.156492" lon="-2.619799">
        <ele>1092.0</ele>
        <time>2022-01-16T13:53:42Z</time>
      </trkpt>
      <trkpt lat="38.156682" lon="-2.619790">
        <ele>1086.4</ele>
        <time>2022-01-16T13:54:10Z</time>
      </trkpt>
      <trkpt lat="38.156868" lon="-2.619826">
        <ele>1084.0</ele>
        <time>2022-01-16T13:54:29Z</time>
      </trkpt>
      <trkpt lat="38.157001" lon="-2.619655">
        <ele>1078.7</ele>
        <time>2022-01-16T13:54:48Z</time>
      </trkpt>
      <trkpt lat="38.157050" lon="-2.619424">
        <ele>1073.8</ele>
        <time>2022-01-16T13:55:03Z</time>
      </trkpt>
      <trkpt lat="38.157116" lon="-2.619198">
        <ele>1068.8</ele>
        <time>2022-01-16T13:55:30Z</time>
      </trkpt>
      <trkpt lat="38.157238" lon="-2.619011">
        <ele>1076.1</ele>
        <time>2022-01-16T13:56:35Z</time>
      </trkpt>
      <trkpt lat="38.157373" lon="-2.618859">
        <ele>1068.3</ele>
        <time>2022-01-16T13:56:52Z</time>
      </trkpt>
      <trkpt lat="38.157555" lon="-2.618808">
        <ele>1068.7</ele>
        <time>2022-01-16T13:57:15Z</time>
      </trkpt>
      <trkpt lat="38.157737" lon="-2.618821">
        <ele>1070.7</ele>
        <time>2022-01-16T13:57:32Z</time>
      </trkpt>
      <trkpt lat="38.157917" lon="-2.618821">
        <ele>1073.6</ele>
        <time>2022-01-16T13:57:50Z</time>
      </trkpt>
      <trkpt lat="38.158113" lon="-2.618803">
        <ele>1072.8</ele>
        <time>2022-01-16T13:58:08Z</time>
      </trkpt>
      <trkpt lat="38.158298" lon="-2.618745">
        <ele>1076.0</ele>
        <time>2022-01-16T13:58:30Z</time>
      </trkpt>
      <trkpt lat="38.158477" lon="-2.618716">
        <ele>1073.7</ele>
        <time>2022-01-16T13:58:43Z</time>
      </trkpt>
      <trkpt lat="38.158662" lon="-2.618700">
        <ele>1070.7</ele>
        <time>2022-01-16T13:58:57Z</time>
      </trkpt>
      <trkpt lat="38.158790" lon="-2.618869">
        <ele>1071.4</ele>
        <time>2022-01-16T14:00:04Z</time>
      </trkpt>
      <trkpt lat="38.158975" lon="-2.618855">
        <ele>1068.7</ele>
        <time>2022-01-16T14:00:16Z</time>
      </trkpt>
      <trkpt lat="38.159126" lon="-2.619009">
        <ele>1068.8</ele>
        <time>2022-01-16T14:00:30Z</time>
      </trkpt>
      <trkpt lat="38.159292" lon="-2.619107">
        <ele>1069.1</ele>
        <time>2022-01-16T14:00:42Z</time>
      </trkpt>
      <trkpt lat="38.159475" lon="-2.619057">
        <ele>1069.4</ele>
        <time>2022-01-16T14:00:55Z</time>
      </trkpt>
      <trkpt lat="38.159658" lon="-2.619042">
        <ele>1068.0</ele>
        <time>2022-01-16T14:01:11Z</time>
      </trkpt>
      <trkpt lat="38.159806" lon="-2.618908">
        <ele>1061.7</ele>
        <time>2022-01-16T14:01:26Z</time>
      </trkpt>
      <trkpt lat="38.159991" lon="-2.618919">
        <ele>1059.8</ele>
        <time>2022-01-16T14:01:43Z</time>
      </trkpt>
      <trkpt lat="38.160171" lon="-2.618832">
        <ele>1058.7</ele>
        <time>2022-01-16T14:01:57Z</time>
      </trkpt>
      <trkpt lat="38.160299" lon="-2.618819">
        <ele>1056.8</ele>
        <time>2022-01-16T14:02:10Z</time>
      </trkpt>
      <trkpt lat="38.160448" lon="-2.618705">
        <ele>1053.8</ele>
        <time>2022-01-16T14:02:24Z</time>
      </trkpt>
      <trkpt lat="38.160614" lon="-2.618524">
        <ele>1053.7</ele>
        <time>2022-01-16T14:02:43Z</time>
      </trkpt>
      <trkpt lat="38.160740" lon="-2.618309">
        <ele>1052.7</ele>
        <time>2022-01-16T14:02:58Z</time>
      </trkpt>
      <trkpt lat="38.160856" lon="-2.618119">
        <ele>1052.7</ele>
        <time>2022-01-16T14:03:14Z</time>
      </trkpt>
      <trkpt lat="38.160959" lon="-2.617916">
        <ele>1049.7</ele>
        <time>2022-01-16T14:03:27Z</time>
      </trkpt>
      <trkpt lat="38.161069" lon="-2.617680">
        <ele>1045.0</ele>
        <time>2022-01-16T14:03:39Z</time>
      </trkpt>
      <trkpt lat="38.161118" lon="-2.617477">
        <ele>1041.5</ele>
        <time>2022-01-16T14:03:53Z</time>
      </trkpt>
      <trkpt lat="38.161215" lon="-2.617224">
        <ele>1041.0</ele>
        <time>2022-01-16T14:04:11Z</time>
      </trkpt>
      <trkpt lat="38.161304" lon="-2.616971">
        <ele>1042.7</ele>
        <time>2022-01-16T14:04:26Z</time>
      </trkpt>
      <trkpt lat="38.161390" lon="-2.616798">
        <ele>1043.7</ele>
        <time>2022-01-16T14:04:44Z</time>
      </trkpt>
      <trkpt lat="38.161480" lon="-2.616600">
        <ele>1043.7</ele>
        <time>2022-01-16T14:04:58Z</time>
      </trkpt>
      <trkpt lat="38.161578" lon="-2.616410">
        <ele>1042.7</ele>
        <time>2022-01-16T14:05:12Z</time>
      </trkpt>
      <trkpt lat="38.161684" lon="-2.616205">
        <ele>1044.4</ele>
        <time>2022-01-16T14:05:25Z</time>
      </trkpt>
      <trkpt lat="38.161831" lon="-2.616069">
        <ele>1042.7</ele>
        <time>2022-01-16T14:05:38Z</time>
      </trkpt>
      <trkpt lat="38.162018" lon="-2.616067">
        <ele>1054.7</ele>
        <time>2022-01-16T14:06:18Z</time>
      </trkpt>
      <trkpt lat="38.162171" lon="-2.615935">
        <ele>1049.8</ele>
        <time>2022-01-16T14:06:31Z</time>
      </trkpt>
      <trkpt lat="38.162295" lon="-2.615758">
        <ele>1046.7</ele>
        <time>2022-01-16T14:06:44Z</time>
      </trkpt>
      <trkpt lat="38.162405" lon="-2.615566">
        <ele>1041.0</ele>
        <time>2022-01-16T14:06:58Z</time>
      </trkpt>
      <trkpt lat="38.162538" lon="-2.615406">
        <ele>1035.8</ele>
        <time>2022-01-16T14:07:22Z</time>
      </trkpt>
      <trkpt lat="38.162712" lon="-2.615323">
        <ele>1037.7</ele>
        <time>2022-01-16T14:07:38Z</time>
      </trkpt>
      <trkpt lat="38.162911" lon="-2.615297">
        <ele>1037.4</ele>
        <time>2022-01-16T14:07:53Z</time>
      </trkpt>
      <trkpt lat="38.163094" lon="-2.615238">
        <ele>1037.0</ele>
        <time>2022-01-16T14:08:04Z</time>
      </trkpt>
      <trkpt lat="38.163280" lon="-2.615199">
        <ele>1039.4</ele>
        <time>2022-01-16T14:08:17Z</time>
      </trkpt>
      <trkpt lat="38.163402" lon="-2.615026">
        <ele>1034.8</ele>
        <time>2022-01-16T14:08:31Z</time>
      </trkpt>
      <trkpt lat="38.163510" lon="-2.614818">
        <ele>1032.8</ele>
        <time>2022-01-16T14:08:46Z</time>
      </trkpt>
      <trkpt lat="38.163588" lon="-2.614611">
        <ele>1030.7</ele>
        <time>2022-01-16T14:09:04Z</time>
      </trkpt>
      <trkpt lat="38.163716" lon="-2.614444">
        <ele>1030.8</ele>
        <time>2022-01-16T14:09:30Z</time>
      </trkpt>
      <trkpt lat="38.163900" lon="-2.614397">
        <ele>1034.7</ele>
        <time>2022-01-16T14:09:45Z</time>
      </trkpt>
      <trkpt lat="38.164078" lon="-2.614315">
        <ele>1038.3</ele>
        <time>2022-01-16T14:09:59Z</time>
      </trkpt>
      <trkpt lat="38.164266" lon="-2.614290">
        <ele>1040.7</ele>
        <time>2022-01-16T14:10:12Z</time>
      </trkpt>
      <trkpt lat="38.164443" lon="-2.614233">
        <ele>1035.4</ele>
        <time>2022-01-16T14:10:28Z</time>
      </trkpt>
      <trkpt lat="38.164626" lon="-2.614156">
        <ele>1038.4</ele>
        <time>2022-01-16T14:10:44Z</time>
      </trkpt>
      <trkpt lat="38.164798" lon="-2.614080">
        <ele>1037.6</ele>
        <time>2022-01-16T14:10:57Z</time>
      </trkpt>
      <trkpt lat="38.164958" lon="-2.613944">
        <ele>1038.6</ele>
        <time>2022-01-16T14:11:12Z</time>
      </trkpt>
      <trkpt lat="38.165063" lon="-2.613739">
        <ele>1035.0</ele>
        <time>2022-01-16T14:11:25Z</time>
      </trkpt>
      <trkpt lat="38.165119" lon="-2.613507">
        <ele>1032.6</ele>
        <time>2022-01-16T14:11:40Z</time>
      </trkpt>
      <trkpt lat="38.165152" lon="-2.613276">
        <ele>1031.9</ele>
        <time>2022-01-16T14:11:52Z</time>
      </trkpt>
      <trkpt lat="38.165289" lon="-2.613111">
        <ele>1030.7</ele>
        <time>2022-01-16T14:12:09Z</time>
      </trkpt>
      <trkpt lat="38.165343" lon="-2.612891">
        <ele>1029.7</ele>
        <time>2022-01-16T14:12:22Z</time>
      </trkpt>
      <trkpt lat="38.165411" lon="-2.612670">
        <ele>1027.7</ele>
        <time>2022-01-16T14:12:36Z</time>
      </trkpt>
      <trkpt lat="38.165417" lon="-2.612431">
        <ele>1027.6</ele>
        <time>2022-01-16T14:12:51Z</time>
      </trkpt>
      <trkpt lat="38.165470" lon="-2.612211">
        <ele>1027.8</ele>
        <time>2022-01-16T14:13:06Z</time>
      </trkpt>
      <trkpt lat="38.165513" lon="-2.611981">
        <ele>1026.0</ele>
        <time>2022-01-16T14:13:21Z</time>
      </trkpt>
      <trkpt lat="38.165593" lon="-2.611773">
        <ele>1024.7</ele>
        <time>2022-01-16T14:13:34Z</time>
      </trkpt>
      <trkpt lat="38.165678" lon="-2.611551">
        <ele>1025.7</ele>
        <time>2022-01-16T14:13:49Z</time>
      </trkpt>
      <trkpt lat="38.165749" lon="-2.611328">
        <ele>1026.7</ele>
        <time>2022-01-16T14:14:04Z</time>
      </trkpt>
      <trkpt lat="38.165806" lon="-2.611105">
        <ele>1020.3</ele>
        <time>2022-01-16T14:14:20Z</time>
      </trkpt>
      <trkpt lat="38.165914" lon="-2.610910">
        <ele>1018.7</ele>
        <time>2022-01-16T14:14:35Z</time>
      </trkpt>
      <trkpt lat="38.166031" lon="-2.610729">
        <ele>1018.7</ele>
        <time>2022-01-16T14:15:17Z</time>
      </trkpt>
      <trkpt lat="38.166202" lon="-2.610626">
        <ele>1018.7</ele>
        <time>2022-01-16T14:16:32Z</time>
      </trkpt>
      <trkpt lat="38.166395" lon="-2.610581">
        <ele>1021.6</ele>
        <time>2022-01-16T14:16:46Z</time>
      </trkpt>
      <trkpt lat="38.166585" lon="-2.610590">
        <ele>1022.7</ele>
        <time>2022-01-16T14:17:02Z</time>
      </trkpt>
      <trkpt lat="38.166750" lon="-2.610685">
        <ele>1028.4</ele>
        <time>2022-01-16T14:17:16Z</time>
      </trkpt>
      <trkpt lat="38.166934" lon="-2.610703">
        <ele>1028.1</ele>
        <time>2022-01-16T14:17:32Z</time>
      </trkpt>
      <trkpt lat="38.167078" lon="-2.610554">
        <ele>1025.1</ele>
        <time>2022-01-16T14:17:49Z</time>
      </trkpt>
      <trkpt lat="38.167239" lon="-2.610448">
        <ele>1024.7</ele>
        <time>2022-01-16T14:18:05Z</time>
      </trkpt>
      <trkpt lat="38.167346" lon="-2.610263">
        <ele>1024.4</ele>
        <time>2022-01-16T14:18:38Z</time>
      </trkpt>
      <trkpt lat="38.167317" lon="-2.610133">
        <ele>1023.5</ele>
        <time>2022-01-16T14:19:55Z</time>
      </trkpt>
      <trkpt lat="38.167211" lon="-2.610040">
        <ele>1022.8</ele>
        <time>2022-01-16T14:22:11Z</time>
      </trkpt>
      <trkpt lat="38.167077" lon="-2.609883">
        <ele>1020.7</ele>
        <time>2022-01-16T14:22:33Z</time>
      </trkpt>
      <trkpt lat="38.166969" lon="-2.609695">
        <ele>1022.4</ele>
        <time>2022-01-16T14:22:54Z</time>
      </trkpt>
      <trkpt lat="38.166889" lon="-2.609470">
        <ele>1022.7</ele>
        <time>2022-01-16T14:23:12Z</time>
      </trkpt>
      <trkpt lat="38.166798" lon="-2.609264">
        <ele>1021.7</ele>
        <time>2022-01-16T14:23:30Z</time>
      </trkpt>
      <trkpt lat="38.166709" lon="-2.609044">
        <ele>1023.7</ele>
        <time>2022-01-16T14:26:41Z</time>
      </trkpt>
      <trkpt lat="38.166714" lon="-2.608783">
        <ele>1020.7</ele>
        <time>2022-01-16T14:27:01Z</time>
      </trkpt>
      <trkpt lat="38.166712" lon="-2.608520">
        <ele>1020.8</ele>
        <time>2022-01-16T14:27:27Z</time>
      </trkpt>
      <trkpt lat="38.166807" lon="-2.608332">
        <ele>1017.7</ele>
        <time>2022-01-16T14:27:42Z</time>
      </trkpt>
      <trkpt lat="38.166903" lon="-2.608133">
        <ele>1018.0</ele>
        <time>2022-01-16T14:28:00Z</time>
      </trkpt>
      <trkpt lat="38.166917" lon="-2.607899">
        <ele>1014.7</ele>
        <time>2022-01-16T14:28:15Z</time>
      </trkpt>
      <trkpt lat="38.166792" lon="-2.607728">
        <ele>1010.0</ele>
        <time>2022-01-16T14:28:34Z</time>
      </trkpt>
      <trkpt lat="38.166620" lon="-2.607653">
        <ele>1006.0</ele>
        <time>2022-01-16T14:28:48Z</time>
      </trkpt>
      <trkpt lat="38.166449" lon="-2.607570">
        <ele>1001.7</ele>
        <time>2022-01-16T14:29:04Z</time>
      </trkpt>
      <trkpt lat="38.166267" lon="-2.607579">
        <ele>1000.7</ele>
        <time>2022-01-16T14:29:20Z</time>
      </trkpt>
      <trkpt lat="38.166086" lon="-2.607563">
        <ele>997.7</ele>
        <time>2022-01-16T14:29:36Z</time>
      </trkpt>
      <trkpt lat="38.165905" lon="-2.607480">
        <ele>997.7</ele>
        <time>2022-01-16T14:29:50Z</time>
      </trkpt>
      <trkpt lat="38.165737" lon="-2.607384">
        <ele>1002.7</ele>
        <time>2022-01-16T14:30:03Z</time>
      </trkpt>
      <trkpt lat="38.165559" lon="-2.607350">
        <ele>1001.0</ele>
        <time>2022-01-16T14:30:17Z</time>
      </trkpt>
      <trkpt lat="38.165382" lon="-2.607306">
        <ele>1000.0</ele>
        <time>2022-01-16T14:30:33Z</time>
      </trkpt>
      <trkpt lat="38.165249" lon="-2.607161">
        <ele>999.7</ele>
        <time>2022-01-16T14:30:47Z</time>
      </trkpt>
      <trkpt lat="38.165211" lon="-2.606904">
        <ele>999.7</ele>
        <time>2022-01-16T14:30:59Z</time>
      </trkpt>
      <trkpt lat="38.165150" lon="-2.606678">
        <ele>999.5</ele>
        <time>2022-01-16T14:31:11Z</time>
      </trkpt>
      <trkpt lat="38.165004" lon="-2.606455">
        <ele>1001.7</ele>
        <time>2022-01-16T14:31:23Z</time>
      </trkpt>
      <trkpt lat="38.165042" lon="-2.606208">
        <ele>1001.6</ele>
        <time>2022-01-16T14:31:41Z</time>
      </trkpt>
      <trkpt lat="38.165236" lon="-2.606174">
        <ele>1002.7</ele>
        <time>2022-01-16T14:32:00Z</time>
      </trkpt>
      <trkpt lat="38.165407" lon="-2.606276">
        <ele>1001.8</ele>
        <time>2022-01-16T14:32:16Z</time>
      </trkpt>
      <trkpt lat="38.165566" lon="-2.606183">
        <ele>1002.0</ele>
        <time>2022-01-16T14:32:34Z</time>
      </trkpt>
      <trkpt lat="38.165700" lon="-2.606010">
        <ele>1002.7</ele>
        <time>2022-01-16T14:33:48Z</time>
      </trkpt>
      <trkpt lat="38.165721" lon="-2.605775">
        <ele>998.7</ele>
        <time>2022-01-16T14:34:14Z</time>
      </trkpt>
      <trkpt lat="38.165607" lon="-2.605578">
        <ele>993.7</ele>
        <time>2022-01-16T14:34:30Z</time>
      </trkpt>
      <trkpt lat="38.165450" lon="-2.605459">
        <ele>993.0</ele>
        <time>2022-01-16T14:34:41Z</time>
      </trkpt>
      <trkpt lat="38.165347" lon="-2.605270">
        <ele>987.0</ele>
        <time>2022-01-16T14:34:56Z</time>
      </trkpt>
      <trkpt lat="38.165304" lon="-2.605052">
        <ele>987.7</ele>
        <time>2022-01-16T14:35:11Z</time>
      </trkpt>
      <trkpt lat="38.165283" lon="-2.604829">
        <ele>989.4</ele>
        <time>2022-01-16T14:35:24Z</time>
      </trkpt>
      <trkpt lat="38.165263" lon="-2.604618">
        <ele>992.9</ele>
        <time>2022-01-16T14:35:40Z</time>
      </trkpt>
      <trkpt lat="38.165241" lon="-2.604399">
        <ele>990.7</ele>
        <time>2022-01-16T14:35:57Z</time>
      </trkpt>
      <trkpt lat="38.165180" lon="-2.604200">
        <ele>992.7</ele>
        <time>2022-01-16T14:36:12Z</time>
      </trkpt>
      <trkpt lat="38.165148" lon="-2.603966">
        <ele>992.7</ele>
        <time>2022-01-16T14:36:32Z</time>
      </trkpt>
      <trkpt lat="38.165120" lon="-2.603740">
        <ele>990.6</ele>
        <time>2022-01-16T14:36:49Z</time>
      </trkpt>
      <trkpt lat="38.165038" lon="-2.603513">
        <ele>995.7</ele>
        <time>2022-01-16T14:36:59Z</time>
      </trkpt>
      <trkpt lat="38.164963" lon="-2.603302">
        <ele>1003.8</ele>
        <time>2022-01-16T14:37:41Z</time>
      </trkpt>
      <trkpt lat="38.164849" lon="-2.603113">
        <ele>1006.6</ele>
        <time>2022-01-16T14:37:56Z</time>
      </trkpt>
      <trkpt lat="38.164736" lon="-2.602933">
        <ele>1006.7</ele>
        <time>2022-01-16T14:38:10Z</time>
      </trkpt>
      <trkpt lat="38.164642" lon="-2.602733">
        <ele>1007.7</ele>
        <time>2022-01-16T14:38:27Z</time>
      </trkpt>
      <trkpt lat="38.164549" lon="-2.602523">
        <ele>1004.1</ele>
        <time>2022-01-16T14:38:45Z</time>
      </trkpt>
      <trkpt lat="38.164501" lon="-2.602287">
        <ele>1002.7</ele>
        <time>2022-01-16T14:38:59Z</time>
      </trkpt>
      <trkpt lat="38.164532" lon="-2.602056">
        <ele>1000.0</ele>
        <time>2022-01-16T14:39:12Z</time>
      </trkpt>
      <trkpt lat="38.164541" lon="-2.601820">
        <ele>1001.7</ele>
        <time>2022-01-16T14:39:28Z</time>
      </trkpt>
      <trkpt lat="38.164478" lon="-2.601594">
        <ele>1007.1</ele>
        <time>2022-01-16T14:39:45Z</time>
      </trkpt>
      <trkpt lat="38.164438" lon="-2.601365">
        <ele>1010.7</ele>
        <time>2022-01-16T14:40:02Z</time>
      </trkpt>
      <trkpt lat="38.164477" lon="-2.601139">
        <ele>1011.7</ele>
        <time>2022-01-16T14:40:15Z</time>
      </trkpt>
      <trkpt lat="38.164479" lon="-2.600910">
        <ele>1014.4</ele>
        <time>2022-01-16T14:40:29Z</time>
      </trkpt>
      <trkpt lat="38.164400" lon="-2.600689">
        <ele>1014.7</ele>
        <time>2022-01-16T14:40:45Z</time>
      </trkpt>
      <trkpt lat="38.164314" lon="-2.600481">
        <ele>1012.1</ele>
        <time>2022-01-16T14:41:00Z</time>
      </trkpt>
      <trkpt lat="38.164234" lon="-2.600275">
        <ele>1009.7</ele>
        <time>2022-01-16T14:41:13Z</time>
      </trkpt>
      <trkpt lat="38.164144" lon="-2.600068">
        <ele>1008.7</ele>
        <time>2022-01-16T14:41:30Z</time>
      </trkpt>
      <trkpt lat="38.164065" lon="-2.599857">
        <ele>1008.0</ele>
        <time>2022-01-16T14:41:45Z</time>
      </trkpt>
      <trkpt lat="38.163949" lon="-2.599683">
        <ele>1008.7</ele>
        <time>2022-01-16T14:41:59Z</time>
      </trkpt>
      <trkpt lat="38.163822" lon="-2.599512">
        <ele>1006.7</ele>
        <time>2022-01-16T14:42:15Z</time>
      </trkpt>
      <trkpt lat="38.163678" lon="-2.599373">
        <ele>1007.6</ele>
        <time>2022-01-16T14:42:30Z</time>
      </trkpt>
      <trkpt lat="38.163524" lon="-2.599236">
        <ele>1006.7</ele>
        <time>2022-01-16T14:42:47Z</time>
      </trkpt>
      <trkpt lat="38.163390" lon="-2.599084">
        <ele>1005.6</ele>
        <time>2022-01-16T14:43:02Z</time>
      </trkpt>
      <trkpt lat="38.163286" lon="-2.598897">
        <ele>1003.7</ele>
        <time>2022-01-16T14:43:15Z</time>
      </trkpt>
      <trkpt lat="38.163205" lon="-2.598680">
        <ele>1001.0</ele>
        <time>2022-01-16T14:43:29Z</time>
      </trkpt>
      <trkpt lat="38.163106" lon="-2.598488">
        <ele>1003.4</ele>
        <time>2022-01-16T14:43:44Z</time>
      </trkpt>
      <trkpt lat="38.162959" lon="-2.598343">
        <ele>1003.7</ele>
        <time>2022-01-16T14:43:57Z</time>
      </trkpt>
      <trkpt lat="38.162840" lon="-2.598166">
        <ele>1003.0</ele>
        <time>2022-01-16T14:44:10Z</time>
      </trkpt>
      <trkpt lat="38.162731" lon="-2.597975">
        <ele>1000.7</ele>
        <time>2022-01-16T14:44:24Z</time>
      </trkpt>
      <trkpt lat="38.162638" lon="-2.597768">
        <ele>1000.7</ele>
        <time>2022-01-16T14:44:39Z</time>
      </trkpt>
      <trkpt lat="38.162523" lon="-2.597590">
        <ele>1002.0</ele>
        <time>2022-01-16T14:44:54Z</time>
      </trkpt>
      <trkpt lat="38.162384" lon="-2.597420">
        <ele>998.8</ele>
        <time>2022-01-16T14:45:09Z</time>
      </trkpt>
      <trkpt lat="38.162287" lon="-2.597219">
        <ele>999.7</ele>
        <time>2022-01-16T14:45:24Z</time>
      </trkpt>
      <trkpt lat="38.162288" lon="-2.596985">
        <ele>998.6</ele>
        <time>2022-01-16T14:45:38Z</time>
      </trkpt>
      <trkpt lat="38.162273" lon="-2.596751">
        <ele>1000.7</ele>
        <time>2022-01-16T14:45:52Z</time>
      </trkpt>
      <trkpt lat="38.162247" lon="-2.596512">
        <ele>1001.7</ele>
        <time>2022-01-16T14:46:07Z</time>
      </trkpt>
      <trkpt lat="38.162150" lon="-2.596318">
        <ele>1001.6</ele>
        <time>2022-01-16T14:46:21Z</time>
      </trkpt>
      <trkpt lat="38.162061" lon="-2.596114">
        <ele>998.9</ele>
        <time>2022-01-16T14:46:36Z</time>
      </trkpt>
      <trkpt lat="38.161937" lon="-2.595921">
        <ele>998.9</ele>
        <time>2022-01-16T14:46:49Z</time>
      </trkpt>
      <trkpt lat="38.161829" lon="-2.595723">
        <ele>996.7</ele>
        <time>2022-01-16T14:47:05Z</time>
      </trkpt>
      <trkpt lat="38.161727" lon="-2.595522">
        <ele>997.7</ele>
        <time>2022-01-16T14:47:20Z</time>
      </trkpt>
      <trkpt lat="38.161620" lon="-2.595321">
        <ele>995.0</ele>
        <time>2022-01-16T14:47:37Z</time>
      </trkpt>
      <trkpt lat="38.161533" lon="-2.595115">
        <ele>993.7</ele>
        <time>2022-01-16T14:47:59Z</time>
      </trkpt>
      <trkpt lat="38.161391" lon="-2.594959">
        <ele>994.7</ele>
        <time>2022-01-16T14:48:14Z</time>
      </trkpt>
      <trkpt lat="38.161289" lon="-2.594764">
        <ele>994.7</ele>
        <time>2022-01-16T14:48:28Z</time>
      </trkpt>
      <trkpt lat="38.161172" lon="-2.594583">
        <ele>992.8</ele>
        <time>2022-01-16T14:48:41Z</time>
      </trkpt>
      <trkpt lat="38.161093" lon="-2.594370">
        <ele>993.7</ele>
        <time>2022-01-16T14:48:58Z</time>
      </trkpt>
      <trkpt lat="38.160981" lon="-2.594177">
        <ele>993.0</ele>
        <time>2022-01-16T14:49:15Z</time>
      </trkpt>
      <trkpt lat="38.160842" lon="-2.594005">
        <ele>992.0</ele>
        <time>2022-01-16T14:49:29Z</time>
      </trkpt>
      <trkpt lat="38.160726" lon="-2.593824">
        <ele>991.7</ele>
        <time>2022-01-16T14:49:43Z</time>
      </trkpt>
      <trkpt lat="38.160655" lon="-2.593607">
        <ele>991.7</ele>
        <time>2022-01-16T14:49:59Z</time>
      </trkpt>
      <trkpt lat="38.160530" lon="-2.593417">
        <ele>990.7</ele>
        <time>2022-01-16T14:50:14Z</time>
      </trkpt>
      <trkpt lat="38.160396" lon="-2.593250">
        <ele>991.6</ele>
        <time>2022-01-16T14:50:27Z</time>
      </trkpt>
      <trkpt lat="38.160289" lon="-2.593060">
        <ele>991.7</ele>
        <time>2022-01-16T14:50:44Z</time>
      </trkpt>
      <trkpt lat="38.160143" lon="-2.592923">
        <ele>994.7</ele>
        <time>2022-01-16T14:50:59Z</time>
      </trkpt>
      <trkpt lat="38.160028" lon="-2.592726">
        <ele>996.6</ele>
        <time>2022-01-16T14:51:14Z</time>
      </trkpt>
      <trkpt lat="38.159944" lon="-2.592507">
        <ele>995.7</ele>
        <time>2022-01-16T14:51:29Z</time>
      </trkpt>
      <trkpt lat="38.159860" lon="-2.592289">
        <ele>991.8</ele>
        <time>2022-01-16T14:51:44Z</time>
      </trkpt>
      <trkpt lat="38.159760" lon="-2.592081">
        <ele>987.8</ele>
        <time>2022-01-16T14:51:59Z</time>
      </trkpt>
      <trkpt lat="38.159692" lon="-2.591856">
        <ele>986.7</ele>
        <time>2022-01-16T14:52:14Z</time>
      </trkpt>
      <trkpt lat="38.159622" lon="-2.591642">
        <ele>986.7</ele>
        <time>2022-01-16T14:52:30Z</time>
      </trkpt>
      <trkpt lat="38.159599" lon="-2.591407">
        <ele>987.7</ele>
        <time>2022-01-16T14:52:45Z</time>
      </trkpt>
      <trkpt lat="38.159615" lon="-2.591173">
        <ele>984.8</ele>
        <time>2022-01-16T14:53:00Z</time>
      </trkpt>
      <trkpt lat="38.159636" lon="-2.590937">
        <ele>982.5</ele>
        <time>2022-01-16T14:53:14Z</time>
      </trkpt>
      <trkpt lat="38.159645" lon="-2.590696">
        <ele>983.7</ele>
        <time>2022-01-16T14:53:28Z</time>
      </trkpt>
      <trkpt lat="38.159640" lon="-2.590459">
        <ele>985.0</ele>
        <time>2022-01-16T14:53:44Z</time>
      </trkpt>
      <trkpt lat="38.159645" lon="-2.590221">
        <ele>985.7</ele>
        <time>2022-01-16T14:53:58Z</time>
      </trkpt>
      <trkpt lat="38.159667" lon="-2.589984">
        <ele>984.8</ele>
        <time>2022-01-16T14:54:14Z</time>
      </trkpt>
      <trkpt lat="38.159742" lon="-2.589766">
        <ele>981.8</ele>
        <time>2022-01-16T14:54:28Z</time>
      </trkpt>
      <trkpt lat="38.159821" lon="-2.589558">
        <ele>983.7</ele>
        <time>2022-01-16T14:54:45Z</time>
      </trkpt>
      <trkpt lat="38.159938" lon="-2.589360">
        <ele>983.7</ele>
        <time>2022-01-16T14:54:59Z</time>
      </trkpt>
      <trkpt lat="38.160032" lon="-2.589165">
        <ele>982.7</ele>
        <time>2022-01-16T14:55:12Z</time>
      </trkpt>
      <trkpt lat="38.160116" lon="-2.588950">
        <ele>984.7</ele>
        <time>2022-01-16T14:55:26Z</time>
      </trkpt>
      <trkpt lat="38.160209" lon="-2.588753">
        <ele>987.3</ele>
        <time>2022-01-16T14:55:41Z</time>
      </trkpt>
      <trkpt lat="38.160338" lon="-2.588578">
        <ele>988.7</ele>
        <time>2022-01-16T14:55:57Z</time>
      </trkpt>
      <trkpt lat="38.160411" lon="-2.588361">
        <ele>990.5</ele>
        <time>2022-01-16T14:56:13Z</time>
      </trkpt>
      <trkpt lat="38.160491" lon="-2.588155">
        <ele>990.4</ele>
        <time>2022-01-16T14:56:26Z</time>
      </trkpt>
      <trkpt lat="38.160565" lon="-2.587936">
        <ele>986.0</ele>
        <time>2022-01-16T14:57:02Z</time>
      </trkpt>
      <trkpt lat="38.160617" lon="-2.587711">
        <ele>982.7</ele>
        <time>2022-01-16T14:57:16Z</time>
      </trkpt>
      <trkpt lat="38.160676" lon="-2.587485">
        <ele>986.6</ele>
        <time>2022-01-16T14:57:33Z</time>
      </trkpt>
      <trkpt lat="38.160660" lon="-2.587240">
        <ele>988.7</ele>
        <time>2022-01-16T14:57:46Z</time>
      </trkpt>
      <trkpt lat="38.160668" lon="-2.587003">
        <ele>991.6</ele>
        <time>2022-01-16T14:58:01Z</time>
      </trkpt>
      <trkpt lat="38.160583" lon="-2.586797">
        <ele>996.6</ele>
        <time>2022-01-16T14:58:15Z</time>
      </trkpt>
      <trkpt lat="38.160498" lon="-2.586593">
        <ele>998.0</ele>
        <time>2022-01-16T14:58:29Z</time>
      </trkpt>
      <trkpt lat="38.160435" lon="-2.586370">
        <ele>996.7</ele>
        <time>2022-01-16T14:58:46Z</time>
      </trkpt>
      <trkpt lat="38.160396" lon="-2.586139">
        <ele>995.7</ele>
        <time>2022-01-16T14:59:00Z</time>
      </trkpt>
      <trkpt lat="38.160389" lon="-2.585909">
        <ele>994.0</ele>
        <time>2022-01-16T14:59:13Z</time>
      </trkpt>
      <trkpt lat="38.160467" lon="-2.585691">
        <ele>992.7</ele>
        <time>2022-01-16T14:59:27Z</time>
      </trkpt>
      <trkpt lat="38.160536" lon="-2.585469">
        <ele>997.3</ele>
        <time>2022-01-16T14:59:44Z</time>
      </trkpt>
      <trkpt lat="38.160608" lon="-2.585253">
        <ele>995.7</ele>
        <time>2022-01-16T15:00:04Z</time>
      </trkpt>
      <trkpt lat="38.160680" lon="-2.585036">
        <ele>991.7</ele>
        <time>2022-01-16T15:00:19Z</time>
      </trkpt>
      <trkpt lat="38.160713" lon="-2.584793">
        <ele>991.7</ele>
        <time>2022-01-16T15:00:36Z</time>
      </trkpt>
      <trkpt lat="38.160776" lon="-2.584558">
        <ele>989.0</ele>
        <time>2022-01-16T15:00:49Z</time>
      </trkpt>
      <trkpt lat="38.160887" lon="-2.584369">
        <ele>992.4</ele>
        <time>2022-01-16T15:01:02Z</time>
      </trkpt>
      <trkpt lat="38.161048" lon="-2.584259">
        <ele>995.7</ele>
        <time>2022-01-16T15:01:18Z</time>
      </trkpt>
      <trkpt lat="38.161228" lon="-2.584218">
        <ele>996.4</ele>
        <time>2022-01-16T15:01:32Z</time>
      </trkpt>
      <trkpt lat="38.161409" lon="-2.584178">
        <ele>998.4</ele>
        <time>2022-01-16T15:01:47Z</time>
      </trkpt>
      <trkpt lat="38.161588" lon="-2.584121">
        <ele>995.7</ele>
        <time>2022-01-16T15:02:05Z</time>
      </trkpt>
      <trkpt lat="38.161763" lon="-2.584038">
        <ele>997.8</ele>
        <time>2022-01-16T15:02:27Z</time>
      </trkpt>
      <trkpt lat="38.161916" lon="-2.583914">
        <ele>1000.0</ele>
        <time>2022-01-16T15:02:40Z</time>
      </trkpt>
      <trkpt lat="38.162040" lon="-2.583739">
        <ele>997.0</ele>
        <time>2022-01-16T15:02:54Z</time>
      </trkpt>
      <trkpt lat="38.162140" lon="-2.583545">
        <ele>994.0</ele>
        <time>2022-01-16T15:03:07Z</time>
      </trkpt>
      <trkpt lat="38.162258" lon="-2.583360">
        <ele>992.6</ele>
        <time>2022-01-16T15:03:21Z</time>
      </trkpt>
      <trkpt lat="38.162365" lon="-2.583161">
        <ele>990.6</ele>
        <time>2022-01-16T15:03:36Z</time>
      </trkpt>
      <trkpt lat="38.162497" lon="-2.583002">
        <ele>990.7</ele>
        <time>2022-01-16T15:03:51Z</time>
      </trkpt>
      <trkpt lat="38.162560" lon="-2.582783">
        <ele>992.4</ele>
        <time>2022-01-16T15:04:07Z</time>
      </trkpt>
      <trkpt lat="38.162586" lon="-2.582555">
        <ele>991.7</ele>
        <time>2022-01-16T15:04:21Z</time>
      </trkpt>
      <trkpt lat="38.162614" lon="-2.582317">
        <ele>985.8</ele>
        <time>2022-01-16T15:04:36Z</time>
      </trkpt>
      <trkpt lat="38.162705" lon="-2.582105">
        <ele>982.7</ele>
        <time>2022-01-16T15:04:50Z</time>
      </trkpt>
      <trkpt lat="38.162863" lon="-2.581968">
        <ele>984.7</ele>
        <time>2022-01-16T15:05:04Z</time>
      </trkpt>
      <trkpt lat="38.163020" lon="-2.581840">
        <ele>985.9</ele>
        <time>2022-01-16T15:05:17Z</time>
      </trkpt>
      <trkpt lat="38.163136" lon="-2.581646">
        <ele>981.0</ele>
        <time>2022-01-16T15:05:32Z</time>
      </trkpt>
      <trkpt lat="38.163235" lon="-2.581455">
        <ele>981.9</ele>
        <time>2022-01-16T15:05:45Z</time>
      </trkpt>
      <trkpt lat="38.163345" lon="-2.581266">
        <ele>981.7</ele>
        <time>2022-01-16T15:06:00Z</time>
      </trkpt>
      <trkpt lat="38.163473" lon="-2.581086">
        <ele>983.6</ele>
        <time>2022-01-16T15:06:19Z</time>
      </trkpt>
      <trkpt lat="38.163645" lon="-2.581000">
        <ele>987.7</ele>
        <time>2022-01-16T15:06:35Z</time>
      </trkpt>
      <trkpt lat="38.163796" lon="-2.580871">
        <ele>989.7</ele>
        <time>2022-01-16T15:06:53Z</time>
      </trkpt>
      <trkpt lat="38.163923" lon="-2.580709">
        <ele>987.7</ele>
        <time>2022-01-16T15:07:06Z</time>
      </trkpt>
      <trkpt lat="38.164065" lon="-2.580549">
        <ele>986.7</ele>
        <time>2022-01-16T15:07:20Z</time>
      </trkpt>
      <trkpt lat="38.164168" lon="-2.580338">
        <ele>983.7</ele>
        <time>2022-01-16T15:07:37Z</time>
      </trkpt>
      <trkpt lat="38.164278" lon="-2.580143">
        <ele>983.7</ele>
        <time>2022-01-16T15:07:52Z</time>
      </trkpt>
      <trkpt lat="38.164374" lon="-2.579946">
        <ele>984.7</ele>
        <time>2022-01-16T15:08:08Z</time>
      </trkpt>
      <trkpt lat="38.164489" lon="-2.579760">
        <ele>980.7</ele>
        <time>2022-01-16T15:08:24Z</time>
      </trkpt>
      <trkpt lat="38.164548" lon="-2.579528">
        <ele>981.7</ele>
        <time>2022-01-16T15:08:39Z</time>
      </trkpt>
      <trkpt lat="38.164575" lon="-2.579299">
        <ele>980.7</ele>
        <time>2022-01-16T15:08:55Z</time>
      </trkpt>
      <trkpt lat="38.164694" lon="-2.579117">
        <ele>978.0</ele>
        <time>2022-01-16T15:09:08Z</time>
      </trkpt>
      <trkpt lat="38.164829" lon="-2.578957">
        <ele>977.0</ele>
        <time>2022-01-16T15:09:22Z</time>
      </trkpt>
      <trkpt lat="38.164939" lon="-2.578758">
        <ele>977.7</ele>
        <time>2022-01-16T15:09:36Z</time>
      </trkpt>
      <trkpt lat="38.165059" lon="-2.578581">
        <ele>979.6</ele>
        <time>2022-01-16T15:09:53Z</time>
      </trkpt>
      <trkpt lat="38.165172" lon="-2.578388">
        <ele>980.4</ele>
        <time>2022-01-16T15:10:11Z</time>
      </trkpt>
      <trkpt lat="38.165296" lon="-2.578222">
        <ele>980.7</ele>
        <time>2022-01-16T15:10:24Z</time>
      </trkpt>
      <trkpt lat="38.165421" lon="-2.578046">
        <ele>980.7</ele>
        <time>2022-01-16T15:10:39Z</time>
      </trkpt>
      <trkpt lat="38.165530" lon="-2.577858">
        <ele>980.7</ele>
        <time>2022-01-16T15:10:54Z</time>
      </trkpt>
      <trkpt lat="38.165646" lon="-2.577666">
        <ele>980.7</ele>
        <time>2022-01-16T15:11:10Z</time>
      </trkpt>
      <trkpt lat="38.165720" lon="-2.577449">
        <ele>976.7</ele>
        <time>2022-01-16T15:11:25Z</time>
      </trkpt>
      <trkpt lat="38.165740" lon="-2.577212">
        <ele>976.0</ele>
        <time>2022-01-16T15:11:45Z</time>
      </trkpt>
      <trkpt lat="38.165794" lon="-2.576992">
        <ele>972.7</ele>
        <time>2022-01-16T15:11:59Z</time>
      </trkpt>
      <trkpt lat="38.165883" lon="-2.576784">
        <ele>969.7</ele>
        <time>2022-01-16T15:12:16Z</time>
      </trkpt>
      <trkpt lat="38.165967" lon="-2.576571">
        <ele>966.7</ele>
        <time>2022-01-16T15:12:32Z</time>
      </trkpt>
      <trkpt lat="38.166051" lon="-2.576360">
        <ele>967.7</ele>
        <time>2022-01-16T15:12:46Z</time>
      </trkpt>
      <trkpt lat="38.166153" lon="-2.576167">
        <ele>966.7</ele>
        <time>2022-01-16T15:13:01Z</time>
      </trkpt>
      <trkpt lat="38.166232" lon="-2.575946">
        <ele>968.7</ele>
        <time>2022-01-16T15:13:17Z</time>
      </trkpt>
      <trkpt lat="38.166376" lon="-2.575795">
        <ele>968.7</ele>
        <time>2022-01-16T15:13:30Z</time>
      </trkpt>
      <trkpt lat="38.166531" lon="-2.575655">
        <ele>971.6</ele>
        <time>2022-01-16T15:13:43Z</time>
      </trkpt>
      <trkpt lat="38.166675" lon="-2.575490">
        <ele>972.0</ele>
        <time>2022-01-16T15:13:57Z</time>
      </trkpt>
      <trkpt lat="38.166809" lon="-2.575337">
        <ele>970.7</ele>
        <time>2022-01-16T15:14:11Z</time>
      </trkpt>
      <trkpt lat="38.166952" lon="-2.575182">
        <ele>971.4</ele>
        <time>2022-01-16T15:14:28Z</time>
      </trkpt>
      <trkpt lat="38.167128" lon="-2.575106">
        <ele>971.7</ele>
        <time>2022-01-16T15:14:43Z</time>
      </trkpt>
      <trkpt lat="38.167300" lon="-2.575035">
        <ele>973.6</ele>
        <time>2022-01-16T15:14:59Z</time>
      </trkpt>
      <trkpt lat="38.167460" lon="-2.574917">
        <ele>975.7</ele>
        <time>2022-01-16T15:15:15Z</time>
      </trkpt>
      <trkpt lat="38.167584" lon="-2.574742">
        <ele>974.7</ele>
        <time>2022-01-16T15:15:30Z</time>
      </trkpt>
      <trkpt lat="38.167702" lon="-2.574563">
        <ele>974.4</ele>
        <time>2022-01-16T15:15:44Z</time>
      </trkpt>
      <trkpt lat="38.167848" lon="-2.574404">
        <ele>974.7</ele>
        <time>2022-01-16T15:15:56Z</time>
      </trkpt>
      <trkpt lat="38.168016" lon="-2.574297">
        <ele>974.7</ele>
        <time>2022-01-16T15:16:10Z</time>
      </trkpt>
      <trkpt lat="38.168201" lon="-2.574234">
        <ele>976.7</ele>
        <time>2022-01-16T15:16:29Z</time>
      </trkpt>
      <trkpt lat="38.168367" lon="-2.574119">
        <ele>977.7</ele>
        <time>2022-01-16T15:16:46Z</time>
      </trkpt>
      <trkpt lat="38.168487" lon="-2.573941">
        <ele>975.7</ele>
        <time>2022-01-16T15:17:00Z</time>
      </trkpt>
      <trkpt lat="38.168552" lon="-2.573718">
        <ele>973.7</ele>
        <time>2022-01-16T15:17:14Z</time>
      </trkpt>
      <trkpt lat="38.168666" lon="-2.573522">
        <ele>972.7</ele>
        <time>2022-01-16T15:17:29Z</time>
      </trkpt>
      <trkpt lat="38.168764" lon="-2.573324">
        <ele>973.7</ele>
        <time>2022-01-16T15:17:43Z</time>
      </trkpt>
      <trkpt lat="38.168771" lon="-2.573085">
        <ele>969.7</ele>
        <time>2022-01-16T15:17:59Z</time>
      </trkpt>
      <trkpt lat="38.168830" lon="-2.572860">
        <ele>969.3</ele>
        <time>2022-01-16T15:18:13Z</time>
      </trkpt>
      <trkpt lat="38.168847" lon="-2.572628">
        <ele>971.6</ele>
        <time>2022-01-16T15:18:27Z</time>
      </trkpt>
      <trkpt lat="38.168840" lon="-2.572387">
        <ele>971.7</ele>
        <time>2022-01-16T15:18:42Z</time>
      </trkpt>
      <trkpt lat="38.168797" lon="-2.572160">
        <ele>970.7</ele>
        <time>2022-01-16T15:18:58Z</time>
      </trkpt>
      <trkpt lat="38.168751" lon="-2.571934">
        <ele>967.0</ele>
        <time>2022-01-16T15:19:13Z</time>
      </trkpt>
      <trkpt lat="38.168780" lon="-2.571696">
        <ele>964.7</ele>
        <time>2022-01-16T15:19:28Z</time>
      </trkpt>
      <trkpt lat="38.168868" lon="-2.571482">
        <ele>963.4</ele>
        <time>2022-01-16T15:19:43Z</time>
      </trkpt>
      <trkpt lat="38.168933" lon="-2.571265">
        <ele>963.7</ele>
        <time>2022-01-16T15:20:00Z</time>
      </trkpt>
      <trkpt lat="38.169102" lon="-2.571159">
        <ele>965.4</ele>
        <time>2022-01-16T15:20:17Z</time>
      </trkpt>
      <trkpt lat="38.169265" lon="-2.571056">
        <ele>966.7</ele>
        <time>2022-01-16T15:20:30Z</time>
      </trkpt>
      <trkpt lat="38.169391" lon="-2.570887">
        <ele>969.4</ele>
        <time>2022-01-16T15:20:45Z</time>
      </trkpt>
      <trkpt lat="38.169454" lon="-2.570669">
        <ele>967.0</ele>
        <time>2022-01-16T15:21:02Z</time>
      </trkpt>
      <trkpt lat="38.169500" lon="-2.570440">
        <ele>965.7</ele>
        <time>2022-01-16T15:21:16Z</time>
      </trkpt>
      <trkpt lat="38.169536" lon="-2.570206">
        <ele>967.7</ele>
        <time>2022-01-16T15:21:30Z</time>
      </trkpt>
      <trkpt lat="38.169558" lon="-2.569977">
        <ele>967.8</ele>
        <time>2022-01-16T15:21:45Z</time>
      </trkpt>
      <trkpt lat="38.169542" lon="-2.569740">
        <ele>964.7</ele>
        <time>2022-01-16T15:21:59Z</time>
      </trkpt>
      <trkpt lat="38.169579" lon="-2.569507">
        <ele>963.0</ele>
        <time>2022-01-16T15:22:13Z</time>
      </trkpt>
      <trkpt lat="38.169520" lon="-2.569285">
        <ele>960.7</ele>
        <time>2022-01-16T15:22:27Z</time>
      </trkpt>
      <trkpt lat="38.169392" lon="-2.569123">
        <ele>960.7</ele>
        <time>2022-01-16T15:22:40Z</time>
      </trkpt>
      <trkpt lat="38.169326" lon="-2.568910">
        <ele>962.7</ele>
        <time>2022-01-16T15:22:56Z</time>
      </trkpt>
      <trkpt lat="38.169363" lon="-2.568675">
        <ele>962.0</ele>
        <time>2022-01-16T15:23:11Z</time>
      </trkpt>
      <trkpt lat="38.169433" lon="-2.568448">
        <ele>958.7</ele>
        <time>2022-01-16T15:23:27Z</time>
      </trkpt>
      <trkpt lat="38.169500" lon="-2.568226">
        <ele>958.7</ele>
        <time>2022-01-16T15:23:45Z</time>
      </trkpt>
      <trkpt lat="38.169534" lon="-2.567998">
        <ele>958.7</ele>
        <time>2022-01-16T15:24:00Z</time>
      </trkpt>
      <trkpt lat="38.169578" lon="-2.567761">
        <ele>954.1</ele>
        <time>2022-01-16T15:24:15Z</time>
      </trkpt>
      <trkpt lat="38.169657" lon="-2.567555">
        <ele>948.5</ele>
        <time>2022-01-16T15:24:31Z</time>
      </trkpt>
      <trkpt lat="38.169726" lon="-2.567334">
        <ele>950.4</ele>
        <time>2022-01-16T15:24:47Z</time>
      </trkpt>
      <trkpt lat="38.169827" lon="-2.567127">
        <ele>951.0</ele>
        <time>2022-01-16T15:25:03Z</time>
      </trkpt>
      <trkpt lat="38.169955" lon="-2.566958">
        <ele>953.7</ele>
        <time>2022-01-16T15:25:23Z</time>
      </trkpt>
      <trkpt lat="38.170129" lon="-2.566859">
        <ele>958.6</ele>
        <time>2022-01-16T15:25:43Z</time>
      </trkpt>
      <trkpt lat="38.170232" lon="-2.566666">
        <ele>958.8</ele>
        <time>2022-01-16T15:25:57Z</time>
      </trkpt>
      <trkpt lat="38.170355" lon="-2.566480">
        <ele>955.9</ele>
        <time>2022-01-16T15:26:12Z</time>
      </trkpt>
      <trkpt lat="38.170507" lon="-2.566330">
        <ele>957.6</ele>
        <time>2022-01-16T15:26:24Z</time>
      </trkpt>
      <trkpt lat="38.170642" lon="-2.566153">
        <ele>956.7</ele>
        <time>2022-01-16T15:26:40Z</time>
      </trkpt>
      <trkpt lat="38.170752" lon="-2.565964">
        <ele>959.4</ele>
        <time>2022-01-16T15:26:53Z</time>
      </trkpt>
      <trkpt lat="38.170801" lon="-2.565730">
        <ele>957.8</ele>
        <time>2022-01-16T15:27:08Z</time>
      </trkpt>
      <trkpt lat="38.170882" lon="-2.565516">
        <ele>958.7</ele>
        <time>2022-01-16T15:27:25Z</time>
      </trkpt>
      <trkpt lat="38.170967" lon="-2.565308">
        <ele>960.5</ele>
        <time>2022-01-16T15:27:41Z</time>
      </trkpt>
      <trkpt lat="38.171079" lon="-2.565116">
        <ele>961.4</ele>
        <time>2022-01-16T15:27:55Z</time>
      </trkpt>
      <trkpt lat="38.171214" lon="-2.564946">
        <ele>960.6</ele>
        <time>2022-01-16T15:28:10Z</time>
      </trkpt>
      <trkpt lat="38.171341" lon="-2.564775">
        <ele>961.7</ele>
        <time>2022-01-16T15:28:26Z</time>
      </trkpt>
      <trkpt lat="38.171471" lon="-2.564614">
        <ele>963.7</ele>
        <time>2022-01-16T15:28:43Z</time>
      </trkpt>
      <trkpt lat="38.171594" lon="-2.564437">
        <ele>964.8</ele>
        <time>2022-01-16T15:28:59Z</time>
      </trkpt>
      <trkpt lat="38.171716" lon="-2.564261">
        <ele>960.7</ele>
        <time>2022-01-16T15:29:13Z</time>
      </trkpt>
      <trkpt lat="38.171835" lon="-2.564086">
        <ele>961.7</ele>
        <time>2022-01-16T15:29:29Z</time>
      </trkpt>
      <trkpt lat="38.171985" lon="-2.563943">
        <ele>962.7</ele>
        <time>2022-01-16T15:29:46Z</time>
      </trkpt>
      <trkpt lat="38.172128" lon="-2.563784">
        <ele>963.7</ele>
        <time>2022-01-16T15:30:02Z</time>
      </trkpt>
      <trkpt lat="38.172285" lon="-2.563649">
        <ele>965.6</ele>
        <time>2022-01-16T15:30:17Z</time>
      </trkpt>
      <trkpt lat="38.172432" lon="-2.563517">
        <ele>965.7</ele>
        <time>2022-01-16T15:30:32Z</time>
      </trkpt>
      <trkpt lat="38.172561" lon="-2.563353">
        <ele>962.7</ele>
        <time>2022-01-16T15:30:47Z</time>
      </trkpt>
      <trkpt lat="38.172694" lon="-2.563179">
        <ele>961.0</ele>
        <time>2022-01-16T15:31:01Z</time>
      </trkpt>
      <trkpt lat="38.172814" lon="-2.563002">
        <ele>960.7</ele>
        <time>2022-01-16T15:31:15Z</time>
      </trkpt>
      <trkpt lat="38.172884" lon="-2.562776">
        <ele>957.6</ele>
        <time>2022-01-16T15:31:31Z</time>
      </trkpt>
      <trkpt lat="38.173007" lon="-2.562606">
        <ele>960.7</ele>
        <time>2022-01-16T15:31:50Z</time>
      </trkpt>
      <trkpt lat="38.173192" lon="-2.562556">
        <ele>960.0</ele>
        <time>2022-01-16T15:32:08Z</time>
      </trkpt>
      <trkpt lat="38.173378" lon="-2.562506">
        <ele>958.1</ele>
        <time>2022-01-16T15:32:25Z</time>
      </trkpt>
      <trkpt lat="38.173561" lon="-2.562515">
        <ele>957.7</ele>
        <time>2022-01-16T15:32:42Z</time>
      </trkpt>
      <trkpt lat="38.173743" lon="-2.562520">
        <ele>960.3</ele>
        <time>2022-01-16T15:32:59Z</time>
      </trkpt>
      <trkpt lat="38.173932" lon="-2.562521">
        <ele>962.7</ele>
        <time>2022-01-16T15:33:17Z</time>
      </trkpt>
      <trkpt lat="38.174113" lon="-2.562472">
        <ele>962.4</ele>
        <time>2022-01-16T15:33:31Z</time>
      </trkpt>
      <trkpt lat="38.174294" lon="-2.562460">
        <ele>962.7</ele>
        <time>2022-01-16T15:33:45Z</time>
      </trkpt>
      <trkpt lat="38.174469" lon="-2.562395">
        <ele>963.7</ele>
        <time>2022-01-16T15:34:01Z</time>
      </trkpt>
      <trkpt lat="38.174646" lon="-2.562347">
        <ele>961.7</ele>
        <time>2022-01-16T15:34:15Z</time>
      </trkpt>
      <trkpt lat="38.174828" lon="-2.562292">
        <ele>959.7</ele>
        <time>2022-01-16T15:34:32Z</time>
      </trkpt>
      <trkpt lat="38.175015" lon="-2.562254">
        <ele>957.7</ele>
        <time>2022-01-16T15:34:48Z</time>
      </trkpt>
      <trkpt lat="38.175193" lon="-2.562218">
        <ele>957.7</ele>
        <time>2022-01-16T15:35:02Z</time>
      </trkpt>
      <trkpt lat="38.175384" lon="-2.562188">
        <ele>957.6</ele>
        <time>2022-01-16T15:35:16Z</time>
      </trkpt>
      <trkpt lat="38.175570" lon="-2.562184">
        <ele>957.7</ele>
        <time>2022-01-16T15:35:31Z</time>
      </trkpt>
      <trkpt lat="38.175758" lon="-2.562217">
        <ele>957.0</ele>
        <time>2022-01-16T15:35:47Z</time>
      </trkpt>
      <trkpt lat="38.175942" lon="-2.562235">
        <ele>957.8</ele>
        <time>2022-01-16T15:36:04Z</time>
      </trkpt>
      <trkpt lat="38.176122" lon="-2.562164">
        <ele>957.7</ele>
        <time>2022-01-16T15:36:19Z</time>
      </trkpt>
      <trkpt lat="38.176259" lon="-2.561996">
        <ele>954.8</ele>
        <time>2022-01-16T15:36:33Z</time>
      </trkpt>
      <trkpt lat="38.176405" lon="-2.561857">
        <ele>954.7</ele>
        <time>2022-01-16T15:36:47Z</time>
      </trkpt>
      <trkpt lat="38.176594" lon="-2.561819">
        <ele>952.0</ele>
        <time>2022-01-16T15:37:04Z</time>
      </trkpt>
      <trkpt lat="38.176782" lon="-2.561816">
        <ele>952.7</ele>
        <time>2022-01-16T15:37:20Z</time>
      </trkpt>
      <trkpt lat="38.176965" lon="-2.561804">
        <ele>946.4</ele>
        <time>2022-01-16T15:38:29Z</time>
      </trkpt>
      <trkpt lat="38.177147" lon="-2.561762">
        <ele>946.7</ele>
        <time>2022-01-16T15:38:41Z</time>
      </trkpt>
      <trkpt lat="38.177338" lon="-2.561750">
        <ele>945.0</ele>
        <time>2022-01-16T15:38:54Z</time>
      </trkpt>
      <trkpt lat="38.177528" lon="-2.561743">
        <ele>947.7</ele>
        <time>2022-01-16T15:39:07Z</time>
      </trkpt>
      <trkpt lat="38.177716" lon="-2.561710">
        <ele>949.7</ele>
        <time>2022-01-16T15:39:19Z</time>
      </trkpt>
      <trkpt lat="38.177894" lon="-2.561745">
        <ele>947.5</ele>
        <time>2022-01-16T15:39:41Z</time>
      </trkpt>
      <trkpt lat="38.178081" lon="-2.561736">
        <ele>943.8</ele>
        <time>2022-01-16T15:39:57Z</time>
      </trkpt>
      <trkpt lat="38.178267" lon="-2.561786">
        <ele>944.6</ele>
        <time>2022-01-16T15:40:17Z</time>
      </trkpt>
      <trkpt lat="38.178455" lon="-2.561754">
        <ele>943.7</ele>
        <time>2022-01-16T15:40:32Z</time>
      </trkpt>
      <trkpt lat="38.178642" lon="-2.561712">
        <ele>944.6</ele>
        <time>2022-01-16T15:40:48Z</time>
      </trkpt>
      <trkpt lat="38.178827" lon="-2.561725">
        <ele>946.7</ele>
        <time>2022-01-16T15:41:04Z</time>
      </trkpt>
      <trkpt lat="38.179009" lon="-2.561706">
        <ele>948.7</ele>
        <time>2022-01-16T15:41:20Z</time>
      </trkpt>
      <trkpt lat="38.179189" lon="-2.561686">
        <ele>948.9</ele>
        <time>2022-01-16T15:41:36Z</time>
      </trkpt>
      <trkpt lat="38.179300" lon="-2.561683">
        <ele>951.7</ele>
        <time>2022-01-16T15:42:25Z</time>
      </trkpt>
      <trkpt lat="38.179281" lon="-2.561468">
        <ele>945.7</ele>
        <time>2022-01-16T15:44:19Z</time>
      </trkpt>
      <trkpt lat="38.179177" lon="-2.561308">
        <ele>944.8</ele>
        <time>2022-01-16T15:44:45Z</time>
      </trkpt>
      <trkpt lat="38.179045" lon="-2.561166">
        <ele>941.7</ele>
        <time>2022-01-16T15:45:03Z</time>
      </trkpt>
      <trkpt lat="38.178968" lon="-2.561118">
        <ele>944.8</ele>
        <time>2022-01-16T15:45:17Z</time>
      </trkpt>
      <trkpt lat="38.178893" lon="-2.561053">
        <ele>946.0</ele>
        <time>2022-01-16T15:45:31Z</time>
      </trkpt>
      <trkpt lat="38.178865" lon="-2.561029">
        <ele>940.7</ele>
        <time>2022-01-16T15:46:04Z</time>
      </trkpt>
      <trkpt lat="38.178873" lon="-2.560948">
        <ele>938.7</ele>
        <time>2022-01-16T15:46:55Z</time>
      </trkpt>
      <trkpt lat="38.178875" lon="-2.560885">
        <ele>937.8</ele>
        <time>2022-01-16T15:47:13Z</time>
      </trkpt>
      <trkpt lat="38.178890" lon="-2.560822">
        <ele>943.8</ele>
        <time>2022-01-16T15:54:26Z</time>
      </trkpt>
      <trkpt lat="38.178898" lon="-2.560742">
        <ele>922.0</ele>
        <time>2022-01-16T16:23:51Z</time>
      </trkpt>
      <trkpt lat="38.178914" lon="-2.560667">
        <ele>921.4</ele>
        <time>2022-01-16T16:24:29Z</time>
      </trkpt>
      <trkpt lat="38.178909" lon="-2.560664">
        <ele>951.7</ele>
        <time>2022-02-13T09:20:44Z</time>
      </trkpt>
      <trkpt lat="38.178917" lon="-2.560618">
        <ele>950.8</ele>
        <time>2022-02-13T09:21:01Z</time>
      </trkpt>
      <trkpt lat="38.178926" lon="-2.560481">
        <ele>944.6</ele>
        <time>2022-02-13T09:21:37Z</time>
      </trkpt>
      <trkpt lat="38.178944" lon="-2.560413">
        <ele>942.7</ele>
        <time>2022-02-13T09:22:31Z</time>
      </trkpt>
      <trkpt lat="38.178968" lon="-2.560322">
        <ele>946.7</ele>
        <time>2022-02-13T09:22:46Z</time>
      </trkpt>
      <trkpt lat="38.179214" lon="-2.560247">
        <ele>951.4</ele>
        <time>2022-02-13T09:23:11Z</time>
      </trkpt>
      <trkpt lat="38.179384" lon="-2.560348">
        <ele>953.5</ele>
        <time>2022-02-13T09:23:32Z</time>
      </trkpt>
      <trkpt lat="38.179563" lon="-2.560398">
        <ele>952.7</ele>
        <time>2022-02-13T09:23:51Z</time>
      </trkpt>
      <trkpt lat="38.179744" lon="-2.560366">
        <ele>950.7</ele>
        <time>2022-02-13T09:24:25Z</time>
      </trkpt>
      <trkpt lat="38.179916" lon="-2.560436">
        <ele>947.7</ele>
        <time>2022-02-13T09:24:47Z</time>
      </trkpt>
      <trkpt lat="38.180093" lon="-2.560473">
        <ele>951.6</ele>
        <time>2022-02-13T09:25:12Z</time>
      </trkpt>
      <trkpt lat="38.180279" lon="-2.560493">
        <ele>949.7</ele>
        <time>2022-02-13T09:25:27Z</time>
      </trkpt>
      <trkpt lat="38.180441" lon="-2.560608">
        <ele>955.7</ele>
        <time>2022-02-13T09:25:35Z</time>
      </trkpt>
      <trkpt lat="38.180624" lon="-2.560622">
        <ele>958.7</ele>
        <time>2022-02-13T09:25:48Z</time>
      </trkpt>
      <trkpt lat="38.180802" lon="-2.560657">
        <ele>957.8</ele>
        <time>2022-02-13T09:26:05Z</time>
      </trkpt>
      <trkpt lat="38.180945" lon="-2.560816">
        <ele>962.4</ele>
        <time>2022-02-13T09:26:19Z</time>
      </trkpt>
      <trkpt lat="38.181103" lon="-2.560942">
        <ele>964.7</ele>
        <time>2022-02-13T09:26:37Z</time>
      </trkpt>
      <trkpt lat="38.181267" lon="-2.561053">
        <ele>963.7</ele>
        <time>2022-02-13T09:26:52Z</time>
      </trkpt>
      <trkpt lat="38.181422" lon="-2.561176">
        <ele>966.8</ele>
        <time>2022-02-13T09:27:06Z</time>
      </trkpt>
      <trkpt lat="38.181604" lon="-2.561163">
        <ele>968.7</ele>
        <time>2022-02-13T09:27:24Z</time>
      </trkpt>
      <trkpt lat="38.181781" lon="-2.561107">
        <ele>971.0</ele>
        <time>2022-02-13T09:27:36Z</time>
      </trkpt>
      <trkpt lat="38.181950" lon="-2.561012">
        <ele>973.0</ele>
        <time>2022-02-13T09:27:51Z</time>
      </trkpt>
      <trkpt lat="38.182106" lon="-2.560891">
        <ele>972.7</ele>
        <time>2022-02-13T09:28:05Z</time>
      </trkpt>
      <trkpt lat="38.182273" lon="-2.560789">
        <ele>975.7</ele>
        <time>2022-02-13T09:28:19Z</time>
      </trkpt>
      <trkpt lat="38.182455" lon="-2.560770">
        <ele>976.7</ele>
        <time>2022-02-13T09:28:35Z</time>
      </trkpt>
      <trkpt lat="38.182633" lon="-2.560708">
        <ele>977.7</ele>
        <time>2022-02-13T09:28:53Z</time>
      </trkpt>
      <trkpt lat="38.182782" lon="-2.560570">
        <ele>981.7</ele>
        <time>2022-02-13T09:29:08Z</time>
      </trkpt>
      <trkpt lat="38.182761" lon="-2.560336">
        <ele>984.0</ele>
        <time>2022-02-13T09:29:54Z</time>
      </trkpt>
      <trkpt lat="38.182765" lon="-2.560101">
        <ele>984.7</ele>
        <time>2022-02-13T09:30:10Z</time>
      </trkpt>
      <trkpt lat="38.182800" lon="-2.559865">
        <ele>984.7</ele>
        <time>2022-02-13T09:30:25Z</time>
      </trkpt>
      <trkpt lat="38.182864" lon="-2.559637">
        <ele>988.7</ele>
        <time>2022-02-13T09:30:36Z</time>
      </trkpt>
      <trkpt lat="38.182943" lon="-2.559424">
        <ele>987.7</ele>
        <time>2022-02-13T09:30:50Z</time>
      </trkpt>
      <trkpt lat="38.182853" lon="-2.559216">
        <ele>989.7</ele>
        <time>2022-02-13T09:31:02Z</time>
      </trkpt>
      <trkpt lat="38.182722" lon="-2.559054">
        <ele>988.0</ele>
        <time>2022-02-13T09:31:18Z</time>
      </trkpt>
      <trkpt lat="38.182552" lon="-2.558980">
        <ele>984.7</ele>
        <time>2022-02-13T09:31:56Z</time>
      </trkpt>
      <trkpt lat="38.182446" lon="-2.558790">
        <ele>987.7</ele>
        <time>2022-02-13T09:32:48Z</time>
      </trkpt>
      <trkpt lat="38.182371" lon="-2.558576">
        <ele>986.7</ele>
        <time>2022-02-13T09:33:32Z</time>
      </trkpt>
      <trkpt lat="38.182215" lon="-2.558461">
        <ele>986.7</ele>
        <time>2022-02-13T09:33:45Z</time>
      </trkpt>
      <trkpt lat="38.182151" lon="-2.558236">
        <ele>988.7</ele>
        <time>2022-02-13T09:33:58Z</time>
      </trkpt>
      <trkpt lat="38.182201" lon="-2.558014">
        <ele>989.6</ele>
        <time>2022-02-13T09:34:14Z</time>
      </trkpt>
      <trkpt lat="38.182055" lon="-2.557860">
        <ele>990.7</ele>
        <time>2022-02-13T09:34:42Z</time>
      </trkpt>
      <trkpt lat="38.181900" lon="-2.557982">
        <ele>996.4</ele>
        <time>2022-02-13T09:36:05Z</time>
      </trkpt>
      <trkpt lat="38.182086" lon="-2.557931">
        <ele>998.7</ele>
        <time>2022-02-13T09:36:22Z</time>
      </trkpt>
      <trkpt lat="38.182266" lon="-2.557916">
        <ele>992.7</ele>
        <time>2022-02-13T09:36:41Z</time>
      </trkpt>
      <trkpt lat="38.182446" lon="-2.557872">
        <ele>992.7</ele>
        <time>2022-02-13T09:36:58Z</time>
      </trkpt>
      <trkpt lat="38.182594" lon="-2.558004">
        <ele>990.7</ele>
        <time>2022-02-13T09:37:15Z</time>
      </trkpt>
      <trkpt lat="38.182728" lon="-2.558165">
        <ele>995.0</ele>
        <time>2022-02-13T09:37:32Z</time>
      </trkpt>
      <trkpt lat="38.182861" lon="-2.558331">
        <ele>1000.7</ele>
        <time>2022-02-13T09:37:55Z</time>
      </trkpt>
      <trkpt lat="38.183033" lon="-2.558433">
        <ele>1005.7</ele>
        <time>2022-02-13T09:38:11Z</time>
      </trkpt>
      <trkpt lat="38.183109" lon="-2.558216">
        <ele>1012.7</ele>
        <time>2022-02-13T09:38:40Z</time>
      </trkpt>
      <trkpt lat="38.183140" lon="-2.557979">
        <ele>1015.7</ele>
        <time>2022-02-13T09:39:01Z</time>
      </trkpt>
      <trkpt lat="38.183120" lon="-2.557744">
        <ele>1014.7</ele>
        <time>2022-02-13T09:39:19Z</time>
      </trkpt>
      <trkpt lat="38.183110" lon="-2.557512">
        <ele>1015.7</ele>
        <time>2022-02-13T09:39:38Z</time>
      </trkpt>
      <trkpt lat="38.182984" lon="-2.557348">
        <ele>1021.8</ele>
        <time>2022-02-13T09:40:28Z</time>
      </trkpt>
      <trkpt lat="38.182994" lon="-2.557115">
        <ele>1033.7</ele>
        <time>2022-02-13T09:41:34Z</time>
      </trkpt>
      <trkpt lat="38.182933" lon="-2.556895">
        <ele>1038.4</ele>
        <time>2022-02-13T09:42:01Z</time>
      </trkpt>
      <trkpt lat="38.183024" lon="-2.556688">
        <ele>1038.6</ele>
        <time>2022-02-13T09:42:16Z</time>
      </trkpt>
      <trkpt lat="38.182848" lon="-2.556747">
        <ele>1039.7</ele>
        <time>2022-02-13T09:43:00Z</time>
      </trkpt>
      <trkpt lat="38.182696" lon="-2.556621">
        <ele>1041.4</ele>
        <time>2022-02-13T09:43:22Z</time>
      </trkpt>
      <trkpt lat="38.182558" lon="-2.556475">
        <ele>1046.4</ele>
        <time>2022-02-13T09:43:58Z</time>
      </trkpt>
      <trkpt lat="38.182375" lon="-2.556461">
        <ele>1046.7</ele>
        <time>2022-02-13T09:44:16Z</time>
      </trkpt>
      <trkpt lat="38.182326" lon="-2.556234">
        <ele>1059.4</ele>
        <time>2022-02-13T09:46:54Z</time>
      </trkpt>
      <trkpt lat="38.182487" lon="-2.556106">
        <ele>1065.7</ele>
        <time>2022-02-13T09:47:19Z</time>
      </trkpt>
      <trkpt lat="38.182345" lon="-2.555960">
        <ele>1074.8</ele>
        <time>2022-02-13T09:48:13Z</time>
      </trkpt>
      <trkpt lat="38.182169" lon="-2.555905">
        <ele>1078.7</ele>
        <time>2022-02-13T09:48:38Z</time>
      </trkpt>
      <trkpt lat="38.182066" lon="-2.555711">
        <ele>1084.7</ele>
        <time>2022-02-13T09:49:26Z</time>
      </trkpt>
      <trkpt lat="38.182229" lon="-2.555610">
        <ele>1097.1</ele>
        <time>2022-02-13T09:51:30Z</time>
      </trkpt>
      <trkpt lat="38.182059" lon="-2.555523">
        <ele>1098.8</ele>
        <time>2022-02-13T09:52:13Z</time>
      </trkpt>
      <trkpt lat="38.181910" lon="-2.555375">
        <ele>1106.6</ele>
        <time>2022-02-13T09:52:40Z</time>
      </trkpt>
      <trkpt lat="38.182094" lon="-2.555365">
        <ele>1113.7</ele>
        <time>2022-02-13T09:53:06Z</time>
      </trkpt>
      <trkpt lat="38.182279" lon="-2.555362">
        <ele>1114.7</ele>
        <time>2022-02-13T09:53:26Z</time>
      </trkpt>
      <trkpt lat="38.182456" lon="-2.555427">
        <ele>1118.7</ele>
        <time>2022-02-13T09:53:50Z</time>
      </trkpt>
      <trkpt lat="38.182638" lon="-2.555401">
        <ele>1123.8</ele>
        <time>2022-02-13T09:54:12Z</time>
      </trkpt>
      <trkpt lat="38.182653" lon="-2.555171">
        <ele>1123.6</ele>
        <time>2022-02-13T09:55:14Z</time>
      </trkpt>
      <trkpt lat="38.182724" lon="-2.554956">
        <ele>1136.4</ele>
        <time>2022-02-13T09:55:41Z</time>
      </trkpt>
      <trkpt lat="38.182549" lon="-2.555042">
        <ele>1131.7</ele>
        <time>2022-02-13T09:56:12Z</time>
      </trkpt>
      <trkpt lat="38.182402" lon="-2.554902">
        <ele>1140.7</ele>
        <time>2022-02-13T09:57:19Z</time>
      </trkpt>
      <trkpt lat="38.182527" lon="-2.554730">
        <ele>1146.6</ele>
        <time>2022-02-13T09:57:43Z</time>
      </trkpt>
      <trkpt lat="38.182632" lon="-2.554542">
        <ele>1154.7</ele>
        <time>2022-02-13T09:58:17Z</time>
      </trkpt>
      <trkpt lat="38.182746" lon="-2.554359">
        <ele>1158.6</ele>
        <time>2022-02-13T09:58:45Z</time>
      </trkpt>
      <trkpt lat="38.182849" lon="-2.554170">
        <ele>1166.7</ele>
        <time>2022-02-13T09:59:02Z</time>
      </trkpt>
      <trkpt lat="38.182995" lon="-2.554024">
        <ele>1170.7</ele>
        <time>2022-02-13T09:59:21Z</time>
      </trkpt>
      <trkpt lat="38.183126" lon="-2.553860">
        <ele>1169.5</ele>
        <time>2022-02-13T09:59:50Z</time>
      </trkpt>
      <trkpt lat="38.183269" lon="-2.553720">
        <ele>1172.7</ele>
        <time>2022-02-13T10:00:15Z</time>
      </trkpt>
      <trkpt lat="38.183422" lon="-2.553592">
        <ele>1172.7</ele>
        <time>2022-02-13T10:00:32Z</time>
      </trkpt>
      <trkpt lat="38.183581" lon="-2.553476">
        <ele>1176.7</ele>
        <time>2022-02-13T10:00:55Z</time>
      </trkpt>
      <trkpt lat="38.183440" lon="-2.553313">
        <ele>1185.9</ele>
        <time>2022-02-13T10:04:10Z</time>
      </trkpt>
      <trkpt lat="38.183259" lon="-2.553315">
        <ele>1182.7</ele>
        <time>2022-02-13T10:04:28Z</time>
      </trkpt>
      <trkpt lat="38.183081" lon="-2.553370">
        <ele>1180.8</ele>
        <time>2022-02-13T10:04:46Z</time>
      </trkpt>
      <trkpt lat="38.182897" lon="-2.553436">
        <ele>1181.7</ele>
        <time>2022-02-13T10:05:06Z</time>
      </trkpt>
      <trkpt lat="38.182731" lon="-2.553547">
        <ele>1184.7</ele>
        <time>2022-02-13T10:05:18Z</time>
      </trkpt>
      <trkpt lat="38.182839" lon="-2.553359">
        <ele>1193.6</ele>
        <time>2022-02-13T10:05:48Z</time>
      </trkpt>
      <trkpt lat="38.182952" lon="-2.553164">
        <ele>1195.7</ele>
        <time>2022-02-13T10:06:03Z</time>
      </trkpt>
      <trkpt lat="38.182774" lon="-2.553204">
        <ele>1201.7</ele>
        <time>2022-02-13T10:06:53Z</time>
      </trkpt>
      <trkpt lat="38.182609" lon="-2.553296">
        <ele>1204.4</ele>
        <time>2022-02-13T10:07:07Z</time>
      </trkpt>
      <trkpt lat="38.182443" lon="-2.553396">
        <ele>1207.7</ele>
        <time>2022-02-13T10:07:28Z</time>
      </trkpt>
      <trkpt lat="38.182272" lon="-2.553505">
        <ele>1209.7</ele>
        <time>2022-02-13T10:07:42Z</time>
      </trkpt>
      <trkpt lat="38.182096" lon="-2.553571">
        <ele>1213.7</ele>
        <time>2022-02-13T10:07:58Z</time>
      </trkpt>
      <trkpt lat="38.182114" lon="-2.553338">
        <ele>1219.7</ele>
        <time>2022-02-13T10:08:44Z</time>
      </trkpt>
      <trkpt lat="38.182226" lon="-2.553153">
        <ele>1229.3</ele>
        <time>2022-02-13T10:09:03Z</time>
      </trkpt>
      <trkpt lat="38.182355" lon="-2.552991">
        <ele>1227.7</ele>
        <time>2022-02-13T10:09:44Z</time>
      </trkpt>
      <trkpt lat="38.182492" lon="-2.552837">
        <ele>1233.6</ele>
        <time>2022-02-13T10:10:37Z</time>
      </trkpt>
      <trkpt lat="38.182307" lon="-2.552895">
        <ele>1233.1</ele>
        <time>2022-02-13T10:11:09Z</time>
      </trkpt>
      <trkpt lat="38.182133" lon="-2.552978">
        <ele>1233.8</ele>
        <time>2022-02-13T10:11:32Z</time>
      </trkpt>
      <trkpt lat="38.182217" lon="-2.552773">
        <ele>1252.7</ele>
        <time>2022-02-13T10:12:26Z</time>
      </trkpt>
      <trkpt lat="38.182327" lon="-2.552586">
        <ele>1257.7</ele>
        <time>2022-02-13T10:12:42Z</time>
      </trkpt>
      <trkpt lat="38.182439" lon="-2.552401">
        <ele>1261.7</ele>
        <time>2022-02-13T10:13:03Z</time>
      </trkpt>
      <trkpt lat="38.182259" lon="-2.552432">
        <ele>1257.6</ele>
        <time>2022-02-13T10:14:42Z</time>
      </trkpt>
      <trkpt lat="38.182084" lon="-2.552510">
        <ele>1260.7</ele>
        <time>2022-02-13T10:15:38Z</time>
      </trkpt>
      <trkpt lat="38.181912" lon="-2.552583">
        <ele>1260.7</ele>
        <time>2022-02-13T10:15:58Z</time>
      </trkpt>
      <trkpt lat="38.181734" lon="-2.552619">
        <ele>1262.6</ele>
        <time>2022-02-13T10:16:23Z</time>
      </trkpt>
      <trkpt lat="38.181553" lon="-2.552637">
        <ele>1269.6</ele>
        <time>2022-02-13T10:16:58Z</time>
      </trkpt>
      <trkpt lat="38.181378" lon="-2.552583">
        <ele>1272.6</ele>
        <time>2022-02-13T10:17:23Z</time>
      </trkpt>
      <trkpt lat="38.181196" lon="-2.552554">
        <ele>1272.7</ele>
        <time>2022-02-13T10:17:52Z</time>
      </trkpt>
      <trkpt lat="38.181015" lon="-2.552551">
        <ele>1272.8</ele>
        <time>2022-02-13T10:18:26Z</time>
      </trkpt>
      <trkpt lat="38.180834" lon="-2.552516">
        <ele>1276.4</ele>
        <time>2022-02-13T10:18:54Z</time>
      </trkpt>
      <trkpt lat="38.180653" lon="-2.552559">
        <ele>1284.8</ele>
        <time>2022-02-13T10:19:21Z</time>
      </trkpt>
      <trkpt lat="38.180475" lon="-2.552604">
        <ele>1285.7</ele>
        <time>2022-02-13T10:19:53Z</time>
      </trkpt>
      <trkpt lat="38.180313" lon="-2.552703">
        <ele>1288.6</ele>
        <time>2022-02-13T10:20:19Z</time>
      </trkpt>
      <trkpt lat="38.180145" lon="-2.552796">
        <ele>1296.4</ele>
        <time>2022-02-13T10:21:08Z</time>
      </trkpt>
      <trkpt lat="38.179968" lon="-2.552849">
        <ele>1295.7</ele>
        <time>2022-02-13T10:21:37Z</time>
      </trkpt>
      <trkpt lat="38.179812" lon="-2.552968">
        <ele>1299.7</ele>
        <time>2022-02-13T10:22:13Z</time>
      </trkpt>
      <trkpt lat="38.179676" lon="-2.553131">
        <ele>1305.7</ele>
        <time>2022-02-13T10:23:02Z</time>
      </trkpt>
      <trkpt lat="38.179558" lon="-2.553306">
        <ele>1311.7</ele>
        <time>2022-02-13T10:23:36Z</time>
      </trkpt>
      <trkpt lat="38.179430" lon="-2.553468">
        <ele>1314.6</ele>
        <time>2022-02-13T10:23:56Z</time>
      </trkpt>
      <trkpt lat="38.179375" lon="-2.553691">
        <ele>1314.7</ele>
        <time>2022-02-13T10:24:21Z</time>
      </trkpt>
      <trkpt lat="38.179333" lon="-2.553916">
        <ele>1318.0</ele>
        <time>2022-02-13T10:24:49Z</time>
      </trkpt>
      <trkpt lat="38.179355" lon="-2.553690">
        <ele>1314.7</ele>
        <time>2022-02-13T10:27:21Z</time>
      </trkpt>
      <trkpt lat="38.179316" lon="-2.553461">
        <ele>1318.7</ele>
        <time>2022-02-13T10:27:43Z</time>
      </trkpt>
      <trkpt lat="38.179340" lon="-2.553233">
        <ele>1324.7</ele>
        <time>2022-02-13T10:28:05Z</time>
      </trkpt>
      <trkpt lat="38.179446" lon="-2.553035">
        <ele>1328.6</ele>
        <time>2022-02-13T10:28:22Z</time>
      </trkpt>
      <trkpt lat="38.179516" lon="-2.552819">
        <ele>1328.7</ele>
        <time>2022-02-13T10:28:45Z</time>
      </trkpt>
      <trkpt lat="38.179607" lon="-2.552619">
        <ele>1333.4</ele>
        <time>2022-02-13T10:29:07Z</time>
      </trkpt>
      <trkpt lat="38.179730" lon="-2.552440">
        <ele>1333.7</ele>
        <time>2022-02-13T10:29:31Z</time>
      </trkpt>
      <trkpt lat="38.179898" lon="-2.552357">
        <ele>1333.7</ele>
        <time>2022-02-13T10:29:48Z</time>
      </trkpt>
      <trkpt lat="38.180036" lon="-2.552201">
        <ele>1338.4</ele>
        <time>2022-02-13T10:30:08Z</time>
      </trkpt>
      <trkpt lat="38.180208" lon="-2.552124">
        <ele>1334.7</ele>
        <time>2022-02-13T10:31:11Z</time>
      </trkpt>
      <trkpt lat="38.180337" lon="-2.551959">
        <ele>1331.0</ele>
        <time>2022-02-13T10:31:40Z</time>
      </trkpt>
      <trkpt lat="38.180518" lon="-2.551896">
        <ele>1330.7</ele>
        <time>2022-02-13T10:31:58Z</time>
      </trkpt>
      <trkpt lat="38.180696" lon="-2.551841">
        <ele>1337.6</ele>
        <time>2022-02-13T10:32:19Z</time>
      </trkpt>
      <trkpt lat="38.180878" lon="-2.551819">
        <ele>1335.7</ele>
        <time>2022-02-13T10:32:35Z</time>
      </trkpt>
      <trkpt lat="38.181063" lon="-2.551823">
        <ele>1338.3</ele>
        <time>2022-02-13T10:32:56Z</time>
      </trkpt>
      <trkpt lat="38.181243" lon="-2.551834">
        <ele>1338.6</ele>
        <time>2022-02-13T10:33:12Z</time>
      </trkpt>
      <trkpt lat="38.181420" lon="-2.551783">
        <ele>1340.7</ele>
        <time>2022-02-13T10:33:33Z</time>
      </trkpt>
      <trkpt lat="38.181586" lon="-2.551684">
        <ele>1339.0</ele>
        <time>2022-02-13T10:33:55Z</time>
      </trkpt>
      <trkpt lat="38.181745" lon="-2.551563">
        <ele>1339.7</ele>
        <time>2022-02-13T10:34:12Z</time>
      </trkpt>
      <trkpt lat="38.181882" lon="-2.551403">
        <ele>1337.7</ele>
        <time>2022-02-13T10:34:30Z</time>
      </trkpt>
      <trkpt lat="38.182002" lon="-2.551227">
        <ele>1338.7</ele>
        <time>2022-02-13T10:34:44Z</time>
      </trkpt>
      <trkpt lat="38.182151" lon="-2.551096">
        <ele>1335.7</ele>
        <time>2022-02-13T10:35:02Z</time>
      </trkpt>
      <trkpt lat="38.182286" lon="-2.550937">
        <ele>1338.4</ele>
        <time>2022-02-13T10:35:21Z</time>
      </trkpt>
      <trkpt lat="38.182421" lon="-2.550786">
        <ele>1333.7</ele>
        <time>2022-02-13T10:35:42Z</time>
      </trkpt>
      <trkpt lat="38.182542" lon="-2.550613">
        <ele>1333.7</ele>
        <time>2022-02-13T10:35:58Z</time>
      </trkpt>
      <trkpt lat="38.182695" lon="-2.550490">
        <ele>1332.7</ele>
        <time>2022-02-13T10:36:17Z</time>
      </trkpt>
      <trkpt lat="38.182797" lon="-2.550295">
        <ele>1331.7</ele>
        <time>2022-02-13T10:36:32Z</time>
      </trkpt>
      <trkpt lat="38.182937" lon="-2.550149">
        <ele>1332.4</ele>
        <time>2022-02-13T10:36:48Z</time>
      </trkpt>
      <trkpt lat="38.183074" lon="-2.550001">
        <ele>1331.7</ele>
        <time>2022-02-13T10:37:08Z</time>
      </trkpt>
      <trkpt lat="38.183104" lon="-2.549775">
        <ele>1331.8</ele>
        <time>2022-02-13T10:37:28Z</time>
      </trkpt>
      <trkpt lat="38.183072" lon="-2.549548">
        <ele>1332.7</ele>
        <time>2022-02-13T10:37:49Z</time>
      </trkpt>
      <trkpt lat="38.183000" lon="-2.549324">
        <ele>1330.7</ele>
        <time>2022-02-13T10:38:19Z</time>
      </trkpt>
      <trkpt lat="38.182980" lon="-2.549082">
        <ele>1335.3</ele>
        <time>2022-02-13T10:38:44Z</time>
      </trkpt>
      <trkpt lat="38.183016" lon="-2.548856">
        <ele>1332.7</ele>
        <time>2022-02-13T10:39:26Z</time>
      </trkpt>
      <trkpt lat="38.182996" lon="-2.548626">
        <ele>1332.7</ele>
        <time>2022-02-13T10:39:49Z</time>
      </trkpt>
      <trkpt lat="38.182951" lon="-2.548404">
        <ele>1338.6</ele>
        <time>2022-02-13T10:40:11Z</time>
      </trkpt>
      <trkpt lat="38.182958" lon="-2.548171">
        <ele>1348.1</ele>
        <time>2022-02-13T10:40:40Z</time>
      </trkpt>
      <trkpt lat="38.182907" lon="-2.547947">
        <ele>1348.7</ele>
        <time>2022-02-13T10:41:19Z</time>
      </trkpt>
      <trkpt lat="38.182852" lon="-2.547723">
        <ele>1351.0</ele>
        <time>2022-02-13T10:41:42Z</time>
      </trkpt>
      <trkpt lat="38.182756" lon="-2.547526">
        <ele>1355.7</ele>
        <time>2022-02-13T10:42:02Z</time>
      </trkpt>
      <trkpt lat="38.182660" lon="-2.547328">
        <ele>1360.4</ele>
        <time>2022-02-13T10:42:31Z</time>
      </trkpt>
      <trkpt lat="38.182620" lon="-2.547098">
        <ele>1368.7</ele>
        <time>2022-02-13T10:42:56Z</time>
      </trkpt>
      <trkpt lat="38.182582" lon="-2.546871">
        <ele>1367.7</ele>
        <time>2022-02-13T10:43:56Z</time>
      </trkpt>
      <trkpt lat="38.182612" lon="-2.546644">
        <ele>1366.7</ele>
        <time>2022-02-13T10:44:18Z</time>
      </trkpt>
      <trkpt lat="38.182634" lon="-2.546415">
        <ele>1367.7</ele>
        <time>2022-02-13T10:44:42Z</time>
      </trkpt>
      <trkpt lat="38.182582" lon="-2.546189">
        <ele>1373.6</ele>
        <time>2022-02-13T10:45:03Z</time>
      </trkpt>
      <trkpt lat="38.182486" lon="-2.545991">
        <ele>1377.7</ele>
        <time>2022-02-13T10:45:30Z</time>
      </trkpt>
      <trkpt lat="38.182468" lon="-2.545753">
        <ele>1381.7</ele>
        <time>2022-02-13T10:45:55Z</time>
      </trkpt>
      <trkpt lat="38.182556" lon="-2.545536">
        <ele>1375.7</ele>
        <time>2022-02-13T10:46:32Z</time>
      </trkpt>
      <trkpt lat="38.182659" lon="-2.545343">
        <ele>1377.6</ele>
        <time>2022-02-13T10:46:45Z</time>
      </trkpt>
      <trkpt lat="38.182720" lon="-2.545120">
        <ele>1384.7</ele>
        <time>2022-02-13T10:47:06Z</time>
      </trkpt>
      <trkpt lat="38.182796" lon="-2.544907">
        <ele>1382.7</ele>
        <time>2022-02-13T10:47:39Z</time>
      </trkpt>
      <trkpt lat="38.182889" lon="-2.544706">
        <ele>1388.7</ele>
        <time>2022-02-13T10:48:08Z</time>
      </trkpt>
      <trkpt lat="38.182951" lon="-2.544491">
        <ele>1390.7</ele>
        <time>2022-02-13T10:48:41Z</time>
      </trkpt>
      <trkpt lat="38.182947" lon="-2.544240">
        <ele>1375.4</ele>
        <time>2022-02-13T10:49:14Z</time>
      </trkpt>
      <trkpt lat="38.183020" lon="-2.544029">
        <ele>1409.7</ele>
        <time>2022-02-13T10:50:06Z</time>
      </trkpt>
      <trkpt lat="38.183020" lon="-2.543794">
        <ele>1404.6</ele>
        <time>2022-02-13T10:50:30Z</time>
      </trkpt>
      <trkpt lat="38.183064" lon="-2.543571">
        <ele>1406.7</ele>
        <time>2022-02-13T10:50:48Z</time>
      </trkpt>
      <trkpt lat="38.183131" lon="-2.543356">
        <ele>1406.7</ele>
        <time>2022-02-13T10:51:07Z</time>
      </trkpt>
      <trkpt lat="38.183231" lon="-2.543162">
        <ele>1403.7</ele>
        <time>2022-02-13T10:51:33Z</time>
      </trkpt>
      <trkpt lat="38.183277" lon="-2.542938">
        <ele>1413.7</ele>
        <time>2022-02-13T10:52:02Z</time>
      </trkpt>
      <trkpt lat="38.183407" lon="-2.542777">
        <ele>1415.7</ele>
        <time>2022-02-13T10:52:43Z</time>
      </trkpt>
      <trkpt lat="38.183413" lon="-2.542531">
        <ele>1418.6</ele>
        <time>2022-02-13T10:53:04Z</time>
      </trkpt>
      <trkpt lat="38.183490" lon="-2.542324">
        <ele>1414.7</ele>
        <time>2022-02-13T10:53:31Z</time>
      </trkpt>
      <trkpt lat="38.183612" lon="-2.542151">
        <ele>1416.7</ele>
        <time>2022-02-13T10:53:59Z</time>
      </trkpt>
      <trkpt lat="38.183768" lon="-2.542035">
        <ele>1419.7</ele>
        <time>2022-02-13T10:54:25Z</time>
      </trkpt>
      <trkpt lat="38.183913" lon="-2.541898">
        <ele>1425.0</ele>
        <time>2022-02-13T10:54:52Z</time>
      </trkpt>
      <trkpt lat="38.184070" lon="-2.541780">
        <ele>1423.7</ele>
        <time>2022-02-13T10:55:26Z</time>
      </trkpt>
      <trkpt lat="38.184194" lon="-2.541614">
        <ele>1424.7</ele>
        <time>2022-02-13T10:55:48Z</time>
      </trkpt>
      <trkpt lat="38.184291" lon="-2.541421">
        <ele>1425.7</ele>
        <time>2022-02-13T10:56:10Z</time>
      </trkpt>
      <trkpt lat="38.184413" lon="-2.541248">
        <ele>1429.7</ele>
        <time>2022-02-13T10:56:49Z</time>
      </trkpt>
      <trkpt lat="38.184514" lon="-2.541056">
        <ele>1430.7</ele>
        <time>2022-02-13T10:57:17Z</time>
      </trkpt>
      <trkpt lat="38.184684" lon="-2.540975">
        <ele>1431.7</ele>
        <time>2022-02-13T10:57:33Z</time>
      </trkpt>
      <trkpt lat="38.184864" lon="-2.540883">
        <ele>1428.7</ele>
        <time>2022-02-13T10:57:52Z</time>
      </trkpt>
      <trkpt lat="38.185008" lon="-2.540739">
        <ele>1432.7</ele>
        <time>2022-02-13T10:58:09Z</time>
      </trkpt>
      <trkpt lat="38.185089" lon="-2.540527">
        <ele>1433.7</ele>
        <time>2022-02-13T10:58:36Z</time>
      </trkpt>
      <trkpt lat="38.185180" lon="-2.540328">
        <ele>1436.7</ele>
        <time>2022-02-13T10:59:08Z</time>
      </trkpt>
      <trkpt lat="38.185346" lon="-2.540229">
        <ele>1432.6</ele>
        <time>2022-02-13T11:00:15Z</time>
      </trkpt>
      <trkpt lat="38.185518" lon="-2.540156">
        <ele>1432.7</ele>
        <time>2022-02-13T11:00:33Z</time>
      </trkpt>
      <trkpt lat="38.185510" lon="-2.539912">
        <ele>1435.7</ele>
        <time>2022-02-13T11:01:17Z</time>
      </trkpt>
      <trkpt lat="38.185670" lon="-2.539800">
        <ele>1438.7</ele>
        <time>2022-02-13T11:01:38Z</time>
      </trkpt>
      <trkpt lat="38.185802" lon="-2.539636">
        <ele>1441.7</ele>
        <time>2022-02-13T11:02:07Z</time>
      </trkpt>
      <trkpt lat="38.185954" lon="-2.539510">
        <ele>1442.7</ele>
        <time>2022-02-13T11:02:36Z</time>
      </trkpt>
      <trkpt lat="38.186112" lon="-2.539392">
        <ele>1448.7</ele>
        <time>2022-02-13T11:02:59Z</time>
      </trkpt>
      <trkpt lat="38.186228" lon="-2.539217">
        <ele>1452.7</ele>
        <time>2022-02-13T11:03:27Z</time>
      </trkpt>
      <trkpt lat="38.186322" lon="-2.539015">
        <ele>1450.7</ele>
        <time>2022-02-13T11:04:12Z</time>
      </trkpt>
      <trkpt lat="38.186444" lon="-2.538845">
        <ele>1454.7</ele>
        <time>2022-02-13T11:05:12Z</time>
      </trkpt>
      <trkpt lat="38.186501" lon="-2.538627">
        <ele>1454.7</ele>
        <time>2022-02-13T11:06:56Z</time>
      </trkpt>
      <trkpt lat="38.186544" lon="-2.538390">
        <ele>1450.8</ele>
        <time>2022-02-13T11:07:26Z</time>
      </trkpt>
      <trkpt lat="38.186662" lon="-2.538211">
        <ele>1447.7</ele>
        <time>2022-02-13T11:07:42Z</time>
      </trkpt>
      <trkpt lat="38.186686" lon="-2.537977">
        <ele>1445.7</ele>
        <time>2022-02-13T11:08:08Z</time>
      </trkpt>
      <trkpt lat="38.186791" lon="-2.537785">
        <ele>1446.1</ele>
        <time>2022-02-13T11:09:10Z</time>
      </trkpt>
      <trkpt lat="38.186916" lon="-2.537602">
        <ele>1446.0</ele>
        <time>2022-02-13T11:09:30Z</time>
      </trkpt>
      <trkpt lat="38.187038" lon="-2.537414">
        <ele>1443.7</ele>
        <time>2022-02-13T11:09:44Z</time>
      </trkpt>
      <trkpt lat="38.187164" lon="-2.537245">
        <ele>1443.6</ele>
        <time>2022-02-13T11:09:57Z</time>
      </trkpt>
      <trkpt lat="38.187275" lon="-2.537065">
        <ele>1446.6</ele>
        <time>2022-02-13T11:10:08Z</time>
      </trkpt>
      <trkpt lat="38.187450" lon="-2.536983">
        <ele>1445.7</ele>
        <time>2022-02-13T11:10:43Z</time>
      </trkpt>
      <trkpt lat="38.187267" lon="-2.537009">
        <ele>1450.7</ele>
        <time>2022-02-13T11:39:07Z</time>
      </trkpt>
      <trkpt lat="38.187113" lon="-2.536880">
        <ele>1450.6</ele>
        <time>2022-02-13T11:39:24Z</time>
      </trkpt>
      <trkpt lat="38.186934" lon="-2.536852">
        <ele>1445.8</ele>
        <time>2022-02-13T11:39:38Z</time>
      </trkpt>
      <trkpt lat="38.186763" lon="-2.536761">
        <ele>1445.7</ele>
        <time>2022-02-13T11:39:54Z</time>
      </trkpt>
      <trkpt lat="38.186607" lon="-2.536632">
        <ele>1443.7</ele>
        <time>2022-02-13T11:40:10Z</time>
      </trkpt>
      <trkpt lat="38.186480" lon="-2.536466">
        <ele>1443.7</ele>
        <time>2022-02-13T11:40:26Z</time>
      </trkpt>
      <trkpt lat="38.186373" lon="-2.536280">
        <ele>1444.6</ele>
        <time>2022-02-13T11:40:42Z</time>
      </trkpt>
      <trkpt lat="38.186248" lon="-2.536113">
        <ele>1445.7</ele>
        <time>2022-02-13T11:40:57Z</time>
      </trkpt>
      <trkpt lat="38.186116" lon="-2.535948">
        <ele>1443.4</ele>
        <time>2022-02-13T11:41:11Z</time>
      </trkpt>
      <trkpt lat="38.186011" lon="-2.535762">
        <ele>1443.7</ele>
        <time>2022-02-13T11:41:25Z</time>
      </trkpt>
      <trkpt lat="38.185950" lon="-2.535540">
        <ele>1443.7</ele>
        <time>2022-02-13T11:41:38Z</time>
      </trkpt>
      <trkpt lat="38.185852" lon="-2.535340">
        <ele>1446.6</ele>
        <time>2022-02-13T11:41:53Z</time>
      </trkpt>
      <trkpt lat="38.185749" lon="-2.535151">
        <ele>1445.0</ele>
        <time>2022-02-13T11:42:08Z</time>
      </trkpt>
      <trkpt lat="38.185689" lon="-2.534925">
        <ele>1443.7</ele>
        <time>2022-02-13T11:42:25Z</time>
      </trkpt>
      <trkpt lat="38.185615" lon="-2.534710">
        <ele>1443.7</ele>
        <time>2022-02-13T11:42:45Z</time>
      </trkpt>
      <trkpt lat="38.185542" lon="-2.534498">
        <ele>1446.4</ele>
        <time>2022-02-13T11:42:59Z</time>
      </trkpt>
      <trkpt lat="38.185546" lon="-2.534269">
        <ele>1447.0</ele>
        <time>2022-02-13T11:43:15Z</time>
      </trkpt>
      <trkpt lat="38.185486" lon="-2.534053">
        <ele>1446.0</ele>
        <time>2022-02-13T11:43:32Z</time>
      </trkpt>
      <trkpt lat="38.185451" lon="-2.533822">
        <ele>1449.7</ele>
        <time>2022-02-13T11:43:48Z</time>
      </trkpt>
      <trkpt lat="38.185426" lon="-2.533585">
        <ele>1454.7</ele>
        <time>2022-02-13T11:44:06Z</time>
      </trkpt>
      <trkpt lat="38.185368" lon="-2.533368">
        <ele>1460.4</ele>
        <time>2022-02-13T11:44:24Z</time>
      </trkpt>
      <trkpt lat="38.185351" lon="-2.533136">
        <ele>1467.7</ele>
        <time>2022-02-13T11:44:41Z</time>
      </trkpt>
      <trkpt lat="38.185330" lon="-2.532904">
        <ele>1468.8</ele>
        <time>2022-02-13T11:44:59Z</time>
      </trkpt>
      <trkpt lat="38.185253" lon="-2.532680">
        <ele>1465.7</ele>
        <time>2022-02-13T11:45:14Z</time>
      </trkpt>
      <trkpt lat="38.185263" lon="-2.532451">
        <ele>1466.7</ele>
        <time>2022-02-13T11:45:34Z</time>
      </trkpt>
      <trkpt lat="38.185301" lon="-2.532226">
        <ele>1468.7</ele>
        <time>2022-02-13T11:45:51Z</time>
      </trkpt>
      <trkpt lat="38.185279" lon="-2.531991">
        <ele>1470.7</ele>
        <time>2022-02-13T11:46:10Z</time>
      </trkpt>
      <trkpt lat="38.185307" lon="-2.531759">
        <ele>1466.8</ele>
        <time>2022-02-13T11:46:27Z</time>
      </trkpt>
      <trkpt lat="38.185369" lon="-2.531527">
        <ele>1467.7</ele>
        <time>2022-02-13T11:46:46Z</time>
      </trkpt>
      <trkpt lat="38.185402" lon="-2.531300">
        <ele>1467.5</ele>
        <time>2022-02-13T11:47:07Z</time>
      </trkpt>
      <trkpt lat="38.185451" lon="-2.531077">
        <ele>1465.7</ele>
        <time>2022-02-13T11:47:26Z</time>
      </trkpt>
      <trkpt lat="38.185539" lon="-2.530870">
        <ele>1464.7</ele>
        <time>2022-02-13T11:47:54Z</time>
      </trkpt>
      <trkpt lat="38.185577" lon="-2.530644">
        <ele>1465.4</ele>
        <time>2022-02-13T11:48:14Z</time>
      </trkpt>
      <trkpt lat="38.185566" lon="-2.530416">
        <ele>1470.7</ele>
        <time>2022-02-13T11:48:57Z</time>
      </trkpt>
      <trkpt lat="38.185749" lon="-2.530360">
        <ele>1469.7</ele>
        <time>2022-02-13T11:51:32Z</time>
      </trkpt>
      <trkpt lat="38.185897" lon="-2.530220">
        <ele>1468.7</ele>
        <time>2022-02-13T11:52:18Z</time>
      </trkpt>
      <trkpt lat="38.186027" lon="-2.530054">
        <ele>1465.8</ele>
        <time>2022-02-13T11:52:39Z</time>
      </trkpt>
      <trkpt lat="38.186176" lon="-2.529913">
        <ele>1466.7</ele>
        <time>2022-02-13T11:52:58Z</time>
      </trkpt>
      <trkpt lat="38.186331" lon="-2.529793">
        <ele>1462.7</ele>
        <time>2022-02-13T11:53:21Z</time>
      </trkpt>
      <trkpt lat="38.186471" lon="-2.529643">
        <ele>1462.6</ele>
        <time>2022-02-13T11:53:42Z</time>
      </trkpt>
      <trkpt lat="38.186604" lon="-2.529481">
        <ele>1462.7</ele>
        <time>2022-02-13T11:54:03Z</time>
      </trkpt>
      <trkpt lat="38.186739" lon="-2.529330">
        <ele>1458.7</ele>
        <time>2022-02-13T11:54:30Z</time>
      </trkpt>
      <trkpt lat="38.186896" lon="-2.529207">
        <ele>1455.7</ele>
        <time>2022-02-13T11:54:47Z</time>
      </trkpt>
      <trkpt lat="38.187044" lon="-2.529077">
        <ele>1456.7</ele>
        <time>2022-02-13T11:55:07Z</time>
      </trkpt>
      <trkpt lat="38.187173" lon="-2.528909">
        <ele>1456.0</ele>
        <time>2022-02-13T11:55:26Z</time>
      </trkpt>
      <trkpt lat="38.187325" lon="-2.528780">
        <ele>1456.7</ele>
        <time>2022-02-13T11:55:48Z</time>
      </trkpt>
      <trkpt lat="38.187477" lon="-2.528655">
        <ele>1452.7</ele>
        <time>2022-02-13T11:56:43Z</time>
      </trkpt>
      <trkpt lat="38.187579" lon="-2.528459">
        <ele>1446.7</ele>
        <time>2022-02-13T11:57:01Z</time>
      </trkpt>
      <trkpt lat="38.187725" lon="-2.528321">
        <ele>1447.0</ele>
        <time>2022-02-13T11:57:17Z</time>
      </trkpt>
      <trkpt lat="38.187872" lon="-2.528179">
        <ele>1445.7</ele>
        <time>2022-02-13T11:57:33Z</time>
      </trkpt>
      <trkpt lat="38.187996" lon="-2.528003">
        <ele>1442.7</ele>
        <time>2022-02-13T11:57:48Z</time>
      </trkpt>
      <trkpt lat="38.188147" lon="-2.527870">
        <ele>1442.7</ele>
        <time>2022-02-13T11:58:06Z</time>
      </trkpt>
      <trkpt lat="38.188321" lon="-2.527783">
        <ele>1442.7</ele>
        <time>2022-02-13T11:58:22Z</time>
      </trkpt>
      <trkpt lat="38.188447" lon="-2.527618">
        <ele>1439.7</ele>
        <time>2022-02-13T11:58:37Z</time>
      </trkpt>
      <trkpt lat="38.188594" lon="-2.527475">
        <ele>1441.7</ele>
        <time>2022-02-13T11:58:51Z</time>
      </trkpt>
      <trkpt lat="38.188727" lon="-2.527318">
        <ele>1441.6</ele>
        <time>2022-02-13T11:59:10Z</time>
      </trkpt>
      <trkpt lat="38.188857" lon="-2.527158">
        <ele>1441.7</ele>
        <time>2022-02-13T11:59:31Z</time>
      </trkpt>
      <trkpt lat="38.189024" lon="-2.527050">
        <ele>1440.7</ele>
        <time>2022-02-13T11:59:46Z</time>
      </trkpt>
      <trkpt lat="38.189189" lon="-2.526930">
        <ele>1441.7</ele>
        <time>2022-02-13T12:00:03Z</time>
      </trkpt>
      <trkpt lat="38.189353" lon="-2.526834">
        <ele>1440.0</ele>
        <time>2022-02-13T12:00:21Z</time>
      </trkpt>
      <trkpt lat="38.189525" lon="-2.526764">
        <ele>1440.7</ele>
        <time>2022-02-13T12:00:38Z</time>
      </trkpt>
      <trkpt lat="38.189698" lon="-2.526687">
        <ele>1438.7</ele>
        <time>2022-02-13T12:00:59Z</time>
      </trkpt>
      <trkpt lat="38.189858" lon="-2.526581">
        <ele>1435.7</ele>
        <time>2022-02-13T12:01:20Z</time>
      </trkpt>
      <trkpt lat="38.190025" lon="-2.526485">
        <ele>1430.7</ele>
        <time>2022-02-13T12:01:37Z</time>
      </trkpt>
      <trkpt lat="38.190203" lon="-2.526438">
        <ele>1426.7</ele>
        <time>2022-02-13T12:01:57Z</time>
      </trkpt>
      <trkpt lat="38.190380" lon="-2.526369">
        <ele>1427.6</ele>
        <time>2022-02-13T12:02:13Z</time>
      </trkpt>
      <trkpt lat="38.190555" lon="-2.526299">
        <ele>1425.7</ele>
        <time>2022-02-13T12:02:31Z</time>
      </trkpt>
      <trkpt lat="38.190735" lon="-2.526224">
        <ele>1425.0</ele>
        <time>2022-02-13T12:02:49Z</time>
      </trkpt>
      <trkpt lat="38.190909" lon="-2.526144">
        <ele>1423.7</ele>
        <time>2022-02-13T12:03:07Z</time>
      </trkpt>
      <trkpt lat="38.191076" lon="-2.526035">
        <ele>1421.7</ele>
        <time>2022-02-13T12:03:21Z</time>
      </trkpt>
      <trkpt lat="38.191237" lon="-2.525927">
        <ele>1420.7</ele>
        <time>2022-02-13T12:03:37Z</time>
      </trkpt>
      <trkpt lat="38.191413" lon="-2.525835">
        <ele>1419.8</ele>
        <time>2022-02-13T12:03:53Z</time>
      </trkpt>
      <trkpt lat="38.191566" lon="-2.525703">
        <ele>1415.7</ele>
        <time>2022-02-13T12:04:15Z</time>
      </trkpt>
      <trkpt lat="38.191730" lon="-2.525593">
        <ele>1414.7</ele>
        <time>2022-02-13T12:04:28Z</time>
      </trkpt>
      <trkpt lat="38.191896" lon="-2.525484">
        <ele>1414.7</ele>
        <time>2022-02-13T12:04:45Z</time>
      </trkpt>
      <trkpt lat="38.192068" lon="-2.525401">
        <ele>1414.7</ele>
        <time>2022-02-13T12:05:01Z</time>
      </trkpt>
      <trkpt lat="38.192247" lon="-2.525316">
        <ele>1417.7</ele>
        <time>2022-02-13T12:05:21Z</time>
      </trkpt>
      <trkpt lat="38.192423" lon="-2.525228">
        <ele>1417.0</ele>
        <time>2022-02-13T12:05:42Z</time>
      </trkpt>
      <trkpt lat="38.192604" lon="-2.525202">
        <ele>1415.8</ele>
        <time>2022-02-13T12:05:58Z</time>
      </trkpt>
      <trkpt lat="38.192785" lon="-2.525202">
        <ele>1412.7</ele>
        <time>2022-02-13T12:06:15Z</time>
      </trkpt>
      <trkpt lat="38.192959" lon="-2.525137">
        <ele>1406.8</ele>
        <time>2022-02-13T12:06:29Z</time>
      </trkpt>
      <trkpt lat="38.193141" lon="-2.525112">
        <ele>1401.9</ele>
        <time>2022-02-13T12:06:45Z</time>
      </trkpt>
      <trkpt lat="38.193328" lon="-2.525072">
        <ele>1399.7</ele>
        <time>2022-02-13T12:06:59Z</time>
      </trkpt>
      <trkpt lat="38.193512" lon="-2.525070">
        <ele>1403.7</ele>
        <time>2022-02-13T12:07:22Z</time>
      </trkpt>
      <trkpt lat="38.193689" lon="-2.525117">
        <ele>1412.7</ele>
        <time>2022-02-13T12:08:12Z</time>
      </trkpt>
      <trkpt lat="38.193872" lon="-2.525122">
        <ele>1412.8</ele>
        <time>2022-02-13T12:08:31Z</time>
      </trkpt>
      <trkpt lat="38.194053" lon="-2.525107">
        <ele>1412.7</ele>
        <time>2022-02-13T12:08:52Z</time>
      </trkpt>
      <trkpt lat="38.194225" lon="-2.525034">
        <ele>1404.1</ele>
        <time>2022-02-13T12:09:10Z</time>
      </trkpt>
      <trkpt lat="38.194403" lon="-2.525105">
        <ele>1397.7</ele>
        <time>2022-02-13T12:09:24Z</time>
      </trkpt>
      <trkpt lat="38.194572" lon="-2.525203">
        <ele>1406.0</ele>
        <time>2022-02-13T12:09:59Z</time>
      </trkpt>
      <trkpt lat="38.194742" lon="-2.525331">
        <ele>1412.3</ele>
        <time>2022-02-13T12:11:10Z</time>
      </trkpt>
      <trkpt lat="38.194899" lon="-2.525452">
        <ele>1405.8</ele>
        <time>2022-02-13T12:11:32Z</time>
      </trkpt>
      <trkpt lat="38.195087" lon="-2.525487">
        <ele>1400.8</ele>
        <time>2022-02-13T12:11:54Z</time>
      </trkpt>
      <trkpt lat="38.195267" lon="-2.525532">
        <ele>1396.8</ele>
        <time>2022-02-13T12:12:12Z</time>
      </trkpt>
      <trkpt lat="38.195452" lon="-2.525534">
        <ele>1393.7</ele>
        <time>2022-02-13T12:12:28Z</time>
      </trkpt>
      <trkpt lat="38.195633" lon="-2.525538">
        <ele>1392.5</ele>
        <time>2022-02-13T12:12:45Z</time>
      </trkpt>
      <trkpt lat="38.195813" lon="-2.525566">
        <ele>1385.4</ele>
        <time>2022-02-13T12:13:07Z</time>
      </trkpt>
      <trkpt lat="38.195996" lon="-2.525552">
        <ele>1390.6</ele>
        <time>2022-02-13T12:13:29Z</time>
      </trkpt>
      <trkpt lat="38.196178" lon="-2.525529">
        <ele>1392.9</ele>
        <time>2022-02-13T12:13:48Z</time>
      </trkpt>
      <trkpt lat="38.196357" lon="-2.525485">
        <ele>1398.6</ele>
        <time>2022-02-13T12:14:12Z</time>
      </trkpt>
      <trkpt lat="38.196538" lon="-2.525445">
        <ele>1398.4</ele>
        <time>2022-02-13T12:14:32Z</time>
      </trkpt>
      <trkpt lat="38.196724" lon="-2.525451">
        <ele>1399.0</ele>
        <time>2022-02-13T12:14:50Z</time>
      </trkpt>
      <trkpt lat="38.196908" lon="-2.525412">
        <ele>1398.7</ele>
        <time>2022-02-13T12:15:06Z</time>
      </trkpt>
      <trkpt lat="38.197083" lon="-2.525352">
        <ele>1397.7</ele>
        <time>2022-02-13T12:15:23Z</time>
      </trkpt>
      <trkpt lat="38.197250" lon="-2.525262">
        <ele>1394.7</ele>
        <time>2022-02-13T12:15:37Z</time>
      </trkpt>
      <trkpt lat="38.197418" lon="-2.525181">
        <ele>1393.0</ele>
        <time>2022-02-13T12:15:53Z</time>
      </trkpt>
      <trkpt lat="38.197584" lon="-2.525088">
        <ele>1393.7</ele>
        <time>2022-02-13T12:16:10Z</time>
      </trkpt>
      <trkpt lat="38.197751" lon="-2.524989">
        <ele>1391.7</ele>
        <time>2022-02-13T12:16:25Z</time>
      </trkpt>
      <trkpt lat="38.197923" lon="-2.524898">
        <ele>1386.0</ele>
        <time>2022-02-13T12:16:44Z</time>
      </trkpt>
      <trkpt lat="38.198092" lon="-2.524791">
        <ele>1386.7</ele>
        <time>2022-02-13T12:16:58Z</time>
      </trkpt>
      <trkpt lat="38.198225" lon="-2.524635">
        <ele>1389.7</ele>
        <time>2022-02-13T12:17:11Z</time>
      </trkpt>
      <trkpt lat="38.198284" lon="-2.524416">
        <ele>1391.7</ele>
        <time>2022-02-13T12:17:29Z</time>
      </trkpt>
      <trkpt lat="38.198371" lon="-2.524208">
        <ele>1398.4</ele>
        <time>2022-02-13T12:17:45Z</time>
      </trkpt>
      <trkpt lat="38.198434" lon="-2.523993">
        <ele>1402.6</ele>
        <time>2022-02-13T12:17:57Z</time>
      </trkpt>
      <trkpt lat="38.198511" lon="-2.523778">
        <ele>1405.7</ele>
        <time>2022-02-13T12:18:13Z</time>
      </trkpt>
      <trkpt lat="38.198586" lon="-2.523569">
        <ele>1408.7</ele>
        <time>2022-02-13T12:18:29Z</time>
      </trkpt>
      <trkpt lat="38.198678" lon="-2.523362">
        <ele>1407.7</ele>
        <time>2022-02-13T12:18:46Z</time>
      </trkpt>
      <trkpt lat="38.198787" lon="-2.523172">
        <ele>1408.7</ele>
        <time>2022-02-13T12:19:06Z</time>
      </trkpt>
      <trkpt lat="38.198876" lon="-2.522955">
        <ele>1410.7</ele>
        <time>2022-02-13T12:19:21Z</time>
      </trkpt>
      <trkpt lat="38.198990" lon="-2.522767">
        <ele>1409.8</ele>
        <time>2022-02-13T12:19:37Z</time>
      </trkpt>
      <trkpt lat="38.199093" lon="-2.522573">
        <ele>1411.7</ele>
        <time>2022-02-13T12:19:58Z</time>
      </trkpt>
      <trkpt lat="38.199151" lon="-2.522350">
        <ele>1416.7</ele>
        <time>2022-02-13T12:20:24Z</time>
      </trkpt>
      <trkpt lat="38.199230" lon="-2.522143">
        <ele>1415.7</ele>
        <time>2022-02-13T12:20:53Z</time>
      </trkpt>
      <trkpt lat="38.199375" lon="-2.521989">
        <ele>1416.7</ele>
        <time>2022-02-13T12:22:11Z</time>
      </trkpt>
      <trkpt lat="38.199519" lon="-2.521841">
        <ele>1413.8</ele>
        <time>2022-02-13T12:22:33Z</time>
      </trkpt>
      <trkpt lat="38.199666" lon="-2.521711">
        <ele>1413.7</ele>
        <time>2022-02-13T12:23:14Z</time>
      </trkpt>
      <trkpt lat="38.199795" lon="-2.521550">
        <ele>1408.7</ele>
        <time>2022-02-13T12:23:39Z</time>
      </trkpt>
      <trkpt lat="38.199958" lon="-2.521442">
        <ele>1408.7</ele>
        <time>2022-02-13T12:23:59Z</time>
      </trkpt>
      <trkpt lat="38.200111" lon="-2.521320">
        <ele>1410.7</ele>
        <time>2022-02-13T12:24:13Z</time>
      </trkpt>
      <trkpt lat="38.200223" lon="-2.521136">
        <ele>1413.7</ele>
        <time>2022-02-13T12:24:29Z</time>
      </trkpt>
      <trkpt lat="38.200202" lon="-2.520904">
        <ele>1417.7</ele>
        <time>2022-02-13T12:24:47Z</time>
      </trkpt>
      <trkpt lat="38.200134" lon="-2.520682">
        <ele>1417.0</ele>
        <time>2022-02-13T12:25:04Z</time>
      </trkpt>
      <trkpt lat="38.200041" lon="-2.520487">
        <ele>1415.8</ele>
        <time>2022-02-13T12:25:21Z</time>
      </trkpt>
      <trkpt lat="38.199963" lon="-2.520277">
        <ele>1415.7</ele>
        <time>2022-02-13T12:25:37Z</time>
      </trkpt>
      <trkpt lat="38.199953" lon="-2.520045">
        <ele>1413.7</ele>
        <time>2022-02-13T12:25:54Z</time>
      </trkpt>
      <trkpt lat="38.199976" lon="-2.519804">
        <ele>1414.7</ele>
        <time>2022-02-13T12:26:06Z</time>
      </trkpt>
      <trkpt lat="38.200020" lon="-2.519581">
        <ele>1415.4</ele>
        <time>2022-02-13T12:26:23Z</time>
      </trkpt>
      <trkpt lat="38.200097" lon="-2.519369">
        <ele>1414.0</ele>
        <time>2022-02-13T12:26:38Z</time>
      </trkpt>
      <trkpt lat="38.200105" lon="-2.519140">
        <ele>1414.7</ele>
        <time>2022-02-13T12:26:52Z</time>
      </trkpt>
      <trkpt lat="38.200077" lon="-2.518910">
        <ele>1413.8</ele>
        <time>2022-02-13T12:27:09Z</time>
      </trkpt>
      <trkpt lat="38.200068" lon="-2.518679">
        <ele>1410.7</ele>
        <time>2022-02-13T12:27:29Z</time>
      </trkpt>
      <trkpt lat="38.200010" lon="-2.518454">
        <ele>1410.7</ele>
        <time>2022-02-13T12:27:50Z</time>
      </trkpt>
      <trkpt lat="38.199932" lon="-2.518241">
        <ele>1413.4</ele>
        <time>2022-02-13T12:28:07Z</time>
      </trkpt>
      <trkpt lat="38.199849" lon="-2.518034">
        <ele>1416.7</ele>
        <time>2022-02-13T12:28:30Z</time>
      </trkpt>
      <trkpt lat="38.199829" lon="-2.517803">
        <ele>1415.7</ele>
        <time>2022-02-13T12:28:49Z</time>
      </trkpt>
      <trkpt lat="38.199794" lon="-2.517571">
        <ele>1417.7</ele>
        <time>2022-02-13T12:29:13Z</time>
      </trkpt>
      <trkpt lat="38.199707" lon="-2.517367">
        <ele>1420.7</ele>
        <time>2022-02-13T12:29:30Z</time>
      </trkpt>
      <trkpt lat="38.199650" lon="-2.517149">
        <ele>1416.7</ele>
        <time>2022-02-13T12:29:52Z</time>
      </trkpt>
      <trkpt lat="38.199629" lon="-2.516921">
        <ele>1417.7</ele>
        <time>2022-02-13T12:30:13Z</time>
      </trkpt>
      <trkpt lat="38.199526" lon="-2.516724">
        <ele>1417.0</ele>
        <time>2022-02-13T12:30:32Z</time>
      </trkpt>
      <trkpt lat="38.199524" lon="-2.516490">
        <ele>1419.7</ele>
        <time>2022-02-13T12:30:51Z</time>
      </trkpt>
      <trkpt lat="38.199638" lon="-2.516298">
        <ele>1415.8</ele>
        <time>2022-02-13T12:31:04Z</time>
      </trkpt>
      <trkpt lat="38.199769" lon="-2.516138">
        <ele>1413.7</ele>
        <time>2022-02-13T12:31:17Z</time>
      </trkpt>
      <trkpt lat="38.199862" lon="-2.515936">
        <ele>1415.7</ele>
        <time>2022-02-13T12:31:37Z</time>
      </trkpt>
      <trkpt lat="38.199943" lon="-2.515727">
        <ele>1415.7</ele>
        <time>2022-02-13T12:31:54Z</time>
      </trkpt>
      <trkpt lat="38.199963" lon="-2.515498">
        <ele>1414.7</ele>
        <time>2022-02-13T12:32:17Z</time>
      </trkpt>
      <trkpt lat="38.199893" lon="-2.515287">
        <ele>1420.7</ele>
        <time>2022-02-13T12:32:36Z</time>
      </trkpt>
      <trkpt lat="38.199783" lon="-2.515094">
        <ele>1424.7</ele>
        <time>2022-02-13T12:32:53Z</time>
      </trkpt>
      <trkpt lat="38.199747" lon="-2.514863">
        <ele>1422.7</ele>
        <time>2022-02-13T12:33:11Z</time>
      </trkpt>
      <trkpt lat="38.199679" lon="-2.514649">
        <ele>1422.7</ele>
        <time>2022-02-13T12:33:34Z</time>
      </trkpt>
      <trkpt lat="38.199707" lon="-2.514421">
        <ele>1422.7</ele>
        <time>2022-02-13T12:34:00Z</time>
      </trkpt>
      <trkpt lat="38.199842" lon="-2.514263">
        <ele>1421.8</ele>
        <time>2022-02-13T12:34:22Z</time>
      </trkpt>
      <trkpt lat="38.199935" lon="-2.514061">
        <ele>1419.7</ele>
        <time>2022-02-13T12:34:36Z</time>
      </trkpt>
      <trkpt lat="38.200009" lon="-2.513840">
        <ele>1415.7</ele>
        <time>2022-02-13T12:34:52Z</time>
      </trkpt>
      <trkpt lat="38.200186" lon="-2.513793">
        <ele>1414.6</ele>
        <time>2022-02-13T12:35:12Z</time>
      </trkpt>
      <trkpt lat="38.200357" lon="-2.513720">
        <ele>1412.7</ele>
        <time>2022-02-13T12:35:31Z</time>
      </trkpt>
      <trkpt lat="38.200481" lon="-2.513546">
        <ele>1410.8</ele>
        <time>2022-02-13T12:35:52Z</time>
      </trkpt>
      <trkpt lat="38.200670" lon="-2.513540">
        <ele>1412.0</ele>
        <time>2022-02-13T12:36:11Z</time>
      </trkpt>
      <trkpt lat="38.200854" lon="-2.513546">
        <ele>1411.7</ele>
        <time>2022-02-13T12:36:37Z</time>
      </trkpt>
      <trkpt lat="38.201027" lon="-2.513633">
        <ele>1411.7</ele>
        <time>2022-02-13T12:37:11Z</time>
      </trkpt>
      <trkpt lat="38.201156" lon="-2.513809">
        <ele>1407.7</ele>
        <time>2022-02-13T12:39:02Z</time>
      </trkpt>
      <trkpt lat="38.201303" lon="-2.513662">
        <ele>1405.0</ele>
        <time>2022-02-13T12:39:19Z</time>
      </trkpt>
      <trkpt lat="38.201447" lon="-2.513523">
        <ele>1404.0</ele>
        <time>2022-02-13T12:39:35Z</time>
      </trkpt>
      <trkpt lat="38.201629" lon="-2.513457">
        <ele>1408.7</ele>
        <time>2022-02-13T12:39:49Z</time>
      </trkpt>
      <trkpt lat="38.201816" lon="-2.513446">
        <ele>1407.6</ele>
        <time>2022-02-13T12:40:04Z</time>
      </trkpt>
      <trkpt lat="38.201991" lon="-2.513387">
        <ele>1404.0</ele>
        <time>2022-02-13T12:40:18Z</time>
      </trkpt>
      <trkpt lat="38.202113" lon="-2.513215">
        <ele>1404.7</ele>
        <time>2022-02-13T12:40:32Z</time>
      </trkpt>
      <trkpt lat="38.202234" lon="-2.513035">
        <ele>1405.7</ele>
        <time>2022-02-13T12:40:43Z</time>
      </trkpt>
      <trkpt lat="38.202403" lon="-2.512945">
        <ele>1409.7</ele>
        <time>2022-02-13T12:41:03Z</time>
      </trkpt>
      <trkpt lat="38.202580" lon="-2.512985">
        <ele>1407.8</ele>
        <time>2022-02-13T12:41:16Z</time>
      </trkpt>
      <trkpt lat="38.202746" lon="-2.513102">
        <ele>1409.4</ele>
        <time>2022-02-13T12:41:30Z</time>
      </trkpt>
      <trkpt lat="38.202911" lon="-2.513199">
        <ele>1412.7</ele>
        <time>2022-02-13T12:41:45Z</time>
      </trkpt>
      <trkpt lat="38.203052" lon="-2.513367">
        <ele>1416.7</ele>
        <time>2022-02-13T12:41:59Z</time>
      </trkpt>
      <trkpt lat="38.203229" lon="-2.513442">
        <ele>1422.8</ele>
        <time>2022-02-13T12:42:30Z</time>
      </trkpt>
      <trkpt lat="38.203411" lon="-2.513480">
        <ele>1421.8</ele>
        <time>2022-02-13T12:42:57Z</time>
      </trkpt>
      <trkpt lat="38.203561" lon="-2.513607">
        <ele>1426.7</ele>
        <time>2022-02-13T12:43:17Z</time>
      </trkpt>
      <trkpt lat="38.203726" lon="-2.513715">
        <ele>1427.7</ele>
        <time>2022-02-13T12:43:40Z</time>
      </trkpt>
      <trkpt lat="38.203908" lon="-2.513690">
        <ele>1428.8</ele>
        <time>2022-02-13T12:44:00Z</time>
      </trkpt>
      <trkpt lat="38.204071" lon="-2.513590">
        <ele>1425.2</ele>
        <time>2022-02-13T12:44:16Z</time>
      </trkpt>
      <trkpt lat="38.204246" lon="-2.513507">
        <ele>1421.7</ele>
        <time>2022-02-13T12:44:31Z</time>
      </trkpt>
      <trkpt lat="38.204396" lon="-2.513355">
        <ele>1419.5</ele>
        <time>2022-02-13T12:44:50Z</time>
      </trkpt>
      <trkpt lat="38.204574" lon="-2.513390">
        <ele>1425.8</ele>
        <time>2022-02-13T12:45:20Z</time>
      </trkpt>
      <trkpt lat="38.204677" lon="-2.513586">
        <ele>1429.7</ele>
        <time>2022-02-13T12:46:05Z</time>
      </trkpt>
      <trkpt lat="38.204862" lon="-2.513559">
        <ele>1427.9</ele>
        <time>2022-02-13T12:47:50Z</time>
      </trkpt>
      <trkpt lat="38.205048" lon="-2.513533">
        <ele>1434.7</ele>
        <time>2022-02-13T12:48:16Z</time>
      </trkpt>
      <trkpt lat="38.205193" lon="-2.513675">
        <ele>1439.4</ele>
        <time>2022-02-13T12:48:44Z</time>
      </trkpt>
      <trkpt lat="38.205326" lon="-2.513832">
        <ele>1442.4</ele>
        <time>2022-02-13T12:49:14Z</time>
      </trkpt>
      <trkpt lat="38.205348" lon="-2.514064">
        <ele>1447.4</ele>
        <time>2022-02-13T12:49:32Z</time>
      </trkpt>
      <trkpt lat="38.205379" lon="-2.514290">
        <ele>1452.6</ele>
        <time>2022-02-13T12:50:03Z</time>
      </trkpt>
      <trkpt lat="38.205472" lon="-2.514500">
        <ele>1461.7</ele>
        <time>2022-02-13T12:51:24Z</time>
      </trkpt>
      <trkpt lat="38.205476" lon="-2.514734">
        <ele>1463.8</ele>
        <time>2022-02-13T12:51:49Z</time>
      </trkpt>
      <trkpt lat="38.205505" lon="-2.514828">
        <ele>1457.8</ele>
        <time>2022-02-13T12:52:42Z</time>
      </trkpt>
      <trkpt lat="38.205498" lon="-2.514922">
        <ele>1454.8</ele>
        <time>2022-02-13T12:53:24Z</time>
      </trkpt>
      <trkpt lat="38.205357" lon="-2.515291">
        <ele>1454.7</ele>
        <time>2022-02-13T12:53:43Z</time>
      </trkpt>
      <trkpt lat="38.205330" lon="-2.515504">
        <ele>1463.8</ele>
        <time>2022-02-13T12:54:16Z</time>
      </trkpt>
      <trkpt lat="38.205381" lon="-2.515273">
        <ele>1455.8</ele>
        <time>2022-02-13T12:59:56Z</time>
      </trkpt>
      <trkpt lat="38.205519" lon="-2.514940">
        <ele>1452.7</ele>
        <time>2022-02-13T13:00:33Z</time>
      </trkpt>
      <trkpt lat="38.205554" lon="-2.514873">
        <ele>1456.8</ele>
        <time>2022-02-13T13:01:21Z</time>
      </trkpt>
      <trkpt lat="38.205592" lon="-2.514848">
        <ele>1456.8</ele>
        <time>2022-02-13T13:02:03Z</time>
      </trkpt>
      <trkpt lat="38.205637" lon="-2.514830">
        <ele>1462.4</ele>
        <time>2022-02-13T13:02:31Z</time>
      </trkpt>
      <trkpt lat="38.205663" lon="-2.514774">
        <ele>1466.1</ele>
        <time>2022-02-13T13:03:37Z</time>
      </trkpt>
      <trkpt lat="38.205723" lon="-2.514727">
        <ele>1462.8</ele>
        <time>2022-02-13T13:04:03Z</time>
      </trkpt>
      <trkpt lat="38.205823" lon="-2.514642">
        <ele>1459.8</ele>
        <time>2022-02-13T13:04:25Z</time>
      </trkpt>
      <trkpt lat="38.205870" lon="-2.514611">
        <ele>1457.8</ele>
        <time>2022-02-13T13:04:59Z</time>
      </trkpt>
      <trkpt lat="38.205971" lon="-2.514412">
        <ele>1457.8</ele>
        <time>2022-02-13T13:05:23Z</time>
      </trkpt>
      <trkpt lat="38.206115" lon="-2.514248">
        <ele>1452.8</ele>
        <time>2022-02-13T13:05:51Z</time>
      </trkpt>
      <trkpt lat="38.206295" lon="-2.514240">
        <ele>1446.8</ele>
        <time>2022-02-13T13:06:43Z</time>
      </trkpt>
      <trkpt lat="38.206480" lon="-2.514209">
        <ele>1441.8</ele>
        <time>2022-02-13T13:08:15Z</time>
      </trkpt>
      <trkpt lat="38.206662" lon="-2.514144">
        <ele>1437.8</ele>
        <time>2022-02-13T13:08:30Z</time>
      </trkpt>
      <trkpt lat="38.206758" lon="-2.513937">
        <ele>1439.8</ele>
        <time>2022-02-13T13:08:49Z</time>
      </trkpt>
      <trkpt lat="38.206834" lon="-2.514146">
        <ele>1434.1</ele>
        <time>2022-02-13T13:09:16Z</time>
      </trkpt>
      <trkpt lat="38.206931" lon="-2.513950">
        <ele>1428.8</ele>
        <time>2022-02-13T13:09:55Z</time>
      </trkpt>
      <trkpt lat="38.207061" lon="-2.513783">
        <ele>1423.1</ele>
        <time>2022-02-13T13:10:16Z</time>
      </trkpt>
      <trkpt lat="38.207227" lon="-2.513870">
        <ele>1418.1</ele>
        <time>2022-02-13T13:11:12Z</time>
      </trkpt>
      <trkpt lat="38.207387" lon="-2.513754">
        <ele>1413.1</ele>
        <time>2022-02-13T13:11:26Z</time>
      </trkpt>
      <trkpt lat="38.207493" lon="-2.513568">
        <ele>1408.8</ele>
        <time>2022-02-13T13:11:45Z</time>
      </trkpt>
      <trkpt lat="38.207583" lon="-2.513360">
        <ele>1401.8</ele>
        <time>2022-02-13T13:12:03Z</time>
      </trkpt>
      <trkpt lat="38.207653" lon="-2.513135">
        <ele>1395.8</ele>
        <time>2022-02-13T13:12:23Z</time>
      </trkpt>
      <trkpt lat="38.207805" lon="-2.513007">
        <ele>1398.4</ele>
        <time>2022-02-13T13:12:44Z</time>
      </trkpt>
      <trkpt lat="38.207986" lon="-2.512951">
        <ele>1410.7</ele>
        <time>2022-02-13T13:14:32Z</time>
      </trkpt>
      <trkpt lat="38.208176" lon="-2.512888">
        <ele>1406.6</ele>
        <time>2022-02-13T13:14:51Z</time>
      </trkpt>
      <trkpt lat="38.208344" lon="-2.512803">
        <ele>1402.1</ele>
        <time>2022-02-13T13:15:08Z</time>
      </trkpt>
      <trkpt lat="38.208514" lon="-2.512700">
        <ele>1397.1</ele>
        <time>2022-02-13T13:15:21Z</time>
      </trkpt>
      <trkpt lat="38.208680" lon="-2.512799">
        <ele>1395.3</ele>
        <time>2022-02-13T13:15:58Z</time>
      </trkpt>
      <trkpt lat="38.208862" lon="-2.512795">
        <ele>1384.8</ele>
        <time>2022-02-13T13:17:08Z</time>
      </trkpt>
      <trkpt lat="38.208915" lon="-2.512562">
        <ele>1377.2</ele>
        <time>2022-02-13T13:17:29Z</time>
      </trkpt>
      <trkpt lat="38.209056" lon="-2.512414">
        <ele>1371.1</ele>
        <time>2022-02-13T13:18:00Z</time>
      </trkpt>
      <trkpt lat="38.209037" lon="-2.512176">
        <ele>1365.1</ele>
        <time>2022-02-13T13:18:22Z</time>
      </trkpt>
      <trkpt lat="38.209004" lon="-2.511949">
        <ele>1361.8</ele>
        <time>2022-02-13T13:18:41Z</time>
      </trkpt>
      <trkpt lat="38.208975" lon="-2.511720">
        <ele>1358.9</ele>
        <time>2022-02-13T13:18:57Z</time>
      </trkpt>
      <trkpt lat="38.208941" lon="-2.511495">
        <ele>1358.8</ele>
        <time>2022-02-13T13:19:13Z</time>
      </trkpt>
      <trkpt lat="38.208945" lon="-2.511253">
        <ele>1358.7</ele>
        <time>2022-02-13T13:19:36Z</time>
      </trkpt>
      <trkpt lat="38.208991" lon="-2.511024">
        <ele>1358.8</ele>
        <time>2022-02-13T13:19:56Z</time>
      </trkpt>
      <trkpt lat="38.209164" lon="-2.510942">
        <ele>1368.8</ele>
        <time>2022-02-13T13:20:15Z</time>
      </trkpt>
      <trkpt lat="38.209330" lon="-2.510847">
        <ele>1370.8</ele>
        <time>2022-02-13T13:20:34Z</time>
      </trkpt>
      <trkpt lat="38.209500" lon="-2.510743">
        <ele>1370.8</ele>
        <time>2022-02-13T13:20:49Z</time>
      </trkpt>
      <trkpt lat="38.209661" lon="-2.510641">
        <ele>1371.0</ele>
        <time>2022-02-13T13:21:07Z</time>
      </trkpt>
      <trkpt lat="38.209561" lon="-2.510836">
        <ele>1365.7</ele>
        <time>2022-02-13T13:21:29Z</time>
      </trkpt>
      <trkpt lat="38.209468" lon="-2.511047">
        <ele>1365.7</ele>
        <time>2022-02-13T13:21:45Z</time>
      </trkpt>
      <trkpt lat="38.209641" lon="-2.510983">
        <ele>1362.2</ele>
        <time>2022-02-13T13:22:12Z</time>
      </trkpt>
      <trkpt lat="38.209803" lon="-2.510875">
        <ele>1354.9</ele>
        <time>2022-02-13T13:22:25Z</time>
      </trkpt>
      <trkpt lat="38.209957" lon="-2.510744">
        <ele>1348.9</ele>
        <time>2022-02-13T13:22:41Z</time>
      </trkpt>
      <trkpt lat="38.210086" lon="-2.510577">
        <ele>1344.2</ele>
        <time>2022-02-13T13:22:57Z</time>
      </trkpt>
      <trkpt lat="38.210082" lon="-2.510343">
        <ele>1340.1</ele>
        <time>2022-02-13T13:23:14Z</time>
      </trkpt>
      <trkpt lat="38.210048" lon="-2.510098">
        <ele>1335.1</ele>
        <time>2022-02-13T13:23:29Z</time>
      </trkpt>
      <trkpt lat="38.210035" lon="-2.509868">
        <ele>1332.8</ele>
        <time>2022-02-13T13:23:43Z</time>
      </trkpt>
      <trkpt lat="38.210212" lon="-2.509935">
        <ele>1332.8</ele>
        <time>2022-02-13T13:24:25Z</time>
      </trkpt>
      <trkpt lat="38.210352" lon="-2.509781">
        <ele>1317.8</ele>
        <time>2022-02-13T13:25:08Z</time>
      </trkpt>
      <trkpt lat="38.210539" lon="-2.509729">
        <ele>1321.5</ele>
        <time>2022-02-13T13:26:24Z</time>
      </trkpt>
      <trkpt lat="38.210728" lon="-2.509712">
        <ele>1320.8</ele>
        <time>2022-02-13T13:26:36Z</time>
      </trkpt>
      <trkpt lat="38.210892" lon="-2.509614">
        <ele>1316.8</ele>
        <time>2022-02-13T13:26:51Z</time>
      </trkpt>
      <trkpt lat="38.211006" lon="-2.509430">
        <ele>1311.9</ele>
        <time>2022-02-13T13:27:06Z</time>
      </trkpt>
      <trkpt lat="38.211191" lon="-2.509449">
        <ele>1307.8</ele>
        <time>2022-02-13T13:27:21Z</time>
      </trkpt>
      <trkpt lat="38.211376" lon="-2.509502">
        <ele>1312.8</ele>
        <time>2022-02-13T13:27:33Z</time>
      </trkpt>
      <trkpt lat="38.211559" lon="-2.509474">
        <ele>1314.8</ele>
        <time>2022-02-13T13:27:47Z</time>
      </trkpt>
      <trkpt lat="38.211711" lon="-2.509347">
        <ele>1311.9</ele>
        <time>2022-02-13T13:28:05Z</time>
      </trkpt>
      <trkpt lat="38.211889" lon="-2.509290">
        <ele>1309.8</ele>
        <time>2022-02-13T13:28:20Z</time>
      </trkpt>
      <trkpt lat="38.212075" lon="-2.509242">
        <ele>1308.8</ele>
        <time>2022-02-13T13:28:33Z</time>
      </trkpt>
      <trkpt lat="38.212256" lon="-2.509187">
        <ele>1307.8</ele>
        <time>2022-02-13T13:28:45Z</time>
      </trkpt>
      <trkpt lat="38.212412" lon="-2.509311">
        <ele>1305.5</ele>
        <time>2022-02-13T13:28:56Z</time>
      </trkpt>
      <trkpt lat="38.212598" lon="-2.509370">
        <ele>1303.8</ele>
        <time>2022-02-13T13:29:11Z</time>
      </trkpt>
      <trkpt lat="38.212784" lon="-2.509377">
        <ele>1302.8</ele>
        <time>2022-02-13T13:29:27Z</time>
      </trkpt>
      <trkpt lat="38.212968" lon="-2.509335">
        <ele>1301.8</ele>
        <time>2022-02-13T13:29:40Z</time>
      </trkpt>
      <trkpt lat="38.213147" lon="-2.509304">
        <ele>1300.8</ele>
        <time>2022-02-13T13:29:53Z</time>
      </trkpt>
      <trkpt lat="38.213327" lon="-2.509350">
        <ele>1301.8</ele>
        <time>2022-02-13T13:30:37Z</time>
      </trkpt>
      <trkpt lat="38.213507" lon="-2.509377">
        <ele>1307.1</ele>
        <time>2022-02-13T13:31:55Z</time>
      </trkpt>
      <trkpt lat="38.213657" lon="-2.509219">
        <ele>1297.9</ele>
        <time>2022-02-13T13:32:10Z</time>
      </trkpt>
      <trkpt lat="38.213595" lon="-2.508993">
        <ele>1286.8</ele>
        <time>2022-02-13T13:32:30Z</time>
      </trkpt>
      <trkpt lat="38.213593" lon="-2.508747">
        <ele>1277.8</ele>
        <time>2022-02-13T13:32:50Z</time>
      </trkpt>
      <trkpt lat="38.213644" lon="-2.508516">
        <ele>1271.7</ele>
        <time>2022-02-13T13:33:05Z</time>
      </trkpt>
      <trkpt lat="38.213689" lon="-2.508290">
        <ele>1268.8</ele>
        <time>2022-02-13T13:33:19Z</time>
      </trkpt>
      <trkpt lat="38.213658" lon="-2.508063">
        <ele>1263.8</ele>
        <time>2022-02-13T13:33:36Z</time>
      </trkpt>
      <trkpt lat="38.213652" lon="-2.507816">
        <ele>1261.1</ele>
        <time>2022-02-13T13:33:52Z</time>
      </trkpt>
      <trkpt lat="38.213642" lon="-2.507582">
        <ele>1258.7</ele>
        <time>2022-02-13T13:34:09Z</time>
      </trkpt>
      <trkpt lat="38.213711" lon="-2.507343">
        <ele>1256.9</ele>
        <time>2022-02-13T13:34:23Z</time>
      </trkpt>
      <trkpt lat="38.213760" lon="-2.507107">
        <ele>1254.1</ele>
        <time>2022-02-13T13:34:38Z</time>
      </trkpt>
      <trkpt lat="38.213836" lon="-2.506899">
        <ele>1253.8</ele>
        <time>2022-02-13T13:34:52Z</time>
      </trkpt>
      <trkpt lat="38.213945" lon="-2.506696">
        <ele>1257.7</ele>
        <time>2022-02-13T13:35:04Z</time>
      </trkpt>
      <trkpt lat="38.214063" lon="-2.506520">
        <ele>1264.4</ele>
        <time>2022-02-13T13:35:15Z</time>
      </trkpt>
      <trkpt lat="38.214133" lon="-2.506301">
        <ele>1266.1</ele>
        <time>2022-02-13T13:35:28Z</time>
      </trkpt>
      <trkpt lat="38.214212" lon="-2.506075">
        <ele>1262.8</ele>
        <time>2022-02-13T13:35:41Z</time>
      </trkpt>
      <trkpt lat="38.214169" lon="-2.505846">
        <ele>1261.9</ele>
        <time>2022-02-13T13:35:57Z</time>
      </trkpt>
      <trkpt lat="38.214150" lon="-2.505606">
        <ele>1258.9</ele>
        <time>2022-02-13T13:36:11Z</time>
      </trkpt>
      <trkpt lat="38.214178" lon="-2.505367">
        <ele>1251.2</ele>
        <time>2022-02-13T13:36:26Z</time>
      </trkpt>
      <trkpt lat="38.214134" lon="-2.505144">
        <ele>1244.9</ele>
        <time>2022-02-13T13:36:44Z</time>
      </trkpt>
      <trkpt lat="38.214101" lon="-2.504913">
        <ele>1247.5</ele>
        <time>2022-02-13T13:37:21Z</time>
      </trkpt>
      <trkpt lat="38.214214" lon="-2.504731">
        <ele>1256.8</ele>
        <time>2022-02-13T13:37:58Z</time>
      </trkpt>
      <trkpt lat="38.214359" lon="-2.504587">
        <ele>1263.8</ele>
        <time>2022-02-13T13:38:29Z</time>
      </trkpt>
      <trkpt lat="38.214238" lon="-2.504409">
        <ele>1251.9</ele>
        <time>2022-02-13T13:39:09Z</time>
      </trkpt>
      <trkpt lat="38.214362" lon="-2.504233">
        <ele>1234.8</ele>
        <time>2022-02-13T13:40:16Z</time>
      </trkpt>
      <trkpt lat="38.214484" lon="-2.504056">
        <ele>1232.6</ele>
        <time>2022-02-13T13:40:55Z</time>
      </trkpt>
      <trkpt lat="38.214676" lon="-2.504056">
        <ele>1235.4</ele>
        <time>2022-02-13T13:41:18Z</time>
      </trkpt>
      <trkpt lat="38.214850" lon="-2.503970">
        <ele>1236.8</ele>
        <time>2022-02-13T13:41:41Z</time>
      </trkpt>
      <trkpt lat="38.215032" lon="-2.503912">
        <ele>1236.7</ele>
        <time>2022-02-13T13:41:59Z</time>
      </trkpt>
      <trkpt lat="38.215222" lon="-2.503908">
        <ele>1231.8</ele>
        <time>2022-02-13T13:42:20Z</time>
      </trkpt>
      <trkpt lat="38.215403" lon="-2.503870">
        <ele>1227.1</ele>
        <time>2022-02-13T13:42:42Z</time>
      </trkpt>
      <trkpt lat="38.215591" lon="-2.503820">
        <ele>1224.8</ele>
        <time>2022-02-13T13:42:59Z</time>
      </trkpt>
      <trkpt lat="38.215775" lon="-2.503855">
        <ele>1222.1</ele>
        <time>2022-02-13T13:43:20Z</time>
      </trkpt>
      <trkpt lat="38.215955" lon="-2.503899">
        <ele>1221.8</ele>
        <time>2022-02-13T13:43:40Z</time>
      </trkpt>
      <trkpt lat="38.216132" lon="-2.503960">
        <ele>1220.8</ele>
        <time>2022-02-13T13:43:57Z</time>
      </trkpt>
      <trkpt lat="38.216302" lon="-2.504065">
        <ele>1218.8</ele>
        <time>2022-02-13T13:44:12Z</time>
      </trkpt>
      <trkpt lat="38.216453" lon="-2.504204">
        <ele>1222.0</ele>
        <time>2022-02-13T13:44:26Z</time>
      </trkpt>
      <trkpt lat="38.216630" lon="-2.504244">
        <ele>1221.8</ele>
        <time>2022-02-13T13:44:46Z</time>
      </trkpt>
      <trkpt lat="38.216821" lon="-2.504282">
        <ele>1222.8</ele>
        <time>2022-02-13T13:45:02Z</time>
      </trkpt>
      <trkpt lat="38.217005" lon="-2.504301">
        <ele>1224.8</ele>
        <time>2022-02-13T13:45:19Z</time>
      </trkpt>
      <trkpt lat="38.217186" lon="-2.504276">
        <ele>1224.2</ele>
        <time>2022-02-13T13:45:36Z</time>
      </trkpt>
      <trkpt lat="38.217308" lon="-2.504107">
        <ele>1220.1</ele>
        <time>2022-02-13T13:46:11Z</time>
      </trkpt>
      <trkpt lat="38.217307" lon="-2.503871">
        <ele>1212.8</ele>
        <time>2022-02-13T13:46:33Z</time>
      </trkpt>
      <trkpt lat="38.217337" lon="-2.503638">
        <ele>1212.7</ele>
        <time>2022-02-13T13:46:53Z</time>
      </trkpt>
      <trkpt lat="38.217423" lon="-2.503430">
        <ele>1208.8</ele>
        <time>2022-02-13T13:47:09Z</time>
      </trkpt>
      <trkpt lat="38.217492" lon="-2.503212">
        <ele>1210.9</ele>
        <time>2022-02-13T13:47:26Z</time>
      </trkpt>
      <trkpt lat="38.217586" lon="-2.503013">
        <ele>1209.8</ele>
        <time>2022-02-13T13:47:44Z</time>
      </trkpt>
      <trkpt lat="38.217709" lon="-2.502829">
        <ele>1210.8</ele>
        <time>2022-02-13T13:48:01Z</time>
      </trkpt>
      <trkpt lat="38.217825" lon="-2.502653">
        <ele>1212.8</ele>
        <time>2022-02-13T13:48:18Z</time>
      </trkpt>
      <trkpt lat="38.217971" lon="-2.502506">
        <ele>1215.8</ele>
        <time>2022-02-13T13:48:35Z</time>
      </trkpt>
      <trkpt lat="38.218152" lon="-2.502449">
        <ele>1214.8</ele>
        <time>2022-02-13T13:48:50Z</time>
      </trkpt>
      <trkpt lat="38.218313" lon="-2.502335">
        <ele>1215.1</ele>
        <time>2022-02-13T13:49:08Z</time>
      </trkpt>
      <trkpt lat="38.218491" lon="-2.502284">
        <ele>1218.5</ele>
        <time>2022-02-13T13:49:23Z</time>
      </trkpt>
      <trkpt lat="38.218676" lon="-2.502198">
        <ele>1219.8</ele>
        <time>2022-02-13T13:49:40Z</time>
      </trkpt>
      <trkpt lat="38.218857" lon="-2.502197">
        <ele>1220.7</ele>
        <time>2022-02-13T13:49:54Z</time>
      </trkpt>
      <trkpt lat="38.219042" lon="-2.502259">
        <ele>1217.8</ele>
        <time>2022-02-13T13:50:12Z</time>
      </trkpt>
      <trkpt lat="38.219225" lon="-2.502209">
        <ele>1222.8</ele>
        <time>2022-02-13T13:50:26Z</time>
      </trkpt>
      <trkpt lat="38.219394" lon="-2.502103">
        <ele>1227.5</ele>
        <time>2022-02-13T13:50:44Z</time>
      </trkpt>
      <trkpt lat="38.219553" lon="-2.501992">
        <ele>1231.4</ele>
        <time>2022-02-13T13:50:58Z</time>
      </trkpt>
      <trkpt lat="38.219736" lon="-2.501977">
        <ele>1230.8</ele>
        <time>2022-02-13T13:51:17Z</time>
      </trkpt>
      <trkpt lat="38.219911" lon="-2.502060">
        <ele>1232.7</ele>
        <time>2022-02-13T13:51:33Z</time>
      </trkpt>
      <trkpt lat="38.220093" lon="-2.502119">
        <ele>1235.8</ele>
        <time>2022-02-13T13:51:51Z</time>
      </trkpt>
      <trkpt lat="38.220268" lon="-2.502200">
        <ele>1238.8</ele>
        <time>2022-02-13T13:52:08Z</time>
      </trkpt>
      <trkpt lat="38.220448" lon="-2.502211">
        <ele>1243.8</ele>
        <time>2022-02-13T13:52:26Z</time>
      </trkpt>
      <trkpt lat="38.220519" lon="-2.501997">
        <ele>1236.8</ele>
        <time>2022-02-13T13:52:53Z</time>
      </trkpt>
      <trkpt lat="38.220528" lon="-2.501763">
        <ele>1225.1</ele>
        <time>2022-02-13T13:53:21Z</time>
      </trkpt>
      <trkpt lat="38.220511" lon="-2.501532">
        <ele>1222.1</ele>
        <time>2022-02-13T13:53:44Z</time>
      </trkpt>
      <trkpt lat="38.220430" lon="-2.501317">
        <ele>1219.1</ele>
        <time>2022-02-13T13:54:03Z</time>
      </trkpt>
      <trkpt lat="38.220307" lon="-2.501137">
        <ele>1215.8</ele>
        <time>2022-02-13T13:54:19Z</time>
      </trkpt>
      <trkpt lat="38.220155" lon="-2.501006">
        <ele>1208.1</ele>
        <time>2022-02-13T13:54:46Z</time>
      </trkpt>
      <trkpt lat="38.220001" lon="-2.500874">
        <ele>1207.8</ele>
        <time>2022-02-13T13:55:04Z</time>
      </trkpt>
      <trkpt lat="38.219836" lon="-2.500770">
        <ele>1203.1</ele>
        <time>2022-02-13T13:55:20Z</time>
      </trkpt>
      <trkpt lat="38.219660" lon="-2.500684">
        <ele>1200.1</ele>
        <time>2022-02-13T13:55:39Z</time>
      </trkpt>
      <trkpt lat="38.219499" lon="-2.500565">
        <ele>1194.8</ele>
        <time>2022-02-13T13:55:58Z</time>
      </trkpt>
      <trkpt lat="38.219331" lon="-2.500461">
        <ele>1194.0</ele>
        <time>2022-02-13T13:56:15Z</time>
      </trkpt>
      <trkpt lat="38.219174" lon="-2.500332">
        <ele>1192.5</ele>
        <time>2022-02-13T13:56:34Z</time>
      </trkpt>
      <trkpt lat="38.219017" lon="-2.500212">
        <ele>1193.8</ele>
        <time>2022-02-13T13:56:52Z</time>
      </trkpt>
      <trkpt lat="38.218850" lon="-2.500109">
        <ele>1194.1</ele>
        <time>2022-02-13T13:57:12Z</time>
      </trkpt>
      <trkpt lat="38.218680" lon="-2.500016">
        <ele>1195.8</ele>
        <time>2022-02-13T13:57:28Z</time>
      </trkpt>
      <trkpt lat="38.218589" lon="-2.499817">
        <ele>1191.2</ele>
        <time>2022-02-13T13:57:50Z</time>
      </trkpt>
      <trkpt lat="38.218583" lon="-2.499585">
        <ele>1187.8</ele>
        <time>2022-02-13T13:58:08Z</time>
      </trkpt>
      <trkpt lat="38.218518" lon="-2.499358">
        <ele>1183.8</ele>
        <time>2022-02-13T13:58:25Z</time>
      </trkpt>
      <trkpt lat="38.218422" lon="-2.499160">
        <ele>1176.9</ele>
        <time>2022-02-13T13:58:45Z</time>
      </trkpt>
      <trkpt lat="38.218347" lon="-2.498949">
        <ele>1175.8</ele>
        <time>2022-02-13T13:59:11Z</time>
      </trkpt>
      <trkpt lat="38.218425" lon="-2.498739">
        <ele>1174.8</ele>
        <time>2022-02-13T13:59:26Z</time>
      </trkpt>
      <trkpt lat="38.218533" lon="-2.498551">
        <ele>1172.9</ele>
        <time>2022-02-13T13:59:43Z</time>
      </trkpt>
      <trkpt lat="38.218632" lon="-2.498351">
        <ele>1171.8</ele>
        <time>2022-02-13T14:00:00Z</time>
      </trkpt>
      <trkpt lat="38.218782" lon="-2.498212">
        <ele>1168.9</ele>
        <time>2022-02-13T14:00:18Z</time>
      </trkpt>
      <trkpt lat="38.218872" lon="-2.498004">
        <ele>1163.8</ele>
        <time>2022-02-13T14:00:38Z</time>
      </trkpt>
      <trkpt lat="38.218962" lon="-2.497788">
        <ele>1161.1</ele>
        <time>2022-02-13T14:01:00Z</time>
      </trkpt>
      <trkpt lat="38.219061" lon="-2.497584">
        <ele>1162.5</ele>
        <time>2022-02-13T14:01:18Z</time>
      </trkpt>
      <trkpt lat="38.219122" lon="-2.497348">
        <ele>1154.5</ele>
        <time>2022-02-13T14:01:40Z</time>
      </trkpt>
      <trkpt lat="38.219244" lon="-2.497175">
        <ele>1152.8</ele>
        <time>2022-02-13T14:01:55Z</time>
      </trkpt>
      <trkpt lat="38.219360" lon="-2.496994">
        <ele>1150.1</ele>
        <time>2022-02-13T14:02:16Z</time>
      </trkpt>
      <trkpt lat="38.219462" lon="-2.496798">
        <ele>1146.8</ele>
        <time>2022-02-13T14:02:38Z</time>
      </trkpt>
      <trkpt lat="38.219563" lon="-2.496608">
        <ele>1143.8</ele>
        <time>2022-02-13T14:02:58Z</time>
      </trkpt>
      <trkpt lat="38.219709" lon="-2.496462">
        <ele>1141.8</ele>
        <time>2022-02-13T14:03:21Z</time>
      </trkpt>
      <trkpt lat="38.219885" lon="-2.496392">
        <ele>1138.9</ele>
        <time>2022-02-13T14:03:43Z</time>
      </trkpt>
      <trkpt lat="38.220044" lon="-2.496265">
        <ele>1131.8</ele>
        <time>2022-02-13T14:04:21Z</time>
      </trkpt>
      <trkpt lat="38.220231" lon="-2.496266">
        <ele>1129.7</ele>
        <time>2022-02-13T14:04:42Z</time>
      </trkpt>
      <trkpt lat="38.220402" lon="-2.496174">
        <ele>1129.1</ele>
        <time>2022-02-13T14:05:06Z</time>
      </trkpt>
      <trkpt lat="38.220585" lon="-2.496151">
        <ele>1129.1</ele>
        <time>2022-02-13T14:05:21Z</time>
      </trkpt>
      <trkpt lat="38.220737" lon="-2.496029">
        <ele>1123.9</ele>
        <time>2022-02-13T14:05:39Z</time>
      </trkpt>
      <trkpt lat="38.220914" lon="-2.495952">
        <ele>1118.9</ele>
        <time>2022-02-13T14:06:04Z</time>
      </trkpt>
      <trkpt lat="38.221090" lon="-2.495879">
        <ele>1114.8</ele>
        <time>2022-02-13T14:06:20Z</time>
      </trkpt>
      <trkpt lat="38.221245" lon="-2.495755">
        <ele>1113.8</ele>
        <time>2022-02-13T14:06:35Z</time>
      </trkpt>
      <trkpt lat="38.221425" lon="-2.495704">
        <ele>1111.1</ele>
        <time>2022-02-13T14:06:57Z</time>
      </trkpt>
      <trkpt lat="38.221592" lon="-2.495598">
        <ele>1107.8</ele>
        <time>2022-02-13T14:07:18Z</time>
      </trkpt>
      <trkpt lat="38.221770" lon="-2.495536">
        <ele>1102.1</ele>
        <time>2022-02-13T14:07:40Z</time>
      </trkpt>
      <trkpt lat="38.221952" lon="-2.495523">
        <ele>1099.9</ele>
        <time>2022-02-13T14:07:58Z</time>
      </trkpt>
      <trkpt lat="38.221979" lon="-2.495296">
        <ele>1097.4</ele>
        <time>2022-02-13T14:08:31Z</time>
      </trkpt>
      <trkpt lat="38.221901" lon="-2.495087">
        <ele>1092.5</ele>
        <time>2022-02-13T14:08:53Z</time>
      </trkpt>
      <trkpt lat="38.221752" lon="-2.494955">
        <ele>1094.8</ele>
        <time>2022-02-13T14:09:12Z</time>
      </trkpt>
      <trkpt lat="38.221820" lon="-2.494733">
        <ele>1088.2</ele>
        <time>2022-02-13T14:09:31Z</time>
      </trkpt>
      <trkpt lat="38.221927" lon="-2.494544">
        <ele>1079.8</ele>
        <time>2022-02-13T14:09:51Z</time>
      </trkpt>
      <trkpt lat="38.222008" lon="-2.494330">
        <ele>1079.5</ele>
        <time>2022-02-13T14:10:09Z</time>
      </trkpt>
      <trkpt lat="38.222134" lon="-2.494155">
        <ele>1081.8</ele>
        <time>2022-02-13T14:10:30Z</time>
      </trkpt>
      <trkpt lat="38.222279" lon="-2.494006">
        <ele>1085.7</ele>
        <time>2022-02-13T14:10:50Z</time>
      </trkpt>
      <trkpt lat="38.222424" lon="-2.493856">
        <ele>1082.8</ele>
        <time>2022-02-13T14:11:08Z</time>
      </trkpt>
      <trkpt lat="38.222529" lon="-2.493660">
        <ele>1081.8</ele>
        <time>2022-02-13T14:11:38Z</time>
      </trkpt>
      <trkpt lat="38.222673" lon="-2.493514">
        <ele>1078.8</ele>
        <time>2022-02-13T14:11:58Z</time>
      </trkpt>
      <trkpt lat="38.222817" lon="-2.493367">
        <ele>1079.1</ele>
        <time>2022-02-13T14:12:23Z</time>
      </trkpt>
      <trkpt lat="38.222980" lon="-2.493250">
        <ele>1078.1</ele>
        <time>2022-02-13T14:12:45Z</time>
      </trkpt>
      <trkpt lat="38.223163" lon="-2.493236">
        <ele>1076.1</ele>
        <time>2022-02-13T14:13:02Z</time>
      </trkpt>
      <trkpt lat="38.223351" lon="-2.493213">
        <ele>1067.1</ele>
        <time>2022-02-13T14:13:30Z</time>
      </trkpt>
      <trkpt lat="38.223541" lon="-2.493214">
        <ele>1065.1</ele>
        <time>2022-02-13T14:13:47Z</time>
      </trkpt>
      <trkpt lat="38.223722" lon="-2.493275">
        <ele>1060.8</ele>
        <time>2022-02-13T14:14:02Z</time>
      </trkpt>
      <trkpt lat="38.223846" lon="-2.493101">
        <ele>1055.8</ele>
        <time>2022-02-13T14:14:22Z</time>
      </trkpt>
      <trkpt lat="38.223969" lon="-2.492914">
        <ele>1052.9</ele>
        <time>2022-02-13T14:14:40Z</time>
      </trkpt>
      <trkpt lat="38.224058" lon="-2.492714">
        <ele>1050.8</ele>
        <time>2022-02-13T14:14:57Z</time>
      </trkpt>
      <trkpt lat="38.224140" lon="-2.492509">
        <ele>1046.9</ele>
        <time>2022-02-13T14:15:17Z</time>
      </trkpt>
      <trkpt lat="38.224135" lon="-2.492270">
        <ele>1045.8</ele>
        <time>2022-02-13T14:15:33Z</time>
      </trkpt>
      <trkpt lat="38.224167" lon="-2.492040">
        <ele>1042.8</ele>
        <time>2022-02-13T14:15:49Z</time>
      </trkpt>
      <trkpt lat="38.224213" lon="-2.491807">
        <ele>1042.8</ele>
        <time>2022-02-13T14:16:06Z</time>
      </trkpt>
      <trkpt lat="38.224204" lon="-2.491566">
        <ele>1047.7</ele>
        <time>2022-02-13T14:16:26Z</time>
      </trkpt>
      <trkpt lat="38.224258" lon="-2.491332">
        <ele>1047.8</ele>
        <time>2022-02-13T14:16:43Z</time>
      </trkpt>
      <trkpt lat="38.224342" lon="-2.491119">
        <ele>1049.0</ele>
        <time>2022-02-13T14:16:58Z</time>
      </trkpt>
      <trkpt lat="38.224423" lon="-2.490913">
        <ele>1049.6</ele>
        <time>2022-02-13T14:17:15Z</time>
      </trkpt>
      <trkpt lat="38.224553" lon="-2.490742">
        <ele>1050.5</ele>
        <time>2022-02-13T14:17:30Z</time>
      </trkpt>
      <trkpt lat="38.224683" lon="-2.490575">
        <ele>1051.8</ele>
        <time>2022-02-13T14:17:49Z</time>
      </trkpt>
      <trkpt lat="38.224753" lon="-2.490363">
        <ele>1047.9</ele>
        <time>2022-02-13T14:18:08Z</time>
      </trkpt>
      <trkpt lat="38.224833" lon="-2.490152">
        <ele>1049.7</ele>
        <time>2022-02-13T14:18:22Z</time>
      </trkpt>
      <trkpt lat="38.224911" lon="-2.489944">
        <ele>1050.8</ele>
        <time>2022-02-13T14:18:38Z</time>
      </trkpt>
      <trkpt lat="38.224938" lon="-2.489714">
        <ele>1049.5</ele>
        <time>2022-02-13T14:18:55Z</time>
      </trkpt>
      <trkpt lat="38.224975" lon="-2.489482">
        <ele>1049.8</ele>
        <time>2022-02-13T14:19:11Z</time>
      </trkpt>
      <trkpt lat="38.225099" lon="-2.489302">
        <ele>1054.8</ele>
        <time>2022-02-13T14:19:26Z</time>
      </trkpt>
      <trkpt lat="38.225197" lon="-2.489101">
        <ele>1056.5</ele>
        <time>2022-02-13T14:19:42Z</time>
      </trkpt>
      <trkpt lat="38.225310" lon="-2.488923">
        <ele>1056.7</ele>
        <time>2022-02-13T14:19:59Z</time>
      </trkpt>
      <trkpt lat="38.225421" lon="-2.488741">
        <ele>1058.8</ele>
        <time>2022-02-13T14:20:15Z</time>
      </trkpt>
      <trkpt lat="38.225399" lon="-2.488513">
        <ele>1057.1</ele>
        <time>2022-02-13T14:20:38Z</time>
      </trkpt>
      <trkpt lat="38.225243" lon="-2.488374">
        <ele>1055.8</ele>
        <time>2022-02-13T14:20:58Z</time>
      </trkpt>
      <trkpt lat="38.225055" lon="-2.488322">
        <ele>1059.0</ele>
        <time>2022-02-13T14:21:15Z</time>
      </trkpt>
      <trkpt lat="38.224939" lon="-2.488140">
        <ele>1061.2</ele>
        <time>2022-02-13T14:21:32Z</time>
      </trkpt>
      <trkpt lat="38.224812" lon="-2.487972">
        <ele>1063.8</ele>
        <time>2022-02-13T14:21:50Z</time>
      </trkpt>
      <trkpt lat="38.224560" lon="-2.487683">
        <ele>1069.5</ele>
        <time>2022-02-13T14:22:09Z</time>
      </trkpt>
      <trkpt lat="38.224324" lon="-2.487536">
        <ele>1075.7</ele>
        <time>2022-02-13T14:22:34Z</time>
      </trkpt>
      <trkpt lat="38.224103" lon="-2.487628">
        <ele>1074.9</ele>
        <time>2022-02-13T14:22:54Z</time>
      </trkpt>
      <trkpt lat="38.223947" lon="-2.488032">
        <ele>1070.1</ele>
        <time>2022-02-13T14:23:18Z</time>
      </trkpt>
      <trkpt lat="38.223743" lon="-2.488136">
        <ele>1068.7</ele>
        <time>2022-02-13T14:23:45Z</time>
      </trkpt>
      <trkpt lat="38.223398" lon="-2.488150">
        <ele>1066.8</ele>
        <time>2022-02-13T14:24:18Z</time>
      </trkpt>
      <trkpt lat="38.223685" lon="-2.487836">
        <ele>1076.1</ele>
        <time>2022-02-13T14:25:37Z</time>
      </trkpt>
      <trkpt lat="38.223722" lon="-2.487541">
        <ele>1078.1</ele>
        <time>2022-02-13T14:25:57Z</time>
      </trkpt>
      <trkpt lat="38.223996" lon="-2.487244">
        <ele>1074.9</ele>
        <time>2022-02-13T14:26:10Z</time>
      </trkpt>
      <trkpt lat="38.224084" lon="-2.486871">
        <ele>1069.5</ele>
        <time>2022-02-13T14:26:36Z</time>
      </trkpt>
      <trkpt lat="38.224113" lon="-2.486644">
        <ele>1071.8</ele>
        <time>2022-02-13T14:27:02Z</time>
      </trkpt>
      <trkpt lat="38.224141" lon="-2.486408">
        <ele>1084.7</ele>
        <time>2022-02-13T14:27:24Z</time>
      </trkpt>
      <trkpt lat="38.224138" lon="-2.486175">
        <ele>1087.8</ele>
        <time>2022-02-13T14:27:54Z</time>
      </trkpt>
      <trkpt lat="38.224007" lon="-2.486009">
        <ele>1084.9</ele>
        <time>2022-02-13T14:28:21Z</time>
      </trkpt>
      <trkpt lat="38.223823" lon="-2.485980">
        <ele>1086.8</ele>
        <time>2022-02-13T14:28:44Z</time>
      </trkpt>
      <trkpt lat="38.223927" lon="-2.485783">
        <ele>1089.9</ele>
        <time>2022-02-13T14:29:32Z</time>
      </trkpt>
      <trkpt lat="38.224098" lon="-2.485678">
        <ele>1095.6</ele>
        <time>2022-02-13T14:29:59Z</time>
      </trkpt>
      <trkpt lat="38.224272" lon="-2.485602">
        <ele>1094.8</ele>
        <time>2022-02-13T14:30:39Z</time>
      </trkpt>
      <trkpt lat="38.224415" lon="-2.485460">
        <ele>1101.8</ele>
        <time>2022-02-13T14:31:46Z</time>
      </trkpt>
      <trkpt lat="38.224533" lon="-2.485276">
        <ele>1104.9</ele>
        <time>2022-02-13T14:34:09Z</time>
      </trkpt>
      <trkpt lat="38.224582" lon="-2.485050">
        <ele>1101.8</ele>
        <time>2022-02-13T14:34:42Z</time>
      </trkpt>
      <trkpt lat="38.224564" lon="-2.484817">
        <ele>1098.8</ele>
        <time>2022-02-13T14:35:06Z</time>
      </trkpt>
      <trkpt lat="38.224517" lon="-2.484589">
        <ele>1095.8</ele>
        <time>2022-02-13T14:35:25Z</time>
      </trkpt>
      <trkpt lat="38.224455" lon="-2.484371">
        <ele>1092.2</ele>
        <time>2022-02-13T14:35:43Z</time>
      </trkpt>
      <trkpt lat="38.224341" lon="-2.484192">
        <ele>1092.5</ele>
        <time>2022-02-13T14:36:09Z</time>
      </trkpt>
      <trkpt lat="38.224248" lon="-2.483995">
        <ele>1088.8</ele>
        <time>2022-02-13T14:36:28Z</time>
      </trkpt>
      <trkpt lat="38.224152" lon="-2.483796">
        <ele>1085.8</ele>
        <time>2022-02-13T14:36:47Z</time>
      </trkpt>
      <trkpt lat="38.224021" lon="-2.483618">
        <ele>1082.6</ele>
        <time>2022-02-13T14:37:07Z</time>
      </trkpt>
      <trkpt lat="38.223930" lon="-2.483409">
        <ele>1080.0</ele>
        <time>2022-02-13T14:37:22Z</time>
      </trkpt>
      <trkpt lat="38.223827" lon="-2.483206">
        <ele>1076.9</ele>
        <time>2022-02-13T14:37:43Z</time>
      </trkpt>
      <trkpt lat="38.223718" lon="-2.483024">
        <ele>1073.9</ele>
        <time>2022-02-13T14:38:02Z</time>
      </trkpt>
      <trkpt lat="38.223587" lon="-2.482862">
        <ele>1076.8</ele>
        <time>2022-02-13T14:38:20Z</time>
      </trkpt>
      <trkpt lat="38.223464" lon="-2.482677">
        <ele>1073.8</ele>
        <time>2022-02-13T14:38:37Z</time>
      </trkpt>
      <trkpt lat="38.223372" lon="-2.482478">
        <ele>1073.8</ele>
        <time>2022-02-13T14:38:54Z</time>
      </trkpt>
      <trkpt lat="38.223275" lon="-2.482269">
        <ele>1071.8</ele>
        <time>2022-02-13T14:39:13Z</time>
      </trkpt>
      <trkpt lat="38.223152" lon="-2.482094">
        <ele>1066.8</ele>
        <time>2022-02-13T14:39:33Z</time>
      </trkpt>
      <trkpt lat="38.223077" lon="-2.481875">
        <ele>1064.8</ele>
        <time>2022-02-13T14:39:58Z</time>
      </trkpt>
      <trkpt lat="38.222988" lon="-2.481667">
        <ele>1059.1</ele>
        <time>2022-02-13T14:40:25Z</time>
      </trkpt>
      <trkpt lat="38.222944" lon="-2.481443">
        <ele>1055.1</ele>
        <time>2022-02-13T14:40:57Z</time>
      </trkpt>
      <trkpt lat="38.222915" lon="-2.481212">
        <ele>1047.8</ele>
        <time>2022-02-13T14:42:22Z</time>
      </trkpt>
      <trkpt lat="38.222892" lon="-2.480973">
        <ele>1046.8</ele>
        <time>2022-02-13T14:42:37Z</time>
      </trkpt>
      <trkpt lat="38.222824" lon="-2.480758">
        <ele>1042.1</ele>
        <time>2022-02-13T14:43:24Z</time>
      </trkpt>
      <trkpt lat="38.222737" lon="-2.480556">
        <ele>1039.5</ele>
        <time>2022-02-13T14:44:56Z</time>
      </trkpt>
      <trkpt lat="38.222551" lon="-2.480576">
        <ele>1034.1</ele>
        <time>2022-02-13T14:45:19Z</time>
      </trkpt>
      <trkpt lat="38.222372" lon="-2.480630">
        <ele>1028.1</ele>
        <time>2022-02-13T14:45:47Z</time>
      </trkpt>
      <trkpt lat="38.222199" lon="-2.480710">
        <ele>1030.8</ele>
        <time>2022-02-13T14:46:03Z</time>
      </trkpt>
      <trkpt lat="38.222015" lon="-2.480650">
        <ele>933.2</ele>
        <time>2022-02-13T14:46:23Z</time>
      </trkpt>
      <trkpt lat="38.221830" lon="-2.480663">
        <ele>930.5</ele>
        <time>2022-02-13T14:46:38Z</time>
      </trkpt>
      <trkpt lat="38.221655" lon="-2.480608">
        <ele>930.5</ele>
        <time>2022-02-13T14:46:55Z</time>
      </trkpt>
      <trkpt lat="38.221590" lon="-2.480393">
        <ele>930.5</ele>
        <time>2022-02-13T14:47:12Z</time>
      </trkpt>
      <trkpt lat="38.221618" lon="-2.480158">
        <ele>930.5</ele>
        <time>2022-02-13T14:47:29Z</time>
      </trkpt>
      <trkpt lat="38.221589" lon="-2.479929">
        <ele>1014.5</ele>
        <time>2022-02-13T14:47:50Z</time>
      </trkpt>
      <trkpt lat="38.221458" lon="-2.479760">
        <ele>930.5</ele>
        <time>2022-02-13T14:48:06Z</time>
      </trkpt>
      <trkpt lat="38.221365" lon="-2.479559">
        <ele>930.5</ele>
        <time>2022-02-13T14:48:21Z</time>
      </trkpt>
      <trkpt lat="38.221286" lon="-2.479343">
        <ele>930.5</ele>
        <time>2022-02-13T14:48:36Z</time>
      </trkpt>
      <trkpt lat="38.221122" lon="-2.479219">
        <ele>930.5</ele>
        <time>2022-02-13T14:48:55Z</time>
      </trkpt>
      <trkpt lat="38.221006" lon="-2.479028">
        <ele>930.5</ele>
        <time>2022-02-13T14:49:12Z</time>
      </trkpt>
      <trkpt lat="38.220893" lon="-2.478845">
        <ele>930.5</ele>
        <time>2022-02-13T14:49:28Z</time>
      </trkpt>
      <trkpt lat="38.220778" lon="-2.478661">
        <ele>930.5</ele>
        <time>2022-02-13T14:49:45Z</time>
      </trkpt>
      <trkpt lat="38.220645" lon="-2.478500">
        <ele>930.5</ele>
        <time>2022-02-13T14:50:01Z</time>
      </trkpt>
      <trkpt lat="38.220472" lon="-2.478412">
        <ele>930.5</ele>
        <time>2022-02-13T14:50:20Z</time>
      </trkpt>
      <trkpt lat="38.220291" lon="-2.478341">
        <ele>930.5</ele>
        <time>2022-02-13T14:50:38Z</time>
      </trkpt>
      <trkpt lat="38.220100" lon="-2.478342">
        <ele>930.5</ele>
        <time>2022-02-13T14:50:54Z</time>
      </trkpt>
      <trkpt lat="38.219917" lon="-2.478305">
        <ele>930.5</ele>
        <time>2022-02-13T14:51:12Z</time>
      </trkpt>
      <trkpt lat="38.219738" lon="-2.478276">
        <ele>930.5</ele>
        <time>2022-02-13T14:51:25Z</time>
      </trkpt>
      <trkpt lat="38.219562" lon="-2.478196">
        <ele>930.5</ele>
        <time>2022-02-13T14:51:42Z</time>
      </trkpt>
      <trkpt lat="38.219624" lon="-2.477972">
        <ele>996.8</ele>
        <time>2022-02-13T14:51:59Z</time>
      </trkpt>
      <trkpt lat="38.219810" lon="-2.477948">
        <ele>998.5</ele>
        <time>2022-02-13T14:52:17Z</time>
      </trkpt>
      <trkpt lat="38.219991" lon="-2.477903">
        <ele>997.8</ele>
        <time>2022-02-13T14:52:32Z</time>
      </trkpt>
      <trkpt lat="38.220128" lon="-2.477753">
        <ele>931.0</ele>
        <time>2022-02-13T14:52:49Z</time>
      </trkpt>
      <trkpt lat="38.219944" lon="-2.477735">
        <ele>930.5</ele>
        <time>2022-02-13T14:53:07Z</time>
      </trkpt>
      <trkpt lat="38.219765" lon="-2.477717">
        <ele>930.5</ele>
        <time>2022-02-13T14:53:27Z</time>
      </trkpt>
      <trkpt lat="38.219575" lon="-2.477705">
        <ele>930.5</ele>
        <time>2022-02-13T14:53:42Z</time>
      </trkpt>
      <trkpt lat="38.219389" lon="-2.477691">
        <ele>930.5</ele>
        <time>2022-02-13T14:53:58Z</time>
      </trkpt>
      <trkpt lat="38.219197" lon="-2.477697">
        <ele>930.5</ele>
        <time>2022-02-13T14:54:12Z</time>
      </trkpt>
      <trkpt lat="38.219017" lon="-2.477732">
        <ele>970.9</ele>
        <time>2022-02-13T14:54:27Z</time>
      </trkpt>
      <trkpt lat="38.218833" lon="-2.477766">
        <ele>966.8</ele>
        <time>2022-02-13T14:54:43Z</time>
      </trkpt>
      <trkpt lat="38.218770" lon="-2.477544">
        <ele>972.5</ele>
        <time>2022-02-13T14:55:03Z</time>
      </trkpt>
      <trkpt lat="38.218914" lon="-2.477401">
        <ele>971.8</ele>
        <time>2022-02-13T14:55:17Z</time>
      </trkpt>
      <trkpt lat="38.219057" lon="-2.477246">
        <ele>971.8</ele>
        <time>2022-02-13T14:55:31Z</time>
      </trkpt>
      <trkpt lat="38.219181" lon="-2.477072">
        <ele>968.8</ele>
        <time>2022-02-13T14:55:46Z</time>
      </trkpt>
      <trkpt lat="38.219259" lon="-2.476855">
        <ele>964.1</ele>
        <time>2022-02-13T14:56:05Z</time>
      </trkpt>
      <trkpt lat="38.219315" lon="-2.476637">
        <ele>930.5</ele>
        <time>2022-02-13T14:56:22Z</time>
      </trkpt>
      <trkpt lat="38.219397" lon="-2.476421">
        <ele>930.5</ele>
        <time>2022-02-13T14:56:40Z</time>
      </trkpt>
      <trkpt lat="38.219480" lon="-2.476205">
        <ele>930.5</ele>
        <time>2022-02-13T14:56:57Z</time>
      </trkpt>
      <trkpt lat="38.219587" lon="-2.476006">
        <ele>930.5</ele>
        <time>2022-02-13T14:57:15Z</time>
      </trkpt>
      <trkpt lat="38.219688" lon="-2.475815">
        <ele>930.5</ele>
        <time>2022-02-13T14:57:32Z</time>
      </trkpt>
      <trkpt lat="38.219844" lon="-2.475693">
        <ele>930.5</ele>
        <time>2022-02-13T14:57:50Z</time>
      </trkpt>
      <trkpt lat="38.220016" lon="-2.475595">
        <ele>930.5</ele>
        <time>2022-02-13T14:58:09Z</time>
      </trkpt>
      <trkpt lat="38.220177" lon="-2.475474">
        <ele>930.5</ele>
        <time>2022-02-13T14:58:28Z</time>
      </trkpt>
      <trkpt lat="38.220333" lon="-2.475355">
        <ele>930.5</ele>
        <time>2022-02-13T14:58:45Z</time>
      </trkpt>
      <trkpt lat="38.220490" lon="-2.475216">
        <ele>930.5</ele>
        <time>2022-02-13T14:59:03Z</time>
      </trkpt>
      <trkpt lat="38.220674" lon="-2.475172">
        <ele>930.5</ele>
        <time>2022-02-13T14:59:23Z</time>
      </trkpt>
      <trkpt lat="38.220843" lon="-2.475274">
        <ele>930.5</ele>
        <time>2022-02-13T15:02:09Z</time>
      </trkpt>
      <trkpt lat="38.221014" lon="-2.475360">
        <ele>930.5</ele>
        <time>2022-02-13T15:02:27Z</time>
      </trkpt>
      <trkpt lat="38.221176" lon="-2.475462">
        <ele>930.5</ele>
        <time>2022-02-13T15:02:39Z</time>
      </trkpt>
      <trkpt lat="38.221330" lon="-2.475596">
        <ele>934.6</ele>
        <time>2022-02-13T15:02:55Z</time>
      </trkpt>
      <trkpt lat="38.221509" lon="-2.475654">
        <ele>936.4</ele>
        <time>2022-02-13T15:03:08Z</time>
      </trkpt>
      <trkpt lat="38.221694" lon="-2.475695">
        <ele>936.4</ele>
        <time>2022-02-13T15:03:21Z</time>
      </trkpt>
      <trkpt lat="38.221879" lon="-2.475667">
        <ele>936.4</ele>
        <time>2022-02-13T15:03:34Z</time>
      </trkpt>
      <trkpt lat="38.222072" lon="-2.475634">
        <ele>936.4</ele>
        <time>2022-02-13T15:03:47Z</time>
      </trkpt>
      <trkpt lat="38.222254" lon="-2.475604">
        <ele>936.4</ele>
        <time>2022-02-13T15:03:59Z</time>
      </trkpt>
      <trkpt lat="38.222432" lon="-2.475666">
        <ele>932.7</ele>
        <time>2022-02-13T15:04:19Z</time>
      </trkpt>
      <trkpt lat="38.222492" lon="-2.475441">
        <ele>930.5</ele>
        <time>2022-02-13T15:05:57Z</time>
      </trkpt>
      <trkpt lat="38.222511" lon="-2.475204">
        <ele>930.7</ele>
        <time>2022-02-13T15:07:35Z</time>
      </trkpt>
      <trkpt lat="38.222534" lon="-2.474965">
        <ele>932.2</ele>
        <time>2022-02-13T15:07:51Z</time>
      </trkpt>
      <trkpt lat="38.222583" lon="-2.474739">
        <ele>932.7</ele>
        <time>2022-02-13T15:08:22Z</time>
      </trkpt>
      <trkpt lat="38.222596" lon="-2.474499">
        <ele>932.2</ele>
        <time>2022-02-13T15:08:51Z</time>
      </trkpt>
      <trkpt lat="38.222432" lon="-2.474375">
        <ele>931.0</ele>
        <time>2022-02-13T15:09:20Z</time>
      </trkpt>
      <trkpt lat="38.222299" lon="-2.474211">
        <ele>930.5</ele>
        <time>2022-02-13T15:09:48Z</time>
      </trkpt>
      <trkpt lat="38.222274" lon="-2.473974">
        <ele>930.5</ele>
        <time>2022-02-13T15:10:03Z</time>
      </trkpt>
      <trkpt lat="38.222196" lon="-2.473754">
        <ele>930.5</ele>
        <time>2022-02-13T15:10:18Z</time>
      </trkpt>
      <trkpt lat="38.222042" lon="-2.473615">
        <ele>930.5</ele>
        <time>2022-02-13T15:10:40Z</time>
      </trkpt>
      <trkpt lat="38.221987" lon="-2.473394">
        <ele>930.5</ele>
        <time>2022-02-13T15:11:56Z</time>
      </trkpt>
      <trkpt lat="38.222148" lon="-2.473263">
        <ele>930.5</ele>
        <time>2022-02-13T15:12:09Z</time>
      </trkpt>
      <trkpt lat="38.222328" lon="-2.473309">
        <ele>930.5</ele>
        <time>2022-02-13T15:12:21Z</time>
      </trkpt>
      <trkpt lat="38.222516" lon="-2.473333">
        <ele>930.5</ele>
        <time>2022-02-13T15:12:38Z</time>
      </trkpt>
      <trkpt lat="38.222693" lon="-2.473395">
        <ele>930.5</ele>
        <time>2022-02-13T15:13:28Z</time>
      </trkpt>
      <trkpt lat="38.222876" lon="-2.473409">
        <ele>930.5</ele>
        <time>2022-02-13T15:13:41Z</time>
      </trkpt>
      <trkpt lat="38.223037" lon="-2.473297">
        <ele>930.5</ele>
        <time>2022-02-13T15:13:54Z</time>
      </trkpt>
      <trkpt lat="38.223170" lon="-2.473123">
        <ele>930.5</ele>
        <time>2022-02-13T15:14:07Z</time>
      </trkpt>
      <trkpt lat="38.223335" lon="-2.473001">
        <ele>930.5</ele>
        <time>2022-02-13T15:14:20Z</time>
      </trkpt>
      <trkpt lat="38.223451" lon="-2.472819">
        <ele>930.5</ele>
        <time>2022-02-13T15:14:34Z</time>
      </trkpt>
      <trkpt lat="38.223478" lon="-2.472585">
        <ele>930.5</ele>
        <time>2022-02-13T15:14:48Z</time>
      </trkpt>
      <trkpt lat="38.223355" lon="-2.472402">
        <ele>930.5</ele>
        <time>2022-02-13T15:15:12Z</time>
      </trkpt>
      <trkpt lat="38.223189" lon="-2.472275">
        <ele>930.5</ele>
        <time>2022-02-13T15:15:28Z</time>
      </trkpt>
      <trkpt lat="38.223001" lon="-2.472285">
        <ele>930.5</ele>
        <time>2022-02-13T15:15:42Z</time>
      </trkpt>
      <trkpt lat="38.222823" lon="-2.472370">
        <ele>930.5</ele>
        <time>2022-02-13T15:15:56Z</time>
      </trkpt>
      <trkpt lat="38.222641" lon="-2.472374">
        <ele>930.5</ele>
        <time>2022-02-13T15:16:10Z</time>
      </trkpt>
      <trkpt lat="38.222459" lon="-2.472298">
        <ele>930.5</ele>
        <time>2022-02-13T15:16:23Z</time>
      </trkpt>
      <trkpt lat="38.222291" lon="-2.472184">
        <ele>930.5</ele>
        <time>2022-02-13T15:16:36Z</time>
      </trkpt>
      <trkpt lat="38.222110" lon="-2.472129">
        <ele>930.5</ele>
        <time>2022-02-13T15:16:49Z</time>
      </trkpt>
      <trkpt lat="38.221929" lon="-2.472115">
        <ele>930.5</ele>
        <time>2022-02-13T15:17:02Z</time>
      </trkpt>
      <trkpt lat="38.221749" lon="-2.472189">
        <ele>930.5</ele>
        <time>2022-02-13T15:17:56Z</time>
      </trkpt>
      <trkpt lat="38.221563" lon="-2.472182">
        <ele>930.5</ele>
        <time>2022-02-13T15:18:10Z</time>
      </trkpt>
      <trkpt lat="38.221381" lon="-2.472177">
        <ele>930.5</ele>
        <time>2022-02-13T15:18:24Z</time>
      </trkpt>
      <trkpt lat="38.221201" lon="-2.472152">
        <ele>930.5</ele>
        <time>2022-02-13T15:18:37Z</time>
      </trkpt>
      <trkpt lat="38.221205" lon="-2.471920">
        <ele>930.5</ele>
        <time>2022-02-13T15:18:54Z</time>
      </trkpt>
      <trkpt lat="38.221328" lon="-2.471746">
        <ele>870.7</ele>
        <time>2022-02-13T15:20:52Z</time>
      </trkpt>
      <trkpt lat="38.221403" lon="-2.471522">
        <ele>868.1</ele>
        <time>2022-02-13T15:21:07Z</time>
      </trkpt>
      <trkpt lat="38.221333" lon="-2.471289">
        <ele>862.1</ele>
        <time>2022-02-13T15:21:22Z</time>
      </trkpt>
      <trkpt lat="38.221305" lon="-2.471059">
        <ele>861.8</ele>
        <time>2022-02-13T15:21:35Z</time>
      </trkpt>
      <trkpt lat="38.221316" lon="-2.470821">
        <ele>860.8</ele>
        <time>2022-02-13T15:21:49Z</time>
      </trkpt>
      <trkpt lat="38.221387" lon="-2.470598">
        <ele>861.5</ele>
        <time>2022-02-13T15:22:03Z</time>
      </trkpt>
      <trkpt lat="38.221498" lon="-2.470400">
        <ele>861.6</ele>
        <time>2022-02-13T15:22:17Z</time>
      </trkpt>
      <trkpt lat="38.221613" lon="-2.470209">
        <ele>858.9</ele>
        <time>2022-02-13T15:22:33Z</time>
      </trkpt>
      <trkpt lat="38.221678" lon="-2.469983">
        <ele>855.8</ele>
        <time>2022-02-13T15:22:48Z</time>
      </trkpt>
      <trkpt lat="38.221704" lon="-2.469749">
        <ele>849.8</ele>
        <time>2022-02-13T15:23:04Z</time>
      </trkpt>
      <trkpt lat="38.221702" lon="-2.469513">
        <ele>847.5</ele>
        <time>2022-02-13T15:23:20Z</time>
      </trkpt>
      <trkpt lat="38.221763" lon="-2.469281">
        <ele>846.5</ele>
        <time>2022-02-13T15:23:35Z</time>
      </trkpt>
      <trkpt lat="38.221853" lon="-2.469074">
        <ele>848.8</ele>
        <time>2022-02-13T15:23:50Z</time>
      </trkpt>
      <trkpt lat="38.221950" lon="-2.468874">
        <ele>847.8</ele>
        <time>2022-02-13T15:24:05Z</time>
      </trkpt>
      <trkpt lat="38.222087" lon="-2.468724">
        <ele>841.8</ele>
        <time>2022-02-13T15:24:41Z</time>
      </trkpt>
      <trkpt lat="38.222203" lon="-2.468547">
        <ele>840.8</ele>
        <time>2022-02-13T15:24:57Z</time>
      </trkpt>
      <trkpt lat="38.222317" lon="-2.468364">
        <ele>837.1</ele>
        <time>2022-02-13T15:25:15Z</time>
      </trkpt>
      <trkpt lat="38.222375" lon="-2.468134">
        <ele>831.9</ele>
        <time>2022-02-13T15:25:30Z</time>
      </trkpt>
      <trkpt lat="38.222380" lon="-2.467904">
        <ele>829.8</ele>
        <time>2022-02-13T15:25:43Z</time>
      </trkpt>
      <trkpt lat="38.222338" lon="-2.467680">
        <ele>824.2</ele>
        <time>2022-02-13T15:25:59Z</time>
      </trkpt>
      <trkpt lat="38.222286" lon="-2.467445">
        <ele>822.1</ele>
        <time>2022-02-13T15:26:12Z</time>
      </trkpt>
      <trkpt lat="38.222205" lon="-2.467232">
        <ele>822.8</ele>
        <time>2022-02-13T15:26:26Z</time>
      </trkpt>
      <trkpt lat="38.222123" lon="-2.467025">
        <ele>821.8</ele>
        <time>2022-02-13T15:26:40Z</time>
      </trkpt>
      <trkpt lat="38.222016" lon="-2.466830">
        <ele>815.9</ele>
        <time>2022-02-13T15:26:56Z</time>
      </trkpt>
      <trkpt lat="38.221852" lon="-2.466728">
        <ele>812.9</ele>
        <time>2022-02-13T15:27:10Z</time>
      </trkpt>
      <trkpt lat="38.221677" lon="-2.466635">
        <ele>807.8</ele>
        <time>2022-02-13T15:27:25Z</time>
      </trkpt>
      <trkpt lat="38.221533" lon="-2.466472">
        <ele>803.8</ele>
        <time>2022-02-13T15:27:38Z</time>
      </trkpt>
      <trkpt lat="38.221494" lon="-2.466246">
        <ele>803.1</ele>
        <time>2022-02-13T15:27:52Z</time>
      </trkpt>
      <trkpt lat="38.221503" lon="-2.466013">
        <ele>801.8</ele>
        <time>2022-02-13T15:28:05Z</time>
      </trkpt>
      <trkpt lat="38.221443" lon="-2.465789">
        <ele>800.9</ele>
        <time>2022-02-13T15:28:19Z</time>
      </trkpt>
      <trkpt lat="38.221280" lon="-2.465655">
        <ele>797.8</ele>
        <time>2022-02-13T15:28:33Z</time>
      </trkpt>
      <trkpt lat="38.221118" lon="-2.465550">
        <ele>794.8</ele>
        <time>2022-02-13T15:28:47Z</time>
      </trkpt>
      <trkpt lat="38.220969" lon="-2.465423">
        <ele>790.8</ele>
        <time>2022-02-13T15:29:02Z</time>
      </trkpt>
      <trkpt lat="38.220820" lon="-2.465293">
        <ele>789.5</ele>
        <time>2022-02-13T15:29:15Z</time>
      </trkpt>
      <trkpt lat="38.220679" lon="-2.465137">
        <ele>787.9</ele>
        <time>2022-02-13T15:29:28Z</time>
      </trkpt>
      <trkpt lat="38.220543" lon="-2.464972">
        <ele>785.8</ele>
        <time>2022-02-13T15:29:43Z</time>
      </trkpt>
      <trkpt lat="38.220395" lon="-2.464832">
        <ele>782.1</ele>
        <time>2022-02-13T15:29:57Z</time>
      </trkpt>
      <trkpt lat="38.220263" lon="-2.464665">
        <ele>782.8</ele>
        <time>2022-02-13T15:30:13Z</time>
      </trkpt>
      <trkpt lat="38.220203" lon="-2.464440">
        <ele>782.0</ele>
        <time>2022-02-13T15:30:26Z</time>
      </trkpt>
      <trkpt lat="38.220113" lon="-2.464233">
        <ele>780.7</ele>
        <time>2022-02-13T15:30:38Z</time>
      </trkpt>
      <trkpt lat="38.220054" lon="-2.464013">
        <ele>779.8</ele>
        <time>2022-02-13T15:30:50Z</time>
      </trkpt>
      <trkpt lat="38.219988" lon="-2.463789">
        <ele>777.9</ele>
        <time>2022-02-13T15:31:03Z</time>
      </trkpt>
      <trkpt lat="38.219908" lon="-2.463572">
        <ele>776.9</ele>
        <time>2022-02-13T15:31:16Z</time>
      </trkpt>
      <trkpt lat="38.219860" lon="-2.463342">
        <ele>776.9</ele>
        <time>2022-02-13T15:31:30Z</time>
      </trkpt>
      <trkpt lat="38.219863" lon="-2.463098">
        <ele>777.1</ele>
        <time>2022-02-13T15:31:43Z</time>
      </trkpt>
      <trkpt lat="38.219871" lon="-2.462859">
        <ele>774.8</ele>
        <time>2022-02-13T15:32:00Z</time>
      </trkpt>
      <trkpt lat="38.219803" lon="-2.462643">
        <ele>772.9</ele>
        <time>2022-02-13T15:32:14Z</time>
      </trkpt>
      <trkpt lat="38.219732" lon="-2.462431">
        <ele>769.1</ele>
        <time>2022-02-13T15:32:31Z</time>
      </trkpt>
      <trkpt lat="38.219650" lon="-2.462233">
        <ele>767.8</ele>
        <time>2022-02-13T15:32:45Z</time>
      </trkpt>
      <trkpt lat="38.219487" lon="-2.462107">
        <ele>767.1</ele>
        <time>2022-02-13T15:33:35Z</time>
      </trkpt>
      <trkpt lat="38.219298" lon="-2.462139">
        <ele>765.9</ele>
        <time>2022-02-13T15:33:52Z</time>
      </trkpt>
      <trkpt lat="38.219128" lon="-2.462225">
        <ele>760.8</ele>
        <time>2022-02-13T15:34:07Z</time>
      </trkpt>
      <trkpt lat="38.218951" lon="-2.462284">
        <ele>756.8</ele>
        <time>2022-02-13T15:34:21Z</time>
      </trkpt>
      <trkpt lat="38.218768" lon="-2.462312">
        <ele>751.8</ele>
        <time>2022-02-13T15:34:34Z</time>
      </trkpt>
      <trkpt lat="38.218590" lon="-2.462337">
        <ele>748.9</ele>
        <time>2022-02-13T15:34:48Z</time>
      </trkpt>
      <trkpt lat="38.218416" lon="-2.462254">
        <ele>749.8</ele>
        <time>2022-02-13T15:35:05Z</time>
      </trkpt>
      <trkpt lat="38.218438" lon="-2.462019">
        <ele>752.5</ele>
        <time>2022-02-13T15:35:16Z</time>
      </trkpt>
      <trkpt lat="38.218538" lon="-2.461823">
        <ele>762.5</ele>
        <time>2022-02-13T15:35:29Z</time>
      </trkpt>
      <trkpt lat="38.218685" lon="-2.461684">
        <ele>764.8</ele>
        <time>2022-02-13T15:35:43Z</time>
      </trkpt>
      <trkpt lat="38.218820" lon="-2.461522">
        <ele>765.8</ele>
        <time>2022-02-13T15:35:55Z</time>
      </trkpt>
      <trkpt lat="38.218944" lon="-2.461339">
        <ele>767.1</ele>
        <time>2022-02-13T15:36:09Z</time>
      </trkpt>
      <trkpt lat="38.219026" lon="-2.461133">
        <ele>763.8</ele>
        <time>2022-02-13T15:36:23Z</time>
      </trkpt>
      <trkpt lat="38.219078" lon="-2.460911">
        <ele>758.9</ele>
        <time>2022-02-13T15:36:38Z</time>
      </trkpt>
      <trkpt lat="38.219084" lon="-2.460675">
        <ele>757.8</ele>
        <time>2022-02-13T15:36:54Z</time>
      </trkpt>
      <trkpt lat="38.219046" lon="-2.460442">
        <ele>752.9</ele>
        <time>2022-02-13T15:37:09Z</time>
      </trkpt>
      <trkpt lat="38.219033" lon="-2.460204">
        <ele>751.1</ele>
        <time>2022-02-13T15:37:23Z</time>
      </trkpt>
      <trkpt lat="38.219007" lon="-2.459973">
        <ele>748.8</ele>
        <time>2022-02-13T15:37:37Z</time>
      </trkpt>
      <trkpt lat="38.218990" lon="-2.459741">
        <ele>749.8</ele>
        <time>2022-02-13T15:37:50Z</time>
      </trkpt>
      <trkpt lat="38.218997" lon="-2.459503">
        <ele>749.5</ele>
        <time>2022-02-13T15:38:04Z</time>
      </trkpt>
      <trkpt lat="38.219009" lon="-2.459269">
        <ele>749.8</ele>
        <time>2022-02-13T15:38:17Z</time>
      </trkpt>
      <trkpt lat="38.219039" lon="-2.459037">
        <ele>747.1</ele>
        <time>2022-02-13T15:38:31Z</time>
      </trkpt>
      <trkpt lat="38.219060" lon="-2.458783">
        <ele>742.9</ele>
        <time>2022-02-13T15:38:46Z</time>
      </trkpt>
      <trkpt lat="38.219116" lon="-2.458601">
        <ele>741.7</ele>
        <time>2022-02-13T15:39:00Z</time>
      </trkpt>
      <trkpt lat="38.219138" lon="-2.458425">
        <ele>736.9</ele>
        <time>2022-02-13T15:39:15Z</time>
      </trkpt>
      <trkpt lat="38.219099" lon="-2.458293">
        <ele>732.8</ele>
        <time>2022-02-13T15:39:29Z</time>
      </trkpt>
      <trkpt lat="38.219038" lon="-2.458095">
        <ele>729.9</ele>
        <time>2022-02-13T15:39:41Z</time>
      </trkpt>
      <trkpt lat="38.219069" lon="-2.457952">
        <ele>729.8</ele>
        <time>2022-02-13T15:39:57Z</time>
      </trkpt>
      <trkpt lat="38.219151" lon="-2.457974">
        <ele>732.1</ele>
        <time>2022-02-13T15:40:21Z</time>
      </trkpt>
      <trkpt lat="38.219233" lon="-2.458062">
        <ele>727.9</ele>
        <time>2022-02-13T15:40:35Z</time>
      </trkpt>
      <trkpt lat="38.219311" lon="-2.458392">
        <ele>727.8</ele>
        <time>2022-02-13T15:40:48Z</time>
      </trkpt>
      <trkpt lat="38.219233" lon="-2.458772">
        <ele>725.1</ele>
        <time>2022-02-13T15:41:01Z</time>
      </trkpt>
      <trkpt lat="38.219276" lon="-2.458970">
        <ele>727.8</ele>
        <time>2022-02-13T15:41:16Z</time>
      </trkpt>
      <trkpt lat="38.219397" lon="-2.458606">
        <ele>721.7</ele>
        <time>2022-02-13T15:41:53Z</time>
      </trkpt>
      <trkpt lat="38.219458" lon="-2.458271">
        <ele>715.5</ele>
        <time>2022-02-13T15:42:58Z</time>
      </trkpt>
      <trkpt lat="38.219389" lon="-2.458055">
        <ele>707.8</ele>
        <time>2022-02-13T15:43:16Z</time>
      </trkpt>
      <trkpt lat="38.219313" lon="-2.457828">
        <ele>707.8</ele>
        <time>2022-02-13T15:43:28Z</time>
      </trkpt>
      <trkpt lat="38.219253" lon="-2.457598">
        <ele>704.8</ele>
        <time>2022-02-13T15:43:42Z</time>
      </trkpt>
      <trkpt lat="38.219174" lon="-2.457390">
        <ele>704.5</ele>
        <time>2022-02-13T15:43:56Z</time>
      </trkpt>
      <trkpt lat="38.219135" lon="-2.457152">
        <ele>705.8</ele>
        <time>2022-02-13T15:44:13Z</time>
      </trkpt>
      <trkpt lat="38.219159" lon="-2.456911">
        <ele>703.8</ele>
        <time>2022-02-13T15:44:30Z</time>
      </trkpt>
      <trkpt lat="38.219119" lon="-2.456688">
        <ele>697.9</ele>
        <time>2022-02-13T15:44:44Z</time>
      </trkpt>
      <trkpt lat="38.218984" lon="-2.456534">
        <ele>693.1</ele>
        <time>2022-02-13T15:44:57Z</time>
      </trkpt>
      <trkpt lat="38.218807" lon="-2.456438">
        <ele>684.8</ele>
        <time>2022-02-13T15:45:11Z</time>
      </trkpt>
      <trkpt lat="38.218628" lon="-2.456375">
        <ele>687.8</ele>
        <time>2022-02-13T15:45:29Z</time>
      </trkpt>
      <trkpt lat="38.218468" lon="-2.456258">
        <ele>691.8</ele>
        <time>2022-02-13T15:45:46Z</time>
      </trkpt>
      <trkpt lat="38.218338" lon="-2.456075">
        <ele>691.7</ele>
        <time>2022-02-13T15:46:03Z</time>
      </trkpt>
      <trkpt lat="38.218165" lon="-2.455948">
        <ele>703.7</ele>
        <time>2022-02-13T15:46:36Z</time>
      </trkpt>
      <trkpt lat="38.218048" lon="-2.455700">
        <ele>708.4</ele>
        <time>2022-02-13T15:46:46Z</time>
      </trkpt>
      <trkpt lat="38.217992" lon="-2.455442">
        <ele>715.5</ele>
        <time>2022-02-13T15:46:59Z</time>
      </trkpt>
      <trkpt lat="38.217975" lon="-2.455194">
        <ele>724.5</ele>
        <time>2022-02-13T15:47:24Z</time>
      </trkpt>
      <trkpt lat="38.217988" lon="-2.455038">
        <ele>726.7</ele>
        <time>2022-02-13T15:48:02Z</time>
      </trkpt>
      <trkpt lat="38.218008" lon="-2.454954">
        <ele>725.8</ele>
        <time>2022-02-13T15:48:30Z</time>
      </trkpt>
      <trkpt lat="38.218035" lon="-2.454888">
        <ele>732.5</ele>
        <time>2022-02-13T15:49:24Z</time>
      </trkpt>
      <trkpt lat="38.218067" lon="-2.454794">
        <ele>728.8</ele>
        <time>2022-02-13T15:50:11Z</time>
      </trkpt>
      <trkpt lat="38.218125" lon="-2.454717">
        <ele>718.5</ele>
        <time>2022-02-13T15:50:31Z</time>
      </trkpt>
      <trkpt lat="38.218166" lon="-2.454669">
        <ele>716.8</ele>
        <time>2022-02-13T15:51:20Z</time>
      </trkpt>
      <trkpt lat="38.218188" lon="-2.454641">
        <ele>715.8</ele>
        <time>2022-02-13T15:51:32Z</time>
      </trkpt>
      <trkpt lat="38.218227" lon="-2.454610">
        <ele>717.8</ele>
        <time>2022-02-13T15:52:12Z</time>
      </trkpt>
      <trkpt lat="38.218242" lon="-2.454593">
        <ele>717.8</ele>
        <time>2022-02-13T15:52:27Z</time>
      </trkpt>
      <trkpt lat="38.218166" lon="-2.454396">
        <ele>721.8</ele>
        <time>2022-04-03T08:08:28Z</time>
      </trkpt>
      <trkpt lat="38.218105" lon="-2.454275">
        <ele>724.7</ele>
        <time>2022-04-03T08:09:33Z</time>
      </trkpt>
      <trkpt lat="38.217988" lon="-2.454120">
        <ele>723.5</ele>
        <time>2022-04-03T08:09:55Z</time>
      </trkpt>
      <trkpt lat="38.217837" lon="-2.454071">
        <ele>740.8</ele>
        <time>2022-04-03T08:10:25Z</time>
      </trkpt>
      <trkpt lat="38.217625" lon="-2.454019">
        <ele>755.3</ele>
        <time>2022-04-03T08:10:39Z</time>
      </trkpt>
      <trkpt lat="38.217463" lon="-2.454065">
        <ele>761.4</ele>
        <time>2022-04-03T08:10:51Z</time>
      </trkpt>
      <trkpt lat="38.217295" lon="-2.454141">
        <ele>759.2</ele>
        <time>2022-04-03T08:11:00Z</time>
      </trkpt>
      <trkpt lat="38.217110" lon="-2.454214">
        <ele>746.9</ele>
        <time>2022-04-03T08:11:13Z</time>
      </trkpt>
      <trkpt lat="38.216978" lon="-2.454304">
        <ele>749.8</ele>
        <time>2022-04-03T08:11:28Z</time>
      </trkpt>
      <trkpt lat="38.216793" lon="-2.454434">
        <ele>752.5</ele>
        <time>2022-04-03T08:11:41Z</time>
      </trkpt>
      <trkpt lat="38.216620" lon="-2.454513">
        <ele>751.7</ele>
        <time>2022-04-03T08:11:54Z</time>
      </trkpt>
      <trkpt lat="38.216246" lon="-2.454774">
        <ele>756.5</ele>
        <time>2022-04-03T08:12:15Z</time>
      </trkpt>
      <trkpt lat="38.216148" lon="-2.454691">
        <ele>764.7</ele>
        <time>2022-04-03T08:12:26Z</time>
      </trkpt>
      <trkpt lat="38.216160" lon="-2.454403">
        <ele>762.2</ele>
        <time>2022-04-03T08:13:03Z</time>
      </trkpt>
      <trkpt lat="38.216427" lon="-2.454194">
        <ele>754.8</ele>
        <time>2022-04-03T08:13:20Z</time>
      </trkpt>
      <trkpt lat="38.216567" lon="-2.454089">
        <ele>748.8</ele>
        <time>2022-04-03T08:13:42Z</time>
      </trkpt>
      <trkpt lat="38.216736" lon="-2.453974">
        <ele>742.1</ele>
        <time>2022-04-03T08:14:02Z</time>
      </trkpt>
      <trkpt lat="38.216896" lon="-2.453880">
        <ele>729.8</ele>
        <time>2022-04-03T08:14:22Z</time>
      </trkpt>
      <trkpt lat="38.217093" lon="-2.453644">
        <ele>729.8</ele>
        <time>2022-04-03T08:14:35Z</time>
      </trkpt>
      <trkpt lat="38.217195" lon="-2.453524">
        <ele>731.8</ele>
        <time>2022-04-03T08:14:51Z</time>
      </trkpt>
      <trkpt lat="38.217335" lon="-2.453372">
        <ele>730.8</ele>
        <time>2022-04-03T08:15:13Z</time>
      </trkpt>
      <trkpt lat="38.217455" lon="-2.453299">
        <ele>731.8</ele>
        <time>2022-04-03T08:15:26Z</time>
      </trkpt>
      <trkpt lat="38.217619" lon="-2.453262">
        <ele>734.8</ele>
        <time>2022-04-03T08:15:39Z</time>
      </trkpt>
      <trkpt lat="38.217792" lon="-2.453236">
        <ele>737.5</ele>
        <time>2022-04-03T08:15:56Z</time>
      </trkpt>
      <trkpt lat="38.217956" lon="-2.453199">
        <ele>735.8</ele>
        <time>2022-04-03T08:16:13Z</time>
      </trkpt>
      <trkpt lat="38.218203" lon="-2.453189">
        <ele>733.8</ele>
        <time>2022-04-03T08:16:30Z</time>
      </trkpt>
      <trkpt lat="38.218441" lon="-2.453048">
        <ele>734.8</ele>
        <time>2022-04-03T08:16:43Z</time>
      </trkpt>
      <trkpt lat="38.218557" lon="-2.452938">
        <ele>733.8</ele>
        <time>2022-04-03T08:16:56Z</time>
      </trkpt>
      <trkpt lat="38.218680" lon="-2.452771">
        <ele>734.1</ele>
        <time>2022-04-03T08:17:11Z</time>
      </trkpt>
      <trkpt lat="38.218807" lon="-2.452639">
        <ele>738.8</ele>
        <time>2022-04-03T08:17:26Z</time>
      </trkpt>
      <trkpt lat="38.218968" lon="-2.452456">
        <ele>741.8</ele>
        <time>2022-04-03T08:17:44Z</time>
      </trkpt>
      <trkpt lat="38.219136" lon="-2.452247">
        <ele>742.8</ele>
        <time>2022-04-03T08:17:57Z</time>
      </trkpt>
      <trkpt lat="38.219247" lon="-2.452080">
        <ele>741.8</ele>
        <time>2022-04-03T08:18:14Z</time>
      </trkpt>
      <trkpt lat="38.219313" lon="-2.451865">
        <ele>743.4</ele>
        <time>2022-04-03T08:18:35Z</time>
      </trkpt>
      <trkpt lat="38.219366" lon="-2.451646">
        <ele>746.1</ele>
        <time>2022-04-03T08:18:48Z</time>
      </trkpt>
      <trkpt lat="38.219397" lon="-2.451396">
        <ele>749.8</ele>
        <time>2022-04-03T08:19:04Z</time>
      </trkpt>
      <trkpt lat="38.219399" lon="-2.451164">
        <ele>751.8</ele>
        <time>2022-04-03T08:19:17Z</time>
      </trkpt>
      <trkpt lat="38.219400" lon="-2.450929">
        <ele>753.8</ele>
        <time>2022-04-03T08:19:36Z</time>
      </trkpt>
      <trkpt lat="38.219447" lon="-2.450700">
        <ele>752.8</ele>
        <time>2022-04-03T08:19:52Z</time>
      </trkpt>
      <trkpt lat="38.219470" lon="-2.450468">
        <ele>751.8</ele>
        <time>2022-04-03T08:20:05Z</time>
      </trkpt>
      <trkpt lat="38.219500" lon="-2.450234">
        <ele>753.7</ele>
        <time>2022-04-03T08:20:23Z</time>
      </trkpt>
      <trkpt lat="38.219594" lon="-2.450038">
        <ele>750.1</ele>
        <time>2022-04-03T08:20:39Z</time>
      </trkpt>
      <trkpt lat="38.219725" lon="-2.449878">
        <ele>751.7</ele>
        <time>2022-04-03T08:20:57Z</time>
      </trkpt>
      <trkpt lat="38.219836" lon="-2.449692">
        <ele>752.8</ele>
        <time>2022-04-03T08:21:07Z</time>
      </trkpt>
      <trkpt lat="38.219939" lon="-2.449494">
        <ele>756.8</ele>
        <time>2022-04-03T08:21:24Z</time>
      </trkpt>
      <trkpt lat="38.220066" lon="-2.449362">
        <ele>758.8</ele>
        <time>2022-04-03T08:21:39Z</time>
      </trkpt>
      <trkpt lat="38.220207" lon="-2.449171">
        <ele>759.8</ele>
        <time>2022-04-03T08:21:53Z</time>
      </trkpt>
      <trkpt lat="38.220344" lon="-2.449013">
        <ele>760.8</ele>
        <time>2022-04-03T08:22:08Z</time>
      </trkpt>
      <trkpt lat="38.220460" lon="-2.448861">
        <ele>761.8</ele>
        <time>2022-04-03T08:22:27Z</time>
      </trkpt>
      <trkpt lat="38.220639" lon="-2.448714">
        <ele>763.7</ele>
        <time>2022-04-03T08:22:43Z</time>
      </trkpt>
      <trkpt lat="38.220788" lon="-2.448611">
        <ele>763.8</ele>
        <time>2022-04-03T08:22:56Z</time>
      </trkpt>
      <trkpt lat="38.220891" lon="-2.448491">
        <ele>766.5</ele>
        <time>2022-04-03T08:23:12Z</time>
      </trkpt>
      <trkpt lat="38.221084" lon="-2.448371">
        <ele>766.8</ele>
        <time>2022-04-03T08:23:30Z</time>
      </trkpt>
      <trkpt lat="38.221238" lon="-2.448257">
        <ele>768.8</ele>
        <time>2022-04-03T08:23:44Z</time>
      </trkpt>
      <trkpt lat="38.221391" lon="-2.448137">
        <ele>767.9</ele>
        <time>2022-04-03T08:24:00Z</time>
      </trkpt>
      <trkpt lat="38.221515" lon="-2.447844">
        <ele>768.8</ele>
        <time>2022-04-03T08:24:18Z</time>
      </trkpt>
      <trkpt lat="38.221656" lon="-2.447631">
        <ele>766.8</ele>
        <time>2022-04-03T08:24:34Z</time>
      </trkpt>
      <trkpt lat="38.221768" lon="-2.447452">
        <ele>768.7</ele>
        <time>2022-04-03T08:24:49Z</time>
      </trkpt>
      <trkpt lat="38.221853" lon="-2.447305">
        <ele>772.8</ele>
        <time>2022-04-03T08:25:05Z</time>
      </trkpt>
      <trkpt lat="38.221956" lon="-2.447125">
        <ele>776.5</ele>
        <time>2022-04-03T08:25:21Z</time>
      </trkpt>
      <trkpt lat="38.222054" lon="-2.446919">
        <ele>777.8</ele>
        <time>2022-04-03T08:25:37Z</time>
      </trkpt>
      <trkpt lat="38.222135" lon="-2.446728">
        <ele>779.5</ele>
        <time>2022-04-03T08:25:53Z</time>
      </trkpt>
      <trkpt lat="38.222174" lon="-2.446532">
        <ele>782.9</ele>
        <time>2022-04-03T08:26:07Z</time>
      </trkpt>
      <trkpt lat="38.222255" lon="-2.446434">
        <ele>785.8</ele>
        <time>2022-04-03T08:26:26Z</time>
      </trkpt>
      <trkpt lat="38.222326" lon="-2.446345">
        <ele>779.8</ele>
        <time>2022-04-03T08:26:51Z</time>
      </trkpt>
      <trkpt lat="38.222476" lon="-2.446487">
        <ele>777.8</ele>
        <time>2022-04-03T08:27:08Z</time>
      </trkpt>
      <trkpt lat="38.222652" lon="-2.446679">
        <ele>780.7</ele>
        <time>2022-04-03T08:27:20Z</time>
      </trkpt>
      <trkpt lat="38.222819" lon="-2.446712">
        <ele>780.8</ele>
        <time>2022-04-03T08:27:32Z</time>
      </trkpt>
      <trkpt lat="38.223067" lon="-2.446750">
        <ele>779.9</ele>
        <time>2022-04-03T08:27:47Z</time>
      </trkpt>
      <trkpt lat="38.223281" lon="-2.446695">
        <ele>779.1</ele>
        <time>2022-04-03T08:28:02Z</time>
      </trkpt>
      <trkpt lat="38.223465" lon="-2.446603">
        <ele>779.8</ele>
        <time>2022-04-03T08:28:15Z</time>
      </trkpt>
      <trkpt lat="38.223631" lon="-2.446587">
        <ele>780.8</ele>
        <time>2022-04-03T08:28:34Z</time>
      </trkpt>
      <trkpt lat="38.223828" lon="-2.446462">
        <ele>779.5</ele>
        <time>2022-04-03T08:28:46Z</time>
      </trkpt>
      <trkpt lat="38.223990" lon="-2.446342">
        <ele>784.8</ele>
        <time>2022-04-03T08:29:00Z</time>
      </trkpt>
      <trkpt lat="38.224075" lon="-2.446168">
        <ele>787.8</ele>
        <time>2022-04-03T08:29:15Z</time>
      </trkpt>
      <trkpt lat="38.224193" lon="-2.445984">
        <ele>792.8</ele>
        <time>2022-04-03T08:29:30Z</time>
      </trkpt>
      <trkpt lat="38.224319" lon="-2.445818">
        <ele>792.8</ele>
        <time>2022-04-03T08:29:47Z</time>
      </trkpt>
      <trkpt lat="38.224405" lon="-2.445606">
        <ele>792.8</ele>
        <time>2022-04-03T08:30:07Z</time>
      </trkpt>
      <trkpt lat="38.224497" lon="-2.445398">
        <ele>795.5</ele>
        <time>2022-04-03T08:30:24Z</time>
      </trkpt>
      <trkpt lat="38.224561" lon="-2.445181">
        <ele>795.1</ele>
        <time>2022-04-03T08:30:39Z</time>
      </trkpt>
      <trkpt lat="38.224644" lon="-2.444976">
        <ele>794.1</ele>
        <time>2022-04-03T08:30:55Z</time>
      </trkpt>
      <trkpt lat="38.224717" lon="-2.444715">
        <ele>796.5</ele>
        <time>2022-04-03T08:31:17Z</time>
      </trkpt>
      <trkpt lat="38.224765" lon="-2.444530">
        <ele>799.8</ele>
        <time>2022-04-03T08:31:33Z</time>
      </trkpt>
      <trkpt lat="38.224812" lon="-2.444305">
        <ele>798.8</ele>
        <time>2022-04-03T08:31:50Z</time>
      </trkpt>
      <trkpt lat="38.224903" lon="-2.444101">
        <ele>804.5</ele>
        <time>2022-04-03T08:32:09Z</time>
      </trkpt>
      <trkpt lat="38.225063" lon="-2.444236">
        <ele>801.8</ele>
        <time>2022-04-03T08:32:23Z</time>
      </trkpt>
      <trkpt lat="38.225243" lon="-2.444312">
        <ele>801.8</ele>
        <time>2022-04-03T08:32:38Z</time>
      </trkpt>
      <trkpt lat="38.225431" lon="-2.444432">
        <ele>804.8</ele>
        <time>2022-04-03T08:32:55Z</time>
      </trkpt>
      <trkpt lat="38.225649" lon="-2.444476">
        <ele>809.8</ele>
        <time>2022-04-03T08:33:05Z</time>
      </trkpt>
      <trkpt lat="38.225854" lon="-2.444427">
        <ele>813.0</ele>
        <time>2022-04-03T08:33:22Z</time>
      </trkpt>
      <trkpt lat="38.226004" lon="-2.444279">
        <ele>814.8</ele>
        <time>2022-04-03T08:33:34Z</time>
      </trkpt>
      <trkpt lat="38.226145" lon="-2.444117">
        <ele>817.8</ele>
        <time>2022-04-03T08:33:51Z</time>
      </trkpt>
      <trkpt lat="38.226255" lon="-2.443931">
        <ele>818.5</ele>
        <time>2022-04-03T08:34:05Z</time>
      </trkpt>
      <trkpt lat="38.226392" lon="-2.443779">
        <ele>819.8</ele>
        <time>2022-04-03T08:34:21Z</time>
      </trkpt>
      <trkpt lat="38.226534" lon="-2.443627">
        <ele>819.8</ele>
        <time>2022-04-03T08:34:39Z</time>
      </trkpt>
      <trkpt lat="38.226717" lon="-2.443523">
        <ele>818.8</ele>
        <time>2022-04-03T08:34:55Z</time>
      </trkpt>
      <trkpt lat="38.226841" lon="-2.443349">
        <ele>817.8</ele>
        <time>2022-04-03T08:35:11Z</time>
      </trkpt>
      <trkpt lat="38.226982" lon="-2.443185">
        <ele>817.8</ele>
        <time>2022-04-03T08:35:27Z</time>
      </trkpt>
      <trkpt lat="38.227119" lon="-2.443012">
        <ele>814.1</ele>
        <time>2022-04-03T08:35:47Z</time>
      </trkpt>
      <trkpt lat="38.227337" lon="-2.442827">
        <ele>814.9</ele>
        <time>2022-04-03T08:36:05Z</time>
      </trkpt>
      <trkpt lat="38.227478" lon="-2.442582">
        <ele>814.8</ele>
        <time>2022-04-03T08:36:20Z</time>
      </trkpt>
      <trkpt lat="38.227465" lon="-2.442310">
        <ele>820.5</ele>
        <time>2022-04-03T08:36:40Z</time>
      </trkpt>
      <trkpt lat="38.227445" lon="-2.442142">
        <ele>845.1</ele>
        <time>2022-04-03T08:36:51Z</time>
      </trkpt>
      <trkpt lat="38.227553" lon="-2.441947">
        <ele>842.8</ele>
        <time>2022-04-03T08:37:09Z</time>
      </trkpt>
      <trkpt lat="38.227555" lon="-2.441695">
        <ele>842.1</ele>
        <time>2022-04-03T08:37:25Z</time>
      </trkpt>
      <trkpt lat="38.227628" lon="-2.441456">
        <ele>842.7</ele>
        <time>2022-04-03T08:37:45Z</time>
      </trkpt>
      <trkpt lat="38.227679" lon="-2.441222">
        <ele>843.8</ele>
        <time>2022-04-03T08:38:03Z</time>
      </trkpt>
      <trkpt lat="38.227722" lon="-2.441039">
        <ele>848.5</ele>
        <time>2022-04-03T08:38:23Z</time>
      </trkpt>
      <trkpt lat="38.227719" lon="-2.440809">
        <ele>848.8</ele>
        <time>2022-04-03T08:38:35Z</time>
      </trkpt>
      <trkpt lat="38.227644" lon="-2.440599">
        <ele>850.8</ele>
        <time>2022-04-03T08:38:51Z</time>
      </trkpt>
      <trkpt lat="38.227645" lon="-2.440395">
        <ele>848.8</ele>
        <time>2022-04-03T08:39:06Z</time>
      </trkpt>
      <trkpt lat="38.227628" lon="-2.440161">
        <ele>853.5</ele>
        <time>2022-04-03T08:39:21Z</time>
      </trkpt>
      <trkpt lat="38.227596" lon="-2.439940">
        <ele>850.8</ele>
        <time>2022-04-03T08:39:37Z</time>
      </trkpt>
      <trkpt lat="38.227700" lon="-2.439745">
        <ele>849.1</ele>
        <time>2022-04-03T08:39:50Z</time>
      </trkpt>
      <trkpt lat="38.227747" lon="-2.439519">
        <ele>847.8</ele>
        <time>2022-04-03T08:40:06Z</time>
      </trkpt>
      <trkpt lat="38.227716" lon="-2.439292">
        <ele>848.9</ele>
        <time>2022-04-03T08:40:36Z</time>
      </trkpt>
      <trkpt lat="38.227693" lon="-2.439054">
        <ele>846.9</ele>
        <time>2022-04-03T08:40:56Z</time>
      </trkpt>
      <trkpt lat="38.227752" lon="-2.438838">
        <ele>849.8</ele>
        <time>2022-04-03T08:41:09Z</time>
      </trkpt>
      <trkpt lat="38.227743" lon="-2.438615">
        <ele>853.7</ele>
        <time>2022-04-03T08:41:28Z</time>
      </trkpt>
      <trkpt lat="38.227825" lon="-2.438403">
        <ele>855.8</ele>
        <time>2022-04-03T08:41:40Z</time>
      </trkpt>
      <trkpt lat="38.227936" lon="-2.438283">
        <ele>855.8</ele>
        <time>2022-04-03T08:41:58Z</time>
      </trkpt>
      <trkpt lat="38.228036" lon="-2.438105">
        <ele>849.8</ele>
        <time>2022-04-03T08:42:13Z</time>
      </trkpt>
      <trkpt lat="38.228170" lon="-2.437940">
        <ele>849.8</ele>
        <time>2022-04-03T08:42:33Z</time>
      </trkpt>
      <trkpt lat="38.228249" lon="-2.437725">
        <ele>854.8</ele>
        <time>2022-04-03T08:42:50Z</time>
      </trkpt>
      <trkpt lat="38.228335" lon="-2.437520">
        <ele>855.8</ele>
        <time>2022-04-03T08:43:04Z</time>
      </trkpt>
      <trkpt lat="38.228427" lon="-2.437312">
        <ele>853.8</ele>
        <time>2022-04-03T08:43:22Z</time>
      </trkpt>
      <trkpt lat="38.228490" lon="-2.437092">
        <ele>856.8</ele>
        <time>2022-04-03T08:43:40Z</time>
      </trkpt>
      <trkpt lat="38.228510" lon="-2.436862">
        <ele>861.8</ele>
        <time>2022-04-03T08:43:57Z</time>
      </trkpt>
      <trkpt lat="38.228498" lon="-2.436630">
        <ele>867.7</ele>
        <time>2022-04-03T08:44:12Z</time>
      </trkpt>
      <trkpt lat="38.228529" lon="-2.436363">
        <ele>872.5</ele>
        <time>2022-04-03T08:44:31Z</time>
      </trkpt>
      <trkpt lat="38.228457" lon="-2.436124">
        <ele>873.1</ele>
        <time>2022-04-03T08:44:44Z</time>
      </trkpt>
      <trkpt lat="38.228378" lon="-2.435958">
        <ele>870.8</ele>
        <time>2022-04-03T08:45:03Z</time>
      </trkpt>
      <trkpt lat="38.228273" lon="-2.435769">
        <ele>871.7</ele>
        <time>2022-04-03T08:45:24Z</time>
      </trkpt>
      <trkpt lat="38.228160" lon="-2.435590">
        <ele>872.8</ele>
        <time>2022-04-03T08:45:40Z</time>
      </trkpt>
      <trkpt lat="38.228068" lon="-2.435443">
        <ele>872.8</ele>
        <time>2022-04-03T08:45:58Z</time>
      </trkpt>
      <trkpt lat="38.227957" lon="-2.435253">
        <ele>872.8</ele>
        <time>2022-04-03T08:46:20Z</time>
      </trkpt>
      <trkpt lat="38.227914" lon="-2.435030">
        <ele>887.8</ele>
        <time>2022-04-03T08:49:32Z</time>
      </trkpt>
      <trkpt lat="38.227872" lon="-2.434845">
        <ele>885.9</ele>
        <time>2022-04-03T08:49:44Z</time>
      </trkpt>
      <trkpt lat="38.227825" lon="-2.434600">
        <ele>884.8</ele>
        <time>2022-04-03T08:50:00Z</time>
      </trkpt>
      <trkpt lat="38.227761" lon="-2.434430">
        <ele>883.8</ele>
        <time>2022-04-03T08:50:15Z</time>
      </trkpt>
      <trkpt lat="38.227709" lon="-2.434208">
        <ele>885.8</ele>
        <time>2022-04-03T08:50:25Z</time>
      </trkpt>
      <trkpt lat="38.227671" lon="-2.433979">
        <ele>888.7</ele>
        <time>2022-04-03T08:50:36Z</time>
      </trkpt>
      <trkpt lat="38.227599" lon="-2.433785">
        <ele>887.8</ele>
        <time>2022-04-03T08:50:48Z</time>
      </trkpt>
      <trkpt lat="38.227624" lon="-2.433547">
        <ele>891.5</ele>
        <time>2022-04-03T08:51:02Z</time>
      </trkpt>
      <trkpt lat="38.227552" lon="-2.433332">
        <ele>892.8</ele>
        <time>2022-04-03T08:52:11Z</time>
      </trkpt>
      <trkpt lat="38.227542" lon="-2.433092">
        <ele>892.8</ele>
        <time>2022-04-03T08:52:25Z</time>
      </trkpt>
      <trkpt lat="38.227547" lon="-2.432859">
        <ele>894.7</ele>
        <time>2022-04-03T08:52:37Z</time>
      </trkpt>
      <trkpt lat="38.227561" lon="-2.432619">
        <ele>897.8</ele>
        <time>2022-04-03T08:52:48Z</time>
      </trkpt>
      <trkpt lat="38.227575" lon="-2.432383">
        <ele>897.8</ele>
        <time>2022-04-03T08:52:59Z</time>
      </trkpt>
      <trkpt lat="38.227591" lon="-2.432138">
        <ele>901.8</ele>
        <time>2022-04-03T08:53:12Z</time>
      </trkpt>
      <trkpt lat="38.227586" lon="-2.431898">
        <ele>905.7</ele>
        <time>2022-04-03T08:53:27Z</time>
      </trkpt>
      <trkpt lat="38.227606" lon="-2.431669">
        <ele>907.5</ele>
        <time>2022-04-03T08:53:39Z</time>
      </trkpt>
      <trkpt lat="38.227645" lon="-2.431443">
        <ele>907.8</ele>
        <time>2022-04-03T08:53:52Z</time>
      </trkpt>
      <trkpt lat="38.227720" lon="-2.431219">
        <ele>908.7</ele>
        <time>2022-04-03T08:54:05Z</time>
      </trkpt>
      <trkpt lat="38.227749" lon="-2.430985">
        <ele>907.7</ele>
        <time>2022-04-03T08:54:18Z</time>
      </trkpt>
      <trkpt lat="38.227791" lon="-2.430745">
        <ele>910.8</ele>
        <time>2022-04-03T08:54:31Z</time>
      </trkpt>
      <trkpt lat="38.227879" lon="-2.430534">
        <ele>913.1</ele>
        <time>2022-04-03T08:54:45Z</time>
      </trkpt>
      <trkpt lat="38.228040" lon="-2.430512">
        <ele>910.1</ele>
        <time>2022-04-03T08:55:01Z</time>
      </trkpt>
      <trkpt lat="38.228227" lon="-2.430471">
        <ele>909.1</ele>
        <time>2022-04-03T08:55:16Z</time>
      </trkpt>
      <trkpt lat="38.228409" lon="-2.430451">
        <ele>909.8</ele>
        <time>2022-04-03T08:55:28Z</time>
      </trkpt>
      <trkpt lat="38.228596" lon="-2.430437">
        <ele>911.8</ele>
        <time>2022-04-03T08:55:40Z</time>
      </trkpt>
      <trkpt lat="38.228783" lon="-2.430444">
        <ele>913.8</ele>
        <time>2022-04-03T08:55:53Z</time>
      </trkpt>
      <trkpt lat="38.228970" lon="-2.430437">
        <ele>915.7</ele>
        <time>2022-04-03T08:56:06Z</time>
      </trkpt>
      <trkpt lat="38.229162" lon="-2.430391">
        <ele>919.7</ele>
        <time>2022-04-03T08:56:25Z</time>
      </trkpt>
      <trkpt lat="38.229350" lon="-2.430415">
        <ele>922.5</ele>
        <time>2022-04-03T08:56:38Z</time>
      </trkpt>
      <trkpt lat="38.229540" lon="-2.430378">
        <ele>924.8</ele>
        <time>2022-04-03T08:56:52Z</time>
      </trkpt>
      <trkpt lat="38.229716" lon="-2.430296">
        <ele>922.9</ele>
        <time>2022-04-03T08:57:06Z</time>
      </trkpt>
      <trkpt lat="38.229896" lon="-2.430247">
        <ele>923.8</ele>
        <time>2022-04-03T08:57:26Z</time>
      </trkpt>
      <trkpt lat="38.230063" lon="-2.430149">
        <ele>926.1</ele>
        <time>2022-04-03T08:57:37Z</time>
      </trkpt>
      <trkpt lat="38.230223" lon="-2.430018">
        <ele>925.8</ele>
        <time>2022-04-03T08:57:51Z</time>
      </trkpt>
      <trkpt lat="38.230369" lon="-2.429870">
        <ele>922.2</ele>
        <time>2022-04-03T08:58:03Z</time>
      </trkpt>
      <trkpt lat="38.230484" lon="-2.429680">
        <ele>924.5</ele>
        <time>2022-04-03T08:58:15Z</time>
      </trkpt>
      <trkpt lat="38.230584" lon="-2.429488">
        <ele>929.0</ele>
        <time>2022-04-03T08:58:28Z</time>
      </trkpt>
      <trkpt lat="38.230639" lon="-2.429264">
        <ele>927.8</ele>
        <time>2022-04-03T08:58:42Z</time>
      </trkpt>
      <trkpt lat="38.230748" lon="-2.429084">
        <ele>927.0</ele>
        <time>2022-04-03T08:58:55Z</time>
      </trkpt>
      <trkpt lat="38.230850" lon="-2.428887">
        <ele>928.8</ele>
        <time>2022-04-03T08:59:08Z</time>
      </trkpt>
      <trkpt lat="38.230967" lon="-2.428703">
        <ele>926.8</ele>
        <time>2022-04-03T08:59:21Z</time>
      </trkpt>
      <trkpt lat="38.231117" lon="-2.428554">
        <ele>930.8</ele>
        <time>2022-04-03T08:59:34Z</time>
      </trkpt>
      <trkpt lat="38.231266" lon="-2.428540">
        <ele>931.8</ele>
        <time>2022-04-03T08:59:49Z</time>
      </trkpt>
      <trkpt lat="38.231399" lon="-2.428630">
        <ele>936.5</ele>
        <time>2022-04-03T09:00:03Z</time>
      </trkpt>
      <trkpt lat="38.231430" lon="-2.428856">
        <ele>939.0</ele>
        <time>2022-04-03T09:00:16Z</time>
      </trkpt>
      <trkpt lat="38.231449" lon="-2.429085">
        <ele>941.7</ele>
        <time>2022-04-03T09:00:28Z</time>
      </trkpt>
      <trkpt lat="38.231553" lon="-2.429282">
        <ele>945.1</ele>
        <time>2022-04-03T09:00:47Z</time>
      </trkpt>
      <trkpt lat="38.231728" lon="-2.429371">
        <ele>944.9</ele>
        <time>2022-04-03T09:00:59Z</time>
      </trkpt>
      <trkpt lat="38.231895" lon="-2.429454">
        <ele>946.7</ele>
        <time>2022-04-03T09:01:09Z</time>
      </trkpt>
      <trkpt lat="38.232068" lon="-2.429546">
        <ele>949.5</ele>
        <time>2022-04-03T09:01:23Z</time>
      </trkpt>
      <trkpt lat="38.232241" lon="-2.429635">
        <ele>946.9</ele>
        <time>2022-04-03T09:01:37Z</time>
      </trkpt>
      <trkpt lat="38.232400" lon="-2.429759">
        <ele>946.8</ele>
        <time>2022-04-03T09:01:50Z</time>
      </trkpt>
      <trkpt lat="38.232584" lon="-2.429787">
        <ele>946.8</ele>
        <time>2022-04-03T09:02:03Z</time>
      </trkpt>
      <trkpt lat="38.232759" lon="-2.429702">
        <ele>946.8</ele>
        <time>2022-04-03T09:02:14Z</time>
      </trkpt>
      <trkpt lat="38.232904" lon="-2.429537">
        <ele>945.8</ele>
        <time>2022-04-03T09:02:27Z</time>
      </trkpt>
      <trkpt lat="38.233039" lon="-2.429370">
        <ele>944.8</ele>
        <time>2022-04-03T09:02:38Z</time>
      </trkpt>
      <trkpt lat="38.233189" lon="-2.429343">
        <ele>945.8</ele>
        <time>2022-04-03T09:02:50Z</time>
      </trkpt>
      <trkpt lat="38.233363" lon="-2.429391">
        <ele>948.5</ele>
        <time>2022-04-03T09:03:03Z</time>
      </trkpt>
      <trkpt lat="38.233518" lon="-2.429531">
        <ele>951.5</ele>
        <time>2022-04-03T09:03:15Z</time>
      </trkpt>
      <trkpt lat="38.233681" lon="-2.429636">
        <ele>952.8</ele>
        <time>2022-04-03T09:03:28Z</time>
      </trkpt>
      <trkpt lat="38.233841" lon="-2.429756">
        <ele>955.8</ele>
        <time>2022-04-03T09:03:41Z</time>
      </trkpt>
      <trkpt lat="38.233993" lon="-2.429905">
        <ele>958.8</ele>
        <time>2022-04-03T09:03:57Z</time>
      </trkpt>
      <trkpt lat="38.234100" lon="-2.430099">
        <ele>957.8</ele>
        <time>2022-04-03T09:04:16Z</time>
      </trkpt>
      <trkpt lat="38.234201" lon="-2.430302">
        <ele>964.5</ele>
        <time>2022-04-03T09:04:37Z</time>
      </trkpt>
      <trkpt lat="38.234264" lon="-2.430522">
        <ele>967.6</ele>
        <time>2022-04-03T09:04:55Z</time>
      </trkpt>
      <trkpt lat="38.234319" lon="-2.430743">
        <ele>965.1</ele>
        <time>2022-04-03T09:05:13Z</time>
      </trkpt>
      <trkpt lat="38.234383" lon="-2.430966">
        <ele>964.8</ele>
        <time>2022-04-03T09:05:33Z</time>
      </trkpt>
      <trkpt lat="38.234569" lon="-2.430993">
        <ele>966.8</ele>
        <time>2022-04-03T09:06:42Z</time>
      </trkpt>
      <trkpt lat="38.234725" lon="-2.431081">
        <ele>966.8</ele>
        <time>2022-04-03T09:06:57Z</time>
      </trkpt>
      <trkpt lat="38.234955" lon="-2.431213">
        <ele>966.8</ele>
        <time>2022-04-03T09:07:24Z</time>
      </trkpt>
      <trkpt lat="38.234782" lon="-2.431052">
        <ele>973.5</ele>
        <time>2022-04-03T09:35:21Z</time>
      </trkpt>
      <trkpt lat="38.234917" lon="-2.431018">
        <ele>972.8</ele>
        <time>2022-04-03T09:36:05Z</time>
      </trkpt>
      <trkpt lat="38.235101" lon="-2.430986">
        <ele>972.8</ele>
        <time>2022-04-03T09:36:25Z</time>
      </trkpt>
      <trkpt lat="38.235285" lon="-2.430933">
        <ele>971.8</ele>
        <time>2022-04-03T09:36:43Z</time>
      </trkpt>
      <trkpt lat="38.235437" lon="-2.430798">
        <ele>969.9</ele>
        <time>2022-04-03T09:36:57Z</time>
      </trkpt>
      <trkpt lat="38.235525" lon="-2.430606">
        <ele>967.9</ele>
        <time>2022-04-03T09:37:15Z</time>
      </trkpt>
      <trkpt lat="38.235637" lon="-2.430418">
        <ele>965.5</ele>
        <time>2022-04-03T09:37:32Z</time>
      </trkpt>
      <trkpt lat="38.235741" lon="-2.430233">
        <ele>962.8</ele>
        <time>2022-04-03T09:37:49Z</time>
      </trkpt>
      <trkpt lat="38.235834" lon="-2.430027">
        <ele>961.6</ele>
        <time>2022-04-03T09:38:05Z</time>
      </trkpt>
      <trkpt lat="38.235909" lon="-2.429793">
        <ele>961.9</ele>
        <time>2022-04-03T09:38:21Z</time>
      </trkpt>
      <trkpt lat="38.236119" lon="-2.429902">
        <ele>969.5</ele>
        <time>2022-04-03T09:38:42Z</time>
      </trkpt>
      <trkpt lat="38.236267" lon="-2.430003">
        <ele>974.5</ele>
        <time>2022-04-03T09:39:00Z</time>
      </trkpt>
      <trkpt lat="38.236441" lon="-2.430082">
        <ele>977.7</ele>
        <time>2022-04-03T09:39:19Z</time>
      </trkpt>
      <trkpt lat="38.236622" lon="-2.430047">
        <ele>978.8</ele>
        <time>2022-04-03T09:39:46Z</time>
      </trkpt>
      <trkpt lat="38.236802" lon="-2.430031">
        <ele>980.1</ele>
        <time>2022-04-03T09:40:10Z</time>
      </trkpt>
      <trkpt lat="38.236961" lon="-2.429908">
        <ele>979.9</ele>
        <time>2022-04-03T09:40:29Z</time>
      </trkpt>
      <trkpt lat="38.237093" lon="-2.429752">
        <ele>978.8</ele>
        <time>2022-04-03T09:40:47Z</time>
      </trkpt>
      <trkpt lat="38.237172" lon="-2.429546">
        <ele>983.0</ele>
        <time>2022-04-03T09:41:11Z</time>
      </trkpt>
      <trkpt lat="38.237277" lon="-2.429347">
        <ele>984.8</ele>
        <time>2022-04-03T09:41:28Z</time>
      </trkpt>
      <trkpt lat="38.237373" lon="-2.429138">
        <ele>993.2</ele>
        <time>2022-04-03T09:42:12Z</time>
      </trkpt>
      <trkpt lat="38.237510" lon="-2.428987">
        <ele>989.9</ele>
        <time>2022-04-03T09:42:25Z</time>
      </trkpt>
      <trkpt lat="38.237590" lon="-2.428769">
        <ele>984.7</ele>
        <time>2022-04-03T09:42:41Z</time>
      </trkpt>
      <trkpt lat="38.237571" lon="-2.428531">
        <ele>984.9</ele>
        <time>2022-04-03T09:43:25Z</time>
      </trkpt>
      <trkpt lat="38.237548" lon="-2.428291">
        <ele>983.2</ele>
        <time>2022-04-03T09:43:43Z</time>
      </trkpt>
      <trkpt lat="38.237532" lon="-2.428052">
        <ele>981.1</ele>
        <time>2022-04-03T09:43:58Z</time>
      </trkpt>
      <trkpt lat="38.237556" lon="-2.427819">
        <ele>974.9</ele>
        <time>2022-04-03T09:44:13Z</time>
      </trkpt>
      <trkpt lat="38.237587" lon="-2.427593">
        <ele>971.8</ele>
        <time>2022-04-03T09:44:27Z</time>
      </trkpt>
      <trkpt lat="38.237631" lon="-2.427367">
        <ele>971.5</ele>
        <time>2022-04-03T09:44:42Z</time>
      </trkpt>
      <trkpt lat="38.237760" lon="-2.427189">
        <ele>970.8</ele>
        <time>2022-04-03T09:44:57Z</time>
      </trkpt>
      <trkpt lat="38.237903" lon="-2.427022">
        <ele>975.8</ele>
        <time>2022-04-03T09:45:13Z</time>
      </trkpt>
      <trkpt lat="38.238034" lon="-2.426865">
        <ele>971.9</ele>
        <time>2022-04-03T09:45:27Z</time>
      </trkpt>
      <trkpt lat="38.238178" lon="-2.426713">
        <ele>973.8</ele>
        <time>2022-04-03T09:45:42Z</time>
      </trkpt>
      <trkpt lat="38.238323" lon="-2.426568">
        <ele>977.8</ele>
        <time>2022-04-03T09:46:08Z</time>
      </trkpt>
      <trkpt lat="38.238485" lon="-2.426443">
        <ele>977.9</ele>
        <time>2022-04-03T09:46:23Z</time>
      </trkpt>
      <trkpt lat="38.238641" lon="-2.426325">
        <ele>978.8</ele>
        <time>2022-04-03T09:46:38Z</time>
      </trkpt>
      <trkpt lat="38.238830" lon="-2.426290">
        <ele>983.9</ele>
        <time>2022-04-03T09:47:07Z</time>
      </trkpt>
      <trkpt lat="38.239012" lon="-2.426248">
        <ele>984.8</ele>
        <time>2022-04-03T09:47:21Z</time>
      </trkpt>
      <trkpt lat="38.239205" lon="-2.426249">
        <ele>987.8</ele>
        <time>2022-04-03T09:47:40Z</time>
      </trkpt>
      <trkpt lat="38.239393" lon="-2.426210">
        <ele>988.9</ele>
        <time>2022-04-03T09:47:54Z</time>
      </trkpt>
      <trkpt lat="38.239572" lon="-2.426266">
        <ele>989.9</ele>
        <time>2022-04-03T09:48:08Z</time>
      </trkpt>
      <trkpt lat="38.239751" lon="-2.426288">
        <ele>990.8</ele>
        <time>2022-04-03T09:48:24Z</time>
      </trkpt>
      <trkpt lat="38.239921" lon="-2.426199">
        <ele>987.9</ele>
        <time>2022-04-03T09:48:37Z</time>
      </trkpt>
      <trkpt lat="38.240008" lon="-2.425990">
        <ele>983.8</ele>
        <time>2022-04-03T09:48:58Z</time>
      </trkpt>
      <trkpt lat="38.239997" lon="-2.425762">
        <ele>995.6</ele>
        <time>2022-04-03T09:49:39Z</time>
      </trkpt>
      <trkpt lat="38.240050" lon="-2.425533">
        <ele>1004.6</ele>
        <time>2022-04-03T09:50:52Z</time>
      </trkpt>
      <trkpt lat="38.240233" lon="-2.425533">
        <ele>1009.0</ele>
        <time>2022-04-03T09:51:23Z</time>
      </trkpt>
      <trkpt lat="38.240399" lon="-2.425660">
        <ele>1005.9</ele>
        <time>2022-04-03T09:51:54Z</time>
      </trkpt>
      <trkpt lat="38.240535" lon="-2.425811">
        <ele>1005.8</ele>
        <time>2022-04-03T09:52:09Z</time>
      </trkpt>
      <trkpt lat="38.240724" lon="-2.425852">
        <ele>1004.9</ele>
        <time>2022-04-03T09:52:27Z</time>
      </trkpt>
      <trkpt lat="38.240914" lon="-2.425865">
        <ele>1006.9</ele>
        <time>2022-04-03T09:52:39Z</time>
      </trkpt>
      <trkpt lat="38.241087" lon="-2.425779">
        <ele>1006.9</ele>
        <time>2022-04-03T09:52:53Z</time>
      </trkpt>
      <trkpt lat="38.241250" lon="-2.425673">
        <ele>1008.7</ele>
        <time>2022-04-03T09:53:06Z</time>
      </trkpt>
      <trkpt lat="38.241411" lon="-2.425549">
        <ele>1010.6</ele>
        <time>2022-04-03T09:53:20Z</time>
      </trkpt>
      <trkpt lat="38.241566" lon="-2.425430">
        <ele>1011.9</ele>
        <time>2022-04-03T09:53:36Z</time>
      </trkpt>
      <trkpt lat="38.241705" lon="-2.425284">
        <ele>1014.8</ele>
        <time>2022-04-03T09:53:50Z</time>
      </trkpt>
      <trkpt lat="38.241835" lon="-2.425121">
        <ele>1019.6</ele>
        <time>2022-04-03T09:54:05Z</time>
      </trkpt>
      <trkpt lat="38.241978" lon="-2.424975">
        <ele>1019.9</ele>
        <time>2022-04-03T09:54:21Z</time>
      </trkpt>
      <trkpt lat="38.242152" lon="-2.424888">
        <ele>1019.9</ele>
        <time>2022-04-03T09:54:34Z</time>
      </trkpt>
      <trkpt lat="38.242319" lon="-2.424774">
        <ele>1022.9</ele>
        <time>2022-04-03T09:54:48Z</time>
      </trkpt>
      <trkpt lat="38.242473" lon="-2.424646">
        <ele>1023.9</ele>
        <time>2022-04-03T09:55:04Z</time>
      </trkpt>
      <trkpt lat="38.242661" lon="-2.424577">
        <ele>1021.9</ele>
        <time>2022-04-03T09:55:17Z</time>
      </trkpt>
      <trkpt lat="38.242843" lon="-2.424558">
        <ele>1021.9</ele>
        <time>2022-04-03T09:55:30Z</time>
      </trkpt>
      <trkpt lat="38.243005" lon="-2.424690">
        <ele>1021.9</ele>
        <time>2022-04-03T09:55:43Z</time>
      </trkpt>
      <trkpt lat="38.243111" lon="-2.424887">
        <ele>1023.9</ele>
        <time>2022-04-03T09:55:57Z</time>
      </trkpt>
      <trkpt lat="38.243228" lon="-2.425078">
        <ele>1022.9</ele>
        <time>2022-04-03T09:56:12Z</time>
      </trkpt>
      <trkpt lat="38.243279" lon="-2.425301">
        <ele>1023.2</ele>
        <time>2022-04-03T09:56:27Z</time>
      </trkpt>
      <trkpt lat="38.243351" lon="-2.425513">
        <ele>1018.0</ele>
        <time>2022-04-03T09:56:43Z</time>
      </trkpt>
      <trkpt lat="38.243503" lon="-2.425637">
        <ele>1018.6</ele>
        <time>2022-04-03T09:56:57Z</time>
      </trkpt>
      <trkpt lat="38.243678" lon="-2.425732">
        <ele>1018.9</ele>
        <time>2022-04-03T09:57:10Z</time>
      </trkpt>
      <trkpt lat="38.243864" lon="-2.425751">
        <ele>1018.9</ele>
        <time>2022-04-03T09:57:27Z</time>
      </trkpt>
      <trkpt lat="38.244050" lon="-2.425786">
        <ele>1017.7</ele>
        <time>2022-04-03T09:57:43Z</time>
      </trkpt>
      <trkpt lat="38.244238" lon="-2.425783">
        <ele>1019.0</ele>
        <time>2022-04-03T09:57:55Z</time>
      </trkpt>
      <trkpt lat="38.244427" lon="-2.425777">
        <ele>1016.0</ele>
        <time>2022-04-03T09:58:11Z</time>
      </trkpt>
      <trkpt lat="38.244612" lon="-2.425766">
        <ele>1017.6</ele>
        <time>2022-04-03T09:58:23Z</time>
      </trkpt>
      <trkpt lat="38.244782" lon="-2.425851">
        <ele>1015.7</ele>
        <time>2022-04-03T09:58:37Z</time>
      </trkpt>
      <trkpt lat="38.244913" lon="-2.426025">
        <ele>1014.8</ele>
        <time>2022-04-03T09:58:51Z</time>
      </trkpt>
      <trkpt lat="38.245053" lon="-2.426172">
        <ele>1016.8</ele>
        <time>2022-04-03T09:59:03Z</time>
      </trkpt>
      <trkpt lat="38.245199" lon="-2.426328">
        <ele>1019.6</ele>
        <time>2022-04-03T09:59:19Z</time>
      </trkpt>
      <trkpt lat="38.245344" lon="-2.426467">
        <ele>1022.9</ele>
        <time>2022-04-03T09:59:36Z</time>
      </trkpt>
      <trkpt lat="38.245521" lon="-2.426517">
        <ele>1023.9</ele>
        <time>2022-04-03T09:59:53Z</time>
      </trkpt>
      <trkpt lat="38.245707" lon="-2.426499">
        <ele>1025.6</ele>
        <time>2022-04-03T10:00:10Z</time>
      </trkpt>
      <trkpt lat="38.245887" lon="-2.426476">
        <ele>1026.9</ele>
        <time>2022-04-03T10:00:25Z</time>
      </trkpt>
      <trkpt lat="38.246072" lon="-2.426415">
        <ele>1031.8</ele>
        <time>2022-04-03T10:00:42Z</time>
      </trkpt>
      <trkpt lat="38.246256" lon="-2.426380">
        <ele>1035.8</ele>
        <time>2022-04-03T10:01:02Z</time>
      </trkpt>
      <trkpt lat="38.246436" lon="-2.426337">
        <ele>1035.8</ele>
        <time>2022-04-03T10:01:18Z</time>
      </trkpt>
      <trkpt lat="38.246610" lon="-2.426269">
        <ele>1039.6</ele>
        <time>2022-04-03T10:01:34Z</time>
      </trkpt>
      <trkpt lat="38.246796" lon="-2.426210">
        <ele>1043.8</ele>
        <time>2022-04-03T10:01:50Z</time>
      </trkpt>
      <trkpt lat="38.246975" lon="-2.426138">
        <ele>1043.6</ele>
        <time>2022-04-03T10:02:06Z</time>
      </trkpt>
      <trkpt lat="38.247156" lon="-2.426062">
        <ele>1043.2</ele>
        <time>2022-04-03T10:02:23Z</time>
      </trkpt>
      <trkpt lat="38.247321" lon="-2.425964">
        <ele>1044.9</ele>
        <time>2022-04-03T10:02:37Z</time>
      </trkpt>
      <trkpt lat="38.247501" lon="-2.425900">
        <ele>1045.2</ele>
        <time>2022-04-03T10:02:51Z</time>
      </trkpt>
      <trkpt lat="38.247674" lon="-2.425814">
        <ele>1044.9</ele>
        <time>2022-04-03T10:03:07Z</time>
      </trkpt>
      <trkpt lat="38.247793" lon="-2.425644">
        <ele>1040.9</ele>
        <time>2022-04-03T10:03:21Z</time>
      </trkpt>
      <trkpt lat="38.247981" lon="-2.425683">
        <ele>1048.7</ele>
        <time>2022-04-03T10:03:42Z</time>
      </trkpt>
      <trkpt lat="38.248148" lon="-2.425793">
        <ele>1052.5</ele>
        <time>2022-04-03T10:03:59Z</time>
      </trkpt>
      <trkpt lat="38.248231" lon="-2.426000">
        <ele>1050.7</ele>
        <time>2022-04-03T10:04:14Z</time>
      </trkpt>
      <trkpt lat="38.248334" lon="-2.426196">
        <ele>1053.6</ele>
        <time>2022-04-03T10:04:31Z</time>
      </trkpt>
      <trkpt lat="38.248468" lon="-2.426350">
        <ele>1056.8</ele>
        <time>2022-04-03T10:04:50Z</time>
      </trkpt>
      <trkpt lat="38.248643" lon="-2.426427">
        <ele>1061.8</ele>
        <time>2022-04-03T10:05:08Z</time>
      </trkpt>
      <trkpt lat="38.248828" lon="-2.426404">
        <ele>1064.9</ele>
        <time>2022-04-03T10:05:27Z</time>
      </trkpt>
      <trkpt lat="38.249005" lon="-2.426342">
        <ele>1068.9</ele>
        <time>2022-04-03T10:05:41Z</time>
      </trkpt>
      <trkpt lat="38.249180" lon="-2.426267">
        <ele>1069.9</ele>
        <time>2022-04-03T10:05:56Z</time>
      </trkpt>
      <trkpt lat="38.249359" lon="-2.426229">
        <ele>1070.9</ele>
        <time>2022-04-03T10:06:12Z</time>
      </trkpt>
      <trkpt lat="38.249539" lon="-2.426151">
        <ele>1071.9</ele>
        <time>2022-04-03T10:06:28Z</time>
      </trkpt>
      <trkpt lat="38.249696" lon="-2.426027">
        <ele>1074.9</ele>
        <time>2022-04-03T10:06:47Z</time>
      </trkpt>
      <trkpt lat="38.249858" lon="-2.425919">
        <ele>1076.7</ele>
        <time>2022-04-03T10:07:05Z</time>
      </trkpt>
      <trkpt lat="38.250038" lon="-2.425912">
        <ele>1075.4</ele>
        <time>2022-04-03T10:07:23Z</time>
      </trkpt>
      <trkpt lat="38.250234" lon="-2.425937">
        <ele>1069.8</ele>
        <time>2022-04-03T10:07:43Z</time>
      </trkpt>
      <trkpt lat="38.250416" lon="-2.425954">
        <ele>1067.7</ele>
        <time>2022-04-03T10:07:57Z</time>
      </trkpt>
      <trkpt lat="38.250602" lon="-2.425918">
        <ele>1068.5</ele>
        <time>2022-04-03T10:08:11Z</time>
      </trkpt>
      <trkpt lat="38.250783" lon="-2.425861">
        <ele>1065.7</ele>
        <time>2022-04-03T10:08:25Z</time>
      </trkpt>
      <trkpt lat="38.250956" lon="-2.425787">
        <ele>1067.1</ele>
        <time>2022-04-03T10:08:43Z</time>
      </trkpt>
      <trkpt lat="38.251135" lon="-2.425763">
        <ele>1063.7</ele>
        <time>2022-04-03T10:09:14Z</time>
      </trkpt>
      <trkpt lat="38.251300" lon="-2.425683">
        <ele>1058.5</ele>
        <time>2022-04-03T10:11:14Z</time>
      </trkpt>
      <trkpt lat="38.251461" lon="-2.425543">
        <ele>1050.4</ele>
        <time>2022-04-03T10:11:54Z</time>
      </trkpt>
      <trkpt lat="38.251628" lon="-2.425441">
        <ele>1046.5</ele>
        <time>2022-04-03T10:12:11Z</time>
      </trkpt>
      <trkpt lat="38.251792" lon="-2.425320">
        <ele>1041.4</ele>
        <time>2022-04-03T10:12:28Z</time>
      </trkpt>
      <trkpt lat="38.251968" lon="-2.425224">
        <ele>1038.4</ele>
        <time>2022-04-03T10:12:45Z</time>
      </trkpt>
      <trkpt lat="38.252145" lon="-2.425154">
        <ele>1039.4</ele>
        <time>2022-04-03T10:13:01Z</time>
      </trkpt>
      <trkpt lat="38.252335" lon="-2.425136">
        <ele>1039.4</ele>
        <time>2022-04-03T10:13:14Z</time>
      </trkpt>
      <trkpt lat="38.252530" lon="-2.425100">
        <ele>1037.4</ele>
        <time>2022-04-03T10:13:27Z</time>
      </trkpt>
      <trkpt lat="38.252704" lon="-2.425029">
        <ele>1034.5</ele>
        <time>2022-04-03T10:13:40Z</time>
      </trkpt>
      <trkpt lat="38.252875" lon="-2.424959">
        <ele>1032.4</ele>
        <time>2022-04-03T10:13:55Z</time>
      </trkpt>
      <trkpt lat="38.253051" lon="-2.424881">
        <ele>1027.5</ele>
        <time>2022-04-03T10:14:12Z</time>
      </trkpt>
      <trkpt lat="38.253224" lon="-2.424796">
        <ele>1025.4</ele>
        <time>2022-04-03T10:14:28Z</time>
      </trkpt>
      <trkpt lat="38.253393" lon="-2.424689">
        <ele>1018.5</ele>
        <time>2022-04-03T10:14:47Z</time>
      </trkpt>
      <trkpt lat="38.253560" lon="-2.424567">
        <ele>1012.5</ele>
        <time>2022-04-03T10:15:04Z</time>
      </trkpt>
      <trkpt lat="38.253721" lon="-2.424437">
        <ele>1011.4</ele>
        <time>2022-04-03T10:15:19Z</time>
      </trkpt>
      <trkpt lat="38.253879" lon="-2.424294">
        <ele>1013.4</ele>
        <time>2022-04-03T10:15:34Z</time>
      </trkpt>
      <trkpt lat="38.253999" lon="-2.424116">
        <ele>1014.8</ele>
        <time>2022-04-03T10:16:21Z</time>
      </trkpt>
      <trkpt lat="38.254139" lon="-2.423962">
        <ele>1009.5</ele>
        <time>2022-04-03T10:16:40Z</time>
      </trkpt>
      <trkpt lat="38.254148" lon="-2.423721">
        <ele>1003.5</ele>
        <time>2022-04-03T10:16:57Z</time>
      </trkpt>
      <trkpt lat="38.254224" lon="-2.423505">
        <ele>998.5</ele>
        <time>2022-04-03T10:17:13Z</time>
      </trkpt>
      <trkpt lat="38.254349" lon="-2.423315">
        <ele>1000.3</ele>
        <time>2022-04-03T10:17:28Z</time>
      </trkpt>
      <trkpt lat="38.254519" lon="-2.423240">
        <ele>1006.1</ele>
        <time>2022-04-03T10:17:41Z</time>
      </trkpt>
      <trkpt lat="38.254695" lon="-2.423147">
        <ele>1010.5</ele>
        <time>2022-04-03T10:17:59Z</time>
      </trkpt>
      <trkpt lat="38.254867" lon="-2.423058">
        <ele>1011.4</ele>
        <time>2022-04-03T10:18:13Z</time>
      </trkpt>
      <trkpt lat="38.255038" lon="-2.422960">
        <ele>1007.8</ele>
        <time>2022-04-03T10:18:27Z</time>
      </trkpt>
      <trkpt lat="38.255188" lon="-2.422830">
        <ele>1002.5</ele>
        <time>2022-04-03T10:18:44Z</time>
      </trkpt>
      <trkpt lat="38.255325" lon="-2.422674">
        <ele>999.5</ele>
        <time>2022-04-03T10:18:59Z</time>
      </trkpt>
      <trkpt lat="38.255454" lon="-2.422501">
        <ele>1000.4</ele>
        <time>2022-04-03T10:19:15Z</time>
      </trkpt>
      <trkpt lat="38.255638" lon="-2.422559">
        <ele>997.5</ele>
        <time>2022-04-03T10:19:32Z</time>
      </trkpt>
      <trkpt lat="38.255789" lon="-2.422691">
        <ele>996.4</ele>
        <time>2022-04-03T10:19:46Z</time>
      </trkpt>
      <trkpt lat="38.255962" lon="-2.422787">
        <ele>992.7</ele>
        <time>2022-04-03T10:21:11Z</time>
      </trkpt>
      <trkpt lat="38.256139" lon="-2.422830">
        <ele>989.5</ele>
        <time>2022-04-03T10:21:26Z</time>
      </trkpt>
      <trkpt lat="38.256323" lon="-2.422849">
        <ele>988.2</ele>
        <time>2022-04-03T10:21:38Z</time>
      </trkpt>
      <trkpt lat="38.256503" lon="-2.422835">
        <ele>987.5</ele>
        <time>2022-04-03T10:21:52Z</time>
      </trkpt>
      <trkpt lat="38.256556" lon="-2.422596">
        <ele>986.5</ele>
        <time>2022-04-03T10:22:13Z</time>
      </trkpt>
      <trkpt lat="38.256708" lon="-2.422466">
        <ele>985.2</ele>
        <time>2022-04-03T10:22:28Z</time>
      </trkpt>
      <trkpt lat="38.256879" lon="-2.422568">
        <ele>979.5</ele>
        <time>2022-04-03T10:22:46Z</time>
      </trkpt>
      <trkpt lat="38.257057" lon="-2.422668">
        <ele>977.5</ele>
        <time>2022-04-03T10:22:57Z</time>
      </trkpt>
      <trkpt lat="38.257172" lon="-2.422476">
        <ele>974.8</ele>
        <time>2022-04-03T10:23:13Z</time>
      </trkpt>
      <trkpt lat="38.257186" lon="-2.422234">
        <ele>972.2</ele>
        <time>2022-04-03T10:23:31Z</time>
      </trkpt>
      <trkpt lat="38.257211" lon="-2.422006">
        <ele>961.9</ele>
        <time>2022-04-03T10:23:45Z</time>
      </trkpt>
      <trkpt lat="38.257256" lon="-2.421670">
        <ele>957.6</ele>
        <time>2022-04-03T10:24:02Z</time>
      </trkpt>
      <trkpt lat="38.257326" lon="-2.421500">
        <ele>957.4</ele>
        <time>2022-04-03T10:24:16Z</time>
      </trkpt>
      <trkpt lat="38.257497" lon="-2.421732">
        <ele>960.5</ele>
        <time>2022-04-03T10:24:34Z</time>
      </trkpt>
      <trkpt lat="38.257536" lon="-2.421972">
        <ele>959.5</ele>
        <time>2022-04-03T10:24:47Z</time>
      </trkpt>
      <trkpt lat="38.257670" lon="-2.422143">
        <ele>960.5</ele>
        <time>2022-04-03T10:25:00Z</time>
      </trkpt>
      <trkpt lat="38.257848" lon="-2.422238">
        <ele>960.4</ele>
        <time>2022-04-03T10:25:16Z</time>
      </trkpt>
      <trkpt lat="38.258022" lon="-2.422302">
        <ele>956.5</ele>
        <time>2022-04-03T10:25:30Z</time>
      </trkpt>
      <trkpt lat="38.258161" lon="-2.422466">
        <ele>954.2</ele>
        <time>2022-04-03T10:25:44Z</time>
      </trkpt>
      <trkpt lat="38.258304" lon="-2.422609">
        <ele>954.5</ele>
        <time>2022-04-03T10:26:03Z</time>
      </trkpt>
      <trkpt lat="38.258440" lon="-2.422765">
        <ele>952.8</ele>
        <time>2022-04-03T10:26:16Z</time>
      </trkpt>
      <trkpt lat="38.258557" lon="-2.422944">
        <ele>949.3</ele>
        <time>2022-04-03T10:27:04Z</time>
      </trkpt>
      <trkpt lat="38.258703" lon="-2.423099">
        <ele>946.4</ele>
        <time>2022-04-03T10:27:19Z</time>
      </trkpt>
      <trkpt lat="38.258841" lon="-2.423250">
        <ele>944.5</ele>
        <time>2022-04-03T10:27:32Z</time>
      </trkpt>
      <trkpt lat="38.259028" lon="-2.423261">
        <ele>943.5</ele>
        <time>2022-04-03T10:27:49Z</time>
      </trkpt>
      <trkpt lat="38.259207" lon="-2.423283">
        <ele>940.5</ele>
        <time>2022-04-03T10:28:07Z</time>
      </trkpt>
      <trkpt lat="38.259383" lon="-2.423346">
        <ele>937.6</ele>
        <time>2022-04-03T10:28:26Z</time>
      </trkpt>
      <trkpt lat="38.259563" lon="-2.423420">
        <ele>936.6</ele>
        <time>2022-04-03T10:28:41Z</time>
      </trkpt>
      <trkpt lat="38.259727" lon="-2.423537">
        <ele>934.8</ele>
        <time>2022-04-03T10:29:00Z</time>
      </trkpt>
      <trkpt lat="38.259900" lon="-2.423613">
        <ele>932.7</ele>
        <time>2022-04-03T10:29:18Z</time>
      </trkpt>
      <trkpt lat="38.260061" lon="-2.423496">
        <ele>925.5</ele>
        <time>2022-04-03T10:29:34Z</time>
      </trkpt>
      <trkpt lat="38.260127" lon="-2.423281">
        <ele>923.5</ele>
        <time>2022-04-03T10:29:51Z</time>
      </trkpt>
      <trkpt lat="38.260178" lon="-2.423058">
        <ele>918.5</ele>
        <time>2022-04-03T10:30:09Z</time>
      </trkpt>
      <trkpt lat="38.260232" lon="-2.422832">
        <ele>917.4</ele>
        <time>2022-04-03T10:30:27Z</time>
      </trkpt>
      <trkpt lat="38.260342" lon="-2.422637">
        <ele>915.8</ele>
        <time>2022-04-03T10:30:42Z</time>
      </trkpt>
      <trkpt lat="38.260362" lon="-2.422404">
        <ele>915.2</ele>
        <time>2022-04-03T10:30:57Z</time>
      </trkpt>
      <trkpt lat="38.260370" lon="-2.422173">
        <ele>914.5</ele>
        <time>2022-04-03T10:31:12Z</time>
      </trkpt>
      <trkpt lat="38.260553" lon="-2.422183">
        <ele>918.3</ele>
        <time>2022-04-03T10:31:28Z</time>
      </trkpt>
      <trkpt lat="38.260681" lon="-2.422369">
        <ele>916.5</ele>
        <time>2022-04-03T10:31:46Z</time>
      </trkpt>
      <trkpt lat="38.260753" lon="-2.422584">
        <ele>917.5</ele>
        <time>2022-04-03T10:32:02Z</time>
      </trkpt>
      <trkpt lat="38.260850" lon="-2.422793">
        <ele>914.7</ele>
        <time>2022-04-03T10:32:24Z</time>
      </trkpt>
      <trkpt lat="38.260976" lon="-2.422959">
        <ele>911.5</ele>
        <time>2022-04-03T10:32:43Z</time>
      </trkpt>
      <trkpt lat="38.261096" lon="-2.423140">
        <ele>907.5</ele>
        <time>2022-04-03T10:33:00Z</time>
      </trkpt>
      <trkpt lat="38.261172" lon="-2.423356">
        <ele>908.4</ele>
        <time>2022-04-03T10:33:15Z</time>
      </trkpt>
      <trkpt lat="38.261283" lon="-2.423549">
        <ele>905.8</ele>
        <time>2022-04-03T10:33:31Z</time>
      </trkpt>
      <trkpt lat="38.261379" lon="-2.423747">
        <ele>905.5</ele>
        <time>2022-04-03T10:33:48Z</time>
      </trkpt>
      <trkpt lat="38.261430" lon="-2.423970">
        <ele>904.5</ele>
        <time>2022-04-03T10:34:05Z</time>
      </trkpt>
      <trkpt lat="38.261489" lon="-2.424189">
        <ele>902.5</ele>
        <time>2022-04-03T10:34:20Z</time>
      </trkpt>
      <trkpt lat="38.261602" lon="-2.424373">
        <ele>900.4</ele>
        <time>2022-04-03T10:34:37Z</time>
      </trkpt>
      <trkpt lat="38.261719" lon="-2.424557">
        <ele>896.5</ele>
        <time>2022-04-03T10:34:56Z</time>
      </trkpt>
      <trkpt lat="38.261833" lon="-2.424750">
        <ele>895.5</ele>
        <time>2022-04-03T10:35:14Z</time>
      </trkpt>
      <trkpt lat="38.261966" lon="-2.424919">
        <ele>896.5</ele>
        <time>2022-04-03T10:35:31Z</time>
      </trkpt>
      <trkpt lat="38.262116" lon="-2.425068">
        <ele>894.5</ele>
        <time>2022-04-03T10:35:48Z</time>
      </trkpt>
      <trkpt lat="38.262297" lon="-2.425057">
        <ele>892.5</ele>
        <time>2022-04-03T10:36:13Z</time>
      </trkpt>
      <trkpt lat="38.262390" lon="-2.424861">
        <ele>893.8</ele>
        <time>2022-04-03T10:36:31Z</time>
      </trkpt>
      <trkpt lat="38.262495" lon="-2.424665">
        <ele>889.5</ele>
        <time>2022-04-03T10:36:45Z</time>
      </trkpt>
      <trkpt lat="38.262605" lon="-2.424477">
        <ele>887.5</ele>
        <time>2022-04-03T10:37:00Z</time>
      </trkpt>
      <trkpt lat="38.262700" lon="-2.424279">
        <ele>891.4</ele>
        <time>2022-04-03T10:37:17Z</time>
      </trkpt>
      <trkpt lat="38.262786" lon="-2.424070">
        <ele>891.5</ele>
        <time>2022-04-03T10:37:33Z</time>
      </trkpt>
      <trkpt lat="38.262900" lon="-2.423881">
        <ele>891.5</ele>
        <time>2022-04-03T10:37:48Z</time>
      </trkpt>
      <trkpt lat="38.263021" lon="-2.423692">
        <ele>893.5</ele>
        <time>2022-04-03T10:38:03Z</time>
      </trkpt>
      <trkpt lat="38.263148" lon="-2.423525">
        <ele>895.5</ele>
        <time>2022-04-03T10:38:18Z</time>
      </trkpt>
      <trkpt lat="38.263257" lon="-2.423328">
        <ele>895.5</ele>
        <time>2022-04-03T10:38:35Z</time>
      </trkpt>
      <trkpt lat="38.263372" lon="-2.423132">
        <ele>897.4</ele>
        <time>2022-04-03T10:38:51Z</time>
      </trkpt>
      <trkpt lat="38.263480" lon="-2.422936">
        <ele>899.5</ele>
        <time>2022-04-03T10:39:08Z</time>
      </trkpt>
      <trkpt lat="38.263564" lon="-2.422721">
        <ele>897.5</ele>
        <time>2022-04-03T10:39:26Z</time>
      </trkpt>
      <trkpt lat="38.263633" lon="-2.422498">
        <ele>898.5</ele>
        <time>2022-04-03T10:39:41Z</time>
      </trkpt>
      <trkpt lat="38.263811" lon="-2.422440">
        <ele>900.4</ele>
        <time>2022-04-03T10:39:59Z</time>
      </trkpt>
      <trkpt lat="38.263997" lon="-2.422422">
        <ele>902.2</ele>
        <time>2022-04-03T10:40:19Z</time>
      </trkpt>
      <trkpt lat="38.264171" lon="-2.422349">
        <ele>904.4</ele>
        <time>2022-04-03T10:40:37Z</time>
      </trkpt>
      <trkpt lat="38.264353" lon="-2.422371">
        <ele>904.5</ele>
        <time>2022-04-03T10:40:55Z</time>
      </trkpt>
      <trkpt lat="38.264517" lon="-2.422487">
        <ele>905.5</ele>
        <time>2022-04-03T10:41:12Z</time>
      </trkpt>
      <trkpt lat="38.264703" lon="-2.422535">
        <ele>907.4</ele>
        <time>2022-04-03T10:41:31Z</time>
      </trkpt>
      <trkpt lat="38.264881" lon="-2.422488">
        <ele>908.8</ele>
        <time>2022-04-03T10:41:49Z</time>
      </trkpt>
      <trkpt lat="38.265056" lon="-2.422405">
        <ele>909.5</ele>
        <time>2022-04-03T10:42:06Z</time>
      </trkpt>
      <trkpt lat="38.265201" lon="-2.422267">
        <ele>910.5</ele>
        <time>2022-04-03T10:42:25Z</time>
      </trkpt>
      <trkpt lat="38.265388" lon="-2.422245">
        <ele>914.5</ele>
        <time>2022-04-03T10:42:44Z</time>
      </trkpt>
      <trkpt lat="38.265573" lon="-2.422239">
        <ele>916.5</ele>
        <time>2022-04-03T10:43:05Z</time>
      </trkpt>
      <trkpt lat="38.265654" lon="-2.422033">
        <ele>915.5</ele>
        <time>2022-04-03T10:43:28Z</time>
      </trkpt>
      <trkpt lat="38.265723" lon="-2.421817">
        <ele>917.5</ele>
        <time>2022-04-03T10:43:44Z</time>
      </trkpt>
      <trkpt lat="38.265797" lon="-2.421596">
        <ele>920.5</ele>
        <time>2022-04-03T10:44:00Z</time>
      </trkpt>
      <trkpt lat="38.265864" lon="-2.421376">
        <ele>923.5</ele>
        <time>2022-04-03T10:44:17Z</time>
      </trkpt>
      <trkpt lat="38.265929" lon="-2.421157">
        <ele>925.5</ele>
        <time>2022-04-03T10:44:35Z</time>
      </trkpt>
      <trkpt lat="38.266010" lon="-2.420951">
        <ele>926.5</ele>
        <time>2022-04-03T10:44:50Z</time>
      </trkpt>
      <trkpt lat="38.266163" lon="-2.420813">
        <ele>928.5</ele>
        <time>2022-04-03T10:45:08Z</time>
      </trkpt>
      <trkpt lat="38.266263" lon="-2.421005">
        <ele>930.2</ele>
        <time>2022-04-03T10:45:27Z</time>
      </trkpt>
      <trkpt lat="38.266344" lon="-2.421215">
        <ele>935.5</ele>
        <time>2022-04-03T10:45:47Z</time>
      </trkpt>
      <trkpt lat="38.266477" lon="-2.421376">
        <ele>936.2</ele>
        <time>2022-04-03T10:46:09Z</time>
      </trkpt>
      <trkpt lat="38.266659" lon="-2.421339">
        <ele>940.4</ele>
        <time>2022-04-03T10:46:32Z</time>
      </trkpt>
      <trkpt lat="38.266816" lon="-2.421214">
        <ele>943.2</ele>
        <time>2022-04-03T10:46:52Z</time>
      </trkpt>
      <trkpt lat="38.266970" lon="-2.421076">
        <ele>944.5</ele>
        <time>2022-04-03T10:47:16Z</time>
      </trkpt>
      <trkpt lat="38.267126" lon="-2.420946">
        <ele>947.7</ele>
        <time>2022-04-03T10:47:33Z</time>
      </trkpt>
      <trkpt lat="38.267236" lon="-2.420765">
        <ele>949.5</ele>
        <time>2022-04-03T10:47:51Z</time>
      </trkpt>
      <trkpt lat="38.267372" lon="-2.420608">
        <ele>954.2</ele>
        <time>2022-04-03T10:48:09Z</time>
      </trkpt>
      <trkpt lat="38.267539" lon="-2.420724">
        <ele>951.5</ele>
        <time>2022-04-03T10:48:28Z</time>
      </trkpt>
      <trkpt lat="38.267716" lon="-2.420769">
        <ele>951.5</ele>
        <time>2022-04-03T10:48:43Z</time>
      </trkpt>
      <trkpt lat="38.267884" lon="-2.420669">
        <ele>952.5</ele>
        <time>2022-04-03T10:48:58Z</time>
      </trkpt>
      <trkpt lat="38.268067" lon="-2.420709">
        <ele>950.5</ele>
        <time>2022-04-03T10:49:17Z</time>
      </trkpt>
      <trkpt lat="38.268238" lon="-2.420784">
        <ele>954.5</ele>
        <time>2022-04-03T10:49:35Z</time>
      </trkpt>
      <trkpt lat="38.268417" lon="-2.420839">
        <ele>955.5</ele>
        <time>2022-04-03T10:49:52Z</time>
      </trkpt>
      <trkpt lat="38.268593" lon="-2.420909">
        <ele>956.5</ele>
        <time>2022-04-03T10:50:09Z</time>
      </trkpt>
      <trkpt lat="38.268762" lon="-2.421002">
        <ele>954.8</ele>
        <time>2022-04-03T10:50:26Z</time>
      </trkpt>
      <trkpt lat="38.268908" lon="-2.421155">
        <ele>951.5</ele>
        <time>2022-04-03T10:50:43Z</time>
      </trkpt>
      <trkpt lat="38.269065" lon="-2.421276">
        <ele>949.6</ele>
        <time>2022-04-03T10:51:00Z</time>
      </trkpt>
      <trkpt lat="38.269252" lon="-2.421310">
        <ele>947.5</ele>
        <time>2022-04-03T10:51:16Z</time>
      </trkpt>
      <trkpt lat="38.269435" lon="-2.421273">
        <ele>945.5</ele>
        <time>2022-04-03T10:51:31Z</time>
      </trkpt>
      <trkpt lat="38.269603" lon="-2.421166">
        <ele>944.5</ele>
        <time>2022-04-03T10:51:46Z</time>
      </trkpt>
      <trkpt lat="38.269755" lon="-2.421042">
        <ele>943.4</ele>
        <time>2022-04-03T10:52:01Z</time>
      </trkpt>
      <trkpt lat="38.269882" lon="-2.420881">
        <ele>943.5</ele>
        <time>2022-04-03T10:52:15Z</time>
      </trkpt>
      <trkpt lat="38.269907" lon="-2.420642">
        <ele>938.6</ele>
        <time>2022-04-03T10:52:31Z</time>
      </trkpt>
      <trkpt lat="38.269948" lon="-2.420407">
        <ele>935.6</ele>
        <time>2022-04-03T10:52:49Z</time>
      </trkpt>
      <trkpt lat="38.269924" lon="-2.420172">
        <ele>934.5</ele>
        <time>2022-04-03T10:53:07Z</time>
      </trkpt>
      <trkpt lat="38.270051" lon="-2.420000">
        <ele>933.6</ele>
        <time>2022-04-03T10:53:23Z</time>
      </trkpt>
      <trkpt lat="38.270219" lon="-2.419909">
        <ele>934.5</ele>
        <time>2022-04-03T10:53:40Z</time>
      </trkpt>
      <trkpt lat="38.270356" lon="-2.419755">
        <ele>938.4</ele>
        <time>2022-04-03T10:53:55Z</time>
      </trkpt>
      <trkpt lat="38.270498" lon="-2.419595">
        <ele>939.4</ele>
        <time>2022-04-03T10:54:11Z</time>
      </trkpt>
      <trkpt lat="38.270662" lon="-2.419470">
        <ele>939.5</ele>
        <time>2022-04-03T10:54:25Z</time>
      </trkpt>
      <trkpt lat="38.270834" lon="-2.419387">
        <ele>938.5</ele>
        <time>2022-04-03T10:54:40Z</time>
      </trkpt>
      <trkpt lat="38.271004" lon="-2.419295">
        <ele>938.6</ele>
        <time>2022-04-03T10:54:54Z</time>
      </trkpt>
      <trkpt lat="38.271101" lon="-2.419091">
        <ele>936.4</ele>
        <time>2022-04-03T10:55:10Z</time>
      </trkpt>
      <trkpt lat="38.271192" lon="-2.418878">
        <ele>937.4</ele>
        <time>2022-04-03T10:55:26Z</time>
      </trkpt>
      <trkpt lat="38.271278" lon="-2.418669">
        <ele>937.5</ele>
        <time>2022-04-03T10:55:41Z</time>
      </trkpt>
      <trkpt lat="38.271310" lon="-2.418437">
        <ele>936.5</ele>
        <time>2022-04-03T10:55:57Z</time>
      </trkpt>
      <trkpt lat="38.271311" lon="-2.418191">
        <ele>931.5</ele>
        <time>2022-04-03T10:56:13Z</time>
      </trkpt>
      <trkpt lat="38.271359" lon="-2.417968">
        <ele>930.8</ele>
        <time>2022-04-03T10:56:28Z</time>
      </trkpt>
      <trkpt lat="38.271332" lon="-2.417735">
        <ele>929.5</ele>
        <time>2022-04-03T10:56:44Z</time>
      </trkpt>
      <trkpt lat="38.271302" lon="-2.417506">
        <ele>928.5</ele>
        <time>2022-04-03T10:56:58Z</time>
      </trkpt>
      <trkpt lat="38.271487" lon="-2.417447">
        <ele>928.5</ele>
        <time>2022-04-03T10:57:14Z</time>
      </trkpt>
      <trkpt lat="38.271642" lon="-2.417308">
        <ele>927.6</ele>
        <time>2022-04-03T10:57:31Z</time>
      </trkpt>
      <trkpt lat="38.271808" lon="-2.417405">
        <ele>927.4</ele>
        <time>2022-04-03T10:57:48Z</time>
      </trkpt>
      <trkpt lat="38.271923" lon="-2.417588">
        <ele>931.2</ele>
        <time>2022-04-03T10:58:04Z</time>
      </trkpt>
      <trkpt lat="38.272064" lon="-2.417736">
        <ele>931.5</ele>
        <time>2022-04-03T10:58:21Z</time>
      </trkpt>
      <trkpt lat="38.272239" lon="-2.417825">
        <ele>933.5</ele>
        <time>2022-04-03T10:58:38Z</time>
      </trkpt>
      <trkpt lat="38.272415" lon="-2.417778">
        <ele>936.2</ele>
        <time>2022-04-03T10:58:52Z</time>
      </trkpt>
      <trkpt lat="38.272569" lon="-2.417658">
        <ele>937.6</ele>
        <time>2022-04-03T10:59:06Z</time>
      </trkpt>
      <trkpt lat="38.272691" lon="-2.417482">
        <ele>937.6</ele>
        <time>2022-04-03T10:59:22Z</time>
      </trkpt>
      <trkpt lat="38.272811" lon="-2.417287">
        <ele>936.5</ele>
        <time>2022-04-03T10:59:38Z</time>
      </trkpt>
      <trkpt lat="38.272972" lon="-2.417152">
        <ele>935.5</ele>
        <time>2022-04-03T10:59:52Z</time>
      </trkpt>
      <trkpt lat="38.273149" lon="-2.417095">
        <ele>931.8</ele>
        <time>2022-04-03T11:00:08Z</time>
      </trkpt>
      <trkpt lat="38.273219" lon="-2.417316">
        <ele>928.2</ele>
        <time>2022-04-03T11:00:23Z</time>
      </trkpt>
      <trkpt lat="38.273313" lon="-2.417522">
        <ele>928.5</ele>
        <time>2022-04-03T11:00:39Z</time>
      </trkpt>
      <trkpt lat="38.273472" lon="-2.417654">
        <ele>930.4</ele>
        <time>2022-04-03T11:00:55Z</time>
      </trkpt>
      <trkpt lat="38.273617" lon="-2.417796">
        <ele>931.5</ele>
        <time>2022-04-03T11:01:10Z</time>
      </trkpt>
      <trkpt lat="38.273793" lon="-2.417846">
        <ele>934.2</ele>
        <time>2022-04-03T11:01:29Z</time>
      </trkpt>
      <trkpt lat="38.273978" lon="-2.417871">
        <ele>935.5</ele>
        <time>2022-04-03T11:01:44Z</time>
      </trkpt>
      <trkpt lat="38.274161" lon="-2.417861">
        <ele>935.5</ele>
        <time>2022-04-03T11:02:02Z</time>
      </trkpt>
      <trkpt lat="38.274339" lon="-2.417813">
        <ele>937.2</ele>
        <time>2022-04-03T11:02:21Z</time>
      </trkpt>
      <trkpt lat="38.274500" lon="-2.417696">
        <ele>938.5</ele>
        <time>2022-04-03T11:02:37Z</time>
      </trkpt>
      <trkpt lat="38.274658" lon="-2.417581">
        <ele>940.5</ele>
        <time>2022-04-03T11:02:52Z</time>
      </trkpt>
      <trkpt lat="38.274808" lon="-2.417453">
        <ele>940.5</ele>
        <time>2022-04-03T11:03:08Z</time>
      </trkpt>
      <trkpt lat="38.274974" lon="-2.417361">
        <ele>943.5</ele>
        <time>2022-04-03T11:03:21Z</time>
      </trkpt>
      <trkpt lat="38.275160" lon="-2.417317">
        <ele>942.2</ele>
        <time>2022-04-03T11:03:39Z</time>
      </trkpt>
      <trkpt lat="38.275335" lon="-2.417238">
        <ele>945.2</ele>
        <time>2022-04-03T11:03:53Z</time>
      </trkpt>
      <trkpt lat="38.275482" lon="-2.417094">
        <ele>944.5</ele>
        <time>2022-04-03T11:04:14Z</time>
      </trkpt>
      <trkpt lat="38.275656" lon="-2.417019">
        <ele>945.5</ele>
        <time>2022-04-03T11:04:34Z</time>
      </trkpt>
      <trkpt lat="38.275787" lon="-2.416847">
        <ele>944.5</ele>
        <time>2022-04-03T11:04:49Z</time>
      </trkpt>
      <trkpt lat="38.275906" lon="-2.416658">
        <ele>942.6</ele>
        <time>2022-04-03T11:05:04Z</time>
      </trkpt>
      <trkpt lat="38.275956" lon="-2.416435">
        <ele>940.8</ele>
        <time>2022-04-03T11:05:20Z</time>
      </trkpt>
      <trkpt lat="38.275993" lon="-2.416199">
        <ele>942.5</ele>
        <time>2022-04-03T11:05:34Z</time>
      </trkpt>
      <trkpt lat="38.276011" lon="-2.415963">
        <ele>940.8</ele>
        <time>2022-04-03T11:05:49Z</time>
      </trkpt>
      <trkpt lat="38.276071" lon="-2.415747">
        <ele>938.5</ele>
        <time>2022-04-03T11:06:04Z</time>
      </trkpt>
      <trkpt lat="38.276252" lon="-2.415740">
        <ele>936.8</ele>
        <time>2022-04-03T11:06:19Z</time>
      </trkpt>
      <trkpt lat="38.276430" lon="-2.415703">
        <ele>934.5</ele>
        <time>2022-04-03T11:06:37Z</time>
      </trkpt>
      <trkpt lat="38.276591" lon="-2.415581">
        <ele>935.5</ele>
        <time>2022-04-03T11:06:51Z</time>
      </trkpt>
      <trkpt lat="38.276671" lon="-2.415365">
        <ele>934.5</ele>
        <time>2022-04-03T11:07:06Z</time>
      </trkpt>
      <trkpt lat="38.276735" lon="-2.415138">
        <ele>935.4</ele>
        <time>2022-04-03T11:07:20Z</time>
      </trkpt>
      <trkpt lat="38.276894" lon="-2.415005">
        <ele>935.5</ele>
        <time>2022-04-03T11:07:36Z</time>
      </trkpt>
      <trkpt lat="38.277083" lon="-2.414983">
        <ele>933.8</ele>
        <time>2022-04-03T11:08:36Z</time>
      </trkpt>
      <trkpt lat="38.277103" lon="-2.414747">
        <ele>930.8</ele>
        <time>2022-04-03T11:08:51Z</time>
      </trkpt>
      <trkpt lat="38.276985" lon="-2.414564">
        <ele>927.5</ele>
        <time>2022-04-03T11:09:06Z</time>
      </trkpt>
      <trkpt lat="38.276853" lon="-2.414390">
        <ele>924.6</ele>
        <time>2022-04-03T11:09:18Z</time>
      </trkpt>
      <trkpt lat="38.276771" lon="-2.414189">
        <ele>921.6</ele>
        <time>2022-04-03T11:09:31Z</time>
      </trkpt>
      <trkpt lat="38.276648" lon="-2.413984">
        <ele>922.3</ele>
        <time>2022-04-03T11:09:48Z</time>
      </trkpt>
      <trkpt lat="38.276559" lon="-2.413780">
        <ele>921.5</ele>
        <time>2022-04-03T11:10:03Z</time>
      </trkpt>
      <trkpt lat="38.276477" lon="-2.413570">
        <ele>922.5</ele>
        <time>2022-04-03T11:10:18Z</time>
      </trkpt>
      <trkpt lat="38.276388" lon="-2.413391">
        <ele>920.5</ele>
        <time>2022-04-03T11:10:32Z</time>
      </trkpt>
      <trkpt lat="38.276351" lon="-2.413172">
        <ele>920.5</ele>
        <time>2022-04-03T11:10:45Z</time>
      </trkpt>
      <trkpt lat="38.276468" lon="-2.412987">
        <ele>922.5</ele>
        <time>2022-04-03T11:11:02Z</time>
      </trkpt>
      <trkpt lat="38.276642" lon="-2.412920">
        <ele>921.5</ele>
        <time>2022-04-03T11:11:18Z</time>
      </trkpt>
      <trkpt lat="38.276820" lon="-2.412956">
        <ele>922.2</ele>
        <time>2022-04-03T11:11:33Z</time>
      </trkpt>
      <trkpt lat="38.277005" lon="-2.412999">
        <ele>922.4</ele>
        <time>2022-04-03T11:11:51Z</time>
      </trkpt>
      <trkpt lat="38.277184" lon="-2.413058">
        <ele>925.5</ele>
        <time>2022-04-03T11:12:05Z</time>
      </trkpt>
      <trkpt lat="38.277357" lon="-2.413142">
        <ele>924.6</ele>
        <time>2022-04-03T11:12:21Z</time>
      </trkpt>
      <trkpt lat="38.277531" lon="-2.413237">
        <ele>924.5</ele>
        <time>2022-04-03T11:12:38Z</time>
      </trkpt>
      <trkpt lat="38.277700" lon="-2.413326">
        <ele>924.5</ele>
        <time>2022-04-03T11:12:56Z</time>
      </trkpt>
      <trkpt lat="38.277870" lon="-2.413432">
        <ele>923.5</ele>
        <time>2022-04-03T11:13:16Z</time>
      </trkpt>
      <trkpt lat="38.278053" lon="-2.413369">
        <ele>925.5</ele>
        <time>2022-04-03T11:13:50Z</time>
      </trkpt>
      <trkpt lat="38.278140" lon="-2.413149">
        <ele>923.5</ele>
        <time>2022-04-03T11:14:09Z</time>
      </trkpt>
      <trkpt lat="38.278318" lon="-2.413084">
        <ele>920.6</ele>
        <time>2022-04-03T11:14:28Z</time>
      </trkpt>
      <trkpt lat="38.278463" lon="-2.413242">
        <ele>917.5</ele>
        <time>2022-04-03T11:14:45Z</time>
      </trkpt>
      <trkpt lat="38.278598" lon="-2.413410">
        <ele>914.8</ele>
        <time>2022-04-03T11:15:01Z</time>
      </trkpt>
      <trkpt lat="38.278739" lon="-2.413561">
        <ele>914.4</ele>
        <time>2022-04-03T11:15:17Z</time>
      </trkpt>
      <trkpt lat="38.278913" lon="-2.413653">
        <ele>913.5</ele>
        <time>2022-04-03T11:15:34Z</time>
      </trkpt>
      <trkpt lat="38.279089" lon="-2.413589">
        <ele>910.5</ele>
        <time>2022-04-03T11:15:47Z</time>
      </trkpt>
      <trkpt lat="38.279155" lon="-2.413368">
        <ele>909.5</ele>
        <time>2022-04-03T11:16:02Z</time>
      </trkpt>
      <trkpt lat="38.279328" lon="-2.413431">
        <ele>904.9</ele>
        <time>2022-04-03T11:16:17Z</time>
      </trkpt>
      <trkpt lat="38.279450" lon="-2.413600">
        <ele>901.6</ele>
        <time>2022-04-03T11:16:30Z</time>
      </trkpt>
      <trkpt lat="38.279608" lon="-2.413722">
        <ele>901.5</ele>
        <time>2022-04-03T11:16:45Z</time>
      </trkpt>
      <trkpt lat="38.279794" lon="-2.413790">
        <ele>903.5</ele>
        <time>2022-04-03T11:17:03Z</time>
      </trkpt>
      <trkpt lat="38.279970" lon="-2.413859">
        <ele>901.5</ele>
        <time>2022-04-03T11:17:21Z</time>
      </trkpt>
      <trkpt lat="38.280148" lon="-2.413943">
        <ele>900.5</ele>
        <time>2022-04-03T11:17:36Z</time>
      </trkpt>
      <trkpt lat="38.280313" lon="-2.414045">
        <ele>897.6</ele>
        <time>2022-04-03T11:17:51Z</time>
      </trkpt>
      <trkpt lat="38.280494" lon="-2.414096">
        <ele>894.6</ele>
        <time>2022-04-03T11:18:06Z</time>
      </trkpt>
      <trkpt lat="38.280675" lon="-2.414024">
        <ele>893.6</ele>
        <time>2022-04-03T11:18:37Z</time>
      </trkpt>
      <trkpt lat="38.280847" lon="-2.414098">
        <ele>890.6</ele>
        <time>2022-04-03T11:18:57Z</time>
      </trkpt>
      <trkpt lat="38.281019" lon="-2.414196">
        <ele>888.5</ele>
        <time>2022-04-03T11:19:10Z</time>
      </trkpt>
      <trkpt lat="38.281179" lon="-2.414306">
        <ele>884.6</ele>
        <time>2022-04-03T11:19:23Z</time>
      </trkpt>
      <trkpt lat="38.281343" lon="-2.414206">
        <ele>882.5</ele>
        <time>2022-04-03T11:20:09Z</time>
      </trkpt>
      <trkpt lat="38.281376" lon="-2.413975">
        <ele>882.5</ele>
        <time>2022-04-03T11:20:25Z</time>
      </trkpt>
      <trkpt lat="38.281375" lon="-2.413734">
        <ele>880.6</ele>
        <time>2022-04-03T11:20:42Z</time>
      </trkpt>
      <trkpt lat="38.281302" lon="-2.413517">
        <ele>879.6</ele>
        <time>2022-04-03T11:20:57Z</time>
      </trkpt>
      <trkpt lat="38.281383" lon="-2.413304">
        <ele>877.8</ele>
        <time>2022-04-03T11:21:16Z</time>
      </trkpt>
      <trkpt lat="38.281558" lon="-2.413382">
        <ele>872.6</ele>
        <time>2022-04-03T11:21:35Z</time>
      </trkpt>
      <trkpt lat="38.281697" lon="-2.413532">
        <ele>872.5</ele>
        <time>2022-04-03T11:21:48Z</time>
      </trkpt>
      <trkpt lat="38.281832" lon="-2.413688">
        <ele>871.5</ele>
        <time>2022-04-03T11:22:05Z</time>
      </trkpt>
      <trkpt lat="38.281983" lon="-2.413817">
        <ele>873.5</ele>
        <time>2022-04-03T11:22:33Z</time>
      </trkpt>
      <trkpt lat="38.282057" lon="-2.413587">
        <ele>878.5</ele>
        <time>2022-04-03T11:26:34Z</time>
      </trkpt>
      <trkpt lat="38.282122" lon="-2.413368">
        <ele>883.5</ele>
        <time>2022-04-03T11:26:52Z</time>
      </trkpt>
      <trkpt lat="38.282197" lon="-2.413140">
        <ele>884.5</ele>
        <time>2022-04-03T11:27:09Z</time>
      </trkpt>
      <trkpt lat="38.282101" lon="-2.412938">
        <ele>883.6</ele>
        <time>2022-04-03T11:27:34Z</time>
      </trkpt>
      <trkpt lat="38.281979" lon="-2.412766">
        <ele>881.6</ele>
        <time>2022-04-03T11:27:51Z</time>
      </trkpt>
      <trkpt lat="38.281826" lon="-2.412631">
        <ele>883.3</ele>
        <time>2022-04-03T11:28:12Z</time>
      </trkpt>
      <trkpt lat="38.281669" lon="-2.412492">
        <ele>887.5</ele>
        <time>2022-04-03T11:28:29Z</time>
      </trkpt>
      <trkpt lat="38.281507" lon="-2.412367">
        <ele>891.5</ele>
        <time>2022-04-03T11:28:51Z</time>
      </trkpt>
      <trkpt lat="38.281376" lon="-2.412193">
        <ele>892.5</ele>
        <time>2022-04-03T11:29:06Z</time>
      </trkpt>
      <trkpt lat="38.281348" lon="-2.411963">
        <ele>893.5</ele>
        <time>2022-04-03T11:29:25Z</time>
      </trkpt>
      <trkpt lat="38.281324" lon="-2.411735">
        <ele>894.5</ele>
        <time>2022-04-03T11:29:41Z</time>
      </trkpt>
      <trkpt lat="38.281287" lon="-2.411507">
        <ele>896.2</ele>
        <time>2022-04-03T11:29:59Z</time>
      </trkpt>
      <trkpt lat="38.281259" lon="-2.411274">
        <ele>898.5</ele>
        <time>2022-04-03T11:30:17Z</time>
      </trkpt>
      <trkpt lat="38.281219" lon="-2.411039">
        <ele>900.5</ele>
        <time>2022-04-03T11:30:34Z</time>
      </trkpt>
      <trkpt lat="38.281212" lon="-2.410808">
        <ele>903.5</ele>
        <time>2022-04-03T11:30:54Z</time>
      </trkpt>
      <trkpt lat="38.281188" lon="-2.410580">
        <ele>909.5</ele>
        <time>2022-04-03T11:31:13Z</time>
      </trkpt>
      <trkpt lat="38.281107" lon="-2.410373">
        <ele>910.8</ele>
        <time>2022-04-03T11:31:29Z</time>
      </trkpt>
      <trkpt lat="38.281027" lon="-2.410161">
        <ele>912.6</ele>
        <time>2022-04-03T11:31:47Z</time>
      </trkpt>
      <trkpt lat="38.281010" lon="-2.409925">
        <ele>914.3</ele>
        <time>2022-04-03T11:32:16Z</time>
      </trkpt>
      <trkpt lat="38.281114" lon="-2.409724">
        <ele>915.5</ele>
        <time>2022-04-03T11:32:39Z</time>
      </trkpt>
      <trkpt lat="38.280929" lon="-2.409681">
        <ele>920.5</ele>
        <time>2022-04-03T11:33:13Z</time>
      </trkpt>
      <trkpt lat="38.280745" lon="-2.409709">
        <ele>924.5</ele>
        <time>2022-04-03T11:33:38Z</time>
      </trkpt>
      <trkpt lat="38.280598" lon="-2.409558">
        <ele>927.2</ele>
        <time>2022-04-03T11:34:11Z</time>
      </trkpt>
      <trkpt lat="38.280494" lon="-2.409358">
        <ele>928.5</ele>
        <time>2022-04-03T11:34:31Z</time>
      </trkpt>
      <trkpt lat="38.280428" lon="-2.409196">
        <ele>927.8</ele>
        <time>2022-04-03T11:34:51Z</time>
      </trkpt>
      <trkpt lat="38.280318" lon="-2.408990">
        <ele>929.5</ele>
        <time>2022-04-03T11:35:09Z</time>
      </trkpt>
      <trkpt lat="38.280171" lon="-2.408798">
        <ele>930.5</ele>
        <time>2022-04-03T11:35:27Z</time>
      </trkpt>
      <trkpt lat="38.280223" lon="-2.408497">
        <ele>935.5</ele>
        <time>2022-04-03T11:35:53Z</time>
      </trkpt>
      <trkpt lat="38.280171" lon="-2.408310">
        <ele>935.5</ele>
        <time>2022-04-03T11:36:12Z</time>
      </trkpt>
      <trkpt lat="38.280099" lon="-2.408087">
        <ele>935.5</ele>
        <time>2022-04-03T11:36:32Z</time>
      </trkpt>
      <trkpt lat="38.280014" lon="-2.407882">
        <ele>937.2</ele>
        <time>2022-04-03T11:36:48Z</time>
      </trkpt>
      <trkpt lat="38.279966" lon="-2.407656">
        <ele>941.8</ele>
        <time>2022-04-03T11:37:16Z</time>
      </trkpt>
      <trkpt lat="38.279997" lon="-2.407420">
        <ele>942.8</ele>
        <time>2022-04-03T11:37:38Z</time>
      </trkpt>
      <trkpt lat="38.279997" lon="-2.407193">
        <ele>944.5</ele>
        <time>2022-04-03T11:37:58Z</time>
      </trkpt>
      <trkpt lat="38.279935" lon="-2.406975">
        <ele>947.2</ele>
        <time>2022-04-03T11:38:16Z</time>
      </trkpt>
      <trkpt lat="38.279829" lon="-2.406778">
        <ele>952.2</ele>
        <time>2022-04-03T11:38:34Z</time>
      </trkpt>
      <trkpt lat="38.279695" lon="-2.406617">
        <ele>950.6</ele>
        <time>2022-04-03T11:38:58Z</time>
      </trkpt>
      <trkpt lat="38.279558" lon="-2.406451">
        <ele>953.7</ele>
        <time>2022-04-03T11:39:48Z</time>
      </trkpt>
      <trkpt lat="38.279414" lon="-2.406307">
        <ele>950.6</ele>
        <time>2022-04-03T11:40:06Z</time>
      </trkpt>
      <trkpt lat="38.279271" lon="-2.406155">
        <ele>951.8</ele>
        <time>2022-04-03T11:40:51Z</time>
      </trkpt>
      <trkpt lat="38.279319" lon="-2.405895">
        <ele>951.4</ele>
        <time>2022-04-03T11:41:13Z</time>
      </trkpt>
      <trkpt lat="38.279393" lon="-2.405682">
        <ele>952.5</ele>
        <time>2022-04-03T11:41:53Z</time>
      </trkpt>
      <trkpt lat="38.279566" lon="-2.405605">
        <ele>946.8</ele>
        <time>2022-04-03T11:42:24Z</time>
      </trkpt>
      <trkpt lat="38.279710" lon="-2.405458">
        <ele>945.9</ele>
        <time>2022-04-03T11:42:52Z</time>
      </trkpt>
      <trkpt lat="38.279863" lon="-2.405314">
        <ele>946.6</ele>
        <time>2022-04-03T11:43:20Z</time>
      </trkpt>
      <trkpt lat="38.279905" lon="-2.405086">
        <ele>945.9</ele>
        <time>2022-04-03T11:43:38Z</time>
      </trkpt>
      <trkpt lat="38.279868" lon="-2.404848">
        <ele>942.3</ele>
        <time>2022-04-03T11:43:54Z</time>
      </trkpt>
      <trkpt lat="38.279794" lon="-2.404626">
        <ele>941.7</ele>
        <time>2022-04-03T11:44:09Z</time>
      </trkpt>
      <trkpt lat="38.279703" lon="-2.404415">
        <ele>944.6</ele>
        <time>2022-04-03T11:44:26Z</time>
      </trkpt>
      <trkpt lat="38.279645" lon="-2.404191">
        <ele>945.5</ele>
        <time>2022-04-03T11:44:43Z</time>
      </trkpt>
      <trkpt lat="38.279515" lon="-2.404022">
        <ele>943.9</ele>
        <time>2022-04-03T11:45:00Z</time>
      </trkpt>
      <trkpt lat="38.279375" lon="-2.403871">
        <ele>942.6</ele>
        <time>2022-04-03T11:45:22Z</time>
      </trkpt>
      <trkpt lat="38.279520" lon="-2.403723">
        <ele>941.3</ele>
        <time>2022-04-03T11:45:47Z</time>
      </trkpt>
      <trkpt lat="38.279500" lon="-2.403495">
        <ele>943.3</ele>
        <time>2022-04-03T11:46:15Z</time>
      </trkpt>
      <trkpt lat="38.279339" lon="-2.403381">
        <ele>940.6</ele>
        <time>2022-04-03T11:46:38Z</time>
      </trkpt>
      <trkpt lat="38.279360" lon="-2.403146">
        <ele>939.3</ele>
        <time>2022-04-03T11:46:57Z</time>
      </trkpt>
      <trkpt lat="38.279354" lon="-2.402916">
        <ele>938.9</ele>
        <time>2022-04-03T11:47:19Z</time>
      </trkpt>
      <trkpt lat="38.279393" lon="-2.402690">
        <ele>937.3</ele>
        <time>2022-04-03T11:47:53Z</time>
      </trkpt>
      <trkpt lat="38.279494" lon="-2.402497">
        <ele>937.7</ele>
        <time>2022-04-03T11:51:26Z</time>
      </trkpt>
      <trkpt lat="38.279677" lon="-2.402544">
        <ele>939.6</ele>
        <time>2022-04-03T11:52:11Z</time>
      </trkpt>
      <trkpt lat="38.279853" lon="-2.402591">
        <ele>945.5</ele>
        <time>2022-04-03T11:52:44Z</time>
      </trkpt>
      <trkpt lat="38.280029" lon="-2.402526">
        <ele>941.6</ele>
        <time>2022-04-03T11:53:14Z</time>
      </trkpt>
      <trkpt lat="38.280142" lon="-2.402334">
        <ele>939.6</ele>
        <time>2022-04-03T11:53:28Z</time>
      </trkpt>
      <trkpt lat="38.280315" lon="-2.402256">
        <ele>938.3</ele>
        <time>2022-04-03T11:53:52Z</time>
      </trkpt>
      <trkpt lat="38.280419" lon="-2.402456">
        <ele>938.5</ele>
        <time>2022-04-03T11:54:08Z</time>
      </trkpt>
      <trkpt lat="38.280576" lon="-2.402582">
        <ele>939.6</ele>
        <time>2022-04-03T11:54:25Z</time>
      </trkpt>
      <trkpt lat="38.280755" lon="-2.402631">
        <ele>943.5</ele>
        <time>2022-04-03T11:54:48Z</time>
      </trkpt>
      <trkpt lat="38.280866" lon="-2.402814">
        <ele>943.2</ele>
        <time>2022-04-03T11:56:47Z</time>
      </trkpt>
      <trkpt lat="38.281023" lon="-2.402692">
        <ele>945.7</ele>
        <time>2022-04-03T11:58:32Z</time>
      </trkpt>
      <trkpt lat="38.281184" lon="-2.402576">
        <ele>945.5</ele>
        <time>2022-04-03T11:59:04Z</time>
      </trkpt>
      <trkpt lat="38.281322" lon="-2.402405">
        <ele>951.3</ele>
        <time>2022-04-03T11:59:18Z</time>
      </trkpt>
      <trkpt lat="38.281416" lon="-2.402200">
        <ele>948.9</ele>
        <time>2022-04-03T11:59:53Z</time>
      </trkpt>
      <trkpt lat="38.281584" lon="-2.402141">
        <ele>943.3</ele>
        <time>2022-04-03T12:10:32Z</time>
      </trkpt>
      <trkpt lat="38.281737" lon="-2.402273">
        <ele>947.7</ele>
        <time>2022-04-03T12:11:07Z</time>
      </trkpt>
      <trkpt lat="38.281766" lon="-2.402500">
        <ele>947.5</ele>
        <time>2022-04-03T12:11:29Z</time>
      </trkpt>
      <trkpt lat="38.281932" lon="-2.402572">
        <ele>946.6</ele>
        <time>2022-04-03T12:12:18Z</time>
      </trkpt>
      <trkpt lat="38.282113" lon="-2.402527">
        <ele>950.5</ele>
        <time>2022-04-03T12:12:37Z</time>
      </trkpt>
      <trkpt lat="38.282261" lon="-2.402382">
        <ele>953.3</ele>
        <time>2022-04-03T12:12:55Z</time>
      </trkpt>
      <trkpt lat="38.282348" lon="-2.402173">
        <ele>960.3</ele>
        <time>2022-04-03T12:13:15Z</time>
      </trkpt>
      <trkpt lat="38.282402" lon="-2.401953">
        <ele>964.6</ele>
        <time>2022-04-03T12:13:36Z</time>
      </trkpt>
      <trkpt lat="38.282443" lon="-2.401724">
        <ele>962.7</ele>
        <time>2022-04-03T12:14:06Z</time>
      </trkpt>
      <trkpt lat="38.282397" lon="-2.401488">
        <ele>969.6</ele>
        <time>2022-04-03T12:14:41Z</time>
      </trkpt>
      <trkpt lat="38.282341" lon="-2.401255">
        <ele>972.6</ele>
        <time>2022-04-03T12:14:58Z</time>
      </trkpt>
      <trkpt lat="38.282307" lon="-2.401030">
        <ele>971.6</ele>
        <time>2022-04-03T12:15:16Z</time>
      </trkpt>
      <trkpt lat="38.282284" lon="-2.400802">
        <ele>975.5</ele>
        <time>2022-04-03T12:15:33Z</time>
      </trkpt>
      <trkpt lat="38.282392" lon="-2.400614">
        <ele>979.7</ele>
        <time>2022-04-03T12:16:00Z</time>
      </trkpt>
      <trkpt lat="38.282543" lon="-2.400485">
        <ele>982.8</ele>
        <time>2022-04-03T12:16:29Z</time>
      </trkpt>
      <trkpt lat="38.282633" lon="-2.400266">
        <ele>986.6</ele>
        <time>2022-04-03T12:16:46Z</time>
      </trkpt>
      <trkpt lat="38.282514" lon="-2.400101">
        <ele>986.6</ele>
        <time>2022-04-03T12:17:17Z</time>
      </trkpt>
      <trkpt lat="38.282331" lon="-2.400087">
        <ele>988.6</ele>
        <time>2022-04-03T12:17:55Z</time>
      </trkpt>
      <trkpt lat="38.282174" lon="-2.399952">
        <ele>992.4</ele>
        <time>2022-04-03T12:18:37Z</time>
      </trkpt>
      <trkpt lat="38.282164" lon="-2.399710">
        <ele>993.6</ele>
        <time>2022-04-03T12:18:55Z</time>
      </trkpt>
      <trkpt lat="38.282113" lon="-2.399478">
        <ele>998.5</ele>
        <time>2022-04-03T12:19:12Z</time>
      </trkpt>
      <trkpt lat="38.281928" lon="-2.399455">
        <ele>1001.8</ele>
        <time>2022-04-03T12:19:50Z</time>
      </trkpt>
      <trkpt lat="38.281757" lon="-2.399544">
        <ele>1005.6</ele>
        <time>2022-04-03T12:20:11Z</time>
      </trkpt>
      <trkpt lat="38.281585" lon="-2.399632">
        <ele>1008.6</ele>
        <time>2022-04-03T12:20:30Z</time>
      </trkpt>
      <trkpt lat="38.281398" lon="-2.399626">
        <ele>1007.9</ele>
        <time>2022-04-03T12:20:49Z</time>
      </trkpt>
      <trkpt lat="38.281202" lon="-2.399582">
        <ele>1007.6</ele>
        <time>2022-04-03T12:21:06Z</time>
      </trkpt>
      <trkpt lat="38.281106" lon="-2.399377">
        <ele>1009.8</ele>
        <time>2022-04-03T12:21:24Z</time>
      </trkpt>
      <trkpt lat="38.280980" lon="-2.399200">
        <ele>1013.3</ele>
        <time>2022-04-03T12:21:40Z</time>
      </trkpt>
      <trkpt lat="38.280877" lon="-2.399006">
        <ele>1014.9</ele>
        <time>2022-04-03T12:21:56Z</time>
      </trkpt>
      <trkpt lat="38.280912" lon="-2.398769">
        <ele>1017.3</ele>
        <time>2022-04-03T12:22:14Z</time>
      </trkpt>
      <trkpt lat="38.280914" lon="-2.398525">
        <ele>1017.5</ele>
        <time>2022-04-03T12:22:31Z</time>
      </trkpt>
      <trkpt lat="38.280979" lon="-2.398309">
        <ele>1017.9</ele>
        <time>2022-04-03T12:22:48Z</time>
      </trkpt>
      <trkpt lat="38.280991" lon="-2.398060">
        <ele>1018.6</ele>
        <time>2022-04-03T12:23:05Z</time>
      </trkpt>
      <trkpt lat="38.280921" lon="-2.397838">
        <ele>1016.3</ele>
        <time>2022-04-03T12:23:19Z</time>
      </trkpt>
      <trkpt lat="38.280891" lon="-2.397596">
        <ele>1016.9</ele>
        <time>2022-04-03T12:23:36Z</time>
      </trkpt>
      <trkpt lat="38.280801" lon="-2.397387">
        <ele>1017.6</ele>
        <time>2022-04-03T12:23:52Z</time>
      </trkpt>
      <trkpt lat="38.280705" lon="-2.397190">
        <ele>1020.5</ele>
        <time>2022-04-03T12:24:07Z</time>
      </trkpt>
      <trkpt lat="38.280629" lon="-2.396964">
        <ele>1022.2</ele>
        <time>2022-04-03T12:24:25Z</time>
      </trkpt>
      <trkpt lat="38.280600" lon="-2.396728">
        <ele>1021.9</ele>
        <time>2022-04-03T12:24:45Z</time>
      </trkpt>
      <trkpt lat="38.280697" lon="-2.396527">
        <ele>1022.5</ele>
        <time>2022-04-03T12:25:01Z</time>
      </trkpt>
      <trkpt lat="38.280748" lon="-2.396298">
        <ele>1021.6</ele>
        <time>2022-04-03T12:25:15Z</time>
      </trkpt>
      <trkpt lat="38.280819" lon="-2.396080">
        <ele>1023.5</ele>
        <time>2022-04-03T12:25:34Z</time>
      </trkpt>
      <trkpt lat="38.280988" lon="-2.395992">
        <ele>1023.6</ele>
        <time>2022-04-03T12:25:47Z</time>
      </trkpt>
      <trkpt lat="38.281150" lon="-2.395876">
        <ele>1023.0</ele>
        <time>2022-04-03T12:26:02Z</time>
      </trkpt>
      <trkpt lat="38.281325" lon="-2.395791">
        <ele>1024.5</ele>
        <time>2022-04-03T12:26:16Z</time>
      </trkpt>
      <trkpt lat="38.281497" lon="-2.395719">
        <ele>1026.6</ele>
        <time>2022-04-03T12:26:33Z</time>
      </trkpt>
      <trkpt lat="38.281678" lon="-2.395684">
        <ele>1027.9</ele>
        <time>2022-04-03T12:26:49Z</time>
      </trkpt>
      <trkpt lat="38.281866" lon="-2.395660">
        <ele>1027.6</ele>
        <time>2022-04-03T12:27:06Z</time>
      </trkpt>
      <trkpt lat="38.282037" lon="-2.395567">
        <ele>1028.5</ele>
        <time>2022-04-03T12:27:20Z</time>
      </trkpt>
      <trkpt lat="38.282177" lon="-2.395412">
        <ele>1027.6</ele>
        <time>2022-04-03T12:27:35Z</time>
      </trkpt>
      <trkpt lat="38.282297" lon="-2.395238">
        <ele>1026.5</ele>
        <time>2022-04-03T12:27:50Z</time>
      </trkpt>
      <trkpt lat="38.282383" lon="-2.395033">
        <ele>1028.3</ele>
        <time>2022-04-03T12:28:05Z</time>
      </trkpt>
      <trkpt lat="38.282351" lon="-2.394798">
        <ele>1027.6</ele>
        <time>2022-04-03T12:28:23Z</time>
      </trkpt>
      <trkpt lat="38.282282" lon="-2.394582">
        <ele>1026.9</ele>
        <time>2022-04-03T12:28:38Z</time>
      </trkpt>
      <trkpt lat="38.282213" lon="-2.394363">
        <ele>1025.6</ele>
        <time>2022-04-03T12:28:54Z</time>
      </trkpt>
      <trkpt lat="38.282178" lon="-2.394136">
        <ele>1027.9</ele>
        <time>2022-04-03T12:29:09Z</time>
      </trkpt>
      <trkpt lat="38.282142" lon="-2.393907">
        <ele>1029.6</ele>
        <time>2022-04-03T12:29:26Z</time>
      </trkpt>
      <trkpt lat="38.282104" lon="-2.393674">
        <ele>1030.6</ele>
        <time>2022-04-03T12:29:42Z</time>
      </trkpt>
      <trkpt lat="38.282102" lon="-2.393439">
        <ele>1031.5</ele>
        <time>2022-04-03T12:29:59Z</time>
      </trkpt>
      <trkpt lat="38.282191" lon="-2.393238">
        <ele>1037.6</ele>
        <time>2022-04-03T12:30:16Z</time>
      </trkpt>
      <trkpt lat="38.282281" lon="-2.393031">
        <ele>1037.6</ele>
        <time>2022-04-03T12:30:33Z</time>
      </trkpt>
      <trkpt lat="38.282356" lon="-2.392821">
        <ele>1036.6</ele>
        <time>2022-04-03T12:30:51Z</time>
      </trkpt>
      <trkpt lat="38.282422" lon="-2.392605">
        <ele>1037.8</ele>
        <time>2022-04-03T12:31:05Z</time>
      </trkpt>
      <trkpt lat="38.282414" lon="-2.392356">
        <ele>1034.6</ele>
        <time>2022-04-03T12:31:21Z</time>
      </trkpt>
      <trkpt lat="38.282333" lon="-2.392148">
        <ele>1034.8</ele>
        <time>2022-04-03T12:31:34Z</time>
      </trkpt>
      <trkpt lat="38.282276" lon="-2.391929">
        <ele>1033.6</ele>
        <time>2022-04-03T12:31:48Z</time>
      </trkpt>
      <trkpt lat="38.282211" lon="-2.391695">
        <ele>1035.5</ele>
        <time>2022-04-03T12:32:05Z</time>
      </trkpt>
      <trkpt lat="38.282198" lon="-2.391460">
        <ele>1036.6</ele>
        <time>2022-04-03T12:32:20Z</time>
      </trkpt>
      <trkpt lat="38.282198" lon="-2.391219">
        <ele>1035.6</ele>
        <time>2022-04-03T12:32:37Z</time>
      </trkpt>
      <trkpt lat="38.282179" lon="-2.390980">
        <ele>1033.9</ele>
        <time>2022-04-03T12:32:52Z</time>
      </trkpt>
      <trkpt lat="38.282160" lon="-2.390751">
        <ele>1035.6</ele>
        <time>2022-04-03T12:33:06Z</time>
      </trkpt>
      <trkpt lat="38.282169" lon="-2.390509">
        <ele>1035.8</ele>
        <time>2022-04-03T12:33:24Z</time>
      </trkpt>
      <trkpt lat="38.282204" lon="-2.390268">
        <ele>1037.6</ele>
        <time>2022-04-03T12:33:42Z</time>
      </trkpt>
      <trkpt lat="38.282228" lon="-2.390040">
        <ele>1036.7</ele>
        <time>2022-04-03T12:33:57Z</time>
      </trkpt>
      <trkpt lat="38.282226" lon="-2.389811">
        <ele>1032.6</ele>
        <time>2022-04-03T12:34:14Z</time>
      </trkpt>
      <trkpt lat="38.282152" lon="-2.389594">
        <ele>1030.6</ele>
        <time>2022-04-03T12:34:30Z</time>
      </trkpt>
      <trkpt lat="38.281984" lon="-2.389490">
        <ele>1027.3</ele>
        <time>2022-04-03T12:34:48Z</time>
      </trkpt>
      <trkpt lat="38.281837" lon="-2.389354">
        <ele>1025.6</ele>
        <time>2022-04-03T12:35:10Z</time>
      </trkpt>
      <trkpt lat="38.281832" lon="-2.389117">
        <ele>1034.6</ele>
        <time>2022-04-03T12:35:49Z</time>
      </trkpt>
      <trkpt lat="38.281838" lon="-2.388886">
        <ele>1034.9</ele>
        <time>2022-04-03T12:36:09Z</time>
      </trkpt>
      <trkpt lat="38.281835" lon="-2.388654">
        <ele>1026.6</ele>
        <time>2022-04-03T12:36:42Z</time>
      </trkpt>
      <trkpt lat="38.281741" lon="-2.388442">
        <ele>1022.6</ele>
        <time>2022-04-03T12:37:03Z</time>
      </trkpt>
      <trkpt lat="38.281670" lon="-2.388226">
        <ele>1021.6</ele>
        <time>2022-04-03T12:37:22Z</time>
      </trkpt>
      <trkpt lat="38.281593" lon="-2.388009">
        <ele>1020.5</ele>
        <time>2022-04-03T12:37:41Z</time>
      </trkpt>
      <trkpt lat="38.281754" lon="-2.387895">
        <ele>1025.2</ele>
        <time>2022-04-03T12:38:02Z</time>
      </trkpt>
      <trkpt lat="38.281933" lon="-2.387878">
        <ele>1031.6</ele>
        <time>2022-04-03T12:38:23Z</time>
      </trkpt>
      <trkpt lat="38.282108" lon="-2.387824">
        <ele>1030.9</ele>
        <time>2022-04-03T12:38:58Z</time>
      </trkpt>
      <trkpt lat="38.282180" lon="-2.387607">
        <ele>1025.6</ele>
        <time>2022-04-03T12:39:13Z</time>
      </trkpt>
      <trkpt lat="38.282290" lon="-2.387408">
        <ele>1025.6</ele>
        <time>2022-04-03T12:40:28Z</time>
      </trkpt>
      <trkpt lat="38.282428" lon="-2.387246">
        <ele>1018.0</ele>
        <time>2022-04-03T12:40:44Z</time>
      </trkpt>
      <trkpt lat="38.282575" lon="-2.387109">
        <ele>1013.6</ele>
        <time>2022-04-03T12:41:01Z</time>
      </trkpt>
      <trkpt lat="38.282738" lon="-2.386958">
        <ele>1012.6</ele>
        <time>2022-04-03T12:41:15Z</time>
      </trkpt>
      <trkpt lat="38.282869" lon="-2.386780">
        <ele>1011.5</ele>
        <time>2022-04-03T12:41:30Z</time>
      </trkpt>
      <trkpt lat="38.282938" lon="-2.386557">
        <ele>1006.9</ele>
        <time>2022-04-03T12:41:52Z</time>
      </trkpt>
      <trkpt lat="38.283017" lon="-2.386339">
        <ele>1000.9</ele>
        <time>2022-04-03T12:42:11Z</time>
      </trkpt>
      <trkpt lat="38.283119" lon="-2.386129">
        <ele>999.6</ele>
        <time>2022-04-03T12:42:27Z</time>
      </trkpt>
      <trkpt lat="38.283189" lon="-2.385906">
        <ele>993.6</ele>
        <time>2022-04-03T12:42:42Z</time>
      </trkpt>
      <trkpt lat="38.283173" lon="-2.385677">
        <ele>989.6</ele>
        <time>2022-04-03T12:42:58Z</time>
      </trkpt>
      <trkpt lat="38.283167" lon="-2.385447">
        <ele>986.9</ele>
        <time>2022-04-03T12:43:12Z</time>
      </trkpt>
      <trkpt lat="38.283189" lon="-2.385205">
        <ele>984.9</ele>
        <time>2022-04-03T12:43:29Z</time>
      </trkpt>
      <trkpt lat="38.283196" lon="-2.384969">
        <ele>982.6</ele>
        <time>2022-04-03T12:43:51Z</time>
      </trkpt>
      <trkpt lat="38.283268" lon="-2.384743">
        <ele>979.6</ele>
        <time>2022-04-03T12:44:10Z</time>
      </trkpt>
      <trkpt lat="38.283333" lon="-2.384524">
        <ele>982.6</ele>
        <time>2022-04-03T12:44:32Z</time>
      </trkpt>
      <trkpt lat="38.283376" lon="-2.384294">
        <ele>969.0</ele>
        <time>2022-04-03T12:44:56Z</time>
      </trkpt>
      <trkpt lat="38.283392" lon="-2.384062">
        <ele>969.6</ele>
        <time>2022-04-03T12:45:12Z</time>
      </trkpt>
      <trkpt lat="38.283414" lon="-2.383832">
        <ele>969.6</ele>
        <time>2022-04-03T12:45:27Z</time>
      </trkpt>
      <trkpt lat="38.283451" lon="-2.383601">
        <ele>967.4</ele>
        <time>2022-04-03T12:45:44Z</time>
      </trkpt>
      <trkpt lat="38.283479" lon="-2.383372">
        <ele>967.6</ele>
        <time>2022-04-03T12:46:01Z</time>
      </trkpt>
      <trkpt lat="38.283514" lon="-2.383135">
        <ele>972.3</ele>
        <time>2022-04-03T12:46:26Z</time>
      </trkpt>
      <trkpt lat="38.283559" lon="-2.382914">
        <ele>971.3</ele>
        <time>2022-04-03T12:46:48Z</time>
      </trkpt>
      <trkpt lat="38.283600" lon="-2.382680">
        <ele>969.7</ele>
        <time>2022-04-03T12:47:10Z</time>
      </trkpt>
      <trkpt lat="38.283576" lon="-2.382444">
        <ele>964.4</ele>
        <time>2022-04-03T12:47:25Z</time>
      </trkpt>
      <trkpt lat="38.283573" lon="-2.382210">
        <ele>963.0</ele>
        <time>2022-04-03T12:47:43Z</time>
      </trkpt>
      <trkpt lat="38.283546" lon="-2.381972">
        <ele>959.6</ele>
        <time>2022-04-03T12:48:01Z</time>
      </trkpt>
      <trkpt lat="38.283478" lon="-2.381755">
        <ele>957.9</ele>
        <time>2022-04-03T12:48:17Z</time>
      </trkpt>
      <trkpt lat="38.283536" lon="-2.381524">
        <ele>955.6</ele>
        <time>2022-04-03T12:48:33Z</time>
      </trkpt>
      <trkpt lat="38.283592" lon="-2.381301">
        <ele>955.5</ele>
        <time>2022-04-03T12:48:47Z</time>
      </trkpt>
      <trkpt lat="38.283633" lon="-2.381060">
        <ele>953.9</ele>
        <time>2022-04-03T12:49:03Z</time>
      </trkpt>
      <trkpt lat="38.283695" lon="-2.380845">
        <ele>954.9</ele>
        <time>2022-04-03T12:49:16Z</time>
      </trkpt>
      <trkpt lat="38.283775" lon="-2.380637">
        <ele>953.9</ele>
        <time>2022-04-03T12:49:29Z</time>
      </trkpt>
      <trkpt lat="38.283940" lon="-2.380543">
        <ele>954.5</ele>
        <time>2022-04-03T12:49:47Z</time>
      </trkpt>
      <trkpt lat="38.284115" lon="-2.380462">
        <ele>953.7</ele>
        <time>2022-04-03T12:50:05Z</time>
      </trkpt>
      <trkpt lat="38.284279" lon="-2.380354">
        <ele>947.6</ele>
        <time>2022-04-03T12:50:26Z</time>
      </trkpt>
      <trkpt lat="38.284234" lon="-2.380131">
        <ele>940.7</ele>
        <time>2022-04-03T12:51:12Z</time>
      </trkpt>
      <trkpt lat="38.284052" lon="-2.380094">
        <ele>941.3</ele>
        <time>2022-04-03T12:51:29Z</time>
      </trkpt>
      <trkpt lat="38.283884" lon="-2.380193">
        <ele>937.7</ele>
        <time>2022-04-03T12:51:47Z</time>
      </trkpt>
      <trkpt lat="38.283702" lon="-2.380249">
        <ele>933.7</ele>
        <time>2022-04-03T12:52:06Z</time>
      </trkpt>
      <trkpt lat="38.283521" lon="-2.380217">
        <ele>927.7</ele>
        <time>2022-04-03T12:52:25Z</time>
      </trkpt>
      <trkpt lat="38.283436" lon="-2.380004">
        <ele>926.6</ele>
        <time>2022-04-03T12:52:45Z</time>
      </trkpt>
      <trkpt lat="38.283352" lon="-2.379792">
        <ele>926.6</ele>
        <time>2022-04-03T12:53:03Z</time>
      </trkpt>
      <trkpt lat="38.283200" lon="-2.379662">
        <ele>927.6</ele>
        <time>2022-04-03T12:53:19Z</time>
      </trkpt>
      <trkpt lat="38.283054" lon="-2.379506">
        <ele>926.9</ele>
        <time>2022-04-03T12:53:33Z</time>
      </trkpt>
      <trkpt lat="38.282930" lon="-2.379334">
        <ele>926.6</ele>
        <time>2022-04-03T12:53:49Z</time>
      </trkpt>
      <trkpt lat="38.282821" lon="-2.379146">
        <ele>928.6</ele>
        <time>2022-04-03T12:54:05Z</time>
      </trkpt>
      <trkpt lat="38.282727" lon="-2.378938">
        <ele>931.3</ele>
        <time>2022-04-03T12:54:21Z</time>
      </trkpt>
      <trkpt lat="38.282676" lon="-2.378718">
        <ele>936.6</ele>
        <time>2022-04-03T12:54:39Z</time>
      </trkpt>
      <trkpt lat="38.282639" lon="-2.378491">
        <ele>939.3</ele>
        <time>2022-04-03T12:55:00Z</time>
      </trkpt>
      <trkpt lat="38.282639" lon="-2.378261">
        <ele>942.6</ele>
        <time>2022-04-03T12:55:20Z</time>
      </trkpt>
      <trkpt lat="38.282507" lon="-2.378094">
        <ele>943.5</ele>
        <time>2022-04-03T12:55:38Z</time>
      </trkpt>
      <trkpt lat="38.282358" lon="-2.377963">
        <ele>944.3</ele>
        <time>2022-04-03T12:55:56Z</time>
      </trkpt>
      <trkpt lat="38.282213" lon="-2.377818">
        <ele>945.6</ele>
        <time>2022-04-03T12:56:14Z</time>
      </trkpt>
      <trkpt lat="38.282055" lon="-2.377683">
        <ele>945.6</ele>
        <time>2022-04-03T12:56:32Z</time>
      </trkpt>
      <trkpt lat="38.281888" lon="-2.377568">
        <ele>944.6</ele>
        <time>2022-04-03T12:56:49Z</time>
      </trkpt>
      <trkpt lat="38.281762" lon="-2.377388">
        <ele>938.7</ele>
        <time>2022-04-03T12:57:07Z</time>
      </trkpt>
      <trkpt lat="38.281597" lon="-2.377273">
        <ele>937.7</ele>
        <time>2022-04-03T12:57:27Z</time>
      </trkpt>
      <trkpt lat="38.281415" lon="-2.377208">
        <ele>935.6</ele>
        <time>2022-04-03T12:57:43Z</time>
      </trkpt>
      <trkpt lat="38.281268" lon="-2.377058">
        <ele>934.6</ele>
        <time>2022-04-03T12:58:01Z</time>
      </trkpt>
      <trkpt lat="38.281159" lon="-2.376872">
        <ele>933.6</ele>
        <time>2022-04-03T12:58:16Z</time>
      </trkpt>
      <trkpt lat="38.280991" lon="-2.376785">
        <ele>932.3</ele>
        <time>2022-04-03T12:58:33Z</time>
      </trkpt>
      <trkpt lat="38.280963" lon="-2.376553">
        <ele>934.6</ele>
        <time>2022-04-03T12:58:48Z</time>
      </trkpt>
      <trkpt lat="38.280958" lon="-2.376310">
        <ele>933.9</ele>
        <time>2022-04-03T12:59:02Z</time>
      </trkpt>
      <trkpt lat="38.280857" lon="-2.376118">
        <ele>931.3</ele>
        <time>2022-04-03T12:59:19Z</time>
      </trkpt>
      <trkpt lat="38.280724" lon="-2.375958">
        <ele>930.7</ele>
        <time>2022-04-03T12:59:35Z</time>
      </trkpt>
      <trkpt lat="38.280589" lon="-2.375804">
        <ele>934.6</ele>
        <time>2022-04-03T12:59:50Z</time>
      </trkpt>
      <trkpt lat="38.280477" lon="-2.375613">
        <ele>932.7</ele>
        <time>2022-04-03T13:00:03Z</time>
      </trkpt>
      <trkpt lat="38.280316" lon="-2.375486">
        <ele>930.6</ele>
        <time>2022-04-03T13:00:18Z</time>
      </trkpt>
      <trkpt lat="38.280137" lon="-2.375504">
        <ele>925.9</ele>
        <time>2022-04-03T13:00:32Z</time>
      </trkpt>
      <trkpt lat="38.279951" lon="-2.375500">
        <ele>921.7</ele>
        <time>2022-04-03T13:00:47Z</time>
      </trkpt>
      <trkpt lat="38.279780" lon="-2.375584">
        <ele>920.7</ele>
        <time>2022-04-03T13:01:03Z</time>
      </trkpt>
      <trkpt lat="38.279638" lon="-2.375438">
        <ele>917.6</ele>
        <time>2022-04-03T13:01:26Z</time>
      </trkpt>
      <trkpt lat="38.279534" lon="-2.375248">
        <ele>922.3</ele>
        <time>2022-04-03T13:01:44Z</time>
      </trkpt>
      <trkpt lat="38.279435" lon="-2.375047">
        <ele>924.6</ele>
        <time>2022-04-03T13:01:59Z</time>
      </trkpt>
      <trkpt lat="38.279354" lon="-2.374833">
        <ele>927.5</ele>
        <time>2022-04-03T13:02:15Z</time>
      </trkpt>
      <trkpt lat="38.279211" lon="-2.374693">
        <ele>926.6</ele>
        <time>2022-04-03T13:02:31Z</time>
      </trkpt>
      <trkpt lat="38.279023" lon="-2.374642">
        <ele>926.9</ele>
        <time>2022-04-03T13:02:47Z</time>
      </trkpt>
      <trkpt lat="38.278843" lon="-2.374638">
        <ele>924.6</ele>
        <time>2022-04-03T13:03:03Z</time>
      </trkpt>
      <trkpt lat="38.278742" lon="-2.374437">
        <ele>918.6</ele>
        <time>2022-04-03T13:03:27Z</time>
      </trkpt>
      <trkpt lat="38.278706" lon="-2.374204">
        <ele>917.9</ele>
        <time>2022-04-03T13:03:46Z</time>
      </trkpt>
      <trkpt lat="38.278623" lon="-2.373988">
        <ele>916.6</ele>
        <time>2022-04-03T13:04:03Z</time>
      </trkpt>
      <trkpt lat="38.278542" lon="-2.373774">
        <ele>915.7</ele>
        <time>2022-04-03T13:04:20Z</time>
      </trkpt>
      <trkpt lat="38.278483" lon="-2.373543">
        <ele>914.6</ele>
        <time>2022-04-03T13:04:37Z</time>
      </trkpt>
      <trkpt lat="38.278340" lon="-2.373383">
        <ele>914.6</ele>
        <time>2022-04-03T13:04:54Z</time>
      </trkpt>
      <trkpt lat="38.278216" lon="-2.373201">
        <ele>911.7</ele>
        <time>2022-04-03T13:05:11Z</time>
      </trkpt>
      <trkpt lat="38.278101" lon="-2.373015">
        <ele>914.6</ele>
        <time>2022-04-03T13:05:25Z</time>
      </trkpt>
      <trkpt lat="38.277939" lon="-2.372898">
        <ele>916.6</ele>
        <time>2022-04-03T13:05:41Z</time>
      </trkpt>
      <trkpt lat="38.277782" lon="-2.372773">
        <ele>916.3</ele>
        <time>2022-04-03T13:06:01Z</time>
      </trkpt>
      <trkpt lat="38.277761" lon="-2.372541">
        <ele>917.6</ele>
        <time>2022-04-03T13:06:16Z</time>
      </trkpt>
      <trkpt lat="38.277578" lon="-2.372480">
        <ele>913.7</ele>
        <time>2022-04-03T13:06:33Z</time>
      </trkpt>
      <trkpt lat="38.277391" lon="-2.372475">
        <ele>910.7</ele>
        <time>2022-04-03T13:06:48Z</time>
      </trkpt>
      <trkpt lat="38.277203" lon="-2.372456">
        <ele>907.7</ele>
        <time>2022-04-03T13:07:05Z</time>
      </trkpt>
      <trkpt lat="38.277020" lon="-2.372453">
        <ele>903.6</ele>
        <time>2022-04-03T13:07:23Z</time>
      </trkpt>
      <trkpt lat="38.276843" lon="-2.372387">
        <ele>899.7</ele>
        <time>2022-04-03T13:07:42Z</time>
      </trkpt>
      <trkpt lat="38.276813" lon="-2.372158">
        <ele>897.7</ele>
        <time>2022-04-03T13:07:56Z</time>
      </trkpt>
      <trkpt lat="38.276863" lon="-2.371928">
        <ele>897.6</ele>
        <time>2022-04-03T13:08:11Z</time>
      </trkpt>
      <trkpt lat="38.276933" lon="-2.371715">
        <ele>895.0</ele>
        <time>2022-04-03T13:08:31Z</time>
      </trkpt>
      <trkpt lat="38.277061" lon="-2.371546">
        <ele>895.4</ele>
        <time>2022-04-03T13:08:47Z</time>
      </trkpt>
      <trkpt lat="38.277129" lon="-2.371325">
        <ele>899.6</ele>
        <time>2022-04-03T13:09:03Z</time>
      </trkpt>
      <trkpt lat="38.277244" lon="-2.371133">
        <ele>901.6</ele>
        <time>2022-04-03T13:09:23Z</time>
      </trkpt>
      <trkpt lat="38.277372" lon="-2.370960">
        <ele>905.3</ele>
        <time>2022-04-03T13:09:41Z</time>
      </trkpt>
      <trkpt lat="38.277506" lon="-2.370783">
        <ele>907.6</ele>
        <time>2022-04-03T13:09:58Z</time>
      </trkpt>
      <trkpt lat="38.277639" lon="-2.370604">
        <ele>910.3</ele>
        <time>2022-04-03T13:10:24Z</time>
      </trkpt>
      <trkpt lat="38.277630" lon="-2.370364">
        <ele>909.6</ele>
        <time>2022-04-03T13:10:40Z</time>
      </trkpt>
      <trkpt lat="38.277596" lon="-2.370134">
        <ele>911.6</ele>
        <time>2022-04-03T13:10:57Z</time>
      </trkpt>
      <trkpt lat="38.277709" lon="-2.369921">
        <ele>913.4</ele>
        <time>2022-04-03T13:11:13Z</time>
      </trkpt>
      <trkpt lat="38.277850" lon="-2.369773">
        <ele>914.6</ele>
        <time>2022-04-03T13:11:29Z</time>
      </trkpt>
      <trkpt lat="38.278022" lon="-2.369694">
        <ele>917.5</ele>
        <time>2022-04-03T13:11:51Z</time>
      </trkpt>
      <trkpt lat="38.278206" lon="-2.369643">
        <ele>919.6</ele>
        <time>2022-04-03T13:12:11Z</time>
      </trkpt>
      <trkpt lat="38.278380" lon="-2.369575">
        <ele>920.3</ele>
        <time>2022-04-03T13:12:32Z</time>
      </trkpt>
      <trkpt lat="38.278533" lon="-2.369683">
        <ele>921.7</ele>
        <time>2022-04-03T13:14:49Z</time>
      </trkpt>
      <trkpt lat="38.278697" lon="-2.369808">
        <ele>917.6</ele>
        <time>2022-04-03T13:15:16Z</time>
      </trkpt>
      <trkpt lat="38.278873" lon="-2.369761">
        <ele>917.6</ele>
        <time>2022-04-03T13:15:37Z</time>
      </trkpt>
      <trkpt lat="38.279056" lon="-2.369717">
        <ele>917.6</ele>
        <time>2022-04-03T13:15:56Z</time>
      </trkpt>
      <trkpt lat="38.279235" lon="-2.369673">
        <ele>912.9</ele>
        <time>2022-04-03T13:16:18Z</time>
      </trkpt>
      <trkpt lat="38.279413" lon="-2.369617">
        <ele>907.6</ele>
        <time>2022-04-03T13:16:37Z</time>
      </trkpt>
      <trkpt lat="38.279599" lon="-2.369614">
        <ele>904.6</ele>
        <time>2022-04-03T13:16:58Z</time>
      </trkpt>
      <trkpt lat="38.279784" lon="-2.369598">
        <ele>902.9</ele>
        <time>2022-04-03T13:17:16Z</time>
      </trkpt>
      <trkpt lat="38.279969" lon="-2.369626">
        <ele>899.7</ele>
        <time>2022-04-03T13:17:34Z</time>
      </trkpt>
      <trkpt lat="38.280119" lon="-2.369497">
        <ele>903.3</ele>
        <time>2022-04-03T13:17:55Z</time>
      </trkpt>
      <trkpt lat="38.280205" lon="-2.369292">
        <ele>900.6</ele>
        <time>2022-04-03T13:18:15Z</time>
      </trkpt>
      <trkpt lat="38.280288" lon="-2.369089">
        <ele>900.7</ele>
        <time>2022-04-03T13:18:33Z</time>
      </trkpt>
      <trkpt lat="38.280375" lon="-2.368875">
        <ele>901.7</ele>
        <time>2022-04-03T13:18:49Z</time>
      </trkpt>
      <trkpt lat="38.280492" lon="-2.368693">
        <ele>894.8</ele>
        <time>2022-04-03T13:19:09Z</time>
      </trkpt>
      <trkpt lat="38.280563" lon="-2.368469">
        <ele>887.9</ele>
        <time>2022-04-03T13:19:28Z</time>
      </trkpt>
      <trkpt lat="38.280693" lon="-2.368308">
        <ele>879.9</ele>
        <time>2022-04-03T13:20:02Z</time>
      </trkpt>
      <trkpt lat="38.280873" lon="-2.368270">
        <ele>872.6</ele>
        <time>2022-04-03T13:21:03Z</time>
      </trkpt>
      <trkpt lat="38.280988" lon="-2.368457">
        <ele>868.7</ele>
        <time>2022-04-03T13:21:44Z</time>
      </trkpt>
      <trkpt lat="38.281136" lon="-2.368590">
        <ele>867.6</ele>
        <time>2022-04-03T13:22:24Z</time>
      </trkpt>
      <trkpt lat="38.281250" lon="-2.368766">
        <ele>870.3</ele>
        <time>2022-04-03T13:23:05Z</time>
      </trkpt>
      <trkpt lat="38.281438" lon="-2.368726">
        <ele>868.3</ele>
        <time>2022-04-03T13:23:46Z</time>
      </trkpt>
      <trkpt lat="38.281626" lon="-2.368709">
        <ele>868.7</ele>
        <time>2022-04-03T13:24:24Z</time>
      </trkpt>
      <trkpt lat="38.281810" lon="-2.368744">
        <ele>866.0</ele>
        <time>2022-04-03T13:24:42Z</time>
      </trkpt>
      <trkpt lat="38.281945" lon="-2.368901">
        <ele>862.7</ele>
        <time>2022-04-03T13:25:18Z</time>
      </trkpt>
      <trkpt lat="38.282000" lon="-2.369116">
        <ele>857.9</ele>
        <time>2022-04-03T13:25:45Z</time>
      </trkpt>
      <trkpt lat="38.282065" lon="-2.369341">
        <ele>855.7</ele>
        <time>2022-04-03T13:26:10Z</time>
      </trkpt>
      <trkpt lat="38.282017" lon="-2.369563">
        <ele>853.6</ele>
        <time>2022-04-03T13:27:00Z</time>
      </trkpt>
      <trkpt lat="38.282201" lon="-2.369566">
        <ele>850.7</ele>
        <time>2022-04-03T13:27:43Z</time>
      </trkpt>
      <trkpt lat="38.282332" lon="-2.369409">
        <ele>850.7</ele>
        <time>2022-04-03T13:28:01Z</time>
      </trkpt>
      <trkpt lat="38.282412" lon="-2.369181">
        <ele>845.7</ele>
        <time>2022-04-03T13:28:57Z</time>
      </trkpt>
      <trkpt lat="38.282590" lon="-2.369249">
        <ele>842.9</ele>
        <time>2022-04-03T13:29:11Z</time>
      </trkpt>
      <trkpt lat="38.282739" lon="-2.369393">
        <ele>841.9</ele>
        <time>2022-04-03T13:29:28Z</time>
      </trkpt>
      <trkpt lat="38.282898" lon="-2.369522">
        <ele>840.0</ele>
        <time>2022-04-03T13:29:47Z</time>
      </trkpt>
      <trkpt lat="38.283059" lon="-2.369409">
        <ele>833.7</ele>
        <time>2022-04-03T13:30:15Z</time>
      </trkpt>
      <trkpt lat="38.283008" lon="-2.369187">
        <ele>833.6</ele>
        <time>2022-04-03T13:30:32Z</time>
      </trkpt>
      <trkpt lat="38.283167" lon="-2.369299">
        <ele>827.6</ele>
        <time>2022-04-03T13:30:49Z</time>
      </trkpt>
      <trkpt lat="38.283219" lon="-2.369528">
        <ele>826.7</ele>
        <time>2022-04-03T13:31:08Z</time>
      </trkpt>
      <trkpt lat="38.283240" lon="-2.369759">
        <ele>823.9</ele>
        <time>2022-04-03T13:31:26Z</time>
      </trkpt>
      <trkpt lat="38.283284" lon="-2.369987">
        <ele>820.0</ele>
        <time>2022-04-03T13:31:44Z</time>
      </trkpt>
      <trkpt lat="38.283316" lon="-2.370233">
        <ele>817.6</ele>
        <time>2022-04-03T13:32:03Z</time>
      </trkpt>
      <trkpt lat="38.283505" lon="-2.370250">
        <ele>806.0</ele>
        <time>2022-04-03T13:32:53Z</time>
      </trkpt>
      <trkpt lat="38.283689" lon="-2.370297">
        <ele>802.7</ele>
        <time>2022-04-03T13:33:11Z</time>
      </trkpt>
      <trkpt lat="38.283871" lon="-2.370294">
        <ele>799.7</ele>
        <time>2022-04-03T13:34:00Z</time>
      </trkpt>
      <trkpt lat="38.283989" lon="-2.370468">
        <ele>788.7</ele>
        <time>2022-04-03T13:34:33Z</time>
      </trkpt>
      <trkpt lat="38.284142" lon="-2.370607">
        <ele>776.7</ele>
        <time>2022-04-03T13:35:24Z</time>
      </trkpt>
      <trkpt lat="38.284198" lon="-2.370828">
        <ele>769.7</ele>
        <time>2022-04-03T13:35:48Z</time>
      </trkpt>
      <trkpt lat="38.284271" lon="-2.371043">
        <ele>765.0</ele>
        <time>2022-04-03T13:36:05Z</time>
      </trkpt>
      <trkpt lat="38.284353" lon="-2.371255">
        <ele>758.7</ele>
        <time>2022-04-03T13:36:39Z</time>
      </trkpt>
      <trkpt lat="38.284517" lon="-2.371367">
        <ele>753.0</ele>
        <time>2022-04-03T13:37:01Z</time>
      </trkpt>
      <trkpt lat="38.284620" lon="-2.371160">
        <ele>752.7</ele>
        <time>2022-04-03T13:37:30Z</time>
      </trkpt>
      <trkpt lat="38.284773" lon="-2.371019">
        <ele>748.5</ele>
        <time>2022-04-03T13:37:56Z</time>
      </trkpt>
      <trkpt lat="38.284890" lon="-2.370844">
        <ele>746.7</ele>
        <time>2022-04-03T13:38:23Z</time>
      </trkpt>
      <trkpt lat="38.285076" lon="-2.370847">
        <ele>741.6</ele>
        <time>2022-04-03T13:38:46Z</time>
      </trkpt>
      <trkpt lat="38.285250" lon="-2.370933">
        <ele>739.5</ele>
        <time>2022-04-03T13:39:14Z</time>
      </trkpt>
      <trkpt lat="38.285406" lon="-2.371067">
        <ele>753.7</ele>
        <time>2022-04-03T13:41:17Z</time>
      </trkpt>
      <trkpt lat="38.285546" lon="-2.371216">
        <ele>754.0</ele>
        <time>2022-04-03T13:42:30Z</time>
      </trkpt>
      <trkpt lat="38.285727" lon="-2.371240">
        <ele>751.7</ele>
        <time>2022-04-03T13:42:46Z</time>
      </trkpt>
      <trkpt lat="38.285908" lon="-2.371304">
        <ele>751.4</ele>
        <time>2022-04-03T13:43:00Z</time>
      </trkpt>
      <trkpt lat="38.286099" lon="-2.371299">
        <ele>750.7</ele>
        <time>2022-04-03T13:43:13Z</time>
      </trkpt>
      <trkpt lat="38.286273" lon="-2.371207">
        <ele>740.8</ele>
        <time>2022-04-03T13:43:30Z</time>
      </trkpt>
      <trkpt lat="38.286400" lon="-2.371378">
        <ele>731.7</ele>
        <time>2022-04-03T13:44:01Z</time>
      </trkpt>
      <trkpt lat="38.286576" lon="-2.371434">
        <ele>725.8</ele>
        <time>2022-04-03T13:44:19Z</time>
      </trkpt>
      <trkpt lat="38.286629" lon="-2.371209">
        <ele>727.7</ele>
        <time>2022-04-03T13:44:36Z</time>
      </trkpt>
      <trkpt lat="38.286806" lon="-2.371267">
        <ele>733.5</ele>
        <time>2022-04-03T13:44:59Z</time>
      </trkpt>
      <trkpt lat="38.286988" lon="-2.371329">
        <ele>734.6</ele>
        <time>2022-04-03T13:45:22Z</time>
      </trkpt>
      <trkpt lat="38.287144" lon="-2.371458">
        <ele>729.6</ele>
        <time>2022-04-03T13:45:41Z</time>
      </trkpt>
      <trkpt lat="38.287307" lon="-2.371354">
        <ele>732.6</ele>
        <time>2022-04-03T13:45:58Z</time>
      </trkpt>
      <trkpt lat="38.287474" lon="-2.371246">
        <ele>737.3</ele>
        <time>2022-04-03T13:46:27Z</time>
      </trkpt>
      <trkpt lat="38.287591" lon="-2.371070">
        <ele>741.6</ele>
        <time>2022-04-03T13:46:45Z</time>
      </trkpt>
      <trkpt lat="38.287735" lon="-2.371207">
        <ele>742.4</ele>
        <time>2022-04-03T13:47:02Z</time>
      </trkpt>
      <trkpt lat="38.287867" lon="-2.371371">
        <ele>747.6</ele>
        <time>2022-04-03T13:47:16Z</time>
      </trkpt>
      <trkpt lat="38.288007" lon="-2.371521">
        <ele>750.7</ele>
        <time>2022-04-03T13:47:33Z</time>
      </trkpt>
      <trkpt lat="38.288179" lon="-2.371611">
        <ele>751.7</ele>
        <time>2022-04-03T13:47:51Z</time>
      </trkpt>
      <trkpt lat="38.288368" lon="-2.371604">
        <ele>747.7</ele>
        <time>2022-04-03T13:48:09Z</time>
      </trkpt>
      <trkpt lat="38.288547" lon="-2.371514">
        <ele>746.7</ele>
        <time>2022-04-03T13:48:26Z</time>
      </trkpt>
      <trkpt lat="38.288712" lon="-2.371419">
        <ele>744.7</ele>
        <time>2022-04-03T13:48:46Z</time>
      </trkpt>
      <trkpt lat="38.288888" lon="-2.371337">
        <ele>741.7</ele>
        <time>2022-04-03T13:49:04Z</time>
      </trkpt>
      <trkpt lat="38.289071" lon="-2.371278">
        <ele>741.9</ele>
        <time>2022-04-03T13:49:20Z</time>
      </trkpt>
      <trkpt lat="38.289212" lon="-2.371128">
        <ele>737.7</ele>
        <time>2022-04-03T13:49:36Z</time>
      </trkpt>
      <trkpt lat="38.289319" lon="-2.370943">
        <ele>737.4</ele>
        <time>2022-04-03T13:49:51Z</time>
      </trkpt>
      <trkpt lat="38.289438" lon="-2.370761">
        <ele>742.6</ele>
        <time>2022-04-03T13:50:08Z</time>
      </trkpt>
      <trkpt lat="38.289541" lon="-2.370568">
        <ele>741.6</ele>
        <time>2022-04-03T13:50:25Z</time>
      </trkpt>
      <trkpt lat="38.289682" lon="-2.370404">
        <ele>742.7</ele>
        <time>2022-04-03T13:50:42Z</time>
      </trkpt>
      <trkpt lat="38.289807" lon="-2.370235">
        <ele>742.7</ele>
        <time>2022-04-03T13:51:00Z</time>
      </trkpt>
      <trkpt lat="38.289912" lon="-2.370044">
        <ele>744.4</ele>
        <time>2022-04-03T13:51:20Z</time>
      </trkpt>
      <trkpt lat="38.290017" lon="-2.369857">
        <ele>742.7</ele>
        <time>2022-04-03T13:51:37Z</time>
      </trkpt>
      <trkpt lat="38.290080" lon="-2.369636">
        <ele>743.6</ele>
        <time>2022-04-03T13:51:53Z</time>
      </trkpt>
      <trkpt lat="38.290195" lon="-2.369451">
        <ele>744.7</ele>
        <time>2022-04-03T13:52:10Z</time>
      </trkpt>
      <trkpt lat="38.290329" lon="-2.369277">
        <ele>747.4</ele>
        <time>2022-04-03T13:52:27Z</time>
      </trkpt>
      <trkpt lat="38.290451" lon="-2.369099">
        <ele>747.6</ele>
        <time>2022-04-03T13:52:45Z</time>
      </trkpt>
      <trkpt lat="38.290571" lon="-2.368925">
        <ele>747.8</ele>
        <time>2022-04-03T13:53:02Z</time>
      </trkpt>
      <trkpt lat="38.290696" lon="-2.368749">
        <ele>749.7</ele>
        <time>2022-04-03T13:53:18Z</time>
      </trkpt>
      <trkpt lat="38.290760" lon="-2.368534">
        <ele>750.7</ele>
        <time>2022-04-03T13:53:37Z</time>
      </trkpt>
      <trkpt lat="38.290859" lon="-2.368338">
        <ele>746.7</ele>
        <time>2022-04-03T13:53:52Z</time>
      </trkpt>
      <trkpt lat="38.291020" lon="-2.368221">
        <ele>750.3</ele>
        <time>2022-04-03T13:54:10Z</time>
      </trkpt>
      <trkpt lat="38.291184" lon="-2.368112">
        <ele>752.3</ele>
        <time>2022-04-03T13:54:27Z</time>
      </trkpt>
      <trkpt lat="38.291341" lon="-2.367979">
        <ele>752.7</ele>
        <time>2022-04-03T13:54:46Z</time>
      </trkpt>
      <trkpt lat="38.291492" lon="-2.367845">
        <ele>752.7</ele>
        <time>2022-04-03T13:55:00Z</time>
      </trkpt>
      <trkpt lat="38.291632" lon="-2.367702">
        <ele>753.8</ele>
        <time>2022-04-03T13:55:17Z</time>
      </trkpt>
      <trkpt lat="38.291756" lon="-2.367534">
        <ele>754.5</ele>
        <time>2022-04-03T13:55:34Z</time>
      </trkpt>
      <trkpt lat="38.291901" lon="-2.367370">
        <ele>756.7</ele>
        <time>2022-04-03T13:55:54Z</time>
      </trkpt>
      <trkpt lat="38.292068" lon="-2.367257">
        <ele>760.7</ele>
        <time>2022-04-03T13:56:11Z</time>
      </trkpt>
      <trkpt lat="38.292249" lon="-2.367206">
        <ele>760.8</ele>
        <time>2022-04-03T13:56:28Z</time>
      </trkpt>
      <trkpt lat="38.292432" lon="-2.367165">
        <ele>760.4</ele>
        <time>2022-04-03T13:56:47Z</time>
      </trkpt>
      <trkpt lat="38.292610" lon="-2.367225">
        <ele>759.7</ele>
        <time>2022-04-03T13:57:08Z</time>
      </trkpt>
      <trkpt lat="38.292623" lon="-2.366997">
        <ele>757.0</ele>
        <time>2022-04-03T13:57:34Z</time>
      </trkpt>
      <trkpt lat="38.292657" lon="-2.366765">
        <ele>753.7</ele>
        <time>2022-04-03T13:57:50Z</time>
      </trkpt>
      <trkpt lat="38.292718" lon="-2.366545">
        <ele>749.1</ele>
        <time>2022-04-03T13:58:06Z</time>
      </trkpt>
      <trkpt lat="38.292854" lon="-2.366376">
        <ele>746.7</ele>
        <time>2022-04-03T13:58:22Z</time>
      </trkpt>
      <trkpt lat="38.293021" lon="-2.366260">
        <ele>740.8</ele>
        <time>2022-04-03T13:58:39Z</time>
      </trkpt>
      <trkpt lat="38.293191" lon="-2.366149">
        <ele>739.7</ele>
        <time>2022-04-03T13:58:53Z</time>
      </trkpt>
      <trkpt lat="38.293319" lon="-2.365974">
        <ele>740.5</ele>
        <time>2022-04-03T13:59:12Z</time>
      </trkpt>
      <trkpt lat="38.293278" lon="-2.365740">
        <ele>736.5</ele>
        <time>2022-04-03T13:59:37Z</time>
      </trkpt>
      <trkpt lat="38.293189" lon="-2.365533">
        <ele>736.0</ele>
        <time>2022-04-03T13:59:50Z</time>
      </trkpt>
      <trkpt lat="38.293109" lon="-2.365324">
        <ele>735.6</ele>
        <time>2022-04-03T14:00:05Z</time>
      </trkpt>
      <trkpt lat="38.293074" lon="-2.365086">
        <ele>729.8</ele>
        <time>2022-04-03T14:00:21Z</time>
      </trkpt>
      <trkpt lat="38.293094" lon="-2.364841">
        <ele>723.1</ele>
        <time>2022-04-03T14:00:37Z</time>
      </trkpt>
      <trkpt lat="38.293058" lon="-2.364603">
        <ele>720.7</ele>
        <time>2022-04-03T14:00:52Z</time>
      </trkpt>
      <trkpt lat="38.293179" lon="-2.364424">
        <ele>719.8</ele>
        <time>2022-04-03T14:01:11Z</time>
      </trkpt>
      <trkpt lat="38.293367" lon="-2.364425">
        <ele>719.4</ele>
        <time>2022-04-03T14:01:27Z</time>
      </trkpt>
      <trkpt lat="38.293549" lon="-2.364394">
        <ele>718.7</ele>
        <time>2022-04-03T14:01:42Z</time>
      </trkpt>
      <trkpt lat="38.293696" lon="-2.364252">
        <ele>719.0</ele>
        <time>2022-04-03T14:01:56Z</time>
      </trkpt>
      <trkpt lat="38.293850" lon="-2.364127">
        <ele>719.6</ele>
        <time>2022-04-03T14:02:13Z</time>
      </trkpt>
      <trkpt lat="38.293937" lon="-2.363922">
        <ele>721.6</ele>
        <time>2022-04-03T14:02:31Z</time>
      </trkpt>
      <trkpt lat="38.293980" lon="-2.363695">
        <ele>722.7</ele>
        <time>2022-04-03T14:02:49Z</time>
      </trkpt>
      <trkpt lat="38.294119" lon="-2.363542">
        <ele>722.7</ele>
        <time>2022-04-03T14:03:02Z</time>
      </trkpt>
      <trkpt lat="38.294260" lon="-2.363382">
        <ele>722.0</ele>
        <time>2022-04-03T14:03:19Z</time>
      </trkpt>
      <trkpt lat="38.294397" lon="-2.363215">
        <ele>721.7</ele>
        <time>2022-04-03T14:03:37Z</time>
      </trkpt>
      <trkpt lat="38.294494" lon="-2.363022">
        <ele>720.7</ele>
        <time>2022-04-03T14:03:52Z</time>
      </trkpt>
      <trkpt lat="38.294567" lon="-2.362799">
        <ele>722.0</ele>
        <time>2022-04-03T14:04:10Z</time>
      </trkpt>
      <trkpt lat="38.294642" lon="-2.362575">
        <ele>719.8</ele>
        <time>2022-04-03T14:04:26Z</time>
      </trkpt>
      <trkpt lat="38.294755" lon="-2.362384">
        <ele>720.7</ele>
        <time>2022-04-03T14:04:39Z</time>
      </trkpt>
      <trkpt lat="38.294847" lon="-2.362175">
        <ele>723.7</ele>
        <time>2022-04-03T14:04:54Z</time>
      </trkpt>
      <trkpt lat="38.294923" lon="-2.361955">
        <ele>723.9</ele>
        <time>2022-04-03T14:05:11Z</time>
      </trkpt>
      <trkpt lat="38.294920" lon="-2.361713">
        <ele>724.4</ele>
        <time>2022-04-03T14:05:28Z</time>
      </trkpt>
      <trkpt lat="38.295026" lon="-2.361510">
        <ele>724.6</ele>
        <time>2022-04-03T14:05:43Z</time>
      </trkpt>
      <trkpt lat="38.295067" lon="-2.361279">
        <ele>723.8</ele>
        <time>2022-04-03T14:05:58Z</time>
      </trkpt>
      <trkpt lat="38.295158" lon="-2.361075">
        <ele>723.4</ele>
        <time>2022-04-03T14:06:12Z</time>
      </trkpt>
      <trkpt lat="38.295237" lon="-2.360863">
        <ele>722.7</ele>
        <time>2022-04-03T14:06:28Z</time>
      </trkpt>
      <trkpt lat="38.295249" lon="-2.360623">
        <ele>725.7</ele>
        <time>2022-04-03T14:06:42Z</time>
      </trkpt>
      <trkpt lat="38.295219" lon="-2.360381">
        <ele>726.6</ele>
        <time>2022-04-03T14:06:58Z</time>
      </trkpt>
      <trkpt lat="38.295269" lon="-2.360153">
        <ele>721.1</ele>
        <time>2022-04-03T14:07:13Z</time>
      </trkpt>
      <trkpt lat="38.295412" lon="-2.360012">
        <ele>717.7</ele>
        <time>2022-04-03T14:07:26Z</time>
      </trkpt>
      <trkpt lat="38.295572" lon="-2.359885">
        <ele>715.8</ele>
        <time>2022-04-03T14:07:43Z</time>
      </trkpt>
      <trkpt lat="38.295723" lon="-2.359726">
        <ele>714.7</ele>
        <time>2022-04-03T14:07:58Z</time>
      </trkpt>
      <trkpt lat="38.295879" lon="-2.359609">
        <ele>713.6</ele>
        <time>2022-04-03T14:08:15Z</time>
      </trkpt>
      <trkpt lat="38.296063" lon="-2.359557">
        <ele>716.6</ele>
        <time>2022-04-03T14:08:37Z</time>
      </trkpt>
      <trkpt lat="38.296233" lon="-2.359468">
        <ele>716.6</ele>
        <time>2022-04-03T14:08:48Z</time>
      </trkpt>
      <trkpt lat="38.296357" lon="-2.359294">
        <ele>715.0</ele>
        <time>2022-04-03T14:09:03Z</time>
      </trkpt>
      <trkpt lat="38.296455" lon="-2.359100">
        <ele>713.4</ele>
        <time>2022-04-03T14:09:19Z</time>
      </trkpt>
      <trkpt lat="38.296512" lon="-2.358845">
        <ele>710.7</ele>
        <time>2022-04-03T14:09:38Z</time>
      </trkpt>
      <trkpt lat="38.296559" lon="-2.358611">
        <ele>709.8</ele>
        <time>2022-04-03T14:09:54Z</time>
      </trkpt>
      <trkpt lat="38.296592" lon="-2.358378">
        <ele>709.7</ele>
        <time>2022-04-03T14:10:08Z</time>
      </trkpt>
      <trkpt lat="38.296633" lon="-2.358151">
        <ele>710.7</ele>
        <time>2022-04-03T14:10:23Z</time>
      </trkpt>
      <trkpt lat="38.296588" lon="-2.357922">
        <ele>711.7</ele>
        <time>2022-04-03T14:10:35Z</time>
      </trkpt>
      <trkpt lat="38.296586" lon="-2.357673">
        <ele>709.7</ele>
        <time>2022-04-03T14:10:52Z</time>
      </trkpt>
      <trkpt lat="38.296587" lon="-2.357442">
        <ele>710.6</ele>
        <time>2022-04-03T14:11:07Z</time>
      </trkpt>
      <trkpt lat="38.296582" lon="-2.357209">
        <ele>711.0</ele>
        <time>2022-04-03T14:11:22Z</time>
      </trkpt>
      <trkpt lat="38.296562" lon="-2.356970">
        <ele>708.7</ele>
        <time>2022-04-03T14:11:36Z</time>
      </trkpt>
      <trkpt lat="38.296573" lon="-2.356738">
        <ele>706.7</ele>
        <time>2022-04-03T14:11:53Z</time>
      </trkpt>
      <trkpt lat="38.296552" lon="-2.356488">
        <ele>706.8</ele>
        <time>2022-04-03T14:12:09Z</time>
      </trkpt>
      <trkpt lat="38.296545" lon="-2.356245">
        <ele>711.7</ele>
        <time>2022-04-03T14:12:24Z</time>
      </trkpt>
      <trkpt lat="38.296536" lon="-2.356010">
        <ele>713.7</ele>
        <time>2022-04-03T14:12:38Z</time>
      </trkpt>
      <trkpt lat="38.296501" lon="-2.355784">
        <ele>716.7</ele>
        <time>2022-04-03T14:12:54Z</time>
      </trkpt>
      <trkpt lat="38.296477" lon="-2.355554">
        <ele>714.7</ele>
        <time>2022-04-03T14:13:10Z</time>
      </trkpt>
      <trkpt lat="38.296522" lon="-2.355317">
        <ele>715.4</ele>
        <time>2022-04-03T14:13:24Z</time>
      </trkpt>
      <trkpt lat="38.296569" lon="-2.355093">
        <ele>719.7</ele>
        <time>2022-04-03T14:13:41Z</time>
      </trkpt>
      <trkpt lat="38.296604" lon="-2.354857">
        <ele>720.7</ele>
        <time>2022-04-03T14:13:54Z</time>
      </trkpt>
      <trkpt lat="38.296670" lon="-2.354642">
        <ele>718.7</ele>
        <time>2022-04-03T14:14:11Z</time>
      </trkpt>
      <trkpt lat="38.296714" lon="-2.354401">
        <ele>720.7</ele>
        <time>2022-04-03T14:14:24Z</time>
      </trkpt>
      <trkpt lat="38.296802" lon="-2.354173">
        <ele>720.7</ele>
        <time>2022-04-03T14:14:39Z</time>
      </trkpt>
      <trkpt lat="38.296882" lon="-2.353935">
        <ele>720.7</ele>
        <time>2022-04-03T14:14:54Z</time>
      </trkpt>
      <trkpt lat="38.296893" lon="-2.353695">
        <ele>725.6</ele>
        <time>2022-04-03T14:15:09Z</time>
      </trkpt>
      <trkpt lat="38.296789" lon="-2.353497">
        <ele>727.7</ele>
        <time>2022-04-03T14:15:26Z</time>
      </trkpt>
      <trkpt lat="38.296671" lon="-2.353310">
        <ele>726.7</ele>
        <time>2022-04-03T14:15:41Z</time>
      </trkpt>
      <trkpt lat="38.296572" lon="-2.353111">
        <ele>724.4</ele>
        <time>2022-04-03T14:15:56Z</time>
      </trkpt>
      <trkpt lat="38.296523" lon="-2.352889">
        <ele>723.7</ele>
        <time>2022-04-03T14:16:09Z</time>
      </trkpt>
      <trkpt lat="38.296446" lon="-2.352669">
        <ele>724.7</ele>
        <time>2022-04-03T14:16:23Z</time>
      </trkpt>
      <trkpt lat="38.296461" lon="-2.352439">
        <ele>726.7</ele>
        <time>2022-04-03T14:16:39Z</time>
      </trkpt>
      <trkpt lat="38.296621" lon="-2.352334">
        <ele>727.7</ele>
        <time>2022-04-03T14:16:56Z</time>
      </trkpt>
      <trkpt lat="38.296800" lon="-2.352316">
        <ele>717.7</ele>
        <time>2022-04-03T14:18:41Z</time>
      </trkpt>
      <trkpt lat="38.296956" lon="-2.352173">
        <ele>713.7</ele>
        <time>2022-04-03T14:19:49Z</time>
      </trkpt>
      <trkpt lat="38.297041" lon="-2.351967">
        <ele>711.3</ele>
        <time>2022-04-03T14:20:06Z</time>
      </trkpt>
      <trkpt lat="38.296997" lon="-2.351730">
        <ele>708.7</ele>
        <time>2022-04-03T14:20:24Z</time>
      </trkpt>
      <trkpt lat="38.296937" lon="-2.351505">
        <ele>706.6</ele>
        <time>2022-04-03T14:20:38Z</time>
      </trkpt>
      <trkpt lat="38.296863" lon="-2.351296">
        <ele>705.7</ele>
        <time>2022-04-03T14:20:57Z</time>
      </trkpt>
      <trkpt lat="38.296817" lon="-2.351067">
        <ele>695.0</ele>
        <time>2022-04-03T14:21:19Z</time>
      </trkpt>
      <trkpt lat="38.296981" lon="-2.350962">
        <ele>702.7</ele>
        <time>2022-04-03T14:22:05Z</time>
      </trkpt>
      <trkpt lat="38.297173" lon="-2.350935">
        <ele>701.7</ele>
        <time>2022-04-03T14:22:21Z</time>
      </trkpt>
      <trkpt lat="38.297351" lon="-2.350883">
        <ele>698.8</ele>
        <time>2022-04-03T14:22:36Z</time>
      </trkpt>
      <trkpt lat="38.297536" lon="-2.350871">
        <ele>692.8</ele>
        <time>2022-04-03T14:22:54Z</time>
      </trkpt>
      <trkpt lat="38.297714" lon="-2.350908">
        <ele>691.7</ele>
        <time>2022-04-03T14:23:08Z</time>
      </trkpt>
      <trkpt lat="38.297895" lon="-2.350962">
        <ele>688.7</ele>
        <time>2022-04-03T14:23:25Z</time>
      </trkpt>
      <trkpt lat="38.298073" lon="-2.350896">
        <ele>688.6</ele>
        <time>2022-04-03T14:23:39Z</time>
      </trkpt>
      <trkpt lat="38.298262" lon="-2.350895">
        <ele>689.7</ele>
        <time>2022-04-03T14:23:51Z</time>
      </trkpt>
      <trkpt lat="38.298246" lon="-2.351130">
        <ele>680.8</ele>
        <time>2022-04-03T14:24:23Z</time>
      </trkpt>
      <trkpt lat="38.298179" lon="-2.351349">
        <ele>676.0</ele>
        <time>2022-04-03T14:25:37Z</time>
      </trkpt>
      <trkpt lat="38.298367" lon="-2.351380">
        <ele>673.7</ele>
        <time>2022-04-03T14:25:52Z</time>
      </trkpt>
      <trkpt lat="38.298543" lon="-2.351486">
        <ele>673.6</ele>
        <time>2022-04-03T14:26:07Z</time>
      </trkpt>
      <trkpt lat="38.298711" lon="-2.351581">
        <ele>676.6</ele>
        <time>2022-04-03T14:26:21Z</time>
      </trkpt>
      <trkpt lat="38.298869" lon="-2.351710">
        <ele>675.7</ele>
        <time>2022-04-03T14:26:35Z</time>
      </trkpt>
      <trkpt lat="38.299022" lon="-2.351832">
        <ele>670.0</ele>
        <time>2022-04-03T14:26:50Z</time>
      </trkpt>
      <trkpt lat="38.299203" lon="-2.351776">
        <ele>664.8</ele>
        <time>2022-04-03T14:27:07Z</time>
      </trkpt>
      <trkpt lat="38.299177" lon="-2.351542">
        <ele>661.7</ele>
        <time>2022-04-03T14:27:22Z</time>
      </trkpt>
      <trkpt lat="38.299133" lon="-2.351316">
        <ele>659.7</ele>
        <time>2022-04-03T14:27:36Z</time>
      </trkpt>
      <trkpt lat="38.299088" lon="-2.351083">
        <ele>657.0</ele>
        <time>2022-04-03T14:27:50Z</time>
      </trkpt>
      <trkpt lat="38.299095" lon="-2.350838">
        <ele>654.7</ele>
        <time>2022-04-03T14:28:04Z</time>
      </trkpt>
      <trkpt lat="38.299138" lon="-2.350615">
        <ele>651.8</ele>
        <time>2022-04-03T14:28:23Z</time>
      </trkpt>
      <trkpt lat="38.299284" lon="-2.350458">
        <ele>645.1</ele>
        <time>2022-04-03T14:28:38Z</time>
      </trkpt>
      <trkpt lat="38.299413" lon="-2.350635">
        <ele>640.5</ele>
        <time>2022-04-03T14:28:54Z</time>
      </trkpt>
      <trkpt lat="38.299428" lon="-2.350867">
        <ele>639.7</ele>
        <time>2022-04-03T14:29:09Z</time>
      </trkpt>
      <trkpt lat="38.299550" lon="-2.351050">
        <ele>639.5</ele>
        <time>2022-04-03T14:29:22Z</time>
      </trkpt>
      <trkpt lat="38.299699" lon="-2.351186">
        <ele>639.7</ele>
        <time>2022-04-03T14:29:35Z</time>
      </trkpt>
      <trkpt lat="38.299861" lon="-2.351289">
        <ele>638.7</ele>
        <time>2022-04-03T14:29:49Z</time>
      </trkpt>
      <trkpt lat="38.300044" lon="-2.351254">
        <ele>634.1</ele>
        <time>2022-04-03T14:30:04Z</time>
      </trkpt>
      <trkpt lat="38.300225" lon="-2.351219">
        <ele>632.7</ele>
        <time>2022-04-03T14:30:18Z</time>
      </trkpt>
      <trkpt lat="38.300409" lon="-2.351255">
        <ele>630.0</ele>
        <time>2022-04-03T14:30:35Z</time>
      </trkpt>
      <trkpt lat="38.300597" lon="-2.351297">
        <ele>629.7</ele>
        <time>2022-04-03T14:30:51Z</time>
      </trkpt>
      <trkpt lat="38.300784" lon="-2.351334">
        <ele>627.7</ele>
        <time>2022-04-03T14:31:03Z</time>
      </trkpt>
      <trkpt lat="38.300967" lon="-2.351318">
        <ele>626.7</ele>
        <time>2022-04-03T14:31:20Z</time>
      </trkpt>
      <trkpt lat="38.301150" lon="-2.351250">
        <ele>627.7</ele>
        <time>2022-04-03T14:31:45Z</time>
      </trkpt>
      <trkpt lat="38.301332" lon="-2.351181">
        <ele>625.8</ele>
        <time>2022-04-03T14:32:01Z</time>
      </trkpt>
      <trkpt lat="38.301506" lon="-2.351118">
        <ele>623.4</ele>
        <time>2022-04-03T14:32:17Z</time>
      </trkpt>
      <trkpt lat="38.301697" lon="-2.351025">
        <ele>619.8</ele>
        <time>2022-04-03T14:32:33Z</time>
      </trkpt>
      <trkpt lat="38.301860" lon="-2.350914">
        <ele>618.7</ele>
        <time>2022-04-03T14:32:50Z</time>
      </trkpt>
      <trkpt lat="38.301985" lon="-2.350748">
        <ele>616.7</ele>
        <time>2022-04-03T14:33:05Z</time>
      </trkpt>
      <trkpt lat="38.302089" lon="-2.350546">
        <ele>613.5</ele>
        <time>2022-04-03T14:33:23Z</time>
      </trkpt>
      <trkpt lat="38.302195" lon="-2.350337">
        <ele>616.6</ele>
        <time>2022-04-03T14:33:38Z</time>
      </trkpt>
      <trkpt lat="38.302329" lon="-2.350162">
        <ele>617.4</ele>
        <time>2022-04-03T14:33:54Z</time>
      </trkpt>
      <trkpt lat="38.302456" lon="-2.349989">
        <ele>617.8</ele>
        <time>2022-04-03T14:34:09Z</time>
      </trkpt>
      <trkpt lat="38.302590" lon="-2.349825">
        <ele>616.0</ele>
        <time>2022-04-03T14:34:25Z</time>
      </trkpt>
      <trkpt lat="38.302745" lon="-2.349703">
        <ele>615.7</ele>
        <time>2022-04-03T14:34:40Z</time>
      </trkpt>
      <trkpt lat="38.302896" lon="-2.349575">
        <ele>615.8</ele>
        <time>2022-04-03T14:34:54Z</time>
      </trkpt>
      <trkpt lat="38.303064" lon="-2.349486">
        <ele>615.8</ele>
        <time>2022-04-03T14:35:09Z</time>
      </trkpt>
      <trkpt lat="38.303213" lon="-2.349335">
        <ele>616.7</ele>
        <time>2022-04-03T14:35:24Z</time>
      </trkpt>
      <trkpt lat="38.303376" lon="-2.349229">
        <ele>617.7</ele>
        <time>2022-04-03T14:35:40Z</time>
      </trkpt>
      <trkpt lat="38.303540" lon="-2.349131">
        <ele>615.7</ele>
        <time>2022-04-03T14:35:54Z</time>
      </trkpt>
      <trkpt lat="38.303707" lon="-2.349016">
        <ele>614.7</ele>
        <time>2022-04-03T14:36:09Z</time>
      </trkpt>
      <trkpt lat="38.303832" lon="-2.348849">
        <ele>614.7</ele>
        <time>2022-04-03T14:36:25Z</time>
      </trkpt>
      <trkpt lat="38.303993" lon="-2.348696">
        <ele>614.7</ele>
        <time>2022-04-03T14:36:41Z</time>
      </trkpt>
      <trkpt lat="38.304103" lon="-2.348507">
        <ele>615.7</ele>
        <time>2022-04-03T14:37:00Z</time>
      </trkpt>
      <trkpt lat="38.304170" lon="-2.348271">
        <ele>615.5</ele>
        <time>2022-04-03T14:37:16Z</time>
      </trkpt>
      <trkpt lat="38.304220" lon="-2.348046">
        <ele>615.7</ele>
        <time>2022-04-03T14:37:31Z</time>
      </trkpt>
      <trkpt lat="38.304275" lon="-2.347819">
        <ele>613.8</ele>
        <time>2022-04-03T14:37:48Z</time>
      </trkpt>
      <trkpt lat="38.304335" lon="-2.347601">
        <ele>612.8</ele>
        <time>2022-04-03T14:38:02Z</time>
      </trkpt>
      <trkpt lat="38.304397" lon="-2.347384">
        <ele>613.5</ele>
        <time>2022-04-03T14:38:18Z</time>
      </trkpt>
      <trkpt lat="38.304502" lon="-2.347210">
        <ele>612.8</ele>
        <time>2022-04-03T14:38:35Z</time>
      </trkpt>
      <trkpt lat="38.304698" lon="-2.347232">
        <ele>615.5</ele>
        <time>2022-04-03T14:38:51Z</time>
      </trkpt>
      <trkpt lat="38.304879" lon="-2.347138">
        <ele>615.8</ele>
        <time>2022-04-03T14:39:07Z</time>
      </trkpt>
      <trkpt lat="38.305044" lon="-2.347030">
        <ele>614.8</ele>
        <time>2022-04-03T14:39:23Z</time>
      </trkpt>
      <trkpt lat="38.305210" lon="-2.346924">
        <ele>617.5</ele>
        <time>2022-04-03T14:39:38Z</time>
      </trkpt>
      <trkpt lat="38.305373" lon="-2.346893">
        <ele>617.8</ele>
        <time>2022-04-03T14:39:51Z</time>
      </trkpt>
      <trkpt lat="38.305556" lon="-2.346880">
        <ele>616.8</ele>
        <time>2022-04-03T14:40:09Z</time>
      </trkpt>
      <trkpt lat="38.305742" lon="-2.346819">
        <ele>620.8</ele>
        <time>2022-04-03T14:40:24Z</time>
      </trkpt>
      <trkpt lat="38.305918" lon="-2.346732">
        <ele>624.5</ele>
        <time>2022-04-03T14:40:40Z</time>
      </trkpt>
      <trkpt lat="38.306094" lon="-2.346666">
        <ele>624.8</ele>
        <time>2022-04-03T14:40:55Z</time>
      </trkpt>
      <trkpt lat="38.306263" lon="-2.346552">
        <ele>624.8</ele>
        <time>2022-04-03T14:41:13Z</time>
      </trkpt>
      <trkpt lat="38.306428" lon="-2.346452">
        <ele>624.8</ele>
        <time>2022-04-03T14:41:28Z</time>
      </trkpt>
      <trkpt lat="38.306605" lon="-2.346369">
        <ele>625.8</ele>
        <time>2022-04-03T14:41:45Z</time>
      </trkpt>
      <trkpt lat="38.306780" lon="-2.346426">
        <ele>625.8</ele>
        <time>2022-04-03T14:42:00Z</time>
      </trkpt>
      <trkpt lat="38.306944" lon="-2.346560">
        <ele>623.8</ele>
        <time>2022-04-03T14:42:16Z</time>
      </trkpt>
      <trkpt lat="38.307091" lon="-2.346700">
        <ele>623.0</ele>
        <time>2022-04-03T14:42:32Z</time>
      </trkpt>
      <trkpt lat="38.307204" lon="-2.346876">
        <ele>622.8</ele>
        <time>2022-04-03T14:42:48Z</time>
      </trkpt>
      <trkpt lat="38.307279" lon="-2.347104">
        <ele>622.8</ele>
        <time>2022-04-24T07:41:45Z</time>
      </trkpt>
      <trkpt lat="38.307306" lon="-2.347178">
        <ele>620.8</ele>
        <time>2022-04-24T07:42:44Z</time>
      </trkpt>
      <trkpt lat="38.307325" lon="-2.347235">
        <ele>626.8</ele>
        <time>2022-04-24T07:47:20Z</time>
      </trkpt>
      <trkpt lat="38.307353" lon="-2.347339">
        <ele>622.8</ele>
        <time>2022-04-24T07:47:42Z</time>
      </trkpt>
      <trkpt lat="38.307376" lon="-2.347449">
        <ele>620.7</ele>
        <time>2022-04-24T07:50:45Z</time>
      </trkpt>
      <trkpt lat="38.307402" lon="-2.347526">
        <ele>623.0</ele>
        <time>2022-04-24T07:51:02Z</time>
      </trkpt>
      <trkpt lat="38.307426" lon="-2.347606">
        <ele>623.8</ele>
        <time>2022-04-24T07:51:28Z</time>
      </trkpt>
      <trkpt lat="38.307446" lon="-2.347675">
        <ele>625.8</ele>
        <time>2022-04-24T07:51:44Z</time>
      </trkpt>
      <trkpt lat="38.307475" lon="-2.347752">
        <ele>619.8</ele>
        <time>2022-04-24T07:52:18Z</time>
      </trkpt>
      <trkpt lat="38.307541" lon="-2.347969">
        <ele>622.6</ele>
        <time>2022-04-24T07:52:35Z</time>
      </trkpt>
      <trkpt lat="38.307676" lon="-2.348132">
        <ele>618.8</ele>
        <time>2022-04-24T07:52:51Z</time>
      </trkpt>
      <trkpt lat="38.307846" lon="-2.348208">
        <ele>615.7</ele>
        <time>2022-04-24T07:53:10Z</time>
      </trkpt>
      <trkpt lat="38.307998" lon="-2.348342">
        <ele>615.0</ele>
        <time>2022-04-24T07:53:21Z</time>
      </trkpt>
      <trkpt lat="38.308174" lon="-2.348394">
        <ele>614.7</ele>
        <time>2022-04-24T07:53:45Z</time>
      </trkpt>
      <trkpt lat="38.308348" lon="-2.348291">
        <ele>617.0</ele>
        <time>2022-04-24T07:54:02Z</time>
      </trkpt>
      <trkpt lat="38.308471" lon="-2.348119">
        <ele>617.8</ele>
        <time>2022-04-24T07:54:15Z</time>
      </trkpt>
      <trkpt lat="38.308598" lon="-2.347937">
        <ele>616.8</ele>
        <time>2022-04-24T07:54:29Z</time>
      </trkpt>
      <trkpt lat="38.308776" lon="-2.347858">
        <ele>608.8</ele>
        <time>2022-04-24T07:55:25Z</time>
      </trkpt>
      <trkpt lat="38.308902" lon="-2.347694">
        <ele>608.5</ele>
        <time>2022-04-24T07:55:39Z</time>
      </trkpt>
      <trkpt lat="38.309072" lon="-2.347607">
        <ele>607.8</ele>
        <time>2022-04-24T07:55:52Z</time>
      </trkpt>
      <trkpt lat="38.309208" lon="-2.347444">
        <ele>604.8</ele>
        <time>2022-04-24T07:56:09Z</time>
      </trkpt>
      <trkpt lat="38.309314" lon="-2.347253">
        <ele>601.8</ele>
        <time>2022-04-24T07:56:24Z</time>
      </trkpt>
      <trkpt lat="38.309430" lon="-2.347063">
        <ele>600.5</ele>
        <time>2022-04-24T07:56:37Z</time>
      </trkpt>
      <trkpt lat="38.309504" lon="-2.346832">
        <ele>598.8</ele>
        <time>2022-04-24T07:56:56Z</time>
      </trkpt>
      <trkpt lat="38.309527" lon="-2.346595">
        <ele>602.7</ele>
        <time>2022-04-24T07:57:10Z</time>
      </trkpt>
      <trkpt lat="38.309560" lon="-2.346362">
        <ele>604.8</ele>
        <time>2022-04-24T07:57:50Z</time>
      </trkpt>
      <trkpt lat="38.309621" lon="-2.346137">
        <ele>608.8</ele>
        <time>2022-04-24T07:58:05Z</time>
      </trkpt>
      <trkpt lat="38.309694" lon="-2.345926">
        <ele>610.8</ele>
        <time>2022-04-24T07:58:17Z</time>
      </trkpt>
      <trkpt lat="38.309750" lon="-2.345699">
        <ele>616.1</ele>
        <time>2022-04-24T07:58:34Z</time>
      </trkpt>
      <trkpt lat="38.309784" lon="-2.345472">
        <ele>618.8</ele>
        <time>2022-04-24T07:58:57Z</time>
      </trkpt>
      <trkpt lat="38.309822" lon="-2.345242">
        <ele>608.8</ele>
        <time>2022-04-24T07:59:13Z</time>
      </trkpt>
      <trkpt lat="38.309721" lon="-2.345043">
        <ele>608.8</ele>
        <time>2022-04-24T07:59:37Z</time>
      </trkpt>
      <trkpt lat="38.309729" lon="-2.344812">
        <ele>603.8</ele>
        <time>2022-04-24T07:59:53Z</time>
      </trkpt>
      <trkpt lat="38.309808" lon="-2.344600">
        <ele>599.8</ele>
        <time>2022-04-24T08:01:15Z</time>
      </trkpt>
      <trkpt lat="38.309896" lon="-2.344399">
        <ele>593.9</ele>
        <time>2022-04-24T08:01:29Z</time>
      </trkpt>
      <trkpt lat="38.310027" lon="-2.344237">
        <ele>596.8</ele>
        <time>2022-04-24T08:01:44Z</time>
      </trkpt>
      <trkpt lat="38.310097" lon="-2.344021">
        <ele>594.8</ele>
        <time>2022-04-24T08:01:57Z</time>
      </trkpt>
      <trkpt lat="38.310110" lon="-2.343780">
        <ele>595.5</ele>
        <time>2022-04-24T08:02:08Z</time>
      </trkpt>
      <trkpt lat="38.310163" lon="-2.343552">
        <ele>595.8</ele>
        <time>2022-04-24T08:02:20Z</time>
      </trkpt>
      <trkpt lat="38.310212" lon="-2.343308">
        <ele>597.7</ele>
        <time>2022-04-24T08:02:32Z</time>
      </trkpt>
      <trkpt lat="38.310273" lon="-2.343090">
        <ele>601.8</ele>
        <time>2022-04-24T08:02:45Z</time>
      </trkpt>
      <trkpt lat="38.310229" lon="-2.342858">
        <ele>601.8</ele>
        <time>2022-04-24T08:02:59Z</time>
      </trkpt>
      <trkpt lat="38.310352" lon="-2.342676">
        <ele>610.7</ele>
        <time>2022-04-24T08:03:56Z</time>
      </trkpt>
      <trkpt lat="38.310469" lon="-2.342493">
        <ele>613.7</ele>
        <time>2022-04-24T08:04:20Z</time>
      </trkpt>
      <trkpt lat="38.310619" lon="-2.342357">
        <ele>608.8</ele>
        <time>2022-04-24T08:04:44Z</time>
      </trkpt>
      <trkpt lat="38.310690" lon="-2.342144">
        <ele>610.9</ele>
        <time>2022-04-24T08:05:22Z</time>
      </trkpt>
      <trkpt lat="38.310774" lon="-2.341931">
        <ele>615.0</ele>
        <time>2022-04-24T08:05:44Z</time>
      </trkpt>
      <trkpt lat="38.310899" lon="-2.341762">
        <ele>616.7</ele>
        <time>2022-04-24T08:06:10Z</time>
      </trkpt>
      <trkpt lat="38.311045" lon="-2.341617">
        <ele>615.8</ele>
        <time>2022-04-24T08:06:28Z</time>
      </trkpt>
      <trkpt lat="38.311158" lon="-2.341432">
        <ele>615.8</ele>
        <time>2022-04-24T08:06:53Z</time>
      </trkpt>
      <trkpt lat="38.311241" lon="-2.341227">
        <ele>617.8</ele>
        <time>2022-04-24T08:07:15Z</time>
      </trkpt>
      <trkpt lat="38.311153" lon="-2.341019">
        <ele>620.5</ele>
        <time>2022-04-24T08:07:32Z</time>
      </trkpt>
      <trkpt lat="38.311183" lon="-2.340780">
        <ele>621.4</ele>
        <time>2022-04-24T08:07:48Z</time>
      </trkpt>
      <trkpt lat="38.311317" lon="-2.340628">
        <ele>615.1</ele>
        <time>2022-04-24T08:08:03Z</time>
      </trkpt>
      <trkpt lat="38.311444" lon="-2.340454">
        <ele>610.8</ele>
        <time>2022-04-24T08:08:19Z</time>
      </trkpt>
      <trkpt lat="38.311437" lon="-2.340215">
        <ele>608.8</ele>
        <time>2022-04-24T08:09:14Z</time>
      </trkpt>
      <trkpt lat="38.311535" lon="-2.339992">
        <ele>601.1</ele>
        <time>2022-04-24T08:09:29Z</time>
      </trkpt>
      <trkpt lat="38.311551" lon="-2.339757">
        <ele>595.9</ele>
        <time>2022-04-24T08:09:41Z</time>
      </trkpt>
      <trkpt lat="38.311374" lon="-2.339703">
        <ele>598.5</ele>
        <time>2022-04-24T08:09:54Z</time>
      </trkpt>
      <trkpt lat="38.311196" lon="-2.339666">
        <ele>605.8</ele>
        <time>2022-04-24T08:10:21Z</time>
      </trkpt>
      <trkpt lat="38.311337" lon="-2.339515">
        <ele>608.5</ele>
        <time>2022-04-24T08:12:43Z</time>
      </trkpt>
      <trkpt lat="38.311511" lon="-2.339454">
        <ele>609.8</ele>
        <time>2022-04-24T08:13:29Z</time>
      </trkpt>
      <trkpt lat="38.311660" lon="-2.339320">
        <ele>606.0</ele>
        <time>2022-04-24T08:13:55Z</time>
      </trkpt>
      <trkpt lat="38.311842" lon="-2.339408">
        <ele>607.7</ele>
        <time>2022-04-24T08:14:14Z</time>
      </trkpt>
      <trkpt lat="38.312033" lon="-2.339401">
        <ele>607.7</ele>
        <time>2022-04-24T08:14:38Z</time>
      </trkpt>
      <trkpt lat="38.312210" lon="-2.339348">
        <ele>605.8</ele>
        <time>2022-04-24T08:15:08Z</time>
      </trkpt>
      <trkpt lat="38.312392" lon="-2.339389">
        <ele>604.1</ele>
        <time>2022-04-24T08:15:33Z</time>
      </trkpt>
      <trkpt lat="38.312539" lon="-2.339524">
        <ele>602.5</ele>
        <time>2022-04-24T08:16:33Z</time>
      </trkpt>
      <trkpt lat="38.312700" lon="-2.339616">
        <ele>611.1</ele>
        <time>2022-04-24T08:17:28Z</time>
      </trkpt>
      <trkpt lat="38.312883" lon="-2.339600">
        <ele>611.8</ele>
        <time>2022-04-24T08:18:14Z</time>
      </trkpt>
      <trkpt lat="38.313049" lon="-2.339510">
        <ele>610.1</ele>
        <time>2022-04-24T08:18:33Z</time>
      </trkpt>
      <trkpt lat="38.313222" lon="-2.339420">
        <ele>610.8</ele>
        <time>2022-04-24T08:18:54Z</time>
      </trkpt>
      <trkpt lat="38.313413" lon="-2.339382">
        <ele>610.8</ele>
        <time>2022-04-24T08:19:08Z</time>
      </trkpt>
      <trkpt lat="38.313590" lon="-2.339338">
        <ele>612.5</ele>
        <time>2022-04-24T08:19:56Z</time>
      </trkpt>
      <trkpt lat="38.313766" lon="-2.339279">
        <ele>613.8</ele>
        <time>2022-04-24T08:20:13Z</time>
      </trkpt>
      <trkpt lat="38.313954" lon="-2.339286">
        <ele>613.8</ele>
        <time>2022-04-24T08:20:28Z</time>
      </trkpt>
      <trkpt lat="38.314135" lon="-2.339222">
        <ele>612.8</ele>
        <time>2022-04-24T08:20:40Z</time>
      </trkpt>
      <trkpt lat="38.314306" lon="-2.339144">
        <ele>614.8</ele>
        <time>2022-04-24T08:20:54Z</time>
      </trkpt>
      <trkpt lat="38.314506" lon="-2.339081">
        <ele>613.8</ele>
        <time>2022-04-24T08:21:06Z</time>
      </trkpt>
      <trkpt lat="38.314683" lon="-2.339038">
        <ele>613.8</ele>
        <time>2022-04-24T08:21:20Z</time>
      </trkpt>
      <trkpt lat="38.314863" lon="-2.339087">
        <ele>612.8</ele>
        <time>2022-04-24T08:21:31Z</time>
      </trkpt>
      <trkpt lat="38.315040" lon="-2.339132">
        <ele>614.8</ele>
        <time>2022-04-24T08:21:47Z</time>
      </trkpt>
      <trkpt lat="38.315217" lon="-2.339077">
        <ele>613.8</ele>
        <time>2022-04-24T08:22:01Z</time>
      </trkpt>
      <trkpt lat="38.315313" lon="-2.338882">
        <ele>616.0</ele>
        <time>2022-04-24T08:22:13Z</time>
      </trkpt>
      <trkpt lat="38.315292" lon="-2.338654">
        <ele>613.8</ele>
        <time>2022-04-24T08:22:28Z</time>
      </trkpt>
      <trkpt lat="38.315357" lon="-2.338431">
        <ele>615.8</ele>
        <time>2022-04-24T08:22:44Z</time>
      </trkpt>
      <trkpt lat="38.315448" lon="-2.338229">
        <ele>613.8</ele>
        <time>2022-04-24T08:22:59Z</time>
      </trkpt>
      <trkpt lat="38.315535" lon="-2.338017">
        <ele>613.8</ele>
        <time>2022-04-24T08:23:12Z</time>
      </trkpt>
      <trkpt lat="38.315611" lon="-2.337803">
        <ele>614.8</ele>
        <time>2022-04-24T08:23:25Z</time>
      </trkpt>
      <trkpt lat="38.315676" lon="-2.337588">
        <ele>612.8</ele>
        <time>2022-04-24T08:23:38Z</time>
      </trkpt>
      <trkpt lat="38.315708" lon="-2.337359">
        <ele>612.7</ele>
        <time>2022-04-24T08:23:54Z</time>
      </trkpt>
      <trkpt lat="38.315731" lon="-2.337123">
        <ele>612.8</ele>
        <time>2022-04-24T08:24:07Z</time>
      </trkpt>
      <trkpt lat="38.315616" lon="-2.336950">
        <ele>618.5</ele>
        <time>2022-04-24T08:24:25Z</time>
      </trkpt>
      <trkpt lat="38.315504" lon="-2.336759">
        <ele>682.5</ele>
        <time>2022-04-24T08:24:38Z</time>
      </trkpt>
      <trkpt lat="38.315455" lon="-2.336533">
        <ele>620.1</ele>
        <time>2022-04-24T08:24:55Z</time>
      </trkpt>
      <trkpt lat="38.315429" lon="-2.336300">
        <ele>619.8</ele>
        <time>2022-04-24T08:25:10Z</time>
      </trkpt>
      <trkpt lat="38.315385" lon="-2.336066">
        <ele>621.8</ele>
        <time>2022-04-24T08:25:24Z</time>
      </trkpt>
      <trkpt lat="38.315356" lon="-2.335828">
        <ele>619.8</ele>
        <time>2022-04-24T08:25:37Z</time>
      </trkpt>
      <trkpt lat="38.315311" lon="-2.335604">
        <ele>615.8</ele>
        <time>2022-04-24T08:25:50Z</time>
      </trkpt>
      <trkpt lat="38.315242" lon="-2.335372">
        <ele>615.8</ele>
        <time>2022-04-24T08:26:02Z</time>
      </trkpt>
      <trkpt lat="38.315225" lon="-2.335136">
        <ele>615.8</ele>
        <time>2022-04-24T08:26:18Z</time>
      </trkpt>
      <trkpt lat="38.315225" lon="-2.334899">
        <ele>610.8</ele>
        <time>2022-04-24T08:26:31Z</time>
      </trkpt>
      <trkpt lat="38.315229" lon="-2.334665">
        <ele>608.8</ele>
        <time>2022-04-24T08:26:47Z</time>
      </trkpt>
      <trkpt lat="38.315291" lon="-2.334446">
        <ele>609.8</ele>
        <time>2022-04-24T08:27:00Z</time>
      </trkpt>
      <trkpt lat="38.315352" lon="-2.334226">
        <ele>611.8</ele>
        <time>2022-04-24T08:27:14Z</time>
      </trkpt>
      <trkpt lat="38.315452" lon="-2.334033">
        <ele>614.5</ele>
        <time>2022-04-24T08:27:27Z</time>
      </trkpt>
      <trkpt lat="38.315555" lon="-2.333845">
        <ele>611.1</ele>
        <time>2022-04-24T08:27:41Z</time>
      </trkpt>
      <trkpt lat="38.315672" lon="-2.333671">
        <ele>610.8</ele>
        <time>2022-04-24T08:27:54Z</time>
      </trkpt>
      <trkpt lat="38.315808" lon="-2.333508">
        <ele>608.5</ele>
        <time>2022-04-24T08:28:08Z</time>
      </trkpt>
      <trkpt lat="38.315979" lon="-2.333413">
        <ele>603.9</ele>
        <time>2022-04-24T08:28:24Z</time>
      </trkpt>
      <trkpt lat="38.316128" lon="-2.333280">
        <ele>603.8</ele>
        <time>2022-04-24T08:28:36Z</time>
      </trkpt>
      <trkpt lat="38.316301" lon="-2.333204">
        <ele>604.8</ele>
        <time>2022-04-24T08:28:50Z</time>
      </trkpt>
      <trkpt lat="38.316479" lon="-2.333142">
        <ele>604.8</ele>
        <time>2022-04-24T08:29:05Z</time>
      </trkpt>
      <trkpt lat="38.316665" lon="-2.333133">
        <ele>604.8</ele>
        <time>2022-04-24T08:29:23Z</time>
      </trkpt>
      <trkpt lat="38.316836" lon="-2.333051">
        <ele>600.8</ele>
        <time>2022-04-24T08:29:38Z</time>
      </trkpt>
      <trkpt lat="38.317010" lon="-2.332997">
        <ele>596.8</ele>
        <time>2022-04-24T08:29:55Z</time>
      </trkpt>
      <trkpt lat="38.317142" lon="-2.332839">
        <ele>593.8</ele>
        <time>2022-04-24T08:30:15Z</time>
      </trkpt>
      <trkpt lat="38.317299" lon="-2.332717">
        <ele>595.8</ele>
        <time>2022-04-24T08:30:41Z</time>
      </trkpt>
      <trkpt lat="38.317445" lon="-2.332579">
        <ele>589.8</ele>
        <time>2022-04-24T08:31:09Z</time>
      </trkpt>
      <trkpt lat="38.317603" lon="-2.332463">
        <ele>590.8</ele>
        <time>2022-04-24T08:31:57Z</time>
      </trkpt>
      <trkpt lat="38.317777" lon="-2.332372">
        <ele>584.9</ele>
        <time>2022-04-24T08:32:10Z</time>
      </trkpt>
      <trkpt lat="38.317871" lon="-2.332173">
        <ele>585.5</ele>
        <time>2022-04-24T08:32:44Z</time>
      </trkpt>
      <trkpt lat="38.317998" lon="-2.332004">
        <ele>589.1</ele>
        <time>2022-04-24T08:33:06Z</time>
      </trkpt>
      <trkpt lat="38.318050" lon="-2.331776">
        <ele>585.8</ele>
        <time>2022-04-24T08:33:39Z</time>
      </trkpt>
      <trkpt lat="38.318076" lon="-2.331546">
        <ele>593.9</ele>
        <time>2022-04-24T08:35:19Z</time>
      </trkpt>
      <trkpt lat="38.318158" lon="-2.331334">
        <ele>589.8</ele>
        <time>2022-04-24T08:35:45Z</time>
      </trkpt>
      <trkpt lat="38.318217" lon="-2.331116">
        <ele>584.9</ele>
        <time>2022-04-24T08:36:12Z</time>
      </trkpt>
      <trkpt lat="38.318331" lon="-2.330938">
        <ele>584.8</ele>
        <time>2022-04-24T08:36:24Z</time>
      </trkpt>
      <trkpt lat="38.318370" lon="-2.330703">
        <ele>584.8</ele>
        <time>2022-04-24T08:36:48Z</time>
      </trkpt>
      <trkpt lat="38.318429" lon="-2.330486">
        <ele>589.8</ele>
        <time>2022-04-24T08:37:17Z</time>
      </trkpt>
      <trkpt lat="38.318608" lon="-2.330428">
        <ele>596.8</ele>
        <time>2022-04-24T08:41:39Z</time>
      </trkpt>
      <trkpt lat="38.318781" lon="-2.330354">
        <ele>595.8</ele>
        <time>2022-04-24T08:41:57Z</time>
      </trkpt>
      <trkpt lat="38.318963" lon="-2.330309">
        <ele>594.8</ele>
        <time>2022-04-24T08:42:12Z</time>
      </trkpt>
      <trkpt lat="38.319147" lon="-2.330314">
        <ele>599.8</ele>
        <time>2022-04-24T08:42:45Z</time>
      </trkpt>
      <trkpt lat="38.319327" lon="-2.330333">
        <ele>601.7</ele>
        <time>2022-04-24T08:43:06Z</time>
      </trkpt>
      <trkpt lat="38.319506" lon="-2.330297">
        <ele>601.1</ele>
        <time>2022-04-24T08:43:45Z</time>
      </trkpt>
      <trkpt lat="38.319686" lon="-2.330282">
        <ele>591.8</ele>
        <time>2022-04-24T09:07:26Z</time>
      </trkpt>
      <trkpt lat="38.319866" lon="-2.330233">
        <ele>598.8</ele>
        <time>2022-04-24T09:08:34Z</time>
      </trkpt>
      <trkpt lat="38.320037" lon="-2.330142">
        <ele>600.8</ele>
        <time>2022-04-24T09:08:46Z</time>
      </trkpt>
      <trkpt lat="38.320221" lon="-2.330105">
        <ele>600.8</ele>
        <time>2022-04-24T09:09:00Z</time>
      </trkpt>
      <trkpt lat="38.320399" lon="-2.330018">
        <ele>597.6</ele>
        <time>2022-04-24T09:09:13Z</time>
      </trkpt>
      <trkpt lat="38.320571" lon="-2.329937">
        <ele>596.8</ele>
        <time>2022-04-24T09:09:26Z</time>
      </trkpt>
      <trkpt lat="38.320746" lon="-2.329861">
        <ele>596.8</ele>
        <time>2022-04-24T09:09:39Z</time>
      </trkpt>
      <trkpt lat="38.320937" lon="-2.329804">
        <ele>598.8</ele>
        <time>2022-04-24T09:09:51Z</time>
      </trkpt>
      <trkpt lat="38.321118" lon="-2.329768">
        <ele>599.8</ele>
        <time>2022-04-24T09:10:06Z</time>
      </trkpt>
      <trkpt lat="38.321300" lon="-2.329800">
        <ele>603.8</ele>
        <time>2022-04-24T09:10:31Z</time>
      </trkpt>
      <trkpt lat="38.321477" lon="-2.329774">
        <ele>605.1</ele>
        <time>2022-04-24T09:10:43Z</time>
      </trkpt>
      <trkpt lat="38.321657" lon="-2.329755">
        <ele>603.8</ele>
        <time>2022-04-24T09:11:00Z</time>
      </trkpt>
      <trkpt lat="38.321842" lon="-2.329745">
        <ele>602.8</ele>
        <time>2022-04-24T09:11:13Z</time>
      </trkpt>
      <trkpt lat="38.322017" lon="-2.329650">
        <ele>599.9</ele>
        <time>2022-04-24T09:11:28Z</time>
      </trkpt>
      <trkpt lat="38.322179" lon="-2.329542">
        <ele>597.8</ele>
        <time>2022-04-24T09:11:38Z</time>
      </trkpt>
      <trkpt lat="38.322340" lon="-2.329425">
        <ele>594.8</ele>
        <time>2022-04-24T09:11:54Z</time>
      </trkpt>
      <trkpt lat="38.322504" lon="-2.329323">
        <ele>594.5</ele>
        <time>2022-04-24T09:12:10Z</time>
      </trkpt>
      <trkpt lat="38.322688" lon="-2.329244">
        <ele>596.5</ele>
        <time>2022-04-24T09:12:24Z</time>
      </trkpt>
      <trkpt lat="38.322869" lon="-2.329164">
        <ele>596.6</ele>
        <time>2022-04-24T09:12:35Z</time>
      </trkpt>
      <trkpt lat="38.323012" lon="-2.329020">
        <ele>595.8</ele>
        <time>2022-04-24T09:12:49Z</time>
      </trkpt>
      <trkpt lat="38.323147" lon="-2.328866">
        <ele>592.8</ele>
        <time>2022-04-24T09:13:23Z</time>
      </trkpt>
      <trkpt lat="38.323296" lon="-2.328724">
        <ele>598.8</ele>
        <time>2022-04-24T09:13:42Z</time>
      </trkpt>
      <trkpt lat="38.323431" lon="-2.328566">
        <ele>597.9</ele>
        <time>2022-04-24T09:13:56Z</time>
      </trkpt>
      <trkpt lat="38.323577" lon="-2.328423">
        <ele>598.8</ele>
        <time>2022-04-24T09:14:09Z</time>
      </trkpt>
      <trkpt lat="38.323726" lon="-2.328279">
        <ele>595.8</ele>
        <time>2022-04-24T09:14:24Z</time>
      </trkpt>
      <trkpt lat="38.323850" lon="-2.328085">
        <ele>596.9</ele>
        <time>2022-04-24T09:14:39Z</time>
      </trkpt>
      <trkpt lat="38.323952" lon="-2.327893">
        <ele>596.8</ele>
        <time>2022-04-24T09:14:52Z</time>
      </trkpt>
      <trkpt lat="38.324066" lon="-2.327708">
        <ele>597.8</ele>
        <time>2022-04-24T09:15:05Z</time>
      </trkpt>
      <trkpt lat="38.324116" lon="-2.327482">
        <ele>598.1</ele>
        <time>2022-04-24T09:15:17Z</time>
      </trkpt>
      <trkpt lat="38.324199" lon="-2.327266">
        <ele>594.9</ele>
        <time>2022-04-24T09:15:32Z</time>
      </trkpt>
      <trkpt lat="38.324279" lon="-2.327059">
        <ele>590.9</ele>
        <time>2022-04-24T09:15:45Z</time>
      </trkpt>
      <trkpt lat="38.324370" lon="-2.326849">
        <ele>588.8</ele>
        <time>2022-04-24T09:16:01Z</time>
      </trkpt>
      <trkpt lat="38.324415" lon="-2.326609">
        <ele>586.8</ele>
        <time>2022-04-24T09:16:14Z</time>
      </trkpt>
      <trkpt lat="38.324431" lon="-2.326374">
        <ele>585.9</ele>
        <time>2022-04-24T09:16:26Z</time>
      </trkpt>
      <trkpt lat="38.324422" lon="-2.326144">
        <ele>587.8</ele>
        <time>2022-04-24T09:16:38Z</time>
      </trkpt>
      <trkpt lat="38.324428" lon="-2.325911">
        <ele>589.5</ele>
        <time>2022-04-24T09:16:49Z</time>
      </trkpt>
      <trkpt lat="38.324456" lon="-2.325685">
        <ele>588.8</ele>
        <time>2022-04-24T09:17:03Z</time>
      </trkpt>
      <trkpt lat="38.324519" lon="-2.325467">
        <ele>592.8</ele>
        <time>2022-04-24T09:17:17Z</time>
      </trkpt>
      <trkpt lat="38.324586" lon="-2.325243">
        <ele>594.9</ele>
        <time>2022-04-24T09:17:30Z</time>
      </trkpt>
      <trkpt lat="38.324691" lon="-2.325048">
        <ele>592.8</ele>
        <time>2022-04-24T09:17:43Z</time>
      </trkpt>
      <trkpt lat="38.324827" lon="-2.324889">
        <ele>592.8</ele>
        <time>2022-04-24T09:17:58Z</time>
      </trkpt>
      <trkpt lat="38.324926" lon="-2.324691">
        <ele>590.3</ele>
        <time>2022-04-24T09:18:13Z</time>
      </trkpt>
      <trkpt lat="38.325046" lon="-2.324513">
        <ele>588.8</ele>
        <time>2022-04-24T09:18:26Z</time>
      </trkpt>
      <trkpt lat="38.325159" lon="-2.324327">
        <ele>589.8</ele>
        <time>2022-04-24T09:18:37Z</time>
      </trkpt>
      <trkpt lat="38.325266" lon="-2.324135">
        <ele>591.9</ele>
        <time>2022-04-24T09:18:52Z</time>
      </trkpt>
      <trkpt lat="38.325348" lon="-2.323924">
        <ele>589.9</ele>
        <time>2022-04-24T09:19:07Z</time>
      </trkpt>
      <trkpt lat="38.325404" lon="-2.323697">
        <ele>590.9</ele>
        <time>2022-04-24T09:19:18Z</time>
      </trkpt>
      <trkpt lat="38.325448" lon="-2.323472">
        <ele>590.8</ele>
        <time>2022-04-24T09:19:30Z</time>
      </trkpt>
      <trkpt lat="38.325515" lon="-2.323258">
        <ele>590.8</ele>
        <time>2022-04-24T09:19:44Z</time>
      </trkpt>
      <trkpt lat="38.325559" lon="-2.323025">
        <ele>593.8</ele>
        <time>2022-04-24T09:19:58Z</time>
      </trkpt>
      <trkpt lat="38.325587" lon="-2.322794">
        <ele>593.8</ele>
        <time>2022-04-24T09:20:09Z</time>
      </trkpt>
      <trkpt lat="38.325604" lon="-2.322561">
        <ele>594.8</ele>
        <time>2022-04-24T09:20:22Z</time>
      </trkpt>
      <trkpt lat="38.325651" lon="-2.322335">
        <ele>597.8</ele>
        <time>2022-04-24T09:20:35Z</time>
      </trkpt>
      <trkpt lat="38.325723" lon="-2.322117">
        <ele>598.9</ele>
        <time>2022-04-24T09:20:48Z</time>
      </trkpt>
      <trkpt lat="38.325779" lon="-2.321899">
        <ele>598.8</ele>
        <time>2022-04-24T09:21:02Z</time>
      </trkpt>
      <trkpt lat="38.325849" lon="-2.321682">
        <ele>598.9</ele>
        <time>2022-04-24T09:21:16Z</time>
      </trkpt>
      <trkpt lat="38.325914" lon="-2.321463">
        <ele>597.9</ele>
        <time>2022-04-24T09:21:30Z</time>
      </trkpt>
      <trkpt lat="38.325994" lon="-2.321254">
        <ele>597.9</ele>
        <time>2022-04-24T09:21:46Z</time>
      </trkpt>
      <trkpt lat="38.326057" lon="-2.321034">
        <ele>597.8</ele>
        <time>2022-04-24T09:22:00Z</time>
      </trkpt>
      <trkpt lat="38.326143" lon="-2.320826">
        <ele>600.8</ele>
        <time>2022-04-24T09:22:15Z</time>
      </trkpt>
      <trkpt lat="38.326217" lon="-2.320612">
        <ele>601.9</ele>
        <time>2022-04-24T09:22:32Z</time>
      </trkpt>
      <trkpt lat="38.326288" lon="-2.320399">
        <ele>601.8</ele>
        <time>2022-04-24T09:22:48Z</time>
      </trkpt>
      <trkpt lat="38.326400" lon="-2.320214">
        <ele>602.9</ele>
        <time>2022-04-24T09:23:01Z</time>
      </trkpt>
      <trkpt lat="38.326526" lon="-2.320036">
        <ele>602.9</ele>
        <time>2022-04-24T09:23:14Z</time>
      </trkpt>
      <trkpt lat="38.326676" lon="-2.319878">
        <ele>602.8</ele>
        <time>2022-04-24T09:23:29Z</time>
      </trkpt>
      <trkpt lat="38.326813" lon="-2.319726">
        <ele>599.9</ele>
        <time>2022-04-24T09:23:45Z</time>
      </trkpt>
      <trkpt lat="38.326884" lon="-2.319517">
        <ele>604.9</ele>
        <time>2022-04-24T09:24:16Z</time>
      </trkpt>
      <trkpt lat="38.326744" lon="-2.319611">
        <ele>599.9</ele>
        <time>2022-04-24T09:24:34Z</time>
      </trkpt>
      <trkpt lat="38.326607" lon="-2.319759">
        <ele>597.9</ele>
        <time>2022-04-24T09:24:49Z</time>
      </trkpt>
      <trkpt lat="38.326451" lon="-2.319914">
        <ele>596.9</ele>
        <time>2022-04-24T09:25:21Z</time>
      </trkpt>
      <trkpt lat="38.326294" lon="-2.320034">
        <ele>600.9</ele>
        <time>2022-04-24T09:25:45Z</time>
      </trkpt>
      <trkpt lat="38.326143" lon="-2.320126">
        <ele>600.9</ele>
        <time>2022-04-24T09:26:46Z</time>
      </trkpt>
      <trkpt lat="38.326055" lon="-2.319925">
        <ele>599.6</ele>
        <time>2022-04-24T09:27:16Z</time>
      </trkpt>
      <trkpt lat="38.325966" lon="-2.319722">
        <ele>600.8</ele>
        <time>2022-04-24T09:27:43Z</time>
      </trkpt>
      <trkpt lat="38.325874" lon="-2.319520">
        <ele>601.9</ele>
        <time>2022-04-24T09:28:04Z</time>
      </trkpt>
      <trkpt lat="38.325872" lon="-2.319286">
        <ele>602.8</ele>
        <time>2022-04-24T09:28:20Z</time>
      </trkpt>
      <trkpt lat="38.325894" lon="-2.319058">
        <ele>602.9</ele>
        <time>2022-04-24T09:28:33Z</time>
      </trkpt>
      <trkpt lat="38.325930" lon="-2.318832">
        <ele>600.9</ele>
        <time>2022-04-24T09:28:55Z</time>
      </trkpt>
      <trkpt lat="38.325989" lon="-2.318611">
        <ele>601.8</ele>
        <time>2022-04-24T09:29:09Z</time>
      </trkpt>
      <trkpt lat="38.326072" lon="-2.318398">
        <ele>598.9</ele>
        <time>2022-04-24T09:29:29Z</time>
      </trkpt>
      <trkpt lat="38.326115" lon="-2.318163">
        <ele>597.7</ele>
        <time>2022-04-24T09:29:50Z</time>
      </trkpt>
      <trkpt lat="38.326251" lon="-2.318002">
        <ele>598.0</ele>
        <time>2022-04-24T09:30:05Z</time>
      </trkpt>
      <trkpt lat="38.326386" lon="-2.317844">
        <ele>604.1</ele>
        <time>2022-04-24T09:30:23Z</time>
      </trkpt>
      <trkpt lat="38.326508" lon="-2.317669">
        <ele>599.1</ele>
        <time>2022-04-24T09:30:34Z</time>
      </trkpt>
      <trkpt lat="38.326660" lon="-2.317524">
        <ele>595.3</ele>
        <time>2022-04-24T09:30:48Z</time>
      </trkpt>
      <trkpt lat="38.326789" lon="-2.317353">
        <ele>598.9</ele>
        <time>2022-04-24T09:31:07Z</time>
      </trkpt>
      <trkpt lat="38.326951" lon="-2.317231">
        <ele>598.9</ele>
        <time>2022-04-24T09:31:23Z</time>
      </trkpt>
      <trkpt lat="38.327131" lon="-2.317205">
        <ele>597.2</ele>
        <time>2022-04-24T09:31:35Z</time>
      </trkpt>
      <trkpt lat="38.327309" lon="-2.317149">
        <ele>594.9</ele>
        <time>2022-04-24T09:31:52Z</time>
      </trkpt>
      <trkpt lat="38.327467" lon="-2.317035">
        <ele>592.9</ele>
        <time>2022-04-24T09:32:08Z</time>
      </trkpt>
      <trkpt lat="38.327593" lon="-2.316864">
        <ele>597.9</ele>
        <time>2022-04-24T09:32:31Z</time>
      </trkpt>
      <trkpt lat="38.327719" lon="-2.316696">
        <ele>592.9</ele>
        <time>2022-04-24T09:32:59Z</time>
      </trkpt>
      <trkpt lat="38.327891" lon="-2.316616">
        <ele>592.9</ele>
        <time>2022-04-24T09:33:19Z</time>
      </trkpt>
      <trkpt lat="38.328075" lon="-2.316606">
        <ele>593.8</ele>
        <time>2022-04-24T09:33:37Z</time>
      </trkpt>
      <trkpt lat="38.328238" lon="-2.316485">
        <ele>591.9</ele>
        <time>2022-04-24T09:34:04Z</time>
      </trkpt>
      <trkpt lat="38.328338" lon="-2.316289">
        <ele>590.9</ele>
        <time>2022-04-24T09:34:24Z</time>
      </trkpt>
      <trkpt lat="38.328449" lon="-2.316103">
        <ele>589.9</ele>
        <time>2022-04-24T09:34:37Z</time>
      </trkpt>
      <trkpt lat="38.328544" lon="-2.315907">
        <ele>588.0</ele>
        <time>2022-04-24T09:34:53Z</time>
      </trkpt>
      <trkpt lat="38.328648" lon="-2.315714">
        <ele>590.9</ele>
        <time>2022-04-24T09:35:46Z</time>
      </trkpt>
      <trkpt lat="38.328749" lon="-2.315520">
        <ele>591.9</ele>
        <time>2022-04-24T09:36:11Z</time>
      </trkpt>
      <trkpt lat="38.328828" lon="-2.315307">
        <ele>594.6</ele>
        <time>2022-04-24T09:36:42Z</time>
      </trkpt>
      <trkpt lat="38.328927" lon="-2.315114">
        <ele>593.0</ele>
        <time>2022-04-24T09:36:58Z</time>
      </trkpt>
      <trkpt lat="38.329036" lon="-2.314930">
        <ele>590.9</ele>
        <time>2022-04-24T09:37:21Z</time>
      </trkpt>
      <trkpt lat="38.329192" lon="-2.314806">
        <ele>591.9</ele>
        <time>2022-04-24T09:37:35Z</time>
      </trkpt>
      <trkpt lat="38.329379" lon="-2.314776">
        <ele>592.9</ele>
        <time>2022-04-24T09:37:51Z</time>
      </trkpt>
      <trkpt lat="38.329566" lon="-2.314800">
        <ele>592.9</ele>
        <time>2022-04-24T09:38:04Z</time>
      </trkpt>
      <trkpt lat="38.329740" lon="-2.314805">
        <ele>595.1</ele>
        <time>2022-04-24T09:39:30Z</time>
      </trkpt>
      <trkpt lat="38.329874" lon="-2.314651">
        <ele>597.8</ele>
        <time>2022-04-24T09:39:46Z</time>
      </trkpt>
      <trkpt lat="38.329895" lon="-2.314421">
        <ele>599.8</ele>
        <time>2022-04-24T09:40:07Z</time>
      </trkpt>
      <trkpt lat="38.329863" lon="-2.314194">
        <ele>601.9</ele>
        <time>2022-04-24T09:40:22Z</time>
      </trkpt>
      <trkpt lat="38.329865" lon="-2.313957">
        <ele>602.9</ele>
        <time>2022-04-24T09:40:38Z</time>
      </trkpt>
      <trkpt lat="38.329990" lon="-2.313779">
        <ele>604.0</ele>
        <time>2022-04-24T09:40:59Z</time>
      </trkpt>
      <trkpt lat="38.330160" lon="-2.313696">
        <ele>601.9</ele>
        <time>2022-04-24T09:41:23Z</time>
      </trkpt>
      <trkpt lat="38.330341" lon="-2.313622">
        <ele>598.2</ele>
        <time>2022-04-24T09:41:39Z</time>
      </trkpt>
      <trkpt lat="38.330522" lon="-2.313585">
        <ele>597.9</ele>
        <time>2022-04-24T09:41:55Z</time>
      </trkpt>
      <trkpt lat="38.330700" lon="-2.313499">
        <ele>599.9</ele>
        <time>2022-04-24T09:42:09Z</time>
      </trkpt>
      <trkpt lat="38.330867" lon="-2.313411">
        <ele>599.9</ele>
        <time>2022-04-24T09:42:20Z</time>
      </trkpt>
      <trkpt lat="38.331056" lon="-2.313390">
        <ele>598.6</ele>
        <time>2022-04-24T09:42:37Z</time>
      </trkpt>
      <trkpt lat="38.331231" lon="-2.313321">
        <ele>598.9</ele>
        <time>2022-04-24T09:42:47Z</time>
      </trkpt>
      <trkpt lat="38.331409" lon="-2.313276">
        <ele>598.9</ele>
        <time>2022-04-24T09:43:01Z</time>
      </trkpt>
      <trkpt lat="38.331598" lon="-2.313271">
        <ele>599.8</ele>
        <time>2022-04-24T09:43:13Z</time>
      </trkpt>
      <trkpt lat="38.331798" lon="-2.313237">
        <ele>604.6</ele>
        <time>2022-04-24T09:43:29Z</time>
      </trkpt>
      <trkpt lat="38.331980" lon="-2.313257">
        <ele>607.6</ele>
        <time>2022-04-24T09:43:41Z</time>
      </trkpt>
      <trkpt lat="38.332167" lon="-2.313312">
        <ele>608.9</ele>
        <time>2022-04-24T09:43:53Z</time>
      </trkpt>
      <trkpt lat="38.332351" lon="-2.313298">
        <ele>608.9</ele>
        <time>2022-04-24T09:44:09Z</time>
      </trkpt>
      <trkpt lat="38.332547" lon="-2.313270">
        <ele>609.2</ele>
        <time>2022-04-24T09:44:24Z</time>
      </trkpt>
      <trkpt lat="38.332744" lon="-2.313267">
        <ele>608.9</ele>
        <time>2022-04-24T09:44:37Z</time>
      </trkpt>
      <trkpt lat="38.332923" lon="-2.313202">
        <ele>604.9</ele>
        <time>2022-04-24T09:44:51Z</time>
      </trkpt>
      <trkpt lat="38.333082" lon="-2.313091">
        <ele>601.2</ele>
        <time>2022-04-24T09:45:05Z</time>
      </trkpt>
      <trkpt lat="38.333257" lon="-2.313167">
        <ele>600.2</ele>
        <time>2022-04-24T09:45:23Z</time>
      </trkpt>
      <trkpt lat="38.333271" lon="-2.313401">
        <ele>596.0</ele>
        <time>2022-04-24T09:45:35Z</time>
      </trkpt>
      <trkpt lat="38.333241" lon="-2.313631">
        <ele>592.9</ele>
        <time>2022-04-24T09:45:49Z</time>
      </trkpt>
      <trkpt lat="38.333294" lon="-2.313852">
        <ele>591.8</ele>
        <time>2022-04-24T09:46:05Z</time>
      </trkpt>
      <trkpt lat="38.333442" lon="-2.313994">
        <ele>593.2</ele>
        <time>2022-04-24T09:46:16Z</time>
      </trkpt>
      <trkpt lat="38.333622" lon="-2.313940">
        <ele>594.8</ele>
        <time>2022-04-24T09:46:31Z</time>
      </trkpt>
      <trkpt lat="38.333571" lon="-2.313716">
        <ele>593.9</ele>
        <time>2022-04-24T09:46:43Z</time>
      </trkpt>
      <trkpt lat="38.333564" lon="-2.313485">
        <ele>596.9</ele>
        <time>2022-04-24T09:46:58Z</time>
      </trkpt>
      <trkpt lat="38.333616" lon="-2.313255">
        <ele>597.9</ele>
        <time>2022-04-24T09:47:12Z</time>
      </trkpt>
      <trkpt lat="38.333719" lon="-2.313057">
        <ele>596.9</ele>
        <time>2022-04-24T09:47:25Z</time>
      </trkpt>
      <trkpt lat="38.333895" lon="-2.312969">
        <ele>598.0</ele>
        <time>2022-04-24T09:47:38Z</time>
      </trkpt>
      <trkpt lat="38.334063" lon="-2.312876">
        <ele>595.9</ele>
        <time>2022-04-24T09:47:52Z</time>
      </trkpt>
      <trkpt lat="38.334221" lon="-2.312748">
        <ele>596.6</ele>
        <time>2022-04-24T09:48:06Z</time>
      </trkpt>
      <trkpt lat="38.334375" lon="-2.312624">
        <ele>597.9</ele>
        <time>2022-04-24T09:48:20Z</time>
      </trkpt>
      <trkpt lat="38.334501" lon="-2.312459">
        <ele>594.9</ele>
        <time>2022-04-24T09:48:34Z</time>
      </trkpt>
      <trkpt lat="38.334670" lon="-2.312350">
        <ele>595.9</ele>
        <time>2022-04-24T09:49:08Z</time>
      </trkpt>
      <trkpt lat="38.334819" lon="-2.312210">
        <ele>597.9</ele>
        <time>2022-04-24T09:49:23Z</time>
      </trkpt>
      <trkpt lat="38.334965" lon="-2.312075">
        <ele>602.8</ele>
        <time>2022-04-24T09:49:35Z</time>
      </trkpt>
      <trkpt lat="38.335117" lon="-2.311942">
        <ele>603.9</ele>
        <time>2022-04-24T09:49:51Z</time>
      </trkpt>
      <trkpt lat="38.335281" lon="-2.311800">
        <ele>605.9</ele>
        <time>2022-04-24T09:50:05Z</time>
      </trkpt>
      <trkpt lat="38.335379" lon="-2.311580">
        <ele>607.8</ele>
        <time>2022-04-24T09:50:20Z</time>
      </trkpt>
      <trkpt lat="38.335484" lon="-2.311380">
        <ele>604.9</ele>
        <time>2022-04-24T09:50:33Z</time>
      </trkpt>
      <trkpt lat="38.335623" lon="-2.311225">
        <ele>606.9</ele>
        <time>2022-04-24T09:50:46Z</time>
      </trkpt>
      <trkpt lat="38.335761" lon="-2.311076">
        <ele>605.9</ele>
        <time>2022-04-24T09:51:01Z</time>
      </trkpt>
      <trkpt lat="38.335891" lon="-2.310899">
        <ele>606.9</ele>
        <time>2022-04-24T09:51:15Z</time>
      </trkpt>
      <trkpt lat="38.335996" lon="-2.310713">
        <ele>607.9</ele>
        <time>2022-04-24T09:51:27Z</time>
      </trkpt>
      <trkpt lat="38.336035" lon="-2.310479">
        <ele>605.2</ele>
        <time>2022-04-24T09:51:42Z</time>
      </trkpt>
      <trkpt lat="38.336091" lon="-2.310252">
        <ele>606.9</ele>
        <time>2022-04-24T09:51:56Z</time>
      </trkpt>
      <trkpt lat="38.336199" lon="-2.310049">
        <ele>607.9</ele>
        <time>2022-04-24T09:52:11Z</time>
      </trkpt>
      <trkpt lat="38.336320" lon="-2.309878">
        <ele>608.8</ele>
        <time>2022-04-24T09:52:25Z</time>
      </trkpt>
      <trkpt lat="38.336463" lon="-2.309731">
        <ele>607.1</ele>
        <time>2022-04-24T09:52:38Z</time>
      </trkpt>
      <trkpt lat="38.336605" lon="-2.309575">
        <ele>604.2</ele>
        <time>2022-04-24T09:52:51Z</time>
      </trkpt>
      <trkpt lat="38.336732" lon="-2.309406">
        <ele>602.2</ele>
        <time>2022-04-24T09:53:05Z</time>
      </trkpt>
      <trkpt lat="38.336843" lon="-2.309214">
        <ele>599.9</ele>
        <time>2022-04-24T09:53:19Z</time>
      </trkpt>
      <trkpt lat="38.336980" lon="-2.309047">
        <ele>600.0</ele>
        <time>2022-04-24T09:53:33Z</time>
      </trkpt>
      <trkpt lat="38.337152" lon="-2.308979">
        <ele>601.1</ele>
        <time>2022-04-24T09:53:52Z</time>
      </trkpt>
      <trkpt lat="38.337333" lon="-2.308961">
        <ele>599.9</ele>
        <time>2022-04-24T09:54:12Z</time>
      </trkpt>
      <trkpt lat="38.337299" lon="-2.308731">
        <ele>595.9</ele>
        <time>2022-04-24T09:54:33Z</time>
      </trkpt>
      <trkpt lat="38.337172" lon="-2.308566">
        <ele>593.9</ele>
        <time>2022-04-24T09:54:50Z</time>
      </trkpt>
      <trkpt lat="38.337097" lon="-2.308354">
        <ele>590.0</ele>
        <time>2022-04-24T09:55:06Z</time>
      </trkpt>
      <trkpt lat="38.337181" lon="-2.308149">
        <ele>588.9</ele>
        <time>2022-04-24T09:55:18Z</time>
      </trkpt>
      <trkpt lat="38.337349" lon="-2.308029">
        <ele>589.9</ele>
        <time>2022-04-24T09:55:32Z</time>
      </trkpt>
      <trkpt lat="38.337503" lon="-2.307883">
        <ele>588.9</ele>
        <time>2022-04-24T09:55:47Z</time>
      </trkpt>
      <trkpt lat="38.337626" lon="-2.307710">
        <ele>588.9</ele>
        <time>2022-04-24T09:56:00Z</time>
      </trkpt>
      <trkpt lat="38.337783" lon="-2.307576">
        <ele>588.6</ele>
        <time>2022-04-24T09:56:14Z</time>
      </trkpt>
      <trkpt lat="38.337964" lon="-2.307532">
        <ele>589.9</ele>
        <time>2022-04-24T09:56:28Z</time>
      </trkpt>
      <trkpt lat="38.338149" lon="-2.307503">
        <ele>587.9</ele>
        <time>2022-04-24T09:56:42Z</time>
      </trkpt>
      <trkpt lat="38.338350" lon="-2.307499">
        <ele>588.9</ele>
        <time>2022-04-24T09:56:56Z</time>
      </trkpt>
      <trkpt lat="38.338528" lon="-2.307376">
        <ele>589.9</ele>
        <time>2022-04-24T09:57:11Z</time>
      </trkpt>
      <trkpt lat="38.338678" lon="-2.307241">
        <ele>589.9</ele>
        <time>2022-04-24T09:57:26Z</time>
      </trkpt>
      <trkpt lat="38.338849" lon="-2.307135">
        <ele>587.9</ele>
        <time>2022-04-24T09:57:42Z</time>
      </trkpt>
      <trkpt lat="38.339044" lon="-2.307186">
        <ele>589.9</ele>
        <time>2022-04-24T09:57:56Z</time>
      </trkpt>
      <trkpt lat="38.339196" lon="-2.307061">
        <ele>589.9</ele>
        <time>2022-04-24T09:58:11Z</time>
      </trkpt>
      <trkpt lat="38.339330" lon="-2.306893">
        <ele>593.8</ele>
        <time>2022-04-24T09:58:26Z</time>
      </trkpt>
      <trkpt lat="38.339423" lon="-2.306697">
        <ele>591.9</ele>
        <time>2022-04-24T09:58:44Z</time>
      </trkpt>
      <trkpt lat="38.339480" lon="-2.306479">
        <ele>594.8</ele>
        <time>2022-04-24T09:59:02Z</time>
      </trkpt>
      <trkpt lat="38.339535" lon="-2.306258">
        <ele>598.8</ele>
        <time>2022-04-24T09:59:21Z</time>
      </trkpt>
      <trkpt lat="38.339706" lon="-2.306170">
        <ele>600.9</ele>
        <time>2022-04-24T09:59:38Z</time>
      </trkpt>
      <trkpt lat="38.339807" lon="-2.306370">
        <ele>606.9</ele>
        <time>2022-04-24T09:59:56Z</time>
      </trkpt>
      <trkpt lat="38.339817" lon="-2.306607">
        <ele>607.9</ele>
        <time>2022-04-24T10:00:13Z</time>
      </trkpt>
      <trkpt lat="38.339856" lon="-2.306839">
        <ele>609.9</ele>
        <time>2022-04-24T10:00:28Z</time>
      </trkpt>
      <trkpt lat="38.339897" lon="-2.307071">
        <ele>606.2</ele>
        <time>2022-04-24T10:01:39Z</time>
      </trkpt>
      <trkpt lat="38.339950" lon="-2.307291">
        <ele>608.9</ele>
        <time>2022-04-24T10:01:52Z</time>
      </trkpt>
      <trkpt lat="38.340030" lon="-2.307504">
        <ele>608.9</ele>
        <time>2022-04-24T10:02:04Z</time>
      </trkpt>
      <trkpt lat="38.340133" lon="-2.307702">
        <ele>607.9</ele>
        <time>2022-04-24T10:02:16Z</time>
      </trkpt>
      <trkpt lat="38.340280" lon="-2.307842">
        <ele>608.9</ele>
        <time>2022-04-24T10:02:29Z</time>
      </trkpt>
      <trkpt lat="38.340437" lon="-2.307979">
        <ele>612.9</ele>
        <time>2022-04-24T10:02:42Z</time>
      </trkpt>
      <trkpt lat="38.340597" lon="-2.308110">
        <ele>616.6</ele>
        <time>2022-04-24T10:02:55Z</time>
      </trkpt>
      <trkpt lat="38.340764" lon="-2.308214">
        <ele>617.9</ele>
        <time>2022-04-24T10:03:14Z</time>
      </trkpt>
      <trkpt lat="38.340935" lon="-2.308302">
        <ele>617.9</ele>
        <time>2022-04-24T10:03:31Z</time>
      </trkpt>
      <trkpt lat="38.341105" lon="-2.308409">
        <ele>618.9</ele>
        <time>2022-04-24T10:03:48Z</time>
      </trkpt>
      <trkpt lat="38.341291" lon="-2.308463">
        <ele>620.6</ele>
        <time>2022-04-24T10:04:06Z</time>
      </trkpt>
      <trkpt lat="38.341470" lon="-2.308548">
        <ele>621.9</ele>
        <time>2022-04-24T10:04:23Z</time>
      </trkpt>
      <trkpt lat="38.341636" lon="-2.308641">
        <ele>624.8</ele>
        <time>2022-04-24T10:04:36Z</time>
      </trkpt>
      <trkpt lat="38.341808" lon="-2.308749">
        <ele>627.2</ele>
        <time>2022-04-24T10:04:51Z</time>
      </trkpt>
      <trkpt lat="38.341973" lon="-2.308870">
        <ele>627.9</ele>
        <time>2022-04-24T10:05:04Z</time>
      </trkpt>
      <trkpt lat="38.342145" lon="-2.308945">
        <ele>630.9</ele>
        <time>2022-04-24T10:05:17Z</time>
      </trkpt>
      <trkpt lat="38.342332" lon="-2.309013">
        <ele>632.8</ele>
        <time>2022-04-24T10:05:32Z</time>
      </trkpt>
      <trkpt lat="38.342508" lon="-2.309062">
        <ele>635.0</ele>
        <time>2022-04-24T10:05:46Z</time>
      </trkpt>
      <trkpt lat="38.342686" lon="-2.309111">
        <ele>637.8</ele>
        <time>2022-04-24T10:06:00Z</time>
      </trkpt>
      <trkpt lat="38.342871" lon="-2.309167">
        <ele>638.9</ele>
        <time>2022-04-24T10:06:15Z</time>
      </trkpt>
      <trkpt lat="38.343056" lon="-2.309212">
        <ele>639.9</ele>
        <time>2022-04-24T10:06:28Z</time>
      </trkpt>
      <trkpt lat="38.343226" lon="-2.309291">
        <ele>641.0</ele>
        <time>2022-04-24T10:06:44Z</time>
      </trkpt>
      <trkpt lat="38.343405" lon="-2.309341">
        <ele>642.9</ele>
        <time>2022-04-24T10:07:00Z</time>
      </trkpt>
      <trkpt lat="38.343585" lon="-2.309348">
        <ele>645.9</ele>
        <time>2022-04-24T10:07:12Z</time>
      </trkpt>
      <trkpt lat="38.343769" lon="-2.309274">
        <ele>647.9</ele>
        <time>2022-04-24T10:07:27Z</time>
      </trkpt>
      <trkpt lat="38.343954" lon="-2.309218">
        <ele>651.8</ele>
        <time>2022-04-24T10:07:44Z</time>
      </trkpt>
      <trkpt lat="38.344135" lon="-2.309172">
        <ele>652.9</ele>
        <time>2022-04-24T10:07:58Z</time>
      </trkpt>
      <trkpt lat="38.344316" lon="-2.309217">
        <ele>653.9</ele>
        <time>2022-04-24T10:08:15Z</time>
      </trkpt>
      <trkpt lat="38.344476" lon="-2.309326">
        <ele>656.6</ele>
        <time>2022-04-24T10:08:29Z</time>
      </trkpt>
      <trkpt lat="38.344626" lon="-2.309463">
        <ele>658.9</ele>
        <time>2022-04-24T10:08:44Z</time>
      </trkpt>
      <trkpt lat="38.344769" lon="-2.309620">
        <ele>657.9</ele>
        <time>2022-04-24T10:09:00Z</time>
      </trkpt>
      <trkpt lat="38.344940" lon="-2.309711">
        <ele>659.9</ele>
        <time>2022-04-24T10:09:14Z</time>
      </trkpt>
      <trkpt lat="38.345114" lon="-2.309787">
        <ele>664.2</ele>
        <time>2022-04-24T10:09:32Z</time>
      </trkpt>
      <trkpt lat="38.345270" lon="-2.309913">
        <ele>663.9</ele>
        <time>2022-04-24T10:09:47Z</time>
      </trkpt>
      <trkpt lat="38.345432" lon="-2.310039">
        <ele>666.9</ele>
        <time>2022-04-24T10:10:02Z</time>
      </trkpt>
      <trkpt lat="38.345606" lon="-2.310111">
        <ele>668.9</ele>
        <time>2022-04-24T10:10:20Z</time>
      </trkpt>
      <trkpt lat="38.345779" lon="-2.310175">
        <ele>669.8</ele>
        <time>2022-04-24T10:10:35Z</time>
      </trkpt>
      <trkpt lat="38.345949" lon="-2.310275">
        <ele>672.9</ele>
        <time>2022-04-24T10:10:51Z</time>
      </trkpt>
      <trkpt lat="38.346103" lon="-2.310403">
        <ele>672.9</ele>
        <time>2022-04-24T10:11:09Z</time>
      </trkpt>
      <trkpt lat="38.346253" lon="-2.310537">
        <ele>673.9</ele>
        <time>2022-04-24T10:11:25Z</time>
      </trkpt>
      <trkpt lat="38.346397" lon="-2.310698">
        <ele>674.9</ele>
        <time>2022-04-24T10:11:40Z</time>
      </trkpt>
      <trkpt lat="38.346551" lon="-2.310824">
        <ele>678.6</ele>
        <time>2022-04-24T10:11:54Z</time>
      </trkpt>
      <trkpt lat="38.346720" lon="-2.310952">
        <ele>680.8</ele>
        <time>2022-04-24T10:12:08Z</time>
      </trkpt>
      <trkpt lat="38.346885" lon="-2.311075">
        <ele>683.6</ele>
        <time>2022-04-24T10:12:24Z</time>
      </trkpt>
      <trkpt lat="38.347043" lon="-2.311211">
        <ele>685.6</ele>
        <time>2022-04-24T10:12:41Z</time>
      </trkpt>
      <trkpt lat="38.347207" lon="-2.311314">
        <ele>687.9</ele>
        <time>2022-04-24T10:12:54Z</time>
      </trkpt>
      <trkpt lat="38.347353" lon="-2.311453">
        <ele>689.9</ele>
        <time>2022-04-24T10:13:08Z</time>
      </trkpt>
      <trkpt lat="38.347505" lon="-2.311590">
        <ele>734.4</ele>
        <time>2022-04-24T10:13:24Z</time>
      </trkpt>
      <trkpt lat="38.347679" lon="-2.311660">
        <ele>833.7</ele>
        <time>2022-04-24T10:13:45Z</time>
      </trkpt>
      <trkpt lat="38.347835" lon="-2.311774">
        <ele>833.7</ele>
        <time>2022-04-24T10:13:59Z</time>
      </trkpt>
      <trkpt lat="38.348014" lon="-2.311860">
        <ele>833.7</ele>
        <time>2022-04-24T10:14:14Z</time>
      </trkpt>
      <trkpt lat="38.348190" lon="-2.311940">
        <ele>791.6</ele>
        <time>2022-04-24T10:14:29Z</time>
      </trkpt>
      <trkpt lat="38.348376" lon="-2.312005">
        <ele>833.7</ele>
        <time>2022-04-24T10:14:45Z</time>
      </trkpt>
      <trkpt lat="38.348547" lon="-2.312093">
        <ele>833.7</ele>
        <time>2022-04-24T10:15:00Z</time>
      </trkpt>
      <trkpt lat="38.348724" lon="-2.312190">
        <ele>833.7</ele>
        <time>2022-04-24T10:15:16Z</time>
      </trkpt>
      <trkpt lat="38.348887" lon="-2.312295">
        <ele>833.7</ele>
        <time>2022-04-24T10:15:33Z</time>
      </trkpt>
      <trkpt lat="38.349061" lon="-2.312376">
        <ele>833.7</ele>
        <time>2022-04-24T10:15:50Z</time>
      </trkpt>
      <trkpt lat="38.349243" lon="-2.312436">
        <ele>833.7</ele>
        <time>2022-04-24T10:16:09Z</time>
      </trkpt>
      <trkpt lat="38.349425" lon="-2.312464">
        <ele>696.9</ele>
        <time>2022-04-24T10:16:22Z</time>
      </trkpt>
      <trkpt lat="38.349604" lon="-2.312507">
        <ele>702.6</ele>
        <time>2022-04-24T10:16:37Z</time>
      </trkpt>
      <trkpt lat="38.349792" lon="-2.312525">
        <ele>736.7</ele>
        <time>2022-04-24T10:16:53Z</time>
      </trkpt>
      <trkpt lat="38.349981" lon="-2.312544">
        <ele>822.8</ele>
        <time>2022-04-24T10:17:07Z</time>
      </trkpt>
      <trkpt lat="38.350164" lon="-2.312589">
        <ele>703.9</ele>
        <time>2022-04-24T10:17:21Z</time>
      </trkpt>
      <trkpt lat="38.350342" lon="-2.312647">
        <ele>833.7</ele>
        <time>2022-04-24T10:17:35Z</time>
      </trkpt>
      <trkpt lat="38.350532" lon="-2.312690">
        <ele>833.7</ele>
        <time>2022-04-24T10:17:53Z</time>
      </trkpt>
      <trkpt lat="38.350700" lon="-2.312766">
        <ele>703.9</ele>
        <time>2022-04-24T10:21:31Z</time>
      </trkpt>
      <trkpt lat="38.350598" lon="-2.312578">
        <ele>833.7</ele>
        <time>2022-04-24T10:23:56Z</time>
      </trkpt>
      <trkpt lat="38.350458" lon="-2.312434">
        <ele>833.7</ele>
        <time>2022-04-24T10:24:27Z</time>
      </trkpt>
      <trkpt lat="38.350342" lon="-2.312248">
        <ele>696.0</ele>
        <time>2022-04-24T10:24:45Z</time>
      </trkpt>
      <trkpt lat="38.350229" lon="-2.312057">
        <ele>694.9</ele>
        <time>2022-04-24T10:25:14Z</time>
      </trkpt>
      <trkpt lat="38.350102" lon="-2.311890">
        <ele>693.0</ele>
        <time>2022-04-24T10:25:28Z</time>
      </trkpt>
      <trkpt lat="38.349977" lon="-2.311705">
        <ele>691.9</ele>
        <time>2022-04-24T10:25:42Z</time>
      </trkpt>
      <trkpt lat="38.349840" lon="-2.311527">
        <ele>688.0</ele>
        <time>2022-04-24T10:25:55Z</time>
      </trkpt>
      <trkpt lat="38.349720" lon="-2.311354">
        <ele>687.9</ele>
        <time>2022-04-24T10:26:10Z</time>
      </trkpt>
      <trkpt lat="38.349595" lon="-2.311176">
        <ele>685.9</ele>
        <time>2022-04-24T10:26:24Z</time>
      </trkpt>
      <trkpt lat="38.349473" lon="-2.311002">
        <ele>685.9</ele>
        <time>2022-04-24T10:26:37Z</time>
      </trkpt>
      <trkpt lat="38.349352" lon="-2.310810">
        <ele>683.9</ele>
        <time>2022-04-24T10:26:51Z</time>
      </trkpt>
      <trkpt lat="38.349216" lon="-2.310650">
        <ele>680.2</ele>
        <time>2022-04-24T10:27:05Z</time>
      </trkpt>
      <trkpt lat="38.349371" lon="-2.310506">
        <ele>681.9</ele>
        <time>2022-04-24T10:28:11Z</time>
      </trkpt>
      <trkpt lat="38.349552" lon="-2.310548">
        <ele>681.9</ele>
        <time>2022-04-24T10:28:24Z</time>
      </trkpt>
      <trkpt lat="38.349733" lon="-2.310609">
        <ele>681.2</ele>
        <time>2022-04-24T10:28:35Z</time>
      </trkpt>
      <trkpt lat="38.349918" lon="-2.310648">
        <ele>678.9</ele>
        <time>2022-04-24T10:28:50Z</time>
      </trkpt>
      <trkpt lat="38.350104" lon="-2.310695">
        <ele>676.9</ele>
        <time>2022-04-24T10:29:04Z</time>
      </trkpt>
      <trkpt lat="38.350283" lon="-2.310717">
        <ele>676.9</ele>
        <time>2022-04-24T10:29:17Z</time>
      </trkpt>
      <trkpt lat="38.350321" lon="-2.310480">
        <ele>676.9</ele>
        <time>2022-04-24T10:29:36Z</time>
      </trkpt>
      <trkpt lat="38.350197" lon="-2.310297">
        <ele>676.9</ele>
        <time>2022-04-24T10:29:51Z</time>
      </trkpt>
      <trkpt lat="38.350082" lon="-2.310105">
        <ele>833.7</ele>
        <time>2022-04-24T10:30:04Z</time>
      </trkpt>
      <trkpt lat="38.349936" lon="-2.309962">
        <ele>833.7</ele>
        <time>2022-04-24T10:30:18Z</time>
      </trkpt>
      <trkpt lat="38.349784" lon="-2.309819">
        <ele>832.7</ele>
        <time>2022-04-24T10:30:31Z</time>
      </trkpt>
      <trkpt lat="38.349646" lon="-2.309664">
        <ele>721.2</ele>
        <time>2022-04-24T10:30:48Z</time>
      </trkpt>
      <trkpt lat="38.349484" lon="-2.309531">
        <ele>675.0</ele>
        <time>2022-04-24T10:31:03Z</time>
      </trkpt>
      <trkpt lat="38.349339" lon="-2.309375">
        <ele>676.9</ele>
        <time>2022-04-24T10:31:16Z</time>
      </trkpt>
      <trkpt lat="38.349259" lon="-2.309167">
        <ele>678.9</ele>
        <time>2022-04-24T10:31:29Z</time>
      </trkpt>
      <trkpt lat="38.349136" lon="-2.308982">
        <ele>679.9</ele>
        <time>2022-04-24T10:31:43Z</time>
      </trkpt>
      <trkpt lat="38.349037" lon="-2.308788">
        <ele>678.9</ele>
        <time>2022-04-24T10:31:57Z</time>
      </trkpt>
      <trkpt lat="38.348941" lon="-2.308579">
        <ele>675.0</ele>
        <time>2022-04-24T10:32:10Z</time>
      </trkpt>
      <trkpt lat="38.348898" lon="-2.308341">
        <ele>674.9</ele>
        <time>2022-04-24T10:32:22Z</time>
      </trkpt>
      <trkpt lat="38.348916" lon="-2.308107">
        <ele>675.0</ele>
        <time>2022-04-24T10:32:34Z</time>
      </trkpt>
      <trkpt lat="38.348930" lon="-2.307871">
        <ele>676.2</ele>
        <time>2022-04-24T10:32:47Z</time>
      </trkpt>
      <trkpt lat="38.348999" lon="-2.307647">
        <ele>675.9</ele>
        <time>2022-04-24T10:32:59Z</time>
      </trkpt>
      <trkpt lat="38.349137" lon="-2.307491">
        <ele>677.8</ele>
        <time>2022-04-24T10:33:11Z</time>
      </trkpt>
      <trkpt lat="38.349291" lon="-2.307361">
        <ele>677.3</ele>
        <time>2022-04-24T10:33:27Z</time>
      </trkpt>
      <trkpt lat="38.349371" lon="-2.307146">
        <ele>676.7</ele>
        <time>2022-04-24T10:33:43Z</time>
      </trkpt>
      <trkpt lat="38.349478" lon="-2.306949">
        <ele>678.9</ele>
        <time>2022-04-24T10:34:00Z</time>
      </trkpt>
      <trkpt lat="38.349607" lon="-2.306787">
        <ele>677.9</ele>
        <time>2022-04-24T10:34:18Z</time>
      </trkpt>
      <trkpt lat="38.349707" lon="-2.306583">
        <ele>679.9</ele>
        <time>2022-04-24T10:34:41Z</time>
      </trkpt>
      <trkpt lat="38.349849" lon="-2.306418">
        <ele>680.9</ele>
        <time>2022-04-24T10:34:56Z</time>
      </trkpt>
      <trkpt lat="38.349972" lon="-2.306239">
        <ele>683.9</ele>
        <time>2022-04-24T10:35:09Z</time>
      </trkpt>
      <trkpt lat="38.350097" lon="-2.306073">
        <ele>687.9</ele>
        <time>2022-04-24T10:35:23Z</time>
      </trkpt>
      <trkpt lat="38.350166" lon="-2.305858">
        <ele>691.6</ele>
        <time>2022-04-24T10:35:37Z</time>
      </trkpt>
      <trkpt lat="38.350246" lon="-2.305640">
        <ele>690.3</ele>
        <time>2022-04-24T10:35:52Z</time>
      </trkpt>
      <trkpt lat="38.350349" lon="-2.305443">
        <ele>689.9</ele>
        <time>2022-04-24T10:36:05Z</time>
      </trkpt>
      <trkpt lat="38.350447" lon="-2.305247">
        <ele>691.0</ele>
        <time>2022-04-24T10:36:19Z</time>
      </trkpt>
      <trkpt lat="38.350451" lon="-2.305008">
        <ele>693.2</ele>
        <time>2022-04-24T10:36:54Z</time>
      </trkpt>
      <trkpt lat="38.350434" lon="-2.304755">
        <ele>692.7</ele>
        <time>2022-04-24T10:37:12Z</time>
      </trkpt>
      <trkpt lat="38.350473" lon="-2.304525">
        <ele>695.6</ele>
        <time>2022-04-24T10:37:26Z</time>
      </trkpt>
      <trkpt lat="38.350457" lon="-2.304292">
        <ele>699.9</ele>
        <time>2022-04-24T10:37:42Z</time>
      </trkpt>
      <trkpt lat="38.350424" lon="-2.304065">
        <ele>705.8</ele>
        <time>2022-04-24T10:38:09Z</time>
      </trkpt>
      <trkpt lat="38.350332" lon="-2.303867">
        <ele>704.0</ele>
        <time>2022-04-24T10:38:24Z</time>
      </trkpt>
      <trkpt lat="38.350227" lon="-2.303666">
        <ele>705.0</ele>
        <time>2022-04-24T10:38:35Z</time>
      </trkpt>
      <trkpt lat="38.350210" lon="-2.303430">
        <ele>703.0</ele>
        <time>2022-04-24T10:38:47Z</time>
      </trkpt>
      <trkpt lat="38.350312" lon="-2.303220">
        <ele>701.0</ele>
        <time>2022-04-24T10:38:59Z</time>
      </trkpt>
      <trkpt lat="38.350412" lon="-2.303025">
        <ele>703.0</ele>
        <time>2022-04-24T10:39:40Z</time>
      </trkpt>
      <trkpt lat="38.350413" lon="-2.302787">
        <ele>702.0</ele>
        <time>2022-04-24T10:39:53Z</time>
      </trkpt>
      <trkpt lat="38.350486" lon="-2.302569">
        <ele>702.0</ele>
        <time>2022-04-24T10:40:06Z</time>
      </trkpt>
      <trkpt lat="38.350570" lon="-2.302361">
        <ele>702.7</ele>
        <time>2022-04-24T10:40:19Z</time>
      </trkpt>
      <trkpt lat="38.350662" lon="-2.302163">
        <ele>702.0</ele>
        <time>2022-04-24T10:40:31Z</time>
      </trkpt>
      <trkpt lat="38.350831" lon="-2.302069">
        <ele>705.0</ele>
        <time>2022-04-24T10:40:48Z</time>
      </trkpt>
      <trkpt lat="38.351004" lon="-2.301979">
        <ele>703.0</ele>
        <time>2022-04-24T10:41:03Z</time>
      </trkpt>
      <trkpt lat="38.351138" lon="-2.301819">
        <ele>703.0</ele>
        <time>2022-04-24T10:41:17Z</time>
      </trkpt>
      <trkpt lat="38.351084" lon="-2.301595">
        <ele>701.0</ele>
        <time>2022-04-24T10:41:32Z</time>
      </trkpt>
      <trkpt lat="38.350912" lon="-2.301487">
        <ele>701.0</ele>
        <time>2022-04-24T10:41:47Z</time>
      </trkpt>
      <trkpt lat="38.350727" lon="-2.301512">
        <ele>700.7</ele>
        <time>2022-04-24T10:42:01Z</time>
      </trkpt>
      <trkpt lat="38.350552" lon="-2.301440">
        <ele>699.0</ele>
        <time>2022-04-24T10:42:17Z</time>
      </trkpt>
      <trkpt lat="38.350615" lon="-2.301222">
        <ele>697.0</ele>
        <time>2022-04-24T10:42:51Z</time>
      </trkpt>
      <trkpt lat="38.350510" lon="-2.301018">
        <ele>691.7</ele>
        <time>2022-04-24T10:43:07Z</time>
      </trkpt>
      <trkpt lat="38.350546" lon="-2.300769">
        <ele>689.0</ele>
        <time>2022-04-24T10:43:19Z</time>
      </trkpt>
      <trkpt lat="38.350496" lon="-2.300529">
        <ele>691.0</ele>
        <time>2022-04-24T10:43:34Z</time>
      </trkpt>
      <trkpt lat="38.350415" lon="-2.300322">
        <ele>692.0</ele>
        <time>2022-04-24T10:44:18Z</time>
      </trkpt>
      <trkpt lat="38.350374" lon="-2.300095">
        <ele>688.0</ele>
        <time>2022-04-24T10:44:33Z</time>
      </trkpt>
      <trkpt lat="38.350195" lon="-2.300013">
        <ele>687.0</ele>
        <time>2022-04-24T10:44:46Z</time>
      </trkpt>
      <trkpt lat="38.350014" lon="-2.299937">
        <ele>685.9</ele>
        <time>2022-04-24T10:45:08Z</time>
      </trkpt>
      <trkpt lat="38.349830" lon="-2.299947">
        <ele>686.7</ele>
        <time>2022-04-24T10:45:23Z</time>
      </trkpt>
      <trkpt lat="38.349660" lon="-2.300066">
        <ele>689.9</ele>
        <time>2022-04-24T10:45:38Z</time>
      </trkpt>
      <trkpt lat="38.349488" lon="-2.299978">
        <ele>686.2</ele>
        <time>2022-04-24T10:46:02Z</time>
      </trkpt>
      <trkpt lat="38.349401" lon="-2.299770">
        <ele>685.9</ele>
        <time>2022-04-24T10:46:22Z</time>
      </trkpt>
      <trkpt lat="38.349500" lon="-2.299577">
        <ele>686.0</ele>
        <time>2022-04-24T10:46:35Z</time>
      </trkpt>
      <trkpt lat="38.349534" lon="-2.299342">
        <ele>686.0</ele>
        <time>2022-04-24T10:46:48Z</time>
      </trkpt>
      <trkpt lat="38.349378" lon="-2.299215">
        <ele>686.0</ele>
        <time>2022-04-24T10:47:04Z</time>
      </trkpt>
      <trkpt lat="38.349207" lon="-2.299133">
        <ele>685.0</ele>
        <time>2022-04-24T10:47:32Z</time>
      </trkpt>
      <trkpt lat="38.349078" lon="-2.298964">
        <ele>683.0</ele>
        <time>2022-04-24T10:47:47Z</time>
      </trkpt>
      <trkpt lat="38.349004" lon="-2.298739">
        <ele>681.0</ele>
        <time>2022-04-24T10:48:00Z</time>
      </trkpt>
      <trkpt lat="38.348875" lon="-2.298559">
        <ele>682.0</ele>
        <time>2022-04-24T10:48:14Z</time>
      </trkpt>
      <trkpt lat="38.348745" lon="-2.298386">
        <ele>682.0</ele>
        <time>2022-04-24T10:48:28Z</time>
      </trkpt>
      <trkpt lat="38.348565" lon="-2.298359">
        <ele>679.0</ele>
        <time>2022-04-24T10:48:43Z</time>
      </trkpt>
      <trkpt lat="38.348431" lon="-2.298202">
        <ele>672.3</ele>
        <time>2022-04-24T10:49:28Z</time>
      </trkpt>
      <trkpt lat="38.348471" lon="-2.297956">
        <ele>667.0</ele>
        <time>2022-04-24T10:49:43Z</time>
      </trkpt>
      <trkpt lat="38.348340" lon="-2.297800">
        <ele>668.0</ele>
        <time>2022-04-24T10:49:59Z</time>
      </trkpt>
      <trkpt lat="38.348400" lon="-2.297553">
        <ele>662.0</ele>
        <time>2022-04-24T10:50:25Z</time>
      </trkpt>
      <trkpt lat="38.348533" lon="-2.297383">
        <ele>662.0</ele>
        <time>2022-04-24T10:50:38Z</time>
      </trkpt>
      <trkpt lat="38.348608" lon="-2.297173">
        <ele>661.0</ele>
        <time>2022-04-24T10:50:55Z</time>
      </trkpt>
      <trkpt lat="38.348423" lon="-2.297155">
        <ele>661.0</ele>
        <time>2022-04-24T10:51:09Z</time>
      </trkpt>
      <trkpt lat="38.348270" lon="-2.297026">
        <ele>669.0</ele>
        <time>2022-04-24T10:52:35Z</time>
      </trkpt>
      <trkpt lat="38.348136" lon="-2.296864">
        <ele>671.7</ele>
        <time>2022-04-24T10:52:53Z</time>
      </trkpt>
      <trkpt lat="38.348060" lon="-2.296640">
        <ele>673.0</ele>
        <time>2022-04-24T10:53:08Z</time>
      </trkpt>
      <trkpt lat="38.347991" lon="-2.296420">
        <ele>673.7</ele>
        <time>2022-04-24T10:53:27Z</time>
      </trkpt>
      <trkpt lat="38.347863" lon="-2.296253">
        <ele>675.0</ele>
        <time>2022-04-24T10:54:02Z</time>
      </trkpt>
      <trkpt lat="38.347698" lon="-2.296160">
        <ele>673.0</ele>
        <time>2022-04-24T10:54:18Z</time>
      </trkpt>
      <trkpt lat="38.347539" lon="-2.296025">
        <ele>675.0</ele>
        <time>2022-04-24T10:54:32Z</time>
      </trkpt>
      <trkpt lat="38.347401" lon="-2.295873">
        <ele>675.0</ele>
        <time>2022-04-24T10:54:46Z</time>
      </trkpt>
      <trkpt lat="38.347355" lon="-2.295634">
        <ele>672.3</ele>
        <time>2022-04-24T10:55:01Z</time>
      </trkpt>
      <trkpt lat="38.347263" lon="-2.295433">
        <ele>668.0</ele>
        <time>2022-04-24T10:55:18Z</time>
      </trkpt>
      <trkpt lat="38.347112" lon="-2.295294">
        <ele>668.0</ele>
        <time>2022-04-24T10:55:32Z</time>
      </trkpt>
      <trkpt lat="38.346997" lon="-2.295109">
        <ele>829.3</ele>
        <time>2022-04-24T10:55:45Z</time>
      </trkpt>
      <trkpt lat="38.346835" lon="-2.294979">
        <ele>833.8</ele>
        <time>2022-04-24T10:56:00Z</time>
      </trkpt>
      <trkpt lat="38.346678" lon="-2.294856">
        <ele>833.8</ele>
        <time>2022-04-24T10:56:15Z</time>
      </trkpt>
      <trkpt lat="38.346548" lon="-2.294688">
        <ele>833.8</ele>
        <time>2022-04-24T10:56:31Z</time>
      </trkpt>
      <trkpt lat="38.346388" lon="-2.294566">
        <ele>833.8</ele>
        <time>2022-04-24T10:56:45Z</time>
      </trkpt>
      <trkpt lat="38.346281" lon="-2.294374">
        <ele>833.8</ele>
        <time>2022-04-24T10:57:00Z</time>
      </trkpt>
      <trkpt lat="38.346284" lon="-2.294143">
        <ele>833.8</ele>
        <time>2022-04-24T10:57:15Z</time>
      </trkpt>
      <trkpt lat="38.346395" lon="-2.293952">
        <ele>833.8</ele>
        <time>2022-04-24T10:57:30Z</time>
      </trkpt>
      <trkpt lat="38.346460" lon="-2.293729">
        <ele>833.8</ele>
        <time>2022-04-24T10:57:46Z</time>
      </trkpt>
      <trkpt lat="38.346356" lon="-2.293541">
        <ele>653.3</ele>
        <time>2022-04-24T10:58:03Z</time>
      </trkpt>
      <trkpt lat="38.346284" lon="-2.293321">
        <ele>648.3</ele>
        <time>2022-04-24T10:58:20Z</time>
      </trkpt>
      <trkpt lat="38.346263" lon="-2.293086">
        <ele>645.0</ele>
        <time>2022-04-24T10:58:36Z</time>
      </trkpt>
      <trkpt lat="38.346222" lon="-2.292858">
        <ele>640.0</ele>
        <time>2022-04-24T10:58:54Z</time>
      </trkpt>
      <trkpt lat="38.346139" lon="-2.292650">
        <ele>638.0</ele>
        <time>2022-04-24T10:59:08Z</time>
      </trkpt>
      <trkpt lat="38.346038" lon="-2.292441">
        <ele>634.3</ele>
        <time>2022-04-24T10:59:24Z</time>
      </trkpt>
      <trkpt lat="38.345982" lon="-2.292223">
        <ele>633.0</ele>
        <time>2022-04-24T10:59:40Z</time>
      </trkpt>
      <trkpt lat="38.345990" lon="-2.291989">
        <ele>629.0</ele>
        <time>2022-04-24T10:59:55Z</time>
      </trkpt>
      <trkpt lat="38.345943" lon="-2.291761">
        <ele>630.0</ele>
        <time>2022-04-24T11:00:09Z</time>
      </trkpt>
      <trkpt lat="38.346019" lon="-2.291549">
        <ele>629.0</ele>
        <time>2022-04-24T11:00:23Z</time>
      </trkpt>
      <trkpt lat="38.346177" lon="-2.291424">
        <ele>626.3</ele>
        <time>2022-04-24T11:00:40Z</time>
      </trkpt>
      <trkpt lat="38.346358" lon="-2.291338">
        <ele>624.9</ele>
        <time>2022-04-24T11:00:56Z</time>
      </trkpt>
      <trkpt lat="38.346549" lon="-2.291239">
        <ele>627.0</ele>
        <time>2022-04-24T11:01:12Z</time>
      </trkpt>
      <trkpt lat="38.346613" lon="-2.291019">
        <ele>627.7</ele>
        <time>2022-04-24T11:01:31Z</time>
      </trkpt>
      <trkpt lat="38.346585" lon="-2.290784">
        <ele>626.0</ele>
        <time>2022-04-24T11:01:47Z</time>
      </trkpt>
      <trkpt lat="38.346475" lon="-2.290592">
        <ele>626.8</ele>
        <time>2022-04-24T11:02:06Z</time>
      </trkpt>
      <trkpt lat="38.346328" lon="-2.290443">
        <ele>627.3</ele>
        <time>2022-04-24T11:02:21Z</time>
      </trkpt>
      <trkpt lat="38.346205" lon="-2.290274">
        <ele>625.0</ele>
        <time>2022-04-24T11:02:42Z</time>
      </trkpt>
      <trkpt lat="38.346047" lon="-2.290154">
        <ele>625.0</ele>
        <time>2022-04-24T11:03:29Z</time>
      </trkpt>
      <trkpt lat="38.345925" lon="-2.289964">
        <ele>625.0</ele>
        <time>2022-04-24T11:03:48Z</time>
      </trkpt>
      <trkpt lat="38.345916" lon="-2.289731">
        <ele>621.0</ele>
        <time>2022-04-24T11:04:18Z</time>
      </trkpt>
      <trkpt lat="38.345967" lon="-2.289492">
        <ele>618.9</ele>
        <time>2022-04-24T11:04:41Z</time>
      </trkpt>
      <trkpt lat="38.345901" lon="-2.289274">
        <ele>617.3</ele>
        <time>2022-04-24T11:05:39Z</time>
      </trkpt>
      <trkpt lat="38.345915" lon="-2.289035">
        <ele>610.0</ele>
        <time>2022-04-24T11:05:57Z</time>
      </trkpt>
      <trkpt lat="38.345935" lon="-2.288797">
        <ele>607.1</ele>
        <time>2022-04-24T11:06:26Z</time>
      </trkpt>
      <trkpt lat="38.345889" lon="-2.288568">
        <ele>603.0</ele>
        <time>2022-04-24T11:06:41Z</time>
      </trkpt>
      <trkpt lat="38.345939" lon="-2.288337">
        <ele>600.0</ele>
        <time>2022-04-24T11:06:58Z</time>
      </trkpt>
      <trkpt lat="38.346052" lon="-2.288153">
        <ele>598.3</ele>
        <time>2022-04-24T11:07:30Z</time>
      </trkpt>
      <trkpt lat="38.346133" lon="-2.287948">
        <ele>596.0</ele>
        <time>2022-04-24T11:07:42Z</time>
      </trkpt>
      <trkpt lat="38.346240" lon="-2.287762">
        <ele>594.0</ele>
        <time>2022-04-24T11:07:57Z</time>
      </trkpt>
      <trkpt lat="38.346251" lon="-2.287528">
        <ele>590.0</ele>
        <time>2022-04-24T11:08:13Z</time>
      </trkpt>
      <trkpt lat="38.346335" lon="-2.287321">
        <ele>592.9</ele>
        <time>2022-04-24T11:08:32Z</time>
      </trkpt>
      <trkpt lat="38.346377" lon="-2.287087">
        <ele>593.4</ele>
        <time>2022-04-24T11:08:50Z</time>
      </trkpt>
      <trkpt lat="38.346350" lon="-2.286842">
        <ele>596.9</ele>
        <time>2022-04-24T11:09:06Z</time>
      </trkpt>
      <trkpt lat="38.346421" lon="-2.286631">
        <ele>605.0</ele>
        <time>2022-04-24T11:09:57Z</time>
      </trkpt>
      <trkpt lat="38.346503" lon="-2.286407">
        <ele>604.9</ele>
        <time>2022-04-24T11:10:18Z</time>
      </trkpt>
      <trkpt lat="38.346683" lon="-2.286391">
        <ele>605.7</ele>
        <time>2022-04-24T11:11:00Z</time>
      </trkpt>
      <trkpt lat="38.346768" lon="-2.286174">
        <ele>604.3</ele>
        <time>2022-04-24T11:11:15Z</time>
      </trkpt>
      <trkpt lat="38.346759" lon="-2.285944">
        <ele>601.0</ele>
        <time>2022-04-24T11:11:30Z</time>
      </trkpt>
      <trkpt lat="38.346772" lon="-2.285711">
        <ele>597.0</ele>
        <time>2022-04-24T11:11:46Z</time>
      </trkpt>
      <trkpt lat="38.346835" lon="-2.285479">
        <ele>592.0</ele>
        <time>2022-04-24T11:12:27Z</time>
      </trkpt>
      <trkpt lat="38.346929" lon="-2.285278">
        <ele>589.0</ele>
        <time>2022-04-24T11:12:41Z</time>
      </trkpt>
      <trkpt lat="38.346947" lon="-2.285049">
        <ele>586.0</ele>
        <time>2022-04-24T11:13:04Z</time>
      </trkpt>
      <trkpt lat="38.346937" lon="-2.284817">
        <ele>581.3</ele>
        <time>2022-04-24T11:13:43Z</time>
      </trkpt>
      <trkpt lat="38.346852" lon="-2.284611">
        <ele>581.0</ele>
        <time>2022-04-24T11:15:27Z</time>
      </trkpt>
      <trkpt lat="38.346705" lon="-2.284473">
        <ele>591.0</ele>
        <time>2022-04-24T11:17:35Z</time>
      </trkpt>
      <trkpt lat="38.346533" lon="-2.284383">
        <ele>590.1</ele>
        <time>2022-04-24T11:18:21Z</time>
      </trkpt>
      <trkpt lat="38.346385" lon="-2.284221">
        <ele>590.0</ele>
        <time>2022-04-24T11:18:34Z</time>
      </trkpt>
      <trkpt lat="38.346323" lon="-2.283997">
        <ele>591.3</ele>
        <time>2022-04-24T11:19:14Z</time>
      </trkpt>
      <trkpt lat="38.346351" lon="-2.283762">
        <ele>591.0</ele>
        <time>2022-04-24T11:19:30Z</time>
      </trkpt>
      <trkpt lat="38.346250" lon="-2.283971">
        <ele>595.2</ele>
        <time>2022-04-24T11:20:45Z</time>
      </trkpt>
      <trkpt lat="38.346243" lon="-2.283734">
        <ele>593.7</ele>
        <time>2022-04-24T11:21:19Z</time>
      </trkpt>
      <trkpt lat="38.346268" lon="-2.283482">
        <ele>595.7</ele>
        <time>2022-04-24T11:21:35Z</time>
      </trkpt>
      <trkpt lat="38.346211" lon="-2.283249">
        <ele>597.7</ele>
        <time>2022-04-24T11:21:53Z</time>
      </trkpt>
      <trkpt lat="38.346280" lon="-2.283035">
        <ele>599.7</ele>
        <time>2022-04-24T11:22:11Z</time>
      </trkpt>
      <trkpt lat="38.346137" lon="-2.283180">
        <ele>608.6</ele>
        <time>2022-04-24T11:22:44Z</time>
      </trkpt>
      <trkpt lat="38.346140" lon="-2.282948">
        <ele>616.9</ele>
        <time>2022-04-24T11:23:20Z</time>
      </trkpt>
      <trkpt lat="38.346016" lon="-2.283134">
        <ele>619.9</ele>
        <time>2022-04-24T11:23:56Z</time>
      </trkpt>
      <trkpt lat="38.346015" lon="-2.282902">
        <ele>620.0</ele>
        <time>2022-04-24T11:24:16Z</time>
      </trkpt>
      <trkpt lat="38.346113" lon="-2.282702">
        <ele>621.0</ele>
        <time>2022-04-24T11:24:35Z</time>
      </trkpt>
      <trkpt lat="38.346255" lon="-2.282547">
        <ele>626.7</ele>
        <time>2022-04-24T11:24:50Z</time>
      </trkpt>
      <trkpt lat="38.346384" lon="-2.282367">
        <ele>628.3</ele>
        <time>2022-04-24T11:25:05Z</time>
      </trkpt>
      <trkpt lat="38.346399" lon="-2.282137">
        <ele>628.3</ele>
        <time>2022-04-24T11:25:20Z</time>
      </trkpt>
      <trkpt lat="38.346463" lon="-2.281912">
        <ele>626.0</ele>
        <time>2022-04-24T11:25:35Z</time>
      </trkpt>
      <trkpt lat="38.346552" lon="-2.281701">
        <ele>627.0</ele>
        <time>2022-04-24T11:25:49Z</time>
      </trkpt>
      <trkpt lat="38.346601" lon="-2.281478">
        <ele>624.1</ele>
        <time>2022-04-24T11:26:04Z</time>
      </trkpt>
      <trkpt lat="38.346565" lon="-2.281242">
        <ele>615.3</ele>
        <time>2022-04-24T11:26:21Z</time>
      </trkpt>
      <trkpt lat="38.346555" lon="-2.281007">
        <ele>611.3</ele>
        <time>2022-04-24T11:26:36Z</time>
      </trkpt>
      <trkpt lat="38.346527" lon="-2.280777">
        <ele>613.0</ele>
        <time>2022-04-24T11:26:56Z</time>
      </trkpt>
      <trkpt lat="38.346463" lon="-2.280557">
        <ele>615.0</ele>
        <time>2022-04-24T11:27:12Z</time>
      </trkpt>
      <trkpt lat="38.346384" lon="-2.280349">
        <ele>615.0</ele>
        <time>2022-04-24T11:27:32Z</time>
      </trkpt>
      <trkpt lat="38.346356" lon="-2.280116">
        <ele>625.0</ele>
        <time>2022-04-24T11:28:19Z</time>
      </trkpt>
      <trkpt lat="38.346402" lon="-2.279881">
        <ele>624.7</ele>
        <time>2022-04-24T11:28:35Z</time>
      </trkpt>
      <trkpt lat="38.346370" lon="-2.279652">
        <ele>624.7</ele>
        <time>2022-04-24T11:28:51Z</time>
      </trkpt>
      <trkpt lat="38.346433" lon="-2.279420">
        <ele>620.1</ele>
        <time>2022-04-24T11:29:07Z</time>
      </trkpt>
      <trkpt lat="38.346500" lon="-2.279202">
        <ele>621.9</ele>
        <time>2022-04-24T11:29:22Z</time>
      </trkpt>
      <trkpt lat="38.346605" lon="-2.279001">
        <ele>621.0</ele>
        <time>2022-04-24T11:29:37Z</time>
      </trkpt>
      <trkpt lat="38.346743" lon="-2.278848">
        <ele>623.0</ele>
        <time>2022-04-24T11:29:51Z</time>
      </trkpt>
      <trkpt lat="38.346824" lon="-2.278632">
        <ele>623.0</ele>
        <time>2022-04-24T11:30:07Z</time>
      </trkpt>
      <trkpt lat="38.346792" lon="-2.278403">
        <ele>625.7</ele>
        <time>2022-04-24T11:30:32Z</time>
      </trkpt>
      <trkpt lat="38.346703" lon="-2.278202">
        <ele>622.0</ele>
        <time>2022-04-24T11:31:35Z</time>
      </trkpt>
      <trkpt lat="38.346749" lon="-2.277969">
        <ele>626.7</ele>
        <time>2022-04-24T11:31:59Z</time>
      </trkpt>
      <trkpt lat="38.346867" lon="-2.277792">
        <ele>627.0</ele>
        <time>2022-04-24T11:32:14Z</time>
      </trkpt>
      <trkpt lat="38.346979" lon="-2.277607">
        <ele>630.0</ele>
        <time>2022-04-24T11:32:26Z</time>
      </trkpt>
      <trkpt lat="38.347114" lon="-2.277438">
        <ele>632.7</ele>
        <time>2022-04-24T11:32:42Z</time>
      </trkpt>
      <trkpt lat="38.347236" lon="-2.277253">
        <ele>636.2</ele>
        <time>2022-04-24T11:32:59Z</time>
      </trkpt>
      <trkpt lat="38.347362" lon="-2.277075">
        <ele>636.0</ele>
        <time>2022-04-24T11:33:17Z</time>
      </trkpt>
      <trkpt lat="38.347466" lon="-2.276882">
        <ele>638.0</ele>
        <time>2022-04-24T11:33:37Z</time>
      </trkpt>
      <trkpt lat="38.347536" lon="-2.276668">
        <ele>636.0</ele>
        <time>2022-04-24T11:33:53Z</time>
      </trkpt>
      <trkpt lat="38.347594" lon="-2.276442">
        <ele>632.2</ele>
        <time>2022-04-24T11:34:17Z</time>
      </trkpt>
      <trkpt lat="38.347634" lon="-2.276216">
        <ele>629.0</ele>
        <time>2022-04-24T11:34:35Z</time>
      </trkpt>
      <trkpt lat="38.347703" lon="-2.275997">
        <ele>629.0</ele>
        <time>2022-04-24T11:34:53Z</time>
      </trkpt>
      <trkpt lat="38.347723" lon="-2.275766">
        <ele>630.8</ele>
        <time>2022-04-24T11:35:24Z</time>
      </trkpt>
      <trkpt lat="38.347717" lon="-2.275529">
        <ele>632.0</ele>
        <time>2022-04-24T11:35:45Z</time>
      </trkpt>
      <trkpt lat="38.347729" lon="-2.275297">
        <ele>631.7</ele>
        <time>2022-04-24T11:36:02Z</time>
      </trkpt>
      <trkpt lat="38.347798" lon="-2.275082">
        <ele>632.0</ele>
        <time>2022-04-24T11:36:17Z</time>
      </trkpt>
      <trkpt lat="38.347696" lon="-2.274891">
        <ele>637.0</ele>
        <time>2022-04-24T11:36:47Z</time>
      </trkpt>
      <trkpt lat="38.347521" lon="-2.274967">
        <ele>646.0</ele>
        <time>2022-04-24T11:37:52Z</time>
      </trkpt>
      <trkpt lat="38.347516" lon="-2.274733">
        <ele>648.9</ele>
        <time>2022-04-24T11:38:15Z</time>
      </trkpt>
      <trkpt lat="38.347520" lon="-2.274500">
        <ele>655.0</ele>
        <time>2022-04-24T11:38:39Z</time>
      </trkpt>
      <trkpt lat="38.347526" lon="-2.274270">
        <ele>656.9</ele>
        <time>2022-04-24T11:39:23Z</time>
      </trkpt>
      <trkpt lat="38.347360" lon="-2.274370">
        <ele>661.0</ele>
        <time>2022-04-24T11:40:02Z</time>
      </trkpt>
      <trkpt lat="38.347231" lon="-2.274533">
        <ele>663.9</ele>
        <time>2022-04-24T11:40:23Z</time>
      </trkpt>
      <trkpt lat="38.347121" lon="-2.274715">
        <ele>667.0</ele>
        <time>2022-04-24T11:40:50Z</time>
      </trkpt>
      <trkpt lat="38.347074" lon="-2.274945">
        <ele>669.8</ele>
        <time>2022-04-24T11:42:07Z</time>
      </trkpt>
      <trkpt lat="38.347017" lon="-2.275173">
        <ele>673.0</ele>
        <time>2022-04-24T11:42:29Z</time>
      </trkpt>
      <trkpt lat="38.346972" lon="-2.275395">
        <ele>672.7</ele>
        <time>2022-04-24T11:42:52Z</time>
      </trkpt>
      <trkpt lat="38.346828" lon="-2.275231">
        <ele>675.7</ele>
        <time>2022-04-24T11:43:24Z</time>
      </trkpt>
      <trkpt lat="38.346764" lon="-2.275012">
        <ele>684.9</ele>
        <time>2022-04-24T11:44:29Z</time>
      </trkpt>
      <trkpt lat="38.346610" lon="-2.274884">
        <ele>690.0</ele>
        <time>2022-04-24T11:45:28Z</time>
      </trkpt>
      <trkpt lat="38.346434" lon="-2.274929">
        <ele>691.7</ele>
        <time>2022-04-24T11:47:00Z</time>
      </trkpt>
      <trkpt lat="38.346256" lon="-2.274984">
        <ele>692.0</ele>
        <time>2022-04-24T11:47:18Z</time>
      </trkpt>
      <trkpt lat="38.346129" lon="-2.275158">
        <ele>693.0</ele>
        <time>2022-04-24T11:47:42Z</time>
      </trkpt>
      <trkpt lat="38.345995" lon="-2.275324">
        <ele>692.3</ele>
        <time>2022-04-24T11:48:22Z</time>
      </trkpt>
      <trkpt lat="38.345818" lon="-2.275388">
        <ele>689.0</ele>
        <time>2022-04-24T11:48:48Z</time>
      </trkpt>
      <trkpt lat="38.345649" lon="-2.275472">
        <ele>687.0</ele>
        <time>2022-04-24T11:49:08Z</time>
      </trkpt>
      <trkpt lat="38.345477" lon="-2.275542">
        <ele>685.0</ele>
        <time>2022-04-24T11:49:28Z</time>
      </trkpt>
      <trkpt lat="38.345294" lon="-2.275573">
        <ele>683.1</ele>
        <time>2022-04-24T11:49:48Z</time>
      </trkpt>
      <trkpt lat="38.345113" lon="-2.275541">
        <ele>683.0</ele>
        <time>2022-04-24T11:50:09Z</time>
      </trkpt>
      <trkpt lat="38.345191" lon="-2.275334">
        <ele>677.1</ele>
        <time>2022-04-24T11:50:29Z</time>
      </trkpt>
      <trkpt lat="38.345322" lon="-2.275157">
        <ele>669.1</ele>
        <time>2022-04-24T11:50:57Z</time>
      </trkpt>
      <trkpt lat="38.345440" lon="-2.274978">
        <ele>669.7</ele>
        <time>2022-04-24T11:51:32Z</time>
      </trkpt>
      <trkpt lat="38.345476" lon="-2.274750">
        <ele>671.0</ele>
        <time>2022-04-24T11:51:54Z</time>
      </trkpt>
      <trkpt lat="38.345519" lon="-2.274514">
        <ele>671.7</ele>
        <time>2022-04-24T11:52:17Z</time>
      </trkpt>
      <trkpt lat="38.345596" lon="-2.274303">
        <ele>673.0</ele>
        <time>2022-04-24T11:52:34Z</time>
      </trkpt>
      <trkpt lat="38.345664" lon="-2.274077">
        <ele>677.0</ele>
        <time>2022-04-24T11:52:51Z</time>
      </trkpt>
      <trkpt lat="38.345758" lon="-2.273867">
        <ele>678.7</ele>
        <time>2022-04-24T11:53:10Z</time>
      </trkpt>
      <trkpt lat="38.345873" lon="-2.273690">
        <ele>681.7</ele>
        <time>2022-04-24T11:53:26Z</time>
      </trkpt>
      <trkpt lat="38.345950" lon="-2.273468">
        <ele>683.0</ele>
        <time>2022-04-24T11:53:46Z</time>
      </trkpt>
      <trkpt lat="38.345947" lon="-2.273233">
        <ele>684.0</ele>
        <time>2022-04-24T11:54:02Z</time>
      </trkpt>
      <trkpt lat="38.345939" lon="-2.272998">
        <ele>686.0</ele>
        <time>2022-04-24T11:54:18Z</time>
      </trkpt>
      <trkpt lat="38.345970" lon="-2.272758">
        <ele>687.0</ele>
        <time>2022-04-24T11:54:33Z</time>
      </trkpt>
      <trkpt lat="38.345984" lon="-2.272517">
        <ele>686.9</ele>
        <time>2022-04-24T11:54:49Z</time>
      </trkpt>
      <trkpt lat="38.345947" lon="-2.272285">
        <ele>690.0</ele>
        <time>2022-04-24T11:55:08Z</time>
      </trkpt>
      <trkpt lat="38.345779" lon="-2.272188">
        <ele>689.7</ele>
        <time>2022-04-24T11:55:39Z</time>
      </trkpt>
      <trkpt lat="38.345638" lon="-2.272034">
        <ele>691.0</ele>
        <time>2022-04-24T11:56:04Z</time>
      </trkpt>
      <trkpt lat="38.345456" lon="-2.271962">
        <ele>687.0</ele>
        <time>2022-04-24T11:56:28Z</time>
      </trkpt>
      <trkpt lat="38.345275" lon="-2.272005">
        <ele>686.3</ele>
        <time>2022-04-24T11:56:50Z</time>
      </trkpt>
      <trkpt lat="38.345114" lon="-2.271903">
        <ele>681.0</ele>
        <time>2022-04-24T11:57:53Z</time>
      </trkpt>
      <trkpt lat="38.345057" lon="-2.271671">
        <ele>679.0</ele>
        <time>2022-04-24T11:58:11Z</time>
      </trkpt>
      <trkpt lat="38.344964" lon="-2.271470">
        <ele>676.0</ele>
        <time>2022-04-24T11:58:31Z</time>
      </trkpt>
      <trkpt lat="38.344852" lon="-2.271272">
        <ele>678.9</ele>
        <time>2022-04-24T11:58:52Z</time>
      </trkpt>
      <trkpt lat="38.344739" lon="-2.271088">
        <ele>679.0</ele>
        <time>2022-04-24T11:59:15Z</time>
      </trkpt>
      <trkpt lat="38.344605" lon="-2.270914">
        <ele>679.0</ele>
        <time>2022-04-24T11:59:38Z</time>
      </trkpt>
      <trkpt lat="38.344461" lon="-2.270775">
        <ele>680.9</ele>
        <time>2022-04-24T11:59:58Z</time>
      </trkpt>
      <trkpt lat="38.344325" lon="-2.270614">
        <ele>680.0</ele>
        <time>2022-04-24T12:00:14Z</time>
      </trkpt>
      <trkpt lat="38.344189" lon="-2.270454">
        <ele>679.0</ele>
        <time>2022-04-24T12:00:30Z</time>
      </trkpt>
      <trkpt lat="38.344059" lon="-2.270281">
        <ele>684.0</ele>
        <time>2022-04-24T12:01:01Z</time>
      </trkpt>
      <trkpt lat="38.343943" lon="-2.270098">
        <ele>679.1</ele>
        <time>2022-04-24T12:01:28Z</time>
      </trkpt>
      <trkpt lat="38.343823" lon="-2.269917">
        <ele>677.0</ele>
        <time>2022-04-24T12:01:45Z</time>
      </trkpt>
      <trkpt lat="38.343673" lon="-2.269789">
        <ele>674.0</ele>
        <time>2022-04-24T12:02:02Z</time>
      </trkpt>
      <trkpt lat="38.343525" lon="-2.269655">
        <ele>673.3</ele>
        <time>2022-04-24T12:02:19Z</time>
      </trkpt>
      <trkpt lat="38.343347" lon="-2.269587">
        <ele>672.0</ele>
        <time>2022-04-24T12:02:47Z</time>
      </trkpt>
      <trkpt lat="38.343167" lon="-2.269611">
        <ele>670.9</ele>
        <time>2022-04-24T12:03:11Z</time>
      </trkpt>
      <trkpt lat="38.343010" lon="-2.269489">
        <ele>671.1</ele>
        <time>2022-04-24T12:03:32Z</time>
      </trkpt>
      <trkpt lat="38.342881" lon="-2.269323">
        <ele>673.0</ele>
        <time>2022-04-24T12:04:06Z</time>
      </trkpt>
      <trkpt lat="38.342770" lon="-2.269141">
        <ele>676.0</ele>
        <time>2022-04-24T12:04:28Z</time>
      </trkpt>
      <trkpt lat="38.342621" lon="-2.269003">
        <ele>677.0</ele>
        <time>2022-04-24T12:04:50Z</time>
      </trkpt>
      <trkpt lat="38.342484" lon="-2.268839">
        <ele>676.0</ele>
        <time>2022-04-24T12:05:08Z</time>
      </trkpt>
      <trkpt lat="38.342350" lon="-2.268666">
        <ele>677.0</ele>
        <time>2022-04-24T12:05:29Z</time>
      </trkpt>
      <trkpt lat="38.342257" lon="-2.268470">
        <ele>676.1</ele>
        <time>2022-04-24T12:05:44Z</time>
      </trkpt>
      <trkpt lat="38.342096" lon="-2.268348">
        <ele>673.0</ele>
        <time>2022-04-24T12:06:56Z</time>
      </trkpt>
      <trkpt lat="38.341921" lon="-2.268264">
        <ele>670.1</ele>
        <time>2022-04-24T12:07:10Z</time>
      </trkpt>
      <trkpt lat="38.341751" lon="-2.268359">
        <ele>669.1</ele>
        <time>2022-04-24T12:07:31Z</time>
      </trkpt>
      <trkpt lat="38.341576" lon="-2.268416">
        <ele>668.0</ele>
        <time>2022-04-24T12:07:58Z</time>
      </trkpt>
      <trkpt lat="38.341400" lon="-2.268467">
        <ele>663.0</ele>
        <time>2022-04-24T12:08:17Z</time>
      </trkpt>
      <trkpt lat="38.341236" lon="-2.268370">
        <ele>662.0</ele>
        <time>2022-04-24T12:08:50Z</time>
      </trkpt>
      <trkpt lat="38.341379" lon="-2.268227">
        <ele>658.1</ele>
        <time>2022-04-24T12:09:03Z</time>
      </trkpt>
      <trkpt lat="38.341400" lon="-2.267998">
        <ele>653.1</ele>
        <time>2022-04-24T12:09:15Z</time>
      </trkpt>
      <trkpt lat="38.341430" lon="-2.267763">
        <ele>652.0</ele>
        <time>2022-04-24T12:10:17Z</time>
      </trkpt>
      <trkpt lat="38.341264" lon="-2.267666">
        <ele>651.7</ele>
        <time>2022-04-24T12:13:42Z</time>
      </trkpt>
      <trkpt lat="38.341084" lon="-2.267702">
        <ele>651.1</ele>
        <time>2022-04-24T12:14:08Z</time>
      </trkpt>
      <trkpt lat="38.340978" lon="-2.267514">
        <ele>662.0</ele>
        <time>2022-04-24T12:15:06Z</time>
      </trkpt>
      <trkpt lat="38.341071" lon="-2.267308">
        <ele>661.6</ele>
        <time>2022-04-24T12:15:35Z</time>
      </trkpt>
      <trkpt lat="38.341203" lon="-2.267148">
        <ele>669.9</ele>
        <time>2022-04-24T12:15:53Z</time>
      </trkpt>
      <trkpt lat="38.341296" lon="-2.266947">
        <ele>674.1</ele>
        <time>2022-04-24T12:16:32Z</time>
      </trkpt>
      <trkpt lat="38.341132" lon="-2.266835">
        <ele>674.0</ele>
        <time>2022-04-24T12:17:12Z</time>
      </trkpt>
      <trkpt lat="38.340953" lon="-2.266836">
        <ele>676.9</ele>
        <time>2022-04-24T12:17:36Z</time>
      </trkpt>
      <trkpt lat="38.341015" lon="-2.266615">
        <ele>685.0</ele>
        <time>2022-04-24T12:18:59Z</time>
      </trkpt>
      <trkpt lat="38.341152" lon="-2.266464">
        <ele>690.0</ele>
        <time>2022-04-24T12:19:31Z</time>
      </trkpt>
      <trkpt lat="38.341344" lon="-2.266438">
        <ele>690.0</ele>
        <time>2022-04-24T12:19:55Z</time>
      </trkpt>
      <trkpt lat="38.341524" lon="-2.266421">
        <ele>694.7</ele>
        <time>2022-04-24T12:20:14Z</time>
      </trkpt>
      <trkpt lat="38.341666" lon="-2.266279">
        <ele>691.3</ele>
        <time>2022-04-24T12:20:34Z</time>
      </trkpt>
      <trkpt lat="38.341634" lon="-2.266049">
        <ele>691.3</ele>
        <time>2022-04-24T12:20:49Z</time>
      </trkpt>
      <trkpt lat="38.341595" lon="-2.265823">
        <ele>693.0</ele>
        <time>2022-04-24T12:21:22Z</time>
      </trkpt>
      <trkpt lat="38.341595" lon="-2.265585">
        <ele>695.7</ele>
        <time>2022-04-24T12:21:39Z</time>
      </trkpt>
      <trkpt lat="38.341597" lon="-2.265345">
        <ele>697.7</ele>
        <time>2022-04-24T12:21:59Z</time>
      </trkpt>
      <trkpt lat="38.341647" lon="-2.265122">
        <ele>701.0</ele>
        <time>2022-04-24T12:22:18Z</time>
      </trkpt>
      <trkpt lat="38.341691" lon="-2.264897">
        <ele>707.0</ele>
        <time>2022-04-24T12:22:37Z</time>
      </trkpt>
      <trkpt lat="38.341800" lon="-2.264716">
        <ele>708.0</ele>
        <time>2022-04-24T12:23:07Z</time>
      </trkpt>
      <trkpt lat="38.341983" lon="-2.264660">
        <ele>711.0</ele>
        <time>2022-04-24T12:24:13Z</time>
      </trkpt>
      <trkpt lat="38.342149" lon="-2.264552">
        <ele>718.0</ele>
        <time>2022-04-24T12:25:06Z</time>
      </trkpt>
      <trkpt lat="38.342313" lon="-2.264440">
        <ele>722.0</ele>
        <time>2022-04-24T12:25:44Z</time>
      </trkpt>
      <trkpt lat="38.342442" lon="-2.264279">
        <ele>722.0</ele>
        <time>2022-04-24T12:26:24Z</time>
      </trkpt>
      <trkpt lat="38.342584" lon="-2.264134">
        <ele>725.0</ele>
        <time>2022-04-24T12:26:44Z</time>
      </trkpt>
      <trkpt lat="38.342739" lon="-2.264007">
        <ele>726.0</ele>
        <time>2022-04-24T12:27:14Z</time>
      </trkpt>
      <trkpt lat="38.342883" lon="-2.263862">
        <ele>727.0</ele>
        <time>2022-04-24T12:27:34Z</time>
      </trkpt>
      <trkpt lat="38.343025" lon="-2.263700">
        <ele>727.0</ele>
        <time>2022-04-24T12:28:10Z</time>
      </trkpt>
      <trkpt lat="38.343174" lon="-2.263570">
        <ele>727.0</ele>
        <time>2022-04-24T12:28:27Z</time>
      </trkpt>
      <trkpt lat="38.343309" lon="-2.263404">
        <ele>725.0</ele>
        <time>2022-04-24T12:28:47Z</time>
      </trkpt>
      <trkpt lat="38.343448" lon="-2.263241">
        <ele>724.0</ele>
        <time>2022-04-24T12:29:06Z</time>
      </trkpt>
      <trkpt lat="38.343502" lon="-2.263018">
        <ele>726.0</ele>
        <time>2022-04-24T12:29:30Z</time>
      </trkpt>
      <trkpt lat="38.343394" lon="-2.262825">
        <ele>723.7</ele>
        <time>2022-04-24T12:29:52Z</time>
      </trkpt>
      <trkpt lat="38.343282" lon="-2.262626">
        <ele>722.8</ele>
        <time>2022-04-24T12:30:11Z</time>
      </trkpt>
      <trkpt lat="38.343191" lon="-2.262418">
        <ele>720.0</ele>
        <time>2022-04-24T12:30:30Z</time>
      </trkpt>
      <trkpt lat="38.343066" lon="-2.262229">
        <ele>717.9</ele>
        <time>2022-04-24T12:30:56Z</time>
      </trkpt>
      <trkpt lat="38.342912" lon="-2.262110">
        <ele>717.0</ele>
        <time>2022-04-24T12:31:29Z</time>
      </trkpt>
      <trkpt lat="38.342746" lon="-2.262001">
        <ele>717.0</ele>
        <time>2022-04-24T12:31:44Z</time>
      </trkpt>
      <trkpt lat="38.342565" lon="-2.262056">
        <ele>713.0</ele>
        <time>2022-04-24T12:32:03Z</time>
      </trkpt>
      <trkpt lat="38.342384" lon="-2.262064">
        <ele>705.1</ele>
        <time>2022-04-24T12:32:29Z</time>
      </trkpt>
      <trkpt lat="38.342225" lon="-2.261957">
        <ele>698.0</ele>
        <time>2022-04-24T12:32:58Z</time>
      </trkpt>
      <trkpt lat="38.342098" lon="-2.261780">
        <ele>695.7</ele>
        <time>2022-04-24T12:34:01Z</time>
      </trkpt>
      <trkpt lat="38.342028" lon="-2.261559">
        <ele>697.7</ele>
        <time>2022-04-24T12:34:14Z</time>
      </trkpt>
      <trkpt lat="38.342056" lon="-2.261319">
        <ele>693.0</ele>
        <time>2022-04-24T12:34:30Z</time>
      </trkpt>
      <trkpt lat="38.342072" lon="-2.261078">
        <ele>692.0</ele>
        <time>2022-04-24T12:34:42Z</time>
      </trkpt>
      <trkpt lat="38.342122" lon="-2.260845">
        <ele>691.0</ele>
        <time>2022-04-24T12:34:56Z</time>
      </trkpt>
      <trkpt lat="38.342190" lon="-2.260620">
        <ele>690.0</ele>
        <time>2022-04-24T12:35:10Z</time>
      </trkpt>
      <trkpt lat="38.342248" lon="-2.260391">
        <ele>683.3</ele>
        <time>2022-04-24T12:35:27Z</time>
      </trkpt>
      <trkpt lat="38.342282" lon="-2.260153">
        <ele>682.0</ele>
        <time>2022-04-24T12:35:41Z</time>
      </trkpt>
      <trkpt lat="38.342345" lon="-2.259925">
        <ele>680.1</ele>
        <time>2022-04-24T12:36:00Z</time>
      </trkpt>
      <trkpt lat="38.342425" lon="-2.259709">
        <ele>674.1</ele>
        <time>2022-04-24T12:36:20Z</time>
      </trkpt>
      <trkpt lat="38.342548" lon="-2.259541">
        <ele>671.0</ele>
        <time>2022-04-24T12:36:38Z</time>
      </trkpt>
      <trkpt lat="38.342721" lon="-2.259459">
        <ele>663.3</ele>
        <time>2022-04-24T12:38:43Z</time>
      </trkpt>
      <trkpt lat="38.342816" lon="-2.259264">
        <ele>662.0</ele>
        <time>2022-04-24T12:38:56Z</time>
      </trkpt>
      <trkpt lat="38.342924" lon="-2.259062">
        <ele>665.0</ele>
        <time>2022-04-24T12:39:08Z</time>
      </trkpt>
      <trkpt lat="38.343017" lon="-2.258852">
        <ele>664.0</ele>
        <time>2022-04-24T12:39:22Z</time>
      </trkpt>
      <trkpt lat="38.343091" lon="-2.258617">
        <ele>665.0</ele>
        <time>2022-04-24T12:39:34Z</time>
      </trkpt>
      <trkpt lat="38.343210" lon="-2.258426">
        <ele>665.0</ele>
        <time>2022-04-24T12:39:48Z</time>
      </trkpt>
      <trkpt lat="38.343302" lon="-2.258213">
        <ele>665.0</ele>
        <time>2022-04-24T12:40:01Z</time>
      </trkpt>
      <trkpt lat="38.343388" lon="-2.258011">
        <ele>665.0</ele>
        <time>2022-04-24T12:40:14Z</time>
      </trkpt>
      <trkpt lat="38.343477" lon="-2.257797">
        <ele>667.0</ele>
        <time>2022-04-24T12:40:32Z</time>
      </trkpt>
      <trkpt lat="38.343478" lon="-2.257561">
        <ele>665.1</ele>
        <time>2022-04-24T12:40:43Z</time>
      </trkpt>
      <trkpt lat="38.343626" lon="-2.257400">
        <ele>667.1</ele>
        <time>2022-04-24T12:40:58Z</time>
      </trkpt>
      <trkpt lat="38.343747" lon="-2.257227">
        <ele>666.1</ele>
        <time>2022-04-24T12:41:12Z</time>
      </trkpt>
      <trkpt lat="38.343859" lon="-2.257033">
        <ele>664.0</ele>
        <time>2022-04-24T12:41:30Z</time>
      </trkpt>
      <trkpt lat="38.343915" lon="-2.256805">
        <ele>663.1</ele>
        <time>2022-04-24T12:41:44Z</time>
      </trkpt>
      <trkpt lat="38.343992" lon="-2.256581">
        <ele>664.1</ele>
        <time>2022-04-24T12:42:05Z</time>
      </trkpt>
      <trkpt lat="38.344045" lon="-2.256358">
        <ele>663.9</ele>
        <time>2022-04-24T12:42:18Z</time>
      </trkpt>
      <trkpt lat="38.344104" lon="-2.256139">
        <ele>661.9</ele>
        <time>2022-04-24T12:43:00Z</time>
      </trkpt>
      <trkpt lat="38.344150" lon="-2.255906">
        <ele>665.0</ele>
        <time>2022-04-24T12:43:13Z</time>
      </trkpt>
      <trkpt lat="38.344206" lon="-2.255679">
        <ele>666.7</ele>
        <time>2022-04-24T12:43:27Z</time>
      </trkpt>
      <trkpt lat="38.344198" lon="-2.255444">
        <ele>667.3</ele>
        <time>2022-04-24T12:43:39Z</time>
      </trkpt>
      <trkpt lat="38.344072" lon="-2.255275">
        <ele>668.0</ele>
        <time>2022-04-24T12:43:57Z</time>
      </trkpt>
      <trkpt lat="38.343968" lon="-2.255084">
        <ele>665.8</ele>
        <time>2022-04-24T12:44:11Z</time>
      </trkpt>
      <trkpt lat="38.343866" lon="-2.254874">
        <ele>667.0</ele>
        <time>2022-04-24T12:44:23Z</time>
      </trkpt>
      <trkpt lat="38.343785" lon="-2.254659">
        <ele>666.1</ele>
        <time>2022-04-24T12:44:35Z</time>
      </trkpt>
      <trkpt lat="38.343693" lon="-2.254456">
        <ele>668.0</ele>
        <time>2022-04-24T12:44:47Z</time>
      </trkpt>
      <trkpt lat="38.343612" lon="-2.254238">
        <ele>670.0</ele>
        <time>2022-04-24T12:44:59Z</time>
      </trkpt>
      <trkpt lat="38.343530" lon="-2.254000">
        <ele>668.3</ele>
        <time>2022-04-24T12:45:14Z</time>
      </trkpt>
      <trkpt lat="38.343428" lon="-2.253798">
        <ele>668.0</ele>
        <time>2022-04-24T12:45:27Z</time>
      </trkpt>
      <trkpt lat="38.343302" lon="-2.253629">
        <ele>667.8</ele>
        <time>2022-04-24T12:46:00Z</time>
      </trkpt>
      <trkpt lat="38.343169" lon="-2.253473">
        <ele>667.0</ele>
        <time>2022-04-24T12:46:14Z</time>
      </trkpt>
      <trkpt lat="38.343052" lon="-2.253294">
        <ele>668.0</ele>
        <time>2022-04-24T12:46:26Z</time>
      </trkpt>
      <trkpt lat="38.342929" lon="-2.253126">
        <ele>665.1</ele>
        <time>2022-04-24T12:46:39Z</time>
      </trkpt>
      <trkpt lat="38.342787" lon="-2.252979">
        <ele>666.0</ele>
        <time>2022-04-24T12:46:52Z</time>
      </trkpt>
      <trkpt lat="38.342621" lon="-2.252880">
        <ele>666.1</ele>
        <time>2022-04-24T12:47:11Z</time>
      </trkpt>
      <trkpt lat="38.342453" lon="-2.252788">
        <ele>667.0</ele>
        <time>2022-04-24T12:47:25Z</time>
      </trkpt>
      <trkpt lat="38.342272" lon="-2.252701">
        <ele>668.0</ele>
        <time>2022-04-24T12:47:39Z</time>
      </trkpt>
      <trkpt lat="38.342083" lon="-2.252666">
        <ele>669.0</ele>
        <time>2022-04-24T12:47:53Z</time>
      </trkpt>
      <trkpt lat="38.341990" lon="-2.252611">
        <ele>678.0</ele>
        <time>2022-05-08T06:49:28Z</time>
      </trkpt>
      <trkpt lat="38.341839" lon="-2.252331">
        <ele>673.7</ele>
        <time>2022-05-08T06:51:09Z</time>
      </trkpt>
      <trkpt lat="38.341803" lon="-2.251980">
        <ele>671.0</ele>
        <time>2022-05-08T06:52:10Z</time>
      </trkpt>
      <trkpt lat="38.341748" lon="-2.251747">
        <ele>673.0</ele>
        <time>2022-05-08T06:52:32Z</time>
      </trkpt>
      <trkpt lat="38.341691" lon="-2.251519">
        <ele>672.3</ele>
        <time>2022-05-08T06:52:49Z</time>
      </trkpt>
      <trkpt lat="38.341675" lon="-2.251285">
        <ele>671.0</ele>
        <time>2022-05-08T06:53:06Z</time>
      </trkpt>
      <trkpt lat="38.341627" lon="-2.251061">
        <ele>668.0</ele>
        <time>2022-05-08T06:53:25Z</time>
      </trkpt>
      <trkpt lat="38.341592" lon="-2.250827">
        <ele>666.3</ele>
        <time>2022-05-08T06:53:58Z</time>
      </trkpt>
      <trkpt lat="38.341544" lon="-2.250603">
        <ele>666.0</ele>
        <time>2022-05-08T06:54:16Z</time>
      </trkpt>
      <trkpt lat="38.341497" lon="-2.250378">
        <ele>664.0</ele>
        <time>2022-05-08T06:54:32Z</time>
      </trkpt>
      <trkpt lat="38.341488" lon="-2.250141">
        <ele>661.0</ele>
        <time>2022-05-08T06:55:11Z</time>
      </trkpt>
      <trkpt lat="38.341429" lon="-2.249914">
        <ele>662.0</ele>
        <time>2022-05-08T06:55:30Z</time>
      </trkpt>
      <trkpt lat="38.341386" lon="-2.249685">
        <ele>659.1</ele>
        <time>2022-05-08T06:55:44Z</time>
      </trkpt>
      <trkpt lat="38.341360" lon="-2.249458">
        <ele>657.0</ele>
        <time>2022-05-08T06:55:59Z</time>
      </trkpt>
      <trkpt lat="38.341325" lon="-2.249224">
        <ele>655.0</ele>
        <time>2022-05-08T06:56:15Z</time>
      </trkpt>
      <trkpt lat="38.341265" lon="-2.249003">
        <ele>654.8</ele>
        <time>2022-05-08T06:56:31Z</time>
      </trkpt>
      <trkpt lat="38.341221" lon="-2.248763">
        <ele>656.0</ele>
        <time>2022-05-08T06:57:12Z</time>
      </trkpt>
      <trkpt lat="38.341166" lon="-2.248540">
        <ele>658.0</ele>
        <time>2022-05-08T06:57:28Z</time>
      </trkpt>
      <trkpt lat="38.341137" lon="-2.248312">
        <ele>657.0</ele>
        <time>2022-05-08T06:57:41Z</time>
      </trkpt>
      <trkpt lat="38.341088" lon="-2.248085">
        <ele>656.3</ele>
        <time>2022-05-08T06:57:56Z</time>
      </trkpt>
      <trkpt lat="38.341015" lon="-2.247872">
        <ele>658.8</ele>
        <time>2022-05-08T06:58:18Z</time>
      </trkpt>
      <trkpt lat="38.341044" lon="-2.247636">
        <ele>660.1</ele>
        <time>2022-05-08T06:59:16Z</time>
      </trkpt>
      <trkpt lat="38.341011" lon="-2.247406">
        <ele>657.3</ele>
        <time>2022-05-08T06:59:41Z</time>
      </trkpt>
      <trkpt lat="38.340950" lon="-2.247190">
        <ele>654.1</ele>
        <time>2022-05-08T06:59:51Z</time>
      </trkpt>
      <trkpt lat="38.340911" lon="-2.246964">
        <ele>655.0</ele>
        <time>2022-05-08T07:00:28Z</time>
      </trkpt>
      <trkpt lat="38.340850" lon="-2.246747">
        <ele>659.0</ele>
        <time>2022-05-08T07:00:42Z</time>
      </trkpt>
      <trkpt lat="38.340820" lon="-2.246514">
        <ele>660.0</ele>
        <time>2022-05-08T07:00:54Z</time>
      </trkpt>
      <trkpt lat="38.340790" lon="-2.246284">
        <ele>659.0</ele>
        <time>2022-05-08T07:01:05Z</time>
      </trkpt>
      <trkpt lat="38.340810" lon="-2.246054">
        <ele>658.0</ele>
        <time>2022-05-08T07:01:21Z</time>
      </trkpt>
      <trkpt lat="38.340793" lon="-2.245824">
        <ele>657.0</ele>
        <time>2022-05-08T07:01:41Z</time>
      </trkpt>
      <trkpt lat="38.340791" lon="-2.245585">
        <ele>654.1</ele>
        <time>2022-05-08T07:01:56Z</time>
      </trkpt>
      <trkpt lat="38.340830" lon="-2.245353">
        <ele>653.0</ele>
        <time>2022-05-08T07:02:10Z</time>
      </trkpt>
      <trkpt lat="38.340846" lon="-2.245117">
        <ele>653.0</ele>
        <time>2022-05-08T07:02:26Z</time>
      </trkpt>
      <trkpt lat="38.340860" lon="-2.244887">
        <ele>652.1</ele>
        <time>2022-05-08T07:02:39Z</time>
      </trkpt>
      <trkpt lat="38.340903" lon="-2.244664">
        <ele>650.1</ele>
        <time>2022-05-08T07:02:53Z</time>
      </trkpt>
      <trkpt lat="38.340927" lon="-2.244431">
        <ele>648.4</ele>
        <time>2022-05-08T07:03:07Z</time>
      </trkpt>
      <trkpt lat="38.340933" lon="-2.244200">
        <ele>649.0</ele>
        <time>2022-05-08T07:03:20Z</time>
      </trkpt>
      <trkpt lat="38.340977" lon="-2.243968">
        <ele>645.5</ele>
        <time>2022-05-08T07:03:34Z</time>
      </trkpt>
      <trkpt lat="38.341021" lon="-2.243734">
        <ele>643.1</ele>
        <time>2022-05-08T07:03:48Z</time>
      </trkpt>
      <trkpt lat="38.341057" lon="-2.243506">
        <ele>644.0</ele>
        <time>2022-05-08T07:04:04Z</time>
      </trkpt>
      <trkpt lat="38.341019" lon="-2.243277">
        <ele>643.1</ele>
        <time>2022-05-08T07:04:17Z</time>
      </trkpt>
      <trkpt lat="38.341058" lon="-2.243049">
        <ele>642.2</ele>
        <time>2022-05-08T07:04:42Z</time>
      </trkpt>
      <trkpt lat="38.341124" lon="-2.242830">
        <ele>640.8</ele>
        <time>2022-05-08T07:05:06Z</time>
      </trkpt>
      <trkpt lat="38.341063" lon="-2.242611">
        <ele>643.4</ele>
        <time>2022-05-08T07:05:35Z</time>
      </trkpt>
      <trkpt lat="38.341113" lon="-2.242386">
        <ele>640.1</ele>
        <time>2022-05-08T07:06:12Z</time>
      </trkpt>
      <trkpt lat="38.341174" lon="-2.242163">
        <ele>643.0</ele>
        <time>2022-05-08T07:06:29Z</time>
      </trkpt>
      <trkpt lat="38.341201" lon="-2.241934">
        <ele>641.1</ele>
        <time>2022-05-08T07:06:44Z</time>
      </trkpt>
      <trkpt lat="38.341201" lon="-2.241693">
        <ele>641.2</ele>
        <time>2022-05-08T07:06:58Z</time>
      </trkpt>
      <trkpt lat="38.341179" lon="-2.241464">
        <ele>643.0</ele>
        <time>2022-05-08T07:07:13Z</time>
      </trkpt>
      <trkpt lat="38.341149" lon="-2.241237">
        <ele>645.1</ele>
        <time>2022-05-08T07:07:28Z</time>
      </trkpt>
      <trkpt lat="38.341115" lon="-2.241011">
        <ele>645.1</ele>
        <time>2022-05-08T07:07:42Z</time>
      </trkpt>
      <trkpt lat="38.341088" lon="-2.240783">
        <ele>646.2</ele>
        <time>2022-05-08T07:07:57Z</time>
      </trkpt>
      <trkpt lat="38.341044" lon="-2.240552">
        <ele>649.0</ele>
        <time>2022-05-08T07:08:11Z</time>
      </trkpt>
      <trkpt lat="38.341074" lon="-2.240322">
        <ele>649.2</ele>
        <time>2022-05-08T07:08:39Z</time>
      </trkpt>
      <trkpt lat="38.341189" lon="-2.240125">
        <ele>653.1</ele>
        <time>2022-05-08T07:09:15Z</time>
      </trkpt>
      <trkpt lat="38.341350" lon="-2.239992">
        <ele>655.1</ele>
        <time>2022-05-08T07:09:27Z</time>
      </trkpt>
      <trkpt lat="38.341517" lon="-2.239887">
        <ele>656.1</ele>
        <time>2022-05-08T07:09:38Z</time>
      </trkpt>
      <trkpt lat="38.341675" lon="-2.239765">
        <ele>657.1</ele>
        <time>2022-05-08T07:09:52Z</time>
      </trkpt>
      <trkpt lat="38.341830" lon="-2.239639">
        <ele>658.1</ele>
        <time>2022-05-08T07:10:11Z</time>
      </trkpt>
      <trkpt lat="38.341959" lon="-2.239458">
        <ele>658.1</ele>
        <time>2022-05-08T07:10:23Z</time>
      </trkpt>
      <trkpt lat="38.342093" lon="-2.239305">
        <ele>658.2</ele>
        <time>2022-05-08T07:10:38Z</time>
      </trkpt>
      <trkpt lat="38.342197" lon="-2.239117">
        <ele>659.1</ele>
        <time>2022-05-08T07:10:52Z</time>
      </trkpt>
      <trkpt lat="38.342265" lon="-2.238898">
        <ele>658.1</ele>
        <time>2022-05-08T07:11:08Z</time>
      </trkpt>
      <trkpt lat="38.342319" lon="-2.238674">
        <ele>659.1</ele>
        <time>2022-05-08T07:11:23Z</time>
      </trkpt>
      <trkpt lat="38.342288" lon="-2.238435">
        <ele>660.1</ele>
        <time>2022-05-08T07:11:41Z</time>
      </trkpt>
      <trkpt lat="38.342233" lon="-2.238216">
        <ele>662.2</ele>
        <time>2022-05-08T07:12:01Z</time>
      </trkpt>
      <trkpt lat="38.342168" lon="-2.237996">
        <ele>661.1</ele>
        <time>2022-05-08T07:12:17Z</time>
      </trkpt>
      <trkpt lat="38.342068" lon="-2.237805">
        <ele>661.1</ele>
        <time>2022-05-08T07:12:30Z</time>
      </trkpt>
      <trkpt lat="38.342036" lon="-2.237563">
        <ele>662.1</ele>
        <time>2022-05-08T07:12:45Z</time>
      </trkpt>
      <trkpt lat="38.341988" lon="-2.237336">
        <ele>661.8</ele>
        <time>2022-05-08T07:13:05Z</time>
      </trkpt>
      <trkpt lat="38.341926" lon="-2.237120">
        <ele>662.1</ele>
        <time>2022-05-08T07:13:18Z</time>
      </trkpt>
      <trkpt lat="38.341873" lon="-2.236896">
        <ele>660.1</ele>
        <time>2022-05-08T07:13:32Z</time>
      </trkpt>
      <trkpt lat="38.341807" lon="-2.236676">
        <ele>661.1</ele>
        <time>2022-05-08T07:13:46Z</time>
      </trkpt>
      <trkpt lat="38.341749" lon="-2.236450">
        <ele>661.1</ele>
        <time>2022-05-08T07:14:01Z</time>
      </trkpt>
      <trkpt lat="38.341699" lon="-2.236226">
        <ele>660.1</ele>
        <time>2022-05-08T07:14:16Z</time>
      </trkpt>
      <trkpt lat="38.341652" lon="-2.235998">
        <ele>661.1</ele>
        <time>2022-05-08T07:14:32Z</time>
      </trkpt>
      <trkpt lat="38.341596" lon="-2.235773">
        <ele>662.1</ele>
        <time>2022-05-08T07:14:50Z</time>
      </trkpt>
      <trkpt lat="38.341544" lon="-2.235553">
        <ele>663.1</ele>
        <time>2022-05-08T07:15:05Z</time>
      </trkpt>
      <trkpt lat="38.341479" lon="-2.235329">
        <ele>664.0</ele>
        <time>2022-05-08T07:15:17Z</time>
      </trkpt>
      <trkpt lat="38.341420" lon="-2.235109">
        <ele>664.1</ele>
        <time>2022-05-08T07:15:31Z</time>
      </trkpt>
      <trkpt lat="38.341371" lon="-2.234884">
        <ele>664.1</ele>
        <time>2022-05-08T07:15:45Z</time>
      </trkpt>
      <trkpt lat="38.341303" lon="-2.234671">
        <ele>666.8</ele>
        <time>2022-05-08T07:15:59Z</time>
      </trkpt>
      <trkpt lat="38.341245" lon="-2.234452">
        <ele>667.1</ele>
        <time>2022-05-08T07:16:14Z</time>
      </trkpt>
      <trkpt lat="38.341184" lon="-2.234231">
        <ele>666.1</ele>
        <time>2022-05-08T07:16:28Z</time>
      </trkpt>
      <trkpt lat="38.341107" lon="-2.234022">
        <ele>667.1</ele>
        <time>2022-05-08T07:16:42Z</time>
      </trkpt>
      <trkpt lat="38.341054" lon="-2.233795">
        <ele>668.1</ele>
        <time>2022-05-08T07:16:57Z</time>
      </trkpt>
      <trkpt lat="38.340993" lon="-2.233579">
        <ele>668.8</ele>
        <time>2022-05-08T07:17:10Z</time>
      </trkpt>
      <trkpt lat="38.340918" lon="-2.233360">
        <ele>669.1</ele>
        <time>2022-05-08T07:17:27Z</time>
      </trkpt>
      <trkpt lat="38.340876" lon="-2.233132">
        <ele>671.1</ele>
        <time>2022-05-08T07:17:41Z</time>
      </trkpt>
      <trkpt lat="38.340817" lon="-2.232907">
        <ele>671.4</ele>
        <time>2022-05-08T07:17:56Z</time>
      </trkpt>
      <trkpt lat="38.340739" lon="-2.232691">
        <ele>671.1</ele>
        <time>2022-05-08T07:18:11Z</time>
      </trkpt>
      <trkpt lat="38.340678" lon="-2.232468">
        <ele>667.1</ele>
        <time>2022-05-08T07:18:26Z</time>
      </trkpt>
      <trkpt lat="38.340623" lon="-2.232240">
        <ele>665.1</ele>
        <time>2022-05-08T07:18:44Z</time>
      </trkpt>
      <trkpt lat="38.340556" lon="-2.232024">
        <ele>664.1</ele>
        <time>2022-05-08T07:18:56Z</time>
      </trkpt>
      <trkpt lat="38.340497" lon="-2.231803">
        <ele>663.1</ele>
        <time>2022-05-08T07:19:10Z</time>
      </trkpt>
      <trkpt lat="38.340435" lon="-2.231587">
        <ele>663.1</ele>
        <time>2022-05-08T07:19:25Z</time>
      </trkpt>
      <trkpt lat="38.340382" lon="-2.231356">
        <ele>665.0</ele>
        <time>2022-05-08T07:19:42Z</time>
      </trkpt>
      <trkpt lat="38.340301" lon="-2.231137">
        <ele>665.1</ele>
        <time>2022-05-08T07:19:56Z</time>
      </trkpt>
      <trkpt lat="38.340232" lon="-2.230925">
        <ele>665.1</ele>
        <time>2022-05-08T07:20:11Z</time>
      </trkpt>
      <trkpt lat="38.340183" lon="-2.230695">
        <ele>664.1</ele>
        <time>2022-05-08T07:20:24Z</time>
      </trkpt>
      <trkpt lat="38.340114" lon="-2.230477">
        <ele>665.0</ele>
        <time>2022-05-08T07:20:40Z</time>
      </trkpt>
      <trkpt lat="38.340027" lon="-2.230274">
        <ele>664.1</ele>
        <time>2022-05-08T07:20:57Z</time>
      </trkpt>
      <trkpt lat="38.339932" lon="-2.230078">
        <ele>664.1</ele>
        <time>2022-05-08T07:21:10Z</time>
      </trkpt>
      <trkpt lat="38.339821" lon="-2.229896">
        <ele>666.1</ele>
        <time>2022-05-08T07:21:25Z</time>
      </trkpt>
      <trkpt lat="38.339709" lon="-2.229715">
        <ele>666.0</ele>
        <time>2022-05-08T07:21:40Z</time>
      </trkpt>
      <trkpt lat="38.339597" lon="-2.229526">
        <ele>668.1</ele>
        <time>2022-05-08T07:21:54Z</time>
      </trkpt>
      <trkpt lat="38.339467" lon="-2.229366">
        <ele>672.0</ele>
        <time>2022-05-08T07:22:09Z</time>
      </trkpt>
      <trkpt lat="38.339364" lon="-2.229171">
        <ele>672.1</ele>
        <time>2022-05-08T07:22:25Z</time>
      </trkpt>
      <trkpt lat="38.339220" lon="-2.229016">
        <ele>672.1</ele>
        <time>2022-05-08T07:23:05Z</time>
      </trkpt>
      <trkpt lat="38.339132" lon="-2.228807">
        <ele>671.1</ele>
        <time>2022-05-08T07:23:18Z</time>
      </trkpt>
      <trkpt lat="38.339004" lon="-2.228627">
        <ele>670.2</ele>
        <time>2022-05-08T07:23:30Z</time>
      </trkpt>
      <trkpt lat="38.338878" lon="-2.228457">
        <ele>674.1</ele>
        <time>2022-05-08T07:23:44Z</time>
      </trkpt>
      <trkpt lat="38.338765" lon="-2.228272">
        <ele>674.4</ele>
        <time>2022-05-08T07:24:09Z</time>
      </trkpt>
      <trkpt lat="38.338626" lon="-2.228120">
        <ele>667.5</ele>
        <time>2022-05-08T07:24:34Z</time>
      </trkpt>
      <trkpt lat="38.338527" lon="-2.227915">
        <ele>674.1</ele>
        <time>2022-05-08T07:24:58Z</time>
      </trkpt>
      <trkpt lat="38.338414" lon="-2.227724">
        <ele>671.1</ele>
        <time>2022-05-08T07:25:07Z</time>
      </trkpt>
      <trkpt lat="38.338322" lon="-2.227527">
        <ele>668.2</ele>
        <time>2022-05-08T07:25:22Z</time>
      </trkpt>
      <trkpt lat="38.338238" lon="-2.227315">
        <ele>667.1</ele>
        <time>2022-05-08T07:25:37Z</time>
      </trkpt>
      <trkpt lat="38.338148" lon="-2.227107">
        <ele>664.1</ele>
        <time>2022-05-08T07:25:59Z</time>
      </trkpt>
      <trkpt lat="38.338036" lon="-2.226920">
        <ele>665.1</ele>
        <time>2022-05-08T07:26:09Z</time>
      </trkpt>
      <trkpt lat="38.337924" lon="-2.226729">
        <ele>663.2</ele>
        <time>2022-05-08T07:26:21Z</time>
      </trkpt>
      <trkpt lat="38.337824" lon="-2.226533">
        <ele>663.1</ele>
        <time>2022-05-08T07:26:35Z</time>
      </trkpt>
      <trkpt lat="38.337722" lon="-2.226337">
        <ele>663.0</ele>
        <time>2022-05-08T07:26:52Z</time>
      </trkpt>
      <trkpt lat="38.337606" lon="-2.226144">
        <ele>664.1</ele>
        <time>2022-05-08T07:27:04Z</time>
      </trkpt>
      <trkpt lat="38.337495" lon="-2.225954">
        <ele>664.1</ele>
        <time>2022-05-08T07:27:19Z</time>
      </trkpt>
      <trkpt lat="38.337389" lon="-2.225766">
        <ele>664.1</ele>
        <time>2022-05-08T07:27:31Z</time>
      </trkpt>
      <trkpt lat="38.337273" lon="-2.225581">
        <ele>664.1</ele>
        <time>2022-05-08T07:27:59Z</time>
      </trkpt>
      <trkpt lat="38.337159" lon="-2.225398">
        <ele>665.1</ele>
        <time>2022-05-08T07:28:13Z</time>
      </trkpt>
      <trkpt lat="38.337076" lon="-2.225180">
        <ele>660.2</ele>
        <time>2022-05-08T07:28:28Z</time>
      </trkpt>
      <trkpt lat="38.336978" lon="-2.224981">
        <ele>659.1</ele>
        <time>2022-05-08T07:28:43Z</time>
      </trkpt>
      <trkpt lat="38.336874" lon="-2.224787">
        <ele>657.1</ele>
        <time>2022-05-08T07:28:58Z</time>
      </trkpt>
      <trkpt lat="38.336770" lon="-2.224592">
        <ele>655.1</ele>
        <time>2022-05-08T07:29:13Z</time>
      </trkpt>
      <trkpt lat="38.336692" lon="-2.224379">
        <ele>652.1</ele>
        <time>2022-05-08T07:29:28Z</time>
      </trkpt>
      <trkpt lat="38.336584" lon="-2.224181">
        <ele>652.1</ele>
        <time>2022-05-08T07:29:45Z</time>
      </trkpt>
      <trkpt lat="38.336484" lon="-2.223985">
        <ele>652.8</ele>
        <time>2022-05-08T07:29:58Z</time>
      </trkpt>
      <trkpt lat="38.336389" lon="-2.223780">
        <ele>650.1</ele>
        <time>2022-05-08T07:30:14Z</time>
      </trkpt>
      <trkpt lat="38.336290" lon="-2.223584">
        <ele>647.2</ele>
        <time>2022-05-08T07:30:29Z</time>
      </trkpt>
      <trkpt lat="38.336214" lon="-2.223372">
        <ele>646.9</ele>
        <time>2022-05-08T07:30:43Z</time>
      </trkpt>
      <trkpt lat="38.336179" lon="-2.223135">
        <ele>645.4</ele>
        <time>2022-05-08T07:30:59Z</time>
      </trkpt>
      <trkpt lat="38.336120" lon="-2.222917">
        <ele>646.2</ele>
        <time>2022-05-08T07:31:12Z</time>
      </trkpt>
      <trkpt lat="38.336121" lon="-2.222686">
        <ele>645.2</ele>
        <time>2022-05-08T07:31:27Z</time>
      </trkpt>
      <trkpt lat="38.336131" lon="-2.222457">
        <ele>644.1</ele>
        <time>2022-05-08T07:31:41Z</time>
      </trkpt>
      <trkpt lat="38.336128" lon="-2.222227">
        <ele>646.1</ele>
        <time>2022-05-08T07:31:55Z</time>
      </trkpt>
      <trkpt lat="38.336090" lon="-2.222002">
        <ele>647.1</ele>
        <time>2022-05-08T07:32:13Z</time>
      </trkpt>
      <trkpt lat="38.336099" lon="-2.221765">
        <ele>644.1</ele>
        <time>2022-05-08T07:32:26Z</time>
      </trkpt>
      <trkpt lat="38.336098" lon="-2.221534">
        <ele>644.1</ele>
        <time>2022-05-08T07:32:41Z</time>
      </trkpt>
      <trkpt lat="38.336135" lon="-2.221308">
        <ele>642.1</ele>
        <time>2022-05-08T07:33:14Z</time>
      </trkpt>
      <trkpt lat="38.336149" lon="-2.221076">
        <ele>642.4</ele>
        <time>2022-05-08T07:33:32Z</time>
      </trkpt>
      <trkpt lat="38.336176" lon="-2.220846">
        <ele>639.8</ele>
        <time>2022-05-08T07:33:47Z</time>
      </trkpt>
      <trkpt lat="38.336191" lon="-2.220610">
        <ele>637.1</ele>
        <time>2022-05-08T07:34:00Z</time>
      </trkpt>
      <trkpt lat="38.336206" lon="-2.220374">
        <ele>638.2</ele>
        <time>2022-05-08T07:34:15Z</time>
      </trkpt>
      <trkpt lat="38.336235" lon="-2.220148">
        <ele>637.1</ele>
        <time>2022-05-08T07:34:30Z</time>
      </trkpt>
      <trkpt lat="38.336249" lon="-2.219908">
        <ele>635.1</ele>
        <time>2022-05-08T07:34:46Z</time>
      </trkpt>
      <trkpt lat="38.336328" lon="-2.219701">
        <ele>643.1</ele>
        <time>2022-05-08T07:39:04Z</time>
      </trkpt>
      <trkpt lat="38.336296" lon="-2.219469">
        <ele>638.5</ele>
        <time>2022-05-08T07:41:13Z</time>
      </trkpt>
      <trkpt lat="38.336335" lon="-2.219235">
        <ele>636.1</ele>
        <time>2022-05-08T07:41:32Z</time>
      </trkpt>
      <trkpt lat="38.336369" lon="-2.219006">
        <ele>634.1</ele>
        <time>2022-05-08T07:41:52Z</time>
      </trkpt>
      <trkpt lat="38.336394" lon="-2.218768">
        <ele>634.1</ele>
        <time>2022-05-08T07:42:09Z</time>
      </trkpt>
      <trkpt lat="38.336419" lon="-2.218540">
        <ele>632.2</ele>
        <time>2022-05-08T07:42:30Z</time>
      </trkpt>
      <trkpt lat="38.336435" lon="-2.218299">
        <ele>634.1</ele>
        <time>2022-05-08T07:42:47Z</time>
      </trkpt>
      <trkpt lat="38.336482" lon="-2.218066">
        <ele>634.1</ele>
        <time>2022-05-08T07:43:02Z</time>
      </trkpt>
      <trkpt lat="38.336525" lon="-2.217836">
        <ele>634.1</ele>
        <time>2022-05-08T07:43:32Z</time>
      </trkpt>
      <trkpt lat="38.336559" lon="-2.217609">
        <ele>634.2</ele>
        <time>2022-05-08T07:44:00Z</time>
      </trkpt>
      <trkpt lat="38.336598" lon="-2.217375">
        <ele>630.1</ele>
        <time>2022-05-08T07:44:18Z</time>
      </trkpt>
      <trkpt lat="38.336608" lon="-2.217135">
        <ele>630.1</ele>
        <time>2022-05-08T07:44:35Z</time>
      </trkpt>
      <trkpt lat="38.336608" lon="-2.216892">
        <ele>629.9</ele>
        <time>2022-05-08T07:44:54Z</time>
      </trkpt>
      <trkpt lat="38.336601" lon="-2.216661">
        <ele>629.1</ele>
        <time>2022-05-08T07:45:08Z</time>
      </trkpt>
      <trkpt lat="38.336568" lon="-2.216427">
        <ele>630.8</ele>
        <time>2022-05-08T07:45:23Z</time>
      </trkpt>
      <trkpt lat="38.336555" lon="-2.216192">
        <ele>633.0</ele>
        <time>2022-05-08T07:45:38Z</time>
      </trkpt>
      <trkpt lat="38.336528" lon="-2.215960">
        <ele>632.1</ele>
        <time>2022-05-08T07:45:53Z</time>
      </trkpt>
      <trkpt lat="38.336515" lon="-2.215729">
        <ele>629.4</ele>
        <time>2022-05-08T07:46:09Z</time>
      </trkpt>
      <trkpt lat="38.336506" lon="-2.215486">
        <ele>627.1</ele>
        <time>2022-05-08T07:46:25Z</time>
      </trkpt>
      <trkpt lat="38.336509" lon="-2.215243">
        <ele>626.1</ele>
        <time>2022-05-08T07:46:40Z</time>
      </trkpt>
      <trkpt lat="38.336532" lon="-2.215004">
        <ele>627.1</ele>
        <time>2022-05-08T07:46:56Z</time>
      </trkpt>
      <trkpt lat="38.336568" lon="-2.214767">
        <ele>628.1</ele>
        <time>2022-05-08T07:47:10Z</time>
      </trkpt>
      <trkpt lat="38.336619" lon="-2.214544">
        <ele>628.2</ele>
        <time>2022-05-08T07:47:25Z</time>
      </trkpt>
      <trkpt lat="38.336657" lon="-2.214305">
        <ele>629.1</ele>
        <time>2022-05-08T07:47:40Z</time>
      </trkpt>
      <trkpt lat="38.336728" lon="-2.214089">
        <ele>628.2</ele>
        <time>2022-05-08T07:47:54Z</time>
      </trkpt>
      <trkpt lat="38.336784" lon="-2.213921">
        <ele>630.9</ele>
        <time>2022-05-08T07:48:14Z</time>
      </trkpt>
      <trkpt lat="38.336787" lon="-2.213704">
        <ele>631.2</ele>
        <time>2022-05-08T07:48:52Z</time>
      </trkpt>
      <trkpt lat="38.336848" lon="-2.213484">
        <ele>629.2</ele>
        <time>2022-05-08T07:49:04Z</time>
      </trkpt>
      <trkpt lat="38.336911" lon="-2.213266">
        <ele>629.5</ele>
        <time>2022-05-08T07:49:17Z</time>
      </trkpt>
      <trkpt lat="38.336951" lon="-2.213030">
        <ele>628.2</ele>
        <time>2022-05-08T07:49:32Z</time>
      </trkpt>
      <trkpt lat="38.336975" lon="-2.212800">
        <ele>626.2</ele>
        <time>2022-05-08T07:49:46Z</time>
      </trkpt>
      <trkpt lat="38.337025" lon="-2.212563">
        <ele>634.2</ele>
        <time>2022-05-08T07:50:59Z</time>
      </trkpt>
      <trkpt lat="38.337027" lon="-2.212329">
        <ele>631.5</ele>
        <time>2022-05-08T07:51:35Z</time>
      </trkpt>
      <trkpt lat="38.336962" lon="-2.212099">
        <ele>630.2</ele>
        <time>2022-05-08T07:51:51Z</time>
      </trkpt>
      <trkpt lat="38.336963" lon="-2.211858">
        <ele>628.2</ele>
        <time>2022-05-08T07:52:05Z</time>
      </trkpt>
      <trkpt lat="38.336953" lon="-2.211625">
        <ele>626.2</ele>
        <time>2022-05-08T07:52:19Z</time>
      </trkpt>
      <trkpt lat="38.336938" lon="-2.211383">
        <ele>625.2</ele>
        <time>2022-05-08T07:52:33Z</time>
      </trkpt>
      <trkpt lat="38.336928" lon="-2.211150">
        <ele>624.5</ele>
        <time>2022-05-08T07:52:48Z</time>
      </trkpt>
      <trkpt lat="38.336912" lon="-2.210910">
        <ele>627.2</ele>
        <time>2022-05-08T07:53:05Z</time>
      </trkpt>
      <trkpt lat="38.336900" lon="-2.210670">
        <ele>626.2</ele>
        <time>2022-05-08T07:53:20Z</time>
      </trkpt>
      <trkpt lat="38.336884" lon="-2.210434">
        <ele>628.1</ele>
        <time>2022-05-08T07:53:35Z</time>
      </trkpt>
      <trkpt lat="38.336880" lon="-2.210201">
        <ele>630.9</ele>
        <time>2022-05-08T07:54:00Z</time>
      </trkpt>
      <trkpt lat="38.336904" lon="-2.209956">
        <ele>628.2</ele>
        <time>2022-05-08T07:54:14Z</time>
      </trkpt>
      <trkpt lat="38.336950" lon="-2.209718">
        <ele>628.2</ele>
        <time>2022-05-08T07:54:29Z</time>
      </trkpt>
      <trkpt lat="38.336989" lon="-2.209487">
        <ele>626.2</ele>
        <time>2022-05-08T07:54:44Z</time>
      </trkpt>
      <trkpt lat="38.337037" lon="-2.209261">
        <ele>624.2</ele>
        <time>2022-05-08T07:54:57Z</time>
      </trkpt>
      <trkpt lat="38.337091" lon="-2.209037">
        <ele>623.2</ele>
        <time>2022-05-08T07:55:12Z</time>
      </trkpt>
      <trkpt lat="38.337131" lon="-2.208805">
        <ele>624.2</ele>
        <time>2022-05-08T07:55:25Z</time>
      </trkpt>
      <trkpt lat="38.337178" lon="-2.208566">
        <ele>624.1</ele>
        <time>2022-05-08T07:55:40Z</time>
      </trkpt>
      <trkpt lat="38.337230" lon="-2.208343">
        <ele>621.2</ele>
        <time>2022-05-08T07:55:53Z</time>
      </trkpt>
      <trkpt lat="38.337274" lon="-2.208119">
        <ele>618.4</ele>
        <time>2022-05-08T07:56:08Z</time>
      </trkpt>
      <trkpt lat="38.337328" lon="-2.207898">
        <ele>616.2</ele>
        <time>2022-05-08T07:56:23Z</time>
      </trkpt>
      <trkpt lat="38.337370" lon="-2.207669">
        <ele>614.2</ele>
        <time>2022-05-08T07:56:36Z</time>
      </trkpt>
      <trkpt lat="38.337432" lon="-2.207451">
        <ele>611.2</ele>
        <time>2022-05-08T07:56:50Z</time>
      </trkpt>
      <trkpt lat="38.337462" lon="-2.207209">
        <ele>610.5</ele>
        <time>2022-05-08T07:57:05Z</time>
      </trkpt>
      <trkpt lat="38.337489" lon="-2.206976">
        <ele>615.2</ele>
        <time>2022-05-08T07:57:19Z</time>
      </trkpt>
      <trkpt lat="38.337526" lon="-2.206744">
        <ele>616.2</ele>
        <time>2022-05-08T07:57:33Z</time>
      </trkpt>
      <trkpt lat="38.337582" lon="-2.206515">
        <ele>615.3</ele>
        <time>2022-05-08T07:57:49Z</time>
      </trkpt>
      <trkpt lat="38.337626" lon="-2.206286">
        <ele>613.3</ele>
        <time>2022-05-08T07:58:03Z</time>
      </trkpt>
      <trkpt lat="38.337658" lon="-2.206053">
        <ele>610.2</ele>
        <time>2022-05-08T07:58:17Z</time>
      </trkpt>
      <trkpt lat="38.337698" lon="-2.205819">
        <ele>609.2</ele>
        <time>2022-05-08T07:58:33Z</time>
      </trkpt>
      <trkpt lat="38.337721" lon="-2.205576">
        <ele>608.9</ele>
        <time>2022-05-08T07:58:51Z</time>
      </trkpt>
      <trkpt lat="38.337633" lon="-2.205367">
        <ele>610.9</ele>
        <time>2022-05-08T07:59:21Z</time>
      </trkpt>
      <trkpt lat="38.337578" lon="-2.205139">
        <ele>611.3</ele>
        <time>2022-05-08T07:59:47Z</time>
      </trkpt>
      <trkpt lat="38.337509" lon="-2.204923">
        <ele>611.2</ele>
        <time>2022-05-08T08:00:16Z</time>
      </trkpt>
      <trkpt lat="38.337422" lon="-2.204716">
        <ele>610.1</ele>
        <time>2022-05-08T08:00:58Z</time>
      </trkpt>
      <trkpt lat="38.337261" lon="-2.204589">
        <ele>618.2</ele>
        <time>2022-05-08T08:01:25Z</time>
      </trkpt>
      <trkpt lat="38.337147" lon="-2.204404">
        <ele>617.2</ele>
        <time>2022-05-08T08:02:16Z</time>
      </trkpt>
      <trkpt lat="38.336983" lon="-2.204310">
        <ele>618.2</ele>
        <time>2022-05-08T08:02:28Z</time>
      </trkpt>
      <trkpt lat="38.336814" lon="-2.204215">
        <ele>620.9</ele>
        <time>2022-05-08T08:02:41Z</time>
      </trkpt>
      <trkpt lat="38.336679" lon="-2.204042">
        <ele>622.2</ele>
        <time>2022-05-08T08:02:54Z</time>
      </trkpt>
      <trkpt lat="38.336563" lon="-2.203867">
        <ele>623.2</ele>
        <time>2022-05-08T08:03:06Z</time>
      </trkpt>
      <trkpt lat="38.336429" lon="-2.203698">
        <ele>621.2</ele>
        <time>2022-05-08T08:03:20Z</time>
      </trkpt>
      <trkpt lat="38.336356" lon="-2.203480">
        <ele>622.2</ele>
        <time>2022-05-08T08:03:34Z</time>
      </trkpt>
      <trkpt lat="38.336326" lon="-2.203251">
        <ele>622.5</ele>
        <time>2022-05-08T08:03:47Z</time>
      </trkpt>
      <trkpt lat="38.336332" lon="-2.203020">
        <ele>624.2</ele>
        <time>2022-05-08T08:04:00Z</time>
      </trkpt>
      <trkpt lat="38.336313" lon="-2.202778">
        <ele>627.1</ele>
        <time>2022-05-08T08:04:17Z</time>
      </trkpt>
      <trkpt lat="38.336224" lon="-2.202564">
        <ele>629.2</ele>
        <time>2022-05-08T08:04:31Z</time>
      </trkpt>
      <trkpt lat="38.336192" lon="-2.202330">
        <ele>631.9</ele>
        <time>2022-05-08T08:04:52Z</time>
      </trkpt>
      <trkpt lat="38.336056" lon="-2.202165">
        <ele>633.2</ele>
        <time>2022-05-08T08:05:06Z</time>
      </trkpt>
      <trkpt lat="38.335953" lon="-2.201968">
        <ele>632.2</ele>
        <time>2022-05-08T08:05:18Z</time>
      </trkpt>
      <trkpt lat="38.335910" lon="-2.201739">
        <ele>634.4</ele>
        <time>2022-05-08T08:05:43Z</time>
      </trkpt>
      <trkpt lat="38.335893" lon="-2.201498">
        <ele>636.2</ele>
        <time>2022-05-08T08:05:59Z</time>
      </trkpt>
      <trkpt lat="38.335885" lon="-2.201268">
        <ele>633.5</ele>
        <time>2022-05-08T08:06:16Z</time>
      </trkpt>
      <trkpt lat="38.335911" lon="-2.201037">
        <ele>634.2</ele>
        <time>2022-05-08T08:06:33Z</time>
      </trkpt>
      <trkpt lat="38.335977" lon="-2.200809">
        <ele>637.1</ele>
        <time>2022-05-08T08:06:49Z</time>
      </trkpt>
      <trkpt lat="38.336042" lon="-2.200591">
        <ele>640.2</ele>
        <time>2022-05-08T08:07:05Z</time>
      </trkpt>
      <trkpt lat="38.336095" lon="-2.200368">
        <ele>644.1</ele>
        <time>2022-05-08T08:07:22Z</time>
      </trkpt>
      <trkpt lat="38.336161" lon="-2.200152">
        <ele>646.2</ele>
        <time>2022-05-08T08:07:37Z</time>
      </trkpt>
      <trkpt lat="38.336261" lon="-2.199945">
        <ele>649.2</ele>
        <time>2022-05-08T08:07:53Z</time>
      </trkpt>
      <trkpt lat="38.336373" lon="-2.199752">
        <ele>649.2</ele>
        <time>2022-05-08T08:08:09Z</time>
      </trkpt>
      <trkpt lat="38.336462" lon="-2.199549">
        <ele>652.1</ele>
        <time>2022-05-08T08:08:25Z</time>
      </trkpt>
      <trkpt lat="38.336514" lon="-2.199322">
        <ele>654.4</ele>
        <time>2022-05-08T08:08:40Z</time>
      </trkpt>
      <trkpt lat="38.336551" lon="-2.199084">
        <ele>656.4</ele>
        <time>2022-05-08T08:08:55Z</time>
      </trkpt>
      <trkpt lat="38.336555" lon="-2.198850">
        <ele>658.2</ele>
        <time>2022-05-08T08:09:10Z</time>
      </trkpt>
      <trkpt lat="38.336551" lon="-2.198615">
        <ele>660.2</ele>
        <time>2022-05-08T08:09:26Z</time>
      </trkpt>
      <trkpt lat="38.336550" lon="-2.198385">
        <ele>661.0</ele>
        <time>2022-05-08T08:09:43Z</time>
      </trkpt>
      <trkpt lat="38.336556" lon="-2.198150">
        <ele>660.2</ele>
        <time>2022-05-08T08:09:59Z</time>
      </trkpt>
      <trkpt lat="38.336576" lon="-2.197915">
        <ele>660.2</ele>
        <time>2022-05-08T08:12:23Z</time>
      </trkpt>
      <trkpt lat="38.336600" lon="-2.197683">
        <ele>661.2</ele>
        <time>2022-05-08T08:12:36Z</time>
      </trkpt>
      <trkpt lat="38.336632" lon="-2.197439">
        <ele>660.3</ele>
        <time>2022-05-08T08:12:50Z</time>
      </trkpt>
      <trkpt lat="38.336713" lon="-2.197221">
        <ele>660.2</ele>
        <time>2022-05-08T08:13:05Z</time>
      </trkpt>
      <trkpt lat="38.336750" lon="-2.196989">
        <ele>661.2</ele>
        <time>2022-05-08T08:13:19Z</time>
      </trkpt>
      <trkpt lat="38.336794" lon="-2.196764">
        <ele>662.2</ele>
        <time>2022-05-08T08:13:33Z</time>
      </trkpt>
      <trkpt lat="38.336829" lon="-2.196526">
        <ele>661.2</ele>
        <time>2022-05-08T08:13:46Z</time>
      </trkpt>
      <trkpt lat="38.336861" lon="-2.196289">
        <ele>660.2</ele>
        <time>2022-05-08T08:13:59Z</time>
      </trkpt>
      <trkpt lat="38.336926" lon="-2.196058">
        <ele>662.1</ele>
        <time>2022-05-08T08:14:12Z</time>
      </trkpt>
      <trkpt lat="38.337015" lon="-2.195842">
        <ele>660.5</ele>
        <time>2022-05-08T08:14:26Z</time>
      </trkpt>
      <trkpt lat="38.337112" lon="-2.195642">
        <ele>660.2</ele>
        <time>2022-05-08T08:14:40Z</time>
      </trkpt>
      <trkpt lat="38.337210" lon="-2.195435">
        <ele>660.2</ele>
        <time>2022-05-08T08:14:52Z</time>
      </trkpt>
      <trkpt lat="38.337330" lon="-2.195251">
        <ele>660.2</ele>
        <time>2022-05-08T08:15:05Z</time>
      </trkpt>
      <trkpt lat="38.337413" lon="-2.195031">
        <ele>659.3</ele>
        <time>2022-05-08T08:15:19Z</time>
      </trkpt>
      <trkpt lat="38.337516" lon="-2.194832">
        <ele>657.3</ele>
        <time>2022-05-08T08:15:32Z</time>
      </trkpt>
      <trkpt lat="38.337622" lon="-2.194639">
        <ele>656.2</ele>
        <time>2022-05-08T08:15:45Z</time>
      </trkpt>
      <trkpt lat="38.337729" lon="-2.194446">
        <ele>656.2</ele>
        <time>2022-05-08T08:15:58Z</time>
      </trkpt>
      <trkpt lat="38.337836" lon="-2.194254">
        <ele>657.3</ele>
        <time>2022-05-08T08:16:40Z</time>
      </trkpt>
      <trkpt lat="38.337930" lon="-2.194055">
        <ele>657.2</ele>
        <time>2022-05-08T08:17:04Z</time>
      </trkpt>
      <trkpt lat="38.338071" lon="-2.193905">
        <ele>657.5</ele>
        <time>2022-05-08T08:17:30Z</time>
      </trkpt>
      <trkpt lat="38.338120" lon="-2.193668">
        <ele>656.2</ele>
        <time>2022-05-08T08:17:45Z</time>
      </trkpt>
      <trkpt lat="38.338179" lon="-2.193439">
        <ele>656.2</ele>
        <time>2022-05-08T08:18:01Z</time>
      </trkpt>
      <trkpt lat="38.338267" lon="-2.193233">
        <ele>658.2</ele>
        <time>2022-05-08T08:18:31Z</time>
      </trkpt>
      <trkpt lat="38.338298" lon="-2.192990">
        <ele>656.2</ele>
        <time>2022-05-08T08:18:45Z</time>
      </trkpt>
      <trkpt lat="38.338348" lon="-2.192767">
        <ele>655.9</ele>
        <time>2022-05-08T08:18:59Z</time>
      </trkpt>
      <trkpt lat="38.338347" lon="-2.192532">
        <ele>656.1</ele>
        <time>2022-05-08T08:19:12Z</time>
      </trkpt>
      <trkpt lat="38.338389" lon="-2.192309">
        <ele>656.2</ele>
        <time>2022-05-08T08:19:25Z</time>
      </trkpt>
      <trkpt lat="38.338411" lon="-2.192074">
        <ele>655.2</ele>
        <time>2022-05-08T08:19:37Z</time>
      </trkpt>
      <trkpt lat="38.338485" lon="-2.191852">
        <ele>657.2</ele>
        <time>2022-05-08T08:19:50Z</time>
      </trkpt>
      <trkpt lat="38.338585" lon="-2.191646">
        <ele>661.2</ele>
        <time>2022-05-08T08:20:18Z</time>
      </trkpt>
      <trkpt lat="38.338700" lon="-2.191466">
        <ele>656.2</ele>
        <time>2022-05-08T08:22:48Z</time>
      </trkpt>
      <trkpt lat="38.338787" lon="-2.191257">
        <ele>662.2</ele>
        <time>2022-05-08T08:24:16Z</time>
      </trkpt>
      <trkpt lat="38.338900" lon="-2.191070">
        <ele>661.2</ele>
        <time>2022-05-08T08:24:29Z</time>
      </trkpt>
      <trkpt lat="38.339037" lon="-2.190898">
        <ele>659.2</ele>
        <time>2022-05-08T08:24:42Z</time>
      </trkpt>
      <trkpt lat="38.339176" lon="-2.190730">
        <ele>659.2</ele>
        <time>2022-05-08T08:24:55Z</time>
      </trkpt>
      <trkpt lat="38.339310" lon="-2.190577">
        <ele>661.2</ele>
        <time>2022-05-08T08:25:15Z</time>
      </trkpt>
      <trkpt lat="38.339448" lon="-2.190424">
        <ele>664.1</ele>
        <time>2022-05-08T08:25:28Z</time>
      </trkpt>
      <trkpt lat="38.339592" lon="-2.190276">
        <ele>665.2</ele>
        <time>2022-05-08T08:25:41Z</time>
      </trkpt>
      <trkpt lat="38.339724" lon="-2.190100">
        <ele>667.2</ele>
        <time>2022-05-08T08:25:54Z</time>
      </trkpt>
      <trkpt lat="38.339892" lon="-2.189991">
        <ele>668.1</ele>
        <time>2022-05-08T08:26:06Z</time>
      </trkpt>
      <trkpt lat="38.340071" lon="-2.189915">
        <ele>669.2</ele>
        <time>2022-05-08T08:26:19Z</time>
      </trkpt>
      <trkpt lat="38.340255" lon="-2.189867">
        <ele>671.2</ele>
        <time>2022-05-08T08:26:32Z</time>
      </trkpt>
      <trkpt lat="38.340424" lon="-2.189757">
        <ele>674.2</ele>
        <time>2022-05-08T08:26:46Z</time>
      </trkpt>
      <trkpt lat="38.340592" lon="-2.189664">
        <ele>672.2</ele>
        <time>2022-05-08T08:27:46Z</time>
      </trkpt>
      <trkpt lat="38.340731" lon="-2.189497">
        <ele>666.5</ele>
        <time>2022-05-08T08:28:02Z</time>
      </trkpt>
      <trkpt lat="38.340870" lon="-2.189340">
        <ele>670.1</ele>
        <time>2022-05-08T08:28:13Z</time>
      </trkpt>
      <trkpt lat="38.341004" lon="-2.189158">
        <ele>673.1</ele>
        <time>2022-05-08T08:28:25Z</time>
      </trkpt>
      <trkpt lat="38.341080" lon="-2.188947">
        <ele>677.2</ele>
        <time>2022-05-08T08:28:38Z</time>
      </trkpt>
      <trkpt lat="38.341224" lon="-2.188798">
        <ele>676.0</ele>
        <time>2022-05-08T08:29:04Z</time>
      </trkpt>
      <trkpt lat="38.341328" lon="-2.188599">
        <ele>680.2</ele>
        <time>2022-05-08T08:30:21Z</time>
      </trkpt>
      <trkpt lat="38.341406" lon="-2.188377">
        <ele>682.3</ele>
        <time>2022-05-08T08:31:27Z</time>
      </trkpt>
      <trkpt lat="38.341490" lon="-2.188169">
        <ele>681.9</ele>
        <time>2022-05-08T08:31:42Z</time>
      </trkpt>
      <trkpt lat="38.341578" lon="-2.187952">
        <ele>682.2</ele>
        <time>2022-05-08T08:31:55Z</time>
      </trkpt>
      <trkpt lat="38.341655" lon="-2.187731">
        <ele>680.2</ele>
        <time>2022-05-08T08:32:09Z</time>
      </trkpt>
      <trkpt lat="38.341708" lon="-2.187511">
        <ele>681.2</ele>
        <time>2022-05-08T08:32:22Z</time>
      </trkpt>
      <trkpt lat="38.341697" lon="-2.187265">
        <ele>682.2</ele>
        <time>2022-05-08T08:32:36Z</time>
      </trkpt>
      <trkpt lat="38.341665" lon="-2.187036">
        <ele>683.2</ele>
        <time>2022-05-08T08:32:49Z</time>
      </trkpt>
      <trkpt lat="38.341602" lon="-2.186820">
        <ele>681.2</ele>
        <time>2022-05-08T08:33:10Z</time>
      </trkpt>
      <trkpt lat="38.341617" lon="-2.186583">
        <ele>679.3</ele>
        <time>2022-05-08T08:33:35Z</time>
      </trkpt>
      <trkpt lat="38.341670" lon="-2.186352">
        <ele>678.2</ele>
        <time>2022-05-08T08:33:48Z</time>
      </trkpt>
      <trkpt lat="38.341734" lon="-2.186123">
        <ele>679.2</ele>
        <time>2022-05-08T08:34:11Z</time>
      </trkpt>
      <trkpt lat="38.341804" lon="-2.185900">
        <ele>677.3</ele>
        <time>2022-05-08T08:34:37Z</time>
      </trkpt>
      <trkpt lat="38.341903" lon="-2.185697">
        <ele>678.3</ele>
        <time>2022-05-08T08:34:55Z</time>
      </trkpt>
      <trkpt lat="38.341939" lon="-2.185455">
        <ele>679.5</ele>
        <time>2022-05-08T08:35:11Z</time>
      </trkpt>
      <trkpt lat="38.341945" lon="-2.185216">
        <ele>679.2</ele>
        <time>2022-05-08T08:35:30Z</time>
      </trkpt>
      <trkpt lat="38.341962" lon="-2.184986">
        <ele>680.2</ele>
        <time>2022-05-08T08:35:45Z</time>
      </trkpt>
      <trkpt lat="38.341998" lon="-2.184760">
        <ele>679.2</ele>
        <time>2022-05-08T08:36:08Z</time>
      </trkpt>
      <trkpt lat="38.342118" lon="-2.184576">
        <ele>680.2</ele>
        <time>2022-05-08T08:36:21Z</time>
      </trkpt>
      <trkpt lat="38.342223" lon="-2.184373">
        <ele>680.3</ele>
        <time>2022-05-08T08:36:34Z</time>
      </trkpt>
      <trkpt lat="38.342213" lon="-2.184135">
        <ele>678.3</ele>
        <time>2022-05-08T08:36:47Z</time>
      </trkpt>
      <trkpt lat="38.342286" lon="-2.183919">
        <ele>677.3</ele>
        <time>2022-05-08T08:37:00Z</time>
      </trkpt>
      <trkpt lat="38.342404" lon="-2.183741">
        <ele>678.3</ele>
        <time>2022-05-08T08:37:17Z</time>
      </trkpt>
      <trkpt lat="38.342471" lon="-2.183513">
        <ele>681.3</ele>
        <time>2022-05-08T08:37:49Z</time>
      </trkpt>
      <trkpt lat="38.342484" lon="-2.183283">
        <ele>679.0</ele>
        <time>2022-05-08T08:38:06Z</time>
      </trkpt>
      <trkpt lat="38.342524" lon="-2.183046">
        <ele>677.3</ele>
        <time>2022-05-08T08:38:36Z</time>
      </trkpt>
      <trkpt lat="38.342530" lon="-2.182816">
        <ele>673.6</ele>
        <time>2022-05-08T08:39:08Z</time>
      </trkpt>
      <trkpt lat="38.342460" lon="-2.182601">
        <ele>670.6</ele>
        <time>2022-05-08T08:39:54Z</time>
      </trkpt>
      <trkpt lat="38.342487" lon="-2.182482">
        <ele>672.3</ele>
        <time>2022-05-08T08:40:37Z</time>
      </trkpt>
      <trkpt lat="38.342600" lon="-2.182266">
        <ele>670.3</ele>
        <time>2022-05-08T08:42:23Z</time>
      </trkpt>
      <trkpt lat="38.342724" lon="-2.182081">
        <ele>674.2</ele>
        <time>2022-05-08T08:43:04Z</time>
      </trkpt>
      <trkpt lat="38.342802" lon="-2.181860">
        <ele>680.0</ele>
        <time>2022-05-08T08:43:22Z</time>
      </trkpt>
      <trkpt lat="38.342835" lon="-2.181617">
        <ele>681.2</ele>
        <time>2022-05-08T08:43:42Z</time>
      </trkpt>
      <trkpt lat="38.342857" lon="-2.181389">
        <ele>684.3</ele>
        <time>2022-05-08T08:46:12Z</time>
      </trkpt>
      <trkpt lat="38.342802" lon="-2.181148">
        <ele>687.0</ele>
        <time>2022-05-08T08:46:28Z</time>
      </trkpt>
      <trkpt lat="38.342731" lon="-2.180938">
        <ele>687.3</ele>
        <time>2022-05-08T08:46:42Z</time>
      </trkpt>
      <trkpt lat="38.342684" lon="-2.180706">
        <ele>688.3</ele>
        <time>2022-05-08T08:46:56Z</time>
      </trkpt>
      <trkpt lat="38.342711" lon="-2.180476">
        <ele>688.0</ele>
        <time>2022-05-08T08:47:09Z</time>
      </trkpt>
      <trkpt lat="38.342683" lon="-2.180244">
        <ele>690.2</ele>
        <time>2022-05-08T08:47:23Z</time>
      </trkpt>
      <trkpt lat="38.342684" lon="-2.180011">
        <ele>688.4</ele>
        <time>2022-05-08T08:47:37Z</time>
      </trkpt>
      <trkpt lat="38.342757" lon="-2.179796">
        <ele>689.3</ele>
        <time>2022-05-08T08:47:50Z</time>
      </trkpt>
      <trkpt lat="38.342826" lon="-2.179568">
        <ele>694.0</ele>
        <time>2022-05-08T08:48:07Z</time>
      </trkpt>
      <trkpt lat="38.342896" lon="-2.179350">
        <ele>695.6</ele>
        <time>2022-05-08T08:48:24Z</time>
      </trkpt>
      <trkpt lat="38.342962" lon="-2.179132">
        <ele>695.3</ele>
        <time>2022-05-08T08:48:42Z</time>
      </trkpt>
      <trkpt lat="38.343027" lon="-2.178914">
        <ele>698.2</ele>
        <time>2022-05-08T08:48:56Z</time>
      </trkpt>
      <trkpt lat="38.343135" lon="-2.178716">
        <ele>699.3</ele>
        <time>2022-05-08T08:49:10Z</time>
      </trkpt>
      <trkpt lat="38.343276" lon="-2.178562">
        <ele>700.3</ele>
        <time>2022-05-08T08:49:24Z</time>
      </trkpt>
      <trkpt lat="38.343415" lon="-2.178409">
        <ele>702.2</ele>
        <time>2022-05-08T08:49:38Z</time>
      </trkpt>
      <trkpt lat="38.343607" lon="-2.178412">
        <ele>708.3</ele>
        <time>2022-05-08T08:50:29Z</time>
      </trkpt>
      <trkpt lat="38.343784" lon="-2.178470">
        <ele>707.4</ele>
        <time>2022-05-08T08:51:33Z</time>
      </trkpt>
      <trkpt lat="38.343942" lon="-2.178588">
        <ele>700.3</ele>
        <time>2022-05-08T09:25:53Z</time>
      </trkpt>
      <trkpt lat="38.344123" lon="-2.178574">
        <ele>703.3</ele>
        <time>2022-05-08T09:26:19Z</time>
      </trkpt>
      <trkpt lat="38.344307" lon="-2.178490">
        <ele>700.4</ele>
        <time>2022-05-08T09:26:42Z</time>
      </trkpt>
      <trkpt lat="38.344476" lon="-2.178399">
        <ele>699.3</ele>
        <time>2022-05-08T09:26:57Z</time>
      </trkpt>
      <trkpt lat="38.344656" lon="-2.178353">
        <ele>699.1</ele>
        <time>2022-05-08T09:27:20Z</time>
      </trkpt>
      <trkpt lat="38.344830" lon="-2.178288">
        <ele>703.0</ele>
        <time>2022-05-08T09:28:13Z</time>
      </trkpt>
      <trkpt lat="38.345014" lon="-2.178258">
        <ele>704.3</ele>
        <time>2022-05-08T09:28:28Z</time>
      </trkpt>
      <trkpt lat="38.345191" lon="-2.178210">
        <ele>703.6</ele>
        <time>2022-05-08T09:28:42Z</time>
      </trkpt>
      <trkpt lat="38.345351" lon="-2.178092">
        <ele>706.3</ele>
        <time>2022-05-08T09:28:58Z</time>
      </trkpt>
      <trkpt lat="38.345475" lon="-2.177907">
        <ele>706.3</ele>
        <time>2022-05-08T09:29:19Z</time>
      </trkpt>
      <trkpt lat="38.345605" lon="-2.177740">
        <ele>709.3</ele>
        <time>2022-05-08T09:29:35Z</time>
      </trkpt>
      <trkpt lat="38.345730" lon="-2.177565">
        <ele>709.3</ele>
        <time>2022-05-08T09:29:51Z</time>
      </trkpt>
      <trkpt lat="38.345850" lon="-2.177387">
        <ele>712.2</ele>
        <time>2022-05-08T09:30:07Z</time>
      </trkpt>
      <trkpt lat="38.345976" lon="-2.177220">
        <ele>715.3</ele>
        <time>2022-05-08T09:30:24Z</time>
      </trkpt>
      <trkpt lat="38.346099" lon="-2.177036">
        <ele>717.0</ele>
        <time>2022-05-08T09:30:41Z</time>
      </trkpt>
      <trkpt lat="38.346231" lon="-2.176871">
        <ele>718.3</ele>
        <time>2022-05-08T09:30:57Z</time>
      </trkpt>
      <trkpt lat="38.346353" lon="-2.176697">
        <ele>719.6</ele>
        <time>2022-05-08T09:31:13Z</time>
      </trkpt>
      <trkpt lat="38.346471" lon="-2.176514">
        <ele>720.3</ele>
        <time>2022-05-08T09:31:29Z</time>
      </trkpt>
      <trkpt lat="38.346599" lon="-2.176335">
        <ele>721.3</ele>
        <time>2022-05-08T09:31:45Z</time>
      </trkpt>
      <trkpt lat="38.346731" lon="-2.176178">
        <ele>723.3</ele>
        <time>2022-05-08T09:31:59Z</time>
      </trkpt>
      <trkpt lat="38.346871" lon="-2.176026">
        <ele>723.3</ele>
        <time>2022-05-08T09:32:14Z</time>
      </trkpt>
      <trkpt lat="38.347005" lon="-2.175869">
        <ele>724.3</ele>
        <time>2022-05-08T09:32:28Z</time>
      </trkpt>
      <trkpt lat="38.347140" lon="-2.175698">
        <ele>723.3</ele>
        <time>2022-05-08T09:32:42Z</time>
      </trkpt>
      <trkpt lat="38.347287" lon="-2.175537">
        <ele>725.3</ele>
        <time>2022-05-08T09:32:57Z</time>
      </trkpt>
      <trkpt lat="38.347423" lon="-2.175377">
        <ele>725.3</ele>
        <time>2022-05-08T09:33:11Z</time>
      </trkpt>
      <trkpt lat="38.347557" lon="-2.175216">
        <ele>726.3</ele>
        <time>2022-05-08T09:33:25Z</time>
      </trkpt>
      <trkpt lat="38.347656" lon="-2.175014">
        <ele>727.3</ele>
        <time>2022-05-08T09:33:38Z</time>
      </trkpt>
      <trkpt lat="38.347748" lon="-2.174811">
        <ele>728.3</ele>
        <time>2022-05-08T09:34:19Z</time>
      </trkpt>
      <trkpt lat="38.347847" lon="-2.174615">
        <ele>730.2</ele>
        <time>2022-05-08T09:34:33Z</time>
      </trkpt>
      <trkpt lat="38.347939" lon="-2.174402">
        <ele>729.3</ele>
        <time>2022-05-08T09:34:49Z</time>
      </trkpt>
      <trkpt lat="38.348067" lon="-2.174216">
        <ele>729.3</ele>
        <time>2022-05-08T09:35:02Z</time>
      </trkpt>
      <trkpt lat="38.348150" lon="-2.173999">
        <ele>733.3</ele>
        <time>2022-05-08T09:35:29Z</time>
      </trkpt>
      <trkpt lat="38.348136" lon="-2.173758">
        <ele>734.3</ele>
        <time>2022-05-08T09:35:43Z</time>
      </trkpt>
      <trkpt lat="38.348114" lon="-2.173516">
        <ele>735.3</ele>
        <time>2022-05-08T09:35:56Z</time>
      </trkpt>
      <trkpt lat="38.348117" lon="-2.173284">
        <ele>735.3</ele>
        <time>2022-05-08T09:36:08Z</time>
      </trkpt>
      <trkpt lat="38.348177" lon="-2.173062">
        <ele>734.3</ele>
        <time>2022-05-08T09:36:39Z</time>
      </trkpt>
      <trkpt lat="38.348272" lon="-2.172859">
        <ele>736.2</ele>
        <time>2022-05-08T09:36:52Z</time>
      </trkpt>
      <trkpt lat="38.348379" lon="-2.172674">
        <ele>737.0</ele>
        <time>2022-05-08T09:37:04Z</time>
      </trkpt>
      <trkpt lat="38.348513" lon="-2.172503">
        <ele>737.2</ele>
        <time>2022-05-08T09:37:19Z</time>
      </trkpt>
      <trkpt lat="38.348629" lon="-2.172314">
        <ele>734.0</ele>
        <time>2022-05-08T09:38:20Z</time>
      </trkpt>
      <trkpt lat="38.348742" lon="-2.172127">
        <ele>734.3</ele>
        <time>2022-05-08T09:38:37Z</time>
      </trkpt>
      <trkpt lat="38.348861" lon="-2.171937">
        <ele>733.4</ele>
        <time>2022-05-08T09:39:19Z</time>
      </trkpt>
      <trkpt lat="38.348977" lon="-2.171738">
        <ele>734.3</ele>
        <time>2022-05-08T09:39:32Z</time>
      </trkpt>
      <trkpt lat="38.349096" lon="-2.171551">
        <ele>733.3</ele>
        <time>2022-05-08T09:39:45Z</time>
      </trkpt>
      <trkpt lat="38.349194" lon="-2.171354">
        <ele>735.3</ele>
        <time>2022-05-08T09:39:57Z</time>
      </trkpt>
      <trkpt lat="38.349314" lon="-2.171174">
        <ele>736.3</ele>
        <time>2022-05-08T09:40:11Z</time>
      </trkpt>
      <trkpt lat="38.349426" lon="-2.170991">
        <ele>739.5</ele>
        <time>2022-05-08T09:40:25Z</time>
      </trkpt>
      <trkpt lat="38.349506" lon="-2.170773">
        <ele>738.3</ele>
        <time>2022-05-08T09:40:39Z</time>
      </trkpt>
      <trkpt lat="38.349602" lon="-2.170566">
        <ele>739.3</ele>
        <time>2022-05-08T09:40:54Z</time>
      </trkpt>
      <trkpt lat="38.349689" lon="-2.170361">
        <ele>739.0</ele>
        <time>2022-05-08T09:41:09Z</time>
      </trkpt>
      <trkpt lat="38.349805" lon="-2.170177">
        <ele>738.3</ele>
        <time>2022-05-08T09:41:24Z</time>
      </trkpt>
      <trkpt lat="38.349855" lon="-2.169951">
        <ele>736.3</ele>
        <time>2022-05-08T09:41:43Z</time>
      </trkpt>
      <trkpt lat="38.349928" lon="-2.169739">
        <ele>737.1</ele>
        <time>2022-05-08T09:42:08Z</time>
      </trkpt>
      <trkpt lat="38.349983" lon="-2.169516">
        <ele>741.0</ele>
        <time>2022-05-08T09:42:20Z</time>
      </trkpt>
      <trkpt lat="38.350091" lon="-2.169313">
        <ele>740.3</ele>
        <time>2022-05-08T09:43:16Z</time>
      </trkpt>
      <trkpt lat="38.350192" lon="-2.169115">
        <ele>741.3</ele>
        <time>2022-05-08T09:43:29Z</time>
      </trkpt>
      <trkpt lat="38.350303" lon="-2.168918">
        <ele>740.5</ele>
        <time>2022-05-08T09:43:43Z</time>
      </trkpt>
      <trkpt lat="38.350422" lon="-2.168740">
        <ele>738.6</ele>
        <time>2022-05-08T09:43:59Z</time>
      </trkpt>
      <trkpt lat="38.350541" lon="-2.168550">
        <ele>739.3</ele>
        <time>2022-05-08T09:44:16Z</time>
      </trkpt>
      <trkpt lat="38.350656" lon="-2.168356">
        <ele>738.3</ele>
        <time>2022-05-08T09:44:32Z</time>
      </trkpt>
      <trkpt lat="38.350791" lon="-2.168193">
        <ele>736.4</ele>
        <time>2022-05-08T09:44:48Z</time>
      </trkpt>
      <trkpt lat="38.350919" lon="-2.168031">
        <ele>738.3</ele>
        <time>2022-05-08T09:45:35Z</time>
      </trkpt>
      <trkpt lat="38.350918" lon="-2.167760">
        <ele>735.3</ele>
        <time>2022-05-08T09:46:08Z</time>
      </trkpt>
      <trkpt lat="38.350938" lon="-2.167526">
        <ele>736.5</ele>
        <time>2022-05-08T09:46:25Z</time>
      </trkpt>
      <trkpt lat="38.350943" lon="-2.167285">
        <ele>731.4</ele>
        <time>2022-05-08T09:46:42Z</time>
      </trkpt>
      <trkpt lat="38.350911" lon="-2.167054">
        <ele>729.3</ele>
        <time>2022-05-08T09:46:56Z</time>
      </trkpt>
      <trkpt lat="38.350938" lon="-2.166816">
        <ele>729.5</ele>
        <time>2022-05-08T09:47:12Z</time>
      </trkpt>
      <trkpt lat="38.350986" lon="-2.166594">
        <ele>729.3</ele>
        <time>2022-05-08T09:47:29Z</time>
      </trkpt>
      <trkpt lat="38.351034" lon="-2.166372">
        <ele>728.6</ele>
        <time>2022-05-08T09:47:44Z</time>
      </trkpt>
      <trkpt lat="38.351097" lon="-2.166152">
        <ele>729.3</ele>
        <time>2022-05-08T09:47:58Z</time>
      </trkpt>
      <trkpt lat="38.351013" lon="-2.165932">
        <ele>724.4</ele>
        <time>2022-05-08T09:48:14Z</time>
      </trkpt>
      <trkpt lat="38.351068" lon="-2.165701">
        <ele>728.2</ele>
        <time>2022-05-08T09:48:30Z</time>
      </trkpt>
      <trkpt lat="38.351162" lon="-2.165505">
        <ele>730.3</ele>
        <time>2022-05-08T09:48:46Z</time>
      </trkpt>
      <trkpt lat="38.351205" lon="-2.165272">
        <ele>731.3</ele>
        <time>2022-05-08T09:49:06Z</time>
      </trkpt>
      <trkpt lat="38.351159" lon="-2.165042">
        <ele>729.7</ele>
        <time>2022-05-08T09:49:20Z</time>
      </trkpt>
      <trkpt lat="38.351199" lon="-2.164809">
        <ele>731.0</ele>
        <time>2022-05-08T09:49:38Z</time>
      </trkpt>
      <trkpt lat="38.351219" lon="-2.164575">
        <ele>735.0</ele>
        <time>2022-05-08T09:49:55Z</time>
      </trkpt>
      <trkpt lat="38.351226" lon="-2.164339">
        <ele>737.3</ele>
        <time>2022-05-08T09:50:09Z</time>
      </trkpt>
      <trkpt lat="38.351173" lon="-2.164111">
        <ele>737.4</ele>
        <time>2022-05-08T09:50:25Z</time>
      </trkpt>
      <trkpt lat="38.351153" lon="-2.163868">
        <ele>740.4</ele>
        <time>2022-05-08T09:50:41Z</time>
      </trkpt>
      <trkpt lat="38.351136" lon="-2.163619">
        <ele>741.0</ele>
        <time>2022-05-08T09:50:57Z</time>
      </trkpt>
      <trkpt lat="38.351103" lon="-2.163386">
        <ele>739.6</ele>
        <time>2022-05-08T09:51:14Z</time>
      </trkpt>
      <trkpt lat="38.351083" lon="-2.163233">
        <ele>739.3</ele>
        <time>2022-05-08T09:51:33Z</time>
      </trkpt>
      <trkpt lat="38.351379" lon="-2.163170">
        <ele>738.3</ele>
        <time>2022-05-08T09:52:06Z</time>
      </trkpt>
      <trkpt lat="38.351517" lon="-2.163117">
        <ele>737.3</ele>
        <time>2022-05-08T09:52:21Z</time>
      </trkpt>
      <trkpt lat="38.351700" lon="-2.163078">
        <ele>735.7</ele>
        <time>2022-05-08T09:52:36Z</time>
      </trkpt>
      <trkpt lat="38.351860" lon="-2.163062">
        <ele>733.3</ele>
        <time>2022-05-08T09:52:51Z</time>
      </trkpt>
      <trkpt lat="38.352038" lon="-2.163097">
        <ele>732.3</ele>
        <time>2022-05-08T09:53:05Z</time>
      </trkpt>
      <trkpt lat="38.352207" lon="-2.163213">
        <ele>731.3</ele>
        <time>2022-05-08T09:53:20Z</time>
      </trkpt>
      <trkpt lat="38.352388" lon="-2.163300">
        <ele>733.3</ele>
        <time>2022-05-08T09:53:38Z</time>
      </trkpt>
      <trkpt lat="38.352556" lon="-2.163389">
        <ele>728.7</ele>
        <time>2022-05-08T09:53:56Z</time>
      </trkpt>
      <trkpt lat="38.352733" lon="-2.163354">
        <ele>726.3</ele>
        <time>2022-05-08T09:54:19Z</time>
      </trkpt>
      <trkpt lat="38.352924" lon="-2.163429">
        <ele>723.3</ele>
        <time>2022-05-08T09:54:54Z</time>
      </trkpt>
      <trkpt lat="38.353212" lon="-2.163389">
        <ele>720.4</ele>
        <time>2022-05-08T09:55:16Z</time>
      </trkpt>
      <trkpt lat="38.353227" lon="-2.163124">
        <ele>720.0</ele>
        <time>2022-05-08T09:55:34Z</time>
      </trkpt>
      <trkpt lat="38.353366" lon="-2.162958">
        <ele>718.3</ele>
        <time>2022-05-08T09:56:08Z</time>
      </trkpt>
      <trkpt lat="38.353536" lon="-2.162816">
        <ele>722.1</ele>
        <time>2022-05-08T09:56:21Z</time>
      </trkpt>
      <trkpt lat="38.353700" lon="-2.162567">
        <ele>721.1</ele>
        <time>2022-05-08T09:56:35Z</time>
      </trkpt>
      <trkpt lat="38.353579" lon="-2.162500">
        <ele>709.5</ele>
        <time>2022-05-08T09:57:41Z</time>
      </trkpt>
      <trkpt lat="38.353440" lon="-2.162355">
        <ele>708.1</ele>
        <time>2022-05-08T09:57:56Z</time>
      </trkpt>
      <trkpt lat="38.353300" lon="-2.162207">
        <ele>713.2</ele>
        <time>2022-05-08T09:58:10Z</time>
      </trkpt>
      <trkpt lat="38.353129" lon="-2.162057">
        <ele>717.3</ele>
        <time>2022-05-08T09:58:24Z</time>
      </trkpt>
      <trkpt lat="38.353176" lon="-2.161775">
        <ele>717.1</ele>
        <time>2022-05-08T09:58:43Z</time>
      </trkpt>
      <trkpt lat="38.353312" lon="-2.161618">
        <ele>717.3</ele>
        <time>2022-05-08T09:59:09Z</time>
      </trkpt>
      <trkpt lat="38.353440" lon="-2.161520">
        <ele>720.3</ele>
        <time>2022-05-08T09:59:49Z</time>
      </trkpt>
      <trkpt lat="38.353589" lon="-2.161369">
        <ele>722.3</ele>
        <time>2022-05-08T10:00:04Z</time>
      </trkpt>
      <trkpt lat="38.353695" lon="-2.161174">
        <ele>721.5</ele>
        <time>2022-05-08T10:00:17Z</time>
      </trkpt>
      <trkpt lat="38.353709" lon="-2.160938">
        <ele>720.3</ele>
        <time>2022-05-08T10:00:32Z</time>
      </trkpt>
      <trkpt lat="38.353761" lon="-2.160715">
        <ele>720.4</ele>
        <time>2022-05-08T10:00:50Z</time>
      </trkpt>
      <trkpt lat="38.353770" lon="-2.160473">
        <ele>718.4</ele>
        <time>2022-05-08T10:01:07Z</time>
      </trkpt>
      <trkpt lat="38.353677" lon="-2.160271">
        <ele>716.4</ele>
        <time>2022-05-08T10:01:21Z</time>
      </trkpt>
      <trkpt lat="38.353545" lon="-2.160107">
        <ele>713.6</ele>
        <time>2022-05-08T10:01:35Z</time>
      </trkpt>
      <trkpt lat="38.353522" lon="-2.159879">
        <ele>722.5</ele>
        <time>2022-05-08T10:03:32Z</time>
      </trkpt>
      <trkpt lat="38.353576" lon="-2.159648">
        <ele>719.0</ele>
        <time>2022-05-08T10:04:22Z</time>
      </trkpt>
      <trkpt lat="38.353649" lon="-2.159423">
        <ele>722.5</ele>
        <time>2022-05-08T10:04:35Z</time>
      </trkpt>
      <trkpt lat="38.353678" lon="-2.159194">
        <ele>720.4</ele>
        <time>2022-05-08T10:04:51Z</time>
      </trkpt>
      <trkpt lat="38.353730" lon="-2.158966">
        <ele>721.3</ele>
        <time>2022-05-08T10:05:05Z</time>
      </trkpt>
      <trkpt lat="38.353851" lon="-2.158777">
        <ele>722.4</ele>
        <time>2022-05-08T10:05:19Z</time>
      </trkpt>
      <trkpt lat="38.353993" lon="-2.158635">
        <ele>720.4</ele>
        <time>2022-05-08T10:05:32Z</time>
      </trkpt>
      <trkpt lat="38.354139" lon="-2.158483">
        <ele>722.3</ele>
        <time>2022-05-08T10:05:44Z</time>
      </trkpt>
      <trkpt lat="38.354264" lon="-2.158295">
        <ele>723.4</ele>
        <time>2022-05-08T10:05:58Z</time>
      </trkpt>
      <trkpt lat="38.354413" lon="-2.158165">
        <ele>723.4</ele>
        <time>2022-05-08T10:06:10Z</time>
      </trkpt>
      <trkpt lat="38.354432" lon="-2.157927">
        <ele>722.5</ele>
        <time>2022-05-08T10:06:23Z</time>
      </trkpt>
      <trkpt lat="38.354414" lon="-2.157685">
        <ele>719.4</ele>
        <time>2022-05-08T10:06:36Z</time>
      </trkpt>
      <trkpt lat="38.354498" lon="-2.157475">
        <ele>718.4</ele>
        <time>2022-05-08T10:06:49Z</time>
      </trkpt>
      <trkpt lat="38.354666" lon="-2.157388">
        <ele>721.1</ele>
        <time>2022-05-08T10:07:01Z</time>
      </trkpt>
      <trkpt lat="38.354820" lon="-2.157253">
        <ele>720.4</ele>
        <time>2022-05-08T10:07:14Z</time>
      </trkpt>
      <trkpt lat="38.354956" lon="-2.157090">
        <ele>718.5</ele>
        <time>2022-05-08T10:07:28Z</time>
      </trkpt>
      <trkpt lat="38.355084" lon="-2.156925">
        <ele>717.4</ele>
        <time>2022-05-08T10:07:41Z</time>
      </trkpt>
      <trkpt lat="38.355232" lon="-2.156773">
        <ele>715.5</ele>
        <time>2022-05-08T10:07:55Z</time>
      </trkpt>
      <trkpt lat="38.355321" lon="-2.156572">
        <ele>712.4</ele>
        <time>2022-05-08T10:08:10Z</time>
      </trkpt>
      <trkpt lat="38.355404" lon="-2.156349">
        <ele>710.4</ele>
        <time>2022-05-08T10:08:23Z</time>
      </trkpt>
      <trkpt lat="38.355548" lon="-2.156190">
        <ele>711.4</ele>
        <time>2022-05-08T10:08:35Z</time>
      </trkpt>
      <trkpt lat="38.355730" lon="-2.156097">
        <ele>713.4</ele>
        <time>2022-05-08T10:08:48Z</time>
      </trkpt>
      <trkpt lat="38.355890" lon="-2.155971">
        <ele>712.4</ele>
        <time>2022-05-08T10:09:01Z</time>
      </trkpt>
      <trkpt lat="38.356025" lon="-2.155801">
        <ele>709.7</ele>
        <time>2022-05-08T10:09:15Z</time>
      </trkpt>
      <trkpt lat="38.356154" lon="-2.155636">
        <ele>708.7</ele>
        <time>2022-05-08T10:09:28Z</time>
      </trkpt>
      <trkpt lat="38.356301" lon="-2.155489">
        <ele>707.5</ele>
        <time>2022-05-08T10:09:41Z</time>
      </trkpt>
      <trkpt lat="38.356420" lon="-2.155306">
        <ele>712.0</ele>
        <time>2022-05-08T10:09:55Z</time>
      </trkpt>
      <trkpt lat="38.356567" lon="-2.155183">
        <ele>713.7</ele>
        <time>2022-05-08T10:10:46Z</time>
      </trkpt>
      <trkpt lat="38.356702" lon="-2.155018">
        <ele>709.3</ele>
        <time>2022-05-08T10:13:19Z</time>
      </trkpt>
      <trkpt lat="38.356809" lon="-2.154828">
        <ele>711.1</ele>
        <time>2022-05-08T10:14:07Z</time>
      </trkpt>
      <trkpt lat="38.356870" lon="-2.154608">
        <ele>711.3</ele>
        <time>2022-05-08T10:14:23Z</time>
      </trkpt>
      <trkpt lat="38.356833" lon="-2.154377">
        <ele>706.5</ele>
        <time>2022-05-08T10:14:40Z</time>
      </trkpt>
      <trkpt lat="38.356653" lon="-2.154340">
        <ele>699.4</ele>
        <time>2022-05-08T10:15:05Z</time>
      </trkpt>
      <trkpt lat="38.356482" lon="-2.154255">
        <ele>698.0</ele>
        <time>2022-05-08T10:15:20Z</time>
      </trkpt>
      <trkpt lat="38.356422" lon="-2.154036">
        <ele>703.3</ele>
        <time>2022-05-08T10:15:39Z</time>
      </trkpt>
      <trkpt lat="38.356550" lon="-2.153853">
        <ele>706.1</ele>
        <time>2022-05-08T10:15:55Z</time>
      </trkpt>
      <trkpt lat="38.356699" lon="-2.153705">
        <ele>707.4</ele>
        <time>2022-05-08T10:16:11Z</time>
      </trkpt>
      <trkpt lat="38.356839" lon="-2.153539">
        <ele>709.7</ele>
        <time>2022-05-08T10:16:28Z</time>
      </trkpt>
      <trkpt lat="38.356876" lon="-2.153307">
        <ele>707.7</ele>
        <time>2022-05-08T10:16:45Z</time>
      </trkpt>
      <trkpt lat="38.356831" lon="-2.153072">
        <ele>707.8</ele>
        <time>2022-05-08T10:17:02Z</time>
      </trkpt>
      <trkpt lat="38.356746" lon="-2.152854">
        <ele>706.4</ele>
        <time>2022-05-08T10:17:18Z</time>
      </trkpt>
      <trkpt lat="38.356594" lon="-2.152725">
        <ele>706.4</ele>
        <time>2022-05-08T10:17:32Z</time>
      </trkpt>
      <trkpt lat="38.356459" lon="-2.152568">
        <ele>704.1</ele>
        <time>2022-05-08T10:17:48Z</time>
      </trkpt>
      <trkpt lat="38.356350" lon="-2.152380">
        <ele>706.1</ele>
        <time>2022-05-08T10:18:03Z</time>
      </trkpt>
      <trkpt lat="38.356249" lon="-2.152186">
        <ele>704.4</ele>
        <time>2022-05-08T10:18:20Z</time>
      </trkpt>
      <trkpt lat="38.356131" lon="-2.152012">
        <ele>701.4</ele>
        <time>2022-05-08T10:18:36Z</time>
      </trkpt>
      <trkpt lat="38.355993" lon="-2.151861">
        <ele>699.2</ele>
        <time>2022-05-08T10:18:50Z</time>
      </trkpt>
      <trkpt lat="38.355805" lon="-2.151839">
        <ele>693.7</ele>
        <time>2022-05-08T10:19:07Z</time>
      </trkpt>
      <trkpt lat="38.355657" lon="-2.151976">
        <ele>692.7</ele>
        <time>2022-05-08T10:19:22Z</time>
      </trkpt>
      <trkpt lat="38.355477" lon="-2.151996">
        <ele>692.0</ele>
        <time>2022-05-08T10:19:42Z</time>
      </trkpt>
      <trkpt lat="38.355492" lon="-2.151753">
        <ele>698.3</ele>
        <time>2022-05-08T10:19:57Z</time>
      </trkpt>
      <trkpt lat="38.355459" lon="-2.151516">
        <ele>697.7</ele>
        <time>2022-05-08T10:20:12Z</time>
      </trkpt>
      <trkpt lat="38.355323" lon="-2.151357">
        <ele>698.4</ele>
        <time>2022-05-08T10:20:30Z</time>
      </trkpt>
      <trkpt lat="38.355198" lon="-2.151178">
        <ele>697.4</ele>
        <time>2022-05-08T10:20:46Z</time>
      </trkpt>
      <trkpt lat="38.355059" lon="-2.151026">
        <ele>694.7</ele>
        <time>2022-05-08T10:21:03Z</time>
      </trkpt>
      <trkpt lat="38.354973" lon="-2.150817">
        <ele>696.5</ele>
        <time>2022-05-08T10:21:23Z</time>
      </trkpt>
      <trkpt lat="38.354888" lon="-2.150604">
        <ele>692.8</ele>
        <time>2022-05-08T10:21:39Z</time>
      </trkpt>
      <trkpt lat="38.354760" lon="-2.150437">
        <ele>686.4</ele>
        <time>2022-05-08T10:21:57Z</time>
      </trkpt>
      <trkpt lat="38.354650" lon="-2.150242">
        <ele>684.4</ele>
        <time>2022-05-08T10:22:13Z</time>
      </trkpt>
      <trkpt lat="38.354484" lon="-2.150120">
        <ele>678.7</ele>
        <time>2022-05-08T10:22:31Z</time>
      </trkpt>
      <trkpt lat="38.354296" lon="-2.150075">
        <ele>674.5</ele>
        <time>2022-05-08T10:22:47Z</time>
      </trkpt>
      <trkpt lat="38.354118" lon="-2.150001">
        <ele>670.8</ele>
        <time>2022-05-08T10:23:08Z</time>
      </trkpt>
      <trkpt lat="38.353945" lon="-2.149917">
        <ele>680.4</ele>
        <time>2022-05-08T10:24:27Z</time>
      </trkpt>
      <trkpt lat="38.353950" lon="-2.149917">
        <ele>672.5</ele>
        <time>2022-05-08T10:29:10Z</time>
      </trkpt>
      <trkpt lat="38.353771" lon="-2.149879">
        <ele>672.4</ele>
        <time>2022-05-08T10:30:15Z</time>
      </trkpt>
      <trkpt lat="38.353636" lon="-2.149715">
        <ele>679.1</ele>
        <time>2022-05-08T10:30:36Z</time>
      </trkpt>
      <trkpt lat="38.353567" lon="-2.149482">
        <ele>681.7</ele>
        <time>2022-05-08T10:30:52Z</time>
      </trkpt>
      <trkpt lat="38.353531" lon="-2.149255">
        <ele>681.4</ele>
        <time>2022-05-08T10:31:05Z</time>
      </trkpt>
      <trkpt lat="38.353569" lon="-2.149020">
        <ele>682.4</ele>
        <time>2022-05-08T10:31:21Z</time>
      </trkpt>
      <trkpt lat="38.353557" lon="-2.148788">
        <ele>683.2</ele>
        <time>2022-05-08T10:31:36Z</time>
      </trkpt>
      <trkpt lat="38.353583" lon="-2.148551">
        <ele>682.3</ele>
        <time>2022-05-08T10:31:52Z</time>
      </trkpt>
      <trkpt lat="38.353452" lon="-2.148383">
        <ele>678.4</ele>
        <time>2022-05-08T10:32:22Z</time>
      </trkpt>
      <trkpt lat="38.353349" lon="-2.148191">
        <ele>678.4</ele>
        <time>2022-05-08T10:32:38Z</time>
      </trkpt>
      <trkpt lat="38.353353" lon="-2.147948">
        <ele>673.1</ele>
        <time>2022-05-08T10:32:53Z</time>
      </trkpt>
      <trkpt lat="38.353387" lon="-2.147717">
        <ele>675.4</ele>
        <time>2022-05-08T10:33:07Z</time>
      </trkpt>
      <trkpt lat="38.353412" lon="-2.147481">
        <ele>677.3</ele>
        <time>2022-05-08T10:33:21Z</time>
      </trkpt>
      <trkpt lat="38.353448" lon="-2.147245">
        <ele>679.4</ele>
        <time>2022-05-08T10:33:36Z</time>
      </trkpt>
      <trkpt lat="38.353439" lon="-2.147003">
        <ele>683.3</ele>
        <time>2022-05-08T10:33:49Z</time>
      </trkpt>
      <trkpt lat="38.353460" lon="-2.146771">
        <ele>688.4</ele>
        <time>2022-05-08T10:34:04Z</time>
      </trkpt>
      <trkpt lat="38.353507" lon="-2.146545">
        <ele>691.3</ele>
        <time>2022-05-08T10:34:21Z</time>
      </trkpt>
      <trkpt lat="38.353554" lon="-2.146316">
        <ele>691.4</ele>
        <time>2022-05-08T10:34:36Z</time>
      </trkpt>
      <trkpt lat="38.353632" lon="-2.146095">
        <ele>691.3</ele>
        <time>2022-05-08T10:34:52Z</time>
      </trkpt>
      <trkpt lat="38.353714" lon="-2.145889">
        <ele>693.1</ele>
        <time>2022-05-08T10:35:08Z</time>
      </trkpt>
      <trkpt lat="38.353843" lon="-2.145716">
        <ele>695.3</ele>
        <time>2022-05-08T10:35:26Z</time>
      </trkpt>
      <trkpt lat="38.354009" lon="-2.145601">
        <ele>698.6</ele>
        <time>2022-05-08T10:35:43Z</time>
      </trkpt>
      <trkpt lat="38.354191" lon="-2.145525">
        <ele>702.1</ele>
        <time>2022-05-08T10:35:58Z</time>
      </trkpt>
      <trkpt lat="38.354378" lon="-2.145474">
        <ele>703.4</ele>
        <time>2022-05-08T10:36:15Z</time>
      </trkpt>
      <trkpt lat="38.354555" lon="-2.145401">
        <ele>705.4</ele>
        <time>2022-05-08T10:36:31Z</time>
      </trkpt>
      <trkpt lat="38.354727" lon="-2.145335">
        <ele>707.4</ele>
        <time>2022-05-08T10:36:45Z</time>
      </trkpt>
      <trkpt lat="38.354893" lon="-2.145234">
        <ele>706.4</ele>
        <time>2022-05-08T10:37:00Z</time>
      </trkpt>
      <trkpt lat="38.355050" lon="-2.145113">
        <ele>707.4</ele>
        <time>2022-05-08T10:37:13Z</time>
      </trkpt>
      <trkpt lat="38.355216" lon="-2.145005">
        <ele>706.4</ele>
        <time>2022-05-08T10:37:28Z</time>
      </trkpt>
      <trkpt lat="38.355386" lon="-2.144911">
        <ele>704.4</ele>
        <time>2022-05-08T10:37:42Z</time>
      </trkpt>
      <trkpt lat="38.355537" lon="-2.144773">
        <ele>705.4</ele>
        <time>2022-05-08T10:37:58Z</time>
      </trkpt>
      <trkpt lat="38.355683" lon="-2.144650">
        <ele>706.7</ele>
        <time>2022-05-08T10:38:14Z</time>
      </trkpt>
      <trkpt lat="38.355817" lon="-2.144467">
        <ele>706.4</ele>
        <time>2022-05-08T10:38:34Z</time>
      </trkpt>
      <trkpt lat="38.355938" lon="-2.144304">
        <ele>704.4</ele>
        <time>2022-05-08T10:39:15Z</time>
      </trkpt>
      <trkpt lat="38.355862" lon="-2.144083">
        <ele>705.4</ele>
        <time>2022-05-08T10:39:32Z</time>
      </trkpt>
      <trkpt lat="38.355910" lon="-2.143847">
        <ele>707.3</ele>
        <time>2022-05-08T10:39:47Z</time>
      </trkpt>
      <trkpt lat="38.356017" lon="-2.143652">
        <ele>711.1</ele>
        <time>2022-05-08T10:40:03Z</time>
      </trkpt>
      <trkpt lat="38.356113" lon="-2.143454">
        <ele>709.1</ele>
        <time>2022-05-08T10:40:18Z</time>
      </trkpt>
      <trkpt lat="38.356231" lon="-2.143278">
        <ele>710.4</ele>
        <time>2022-05-08T10:40:33Z</time>
      </trkpt>
      <trkpt lat="38.356303" lon="-2.143058">
        <ele>707.4</ele>
        <time>2022-05-08T10:40:51Z</time>
      </trkpt>
      <trkpt lat="38.356334" lon="-2.142824">
        <ele>710.4</ele>
        <time>2022-05-08T10:41:06Z</time>
      </trkpt>
      <trkpt lat="38.356410" lon="-2.142608">
        <ele>712.4</ele>
        <time>2022-05-08T10:41:23Z</time>
      </trkpt>
      <trkpt lat="38.356566" lon="-2.142479">
        <ele>711.4</ele>
        <time>2022-05-08T10:41:44Z</time>
      </trkpt>
      <trkpt lat="38.356725" lon="-2.142352">
        <ele>712.4</ele>
        <time>2022-05-08T10:42:03Z</time>
      </trkpt>
      <trkpt lat="38.356800" lon="-2.142150">
        <ele>712.4</ele>
        <time>2022-05-08T10:42:21Z</time>
      </trkpt>
      <trkpt lat="38.356886" lon="-2.141938">
        <ele>712.4</ele>
        <time>2022-05-08T10:42:49Z</time>
      </trkpt>
      <trkpt lat="38.356997" lon="-2.141748">
        <ele>712.7</ele>
        <time>2022-05-08T10:43:05Z</time>
      </trkpt>
      <trkpt lat="38.357117" lon="-2.141572">
        <ele>711.1</ele>
        <time>2022-05-08T10:43:19Z</time>
      </trkpt>
      <trkpt lat="38.357146" lon="-2.141339">
        <ele>711.4</ele>
        <time>2022-05-08T10:43:38Z</time>
      </trkpt>
      <trkpt lat="38.356995" lon="-2.141198">
        <ele>709.2</ele>
        <time>2022-05-08T10:43:59Z</time>
      </trkpt>
      <trkpt lat="38.356842" lon="-2.141073">
        <ele>709.3</ele>
        <time>2022-05-08T10:44:15Z</time>
      </trkpt>
      <trkpt lat="38.356771" lon="-2.140851">
        <ele>714.3</ele>
        <time>2022-05-08T10:44:28Z</time>
      </trkpt>
      <trkpt lat="38.356760" lon="-2.140611">
        <ele>715.5</ele>
        <time>2022-05-08T10:44:43Z</time>
      </trkpt>
      <trkpt lat="38.356680" lon="-2.140401">
        <ele>716.4</ele>
        <time>2022-05-08T10:45:00Z</time>
      </trkpt>
      <trkpt lat="38.356543" lon="-2.140247">
        <ele>715.5</ele>
        <time>2022-05-08T10:45:14Z</time>
      </trkpt>
      <trkpt lat="38.356455" lon="-2.140040">
        <ele>715.3</ele>
        <time>2022-05-08T10:45:28Z</time>
      </trkpt>
      <trkpt lat="38.356413" lon="-2.139804">
        <ele>712.5</ele>
        <time>2022-05-08T10:45:45Z</time>
      </trkpt>
      <trkpt lat="38.356384" lon="-2.139567">
        <ele>714.3</ele>
        <time>2022-05-08T10:46:03Z</time>
      </trkpt>
      <trkpt lat="38.356252" lon="-2.139395">
        <ele>716.4</ele>
        <time>2022-05-08T10:46:18Z</time>
      </trkpt>
      <trkpt lat="38.356178" lon="-2.139185">
        <ele>718.5</ele>
        <time>2022-05-08T10:46:34Z</time>
      </trkpt>
      <trkpt lat="38.356145" lon="-2.138946">
        <ele>722.4</ele>
        <time>2022-05-08T10:46:49Z</time>
      </trkpt>
      <trkpt lat="38.356111" lon="-2.138713">
        <ele>724.4</ele>
        <time>2022-05-08T10:47:03Z</time>
      </trkpt>
      <trkpt lat="38.356017" lon="-2.138506">
        <ele>724.4</ele>
        <time>2022-05-08T10:47:19Z</time>
      </trkpt>
      <trkpt lat="38.355905" lon="-2.138312">
        <ele>725.7</ele>
        <time>2022-05-08T10:47:32Z</time>
      </trkpt>
      <trkpt lat="38.355768" lon="-2.138155">
        <ele>724.4</ele>
        <time>2022-05-08T10:47:47Z</time>
      </trkpt>
      <trkpt lat="38.355657" lon="-2.137959">
        <ele>725.4</ele>
        <time>2022-05-08T10:48:00Z</time>
      </trkpt>
      <trkpt lat="38.355553" lon="-2.137766">
        <ele>726.4</ele>
        <time>2022-05-08T10:48:14Z</time>
      </trkpt>
      <trkpt lat="38.355449" lon="-2.137572">
        <ele>725.5</ele>
        <time>2022-05-08T10:48:27Z</time>
      </trkpt>
      <trkpt lat="38.355362" lon="-2.137361">
        <ele>723.4</ele>
        <time>2022-05-08T10:48:47Z</time>
      </trkpt>
      <trkpt lat="38.355283" lon="-2.137146">
        <ele>725.3</ele>
        <time>2022-05-08T10:49:03Z</time>
      </trkpt>
      <trkpt lat="38.355221" lon="-2.136921">
        <ele>726.4</ele>
        <time>2022-05-08T10:49:18Z</time>
      </trkpt>
      <trkpt lat="38.355105" lon="-2.136742">
        <ele>726.3</ele>
        <time>2022-05-08T10:49:34Z</time>
      </trkpt>
      <trkpt lat="38.354972" lon="-2.136568">
        <ele>725.4</ele>
        <time>2022-05-08T10:49:49Z</time>
      </trkpt>
      <trkpt lat="38.354858" lon="-2.136389">
        <ele>730.3</ele>
        <time>2022-05-08T10:50:16Z</time>
      </trkpt>
      <trkpt lat="38.354731" lon="-2.136214">
        <ele>733.1</ele>
        <time>2022-05-08T10:50:31Z</time>
      </trkpt>
      <trkpt lat="38.354598" lon="-2.136043">
        <ele>730.7</ele>
        <time>2022-05-08T10:50:47Z</time>
      </trkpt>
      <trkpt lat="38.354469" lon="-2.135877">
        <ele>734.4</ele>
        <time>2022-05-08T10:51:01Z</time>
      </trkpt>
      <trkpt lat="38.354371" lon="-2.135676">
        <ele>735.4</ele>
        <time>2022-05-08T10:51:17Z</time>
      </trkpt>
      <trkpt lat="38.354320" lon="-2.135447">
        <ele>740.1</ele>
        <time>2022-05-08T10:51:31Z</time>
      </trkpt>
      <trkpt lat="38.354205" lon="-2.135263">
        <ele>739.7</ele>
        <time>2022-05-08T10:51:48Z</time>
      </trkpt>
      <trkpt lat="38.354048" lon="-2.135140">
        <ele>737.7</ele>
        <time>2022-05-08T10:52:05Z</time>
      </trkpt>
      <trkpt lat="38.353979" lon="-2.134927">
        <ele>737.7</ele>
        <time>2022-05-08T10:52:24Z</time>
      </trkpt>
      <trkpt lat="38.353901" lon="-2.134718">
        <ele>736.4</ele>
        <time>2022-05-08T10:52:50Z</time>
      </trkpt>
      <trkpt lat="38.353781" lon="-2.134544">
        <ele>735.3</ele>
        <time>2022-05-08T10:53:04Z</time>
      </trkpt>
      <trkpt lat="38.353682" lon="-2.134345">
        <ele>738.4</ele>
        <time>2022-05-08T10:53:19Z</time>
      </trkpt>
      <trkpt lat="38.353642" lon="-2.134109">
        <ele>742.4</ele>
        <time>2022-05-08T10:53:37Z</time>
      </trkpt>
      <trkpt lat="38.353489" lon="-2.133969">
        <ele>746.4</ele>
        <time>2022-05-08T10:53:52Z</time>
      </trkpt>
      <trkpt lat="38.353350" lon="-2.133816">
        <ele>747.4</ele>
        <time>2022-05-08T10:54:08Z</time>
      </trkpt>
      <trkpt lat="38.353222" lon="-2.133648">
        <ele>746.4</ele>
        <time>2022-05-08T10:54:29Z</time>
      </trkpt>
      <trkpt lat="38.353074" lon="-2.133493">
        <ele>746.1</ele>
        <time>2022-05-08T10:54:44Z</time>
      </trkpt>
      <trkpt lat="38.352943" lon="-2.133327">
        <ele>745.4</ele>
        <time>2022-05-08T10:55:00Z</time>
      </trkpt>
      <trkpt lat="38.352874" lon="-2.133099">
        <ele>746.4</ele>
        <time>2022-05-08T10:55:13Z</time>
      </trkpt>
      <trkpt lat="38.352799" lon="-2.132883">
        <ele>750.4</ele>
        <time>2022-05-08T10:55:27Z</time>
      </trkpt>
      <trkpt lat="38.352720" lon="-2.132661">
        <ele>751.4</ele>
        <time>2022-05-08T10:55:40Z</time>
      </trkpt>
      <trkpt lat="38.352676" lon="-2.132423">
        <ele>750.5</ele>
        <time>2022-05-08T10:55:55Z</time>
      </trkpt>
      <trkpt lat="38.352703" lon="-2.132176">
        <ele>745.5</ele>
        <time>2022-05-08T10:56:22Z</time>
      </trkpt>
      <trkpt lat="38.352779" lon="-2.131964">
        <ele>745.5</ele>
        <time>2022-05-08T10:56:34Z</time>
      </trkpt>
      <trkpt lat="38.352833" lon="-2.131733">
        <ele>749.5</ele>
        <time>2022-05-08T11:01:14Z</time>
      </trkpt>
      <trkpt lat="38.352776" lon="-2.131518">
        <ele>751.7</ele>
        <time>2022-05-08T11:01:33Z</time>
      </trkpt>
      <trkpt lat="38.352674" lon="-2.131316">
        <ele>754.4</ele>
        <time>2022-05-08T11:01:51Z</time>
      </trkpt>
      <trkpt lat="38.352549" lon="-2.131147">
        <ele>756.2</ele>
        <time>2022-05-08T11:02:11Z</time>
      </trkpt>
      <trkpt lat="38.352427" lon="-2.130976">
        <ele>756.5</ele>
        <time>2022-05-08T11:02:28Z</time>
      </trkpt>
      <trkpt lat="38.352335" lon="-2.130763">
        <ele>754.5</ele>
        <time>2022-05-08T11:02:44Z</time>
      </trkpt>
      <trkpt lat="38.352243" lon="-2.130549">
        <ele>758.4</ele>
        <time>2022-05-08T11:03:03Z</time>
      </trkpt>
      <trkpt lat="38.352170" lon="-2.130338">
        <ele>760.4</ele>
        <time>2022-05-08T11:03:29Z</time>
      </trkpt>
      <trkpt lat="38.352051" lon="-2.130161">
        <ele>764.5</ele>
        <time>2022-05-08T11:03:42Z</time>
      </trkpt>
      <trkpt lat="38.351960" lon="-2.129942">
        <ele>764.4</ele>
        <time>2022-05-08T11:03:57Z</time>
      </trkpt>
      <trkpt lat="38.351865" lon="-2.129742">
        <ele>762.5</ele>
        <time>2022-05-08T11:04:12Z</time>
      </trkpt>
      <trkpt lat="38.351773" lon="-2.129540">
        <ele>762.4</ele>
        <time>2022-05-08T11:04:25Z</time>
      </trkpt>
      <trkpt lat="38.351716" lon="-2.129309">
        <ele>765.4</ele>
        <time>2022-05-08T11:04:41Z</time>
      </trkpt>
      <trkpt lat="38.351619" lon="-2.129098">
        <ele>767.4</ele>
        <time>2022-05-08T11:04:55Z</time>
      </trkpt>
      <trkpt lat="38.351586" lon="-2.128861">
        <ele>768.4</ele>
        <time>2022-05-08T11:05:15Z</time>
      </trkpt>
      <trkpt lat="38.351556" lon="-2.128628">
        <ele>770.4</ele>
        <time>2022-05-08T11:05:30Z</time>
      </trkpt>
      <trkpt lat="38.351549" lon="-2.128399">
        <ele>772.5</ele>
        <time>2022-05-08T11:05:43Z</time>
      </trkpt>
      <trkpt lat="38.351591" lon="-2.128174">
        <ele>775.5</ele>
        <time>2022-05-08T11:05:57Z</time>
      </trkpt>
      <trkpt lat="38.351674" lon="-2.127956">
        <ele>779.2</ele>
        <time>2022-05-08T11:06:12Z</time>
      </trkpt>
      <trkpt lat="38.351766" lon="-2.127741">
        <ele>780.2</ele>
        <time>2022-05-08T11:06:28Z</time>
      </trkpt>
      <trkpt lat="38.351844" lon="-2.127521">
        <ele>781.8</ele>
        <time>2022-05-08T11:06:43Z</time>
      </trkpt>
      <trkpt lat="38.351945" lon="-2.127331">
        <ele>781.5</ele>
        <time>2022-05-08T11:06:59Z</time>
      </trkpt>
      <trkpt lat="38.352035" lon="-2.127116">
        <ele>782.5</ele>
        <time>2022-05-08T11:07:17Z</time>
      </trkpt>
      <trkpt lat="38.352129" lon="-2.126910">
        <ele>784.4</ele>
        <time>2022-05-08T11:07:32Z</time>
      </trkpt>
      <trkpt lat="38.352224" lon="-2.126711">
        <ele>786.3</ele>
        <time>2022-05-08T11:07:48Z</time>
      </trkpt>
      <trkpt lat="38.352308" lon="-2.126502">
        <ele>784.5</ele>
        <time>2022-05-08T11:08:05Z</time>
      </trkpt>
      <trkpt lat="38.352375" lon="-2.126286">
        <ele>784.5</ele>
        <time>2022-05-08T11:08:19Z</time>
      </trkpt>
      <trkpt lat="38.352432" lon="-2.126060">
        <ele>787.4</ele>
        <time>2022-05-08T11:08:34Z</time>
      </trkpt>
      <trkpt lat="38.352531" lon="-2.125859">
        <ele>790.4</ele>
        <time>2022-05-08T11:08:51Z</time>
      </trkpt>
      <trkpt lat="38.352641" lon="-2.125667">
        <ele>792.4</ele>
        <time>2022-05-08T11:09:09Z</time>
      </trkpt>
      <trkpt lat="38.352738" lon="-2.125467">
        <ele>795.5</ele>
        <time>2022-05-08T11:09:26Z</time>
      </trkpt>
      <trkpt lat="38.352865" lon="-2.125293">
        <ele>796.5</ele>
        <time>2022-05-08T11:09:43Z</time>
      </trkpt>
      <trkpt lat="38.352984" lon="-2.125107">
        <ele>802.2</ele>
        <time>2022-05-08T11:09:59Z</time>
      </trkpt>
      <trkpt lat="38.353031" lon="-2.124874">
        <ele>802.5</ele>
        <time>2022-05-08T11:10:17Z</time>
      </trkpt>
      <trkpt lat="38.353027" lon="-2.124639">
        <ele>798.2</ele>
        <time>2022-05-08T11:11:44Z</time>
      </trkpt>
      <trkpt lat="38.352899" lon="-2.124474">
        <ele>798.8</ele>
        <time>2022-05-08T11:11:58Z</time>
      </trkpt>
      <trkpt lat="38.352779" lon="-2.124281">
        <ele>799.4</ele>
        <time>2022-05-08T11:12:12Z</time>
      </trkpt>
      <trkpt lat="38.352765" lon="-2.124034">
        <ele>801.5</ele>
        <time>2022-05-08T11:12:24Z</time>
      </trkpt>
      <trkpt lat="38.352758" lon="-2.123791">
        <ele>802.5</ele>
        <time>2022-05-08T11:12:38Z</time>
      </trkpt>
      <trkpt lat="38.352764" lon="-2.123546">
        <ele>801.5</ele>
        <time>2022-05-08T11:12:58Z</time>
      </trkpt>
      <trkpt lat="38.352765" lon="-2.123306">
        <ele>801.5</ele>
        <time>2022-05-08T11:13:11Z</time>
      </trkpt>
      <trkpt lat="38.352788" lon="-2.123075">
        <ele>801.8</ele>
        <time>2022-05-08T11:13:24Z</time>
      </trkpt>
      <trkpt lat="38.352841" lon="-2.122848">
        <ele>800.4</ele>
        <time>2022-05-08T11:13:38Z</time>
      </trkpt>
      <trkpt lat="38.352919" lon="-2.122638">
        <ele>801.5</ele>
        <time>2022-05-08T11:13:50Z</time>
      </trkpt>
      <trkpt lat="38.353012" lon="-2.122430">
        <ele>802.6</ele>
        <time>2022-05-08T11:14:03Z</time>
      </trkpt>
      <trkpt lat="38.353086" lon="-2.122214">
        <ele>801.5</ele>
        <time>2022-05-08T11:14:17Z</time>
      </trkpt>
      <trkpt lat="38.353063" lon="-2.121983">
        <ele>797.8</ele>
        <time>2022-05-08T11:14:37Z</time>
      </trkpt>
      <trkpt lat="38.353120" lon="-2.121757">
        <ele>795.5</ele>
        <time>2022-05-08T11:15:34Z</time>
      </trkpt>
      <trkpt lat="38.353138" lon="-2.121522">
        <ele>795.4</ele>
        <time>2022-05-08T11:15:47Z</time>
      </trkpt>
      <trkpt lat="38.353157" lon="-2.121286">
        <ele>795.2</ele>
        <time>2022-05-08T11:16:01Z</time>
      </trkpt>
      <trkpt lat="38.353206" lon="-2.121053">
        <ele>789.5</ele>
        <time>2022-05-08T11:17:04Z</time>
      </trkpt>
      <trkpt lat="38.353229" lon="-2.120818">
        <ele>784.5</ele>
        <time>2022-05-08T11:18:28Z</time>
      </trkpt>
      <trkpt lat="38.353259" lon="-2.120588">
        <ele>784.7</ele>
        <time>2022-05-08T11:18:45Z</time>
      </trkpt>
      <trkpt lat="38.353277" lon="-2.120344">
        <ele>786.7</ele>
        <time>2022-05-08T11:19:02Z</time>
      </trkpt>
      <trkpt lat="38.353295" lon="-2.120112">
        <ele>787.5</ele>
        <time>2022-05-08T11:19:18Z</time>
      </trkpt>
      <trkpt lat="38.353314" lon="-2.119876">
        <ele>788.5</ele>
        <time>2022-05-08T11:19:32Z</time>
      </trkpt>
      <trkpt lat="38.353337" lon="-2.119648">
        <ele>785.6</ele>
        <time>2022-05-08T11:19:48Z</time>
      </trkpt>
      <trkpt lat="38.353369" lon="-2.119421">
        <ele>783.6</ele>
        <time>2022-05-08T11:20:03Z</time>
      </trkpt>
      <trkpt lat="38.353395" lon="-2.119189">
        <ele>784.2</ele>
        <time>2022-05-08T11:20:18Z</time>
      </trkpt>
      <trkpt lat="38.353425" lon="-2.118948">
        <ele>783.2</ele>
        <time>2022-05-08T11:20:34Z</time>
      </trkpt>
      <trkpt lat="38.353460" lon="-2.118710">
        <ele>782.5</ele>
        <time>2022-05-08T11:20:50Z</time>
      </trkpt>
      <trkpt lat="38.353489" lon="-2.118478">
        <ele>782.5</ele>
        <time>2022-05-08T11:21:07Z</time>
      </trkpt>
      <trkpt lat="38.353547" lon="-2.118260">
        <ele>783.5</ele>
        <time>2022-05-08T11:21:22Z</time>
      </trkpt>
      <trkpt lat="38.353601" lon="-2.118031">
        <ele>779.5</ele>
        <time>2022-05-08T11:21:44Z</time>
      </trkpt>
      <trkpt lat="38.353627" lon="-2.117797">
        <ele>777.5</ele>
        <time>2022-05-08T11:21:58Z</time>
      </trkpt>
      <trkpt lat="38.353684" lon="-2.117562">
        <ele>777.5</ele>
        <time>2022-05-08T11:22:13Z</time>
      </trkpt>
      <trkpt lat="38.353726" lon="-2.117338">
        <ele>772.5</ele>
        <time>2022-05-08T11:22:56Z</time>
      </trkpt>
      <trkpt lat="38.353771" lon="-2.117114">
        <ele>772.5</ele>
        <time>2022-05-08T11:23:12Z</time>
      </trkpt>
      <trkpt lat="38.353808" lon="-2.116877">
        <ele>773.5</ele>
        <time>2022-05-08T11:23:28Z</time>
      </trkpt>
      <trkpt lat="38.353855" lon="-2.116655">
        <ele>774.5</ele>
        <time>2022-05-08T11:23:43Z</time>
      </trkpt>
      <trkpt lat="38.353919" lon="-2.116436">
        <ele>774.5</ele>
        <time>2022-05-08T11:23:59Z</time>
      </trkpt>
      <trkpt lat="38.353985" lon="-2.116217">
        <ele>775.5</ele>
        <time>2022-05-08T11:24:15Z</time>
      </trkpt>
      <trkpt lat="38.354061" lon="-2.116001">
        <ele>772.5</ele>
        <time>2022-05-08T11:24:39Z</time>
      </trkpt>
      <trkpt lat="38.354132" lon="-2.115788">
        <ele>771.6</ele>
        <time>2022-05-08T11:24:56Z</time>
      </trkpt>
      <trkpt lat="38.354217" lon="-2.115582">
        <ele>769.5</ele>
        <time>2022-05-08T11:25:12Z</time>
      </trkpt>
      <trkpt lat="38.354287" lon="-2.115366">
        <ele>770.5</ele>
        <time>2022-05-08T11:25:27Z</time>
      </trkpt>
      <trkpt lat="38.354352" lon="-2.115142">
        <ele>772.5</ele>
        <time>2022-05-08T11:25:41Z</time>
      </trkpt>
      <trkpt lat="38.354432" lon="-2.114926">
        <ele>772.6</ele>
        <time>2022-05-08T11:25:56Z</time>
      </trkpt>
      <trkpt lat="38.354516" lon="-2.114718">
        <ele>771.2</ele>
        <time>2022-05-08T11:26:12Z</time>
      </trkpt>
      <trkpt lat="38.354589" lon="-2.114505">
        <ele>772.2</ele>
        <time>2022-05-08T11:26:27Z</time>
      </trkpt>
      <trkpt lat="38.354654" lon="-2.114281">
        <ele>772.5</ele>
        <time>2022-05-08T11:26:47Z</time>
      </trkpt>
      <trkpt lat="38.354696" lon="-2.114052">
        <ele>773.6</ele>
        <time>2022-05-08T11:27:03Z</time>
      </trkpt>
      <trkpt lat="38.354715" lon="-2.113822">
        <ele>775.5</ele>
        <time>2022-05-08T11:27:21Z</time>
      </trkpt>
      <trkpt lat="38.354729" lon="-2.113590">
        <ele>776.4</ele>
        <time>2022-05-08T11:27:37Z</time>
      </trkpt>
      <trkpt lat="38.354731" lon="-2.113352">
        <ele>779.5</ele>
        <time>2022-05-08T11:27:52Z</time>
      </trkpt>
      <trkpt lat="38.354716" lon="-2.113116">
        <ele>770.5</ele>
        <time>2022-05-08T11:28:36Z</time>
      </trkpt>
      <trkpt lat="38.354767" lon="-2.112889">
        <ele>772.8</ele>
        <time>2022-05-08T11:28:52Z</time>
      </trkpt>
      <trkpt lat="38.354865" lon="-2.112689">
        <ele>771.8</ele>
        <time>2022-05-08T11:29:12Z</time>
      </trkpt>
      <trkpt lat="38.354970" lon="-2.112485">
        <ele>770.5</ele>
        <time>2022-05-08T11:29:29Z</time>
      </trkpt>
      <trkpt lat="38.355077" lon="-2.112294">
        <ele>771.8</ele>
        <time>2022-05-08T11:30:24Z</time>
      </trkpt>
      <trkpt lat="38.355194" lon="-2.112116">
        <ele>775.4</ele>
        <time>2022-05-08T11:30:41Z</time>
      </trkpt>
      <trkpt lat="38.355347" lon="-2.111984">
        <ele>778.5</ele>
        <time>2022-05-08T11:31:11Z</time>
      </trkpt>
      <trkpt lat="38.355506" lon="-2.111872">
        <ele>778.2</ele>
        <time>2022-05-08T11:31:41Z</time>
      </trkpt>
      <trkpt lat="38.355676" lon="-2.111775">
        <ele>779.5</ele>
        <time>2022-05-08T11:31:59Z</time>
      </trkpt>
      <trkpt lat="38.355828" lon="-2.111645">
        <ele>782.5</ele>
        <time>2022-05-08T11:32:18Z</time>
      </trkpt>
      <trkpt lat="38.355995" lon="-2.111483">
        <ele>783.2</ele>
        <time>2022-05-08T11:32:38Z</time>
      </trkpt>
      <trkpt lat="38.356106" lon="-2.111303">
        <ele>782.5</ele>
        <time>2022-05-08T11:33:00Z</time>
      </trkpt>
      <trkpt lat="38.356220" lon="-2.111135">
        <ele>783.6</ele>
        <time>2022-05-08T11:33:21Z</time>
      </trkpt>
      <trkpt lat="38.356352" lon="-2.110994">
        <ele>783.5</ele>
        <time>2022-05-08T11:33:43Z</time>
      </trkpt>
      <trkpt lat="38.356502" lon="-2.110724">
        <ele>786.2</ele>
        <time>2022-05-08T11:34:03Z</time>
      </trkpt>
      <trkpt lat="38.356612" lon="-2.110573">
        <ele>787.5</ele>
        <time>2022-05-08T11:34:20Z</time>
      </trkpt>
      <trkpt lat="38.356727" lon="-2.110399">
        <ele>786.6</ele>
        <time>2022-05-08T11:34:39Z</time>
      </trkpt>
      <trkpt lat="38.356837" lon="-2.110224">
        <ele>787.5</ele>
        <time>2022-05-08T11:34:58Z</time>
      </trkpt>
      <trkpt lat="38.356978" lon="-2.110056">
        <ele>788.2</ele>
        <time>2022-05-08T11:35:16Z</time>
      </trkpt>
      <trkpt lat="38.357084" lon="-2.109871">
        <ele>786.5</ele>
        <time>2022-05-08T11:35:40Z</time>
      </trkpt>
      <trkpt lat="38.357207" lon="-2.109719">
        <ele>787.5</ele>
        <time>2022-05-08T11:35:58Z</time>
      </trkpt>
      <trkpt lat="38.357317" lon="-2.109550">
        <ele>788.2</ele>
        <time>2022-05-08T11:36:20Z</time>
      </trkpt>
      <trkpt lat="38.357410" lon="-2.109410">
        <ele>783.8</ele>
        <time>2022-05-08T11:36:40Z</time>
      </trkpt>
      <trkpt lat="38.357522" lon="-2.109262">
        <ele>785.5</ele>
        <time>2022-05-08T11:36:56Z</time>
      </trkpt>
      <trkpt lat="38.357654" lon="-2.109084">
        <ele>785.5</ele>
        <time>2022-05-08T11:37:13Z</time>
      </trkpt>
      <trkpt lat="38.357768" lon="-2.108898">
        <ele>782.5</ele>
        <time>2022-05-08T11:37:31Z</time>
      </trkpt>
      <trkpt lat="38.357897" lon="-2.108729">
        <ele>781.6</ele>
        <time>2022-05-08T11:37:48Z</time>
      </trkpt>
      <trkpt lat="38.358040" lon="-2.108573">
        <ele>779.4</ele>
        <time>2022-05-08T11:38:05Z</time>
      </trkpt>
      <trkpt lat="38.358166" lon="-2.108394">
        <ele>778.6</ele>
        <time>2022-05-08T11:38:22Z</time>
      </trkpt>
      <trkpt lat="38.358301" lon="-2.108238">
        <ele>777.5</ele>
        <time>2022-05-08T11:38:38Z</time>
      </trkpt>
      <trkpt lat="38.358441" lon="-2.108071">
        <ele>776.3</ele>
        <time>2022-05-08T11:38:56Z</time>
      </trkpt>
      <trkpt lat="38.358560" lon="-2.107899">
        <ele>776.5</ele>
        <time>2022-05-08T11:39:12Z</time>
      </trkpt>
      <trkpt lat="38.358680" lon="-2.107718">
        <ele>773.5</ele>
        <time>2022-05-08T11:40:55Z</time>
      </trkpt>
      <trkpt lat="38.358810" lon="-2.107558">
        <ele>772.6</ele>
        <time>2022-05-08T11:41:09Z</time>
      </trkpt>
      <trkpt lat="38.358929" lon="-2.107365">
        <ele>773.5</ele>
        <time>2022-05-08T11:41:22Z</time>
      </trkpt>
      <trkpt lat="38.359063" lon="-2.107205">
        <ele>771.8</ele>
        <time>2022-05-08T11:41:37Z</time>
      </trkpt>
      <trkpt lat="38.359194" lon="-2.107044">
        <ele>772.2</ele>
        <time>2022-05-08T11:41:53Z</time>
      </trkpt>
      <trkpt lat="38.359342" lon="-2.106911">
        <ele>772.5</ele>
        <time>2022-05-08T11:42:14Z</time>
      </trkpt>
      <trkpt lat="38.359485" lon="-2.106767">
        <ele>774.2</ele>
        <time>2022-05-08T11:44:44Z</time>
      </trkpt>
      <trkpt lat="38.359603" lon="-2.106590">
        <ele>774.8</ele>
        <time>2022-05-08T11:45:01Z</time>
      </trkpt>
      <trkpt lat="38.359758" lon="-2.106453">
        <ele>775.2</ele>
        <time>2022-05-08T11:45:14Z</time>
      </trkpt>
      <trkpt lat="38.359913" lon="-2.106330">
        <ele>773.8</ele>
        <time>2022-05-08T11:45:27Z</time>
      </trkpt>
      <trkpt lat="38.360069" lon="-2.106213">
        <ele>772.5</ele>
        <time>2022-05-08T11:45:40Z</time>
      </trkpt>
      <trkpt lat="38.360231" lon="-2.106079">
        <ele>771.5</ele>
        <time>2022-05-08T11:45:54Z</time>
      </trkpt>
      <trkpt lat="38.360387" lon="-2.105945">
        <ele>772.5</ele>
        <time>2022-05-08T11:46:15Z</time>
      </trkpt>
      <trkpt lat="38.360510" lon="-2.105770">
        <ele>770.8</ele>
        <time>2022-05-08T11:46:30Z</time>
      </trkpt>
      <trkpt lat="38.360548" lon="-2.105542">
        <ele>771.5</ele>
        <time>2022-05-08T11:46:50Z</time>
      </trkpt>
      <trkpt lat="38.360529" lon="-2.105293">
        <ele>769.8</ele>
        <time>2022-05-08T11:47:12Z</time>
      </trkpt>
      <trkpt lat="38.360492" lon="-2.105109">
        <ele>770.5</ele>
        <time>2022-05-08T11:47:26Z</time>
      </trkpt>
      <trkpt lat="38.360434" lon="-2.104890">
        <ele>769.2</ele>
        <time>2022-05-08T11:49:02Z</time>
      </trkpt>
      <trkpt lat="38.360500" lon="-2.104716">
        <ele>771.0</ele>
        <time>2022-05-08T13:56:25Z</time>
      </trkpt>
      <trkpt lat="38.360641" lon="-2.104570">
        <ele>770.8</ele>
        <time>2022-05-08T13:57:42Z</time>
      </trkpt>
      <trkpt lat="38.360793" lon="-2.104436">
        <ele>763.5</ele>
        <time>2022-05-08T13:57:54Z</time>
      </trkpt>
      <trkpt lat="38.360933" lon="-2.104285">
        <ele>762.5</ele>
        <time>2022-05-08T13:58:09Z</time>
      </trkpt>
      <trkpt lat="38.361054" lon="-2.104104">
        <ele>762.5</ele>
        <time>2022-05-08T13:58:26Z</time>
      </trkpt>
      <trkpt lat="38.361052" lon="-2.103870">
        <ele>761.5</ele>
        <time>2022-05-08T13:58:59Z</time>
      </trkpt>
      <trkpt lat="38.361194" lon="-2.103727">
        <ele>762.5</ele>
        <time>2022-05-08T13:59:16Z</time>
      </trkpt>
      <trkpt lat="38.361377" lon="-2.103735">
        <ele>762.5</ele>
        <time>2022-05-08T13:59:33Z</time>
      </trkpt>
      <trkpt lat="38.361549" lon="-2.103650">
        <ele>762.5</ele>
        <time>2022-05-08T13:59:57Z</time>
      </trkpt>
      <trkpt lat="38.361723" lon="-2.103588">
        <ele>753.6</ele>
        <time>2022-05-08T14:00:16Z</time>
      </trkpt>
      <trkpt lat="38.361903" lon="-2.103518">
        <ele>752.6</ele>
        <time>2022-05-08T14:00:33Z</time>
      </trkpt>
      <trkpt lat="38.362064" lon="-2.103408">
        <ele>756.3</ele>
        <time>2022-05-08T14:00:49Z</time>
      </trkpt>
      <trkpt lat="38.362232" lon="-2.103309">
        <ele>753.8</ele>
        <time>2022-05-08T14:01:04Z</time>
      </trkpt>
      <trkpt lat="38.362385" lon="-2.103176">
        <ele>756.7</ele>
        <time>2022-05-08T14:01:23Z</time>
      </trkpt>
      <trkpt lat="38.362529" lon="-2.103034">
        <ele>756.7</ele>
        <time>2022-05-08T14:02:04Z</time>
      </trkpt>
      <trkpt lat="38.362689" lon="-2.102925">
        <ele>756.7</ele>
        <time>2022-05-08T14:02:19Z</time>
      </trkpt>
      <trkpt lat="38.362848" lon="-2.102803">
        <ele>760.2</ele>
        <time>2022-05-08T14:02:33Z</time>
      </trkpt>
      <trkpt lat="38.362872" lon="-2.102569">
        <ele>748.6</ele>
        <time>2022-05-08T14:04:20Z</time>
      </trkpt>
      <trkpt lat="38.363042" lon="-2.102484">
        <ele>750.5</ele>
        <time>2022-05-08T14:04:40Z</time>
      </trkpt>
      <trkpt lat="38.363215" lon="-2.102422">
        <ele>751.9</ele>
        <time>2022-05-08T14:04:59Z</time>
      </trkpt>
      <trkpt lat="38.363374" lon="-2.102303">
        <ele>751.9</ele>
        <time>2022-05-08T14:05:16Z</time>
      </trkpt>
      <trkpt lat="38.363549" lon="-2.102240">
        <ele>754.4</ele>
        <time>2022-05-08T14:05:49Z</time>
      </trkpt>
      <trkpt lat="38.363731" lon="-2.102195">
        <ele>752.8</ele>
        <time>2022-05-08T14:06:07Z</time>
      </trkpt>
      <trkpt lat="38.363913" lon="-2.102171">
        <ele>752.8</ele>
        <time>2022-05-08T14:07:06Z</time>
      </trkpt>
      <trkpt lat="38.364091" lon="-2.102130">
        <ele>751.9</ele>
        <time>2022-05-08T14:07:18Z</time>
      </trkpt>
      <trkpt lat="38.364264" lon="-2.102053">
        <ele>752.8</ele>
        <time>2022-05-08T14:07:30Z</time>
      </trkpt>
      <trkpt lat="38.364438" lon="-2.101988">
        <ele>755.4</ele>
        <time>2022-05-08T14:07:43Z</time>
      </trkpt>
      <trkpt lat="38.364600" lon="-2.101887">
        <ele>755.5</ele>
        <time>2022-05-08T14:08:49Z</time>
      </trkpt>
      <trkpt lat="38.364918" lon="-2.101880">
        <ele>751.9</ele>
        <time>2022-05-08T14:14:53Z</time>
      </trkpt>
      <trkpt lat="38.364983" lon="-2.101875">
        <ele>751.9</ele>
        <time>2022-05-08T14:14:58Z</time>
      </trkpt>
      <trkpt lat="38.365048" lon="-2.101878">
        <ele>751.9</ele>
        <time>2022-05-08T14:15:02Z</time>
      </trkpt>
      <trkpt lat="38.365257" lon="-2.101872">
        <ele>743.6</ele>
        <time>2022-10-16T06:41:57Z</time>
      </trkpt>
      <trkpt lat="38.365451" lon="-2.101861">
        <ele>743.6</ele>
        <time>2022-10-16T06:42:11Z</time>
      </trkpt>
      <trkpt lat="38.365617" lon="-2.101950">
        <ele>743.6</ele>
        <time>2022-10-16T06:42:45Z</time>
      </trkpt>
      <trkpt lat="38.365810" lon="-2.101941">
        <ele>740.6</ele>
        <time>2022-10-16T06:43:19Z</time>
      </trkpt>
      <trkpt lat="38.365906" lon="-2.101742">
        <ele>736.6</ele>
        <time>2022-10-16T06:43:33Z</time>
      </trkpt>
      <trkpt lat="38.365800" lon="-2.101935">
        <ele>739.3</ele>
        <time>2022-10-16T06:47:26Z</time>
      </trkpt>
      <trkpt lat="38.365939" lon="-2.102092">
        <ele>737.6</ele>
        <time>2022-10-16T06:47:58Z</time>
      </trkpt>
      <trkpt lat="38.366014" lon="-2.102318">
        <ele>735.9</ele>
        <time>2022-10-16T06:48:13Z</time>
      </trkpt>
      <trkpt lat="38.366104" lon="-2.102518">
        <ele>731.6</ele>
        <time>2022-10-16T06:48:27Z</time>
      </trkpt>
      <trkpt lat="38.366172" lon="-2.102738">
        <ele>732.5</ele>
        <time>2022-10-16T06:48:44Z</time>
      </trkpt>
      <trkpt lat="38.366251" lon="-2.102948">
        <ele>731.5</ele>
        <time>2022-10-16T06:48:59Z</time>
      </trkpt>
      <trkpt lat="38.366214" lon="-2.103178">
        <ele>729.6</ele>
        <time>2022-10-16T06:49:17Z</time>
      </trkpt>
      <trkpt lat="38.366180" lon="-2.103418">
        <ele>729.6</ele>
        <time>2022-10-16T06:49:33Z</time>
      </trkpt>
      <trkpt lat="38.366094" lon="-2.103682">
        <ele>725.7</ele>
        <time>2022-10-16T06:49:49Z</time>
      </trkpt>
      <trkpt lat="38.366281" lon="-2.103579">
        <ele>725.6</ele>
        <time>2022-10-16T06:50:13Z</time>
      </trkpt>
      <trkpt lat="38.366361" lon="-2.103804">
        <ele>715.7</ele>
        <time>2022-10-16T06:50:32Z</time>
      </trkpt>
      <trkpt lat="38.366566" lon="-2.103714">
        <ele>717.5</ele>
        <time>2022-10-16T06:51:00Z</time>
      </trkpt>
      <trkpt lat="38.366557" lon="-2.103949">
        <ele>721.6</ele>
        <time>2022-10-16T06:51:19Z</time>
      </trkpt>
      <trkpt lat="38.366588" lon="-2.104177">
        <ele>717.7</ele>
        <time>2022-10-16T06:51:35Z</time>
      </trkpt>
      <trkpt lat="38.366744" lon="-2.104318">
        <ele>714.6</ele>
        <time>2022-10-16T06:51:57Z</time>
      </trkpt>
      <trkpt lat="38.366895" lon="-2.104456">
        <ele>711.7</ele>
        <time>2022-10-16T06:52:12Z</time>
      </trkpt>
      <trkpt lat="38.367046" lon="-2.104593">
        <ele>710.6</ele>
        <time>2022-10-16T06:52:29Z</time>
      </trkpt>
      <trkpt lat="38.367214" lon="-2.104678">
        <ele>708.9</ele>
        <time>2022-10-16T06:52:57Z</time>
      </trkpt>
      <trkpt lat="38.367388" lon="-2.104767">
        <ele>703.6</ele>
        <time>2022-10-16T06:53:23Z</time>
      </trkpt>
      <trkpt lat="38.367566" lon="-2.104812">
        <ele>705.6</ele>
        <time>2022-10-16T06:53:36Z</time>
      </trkpt>
      <trkpt lat="38.367739" lon="-2.104878">
        <ele>704.6</ele>
        <time>2022-10-16T06:54:12Z</time>
      </trkpt>
      <trkpt lat="38.367920" lon="-2.104856">
        <ele>704.8</ele>
        <time>2022-10-16T06:54:37Z</time>
      </trkpt>
      <trkpt lat="38.368096" lon="-2.104906">
        <ele>705.6</ele>
        <time>2022-10-16T06:54:55Z</time>
      </trkpt>
      <trkpt lat="38.368266" lon="-2.104999">
        <ele>702.6</ele>
        <time>2022-10-16T06:55:15Z</time>
      </trkpt>
      <trkpt lat="38.368393" lon="-2.105177">
        <ele>699.7</ele>
        <time>2022-10-16T06:55:28Z</time>
      </trkpt>
      <trkpt lat="38.368530" lon="-2.105336">
        <ele>700.3</ele>
        <time>2022-10-16T06:55:41Z</time>
      </trkpt>
      <trkpt lat="38.368679" lon="-2.105480">
        <ele>697.7</ele>
        <time>2022-10-16T06:55:55Z</time>
      </trkpt>
      <trkpt lat="38.368857" lon="-2.105421">
        <ele>695.6</ele>
        <time>2022-10-16T06:56:10Z</time>
      </trkpt>
      <trkpt lat="38.369034" lon="-2.105474">
        <ele>694.6</ele>
        <time>2022-10-16T06:56:25Z</time>
      </trkpt>
      <trkpt lat="38.369204" lon="-2.105548">
        <ele>691.6</ele>
        <time>2022-10-16T06:56:41Z</time>
      </trkpt>
      <trkpt lat="38.369376" lon="-2.105641">
        <ele>689.6</ele>
        <time>2022-10-16T06:56:56Z</time>
      </trkpt>
      <trkpt lat="38.369547" lon="-2.105728">
        <ele>686.6</ele>
        <time>2022-10-16T06:57:12Z</time>
      </trkpt>
      <trkpt lat="38.369725" lon="-2.105793">
        <ele>685.6</ele>
        <time>2022-10-16T06:57:28Z</time>
      </trkpt>
      <trkpt lat="38.369896" lon="-2.105888">
        <ele>681.6</ele>
        <time>2022-10-16T06:57:45Z</time>
      </trkpt>
      <trkpt lat="38.370008" lon="-2.106073">
        <ele>679.6</ele>
        <time>2022-10-16T06:58:04Z</time>
      </trkpt>
      <trkpt lat="38.370039" lon="-2.106252">
        <ele>677.6</ele>
        <time>2022-10-16T06:58:19Z</time>
      </trkpt>
      <trkpt lat="38.370027" lon="-2.106453">
        <ele>674.5</ele>
        <time>2022-10-16T06:59:48Z</time>
      </trkpt>
      <trkpt lat="38.369993" lon="-2.106685">
        <ele>668.7</ele>
        <time>2022-10-16T07:00:03Z</time>
      </trkpt>
      <trkpt lat="38.369984" lon="-2.106916">
        <ele>668.6</ele>
        <time>2022-10-16T07:00:17Z</time>
      </trkpt>
      <trkpt lat="38.369979" lon="-2.107154">
        <ele>664.6</ele>
        <time>2022-10-16T07:00:34Z</time>
      </trkpt>
      <trkpt lat="38.369947" lon="-2.107399">
        <ele>660.6</ele>
        <time>2022-10-16T07:01:10Z</time>
      </trkpt>
      <trkpt lat="38.369908" lon="-2.107631">
        <ele>655.6</ele>
        <time>2022-10-16T07:01:23Z</time>
      </trkpt>
      <trkpt lat="38.369889" lon="-2.107865">
        <ele>654.8</ele>
        <time>2022-10-16T07:01:38Z</time>
      </trkpt>
      <trkpt lat="38.369856" lon="-2.108107">
        <ele>652.5</ele>
        <time>2022-10-16T07:01:49Z</time>
      </trkpt>
      <trkpt lat="38.370008" lon="-2.108240">
        <ele>655.5</ele>
        <time>2022-10-16T07:02:00Z</time>
      </trkpt>
      <trkpt lat="38.370187" lon="-2.108281">
        <ele>656.5</ele>
        <time>2022-10-16T07:02:14Z</time>
      </trkpt>
      <trkpt lat="38.370368" lon="-2.108285">
        <ele>653.6</ele>
        <time>2022-10-16T07:02:29Z</time>
      </trkpt>
      <trkpt lat="38.370539" lon="-2.108206">
        <ele>652.5</ele>
        <time>2022-10-16T07:02:42Z</time>
      </trkpt>
      <trkpt lat="38.370710" lon="-2.108135">
        <ele>648.7</ele>
        <time>2022-10-16T07:03:00Z</time>
      </trkpt>
      <trkpt lat="38.370738" lon="-2.107904">
        <ele>642.9</ele>
        <time>2022-10-16T07:03:28Z</time>
      </trkpt>
      <trkpt lat="38.370786" lon="-2.107678">
        <ele>639.6</ele>
        <time>2022-10-16T07:03:45Z</time>
      </trkpt>
      <trkpt lat="38.370823" lon="-2.107452">
        <ele>636.9</ele>
        <time>2022-10-16T07:04:01Z</time>
      </trkpt>
      <trkpt lat="38.370921" lon="-2.107251">
        <ele>636.6</ele>
        <time>2022-10-16T07:04:19Z</time>
      </trkpt>
      <trkpt lat="38.371059" lon="-2.107098">
        <ele>635.6</ele>
        <time>2022-10-16T07:04:36Z</time>
      </trkpt>
      <trkpt lat="38.371242" lon="-2.107058">
        <ele>633.7</ele>
        <time>2022-10-16T07:04:50Z</time>
      </trkpt>
      <trkpt lat="38.371416" lon="-2.106989">
        <ele>633.6</ele>
        <time>2022-10-16T07:05:04Z</time>
      </trkpt>
      <trkpt lat="38.371598" lon="-2.106981">
        <ele>630.6</ele>
        <time>2022-10-16T07:05:20Z</time>
      </trkpt>
      <trkpt lat="38.371785" lon="-2.106985">
        <ele>626.6</ele>
        <time>2022-10-16T07:05:36Z</time>
      </trkpt>
      <trkpt lat="38.371966" lon="-2.106963">
        <ele>623.9</ele>
        <time>2022-10-16T07:05:51Z</time>
      </trkpt>
      <trkpt lat="38.372115" lon="-2.106822">
        <ele>622.6</ele>
        <time>2022-10-16T07:06:06Z</time>
      </trkpt>
      <trkpt lat="38.372281" lon="-2.106807">
        <ele>619.6</ele>
        <time>2022-10-16T07:06:22Z</time>
      </trkpt>
      <trkpt lat="38.372437" lon="-2.106847">
        <ele>614.7</ele>
        <time>2022-10-16T07:06:46Z</time>
      </trkpt>
      <trkpt lat="38.372552" lon="-2.107030">
        <ele>610.6</ele>
        <time>2022-10-16T07:06:58Z</time>
      </trkpt>
      <trkpt lat="38.372711" lon="-2.107140">
        <ele>607.5</ele>
        <time>2022-10-16T07:07:13Z</time>
      </trkpt>
      <trkpt lat="38.372874" lon="-2.107245">
        <ele>606.6</ele>
        <time>2022-10-16T07:07:28Z</time>
      </trkpt>
      <trkpt lat="38.372992" lon="-2.107428">
        <ele>599.6</ele>
        <time>2022-10-16T07:07:47Z</time>
      </trkpt>
      <trkpt lat="38.373114" lon="-2.107602">
        <ele>597.5</ele>
        <time>2022-10-16T07:08:03Z</time>
      </trkpt>
      <trkpt lat="38.373256" lon="-2.107751">
        <ele>591.7</ele>
        <time>2022-10-16T07:08:22Z</time>
      </trkpt>
      <trkpt lat="38.373327" lon="-2.107965">
        <ele>581.6</ele>
        <time>2022-10-16T07:08:42Z</time>
      </trkpt>
      <trkpt lat="38.373376" lon="-2.108186">
        <ele>576.6</ele>
        <time>2022-10-16T07:08:56Z</time>
      </trkpt>
      <trkpt lat="38.373408" lon="-2.108418">
        <ele>575.3</ele>
        <time>2022-10-16T07:09:13Z</time>
      </trkpt>
      <trkpt lat="38.373401" lon="-2.108658">
        <ele>575.6</ele>
        <time>2022-10-16T07:09:28Z</time>
      </trkpt>
      <trkpt lat="38.373329" lon="-2.108870">
        <ele>577.6</ele>
        <time>2022-10-16T07:09:44Z</time>
      </trkpt>
      <trkpt lat="38.373371" lon="-2.109099">
        <ele>577.2</ele>
        <time>2022-10-16T07:10:01Z</time>
      </trkpt>
      <trkpt lat="38.373436" lon="-2.109215">
        <ele>587.2</ele>
        <time>2022-10-16T07:10:37Z</time>
      </trkpt>
      <trkpt lat="38.373531" lon="-2.109308">
        <ele>583.6</ele>
        <time>2022-10-16T07:13:26Z</time>
      </trkpt>
      <trkpt lat="38.373627" lon="-2.109502">
        <ele>579.6</ele>
        <time>2022-10-16T07:13:39Z</time>
      </trkpt>
      <trkpt lat="38.373750" lon="-2.109678">
        <ele>580.5</ele>
        <time>2022-10-16T07:13:59Z</time>
      </trkpt>
      <trkpt lat="38.373873" lon="-2.109858">
        <ele>584.6</ele>
        <time>2022-10-16T07:14:16Z</time>
      </trkpt>
      <trkpt lat="38.374014" lon="-2.110001">
        <ele>585.5</ele>
        <time>2022-10-16T07:14:32Z</time>
      </trkpt>
      <trkpt lat="38.374169" lon="-2.110271">
        <ele>586.5</ele>
        <time>2022-10-16T07:14:52Z</time>
      </trkpt>
      <trkpt lat="38.374328" lon="-2.110196">
        <ele>588.6</ele>
        <time>2022-10-16T07:15:15Z</time>
      </trkpt>
      <trkpt lat="38.374422" lon="-2.109998">
        <ele>590.6</ele>
        <time>2022-10-16T07:15:28Z</time>
      </trkpt>
      <trkpt lat="38.374510" lon="-2.109795">
        <ele>591.9</ele>
        <time>2022-10-16T07:15:43Z</time>
      </trkpt>
      <trkpt lat="38.374644" lon="-2.109636">
        <ele>590.6</ele>
        <time>2022-10-16T07:16:04Z</time>
      </trkpt>
      <trkpt lat="38.374757" lon="-2.109446">
        <ele>592.6</ele>
        <time>2022-10-16T07:16:34Z</time>
      </trkpt>
      <trkpt lat="38.374890" lon="-2.109281">
        <ele>589.5</ele>
        <time>2022-10-16T07:16:51Z</time>
      </trkpt>
      <trkpt lat="38.375029" lon="-2.109131">
        <ele>588.3</ele>
        <time>2022-10-16T07:17:03Z</time>
      </trkpt>
      <trkpt lat="38.375166" lon="-2.108974">
        <ele>587.8</ele>
        <time>2022-10-16T07:17:16Z</time>
      </trkpt>
      <trkpt lat="38.375297" lon="-2.108800">
        <ele>585.7</ele>
        <time>2022-10-16T07:17:31Z</time>
      </trkpt>
      <trkpt lat="38.375447" lon="-2.108658">
        <ele>587.6</ele>
        <time>2022-10-16T07:17:48Z</time>
      </trkpt>
      <trkpt lat="38.375627" lon="-2.108731">
        <ele>585.6</ele>
        <time>2022-10-16T07:18:05Z</time>
      </trkpt>
      <trkpt lat="38.375790" lon="-2.108837">
        <ele>585.6</ele>
        <time>2022-10-16T07:18:18Z</time>
      </trkpt>
      <trkpt lat="38.375931" lon="-2.108989">
        <ele>581.6</ele>
        <time>2022-10-16T07:18:33Z</time>
      </trkpt>
      <trkpt lat="38.376053" lon="-2.109163">
        <ele>581.6</ele>
        <time>2022-10-16T07:18:53Z</time>
      </trkpt>
      <trkpt lat="38.376141" lon="-2.109336">
        <ele>581.7</ele>
        <time>2022-10-16T07:19:33Z</time>
      </trkpt>
      <trkpt lat="38.376146" lon="-2.109554">
        <ele>572.7</ele>
        <time>2022-10-16T07:19:50Z</time>
      </trkpt>
      <trkpt lat="38.376264" lon="-2.109765">
        <ele>572.6</ele>
        <time>2022-10-16T07:20:02Z</time>
      </trkpt>
      <trkpt lat="38.376429" lon="-2.109958">
        <ele>575.5</ele>
        <time>2022-10-16T07:20:14Z</time>
      </trkpt>
      <trkpt lat="38.376590" lon="-2.110056">
        <ele>574.5</ele>
        <time>2022-10-16T07:20:28Z</time>
      </trkpt>
      <trkpt lat="38.376772" lon="-2.110083">
        <ele>575.6</ele>
        <time>2022-10-16T07:20:37Z</time>
      </trkpt>
      <trkpt lat="38.376959" lon="-2.110082">
        <ele>579.5</ele>
        <time>2022-10-16T07:20:48Z</time>
      </trkpt>
      <trkpt lat="38.377135" lon="-2.110036">
        <ele>580.6</ele>
        <time>2022-10-16T07:21:00Z</time>
      </trkpt>
      <trkpt lat="38.377286" lon="-2.109910">
        <ele>576.6</ele>
        <time>2022-10-16T07:21:15Z</time>
      </trkpt>
      <trkpt lat="38.377426" lon="-2.109802">
        <ele>575.5</ele>
        <time>2022-10-16T07:21:28Z</time>
      </trkpt>
      <trkpt lat="38.377592" lon="-2.109674">
        <ele>577.6</ele>
        <time>2022-10-16T07:21:43Z</time>
      </trkpt>
      <trkpt lat="38.377745" lon="-2.109557">
        <ele>579.3</ele>
        <time>2022-10-16T07:21:58Z</time>
      </trkpt>
      <trkpt lat="38.377870" lon="-2.109374">
        <ele>579.5</ele>
        <time>2022-10-16T07:22:10Z</time>
      </trkpt>
      <trkpt lat="38.378041" lon="-2.109293">
        <ele>578.6</ele>
        <time>2022-10-16T07:22:24Z</time>
      </trkpt>
      <trkpt lat="38.378210" lon="-2.109230">
        <ele>581.6</ele>
        <time>2022-10-16T07:22:40Z</time>
      </trkpt>
      <trkpt lat="38.378394" lon="-2.109185">
        <ele>580.6</ele>
        <time>2022-10-16T07:22:54Z</time>
      </trkpt>
      <trkpt lat="38.378546" lon="-2.109032">
        <ele>582.6</ele>
        <time>2022-10-16T07:23:12Z</time>
      </trkpt>
      <trkpt lat="38.378697" lon="-2.108944">
        <ele>581.6</ele>
        <time>2022-10-16T07:23:26Z</time>
      </trkpt>
      <trkpt lat="38.378839" lon="-2.108904">
        <ele>581.3</ele>
        <time>2022-10-16T07:23:48Z</time>
      </trkpt>
      <trkpt lat="38.379039" lon="-2.108887">
        <ele>582.6</ele>
        <time>2022-10-16T07:24:04Z</time>
      </trkpt>
      <trkpt lat="38.379220" lon="-2.108873">
        <ele>586.6</ele>
        <time>2022-10-16T07:24:21Z</time>
      </trkpt>
      <trkpt lat="38.379408" lon="-2.108773">
        <ele>586.6</ele>
        <time>2022-10-16T07:24:34Z</time>
      </trkpt>
      <trkpt lat="38.379589" lon="-2.108729">
        <ele>586.7</ele>
        <time>2022-10-16T07:24:51Z</time>
      </trkpt>
      <trkpt lat="38.379778" lon="-2.108770">
        <ele>587.7</ele>
        <time>2022-10-16T07:25:08Z</time>
      </trkpt>
      <trkpt lat="38.379947" lon="-2.108791">
        <ele>587.6</ele>
        <time>2022-10-16T07:25:26Z</time>
      </trkpt>
      <trkpt lat="38.380114" lon="-2.108805">
        <ele>588.6</ele>
        <time>2022-10-16T07:25:43Z</time>
      </trkpt>
      <trkpt lat="38.380314" lon="-2.108799">
        <ele>588.9</ele>
        <time>2022-10-16T07:25:56Z</time>
      </trkpt>
      <trkpt lat="38.380499" lon="-2.108803">
        <ele>590.7</ele>
        <time>2022-10-16T07:26:12Z</time>
      </trkpt>
      <trkpt lat="38.380691" lon="-2.108822">
        <ele>589.6</ele>
        <time>2022-10-16T07:26:29Z</time>
      </trkpt>
      <trkpt lat="38.380870" lon="-2.108853">
        <ele>588.6</ele>
        <time>2022-10-16T07:26:45Z</time>
      </trkpt>
      <trkpt lat="38.381054" lon="-2.108853">
        <ele>588.3</ele>
        <time>2022-10-16T07:27:02Z</time>
      </trkpt>
      <trkpt lat="38.381235" lon="-2.108927">
        <ele>583.6</ele>
        <time>2022-10-16T07:27:50Z</time>
      </trkpt>
      <trkpt lat="38.381414" lon="-2.108958">
        <ele>580.5</ele>
        <time>2022-10-16T07:28:08Z</time>
      </trkpt>
      <trkpt lat="38.381595" lon="-2.108924">
        <ele>579.6</ele>
        <time>2022-10-16T07:28:25Z</time>
      </trkpt>
      <trkpt lat="38.381775" lon="-2.108935">
        <ele>574.9</ele>
        <time>2022-10-16T07:28:42Z</time>
      </trkpt>
      <trkpt lat="38.381959" lon="-2.108904">
        <ele>574.6</ele>
        <time>2022-10-16T07:28:59Z</time>
      </trkpt>
      <trkpt lat="38.382142" lon="-2.108893">
        <ele>573.6</ele>
        <time>2022-10-16T07:29:14Z</time>
      </trkpt>
      <trkpt lat="38.382331" lon="-2.108893">
        <ele>575.3</ele>
        <time>2022-10-16T07:29:29Z</time>
      </trkpt>
      <trkpt lat="38.382507" lon="-2.108941">
        <ele>576.5</ele>
        <time>2022-10-16T07:29:44Z</time>
      </trkpt>
      <trkpt lat="38.382691" lon="-2.108978">
        <ele>576.5</ele>
        <time>2022-10-16T07:30:02Z</time>
      </trkpt>
      <trkpt lat="38.382862" lon="-2.109063">
        <ele>574.6</ele>
        <time>2022-10-16T07:30:16Z</time>
      </trkpt>
      <trkpt lat="38.383054" lon="-2.109006">
        <ele>575.6</ele>
        <time>2022-10-16T07:30:28Z</time>
      </trkpt>
      <trkpt lat="38.383247" lon="-2.108961">
        <ele>574.9</ele>
        <time>2022-10-16T07:30:44Z</time>
      </trkpt>
      <trkpt lat="38.383362" lon="-2.108876">
        <ele>574.6</ele>
        <time>2022-10-16T07:30:58Z</time>
      </trkpt>
      <trkpt lat="38.383518" lon="-2.108752">
        <ele>575.9</ele>
        <time>2022-10-16T07:31:14Z</time>
      </trkpt>
      <trkpt lat="38.383658" lon="-2.108606">
        <ele>577.6</ele>
        <time>2022-10-16T07:31:29Z</time>
      </trkpt>
      <trkpt lat="38.383819" lon="-2.108482">
        <ele>576.6</ele>
        <time>2022-10-16T07:31:42Z</time>
      </trkpt>
      <trkpt lat="38.383895" lon="-2.108369">
        <ele>575.6</ele>
        <time>2022-10-16T07:31:56Z</time>
      </trkpt>
      <trkpt lat="38.384022" lon="-2.108190">
        <ele>573.6</ele>
        <time>2022-10-16T07:32:11Z</time>
      </trkpt>
      <trkpt lat="38.384170" lon="-2.108055">
        <ele>574.5</ele>
        <time>2022-10-16T07:32:24Z</time>
      </trkpt>
      <trkpt lat="38.384327" lon="-2.107937">
        <ele>573.6</ele>
        <time>2022-10-16T07:32:37Z</time>
      </trkpt>
      <trkpt lat="38.384504" lon="-2.107850">
        <ele>574.6</ele>
        <time>2022-10-16T07:32:52Z</time>
      </trkpt>
      <trkpt lat="38.384674" lon="-2.107683">
        <ele>575.6</ele>
        <time>2022-10-16T07:33:07Z</time>
      </trkpt>
      <trkpt lat="38.384844" lon="-2.107602">
        <ele>577.3</ele>
        <time>2022-10-16T07:33:20Z</time>
      </trkpt>
      <trkpt lat="38.385021" lon="-2.107558">
        <ele>576.6</ele>
        <time>2022-10-16T07:33:34Z</time>
      </trkpt>
      <trkpt lat="38.385204" lon="-2.107553">
        <ele>576.9</ele>
        <time>2022-10-16T07:33:49Z</time>
      </trkpt>
      <trkpt lat="38.385390" lon="-2.107553">
        <ele>575.6</ele>
        <time>2022-10-16T07:34:06Z</time>
      </trkpt>
      <trkpt lat="38.385576" lon="-2.107564">
        <ele>570.6</ele>
        <time>2022-10-16T07:34:38Z</time>
      </trkpt>
      <trkpt lat="38.385741" lon="-2.107666">
        <ele>570.5</ele>
        <time>2022-10-16T07:34:56Z</time>
      </trkpt>
      <trkpt lat="38.385911" lon="-2.107748">
        <ele>568.6</ele>
        <time>2022-10-16T07:35:10Z</time>
      </trkpt>
      <trkpt lat="38.386084" lon="-2.107839">
        <ele>573.4</ele>
        <time>2022-10-16T07:35:30Z</time>
      </trkpt>
      <trkpt lat="38.386253" lon="-2.107953">
        <ele>572.6</ele>
        <time>2022-10-16T07:35:43Z</time>
      </trkpt>
      <trkpt lat="38.386423" lon="-2.108039">
        <ele>571.6</ele>
        <time>2022-10-16T07:35:58Z</time>
      </trkpt>
      <trkpt lat="38.386588" lon="-2.108147">
        <ele>570.6</ele>
        <time>2022-10-16T07:36:29Z</time>
      </trkpt>
      <trkpt lat="38.386757" lon="-2.108233">
        <ele>570.6</ele>
        <time>2022-10-16T07:36:41Z</time>
      </trkpt>
      <trkpt lat="38.386939" lon="-2.108299">
        <ele>570.6</ele>
        <time>2022-10-16T07:36:58Z</time>
      </trkpt>
      <trkpt lat="38.387117" lon="-2.108342">
        <ele>570.3</ele>
        <time>2022-10-16T07:37:10Z</time>
      </trkpt>
      <trkpt lat="38.387299" lon="-2.108369">
        <ele>571.6</ele>
        <time>2022-10-16T07:37:24Z</time>
      </trkpt>
      <trkpt lat="38.387473" lon="-2.108309">
        <ele>571.6</ele>
        <time>2022-10-16T07:37:38Z</time>
      </trkpt>
      <trkpt lat="38.387655" lon="-2.108347">
        <ele>570.6</ele>
        <time>2022-10-16T07:37:52Z</time>
      </trkpt>
      <trkpt lat="38.387833" lon="-2.108423">
        <ele>568.6</ele>
        <time>2022-10-16T07:38:04Z</time>
      </trkpt>
      <trkpt lat="38.388019" lon="-2.108401">
        <ele>567.6</ele>
        <time>2022-10-16T07:38:19Z</time>
      </trkpt>
      <trkpt lat="38.388201" lon="-2.108396">
        <ele>568.3</ele>
        <time>2022-10-16T07:38:34Z</time>
      </trkpt>
      <trkpt lat="38.388375" lon="-2.108433">
        <ele>569.6</ele>
        <time>2022-10-16T07:38:56Z</time>
      </trkpt>
      <trkpt lat="38.388556" lon="-2.108487">
        <ele>566.6</ele>
        <time>2022-10-16T07:39:20Z</time>
      </trkpt>
      <trkpt lat="38.388728" lon="-2.108509">
        <ele>567.6</ele>
        <time>2022-10-16T07:39:50Z</time>
      </trkpt>
      <trkpt lat="38.388908" lon="-2.108495">
        <ele>564.6</ele>
        <time>2022-10-16T07:40:03Z</time>
      </trkpt>
      <trkpt lat="38.389089" lon="-2.108513">
        <ele>562.6</ele>
        <time>2022-10-16T07:40:17Z</time>
      </trkpt>
      <trkpt lat="38.389251" lon="-2.108629">
        <ele>556.7</ele>
        <time>2022-10-16T07:41:05Z</time>
      </trkpt>
      <trkpt lat="38.389429" lon="-2.108695">
        <ele>556.6</ele>
        <time>2022-10-16T07:41:16Z</time>
      </trkpt>
      <trkpt lat="38.389609" lon="-2.108678">
        <ele>555.6</ele>
        <time>2022-10-16T07:41:29Z</time>
      </trkpt>
      <trkpt lat="38.389796" lon="-2.108697">
        <ele>554.6</ele>
        <time>2022-10-16T07:41:41Z</time>
      </trkpt>
      <trkpt lat="38.389977" lon="-2.108719">
        <ele>556.6</ele>
        <time>2022-10-16T07:41:53Z</time>
      </trkpt>
      <trkpt lat="38.390160" lon="-2.108699">
        <ele>555.7</ele>
        <time>2022-10-16T07:42:06Z</time>
      </trkpt>
      <trkpt lat="38.390319" lon="-2.108591">
        <ele>554.6</ele>
        <time>2022-10-16T07:42:18Z</time>
      </trkpt>
      <trkpt lat="38.390486" lon="-2.108480">
        <ele>555.6</ele>
        <time>2022-10-16T07:42:31Z</time>
      </trkpt>
      <trkpt lat="38.390658" lon="-2.108414">
        <ele>557.6</ele>
        <time>2022-10-16T07:42:43Z</time>
      </trkpt>
      <trkpt lat="38.390824" lon="-2.108321">
        <ele>556.6</ele>
        <time>2022-10-16T07:42:58Z</time>
      </trkpt>
      <trkpt lat="38.390993" lon="-2.108239">
        <ele>557.6</ele>
        <time>2022-10-16T07:43:15Z</time>
      </trkpt>
      <trkpt lat="38.391174" lon="-2.108195">
        <ele>558.6</ele>
        <time>2022-10-16T07:43:28Z</time>
      </trkpt>
      <trkpt lat="38.391365" lon="-2.108213">
        <ele>559.6</ele>
        <time>2022-10-16T07:43:44Z</time>
      </trkpt>
      <trkpt lat="38.391516" lon="-2.108338">
        <ele>557.6</ele>
        <time>2022-10-16T07:43:58Z</time>
      </trkpt>
      <trkpt lat="38.391700" lon="-2.108383">
        <ele>559.6</ele>
        <time>2022-10-16T07:44:12Z</time>
      </trkpt>
      <trkpt lat="38.391877" lon="-2.108418">
        <ele>552.9</ele>
        <time>2022-10-16T07:44:39Z</time>
      </trkpt>
      <trkpt lat="38.392058" lon="-2.108428">
        <ele>548.6</ele>
        <time>2022-10-16T07:44:58Z</time>
      </trkpt>
      <trkpt lat="38.392235" lon="-2.108385">
        <ele>548.6</ele>
        <time>2022-10-16T07:45:22Z</time>
      </trkpt>
      <trkpt lat="38.392388" lon="-2.108505">
        <ele>546.6</ele>
        <time>2022-10-16T07:45:40Z</time>
      </trkpt>
      <trkpt lat="38.392575" lon="-2.108570">
        <ele>539.0</ele>
        <time>2022-10-16T07:45:58Z</time>
      </trkpt>
      <trkpt lat="38.392755" lon="-2.108581">
        <ele>540.5</ele>
        <time>2022-10-16T07:46:14Z</time>
      </trkpt>
      <trkpt lat="38.392936" lon="-2.108596">
        <ele>545.6</ele>
        <time>2022-10-16T07:46:48Z</time>
      </trkpt>
      <trkpt lat="38.393117" lon="-2.108633">
        <ele>551.6</ele>
        <time>2022-10-16T07:49:09Z</time>
      </trkpt>
      <trkpt lat="38.392937" lon="-2.108589">
        <ele>534.7</ele>
        <time>2022-10-16T07:58:02Z</time>
      </trkpt>
      <trkpt lat="38.392749" lon="-2.108596">
        <ele>536.3</ele>
        <time>2022-10-16T07:58:52Z</time>
      </trkpt>
      <trkpt lat="38.392569" lon="-2.108604">
        <ele>536.6</ele>
        <time>2022-10-16T07:59:07Z</time>
      </trkpt>
      <trkpt lat="38.392390" lon="-2.108548">
        <ele>540.6</ele>
        <time>2022-10-16T07:59:27Z</time>
      </trkpt>
      <trkpt lat="38.392248" lon="-2.108389">
        <ele>541.6</ele>
        <time>2022-10-16T07:59:40Z</time>
      </trkpt>
      <trkpt lat="38.392058" lon="-2.108376">
        <ele>540.6</ele>
        <time>2022-10-16T07:59:56Z</time>
      </trkpt>
      <trkpt lat="38.391872" lon="-2.108411">
        <ele>542.4</ele>
        <time>2022-10-16T08:00:12Z</time>
      </trkpt>
      <trkpt lat="38.391823" lon="-2.108634">
        <ele>543.6</ele>
        <time>2022-10-16T08:00:39Z</time>
      </trkpt>
      <trkpt lat="38.391870" lon="-2.108861">
        <ele>545.6</ele>
        <time>2022-10-16T08:00:54Z</time>
      </trkpt>
      <trkpt lat="38.391987" lon="-2.109041">
        <ele>554.3</ele>
        <time>2022-10-16T08:01:10Z</time>
      </trkpt>
      <trkpt lat="38.392131" lon="-2.109207">
        <ele>562.7</ele>
        <time>2022-10-16T08:01:30Z</time>
      </trkpt>
      <trkpt lat="38.392298" lon="-2.109301">
        <ele>569.6</ele>
        <time>2022-10-16T08:01:48Z</time>
      </trkpt>
      <trkpt lat="38.392474" lon="-2.109230">
        <ele>571.6</ele>
        <time>2022-10-16T08:02:02Z</time>
      </trkpt>
      <trkpt lat="38.392604" lon="-2.109395">
        <ele>573.6</ele>
        <time>2022-10-16T08:02:14Z</time>
      </trkpt>
      <trkpt lat="38.392713" lon="-2.109578">
        <ele>575.6</ele>
        <time>2022-10-16T08:02:29Z</time>
      </trkpt>
      <trkpt lat="38.392886" lon="-2.109647">
        <ele>579.6</ele>
        <time>2022-10-16T08:02:56Z</time>
      </trkpt>
      <trkpt lat="38.393067" lon="-2.109645">
        <ele>583.6</ele>
        <time>2022-10-16T08:03:23Z</time>
      </trkpt>
      <trkpt lat="38.393225" lon="-2.109764">
        <ele>584.6</ele>
        <time>2022-10-16T08:03:39Z</time>
      </trkpt>
      <trkpt lat="38.393405" lon="-2.109730">
        <ele>586.9</ele>
        <time>2022-10-16T08:03:56Z</time>
      </trkpt>
      <trkpt lat="38.393552" lon="-2.109596">
        <ele>590.6</ele>
        <time>2022-10-16T08:04:21Z</time>
      </trkpt>
      <trkpt lat="38.393711" lon="-2.109570">
        <ele>593.6</ele>
        <time>2022-10-16T08:06:53Z</time>
      </trkpt>
      <trkpt lat="38.393856" lon="-2.109713">
        <ele>591.7</ele>
        <time>2022-10-16T08:07:02Z</time>
      </trkpt>
      <trkpt lat="38.393961" lon="-2.109906">
        <ele>588.6</ele>
        <time>2022-10-16T08:07:18Z</time>
      </trkpt>
      <trkpt lat="38.394100" lon="-2.110066">
        <ele>587.6</ele>
        <time>2022-10-16T08:07:31Z</time>
      </trkpt>
      <trkpt lat="38.394251" lon="-2.110192">
        <ele>586.6</ele>
        <time>2022-10-16T08:07:44Z</time>
      </trkpt>
      <trkpt lat="38.394408" lon="-2.110326">
        <ele>584.6</ele>
        <time>2022-10-16T08:08:01Z</time>
      </trkpt>
      <trkpt lat="38.394527" lon="-2.110510">
        <ele>582.6</ele>
        <time>2022-10-16T08:08:16Z</time>
      </trkpt>
      <trkpt lat="38.394645" lon="-2.110686">
        <ele>579.6</ele>
        <time>2022-10-16T08:08:34Z</time>
      </trkpt>
      <trkpt lat="38.394783" lon="-2.110837">
        <ele>576.6</ele>
        <time>2022-10-16T08:08:52Z</time>
      </trkpt>
      <trkpt lat="38.394882" lon="-2.111030">
        <ele>573.7</ele>
        <time>2022-10-16T08:09:08Z</time>
      </trkpt>
      <trkpt lat="38.394921" lon="-2.111265">
        <ele>572.6</ele>
        <time>2022-10-16T08:09:27Z</time>
      </trkpt>
      <trkpt lat="38.394855" lon="-2.111484">
        <ele>565.7</ele>
        <time>2022-10-16T08:09:52Z</time>
      </trkpt>
      <trkpt lat="38.394770" lon="-2.111693">
        <ele>563.6</ele>
        <time>2022-10-16T08:10:07Z</time>
      </trkpt>
      <trkpt lat="38.394783" lon="-2.111937">
        <ele>561.6</ele>
        <time>2022-10-16T08:10:26Z</time>
      </trkpt>
      <trkpt lat="38.394915" lon="-2.112088">
        <ele>559.3</ele>
        <time>2022-10-16T08:10:43Z</time>
      </trkpt>
      <trkpt lat="38.395066" lon="-2.112222">
        <ele>557.6</ele>
        <time>2022-10-16T08:10:57Z</time>
      </trkpt>
      <trkpt lat="38.395231" lon="-2.112340">
        <ele>558.6</ele>
        <time>2022-10-16T08:11:12Z</time>
      </trkpt>
      <trkpt lat="38.395336" lon="-2.112524">
        <ele>555.6</ele>
        <time>2022-10-16T08:11:29Z</time>
      </trkpt>
      <trkpt lat="38.395467" lon="-2.112667">
        <ele>559.5</ele>
        <time>2022-10-16T08:11:49Z</time>
      </trkpt>
      <trkpt lat="38.395606" lon="-2.112843">
        <ele>557.6</ele>
        <time>2022-10-16T08:12:06Z</time>
      </trkpt>
      <trkpt lat="38.395665" lon="-2.113062">
        <ele>559.6</ele>
        <time>2022-10-16T08:12:21Z</time>
      </trkpt>
      <trkpt lat="38.395684" lon="-2.113296">
        <ele>558.6</ele>
        <time>2022-10-16T08:12:40Z</time>
      </trkpt>
      <trkpt lat="38.395737" lon="-2.113531">
        <ele>559.6</ele>
        <time>2022-10-16T08:12:57Z</time>
      </trkpt>
      <trkpt lat="38.395743" lon="-2.113766">
        <ele>563.6</ele>
        <time>2022-10-16T08:13:14Z</time>
      </trkpt>
      <trkpt lat="38.395921" lon="-2.113800">
        <ele>564.6</ele>
        <time>2022-10-16T08:13:31Z</time>
      </trkpt>
      <trkpt lat="38.396086" lon="-2.113699">
        <ele>569.6</ele>
        <time>2022-10-16T08:13:46Z</time>
      </trkpt>
      <trkpt lat="38.396270" lon="-2.113699">
        <ele>569.6</ele>
        <time>2022-10-16T08:14:03Z</time>
      </trkpt>
      <trkpt lat="38.396421" lon="-2.113842">
        <ele>567.6</ele>
        <time>2022-10-16T08:14:23Z</time>
      </trkpt>
      <trkpt lat="38.396441" lon="-2.114068">
        <ele>564.6</ele>
        <time>2022-10-16T08:14:38Z</time>
      </trkpt>
      <trkpt lat="38.396500" lon="-2.114295">
        <ele>563.5</ele>
        <time>2022-10-16T08:14:58Z</time>
      </trkpt>
      <trkpt lat="38.396625" lon="-2.114463">
        <ele>563.6</ele>
        <time>2022-10-16T08:15:15Z</time>
      </trkpt>
      <trkpt lat="38.396684" lon="-2.114681">
        <ele>565.6</ele>
        <time>2022-10-16T08:15:33Z</time>
      </trkpt>
      <trkpt lat="38.396730" lon="-2.114899">
        <ele>565.9</ele>
        <time>2022-10-16T08:15:50Z</time>
      </trkpt>
      <trkpt lat="38.396809" lon="-2.115109">
        <ele>568.5</ele>
        <time>2022-10-16T08:16:10Z</time>
      </trkpt>
      <trkpt lat="38.396934" lon="-2.115285">
        <ele>572.3</ele>
        <time>2022-10-16T08:16:26Z</time>
      </trkpt>
      <trkpt lat="38.397066" lon="-2.115453">
        <ele>569.6</ele>
        <time>2022-10-16T08:16:42Z</time>
      </trkpt>
      <trkpt lat="38.397184" lon="-2.115629">
        <ele>569.9</ele>
        <time>2022-10-16T08:17:01Z</time>
      </trkpt>
      <trkpt lat="38.397316" lon="-2.115797">
        <ele>570.5</ele>
        <time>2022-10-16T08:17:15Z</time>
      </trkpt>
      <trkpt lat="38.397302" lon="-2.116040">
        <ele>568.6</ele>
        <time>2022-10-16T08:17:31Z</time>
      </trkpt>
      <trkpt lat="38.397289" lon="-2.116267">
        <ele>564.6</ele>
        <time>2022-10-16T08:17:46Z</time>
      </trkpt>
      <trkpt lat="38.397230" lon="-2.116493">
        <ele>562.6</ele>
        <time>2022-10-16T08:18:06Z</time>
      </trkpt>
      <trkpt lat="38.397329" lon="-2.116695">
        <ele>562.6</ele>
        <time>2022-10-16T08:18:25Z</time>
      </trkpt>
      <trkpt lat="38.397500" lon="-2.116779">
        <ele>558.6</ele>
        <time>2022-10-16T08:18:43Z</time>
      </trkpt>
      <trkpt lat="38.397664" lon="-2.116871">
        <ele>558.6</ele>
        <time>2022-10-16T08:19:00Z</time>
      </trkpt>
      <trkpt lat="38.397705" lon="-2.116598">
        <ele>557.6</ele>
        <time>2022-10-16T08:19:23Z</time>
      </trkpt>
      <trkpt lat="38.397732" lon="-2.116359">
        <ele>557.6</ele>
        <time>2022-10-16T08:19:39Z</time>
      </trkpt>
      <trkpt lat="38.397846" lon="-2.116172">
        <ele>560.5</ele>
        <time>2022-10-16T08:19:57Z</time>
      </trkpt>
      <trkpt lat="38.397982" lon="-2.116011">
        <ele>556.6</ele>
        <time>2022-10-16T08:20:25Z</time>
      </trkpt>
      <trkpt lat="38.398112" lon="-2.115839">
        <ele>561.4</ele>
        <time>2022-10-16T08:20:40Z</time>
      </trkpt>
      <trkpt lat="38.398152" lon="-2.115611">
        <ele>563.9</ele>
        <time>2022-10-16T08:20:57Z</time>
      </trkpt>
      <trkpt lat="38.398051" lon="-2.115416">
        <ele>559.6</ele>
        <time>2022-10-16T08:21:14Z</time>
      </trkpt>
      <trkpt lat="38.398017" lon="-2.115190">
        <ele>561.6</ele>
        <time>2022-10-16T08:21:30Z</time>
      </trkpt>
      <trkpt lat="38.398060" lon="-2.114967">
        <ele>565.6</ele>
        <time>2022-10-16T08:21:43Z</time>
      </trkpt>
      <trkpt lat="38.398105" lon="-2.114743">
        <ele>569.8</ele>
        <time>2022-10-16T08:21:59Z</time>
      </trkpt>
      <trkpt lat="38.398181" lon="-2.114528">
        <ele>572.3</ele>
        <time>2022-10-16T08:22:20Z</time>
      </trkpt>
      <trkpt lat="38.398257" lon="-2.114313">
        <ele>575.3</ele>
        <time>2022-10-16T08:22:37Z</time>
      </trkpt>
      <trkpt lat="38.398388" lon="-2.114151">
        <ele>577.3</ele>
        <time>2022-10-16T08:22:56Z</time>
      </trkpt>
      <trkpt lat="38.398562" lon="-2.114083">
        <ele>582.6</ele>
        <time>2022-10-16T08:23:16Z</time>
      </trkpt>
      <trkpt lat="38.398723" lon="-2.113954">
        <ele>586.6</ele>
        <time>2022-10-16T08:23:57Z</time>
      </trkpt>
      <trkpt lat="38.398897" lon="-2.113876">
        <ele>589.5</ele>
        <time>2022-10-16T08:24:13Z</time>
      </trkpt>
      <trkpt lat="38.399087" lon="-2.113908">
        <ele>589.3</ele>
        <time>2022-10-16T08:24:29Z</time>
      </trkpt>
      <trkpt lat="38.399264" lon="-2.113845">
        <ele>594.0</ele>
        <time>2022-10-16T08:24:54Z</time>
      </trkpt>
      <trkpt lat="38.399431" lon="-2.113759">
        <ele>594.6</ele>
        <time>2022-10-16T08:25:35Z</time>
      </trkpt>
      <trkpt lat="38.399556" lon="-2.113928">
        <ele>594.6</ele>
        <time>2022-10-16T08:25:52Z</time>
      </trkpt>
      <trkpt lat="38.399715" lon="-2.114043">
        <ele>596.3</ele>
        <time>2022-10-16T08:26:10Z</time>
      </trkpt>
      <trkpt lat="38.399894" lon="-2.114109">
        <ele>599.6</ele>
        <time>2022-10-16T08:26:30Z</time>
      </trkpt>
      <trkpt lat="38.400068" lon="-2.114167">
        <ele>598.6</ele>
        <time>2022-10-16T08:26:52Z</time>
      </trkpt>
      <trkpt lat="38.400250" lon="-2.114166">
        <ele>604.5</ele>
        <time>2022-10-16T08:27:12Z</time>
      </trkpt>
      <trkpt lat="38.400432" lon="-2.114150">
        <ele>607.6</ele>
        <time>2022-10-16T08:27:33Z</time>
      </trkpt>
      <trkpt lat="38.400622" lon="-2.114143">
        <ele>605.6</ele>
        <time>2022-10-16T08:27:52Z</time>
      </trkpt>
      <trkpt lat="38.400805" lon="-2.114170">
        <ele>603.6</ele>
        <time>2022-10-16T08:28:10Z</time>
      </trkpt>
      <trkpt lat="38.400985" lon="-2.114144">
        <ele>603.6</ele>
        <time>2022-10-16T08:28:28Z</time>
      </trkpt>
      <trkpt lat="38.401166" lon="-2.114177">
        <ele>600.6</ele>
        <time>2022-10-16T08:29:04Z</time>
      </trkpt>
      <trkpt lat="38.401348" lon="-2.114190">
        <ele>600.6</ele>
        <time>2022-10-16T08:29:25Z</time>
      </trkpt>
      <trkpt lat="38.401530" lon="-2.114144">
        <ele>600.6</ele>
        <time>2022-10-16T08:29:58Z</time>
      </trkpt>
      <trkpt lat="38.401711" lon="-2.114087">
        <ele>598.6</ele>
        <time>2022-10-16T08:30:17Z</time>
      </trkpt>
      <trkpt lat="38.401896" lon="-2.114085">
        <ele>599.9</ele>
        <time>2022-10-16T08:30:33Z</time>
      </trkpt>
      <trkpt lat="38.402062" lon="-2.113990">
        <ele>602.5</ele>
        <time>2022-10-16T08:30:48Z</time>
      </trkpt>
      <trkpt lat="38.402226" lon="-2.113893">
        <ele>600.9</ele>
        <time>2022-10-16T08:31:10Z</time>
      </trkpt>
      <trkpt lat="38.402396" lon="-2.113810">
        <ele>601.5</ele>
        <time>2022-10-16T08:31:29Z</time>
      </trkpt>
      <trkpt lat="38.402545" lon="-2.113679">
        <ele>601.6</ele>
        <time>2022-10-16T08:31:46Z</time>
      </trkpt>
      <trkpt lat="38.402704" lon="-2.113565">
        <ele>601.9</ele>
        <time>2022-10-16T08:32:04Z</time>
      </trkpt>
      <trkpt lat="38.402879" lon="-2.113506">
        <ele>595.6</ele>
        <time>2022-10-16T08:32:21Z</time>
      </trkpt>
      <trkpt lat="38.403064" lon="-2.113465">
        <ele>594.7</ele>
        <time>2022-10-16T08:32:40Z</time>
      </trkpt>
      <trkpt lat="38.403250" lon="-2.113521">
        <ele>597.3</ele>
        <time>2022-10-16T08:32:55Z</time>
      </trkpt>
      <trkpt lat="38.403394" lon="-2.113666">
        <ele>594.7</ele>
        <time>2022-10-16T08:33:12Z</time>
      </trkpt>
      <trkpt lat="38.403446" lon="-2.113887">
        <ele>591.6</ele>
        <time>2022-10-16T08:33:28Z</time>
      </trkpt>
      <trkpt lat="38.403570" lon="-2.114062">
        <ele>590.6</ele>
        <time>2022-10-16T08:33:43Z</time>
      </trkpt>
      <trkpt lat="38.403705" lon="-2.114223">
        <ele>591.9</ele>
        <time>2022-10-16T08:34:00Z</time>
      </trkpt>
      <trkpt lat="38.403710" lon="-2.114461">
        <ele>590.6</ele>
        <time>2022-10-16T08:34:18Z</time>
      </trkpt>
      <trkpt lat="38.403887" lon="-2.114401">
        <ele>593.7</ele>
        <time>2022-10-16T08:34:36Z</time>
      </trkpt>
      <trkpt lat="38.403932" lon="-2.114174">
        <ele>592.7</ele>
        <time>2022-10-16T08:34:55Z</time>
      </trkpt>
      <trkpt lat="38.403976" lon="-2.113949">
        <ele>591.6</ele>
        <time>2022-10-16T08:35:14Z</time>
      </trkpt>
      <trkpt lat="38.403940" lon="-2.113722">
        <ele>585.7</ele>
        <time>2022-10-16T08:35:38Z</time>
      </trkpt>
      <trkpt lat="38.403924" lon="-2.113491">
        <ele>583.6</ele>
        <time>2022-10-16T08:35:59Z</time>
      </trkpt>
      <trkpt lat="38.403815" lon="-2.113306">
        <ele>575.6</ele>
        <time>2022-10-16T08:36:21Z</time>
      </trkpt>
      <trkpt lat="38.403703" lon="-2.113121">
        <ele>572.6</ele>
        <time>2022-10-16T08:36:41Z</time>
      </trkpt>
      <trkpt lat="38.403587" lon="-2.112940">
        <ele>567.9</ele>
        <time>2022-10-16T08:37:02Z</time>
      </trkpt>
      <trkpt lat="38.403578" lon="-2.112710">
        <ele>566.6</ele>
        <time>2022-10-16T08:37:21Z</time>
      </trkpt>
      <trkpt lat="38.403693" lon="-2.112530">
        <ele>568.6</ele>
        <time>2022-10-16T08:37:46Z</time>
      </trkpt>
      <trkpt lat="38.403857" lon="-2.112407">
        <ele>566.6</ele>
        <time>2022-10-16T08:38:07Z</time>
      </trkpt>
      <trkpt lat="38.404026" lon="-2.112315">
        <ele>562.5</ele>
        <time>2022-10-16T08:38:48Z</time>
      </trkpt>
      <trkpt lat="38.403932" lon="-2.112118">
        <ele>551.5</ele>
        <time>2022-10-16T08:39:18Z</time>
      </trkpt>
      <trkpt lat="38.403839" lon="-2.111916">
        <ele>547.6</ele>
        <time>2022-10-16T08:39:49Z</time>
      </trkpt>
      <trkpt lat="38.403769" lon="-2.111704">
        <ele>545.6</ele>
        <time>2022-10-16T08:40:29Z</time>
      </trkpt>
      <trkpt lat="38.403650" lon="-2.111526">
        <ele>538.7</ele>
        <time>2022-10-16T08:40:45Z</time>
      </trkpt>
      <trkpt lat="38.403617" lon="-2.111292">
        <ele>537.6</ele>
        <time>2022-10-16T08:42:08Z</time>
      </trkpt>
      <trkpt lat="38.403652" lon="-2.111057">
        <ele>537.6</ele>
        <time>2022-10-16T08:42:21Z</time>
      </trkpt>
      <trkpt lat="38.403750" lon="-2.110862">
        <ele>535.6</ele>
        <time>2022-10-16T08:42:35Z</time>
      </trkpt>
      <trkpt lat="38.403867" lon="-2.110678">
        <ele>536.6</ele>
        <time>2022-10-16T08:42:49Z</time>
      </trkpt>
      <trkpt lat="38.404050" lon="-2.110639">
        <ele>535.6</ele>
        <time>2022-10-16T08:43:10Z</time>
      </trkpt>
      <trkpt lat="38.404233" lon="-2.110573">
        <ele>533.9</ele>
        <time>2022-10-16T08:43:29Z</time>
      </trkpt>
      <trkpt lat="38.404393" lon="-2.110466">
        <ele>533.6</ele>
        <time>2022-10-16T08:43:44Z</time>
      </trkpt>
      <trkpt lat="38.404537" lon="-2.110306">
        <ele>532.6</ele>
        <time>2022-10-16T08:43:58Z</time>
      </trkpt>
      <trkpt lat="38.404632" lon="-2.110098">
        <ele>531.6</ele>
        <time>2022-10-16T08:44:10Z</time>
      </trkpt>
      <trkpt lat="38.404734" lon="-2.109905">
        <ele>530.6</ele>
        <time>2022-10-16T08:44:27Z</time>
      </trkpt>
      <trkpt lat="38.404805" lon="-2.109684">
        <ele>527.6</ele>
        <time>2022-10-16T08:44:43Z</time>
      </trkpt>
      <trkpt lat="38.404894" lon="-2.109477">
        <ele>526.6</ele>
        <time>2022-10-16T08:45:00Z</time>
      </trkpt>
      <trkpt lat="38.404950" lon="-2.109252">
        <ele>526.5</ele>
        <time>2022-10-16T08:45:16Z</time>
      </trkpt>
      <trkpt lat="38.404996" lon="-2.109028">
        <ele>525.3</ele>
        <time>2022-10-16T08:45:35Z</time>
      </trkpt>
      <trkpt lat="38.405006" lon="-2.108792">
        <ele>521.9</ele>
        <time>2022-10-16T08:45:50Z</time>
      </trkpt>
      <trkpt lat="38.405032" lon="-2.108564">
        <ele>519.6</ele>
        <time>2022-10-16T08:46:09Z</time>
      </trkpt>
      <trkpt lat="38.404979" lon="-2.108337">
        <ele>516.6</ele>
        <time>2022-10-16T08:46:23Z</time>
      </trkpt>
      <trkpt lat="38.404857" lon="-2.108164">
        <ele>520.5</ele>
        <time>2022-10-16T08:47:15Z</time>
      </trkpt>
      <trkpt lat="38.404737" lon="-2.107987">
        <ele>515.7</ele>
        <time>2022-10-16T08:47:29Z</time>
      </trkpt>
      <trkpt lat="38.404714" lon="-2.107759">
        <ele>518.6</ele>
        <time>2022-10-16T08:48:09Z</time>
      </trkpt>
      <trkpt lat="38.404548" lon="-2.107671">
        <ele>512.9</ele>
        <time>2022-10-16T08:50:47Z</time>
      </trkpt>
      <trkpt lat="38.404489" lon="-2.107441">
        <ele>512.3</ele>
        <time>2022-10-16T08:51:03Z</time>
      </trkpt>
      <trkpt lat="38.404457" lon="-2.107209">
        <ele>508.6</ele>
        <time>2022-10-16T08:51:22Z</time>
      </trkpt>
      <trkpt lat="38.404427" lon="-2.106978">
        <ele>503.6</ele>
        <time>2022-10-16T08:51:40Z</time>
      </trkpt>
      <trkpt lat="38.404373" lon="-2.106753">
        <ele>502.7</ele>
        <time>2022-10-16T08:52:33Z</time>
      </trkpt>
      <trkpt lat="38.404302" lon="-2.106538">
        <ele>497.6</ele>
        <time>2022-10-16T08:52:49Z</time>
      </trkpt>
      <trkpt lat="38.404231" lon="-2.106325">
        <ele>496.4</ele>
        <time>2022-10-16T08:53:06Z</time>
      </trkpt>
      <trkpt lat="38.404197" lon="-2.106096">
        <ele>494.6</ele>
        <time>2022-10-16T08:53:26Z</time>
      </trkpt>
      <trkpt lat="38.404293" lon="-2.105900">
        <ele>492.5</ele>
        <time>2022-10-16T08:53:44Z</time>
      </trkpt>
      <trkpt lat="38.404422" lon="-2.105723">
        <ele>489.4</ele>
        <time>2022-10-16T08:54:21Z</time>
      </trkpt>
      <trkpt lat="38.404420" lon="-2.105491">
        <ele>487.6</ele>
        <time>2022-10-16T08:54:37Z</time>
      </trkpt>
      <trkpt lat="38.404438" lon="-2.105252">
        <ele>484.7</ele>
        <time>2022-10-16T08:54:59Z</time>
      </trkpt>
      <trkpt lat="38.404432" lon="-2.105014">
        <ele>483.6</ele>
        <time>2022-10-16T08:55:23Z</time>
      </trkpt>
      <trkpt lat="38.404414" lon="-2.104772">
        <ele>481.6</ele>
        <time>2022-10-16T08:55:39Z</time>
      </trkpt>
      <trkpt lat="38.404377" lon="-2.104548">
        <ele>479.6</ele>
        <time>2022-10-16T08:55:56Z</time>
      </trkpt>
      <trkpt lat="38.404372" lon="-2.104307">
        <ele>480.6</ele>
        <time>2022-10-16T08:56:14Z</time>
      </trkpt>
      <trkpt lat="38.404286" lon="-2.104103">
        <ele>479.7</ele>
        <time>2022-10-16T08:56:34Z</time>
      </trkpt>
      <trkpt lat="38.404126" lon="-2.103984">
        <ele>478.6</ele>
        <time>2022-10-16T08:56:54Z</time>
      </trkpt>
      <trkpt lat="38.404144" lon="-2.103754">
        <ele>482.6</ele>
        <time>2022-10-16T08:58:04Z</time>
      </trkpt>
      <trkpt lat="38.404207" lon="-2.103535">
        <ele>486.5</ele>
        <time>2022-10-16T08:58:25Z</time>
      </trkpt>
      <trkpt lat="38.404335" lon="-2.103369">
        <ele>487.7</ele>
        <time>2022-10-16T08:58:49Z</time>
      </trkpt>
      <trkpt lat="38.404431" lon="-2.103170">
        <ele>491.5</ele>
        <time>2022-10-16T08:59:11Z</time>
      </trkpt>
      <trkpt lat="38.404434" lon="-2.102939">
        <ele>492.5</ele>
        <time>2022-10-16T08:59:29Z</time>
      </trkpt>
      <trkpt lat="38.404497" lon="-2.102717">
        <ele>497.5</ele>
        <time>2022-10-16T08:59:50Z</time>
      </trkpt>
      <trkpt lat="38.404489" lon="-2.102473">
        <ele>500.5</ele>
        <time>2022-10-16T09:00:12Z</time>
      </trkpt>
      <trkpt lat="38.404431" lon="-2.102248">
        <ele>501.7</ele>
        <time>2022-10-16T09:00:30Z</time>
      </trkpt>
      <trkpt lat="38.404371" lon="-2.102024">
        <ele>499.6</ele>
        <time>2022-10-16T09:00:49Z</time>
      </trkpt>
      <trkpt lat="38.404331" lon="-2.101792">
        <ele>499.6</ele>
        <time>2022-10-16T09:01:04Z</time>
      </trkpt>
      <trkpt lat="38.404298" lon="-2.101565">
        <ele>493.4</ele>
        <time>2022-10-16T09:01:23Z</time>
      </trkpt>
      <trkpt lat="38.404305" lon="-2.101320">
        <ele>500.0</ele>
        <time>2022-10-16T09:01:35Z</time>
      </trkpt>
      <trkpt lat="38.404296" lon="-2.101088">
        <ele>499.6</ele>
        <time>2022-10-16T09:01:49Z</time>
      </trkpt>
      <trkpt lat="38.404278" lon="-2.100858">
        <ele>499.6</ele>
        <time>2022-10-16T09:02:03Z</time>
      </trkpt>
      <trkpt lat="38.404219" lon="-2.100640">
        <ele>498.6</ele>
        <time>2022-10-16T09:02:16Z</time>
      </trkpt>
      <trkpt lat="38.404203" lon="-2.100407">
        <ele>496.6</ele>
        <time>2022-10-16T09:02:34Z</time>
      </trkpt>
      <trkpt lat="38.404363" lon="-2.100269">
        <ele>500.0</ele>
        <time>2022-10-16T09:02:48Z</time>
      </trkpt>
      <trkpt lat="38.404483" lon="-2.100097">
        <ele>499.6</ele>
        <time>2022-10-16T09:03:03Z</time>
      </trkpt>
      <trkpt lat="38.404514" lon="-2.099870">
        <ele>502.3</ele>
        <time>2022-10-16T09:03:22Z</time>
      </trkpt>
      <trkpt lat="38.404538" lon="-2.099638">
        <ele>500.6</ele>
        <time>2022-10-16T09:03:35Z</time>
      </trkpt>
      <trkpt lat="38.404556" lon="-2.099401">
        <ele>502.6</ele>
        <time>2022-10-16T09:03:48Z</time>
      </trkpt>
      <trkpt lat="38.404710" lon="-2.099274">
        <ele>503.6</ele>
        <time>2022-10-16T09:04:00Z</time>
      </trkpt>
      <trkpt lat="38.404876" lon="-2.099166">
        <ele>509.6</ele>
        <time>2022-10-16T09:04:14Z</time>
      </trkpt>
      <trkpt lat="38.405034" lon="-2.099049">
        <ele>513.0</ele>
        <time>2022-10-16T09:04:32Z</time>
      </trkpt>
      <trkpt lat="38.405151" lon="-2.098859">
        <ele>508.0</ele>
        <time>2022-10-16T09:05:10Z</time>
      </trkpt>
      <trkpt lat="38.405199" lon="-2.098632">
        <ele>507.7</ele>
        <time>2022-10-16T09:05:26Z</time>
      </trkpt>
      <trkpt lat="38.405149" lon="-2.098407">
        <ele>499.7</ele>
        <time>2022-10-16T09:06:19Z</time>
      </trkpt>
      <trkpt lat="38.405051" lon="-2.098203">
        <ele>500.0</ele>
        <time>2022-10-16T09:06:34Z</time>
      </trkpt>
      <trkpt lat="38.404982" lon="-2.097987">
        <ele>500.6</ele>
        <time>2022-10-16T09:06:52Z</time>
      </trkpt>
      <trkpt lat="38.405077" lon="-2.097790">
        <ele>503.6</ele>
        <time>2022-10-16T09:07:03Z</time>
      </trkpt>
      <trkpt lat="38.405236" lon="-2.097672">
        <ele>504.6</ele>
        <time>2022-10-16T09:07:13Z</time>
      </trkpt>
      <trkpt lat="38.405223" lon="-2.097437">
        <ele>498.7</ele>
        <time>2022-10-16T09:07:31Z</time>
      </trkpt>
      <trkpt lat="38.405143" lon="-2.097231">
        <ele>497.7</ele>
        <time>2022-10-16T09:07:48Z</time>
      </trkpt>
      <trkpt lat="38.405008" lon="-2.097077">
        <ele>492.2</ele>
        <time>2022-10-16T09:08:20Z</time>
      </trkpt>
      <trkpt lat="38.404852" lon="-2.096957">
        <ele>488.7</ele>
        <time>2022-10-16T09:08:40Z</time>
      </trkpt>
      <trkpt lat="38.404816" lon="-2.096726">
        <ele>488.4</ele>
        <time>2022-10-16T09:08:54Z</time>
      </trkpt>
      <trkpt lat="38.404775" lon="-2.096498">
        <ele>485.6</ele>
        <time>2022-10-16T09:09:16Z</time>
      </trkpt>
      <trkpt lat="38.404727" lon="-2.096276">
        <ele>480.7</ele>
        <time>2022-10-16T09:09:50Z</time>
      </trkpt>
      <trkpt lat="38.404601" lon="-2.096109">
        <ele>480.6</ele>
        <time>2022-10-16T09:10:09Z</time>
      </trkpt>
      <trkpt lat="38.404498" lon="-2.095912">
        <ele>481.0</ele>
        <time>2022-10-16T09:10:28Z</time>
      </trkpt>
      <trkpt lat="38.404440" lon="-2.095693">
        <ele>484.6</ele>
        <time>2022-10-16T09:11:13Z</time>
      </trkpt>
      <trkpt lat="38.404325" lon="-2.095509">
        <ele>486.7</ele>
        <time>2022-10-16T09:11:27Z</time>
      </trkpt>
      <trkpt lat="38.404222" lon="-2.095317">
        <ele>484.7</ele>
        <time>2022-10-16T09:11:43Z</time>
      </trkpt>
      <trkpt lat="38.404103" lon="-2.095143">
        <ele>480.7</ele>
        <time>2022-10-16T09:12:01Z</time>
      </trkpt>
      <trkpt lat="38.403993" lon="-2.094957">
        <ele>479.6</ele>
        <time>2022-10-16T09:12:19Z</time>
      </trkpt>
      <trkpt lat="38.403871" lon="-2.094780">
        <ele>477.8</ele>
        <time>2022-10-16T09:12:38Z</time>
      </trkpt>
      <trkpt lat="38.403740" lon="-2.094621">
        <ele>472.7</ele>
        <time>2022-10-16T09:12:51Z</time>
      </trkpt>
      <trkpt lat="38.403594" lon="-2.094468">
        <ele>470.6</ele>
        <time>2022-10-16T09:13:08Z</time>
      </trkpt>
      <trkpt lat="38.403455" lon="-2.094316">
        <ele>476.6</ele>
        <time>2022-10-16T09:13:28Z</time>
      </trkpt>
      <trkpt lat="38.403320" lon="-2.094163">
        <ele>480.7</ele>
        <time>2022-10-16T09:14:29Z</time>
      </trkpt>
      <trkpt lat="38.403260" lon="-2.093942">
        <ele>486.7</ele>
        <time>2022-10-16T09:15:22Z</time>
      </trkpt>
      <trkpt lat="38.403225" lon="-2.093713">
        <ele>489.6</ele>
        <time>2022-10-16T09:15:37Z</time>
      </trkpt>
      <trkpt lat="38.403225" lon="-2.093478">
        <ele>489.6</ele>
        <time>2022-10-16T09:15:52Z</time>
      </trkpt>
      <trkpt lat="38.403291" lon="-2.093264">
        <ele>491.6</ele>
        <time>2022-10-16T09:16:05Z</time>
      </trkpt>
      <trkpt lat="38.403384" lon="-2.093063">
        <ele>489.0</ele>
        <time>2022-10-16T09:16:21Z</time>
      </trkpt>
      <trkpt lat="38.403503" lon="-2.092885">
        <ele>488.7</ele>
        <time>2022-10-16T09:16:32Z</time>
      </trkpt>
      <trkpt lat="38.403553" lon="-2.092664">
        <ele>484.6</ele>
        <time>2022-10-16T09:18:02Z</time>
      </trkpt>
      <trkpt lat="38.403680" lon="-2.092500">
        <ele>483.7</ele>
        <time>2022-10-16T09:18:24Z</time>
      </trkpt>
      <trkpt lat="38.403734" lon="-2.092262">
        <ele>482.7</ele>
        <time>2022-10-16T09:18:39Z</time>
      </trkpt>
      <trkpt lat="38.403779" lon="-2.092028">
        <ele>484.6</ele>
        <time>2022-10-16T09:18:51Z</time>
      </trkpt>
      <trkpt lat="38.403807" lon="-2.091800">
        <ele>484.6</ele>
        <time>2022-10-16T09:19:04Z</time>
      </trkpt>
      <trkpt lat="38.403845" lon="-2.091574">
        <ele>484.7</ele>
        <time>2022-10-16T09:19:16Z</time>
      </trkpt>
      <trkpt lat="38.403882" lon="-2.091323">
        <ele>484.7</ele>
        <time>2022-10-16T09:19:30Z</time>
      </trkpt>
      <trkpt lat="38.403945" lon="-2.091104">
        <ele>486.7</ele>
        <time>2022-10-16T09:19:42Z</time>
      </trkpt>
      <trkpt lat="38.403935" lon="-2.090864">
        <ele>483.8</ele>
        <time>2022-10-16T09:19:55Z</time>
      </trkpt>
      <trkpt lat="38.403919" lon="-2.090629">
        <ele>483.7</ele>
        <time>2022-10-16T09:20:09Z</time>
      </trkpt>
      <trkpt lat="38.403910" lon="-2.090394">
        <ele>485.7</ele>
        <time>2022-10-16T09:20:23Z</time>
      </trkpt>
      <trkpt lat="38.404037" lon="-2.090226">
        <ele>481.7</ele>
        <time>2022-10-16T09:21:07Z</time>
      </trkpt>
      <trkpt lat="38.404132" lon="-2.090017">
        <ele>482.6</ele>
        <time>2022-10-16T09:21:20Z</time>
      </trkpt>
      <trkpt lat="38.404275" lon="-2.089865">
        <ele>487.7</ele>
        <time>2022-10-16T09:21:34Z</time>
      </trkpt>
      <trkpt lat="38.404455" lon="-2.089786">
        <ele>489.7</ele>
        <time>2022-10-16T09:21:47Z</time>
      </trkpt>
      <trkpt lat="38.404639" lon="-2.089744">
        <ele>486.8</ele>
        <time>2022-10-16T09:22:03Z</time>
      </trkpt>
      <trkpt lat="38.404801" lon="-2.089637">
        <ele>486.6</ele>
        <time>2022-10-16T09:22:17Z</time>
      </trkpt>
      <trkpt lat="38.404953" lon="-2.089504">
        <ele>488.7</ele>
        <time>2022-10-16T09:22:32Z</time>
      </trkpt>
      <trkpt lat="38.405070" lon="-2.089316">
        <ele>486.7</ele>
        <time>2022-10-16T09:22:44Z</time>
      </trkpt>
      <trkpt lat="38.405247" lon="-2.089238">
        <ele>487.7</ele>
        <time>2022-10-16T09:22:57Z</time>
      </trkpt>
      <trkpt lat="38.405419" lon="-2.089171">
        <ele>486.9</ele>
        <time>2022-10-16T09:23:13Z</time>
      </trkpt>
      <trkpt lat="38.405591" lon="-2.089093">
        <ele>485.7</ele>
        <time>2022-10-16T09:23:28Z</time>
      </trkpt>
      <trkpt lat="38.405767" lon="-2.089143">
        <ele>486.7</ele>
        <time>2022-10-16T09:23:41Z</time>
      </trkpt>
      <trkpt lat="38.405952" lon="-2.089108">
        <ele>487.7</ele>
        <time>2022-10-16T09:23:54Z</time>
      </trkpt>
      <trkpt lat="38.406135" lon="-2.089108">
        <ele>485.7</ele>
        <time>2022-10-16T09:24:24Z</time>
      </trkpt>
      <trkpt lat="38.406314" lon="-2.089139">
        <ele>484.7</ele>
        <time>2022-10-16T09:24:37Z</time>
      </trkpt>
      <trkpt lat="38.406500" lon="-2.089133">
        <ele>481.7</ele>
        <time>2022-10-16T09:25:03Z</time>
      </trkpt>
      <trkpt lat="38.406671" lon="-2.089198">
        <ele>478.7</ele>
        <time>2022-10-16T09:25:31Z</time>
      </trkpt>
      <trkpt lat="38.406838" lon="-2.089310">
        <ele>480.6</ele>
        <time>2022-10-16T09:45:48Z</time>
      </trkpt>
      <trkpt lat="38.407023" lon="-2.089307">
        <ele>479.7</ele>
        <time>2022-10-16T09:46:06Z</time>
      </trkpt>
      <trkpt lat="38.407211" lon="-2.089294">
        <ele>478.0</ele>
        <time>2022-10-16T09:46:37Z</time>
      </trkpt>
      <trkpt lat="38.407365" lon="-2.089429">
        <ele>466.6</ele>
        <time>2022-10-16T09:48:54Z</time>
      </trkpt>
      <trkpt lat="38.407171" lon="-2.089367">
        <ele>476.7</ele>
        <time>2022-10-16T09:52:25Z</time>
      </trkpt>
      <trkpt lat="38.406988" lon="-2.089373">
        <ele>477.7</ele>
        <time>2022-10-16T09:52:36Z</time>
      </trkpt>
      <trkpt lat="38.406808" lon="-2.089339">
        <ele>484.2</ele>
        <time>2022-10-16T09:52:49Z</time>
      </trkpt>
      <trkpt lat="38.406629" lon="-2.089299">
        <ele>488.7</ele>
        <time>2022-10-16T09:53:06Z</time>
      </trkpt>
      <trkpt lat="38.406577" lon="-2.089071">
        <ele>487.7</ele>
        <time>2022-10-16T09:54:30Z</time>
      </trkpt>
      <trkpt lat="38.406554" lon="-2.088842">
        <ele>492.6</ele>
        <time>2022-10-16T09:55:16Z</time>
      </trkpt>
      <trkpt lat="38.406657" lon="-2.088645">
        <ele>493.7</ele>
        <time>2022-10-16T09:56:06Z</time>
      </trkpt>
      <trkpt lat="38.406772" lon="-2.088462">
        <ele>499.5</ele>
        <time>2022-10-16T09:56:29Z</time>
      </trkpt>
      <trkpt lat="38.406884" lon="-2.088279">
        <ele>502.7</ele>
        <time>2022-10-16T09:56:48Z</time>
      </trkpt>
      <trkpt lat="38.407006" lon="-2.088108">
        <ele>505.6</ele>
        <time>2022-10-16T09:57:14Z</time>
      </trkpt>
      <trkpt lat="38.407074" lon="-2.087888">
        <ele>509.6</ele>
        <time>2022-10-16T09:57:38Z</time>
      </trkpt>
      <trkpt lat="38.407160" lon="-2.087681">
        <ele>513.6</ele>
        <time>2022-10-16T09:57:55Z</time>
      </trkpt>
      <trkpt lat="38.407217" lon="-2.087463">
        <ele>516.0</ele>
        <time>2022-10-16T09:58:12Z</time>
      </trkpt>
      <trkpt lat="38.407216" lon="-2.087230">
        <ele>519.4</ele>
        <time>2022-10-16T09:58:27Z</time>
      </trkpt>
      <trkpt lat="38.407223" lon="-2.087000">
        <ele>522.7</ele>
        <time>2022-10-16T09:58:51Z</time>
      </trkpt>
      <trkpt lat="38.407293" lon="-2.086787">
        <ele>520.7</ele>
        <time>2022-10-16T09:59:19Z</time>
      </trkpt>
      <trkpt lat="38.407392" lon="-2.086593">
        <ele>523.7</ele>
        <time>2022-10-16T10:00:00Z</time>
      </trkpt>
      <trkpt lat="38.407430" lon="-2.086364">
        <ele>528.7</ele>
        <time>2022-10-16T10:00:27Z</time>
      </trkpt>
      <trkpt lat="38.407487" lon="-2.086145">
        <ele>534.4</ele>
        <time>2022-10-16T10:01:04Z</time>
      </trkpt>
      <trkpt lat="38.407524" lon="-2.085917">
        <ele>540.5</ele>
        <time>2022-10-16T10:01:49Z</time>
      </trkpt>
      <trkpt lat="38.407504" lon="-2.085687">
        <ele>548.7</ele>
        <time>2022-10-16T10:02:46Z</time>
      </trkpt>
      <trkpt lat="38.407511" lon="-2.085454">
        <ele>553.7</ele>
        <time>2022-10-16T10:03:14Z</time>
      </trkpt>
      <trkpt lat="38.407565" lon="-2.085234">
        <ele>557.8</ele>
        <time>2022-10-16T10:04:36Z</time>
      </trkpt>
      <trkpt lat="38.407545" lon="-2.085005">
        <ele>558.7</ele>
        <time>2022-10-16T10:04:55Z</time>
      </trkpt>
      <trkpt lat="38.407498" lon="-2.084779">
        <ele>559.3</ele>
        <time>2022-10-16T10:05:17Z</time>
      </trkpt>
      <trkpt lat="38.407454" lon="-2.084552">
        <ele>557.0</ele>
        <time>2022-10-16T10:05:38Z</time>
      </trkpt>
      <trkpt lat="38.407290" lon="-2.084434">
        <ele>557.7</ele>
        <time>2022-10-16T10:06:00Z</time>
      </trkpt>
      <trkpt lat="38.407165" lon="-2.084269">
        <ele>554.7</ele>
        <time>2022-10-16T10:06:17Z</time>
      </trkpt>
      <trkpt lat="38.407001" lon="-2.084143">
        <ele>556.4</ele>
        <time>2022-10-16T10:06:34Z</time>
      </trkpt>
      <trkpt lat="38.406861" lon="-2.083995">
        <ele>553.7</ele>
        <time>2022-10-16T10:06:53Z</time>
      </trkpt>
      <trkpt lat="38.406719" lon="-2.083850">
        <ele>550.9</ele>
        <time>2022-10-16T10:07:12Z</time>
      </trkpt>
      <trkpt lat="38.406532" lon="-2.083822">
        <ele>543.7</ele>
        <time>2022-10-16T10:07:39Z</time>
      </trkpt>
      <trkpt lat="38.406356" lon="-2.083768">
        <ele>539.8</ele>
        <time>2022-10-16T10:07:59Z</time>
      </trkpt>
      <trkpt lat="38.406182" lon="-2.083686">
        <ele>539.6</ele>
        <time>2022-10-16T10:08:17Z</time>
      </trkpt>
      <trkpt lat="38.406000" lon="-2.083731">
        <ele>534.7</ele>
        <time>2022-10-16T10:08:33Z</time>
      </trkpt>
      <trkpt lat="38.405819" lon="-2.083759">
        <ele>533.0</ele>
        <time>2022-10-16T10:08:54Z</time>
      </trkpt>
      <trkpt lat="38.405640" lon="-2.083828">
        <ele>529.0</ele>
        <time>2022-10-16T10:09:10Z</time>
      </trkpt>
      <trkpt lat="38.405461" lon="-2.083793">
        <ele>527.8</ele>
        <time>2022-10-16T10:10:26Z</time>
      </trkpt>
      <trkpt lat="38.405382" lon="-2.083577">
        <ele>528.6</ele>
        <time>2022-10-16T10:10:42Z</time>
      </trkpt>
      <trkpt lat="38.405361" lon="-2.083340">
        <ele>530.7</ele>
        <time>2022-10-16T10:11:00Z</time>
      </trkpt>
      <trkpt lat="38.405287" lon="-2.083121">
        <ele>528.7</ele>
        <time>2022-10-16T10:11:19Z</time>
      </trkpt>
      <trkpt lat="38.405233" lon="-2.082898">
        <ele>526.8</ele>
        <time>2022-10-16T10:11:39Z</time>
      </trkpt>
      <trkpt lat="38.405141" lon="-2.082688">
        <ele>519.7</ele>
        <time>2022-10-16T10:11:59Z</time>
      </trkpt>
      <trkpt lat="38.405010" lon="-2.082526">
        <ele>513.7</ele>
        <time>2022-10-16T10:12:32Z</time>
      </trkpt>
      <trkpt lat="38.404853" lon="-2.082406">
        <ele>510.7</ele>
        <time>2022-10-16T10:12:53Z</time>
      </trkpt>
      <trkpt lat="38.404710" lon="-2.082266">
        <ele>510.6</ele>
        <time>2022-10-16T10:13:12Z</time>
      </trkpt>
      <trkpt lat="38.404560" lon="-2.082132">
        <ele>511.7</ele>
        <time>2022-10-16T10:13:28Z</time>
      </trkpt>
      <trkpt lat="38.404478" lon="-2.081926">
        <ele>509.6</ele>
        <time>2022-10-16T10:13:53Z</time>
      </trkpt>
      <trkpt lat="38.404392" lon="-2.081708">
        <ele>503.0</ele>
        <time>2022-10-16T10:14:14Z</time>
      </trkpt>
      <trkpt lat="38.404414" lon="-2.081470">
        <ele>499.8</ele>
        <time>2022-10-16T10:14:33Z</time>
      </trkpt>
      <trkpt lat="38.404373" lon="-2.081236">
        <ele>496.4</ele>
        <time>2022-10-16T10:14:54Z</time>
      </trkpt>
      <trkpt lat="38.404288" lon="-2.081025">
        <ele>496.3</ele>
        <time>2022-10-16T10:15:15Z</time>
      </trkpt>
      <trkpt lat="38.404201" lon="-2.080822">
        <ele>500.7</ele>
        <time>2022-10-16T10:15:39Z</time>
      </trkpt>
      <trkpt lat="38.404145" lon="-2.080594">
        <ele>499.8</ele>
        <time>2022-10-16T10:15:57Z</time>
      </trkpt>
      <trkpt lat="38.404277" lon="-2.080429">
        <ele>498.0</ele>
        <time>2022-10-16T10:16:18Z</time>
      </trkpt>
      <trkpt lat="38.404285" lon="-2.080198">
        <ele>494.0</ele>
        <time>2022-10-16T10:17:09Z</time>
      </trkpt>
      <trkpt lat="38.404423" lon="-2.080049">
        <ele>489.6</ele>
        <time>2022-10-16T10:18:30Z</time>
      </trkpt>
      <trkpt lat="38.404443" lon="-2.079813">
        <ele>476.7</ele>
        <time>2022-10-16T10:19:33Z</time>
      </trkpt>
      <trkpt lat="38.404435" lon="-2.079579">
        <ele>479.7</ele>
        <time>2022-10-16T10:19:55Z</time>
      </trkpt>
      <trkpt lat="38.404364" lon="-2.079359">
        <ele>474.8</ele>
        <time>2022-10-16T10:20:22Z</time>
      </trkpt>
      <trkpt lat="38.404368" lon="-2.079128">
        <ele>474.7</ele>
        <time>2022-10-16T10:20:50Z</time>
      </trkpt>
      <trkpt lat="38.404377" lon="-2.078884">
        <ele>473.7</ele>
        <time>2022-10-16T10:21:20Z</time>
      </trkpt>
      <trkpt lat="38.404341" lon="-2.078650">
        <ele>476.7</ele>
        <time>2022-10-16T10:21:42Z</time>
      </trkpt>
      <trkpt lat="38.404280" lon="-2.078434">
        <ele>475.7</ele>
        <time>2022-10-16T10:22:02Z</time>
      </trkpt>
      <trkpt lat="38.404420" lon="-2.078289">
        <ele>480.7</ele>
        <time>2022-10-16T10:25:39Z</time>
      </trkpt>
      <trkpt lat="38.404397" lon="-2.078059">
        <ele>478.4</ele>
        <time>2022-10-16T10:26:37Z</time>
      </trkpt>
      <trkpt lat="38.404355" lon="-2.077832">
        <ele>478.7</ele>
        <time>2022-10-16T10:26:57Z</time>
      </trkpt>
      <trkpt lat="38.404300" lon="-2.077600">
        <ele>475.7</ele>
        <time>2022-10-16T10:28:37Z</time>
      </trkpt>
      <trkpt lat="38.404261" lon="-2.077374">
        <ele>476.8</ele>
        <time>2022-10-16T10:29:00Z</time>
      </trkpt>
      <trkpt lat="38.404265" lon="-2.077136">
        <ele>477.7</ele>
        <time>2022-10-16T10:29:18Z</time>
      </trkpt>
      <trkpt lat="38.404295" lon="-2.076905">
        <ele>474.0</ele>
        <time>2022-10-16T10:29:37Z</time>
      </trkpt>
      <trkpt lat="38.404330" lon="-2.076674">
        <ele>473.5</ele>
        <time>2022-10-16T10:29:59Z</time>
      </trkpt>
      <trkpt lat="38.404313" lon="-2.076438">
        <ele>475.1</ele>
        <time>2022-10-16T10:30:19Z</time>
      </trkpt>
      <trkpt lat="38.404409" lon="-2.076242">
        <ele>474.4</ele>
        <time>2022-10-16T10:30:36Z</time>
      </trkpt>
      <trkpt lat="38.404499" lon="-2.076030">
        <ele>479.0</ele>
        <time>2022-10-16T10:30:56Z</time>
      </trkpt>
      <trkpt lat="38.404593" lon="-2.075826">
        <ele>479.8</ele>
        <time>2022-10-16T10:31:23Z</time>
      </trkpt>
      <trkpt lat="38.404720" lon="-2.075660">
        <ele>475.8</ele>
        <time>2022-10-16T10:31:44Z</time>
      </trkpt>
      <trkpt lat="38.404810" lon="-2.075457">
        <ele>475.7</ele>
        <time>2022-10-16T10:32:00Z</time>
      </trkpt>
      <trkpt lat="38.404808" lon="-2.075226">
        <ele>478.7</ele>
        <time>2022-10-16T10:32:20Z</time>
      </trkpt>
      <trkpt lat="38.404839" lon="-2.074991">
        <ele>482.4</ele>
        <time>2022-10-16T10:32:39Z</time>
      </trkpt>
      <trkpt lat="38.404948" lon="-2.074801">
        <ele>483.8</ele>
        <time>2022-10-16T10:32:55Z</time>
      </trkpt>
      <trkpt lat="38.405052" lon="-2.074606">
        <ele>478.7</ele>
        <time>2022-10-16T10:33:17Z</time>
      </trkpt>
      <trkpt lat="38.405182" lon="-2.074444">
        <ele>478.7</ele>
        <time>2022-10-16T10:33:31Z</time>
      </trkpt>
      <trkpt lat="38.405292" lon="-2.074257">
        <ele>476.7</ele>
        <time>2022-10-16T10:33:50Z</time>
      </trkpt>
      <trkpt lat="38.405397" lon="-2.074054">
        <ele>471.8</ele>
        <time>2022-10-16T10:34:05Z</time>
      </trkpt>
      <trkpt lat="38.405543" lon="-2.073906">
        <ele>471.7</ele>
        <time>2022-10-16T10:34:21Z</time>
      </trkpt>
      <trkpt lat="38.405698" lon="-2.073779">
        <ele>472.6</ele>
        <time>2022-10-16T10:34:38Z</time>
      </trkpt>
      <trkpt lat="38.405844" lon="-2.073628">
        <ele>473.8</ele>
        <time>2022-10-16T10:34:54Z</time>
      </trkpt>
      <trkpt lat="38.405985" lon="-2.073483">
        <ele>474.7</ele>
        <time>2022-10-16T10:35:11Z</time>
      </trkpt>
      <trkpt lat="38.406101" lon="-2.073306">
        <ele>481.9</ele>
        <time>2022-10-16T10:35:35Z</time>
      </trkpt>
      <trkpt lat="38.406249" lon="-2.073159">
        <ele>481.5</ele>
        <time>2022-10-16T10:35:56Z</time>
      </trkpt>
      <trkpt lat="38.406419" lon="-2.073000">
        <ele>487.7</ele>
        <time>2022-10-16T10:36:28Z</time>
      </trkpt>
      <trkpt lat="38.406603" lon="-2.073058">
        <ele>486.7</ele>
        <time>2022-10-16T10:36:56Z</time>
      </trkpt>
      <trkpt lat="38.406648" lon="-2.072825">
        <ele>498.6</ele>
        <time>2022-10-16T10:37:55Z</time>
      </trkpt>
      <trkpt lat="38.406634" lon="-2.072523">
        <ele>506.0</ele>
        <time>2022-10-16T10:38:32Z</time>
      </trkpt>
      <trkpt lat="38.406717" lon="-2.072398">
        <ele>507.4</ele>
        <time>2022-10-16T10:38:52Z</time>
      </trkpt>
      <trkpt lat="38.406928" lon="-2.072462">
        <ele>511.7</ele>
        <time>2022-10-16T10:39:16Z</time>
      </trkpt>
      <trkpt lat="38.407016" lon="-2.072223">
        <ele>513.0</ele>
        <time>2022-10-16T10:40:58Z</time>
      </trkpt>
      <trkpt lat="38.407159" lon="-2.072040">
        <ele>505.8</ele>
        <time>2022-10-16T10:41:30Z</time>
      </trkpt>
      <trkpt lat="38.407431" lon="-2.071934">
        <ele>499.7</ele>
        <time>2022-10-16T10:42:11Z</time>
      </trkpt>
      <trkpt lat="38.407421" lon="-2.072213">
        <ele>482.8</ele>
        <time>2022-10-16T10:43:28Z</time>
      </trkpt>
      <trkpt lat="38.407710" lon="-2.071942">
        <ele>479.8</ele>
        <time>2022-10-16T10:44:18Z</time>
      </trkpt>
      <trkpt lat="38.407749" lon="-2.072117">
        <ele>473.5</ele>
        <time>2022-10-16T10:44:43Z</time>
      </trkpt>
      <trkpt lat="38.408048" lon="-2.072125">
        <ele>471.1</ele>
        <time>2022-10-16T10:45:03Z</time>
      </trkpt>
      <trkpt lat="38.408306" lon="-2.072149">
        <ele>466.9</ele>
        <time>2022-10-16T10:45:25Z</time>
      </trkpt>
      <trkpt lat="38.408441" lon="-2.072053">
        <ele>466.3</ele>
        <time>2022-10-16T10:45:38Z</time>
      </trkpt>
      <trkpt lat="38.408600" lon="-2.071954">
        <ele>471.7</ele>
        <time>2022-10-16T10:46:02Z</time>
      </trkpt>
      <trkpt lat="38.408783" lon="-2.071918">
        <ele>475.7</ele>
        <time>2022-10-16T10:46:25Z</time>
      </trkpt>
      <trkpt lat="38.408977" lon="-2.071947">
        <ele>472.1</ele>
        <time>2022-10-16T10:46:44Z</time>
      </trkpt>
      <trkpt lat="38.409172" lon="-2.071979">
        <ele>463.7</ele>
        <time>2022-10-16T10:47:01Z</time>
      </trkpt>
      <trkpt lat="38.409407" lon="-2.071860">
        <ele>464.6</ele>
        <time>2022-10-16T10:47:16Z</time>
      </trkpt>
      <trkpt lat="38.409525" lon="-2.071900">
        <ele>465.6</ele>
        <time>2022-10-16T10:47:38Z</time>
      </trkpt>
      <trkpt lat="38.409725" lon="-2.071799">
        <ele>470.8</ele>
        <time>2022-10-16T10:47:56Z</time>
      </trkpt>
      <trkpt lat="38.409858" lon="-2.071754">
        <ele>465.5</ele>
        <time>2022-10-16T10:48:15Z</time>
      </trkpt>
      <trkpt lat="38.410055" lon="-2.071775">
        <ele>465.2</ele>
        <time>2022-10-16T10:48:34Z</time>
      </trkpt>
      <trkpt lat="38.410228" lon="-2.071839">
        <ele>464.3</ele>
        <time>2022-10-16T10:48:57Z</time>
      </trkpt>
      <trkpt lat="38.410437" lon="-2.071881">
        <ele>470.4</ele>
        <time>2022-10-16T10:49:35Z</time>
      </trkpt>
      <trkpt lat="38.410558" lon="-2.071815">
        <ele>463.8</ele>
        <time>2022-10-16T10:49:56Z</time>
      </trkpt>
      <trkpt lat="38.410799" lon="-2.071886">
        <ele>468.0</ele>
        <time>2022-10-16T10:50:29Z</time>
      </trkpt>
      <trkpt lat="38.411021" lon="-2.071862">
        <ele>466.7</ele>
        <time>2022-10-16T10:50:56Z</time>
      </trkpt>
      <trkpt lat="38.411179" lon="-2.071791">
        <ele>468.4</ele>
        <time>2022-10-16T10:51:12Z</time>
      </trkpt>
      <trkpt lat="38.411383" lon="-2.071770">
        <ele>469.8</ele>
        <time>2022-10-16T10:51:28Z</time>
      </trkpt>
      <trkpt lat="38.411515" lon="-2.071634">
        <ele>472.7</ele>
        <time>2022-10-16T10:51:45Z</time>
      </trkpt>
      <trkpt lat="38.411686" lon="-2.071502">
        <ele>467.8</ele>
        <time>2022-10-16T10:52:03Z</time>
      </trkpt>
      <trkpt lat="38.411845" lon="-2.071344">
        <ele>470.0</ele>
        <time>2022-10-16T10:52:23Z</time>
      </trkpt>
      <trkpt lat="38.411963" lon="-2.071181">
        <ele>477.8</ele>
        <time>2022-10-16T10:53:23Z</time>
      </trkpt>
      <trkpt lat="38.412011" lon="-2.070944">
        <ele>477.7</ele>
        <time>2022-10-16T10:54:07Z</time>
      </trkpt>
      <trkpt lat="38.411985" lon="-2.070692">
        <ele>480.7</ele>
        <time>2022-10-16T10:54:41Z</time>
      </trkpt>
      <trkpt lat="38.412042" lon="-2.070480">
        <ele>485.8</ele>
        <time>2022-10-16T10:55:14Z</time>
      </trkpt>
      <trkpt lat="38.412189" lon="-2.070489">
        <ele>484.6</ele>
        <time>2022-10-16T10:55:40Z</time>
      </trkpt>
      <trkpt lat="38.412304" lon="-2.070198">
        <ele>488.6</ele>
        <time>2022-10-16T10:56:03Z</time>
      </trkpt>
      <trkpt lat="38.412354" lon="-2.070015">
        <ele>491.6</ele>
        <time>2022-10-16T10:56:26Z</time>
      </trkpt>
      <trkpt lat="38.412284" lon="-2.069804">
        <ele>495.8</ele>
        <time>2022-10-16T10:56:50Z</time>
      </trkpt>
      <trkpt lat="38.412456" lon="-2.069593">
        <ele>498.5</ele>
        <time>2022-10-16T10:57:19Z</time>
      </trkpt>
      <trkpt lat="38.412497" lon="-2.069499">
        <ele>499.0</ele>
        <time>2022-10-16T10:58:01Z</time>
      </trkpt>
      <trkpt lat="38.412322" lon="-2.069330">
        <ele>494.1</ele>
        <time>2022-10-16T10:58:25Z</time>
      </trkpt>
      <trkpt lat="38.412360" lon="-2.068977">
        <ele>489.7</ele>
        <time>2022-10-16T10:58:48Z</time>
      </trkpt>
      <trkpt lat="38.412163" lon="-2.068855">
        <ele>490.9</ele>
        <time>2022-10-16T10:59:14Z</time>
      </trkpt>
      <trkpt lat="38.412014" lon="-2.068689">
        <ele>493.8</ele>
        <time>2022-10-16T10:59:37Z</time>
      </trkpt>
      <trkpt lat="38.411817" lon="-2.068600">
        <ele>489.1</ele>
        <time>2022-10-16T10:59:54Z</time>
      </trkpt>
      <trkpt lat="38.411642" lon="-2.068568">
        <ele>489.8</ele>
        <time>2022-10-16T11:00:09Z</time>
      </trkpt>
      <trkpt lat="38.411525" lon="-2.068429">
        <ele>487.8</ele>
        <time>2022-10-16T11:00:29Z</time>
      </trkpt>
      <trkpt lat="38.411356" lon="-2.068308">
        <ele>486.2</ele>
        <time>2022-10-16T11:00:53Z</time>
      </trkpt>
      <trkpt lat="38.411160" lon="-2.068178">
        <ele>487.1</ele>
        <time>2022-10-16T11:01:17Z</time>
      </trkpt>
      <trkpt lat="38.411112" lon="-2.067942">
        <ele>486.8</ele>
        <time>2022-10-16T11:01:44Z</time>
      </trkpt>
      <trkpt lat="38.410973" lon="-2.067773">
        <ele>484.0</ele>
        <time>2022-10-16T11:02:05Z</time>
      </trkpt>
      <trkpt lat="38.410825" lon="-2.067627">
        <ele>482.9</ele>
        <time>2022-10-16T11:02:24Z</time>
      </trkpt>
      <trkpt lat="38.410718" lon="-2.067444">
        <ele>484.8</ele>
        <time>2022-10-16T11:02:47Z</time>
      </trkpt>
      <trkpt lat="38.410630" lon="-2.067240">
        <ele>486.8</ele>
        <time>2022-10-16T11:03:12Z</time>
      </trkpt>
      <trkpt lat="38.410429" lon="-2.067258">
        <ele>490.7</ele>
        <time>2022-10-16T11:03:34Z</time>
      </trkpt>
      <trkpt lat="38.410285" lon="-2.067078">
        <ele>487.8</ele>
        <time>2022-10-16T11:03:56Z</time>
      </trkpt>
      <trkpt lat="38.410136" lon="-2.066944">
        <ele>485.8</ele>
        <time>2022-10-16T11:04:22Z</time>
      </trkpt>
      <trkpt lat="38.409995" lon="-2.066796">
        <ele>486.5</ele>
        <time>2022-10-16T11:04:47Z</time>
      </trkpt>
      <trkpt lat="38.409834" lon="-2.066666">
        <ele>489.8</ele>
        <time>2022-10-16T11:05:06Z</time>
      </trkpt>
      <trkpt lat="38.409718" lon="-2.066488">
        <ele>482.8</ele>
        <time>2022-10-16T11:05:28Z</time>
      </trkpt>
      <trkpt lat="38.409571" lon="-2.066339">
        <ele>478.9</ele>
        <time>2022-10-16T11:05:51Z</time>
      </trkpt>
      <trkpt lat="38.409404" lon="-2.066219">
        <ele>474.8</ele>
        <time>2022-10-16T11:06:13Z</time>
      </trkpt>
      <trkpt lat="38.409253" lon="-2.066094">
        <ele>472.8</ele>
        <time>2022-10-16T11:06:33Z</time>
      </trkpt>
      <trkpt lat="38.409066" lon="-2.066079">
        <ele>468.8</ele>
        <time>2022-10-16T11:06:51Z</time>
      </trkpt>
      <trkpt lat="38.408885" lon="-2.066023">
        <ele>468.8</ele>
        <time>2022-10-16T11:07:13Z</time>
      </trkpt>
      <trkpt lat="38.408701" lon="-2.065978">
        <ele>470.8</ele>
        <time>2022-10-16T11:07:31Z</time>
      </trkpt>
      <trkpt lat="38.408516" lon="-2.065921">
        <ele>470.8</ele>
        <time>2022-10-16T11:07:50Z</time>
      </trkpt>
      <trkpt lat="38.408339" lon="-2.065869">
        <ele>475.5</ele>
        <time>2022-10-16T11:08:08Z</time>
      </trkpt>
      <trkpt lat="38.408184" lon="-2.065729">
        <ele>475.1</ele>
        <time>2022-10-16T11:08:26Z</time>
      </trkpt>
      <trkpt lat="38.408008" lon="-2.065653">
        <ele>475.7</ele>
        <time>2022-10-16T11:08:44Z</time>
      </trkpt>
      <trkpt lat="38.407842" lon="-2.065557">
        <ele>473.8</ele>
        <time>2022-10-16T11:09:02Z</time>
      </trkpt>
      <trkpt lat="38.407669" lon="-2.065489">
        <ele>472.1</ele>
        <time>2022-10-16T11:09:18Z</time>
      </trkpt>
      <trkpt lat="38.407503" lon="-2.065372">
        <ele>472.7</ele>
        <time>2022-10-16T11:09:36Z</time>
      </trkpt>
      <trkpt lat="38.407365" lon="-2.065218">
        <ele>467.8</ele>
        <time>2022-10-16T11:10:01Z</time>
      </trkpt>
      <trkpt lat="38.407228" lon="-2.065053">
        <ele>470.8</ele>
        <time>2022-10-16T11:10:22Z</time>
      </trkpt>
      <trkpt lat="38.407116" lon="-2.064870">
        <ele>471.7</ele>
        <time>2022-10-16T11:10:42Z</time>
      </trkpt>
      <trkpt lat="38.406889" lon="-2.064925">
        <ele>472.1</ele>
        <time>2022-10-16T11:11:09Z</time>
      </trkpt>
      <trkpt lat="38.406746" lon="-2.064613">
        <ele>464.8</ele>
        <time>2022-10-16T11:11:26Z</time>
      </trkpt>
      <trkpt lat="38.406679" lon="-2.064389">
        <ele>461.8</ele>
        <time>2022-10-16T11:11:43Z</time>
      </trkpt>
      <trkpt lat="38.406676" lon="-2.064172">
        <ele>462.8</ele>
        <time>2022-10-16T11:12:02Z</time>
      </trkpt>
      <trkpt lat="38.406631" lon="-2.063943">
        <ele>457.9</ele>
        <time>2022-10-16T11:12:21Z</time>
      </trkpt>
      <trkpt lat="38.406527" lon="-2.063826">
        <ele>461.7</ele>
        <time>2022-10-16T11:13:02Z</time>
      </trkpt>
      <trkpt lat="38.406433" lon="-2.063592">
        <ele>470.1</ele>
        <time>2022-10-16T11:13:34Z</time>
      </trkpt>
      <trkpt lat="38.406323" lon="-2.063396">
        <ele>468.1</ele>
        <time>2022-10-16T11:13:56Z</time>
      </trkpt>
      <trkpt lat="38.406221" lon="-2.063233">
        <ele>470.5</ele>
        <time>2022-10-16T11:14:15Z</time>
      </trkpt>
      <trkpt lat="38.406167" lon="-2.062994">
        <ele>472.8</ele>
        <time>2022-10-16T11:14:37Z</time>
      </trkpt>
      <trkpt lat="38.406203" lon="-2.062726">
        <ele>469.8</ele>
        <time>2022-10-16T11:14:53Z</time>
      </trkpt>
      <trkpt lat="38.406197" lon="-2.062494">
        <ele>470.8</ele>
        <time>2022-10-16T11:15:11Z</time>
      </trkpt>
      <trkpt lat="38.406188" lon="-2.062259">
        <ele>468.1</ele>
        <time>2022-10-16T11:15:29Z</time>
      </trkpt>
      <trkpt lat="38.406047" lon="-2.061834">
        <ele>464.7</ele>
        <time>2022-10-16T11:15:50Z</time>
      </trkpt>
      <trkpt lat="38.405849" lon="-2.061805">
        <ele>464.7</ele>
        <time>2022-10-16T11:16:08Z</time>
      </trkpt>
      <trkpt lat="38.405544" lon="-2.061696">
        <ele>467.7</ele>
        <time>2022-10-16T11:16:28Z</time>
      </trkpt>
      <trkpt lat="38.405624" lon="-2.061598">
        <ele>470.8</ele>
        <time>2022-10-16T11:16:49Z</time>
      </trkpt>
      <trkpt lat="38.405493" lon="-2.061388">
        <ele>463.8</ele>
        <time>2022-10-16T11:17:12Z</time>
      </trkpt>
      <trkpt lat="38.405624" lon="-2.061247">
        <ele>463.6</ele>
        <time>2022-10-16T11:17:49Z</time>
      </trkpt>
      <trkpt lat="38.405382" lon="-2.061221">
        <ele>472.8</ele>
        <time>2022-10-16T11:20:47Z</time>
      </trkpt>
      <trkpt lat="38.405505" lon="-2.061007">
        <ele>470.5</ele>
        <time>2022-10-16T11:21:20Z</time>
      </trkpt>
      <trkpt lat="38.405373" lon="-2.060816">
        <ele>479.5</ele>
        <time>2022-10-16T11:21:40Z</time>
      </trkpt>
      <trkpt lat="38.405353" lon="-2.060564">
        <ele>486.6</ele>
        <time>2022-10-16T11:22:05Z</time>
      </trkpt>
      <trkpt lat="38.405258" lon="-2.060413">
        <ele>492.8</ele>
        <time>2022-10-16T11:22:41Z</time>
      </trkpt>
      <trkpt lat="38.405248" lon="-2.060178">
        <ele>491.8</ele>
        <time>2022-10-16T11:23:07Z</time>
      </trkpt>
      <trkpt lat="38.405080" lon="-2.059915">
        <ele>494.5</ele>
        <time>2022-10-16T11:23:26Z</time>
      </trkpt>
      <trkpt lat="38.405194" lon="-2.059757">
        <ele>493.9</ele>
        <time>2022-10-16T11:23:52Z</time>
      </trkpt>
      <trkpt lat="38.405150" lon="-2.059525">
        <ele>494.8</ele>
        <time>2022-10-16T11:24:17Z</time>
      </trkpt>
      <trkpt lat="38.405035" lon="-2.059351">
        <ele>497.8</ele>
        <time>2022-10-16T11:24:40Z</time>
      </trkpt>
      <trkpt lat="38.404918" lon="-2.059087">
        <ele>505.7</ele>
        <time>2022-10-16T11:25:03Z</time>
      </trkpt>
      <trkpt lat="38.405132" lon="-2.059031">
        <ele>505.2</ele>
        <time>2022-10-16T11:25:33Z</time>
      </trkpt>
      <trkpt lat="38.405220" lon="-2.058884">
        <ele>511.8</ele>
        <time>2022-10-16T11:26:11Z</time>
      </trkpt>
      <trkpt lat="38.405136" lon="-2.058813">
        <ele>512.8</ele>
        <time>2022-10-16T11:26:43Z</time>
      </trkpt>
      <trkpt lat="38.405018" lon="-2.058636">
        <ele>522.8</ele>
        <time>2022-10-16T11:27:38Z</time>
      </trkpt>
      <trkpt lat="38.404837" lon="-2.058585">
        <ele>525.5</ele>
        <time>2022-10-16T11:28:03Z</time>
      </trkpt>
      <trkpt lat="38.404714" lon="-2.058417">
        <ele>536.8</ele>
        <time>2022-10-16T11:28:45Z</time>
      </trkpt>
      <trkpt lat="38.404563" lon="-2.058290">
        <ele>537.8</ele>
        <time>2022-10-16T11:29:09Z</time>
      </trkpt>
      <trkpt lat="38.404428" lon="-2.058127">
        <ele>541.5</ele>
        <time>2022-10-16T11:29:56Z</time>
      </trkpt>
      <trkpt lat="38.404293" lon="-2.057975">
        <ele>544.8</ele>
        <time>2022-10-16T11:30:17Z</time>
      </trkpt>
      <trkpt lat="38.404112" lon="-2.057940">
        <ele>545.8</ele>
        <time>2022-10-16T11:30:37Z</time>
      </trkpt>
      <trkpt lat="38.403948" lon="-2.057843">
        <ele>548.8</ele>
        <time>2022-10-16T11:30:56Z</time>
      </trkpt>
      <trkpt lat="38.403880" lon="-2.057628">
        <ele>549.5</ele>
        <time>2022-10-16T11:31:25Z</time>
      </trkpt>
      <trkpt lat="38.403745" lon="-2.057471">
        <ele>550.8</ele>
        <time>2022-10-16T11:31:46Z</time>
      </trkpt>
      <trkpt lat="38.403580" lon="-2.057352">
        <ele>556.8</ele>
        <time>2022-10-16T11:32:10Z</time>
      </trkpt>
      <trkpt lat="38.403580" lon="-2.057121">
        <ele>561.5</ele>
        <time>2022-10-16T11:32:32Z</time>
      </trkpt>
      <trkpt lat="38.403670" lon="-2.056921">
        <ele>563.0</ele>
        <time>2022-10-16T11:33:04Z</time>
      </trkpt>
      <trkpt lat="38.403711" lon="-2.056694">
        <ele>566.5</ele>
        <time>2022-10-16T11:33:38Z</time>
      </trkpt>
      <trkpt lat="38.403628" lon="-2.056490">
        <ele>564.8</ele>
        <time>2022-10-16T11:36:04Z</time>
      </trkpt>
      <trkpt lat="38.403545" lon="-2.056285">
        <ele>562.9</ele>
        <time>2022-10-16T11:36:33Z</time>
      </trkpt>
      <trkpt lat="38.403392" lon="-2.056153">
        <ele>562.8</ele>
        <time>2022-10-16T11:36:55Z</time>
      </trkpt>
      <trkpt lat="38.403309" lon="-2.055935">
        <ele>559.8</ele>
        <time>2022-10-16T11:37:12Z</time>
      </trkpt>
      <trkpt lat="38.403159" lon="-2.055783">
        <ele>559.8</ele>
        <time>2022-10-16T11:37:31Z</time>
      </trkpt>
      <trkpt lat="38.403159" lon="-2.055549">
        <ele>556.8</ele>
        <time>2022-10-16T11:37:46Z</time>
      </trkpt>
      <trkpt lat="38.403118" lon="-2.055319">
        <ele>557.8</ele>
        <time>2022-10-16T11:38:06Z</time>
      </trkpt>
      <trkpt lat="38.403065" lon="-2.055091">
        <ele>556.5</ele>
        <time>2022-10-16T11:38:25Z</time>
      </trkpt>
      <trkpt lat="38.402936" lon="-2.054913">
        <ele>553.8</ele>
        <time>2022-10-16T11:38:44Z</time>
      </trkpt>
      <trkpt lat="38.402799" lon="-2.054756">
        <ele>553.1</ele>
        <time>2022-10-16T11:39:00Z</time>
      </trkpt>
      <trkpt lat="38.402681" lon="-2.054569">
        <ele>550.9</ele>
        <time>2022-10-16T11:39:16Z</time>
      </trkpt>
      <trkpt lat="38.402628" lon="-2.054339">
        <ele>548.8</ele>
        <time>2022-10-16T11:39:32Z</time>
      </trkpt>
      <trkpt lat="38.402531" lon="-2.054142">
        <ele>546.8</ele>
        <time>2022-10-16T11:39:48Z</time>
      </trkpt>
      <trkpt lat="38.402387" lon="-2.053981">
        <ele>544.8</ele>
        <time>2022-10-16T11:40:04Z</time>
      </trkpt>
      <trkpt lat="38.402228" lon="-2.053859">
        <ele>547.5</ele>
        <time>2022-10-16T11:40:20Z</time>
      </trkpt>
      <trkpt lat="38.402110" lon="-2.053685">
        <ele>547.8</ele>
        <time>2022-10-16T11:40:35Z</time>
      </trkpt>
      <trkpt lat="38.401983" lon="-2.053519">
        <ele>548.8</ele>
        <time>2022-10-16T11:40:53Z</time>
      </trkpt>
      <trkpt lat="38.401840" lon="-2.053374">
        <ele>547.8</ele>
        <time>2022-10-16T11:41:10Z</time>
      </trkpt>
      <trkpt lat="38.401715" lon="-2.053201">
        <ele>545.8</ele>
        <time>2022-10-16T11:41:27Z</time>
      </trkpt>
      <trkpt lat="38.401600" lon="-2.053024">
        <ele>543.8</ele>
        <time>2022-10-16T11:41:42Z</time>
      </trkpt>
      <trkpt lat="38.401484" lon="-2.052839">
        <ele>542.9</ele>
        <time>2022-10-16T11:41:58Z</time>
      </trkpt>
      <trkpt lat="38.401356" lon="-2.052672">
        <ele>541.9</ele>
        <time>2022-10-16T11:42:15Z</time>
      </trkpt>
      <trkpt lat="38.401231" lon="-2.052501">
        <ele>540.8</ele>
        <time>2022-10-16T11:42:33Z</time>
      </trkpt>
      <trkpt lat="38.401088" lon="-2.052362">
        <ele>542.8</ele>
        <time>2022-10-16T11:42:50Z</time>
      </trkpt>
      <trkpt lat="38.400941" lon="-2.052224">
        <ele>543.8</ele>
        <time>2022-10-16T11:43:08Z</time>
      </trkpt>
      <trkpt lat="38.400766" lon="-2.052165">
        <ele>540.8</ele>
        <time>2022-10-16T11:43:27Z</time>
      </trkpt>
      <trkpt lat="38.400578" lon="-2.052162">
        <ele>542.8</ele>
        <time>2022-10-16T11:43:45Z</time>
      </trkpt>
      <trkpt lat="38.400399" lon="-2.052120">
        <ele>540.1</ele>
        <time>2022-10-16T11:44:02Z</time>
      </trkpt>
      <trkpt lat="38.400215" lon="-2.052058">
        <ele>538.9</ele>
        <time>2022-10-16T11:44:20Z</time>
      </trkpt>
      <trkpt lat="38.400027" lon="-2.052069">
        <ele>536.8</ele>
        <time>2022-10-16T11:44:37Z</time>
      </trkpt>
      <trkpt lat="38.399846" lon="-2.052037">
        <ele>540.7</ele>
        <time>2022-10-16T11:44:56Z</time>
      </trkpt>
      <trkpt lat="38.399804" lon="-2.051810">
        <ele>537.8</ele>
        <time>2022-10-16T11:45:15Z</time>
      </trkpt>
      <trkpt lat="38.399797" lon="-2.051577">
        <ele>533.9</ele>
        <time>2022-10-16T11:45:31Z</time>
      </trkpt>
      <trkpt lat="38.399804" lon="-2.051347">
        <ele>530.9</ele>
        <time>2022-10-16T11:45:48Z</time>
      </trkpt>
      <trkpt lat="38.399692" lon="-2.051157">
        <ele>531.8</ele>
        <time>2022-10-16T11:46:03Z</time>
      </trkpt>
      <trkpt lat="38.399594" lon="-2.050953">
        <ele>528.8</ele>
        <time>2022-10-16T11:46:18Z</time>
      </trkpt>
      <trkpt lat="38.399565" lon="-2.050718">
        <ele>527.8</ele>
        <time>2022-10-16T11:46:34Z</time>
      </trkpt>
      <trkpt lat="38.399595" lon="-2.050491">
        <ele>526.8</ele>
        <time>2022-10-16T11:46:49Z</time>
      </trkpt>
      <trkpt lat="38.399631" lon="-2.050273">
        <ele>526.8</ele>
        <time>2022-10-16T11:47:06Z</time>
      </trkpt>
      <trkpt lat="38.399730" lon="-2.050094">
        <ele>525.9</ele>
        <time>2022-10-16T11:47:20Z</time>
      </trkpt>
      <trkpt lat="38.399851" lon="-2.049957">
        <ele>526.9</ele>
        <time>2022-10-16T11:47:35Z</time>
      </trkpt>
      <trkpt lat="38.399998" lon="-2.049807">
        <ele>524.9</ele>
        <time>2022-10-16T11:47:52Z</time>
      </trkpt>
      <trkpt lat="38.400143" lon="-2.049663">
        <ele>523.8</ele>
        <time>2022-10-16T11:48:08Z</time>
      </trkpt>
      <trkpt lat="38.400250" lon="-2.049469">
        <ele>520.1</ele>
        <time>2022-10-16T11:48:25Z</time>
      </trkpt>
      <trkpt lat="38.400230" lon="-2.049239">
        <ele>516.9</ele>
        <time>2022-10-16T11:48:46Z</time>
      </trkpt>
      <trkpt lat="38.400115" lon="-2.049044">
        <ele>517.7</ele>
        <time>2022-10-16T11:49:01Z</time>
      </trkpt>
      <trkpt lat="38.399956" lon="-2.048918">
        <ele>519.7</ele>
        <time>2022-10-16T11:49:14Z</time>
      </trkpt>
      <trkpt lat="38.399816" lon="-2.048749">
        <ele>522.8</ele>
        <time>2022-10-16T11:49:32Z</time>
      </trkpt>
      <trkpt lat="38.399792" lon="-2.048505">
        <ele>520.8</ele>
        <time>2022-10-16T11:49:46Z</time>
      </trkpt>
      <trkpt lat="38.399720" lon="-2.048293">
        <ele>519.8</ele>
        <time>2022-10-16T11:50:03Z</time>
      </trkpt>
      <trkpt lat="38.399652" lon="-2.048067">
        <ele>519.5</ele>
        <time>2022-10-16T11:50:19Z</time>
      </trkpt>
      <trkpt lat="38.399610" lon="-2.047839">
        <ele>520.8</ele>
        <time>2022-10-16T11:50:36Z</time>
      </trkpt>
      <trkpt lat="38.399618" lon="-2.047603">
        <ele>522.8</ele>
        <time>2022-10-16T11:50:56Z</time>
      </trkpt>
      <trkpt lat="38.399623" lon="-2.047365">
        <ele>527.5</ele>
        <time>2022-10-16T11:51:40Z</time>
      </trkpt>
      <trkpt lat="38.399619" lon="-2.047133">
        <ele>532.5</ele>
        <time>2022-10-16T11:51:57Z</time>
      </trkpt>
      <trkpt lat="38.399517" lon="-2.046928">
        <ele>531.8</ele>
        <time>2022-10-16T11:52:13Z</time>
      </trkpt>
      <trkpt lat="38.399386" lon="-2.046761">
        <ele>531.9</ele>
        <time>2022-10-16T11:52:28Z</time>
      </trkpt>
      <trkpt lat="38.399316" lon="-2.046548">
        <ele>530.6</ele>
        <time>2022-10-16T11:52:43Z</time>
      </trkpt>
      <trkpt lat="38.399232" lon="-2.046340">
        <ele>531.1</ele>
        <time>2022-10-16T11:52:57Z</time>
      </trkpt>
      <trkpt lat="38.399141" lon="-2.046117">
        <ele>530.8</ele>
        <time>2022-10-16T11:53:13Z</time>
      </trkpt>
      <trkpt lat="38.399073" lon="-2.045898">
        <ele>530.8</ele>
        <time>2022-10-16T11:53:25Z</time>
      </trkpt>
      <trkpt lat="38.399022" lon="-2.045660">
        <ele>530.8</ele>
        <time>2022-10-16T11:53:38Z</time>
      </trkpt>
      <trkpt lat="38.399007" lon="-2.045413">
        <ele>530.8</ele>
        <time>2022-10-16T11:53:52Z</time>
      </trkpt>
      <trkpt lat="38.398990" lon="-2.045179">
        <ele>533.5</ele>
        <time>2022-10-16T11:54:05Z</time>
      </trkpt>
      <trkpt lat="38.398978" lon="-2.044949">
        <ele>535.5</ele>
        <time>2022-10-16T11:54:17Z</time>
      </trkpt>
      <trkpt lat="38.398971" lon="-2.044714">
        <ele>538.7</ele>
        <time>2022-10-16T11:54:31Z</time>
      </trkpt>
      <trkpt lat="38.398912" lon="-2.044490">
        <ele>539.8</ele>
        <time>2022-10-16T11:54:48Z</time>
      </trkpt>
      <trkpt lat="38.398851" lon="-2.044271">
        <ele>539.8</ele>
        <time>2022-10-16T11:55:07Z</time>
      </trkpt>
      <trkpt lat="38.398791" lon="-2.044049">
        <ele>540.8</ele>
        <time>2022-10-16T11:55:23Z</time>
      </trkpt>
      <trkpt lat="38.398739" lon="-2.043814">
        <ele>538.9</ele>
        <time>2022-10-16T11:55:39Z</time>
      </trkpt>
      <trkpt lat="38.398692" lon="-2.043579">
        <ele>537.1</ele>
        <time>2022-10-16T11:55:54Z</time>
      </trkpt>
      <trkpt lat="38.398648" lon="-2.043346">
        <ele>539.8</ele>
        <time>2022-10-16T11:56:09Z</time>
      </trkpt>
      <trkpt lat="38.398587" lon="-2.043123">
        <ele>540.8</ele>
        <time>2022-10-16T11:56:24Z</time>
      </trkpt>
      <trkpt lat="38.398515" lon="-2.042912">
        <ele>543.7</ele>
        <time>2022-10-16T11:56:40Z</time>
      </trkpt>
      <trkpt lat="38.398448" lon="-2.042683">
        <ele>543.5</ele>
        <time>2022-10-16T11:56:58Z</time>
      </trkpt>
      <trkpt lat="38.398391" lon="-2.042448">
        <ele>548.7</ele>
        <time>2022-10-16T11:57:14Z</time>
      </trkpt>
      <trkpt lat="38.398345" lon="-2.042221">
        <ele>549.9</ele>
        <time>2022-10-16T11:57:29Z</time>
      </trkpt>
      <trkpt lat="38.398294" lon="-2.041983">
        <ele>550.8</ele>
        <time>2022-10-16T11:57:44Z</time>
      </trkpt>
      <trkpt lat="38.398247" lon="-2.041760">
        <ele>551.8</ele>
        <time>2022-10-16T11:57:59Z</time>
      </trkpt>
      <trkpt lat="38.398195" lon="-2.041531">
        <ele>553.8</ele>
        <time>2022-10-16T11:58:14Z</time>
      </trkpt>
      <trkpt lat="38.398148" lon="-2.041302">
        <ele>552.9</ele>
        <time>2022-10-16T11:58:29Z</time>
      </trkpt>
      <trkpt lat="38.398104" lon="-2.041064">
        <ele>554.8</ele>
        <time>2022-10-16T11:58:44Z</time>
      </trkpt>
      <trkpt lat="38.398047" lon="-2.040833">
        <ele>553.9</ele>
        <time>2022-10-16T11:58:58Z</time>
      </trkpt>
      <trkpt lat="38.398005" lon="-2.040603">
        <ele>552.8</ele>
        <time>2022-10-16T11:59:13Z</time>
      </trkpt>
      <trkpt lat="38.397945" lon="-2.040369">
        <ele>552.8</ele>
        <time>2022-10-16T11:59:28Z</time>
      </trkpt>
      <trkpt lat="38.397907" lon="-2.040132">
        <ele>554.8</ele>
        <time>2022-10-16T11:59:43Z</time>
      </trkpt>
      <trkpt lat="38.397887" lon="-2.039900">
        <ele>555.7</ele>
        <time>2022-10-16T11:59:57Z</time>
      </trkpt>
      <trkpt lat="38.397880" lon="-2.039665">
        <ele>556.8</ele>
        <time>2022-10-16T12:00:11Z</time>
      </trkpt>
      <trkpt lat="38.397903" lon="-2.039432">
        <ele>557.8</ele>
        <time>2022-10-16T12:00:25Z</time>
      </trkpt>
      <trkpt lat="38.397874" lon="-2.039192">
        <ele>557.8</ele>
        <time>2022-10-16T12:00:41Z</time>
      </trkpt>
      <trkpt lat="38.397835" lon="-2.038953">
        <ele>553.9</ele>
        <time>2022-10-16T12:00:57Z</time>
      </trkpt>
      <trkpt lat="38.397827" lon="-2.038715">
        <ele>552.8</ele>
        <time>2022-10-16T12:01:12Z</time>
      </trkpt>
      <trkpt lat="38.397824" lon="-2.038474">
        <ele>551.8</ele>
        <time>2022-10-16T12:01:26Z</time>
      </trkpt>
      <trkpt lat="38.397802" lon="-2.038239">
        <ele>552.5</ele>
        <time>2022-10-16T12:01:41Z</time>
      </trkpt>
      <trkpt lat="38.397750" lon="-2.038008">
        <ele>550.9</ele>
        <time>2022-10-16T12:01:56Z</time>
      </trkpt>
      <trkpt lat="38.397701" lon="-2.037778">
        <ele>550.7</ele>
        <time>2022-10-16T12:02:11Z</time>
      </trkpt>
      <trkpt lat="38.397688" lon="-2.037542">
        <ele>547.9</ele>
        <time>2022-10-16T12:02:26Z</time>
      </trkpt>
      <trkpt lat="38.397692" lon="-2.037302">
        <ele>546.8</ele>
        <time>2022-10-16T12:02:42Z</time>
      </trkpt>
      <trkpt lat="38.397702" lon="-2.037055">
        <ele>543.9</ele>
        <time>2022-10-16T12:02:59Z</time>
      </trkpt>
      <trkpt lat="38.397694" lon="-2.036815">
        <ele>544.1</ele>
        <time>2022-10-16T12:03:14Z</time>
      </trkpt>
      <trkpt lat="38.397698" lon="-2.036574">
        <ele>542.8</ele>
        <time>2022-10-16T12:03:29Z</time>
      </trkpt>
      <trkpt lat="38.397710" lon="-2.036337">
        <ele>541.8</ele>
        <time>2022-10-16T12:03:44Z</time>
      </trkpt>
      <trkpt lat="38.397611" lon="-2.036136">
        <ele>542.8</ele>
        <time>2022-10-16T12:04:00Z</time>
      </trkpt>
      <trkpt lat="38.397486" lon="-2.035953">
        <ele>542.6</ele>
        <time>2022-10-16T12:04:13Z</time>
      </trkpt>
      <trkpt lat="38.397435" lon="-2.035729">
        <ele>541.1</ele>
        <time>2022-10-16T12:04:27Z</time>
      </trkpt>
      <trkpt lat="38.397426" lon="-2.035493">
        <ele>539.6</ele>
        <time>2022-10-16T12:04:42Z</time>
      </trkpt>
      <trkpt lat="38.397411" lon="-2.035262">
        <ele>540.8</ele>
        <time>2022-10-16T12:04:56Z</time>
      </trkpt>
      <trkpt lat="38.397371" lon="-2.035033">
        <ele>537.9</ele>
        <time>2022-10-16T12:05:11Z</time>
      </trkpt>
      <trkpt lat="38.397337" lon="-2.034795">
        <ele>537.8</ele>
        <time>2022-10-16T12:05:26Z</time>
      </trkpt>
      <trkpt lat="38.397324" lon="-2.034566">
        <ele>536.8</ele>
        <time>2022-10-16T12:05:42Z</time>
      </trkpt>
      <trkpt lat="38.397300" lon="-2.034331">
        <ele>537.8</ele>
        <time>2022-10-16T12:05:56Z</time>
      </trkpt>
      <trkpt lat="38.397186" lon="-2.034140">
        <ele>540.8</ele>
        <time>2022-10-16T12:06:11Z</time>
      </trkpt>
      <trkpt lat="38.396994" lon="-2.034129">
        <ele>537.8</ele>
        <time>2022-10-16T12:06:26Z</time>
      </trkpt>
      <trkpt lat="38.396871" lon="-2.033949">
        <ele>537.8</ele>
        <time>2022-10-16T12:16:30Z</time>
      </trkpt>
      <trkpt lat="38.396792" lon="-2.033735">
        <ele>538.8</ele>
        <time>2022-10-16T12:16:49Z</time>
      </trkpt>
      <trkpt lat="38.396714" lon="-2.033521">
        <ele>538.5</ele>
        <time>2022-10-16T12:17:04Z</time>
      </trkpt>
      <trkpt lat="38.396627" lon="-2.033307">
        <ele>537.8</ele>
        <time>2022-10-16T12:17:18Z</time>
      </trkpt>
      <trkpt lat="38.396550" lon="-2.033089">
        <ele>537.8</ele>
        <time>2022-10-16T12:17:33Z</time>
      </trkpt>
      <trkpt lat="38.396503" lon="-2.032859">
        <ele>537.9</ele>
        <time>2022-10-16T12:17:49Z</time>
      </trkpt>
      <trkpt lat="38.396422" lon="-2.032634">
        <ele>537.8</ele>
        <time>2022-10-16T12:18:06Z</time>
      </trkpt>
      <trkpt lat="38.396334" lon="-2.032429">
        <ele>540.0</ele>
        <time>2022-10-16T12:18:23Z</time>
      </trkpt>
      <trkpt lat="38.396224" lon="-2.032239">
        <ele>539.8</ele>
        <time>2022-10-16T12:18:39Z</time>
      </trkpt>
      <trkpt lat="38.396121" lon="-2.032043">
        <ele>541.8</ele>
        <time>2022-10-16T12:18:54Z</time>
      </trkpt>
      <trkpt lat="38.396020" lon="-2.031849">
        <ele>543.8</ele>
        <time>2022-10-16T12:19:08Z</time>
      </trkpt>
      <trkpt lat="38.395959" lon="-2.031631">
        <ele>543.8</ele>
        <time>2022-10-16T12:19:24Z</time>
      </trkpt>
      <trkpt lat="38.395919" lon="-2.031392">
        <ele>543.8</ele>
        <time>2022-10-16T12:19:41Z</time>
      </trkpt>
      <trkpt lat="38.395772" lon="-2.031246">
        <ele>543.8</ele>
        <time>2022-10-16T12:19:57Z</time>
      </trkpt>
      <trkpt lat="38.395610" lon="-2.031144">
        <ele>544.8</ele>
        <time>2022-10-16T12:20:11Z</time>
      </trkpt>
      <trkpt lat="38.395437" lon="-2.031041">
        <ele>546.8</ele>
        <time>2022-10-16T12:20:27Z</time>
      </trkpt>
      <trkpt lat="38.395349" lon="-2.030832">
        <ele>545.8</ele>
        <time>2022-10-16T12:20:44Z</time>
      </trkpt>
      <trkpt lat="38.395481" lon="-2.030672">
        <ele>548.8</ele>
        <time>2022-10-16T12:20:58Z</time>
      </trkpt>
      <trkpt lat="38.395631" lon="-2.030541">
        <ele>548.9</ele>
        <time>2022-10-16T12:21:14Z</time>
      </trkpt>
      <trkpt lat="38.395791" lon="-2.030408">
        <ele>547.8</ele>
        <time>2022-10-16T12:21:30Z</time>
      </trkpt>
      <trkpt lat="38.395945" lon="-2.030274">
        <ele>546.5</ele>
        <time>2022-10-16T12:21:47Z</time>
      </trkpt>
      <trkpt lat="38.396105" lon="-2.030157">
        <ele>544.8</ele>
        <time>2022-10-16T12:22:04Z</time>
      </trkpt>
      <trkpt lat="38.396257" lon="-2.030029">
        <ele>543.9</ele>
        <time>2022-10-16T12:22:20Z</time>
      </trkpt>
      <trkpt lat="38.396413" lon="-2.029910">
        <ele>543.9</ele>
        <time>2022-10-16T12:22:36Z</time>
      </trkpt>
      <trkpt lat="38.396572" lon="-2.029790">
        <ele>541.8</ele>
        <time>2022-10-16T12:22:53Z</time>
      </trkpt>
      <trkpt lat="38.396723" lon="-2.029653">
        <ele>538.0</ele>
        <time>2022-10-16T12:23:11Z</time>
      </trkpt>
      <trkpt lat="38.396869" lon="-2.029513">
        <ele>535.2</ele>
        <time>2022-10-16T12:23:31Z</time>
      </trkpt>
      <trkpt lat="38.397005" lon="-2.029347">
        <ele>531.9</ele>
        <time>2022-10-16T12:23:52Z</time>
      </trkpt>
      <trkpt lat="38.397129" lon="-2.029167">
        <ele>528.9</ele>
        <time>2022-10-16T12:24:13Z</time>
      </trkpt>
      <trkpt lat="38.397171" lon="-2.028933">
        <ele>524.9</ele>
        <time>2022-10-16T12:24:33Z</time>
      </trkpt>
      <trkpt lat="38.397156" lon="-2.028698">
        <ele>520.2</ele>
        <time>2022-10-16T12:24:52Z</time>
      </trkpt>
      <trkpt lat="38.397146" lon="-2.028466">
        <ele>518.8</ele>
        <time>2022-10-16T12:25:10Z</time>
      </trkpt>
      <trkpt lat="38.397156" lon="-2.028230">
        <ele>518.8</ele>
        <time>2022-10-16T12:25:28Z</time>
      </trkpt>
      <trkpt lat="38.397176" lon="-2.027989">
        <ele>515.9</ele>
        <time>2022-10-16T12:25:45Z</time>
      </trkpt>
      <trkpt lat="38.397256" lon="-2.027782">
        <ele>516.9</ele>
        <time>2022-10-16T12:26:03Z</time>
      </trkpt>
      <trkpt lat="38.397403" lon="-2.027634">
        <ele>518.9</ele>
        <time>2022-10-16T12:26:19Z</time>
      </trkpt>
      <trkpt lat="38.397553" lon="-2.027499">
        <ele>519.9</ele>
        <time>2022-10-16T12:26:35Z</time>
      </trkpt>
      <trkpt lat="38.397689" lon="-2.027347">
        <ele>520.8</ele>
        <time>2022-10-16T12:26:52Z</time>
      </trkpt>
      <trkpt lat="38.397728" lon="-2.027118">
        <ele>515.9</ele>
        <time>2022-10-16T12:27:08Z</time>
      </trkpt>
      <trkpt lat="38.397709" lon="-2.026886">
        <ele>512.9</ele>
        <time>2022-10-16T12:27:25Z</time>
      </trkpt>
      <trkpt lat="38.397683" lon="-2.026649">
        <ele>514.9</ele>
        <time>2022-10-16T12:27:45Z</time>
      </trkpt>
      <trkpt lat="38.397663" lon="-2.026420">
        <ele>516.6</ele>
        <time>2022-10-16T12:28:03Z</time>
      </trkpt>
      <trkpt lat="38.397685" lon="-2.026179">
        <ele>517.6</ele>
        <time>2022-10-16T12:28:21Z</time>
      </trkpt>
      <trkpt lat="38.397677" lon="-2.025943">
        <ele>517.6</ele>
        <time>2022-10-16T12:28:38Z</time>
      </trkpt>
      <trkpt lat="38.397854" lon="-2.025863">
        <ele>519.2</ele>
        <time>2022-10-16T12:28:55Z</time>
      </trkpt>
      <trkpt lat="38.398036" lon="-2.025794">
        <ele>520.8</ele>
        <time>2022-10-16T12:29:12Z</time>
      </trkpt>
      <trkpt lat="38.398142" lon="-2.025594">
        <ele>520.0</ele>
        <time>2022-10-16T12:29:29Z</time>
      </trkpt>
      <trkpt lat="38.398228" lon="-2.025380">
        <ele>521.6</ele>
        <time>2022-10-16T12:29:48Z</time>
      </trkpt>
      <trkpt lat="38.398278" lon="-2.025157">
        <ele>519.9</ele>
        <time>2022-10-16T12:30:04Z</time>
      </trkpt>
      <trkpt lat="38.398222" lon="-2.024929">
        <ele>519.8</ele>
        <time>2022-10-16T12:30:20Z</time>
      </trkpt>
      <trkpt lat="38.398120" lon="-2.024727">
        <ele>520.8</ele>
        <time>2022-10-16T12:30:35Z</time>
      </trkpt>
      <trkpt lat="38.398023" lon="-2.024533">
        <ele>518.2</ele>
        <time>2022-10-16T12:30:50Z</time>
      </trkpt>
      <trkpt lat="38.397961" lon="-2.024316">
        <ele>515.0</ele>
        <time>2022-10-16T12:31:06Z</time>
      </trkpt>
      <trkpt lat="38.397965" lon="-2.024085">
        <ele>513.9</ele>
        <time>2022-10-16T12:31:22Z</time>
      </trkpt>
      <trkpt lat="38.397983" lon="-2.023844">
        <ele>512.9</ele>
        <time>2022-10-16T12:31:38Z</time>
      </trkpt>
      <trkpt lat="38.398022" lon="-2.023617">
        <ele>511.9</ele>
        <time>2022-10-16T12:31:54Z</time>
      </trkpt>
      <trkpt lat="38.398064" lon="-2.023393">
        <ele>512.8</ele>
        <time>2022-10-16T12:32:10Z</time>
      </trkpt>
      <trkpt lat="38.398103" lon="-2.023165">
        <ele>512.9</ele>
        <time>2022-10-16T12:32:26Z</time>
      </trkpt>
      <trkpt lat="38.398141" lon="-2.022934">
        <ele>510.9</ele>
        <time>2022-10-16T12:32:41Z</time>
      </trkpt>
      <trkpt lat="38.398242" lon="-2.022725">
        <ele>511.9</ele>
        <time>2022-10-16T12:32:57Z</time>
      </trkpt>
      <trkpt lat="38.398373" lon="-2.022545">
        <ele>512.8</ele>
        <time>2022-10-16T12:33:14Z</time>
      </trkpt>
      <trkpt lat="38.398499" lon="-2.022374">
        <ele>512.9</ele>
        <time>2022-10-16T12:33:29Z</time>
      </trkpt>
      <trkpt lat="38.398630" lon="-2.022205">
        <ele>513.9</ele>
        <time>2022-10-16T12:33:47Z</time>
      </trkpt>
      <trkpt lat="38.398734" lon="-2.021998">
        <ele>509.9</ele>
        <time>2022-10-16T12:34:04Z</time>
      </trkpt>
      <trkpt lat="38.398820" lon="-2.021783">
        <ele>511.9</ele>
        <time>2022-10-16T12:34:21Z</time>
      </trkpt>
      <trkpt lat="38.398924" lon="-2.021593">
        <ele>509.9</ele>
        <time>2022-10-16T12:34:36Z</time>
      </trkpt>
      <trkpt lat="38.399005" lon="-2.021385">
        <ele>508.6</ele>
        <time>2022-10-16T12:34:51Z</time>
      </trkpt>
      <trkpt lat="38.399069" lon="-2.021153">
        <ele>507.2</ele>
        <time>2022-10-16T12:35:06Z</time>
      </trkpt>
      <trkpt lat="38.399128" lon="-2.020924">
        <ele>504.9</ele>
        <time>2022-10-16T12:35:21Z</time>
      </trkpt>
      <trkpt lat="38.399181" lon="-2.020697">
        <ele>503.9</ele>
        <time>2022-10-16T12:35:35Z</time>
      </trkpt>
      <trkpt lat="38.399258" lon="-2.020479">
        <ele>502.9</ele>
        <time>2022-10-16T12:35:51Z</time>
      </trkpt>
      <trkpt lat="38.399233" lon="-2.020250">
        <ele>498.3</ele>
        <time>2022-10-16T12:36:11Z</time>
      </trkpt>
      <trkpt lat="38.399067" lon="-2.020109">
        <ele>494.3</ele>
        <time>2022-10-16T12:36:25Z</time>
      </trkpt>
      <trkpt lat="38.398949" lon="-2.019928">
        <ele>493.8</ele>
        <time>2022-10-16T12:36:41Z</time>
      </trkpt>
      <trkpt lat="38.398842" lon="-2.019730">
        <ele>494.9</ele>
        <time>2022-10-16T12:36:54Z</time>
      </trkpt>
      <trkpt lat="38.398738" lon="-2.019539">
        <ele>495.9</ele>
        <time>2022-10-16T12:37:07Z</time>
      </trkpt>
      <trkpt lat="38.398627" lon="-2.019356">
        <ele>496.9</ele>
        <time>2022-10-16T12:37:19Z</time>
      </trkpt>
      <trkpt lat="38.398505" lon="-2.019166">
        <ele>497.9</ele>
        <time>2022-10-16T12:37:33Z</time>
      </trkpt>
      <trkpt lat="38.398394" lon="-2.018971">
        <ele>497.9</ele>
        <time>2022-10-16T12:37:46Z</time>
      </trkpt>
      <trkpt lat="38.398452" lon="-2.018751">
        <ele>493.2</ele>
        <time>2022-10-16T12:37:59Z</time>
      </trkpt>
      <trkpt lat="38.398502" lon="-2.018520">
        <ele>491.9</ele>
        <time>2022-10-16T12:38:13Z</time>
      </trkpt>
      <trkpt lat="38.398528" lon="-2.018283">
        <ele>491.9</ele>
        <time>2022-10-16T12:38:28Z</time>
      </trkpt>
      <trkpt lat="38.398573" lon="-2.018046">
        <ele>490.9</ele>
        <time>2022-10-16T12:38:42Z</time>
      </trkpt>
      <trkpt lat="38.398592" lon="-2.017813">
        <ele>488.8</ele>
        <time>2022-10-16T12:38:56Z</time>
      </trkpt>
      <trkpt lat="38.398618" lon="-2.017574">
        <ele>487.9</ele>
        <time>2022-10-16T12:39:11Z</time>
      </trkpt>
      <trkpt lat="38.398665" lon="-2.017348">
        <ele>488.9</ele>
        <time>2022-10-16T12:39:25Z</time>
      </trkpt>
      <trkpt lat="38.398729" lon="-2.017131">
        <ele>487.9</ele>
        <time>2022-10-16T12:39:39Z</time>
      </trkpt>
      <trkpt lat="38.398758" lon="-2.016893">
        <ele>483.9</ele>
        <time>2022-10-16T12:39:53Z</time>
      </trkpt>
      <trkpt lat="38.398785" lon="-2.016651">
        <ele>481.9</ele>
        <time>2022-10-16T12:40:08Z</time>
      </trkpt>
      <trkpt lat="38.398858" lon="-2.016434">
        <ele>480.9</ele>
        <time>2022-10-16T12:40:22Z</time>
      </trkpt>
      <trkpt lat="38.398915" lon="-2.016211">
        <ele>479.7</ele>
        <time>2022-10-16T12:40:36Z</time>
      </trkpt>
      <trkpt lat="38.398940" lon="-2.015975">
        <ele>481.2</ele>
        <time>2022-10-16T12:40:50Z</time>
      </trkpt>
      <trkpt lat="38.399022" lon="-2.015761">
        <ele>481.9</ele>
        <time>2022-10-16T12:41:03Z</time>
      </trkpt>
      <trkpt lat="38.399022" lon="-2.015529">
        <ele>483.8</ele>
        <time>2022-10-16T12:41:16Z</time>
      </trkpt>
      <trkpt lat="38.398917" lon="-2.015332">
        <ele>484.8</ele>
        <time>2022-10-16T12:41:28Z</time>
      </trkpt>
      <trkpt lat="38.398847" lon="-2.015119">
        <ele>484.9</ele>
        <time>2022-10-16T12:41:40Z</time>
      </trkpt>
      <trkpt lat="38.398792" lon="-2.014899">
        <ele>484.9</ele>
        <time>2022-10-16T12:41:54Z</time>
      </trkpt>
      <trkpt lat="38.398761" lon="-2.014663">
        <ele>483.9</ele>
        <time>2022-10-16T12:42:08Z</time>
      </trkpt>
      <trkpt lat="38.398818" lon="-2.014435">
        <ele>486.9</ele>
        <time>2022-10-16T12:42:21Z</time>
      </trkpt>
      <trkpt lat="38.398873" lon="-2.014202">
        <ele>491.6</ele>
        <time>2022-10-16T12:42:38Z</time>
      </trkpt>
      <trkpt lat="38.398971" lon="-2.014001">
        <ele>494.9</ele>
        <time>2022-10-16T12:42:53Z</time>
      </trkpt>
      <trkpt lat="38.399037" lon="-2.013784">
        <ele>490.9</ele>
        <time>2022-10-16T12:43:10Z</time>
      </trkpt>
      <trkpt lat="38.399034" lon="-2.013547">
        <ele>489.0</ele>
        <time>2022-10-16T12:43:27Z</time>
      </trkpt>
      <trkpt lat="38.398975" lon="-2.013321">
        <ele>487.2</ele>
        <time>2022-10-16T12:43:40Z</time>
      </trkpt>
      <trkpt lat="38.399074" lon="-2.013125">
        <ele>491.9</ele>
        <time>2022-10-16T12:44:00Z</time>
      </trkpt>
      <trkpt lat="38.399244" lon="-2.013032">
        <ele>488.9</ele>
        <time>2022-10-16T12:44:14Z</time>
      </trkpt>
      <trkpt lat="38.399409" lon="-2.012933">
        <ele>490.8</ele>
        <time>2022-10-16T12:44:27Z</time>
      </trkpt>
      <trkpt lat="38.399590" lon="-2.012851">
        <ele>491.2</ele>
        <time>2022-10-16T12:44:42Z</time>
      </trkpt>
      <trkpt lat="38.399767" lon="-2.012812">
        <ele>489.9</ele>
        <time>2022-10-16T12:44:57Z</time>
      </trkpt>
      <trkpt lat="38.399924" lon="-2.012942">
        <ele>489.1</ele>
        <time>2022-10-16T12:45:12Z</time>
      </trkpt>
      <trkpt lat="38.400084" lon="-2.012827">
        <ele>487.9</ele>
        <time>2022-10-16T12:45:25Z</time>
      </trkpt>
      <trkpt lat="38.400169" lon="-2.012616">
        <ele>489.9</ele>
        <time>2022-10-16T12:45:39Z</time>
      </trkpt>
      <trkpt lat="38.400281" lon="-2.012429">
        <ele>493.9</ele>
        <time>2022-10-16T12:45:52Z</time>
      </trkpt>
      <trkpt lat="38.400380" lon="-2.012233">
        <ele>494.8</ele>
        <time>2022-10-16T12:46:05Z</time>
      </trkpt>
      <trkpt lat="38.400416" lon="-2.012005">
        <ele>494.9</ele>
        <time>2022-10-16T12:46:19Z</time>
      </trkpt>
      <trkpt lat="38.400404" lon="-2.011770">
        <ele>495.9</ele>
        <time>2022-10-16T12:46:32Z</time>
      </trkpt>
      <trkpt lat="38.400394" lon="-2.011531">
        <ele>499.2</ele>
        <time>2022-10-16T12:46:48Z</time>
      </trkpt>
      <trkpt lat="38.400406" lon="-2.011300">
        <ele>500.8</ele>
        <time>2022-10-16T12:47:03Z</time>
      </trkpt>
      <trkpt lat="38.400560" lon="-2.011156">
        <ele>503.9</ele>
        <time>2022-10-16T12:47:17Z</time>
      </trkpt>
      <trkpt lat="38.400615" lon="-2.010932">
        <ele>505.8</ele>
        <time>2022-10-16T12:47:31Z</time>
      </trkpt>
      <trkpt lat="38.400719" lon="-2.010743">
        <ele>508.9</ele>
        <time>2022-10-16T12:47:46Z</time>
      </trkpt>
      <trkpt lat="38.400861" lon="-2.010593">
        <ele>510.8</ele>
        <time>2022-10-16T12:48:04Z</time>
      </trkpt>
      <trkpt lat="38.401041" lon="-2.010627">
        <ele>511.2</ele>
        <time>2022-10-16T12:48:22Z</time>
      </trkpt>
      <trkpt lat="38.401212" lon="-2.010718">
        <ele>513.9</ele>
        <time>2022-10-16T12:48:40Z</time>
      </trkpt>
      <trkpt lat="38.401389" lon="-2.010795">
        <ele>516.9</ele>
        <time>2022-10-16T12:49:02Z</time>
      </trkpt>
      <trkpt lat="38.401616" lon="-2.010893">
        <ele>519.9</ele>
        <time>2022-10-16T12:49:22Z</time>
      </trkpt>
      <trkpt lat="38.401707" lon="-2.010681">
        <ele>522.9</ele>
        <time>2022-10-16T12:49:37Z</time>
      </trkpt>
      <trkpt lat="38.401786" lon="-2.010417">
        <ele>521.2</ele>
        <time>2022-10-16T12:49:57Z</time>
      </trkpt>
      <trkpt lat="38.402000" lon="-2.010362">
        <ele>519.9</ele>
        <time>2022-10-16T12:50:29Z</time>
      </trkpt>
      <trkpt lat="38.401949" lon="-2.010164">
        <ele>526.7</ele>
        <time>2022-10-16T12:50:58Z</time>
      </trkpt>
      <trkpt lat="38.402163" lon="-2.010169">
        <ele>536.2</ele>
        <time>2022-10-16T12:51:52Z</time>
      </trkpt>
      <trkpt lat="38.402186" lon="-2.009977">
        <ele>544.6</ele>
        <time>2022-10-16T12:52:14Z</time>
      </trkpt>
      <trkpt lat="38.402615" lon="-2.010144">
        <ele>547.8</ele>
        <time>2022-10-16T12:52:38Z</time>
      </trkpt>
      <trkpt lat="38.402687" lon="-2.009925">
        <ele>544.6</ele>
        <time>2022-10-16T12:53:03Z</time>
      </trkpt>
      <trkpt lat="38.402726" lon="-2.009587">
        <ele>549.9</ele>
        <time>2022-10-16T12:53:26Z</time>
      </trkpt>
      <trkpt lat="38.403023" lon="-2.009749">
        <ele>559.6</ele>
        <time>2022-10-16T12:54:14Z</time>
      </trkpt>
      <trkpt lat="38.402960" lon="-2.009375">
        <ele>561.8</ele>
        <time>2022-10-16T12:54:49Z</time>
      </trkpt>
      <trkpt lat="38.403134" lon="-2.009477">
        <ele>562.7</ele>
        <time>2022-10-16T12:55:36Z</time>
      </trkpt>
      <trkpt lat="38.403303" lon="-2.009579">
        <ele>565.0</ele>
        <time>2022-10-16T12:56:00Z</time>
      </trkpt>
      <trkpt lat="38.403455" lon="-2.009702">
        <ele>568.9</ele>
        <time>2022-10-16T12:56:18Z</time>
      </trkpt>
      <trkpt lat="38.403630" lon="-2.009689">
        <ele>572.9</ele>
        <time>2022-10-16T12:56:36Z</time>
      </trkpt>
      <trkpt lat="38.403728" lon="-2.009448">
        <ele>574.6</ele>
        <time>2022-10-16T12:56:53Z</time>
      </trkpt>
      <trkpt lat="38.403785" lon="-2.009224">
        <ele>572.9</ele>
        <time>2022-10-16T12:57:14Z</time>
      </trkpt>
      <trkpt lat="38.403864" lon="-2.009008">
        <ele>571.0</ele>
        <time>2022-10-16T12:57:31Z</time>
      </trkpt>
      <trkpt lat="38.403934" lon="-2.008789">
        <ele>568.2</ele>
        <time>2022-10-16T12:57:50Z</time>
      </trkpt>
      <trkpt lat="38.404044" lon="-2.008601">
        <ele>566.0</ele>
        <time>2022-10-16T12:58:05Z</time>
      </trkpt>
      <trkpt lat="38.404129" lon="-2.008392">
        <ele>563.9</ele>
        <time>2022-10-16T12:58:29Z</time>
      </trkpt>
      <trkpt lat="38.404296" lon="-2.008287">
        <ele>560.0</ele>
        <time>2022-10-16T12:59:02Z</time>
      </trkpt>
      <trkpt lat="38.404448" lon="-2.008165">
        <ele>557.2</ele>
        <time>2022-10-16T13:01:10Z</time>
      </trkpt>
      <trkpt lat="38.404634" lon="-2.008154">
        <ele>554.9</ele>
        <time>2022-10-16T13:01:32Z</time>
      </trkpt>
      <trkpt lat="38.404820" lon="-2.008153">
        <ele>557.0</ele>
        <time>2022-10-16T13:01:52Z</time>
      </trkpt>
      <trkpt lat="38.404976" lon="-2.008037">
        <ele>556.9</ele>
        <time>2022-10-16T13:02:19Z</time>
      </trkpt>
      <trkpt lat="38.405137" lon="-2.007930">
        <ele>555.9</ele>
        <time>2022-10-16T13:02:37Z</time>
      </trkpt>
      <trkpt lat="38.405318" lon="-2.007881">
        <ele>550.9</ele>
        <time>2022-10-16T13:02:53Z</time>
      </trkpt>
      <trkpt lat="38.405485" lon="-2.007786">
        <ele>549.0</ele>
        <time>2022-10-16T13:03:12Z</time>
      </trkpt>
      <trkpt lat="38.405651" lon="-2.007683">
        <ele>547.9</ele>
        <time>2022-10-16T13:03:32Z</time>
      </trkpt>
      <trkpt lat="38.405808" lon="-2.007564">
        <ele>545.0</ele>
        <time>2022-10-16T13:03:53Z</time>
      </trkpt>
      <trkpt lat="38.405969" lon="-2.007449">
        <ele>545.6</ele>
        <time>2022-10-16T13:04:13Z</time>
      </trkpt>
      <trkpt lat="38.406140" lon="-2.007350">
        <ele>545.9</ele>
        <time>2022-10-16T13:04:35Z</time>
      </trkpt>
      <trkpt lat="38.406293" lon="-2.007218">
        <ele>544.9</ele>
        <time>2022-10-16T13:04:55Z</time>
      </trkpt>
      <trkpt lat="38.406441" lon="-2.007078">
        <ele>543.9</ele>
        <time>2022-10-16T13:05:15Z</time>
      </trkpt>
      <trkpt lat="38.406370" lon="-2.006860">
        <ele>542.0</ele>
        <time>2022-10-16T13:05:36Z</time>
      </trkpt>
      <trkpt lat="38.406520" lon="-2.006727">
        <ele>538.0</ele>
        <time>2022-10-16T13:05:57Z</time>
      </trkpt>
      <trkpt lat="38.406645" lon="-2.006551">
        <ele>536.2</ele>
        <time>2022-10-16T13:06:16Z</time>
      </trkpt>
      <trkpt lat="38.406758" lon="-2.006372">
        <ele>530.7</ele>
        <time>2022-10-16T13:06:44Z</time>
      </trkpt>
      <trkpt lat="38.406931" lon="-2.006456">
        <ele>527.6</ele>
        <time>2022-10-16T13:07:17Z</time>
      </trkpt>
      <trkpt lat="38.407065" lon="-2.006614">
        <ele>522.0</ele>
        <time>2022-10-16T13:07:39Z</time>
      </trkpt>
      <trkpt lat="38.407190" lon="-2.006787">
        <ele>514.0</ele>
        <time>2022-10-16T13:08:02Z</time>
      </trkpt>
      <trkpt lat="38.407328" lon="-2.006951">
        <ele>511.0</ele>
        <time>2022-10-16T13:08:19Z</time>
      </trkpt>
      <trkpt lat="38.407444" lon="-2.007133">
        <ele>503.9</ele>
        <time>2022-10-16T13:08:38Z</time>
      </trkpt>
      <trkpt lat="38.407586" lon="-2.007274">
        <ele>498.9</ele>
        <time>2022-10-16T13:08:57Z</time>
      </trkpt>
      <trkpt lat="38.407744" lon="-2.007387">
        <ele>497.2</ele>
        <time>2022-10-16T13:09:23Z</time>
      </trkpt>
      <trkpt lat="38.407902" lon="-2.007515">
        <ele>491.1</ele>
        <time>2022-10-16T13:09:51Z</time>
      </trkpt>
      <trkpt lat="38.408069" lon="-2.007624">
        <ele>487.0</ele>
        <time>2022-10-16T13:10:15Z</time>
      </trkpt>
      <trkpt lat="38.408235" lon="-2.007714">
        <ele>483.9</ele>
        <time>2022-10-16T13:10:34Z</time>
      </trkpt>
      <trkpt lat="38.408413" lon="-2.007792">
        <ele>486.3</ele>
        <time>2022-10-16T13:10:52Z</time>
      </trkpt>
      <trkpt lat="38.408606" lon="-2.007768">
        <ele>486.9</ele>
        <time>2022-10-16T13:11:06Z</time>
      </trkpt>
      <trkpt lat="38.408779" lon="-2.007834">
        <ele>480.0</ele>
        <time>2022-10-16T13:11:20Z</time>
      </trkpt>
      <trkpt lat="38.408950" lon="-2.007906">
        <ele>477.6</ele>
        <time>2022-10-16T13:11:32Z</time>
      </trkpt>
      <trkpt lat="38.409131" lon="-2.007949">
        <ele>478.9</ele>
        <time>2022-10-16T13:11:46Z</time>
      </trkpt>
      <trkpt lat="38.409323" lon="-2.007980">
        <ele>476.9</ele>
        <time>2022-10-16T13:12:03Z</time>
      </trkpt>
      <trkpt lat="38.409451" lon="-2.008149">
        <ele>475.9</ele>
        <time>2022-10-16T13:12:18Z</time>
      </trkpt>
      <trkpt lat="38.409624" lon="-2.008236">
        <ele>474.6</ele>
        <time>2022-10-16T13:12:38Z</time>
      </trkpt>
      <trkpt lat="38.409793" lon="-2.008346">
        <ele>471.0</ele>
        <time>2022-10-16T13:12:57Z</time>
      </trkpt>
      <trkpt lat="38.409880" lon="-2.008551">
        <ele>468.0</ele>
        <time>2022-10-16T13:13:11Z</time>
      </trkpt>
      <trkpt lat="38.409941" lon="-2.008775">
        <ele>464.0</ele>
        <time>2022-10-16T13:13:26Z</time>
      </trkpt>
      <trkpt lat="38.410083" lon="-2.008933">
        <ele>472.5</ele>
        <time>2022-10-16T13:13:53Z</time>
      </trkpt>
      <trkpt lat="38.410094" lon="-2.009177">
        <ele>472.3</ele>
        <time>2022-10-16T13:14:29Z</time>
      </trkpt>
      <trkpt lat="38.410048" lon="-2.009411">
        <ele>472.3</ele>
        <time>2022-10-16T13:14:44Z</time>
      </trkpt>
      <trkpt lat="38.409993" lon="-2.009632">
        <ele>464.9</ele>
        <time>2022-10-16T13:15:02Z</time>
      </trkpt>
      <trkpt lat="38.409939" lon="-2.009856">
        <ele>461.0</ele>
        <time>2022-10-16T13:15:18Z</time>
      </trkpt>
      <trkpt lat="38.409909" lon="-2.010085">
        <ele>471.1</ele>
        <time>2022-10-16T13:15:34Z</time>
      </trkpt>
      <trkpt lat="38.409946" lon="-2.010316">
        <ele>469.0</ele>
        <time>2022-10-16T13:15:49Z</time>
      </trkpt>
      <trkpt lat="38.410071" lon="-2.010501">
        <ele>469.0</ele>
        <time>2022-10-16T13:16:21Z</time>
      </trkpt>
      <trkpt lat="38.410241" lon="-2.010598">
        <ele>469.2</ele>
        <time>2022-10-16T13:16:42Z</time>
      </trkpt>
      <trkpt lat="38.410432" lon="-2.010562">
        <ele>469.2</ele>
        <time>2022-10-16T13:16:55Z</time>
      </trkpt>
      <trkpt lat="38.410620" lon="-2.010546">
        <ele>466.1</ele>
        <time>2022-10-16T13:17:09Z</time>
      </trkpt>
      <trkpt lat="38.410816" lon="-2.010533">
        <ele>459.1</ele>
        <time>2022-10-16T13:17:22Z</time>
      </trkpt>
      <trkpt lat="38.410953" lon="-2.010415">
        <ele>472.3</ele>
        <time>2022-10-16T13:18:10Z</time>
      </trkpt>
      <trkpt lat="38.410979" lon="-2.010410">
        <ele>472.3</ele>
        <time>2022-10-16T13:18:42Z</time>
      </trkpt>
      <trkpt lat="38.411011" lon="-2.010389">
        <ele>472.0</ele>
        <time>2022-10-16T13:20:55Z</time>
      </trkpt>
      <trkpt lat="38.411052" lon="-2.010386">
        <ele>472.0</ele>
        <time>2022-10-16T13:22:30Z</time>
      </trkpt>
      <trkpt lat="38.411095" lon="-2.010375">
        <ele>472.3</ele>
        <time>2022-10-16T13:24:18Z</time>
      </trkpt>
      <trkpt lat="38.411129" lon="-2.010303">
        <ele>470.2</ele>
        <time>2022-11-06T07:55:38Z</time>
      </trkpt>
      <trkpt lat="38.411316" lon="-2.010300">
        <ele>468.9</ele>
        <time>2022-11-06T07:55:53Z</time>
      </trkpt>
      <trkpt lat="38.411496" lon="-2.010290">
        <ele>467.9</ele>
        <time>2022-11-06T07:56:20Z</time>
      </trkpt>
      <trkpt lat="38.411634" lon="-2.010440">
        <ele>467.9</ele>
        <time>2022-11-06T07:56:32Z</time>
      </trkpt>
      <trkpt lat="38.411737" lon="-2.010631">
        <ele>469.0</ele>
        <time>2022-11-06T07:56:59Z</time>
      </trkpt>
      <trkpt lat="38.411896" lon="-2.010523">
        <ele>471.9</ele>
        <time>2022-11-06T07:57:17Z</time>
      </trkpt>
      <trkpt lat="38.412065" lon="-2.010428">
        <ele>467.4</ele>
        <time>2022-11-06T07:57:33Z</time>
      </trkpt>
      <trkpt lat="38.412252" lon="-2.010475">
        <ele>469.9</ele>
        <time>2022-11-06T07:57:46Z</time>
      </trkpt>
      <trkpt lat="38.412422" lon="-2.010577">
        <ele>473.9</ele>
        <time>2022-11-06T07:58:01Z</time>
      </trkpt>
      <trkpt lat="38.412590" lon="-2.010689">
        <ele>476.6</ele>
        <time>2022-11-06T07:58:15Z</time>
      </trkpt>
      <trkpt lat="38.412745" lon="-2.010823">
        <ele>479.0</ele>
        <time>2022-11-06T07:58:33Z</time>
      </trkpt>
      <trkpt lat="38.412918" lon="-2.010891">
        <ele>480.9</ele>
        <time>2022-11-06T07:58:51Z</time>
      </trkpt>
      <trkpt lat="38.413029" lon="-2.010708">
        <ele>481.9</ele>
        <time>2022-11-06T07:59:07Z</time>
      </trkpt>
      <trkpt lat="38.413116" lon="-2.010499">
        <ele>484.9</ele>
        <time>2022-11-06T07:59:22Z</time>
      </trkpt>
      <trkpt lat="38.413297" lon="-2.010521">
        <ele>489.3</ele>
        <time>2022-11-06T07:59:53Z</time>
      </trkpt>
      <trkpt lat="38.413447" lon="-2.010655">
        <ele>487.9</ele>
        <time>2022-11-06T08:00:05Z</time>
      </trkpt>
      <trkpt lat="38.413512" lon="-2.010873">
        <ele>488.9</ele>
        <time>2022-11-06T08:00:23Z</time>
      </trkpt>
      <trkpt lat="38.413633" lon="-2.011049">
        <ele>491.9</ele>
        <time>2022-11-06T08:00:43Z</time>
      </trkpt>
      <trkpt lat="38.413783" lon="-2.011179">
        <ele>494.9</ele>
        <time>2022-11-06T08:00:57Z</time>
      </trkpt>
      <trkpt lat="38.413948" lon="-2.011297">
        <ele>496.9</ele>
        <time>2022-11-06T08:01:12Z</time>
      </trkpt>
      <trkpt lat="38.414117" lon="-2.011386">
        <ele>499.9</ele>
        <time>2022-11-06T08:01:50Z</time>
      </trkpt>
      <trkpt lat="38.414252" lon="-2.011221">
        <ele>499.9</ele>
        <time>2022-11-06T08:02:01Z</time>
      </trkpt>
      <trkpt lat="38.414372" lon="-2.011040">
        <ele>498.0</ele>
        <time>2022-11-06T08:02:16Z</time>
      </trkpt>
      <trkpt lat="38.414483" lon="-2.010857">
        <ele>495.0</ele>
        <time>2022-11-06T08:02:36Z</time>
      </trkpt>
      <trkpt lat="38.414585" lon="-2.010665">
        <ele>494.2</ele>
        <time>2022-11-06T08:02:52Z</time>
      </trkpt>
      <trkpt lat="38.414719" lon="-2.010505">
        <ele>496.9</ele>
        <time>2022-11-06T08:03:15Z</time>
      </trkpt>
      <trkpt lat="38.414886" lon="-2.010404">
        <ele>495.6</ele>
        <time>2022-11-06T08:03:29Z</time>
      </trkpt>
      <trkpt lat="38.414998" lon="-2.010213">
        <ele>496.9</ele>
        <time>2022-11-06T08:03:43Z</time>
      </trkpt>
      <trkpt lat="38.415027" lon="-2.009978">
        <ele>496.9</ele>
        <time>2022-11-06T08:03:56Z</time>
      </trkpt>
      <trkpt lat="38.414965" lon="-2.009752">
        <ele>498.9</ele>
        <time>2022-11-06T08:04:12Z</time>
      </trkpt>
      <trkpt lat="38.414991" lon="-2.009519">
        <ele>505.9</ele>
        <time>2022-11-06T08:04:35Z</time>
      </trkpt>
      <trkpt lat="38.415098" lon="-2.009332">
        <ele>511.9</ele>
        <time>2022-11-06T08:04:57Z</time>
      </trkpt>
      <trkpt lat="38.415286" lon="-2.009318">
        <ele>515.0</ele>
        <time>2022-11-06T08:05:37Z</time>
      </trkpt>
      <trkpt lat="38.415457" lon="-2.009201">
        <ele>518.7</ele>
        <time>2022-11-06T08:05:51Z</time>
      </trkpt>
      <trkpt lat="38.415613" lon="-2.009071">
        <ele>520.0</ele>
        <time>2022-11-06T08:06:09Z</time>
      </trkpt>
      <trkpt lat="38.415762" lon="-2.008912">
        <ele>520.0</ele>
        <time>2022-11-06T08:06:26Z</time>
      </trkpt>
      <trkpt lat="38.415932" lon="-2.008826">
        <ele>519.0</ele>
        <time>2022-11-06T08:06:44Z</time>
      </trkpt>
      <trkpt lat="38.416091" lon="-2.008707">
        <ele>519.0</ele>
        <time>2022-11-06T08:06:59Z</time>
      </trkpt>
      <trkpt lat="38.416183" lon="-2.008509">
        <ele>518.9</ele>
        <time>2022-11-06T08:07:17Z</time>
      </trkpt>
      <trkpt lat="38.416277" lon="-2.008312">
        <ele>521.7</ele>
        <time>2022-11-06T08:07:35Z</time>
      </trkpt>
      <trkpt lat="38.416412" lon="-2.008345">
        <ele>523.9</ele>
        <time>2022-11-06T08:07:53Z</time>
      </trkpt>
      <trkpt lat="38.416590" lon="-2.008348">
        <ele>524.9</ele>
        <time>2022-11-06T08:08:15Z</time>
      </trkpt>
      <trkpt lat="38.416740" lon="-2.008421">
        <ele>523.0</ele>
        <time>2022-11-06T08:08:32Z</time>
      </trkpt>
      <trkpt lat="38.416959" lon="-2.008411">
        <ele>522.7</ele>
        <time>2022-11-06T08:08:50Z</time>
      </trkpt>
      <trkpt lat="38.417166" lon="-2.008411">
        <ele>523.9</ele>
        <time>2022-11-06T08:09:06Z</time>
      </trkpt>
      <trkpt lat="38.417355" lon="-2.008415">
        <ele>523.0</ele>
        <time>2022-11-06T08:09:22Z</time>
      </trkpt>
      <trkpt lat="38.417549" lon="-2.008460">
        <ele>522.0</ele>
        <time>2022-11-06T08:09:36Z</time>
      </trkpt>
      <trkpt lat="38.417672" lon="-2.008376">
        <ele>519.2</ele>
        <time>2022-11-06T08:09:57Z</time>
      </trkpt>
      <trkpt lat="38.417609" lon="-2.008136">
        <ele>518.0</ele>
        <time>2022-11-06T08:10:09Z</time>
      </trkpt>
      <trkpt lat="38.417565" lon="-2.007912">
        <ele>518.0</ele>
        <time>2022-11-06T08:10:27Z</time>
      </trkpt>
      <trkpt lat="38.417467" lon="-2.007714">
        <ele>515.2</ele>
        <time>2022-11-06T08:10:43Z</time>
      </trkpt>
      <trkpt lat="38.417407" lon="-2.007487">
        <ele>515.9</ele>
        <time>2022-11-06T08:10:57Z</time>
      </trkpt>
      <trkpt lat="38.417361" lon="-2.007265">
        <ele>516.0</ele>
        <time>2022-11-06T08:11:12Z</time>
      </trkpt>
      <trkpt lat="38.417286" lon="-2.007047">
        <ele>515.9</ele>
        <time>2022-11-06T08:11:27Z</time>
      </trkpt>
      <trkpt lat="38.417255" lon="-2.006818">
        <ele>518.0</ele>
        <time>2022-11-06T08:11:43Z</time>
      </trkpt>
      <trkpt lat="38.417243" lon="-2.006576">
        <ele>517.0</ele>
        <time>2022-11-06T08:11:58Z</time>
      </trkpt>
      <trkpt lat="38.417217" lon="-2.006346">
        <ele>519.0</ele>
        <time>2022-11-06T08:12:12Z</time>
      </trkpt>
      <trkpt lat="38.417225" lon="-2.006115">
        <ele>522.0</ele>
        <time>2022-11-06T08:12:28Z</time>
      </trkpt>
      <trkpt lat="38.417215" lon="-2.005882">
        <ele>521.0</ele>
        <time>2022-11-06T08:12:44Z</time>
      </trkpt>
      <trkpt lat="38.417234" lon="-2.005648">
        <ele>519.9</ele>
        <time>2022-11-06T08:13:00Z</time>
      </trkpt>
      <trkpt lat="38.417220" lon="-2.005412">
        <ele>521.0</ele>
        <time>2022-11-06T08:13:17Z</time>
      </trkpt>
      <trkpt lat="38.417272" lon="-2.005184">
        <ele>523.0</ele>
        <time>2022-11-06T08:13:31Z</time>
      </trkpt>
      <trkpt lat="38.417389" lon="-2.005003">
        <ele>524.7</ele>
        <time>2022-11-06T08:13:47Z</time>
      </trkpt>
      <trkpt lat="38.417495" lon="-2.004816">
        <ele>527.9</ele>
        <time>2022-11-06T08:14:02Z</time>
      </trkpt>
      <trkpt lat="38.417607" lon="-2.004628">
        <ele>527.0</ele>
        <time>2022-11-06T08:14:21Z</time>
      </trkpt>
      <trkpt lat="38.417705" lon="-2.004426">
        <ele>527.9</ele>
        <time>2022-11-06T08:14:36Z</time>
      </trkpt>
      <trkpt lat="38.417811" lon="-2.004238">
        <ele>527.0</ele>
        <time>2022-11-06T08:14:52Z</time>
      </trkpt>
      <trkpt lat="38.417978" lon="-2.004109">
        <ele>525.0</ele>
        <time>2022-11-06T08:15:10Z</time>
      </trkpt>
      <trkpt lat="38.418078" lon="-2.003906">
        <ele>525.0</ele>
        <time>2022-11-06T08:15:25Z</time>
      </trkpt>
      <trkpt lat="38.417911" lon="-2.003804">
        <ele>523.0</ele>
        <time>2022-11-06T08:15:47Z</time>
      </trkpt>
      <trkpt lat="38.417759" lon="-2.003681">
        <ele>521.0</ele>
        <time>2022-11-06T08:16:02Z</time>
      </trkpt>
      <trkpt lat="38.417595" lon="-2.003582">
        <ele>524.0</ele>
        <time>2022-11-06T08:16:25Z</time>
      </trkpt>
      <trkpt lat="38.417541" lon="-2.003360">
        <ele>523.0</ele>
        <time>2022-11-06T08:16:37Z</time>
      </trkpt>
      <trkpt lat="38.417605" lon="-2.003146">
        <ele>524.9</ele>
        <time>2022-11-06T08:16:52Z</time>
      </trkpt>
      <trkpt lat="38.417745" lon="-2.002988">
        <ele>525.1</ele>
        <time>2022-11-06T08:17:07Z</time>
      </trkpt>
      <trkpt lat="38.417812" lon="-2.002774">
        <ele>526.6</ele>
        <time>2022-11-06T08:17:23Z</time>
      </trkpt>
      <trkpt lat="38.417705" lon="-2.002585">
        <ele>525.0</ele>
        <time>2022-11-06T08:17:42Z</time>
      </trkpt>
      <trkpt lat="38.417543" lon="-2.002475">
        <ele>528.2</ele>
        <time>2022-11-06T08:17:57Z</time>
      </trkpt>
      <trkpt lat="38.417367" lon="-2.002369">
        <ele>525.3</ele>
        <time>2022-11-06T08:18:11Z</time>
      </trkpt>
      <trkpt lat="38.417186" lon="-2.002315">
        <ele>524.3</ele>
        <time>2022-11-06T08:18:24Z</time>
      </trkpt>
      <trkpt lat="38.417013" lon="-2.002241">
        <ele>524.0</ele>
        <time>2022-11-06T08:18:38Z</time>
      </trkpt>
      <trkpt lat="38.416838" lon="-2.002164">
        <ele>524.0</ele>
        <time>2022-11-06T08:18:52Z</time>
      </trkpt>
      <trkpt lat="38.416710" lon="-2.002039">
        <ele>523.9</ele>
        <time>2022-11-06T08:19:07Z</time>
      </trkpt>
      <trkpt lat="38.416675" lon="-2.001816">
        <ele>524.0</ele>
        <time>2022-11-06T08:19:20Z</time>
      </trkpt>
      <trkpt lat="38.416704" lon="-2.001572">
        <ele>526.0</ele>
        <time>2022-11-06T08:19:35Z</time>
      </trkpt>
      <trkpt lat="38.416775" lon="-2.001387">
        <ele>526.9</ele>
        <time>2022-11-06T08:19:51Z</time>
      </trkpt>
      <trkpt lat="38.416874" lon="-2.001220">
        <ele>531.0</ele>
        <time>2022-11-06T08:20:07Z</time>
      </trkpt>
      <trkpt lat="38.417019" lon="-2.001097">
        <ele>530.7</ele>
        <time>2022-11-06T08:20:25Z</time>
      </trkpt>
      <trkpt lat="38.417161" lon="-2.000972">
        <ele>532.9</ele>
        <time>2022-11-06T08:20:45Z</time>
      </trkpt>
      <trkpt lat="38.417159" lon="-2.000821">
        <ele>536.0</ele>
        <time>2022-11-06T08:21:02Z</time>
      </trkpt>
      <trkpt lat="38.416874" lon="-2.000696">
        <ele>533.0</ele>
        <time>2022-11-06T08:21:23Z</time>
      </trkpt>
      <trkpt lat="38.416713" lon="-2.000667">
        <ele>538.9</ele>
        <time>2022-11-06T08:21:46Z</time>
      </trkpt>
      <trkpt lat="38.416532" lon="-2.000689">
        <ele>538.0</ele>
        <time>2022-11-06T08:22:00Z</time>
      </trkpt>
      <trkpt lat="38.416345" lon="-2.000722">
        <ele>536.3</ele>
        <time>2022-11-06T08:22:12Z</time>
      </trkpt>
      <trkpt lat="38.416166" lon="-2.000768">
        <ele>536.0</ele>
        <time>2022-11-06T08:22:25Z</time>
      </trkpt>
      <trkpt lat="38.415984" lon="-2.000779">
        <ele>535.0</ele>
        <time>2022-11-06T08:22:39Z</time>
      </trkpt>
      <trkpt lat="38.415850" lon="-2.000624">
        <ele>535.0</ele>
        <time>2022-11-06T08:22:58Z</time>
      </trkpt>
      <trkpt lat="38.415803" lon="-2.000400">
        <ele>534.0</ele>
        <time>2022-11-06T08:23:14Z</time>
      </trkpt>
      <trkpt lat="38.415809" lon="-2.000161">
        <ele>534.0</ele>
        <time>2022-11-06T08:23:29Z</time>
      </trkpt>
      <trkpt lat="38.415829" lon="-1.999920">
        <ele>535.7</ele>
        <time>2022-11-06T08:23:44Z</time>
      </trkpt>
      <trkpt lat="38.415856" lon="-1.999688">
        <ele>535.0</ele>
        <time>2022-11-06T08:24:02Z</time>
      </trkpt>
      <trkpt lat="38.415774" lon="-1.999481">
        <ele>537.0</ele>
        <time>2022-11-06T08:24:16Z</time>
      </trkpt>
      <trkpt lat="38.415587" lon="-1.999461">
        <ele>533.3</ele>
        <time>2022-11-06T08:24:31Z</time>
      </trkpt>
      <trkpt lat="38.415401" lon="-1.999443">
        <ele>533.0</ele>
        <time>2022-11-06T08:24:49Z</time>
      </trkpt>
      <trkpt lat="38.415250" lon="-1.999295">
        <ele>533.9</ele>
        <time>2022-11-06T08:26:47Z</time>
      </trkpt>
      <trkpt lat="38.415219" lon="-1.999067">
        <ele>535.0</ele>
        <time>2022-11-06T08:26:58Z</time>
      </trkpt>
      <trkpt lat="38.415305" lon="-1.998858">
        <ele>535.0</ele>
        <time>2022-11-06T08:27:10Z</time>
      </trkpt>
      <trkpt lat="38.415422" lon="-1.998665">
        <ele>534.0</ele>
        <time>2022-11-06T08:27:22Z</time>
      </trkpt>
      <trkpt lat="38.415514" lon="-1.998456">
        <ele>533.9</ele>
        <time>2022-11-06T08:27:34Z</time>
      </trkpt>
      <trkpt lat="38.415606" lon="-1.998246">
        <ele>535.0</ele>
        <time>2022-11-06T08:27:46Z</time>
      </trkpt>
      <trkpt lat="38.415693" lon="-1.998045">
        <ele>535.7</ele>
        <time>2022-11-06T08:28:00Z</time>
      </trkpt>
      <trkpt lat="38.415551" lon="-1.997898">
        <ele>535.0</ele>
        <time>2022-11-06T08:28:13Z</time>
      </trkpt>
      <trkpt lat="38.415372" lon="-1.997860">
        <ele>534.0</ele>
        <time>2022-11-06T08:28:23Z</time>
      </trkpt>
      <trkpt lat="38.415191" lon="-1.997822">
        <ele>534.0</ele>
        <time>2022-11-06T08:28:35Z</time>
      </trkpt>
      <trkpt lat="38.415007" lon="-1.997752">
        <ele>536.0</ele>
        <time>2022-11-06T08:28:47Z</time>
      </trkpt>
      <trkpt lat="38.414893" lon="-1.997572">
        <ele>536.0</ele>
        <time>2022-11-06T08:29:00Z</time>
      </trkpt>
      <trkpt lat="38.414809" lon="-1.997353">
        <ele>537.0</ele>
        <time>2022-11-06T08:29:13Z</time>
      </trkpt>
      <trkpt lat="38.414669" lon="-1.997209">
        <ele>535.9</ele>
        <time>2022-11-06T08:29:24Z</time>
      </trkpt>
      <trkpt lat="38.414704" lon="-1.996978">
        <ele>537.0</ele>
        <time>2022-11-06T08:29:36Z</time>
      </trkpt>
      <trkpt lat="38.414843" lon="-1.996833">
        <ele>538.0</ele>
        <time>2022-11-06T08:29:48Z</time>
      </trkpt>
      <trkpt lat="38.414810" lon="-1.996606">
        <ele>538.0</ele>
        <time>2022-11-06T08:30:00Z</time>
      </trkpt>
      <trkpt lat="38.414739" lon="-1.996425">
        <ele>538.0</ele>
        <time>2022-11-06T08:30:14Z</time>
      </trkpt>
      <trkpt lat="38.414804" lon="-1.996271">
        <ele>539.0</ele>
        <time>2022-11-06T08:30:28Z</time>
      </trkpt>
      <trkpt lat="38.414941" lon="-1.996247">
        <ele>535.3</ele>
        <time>2022-11-06T08:30:41Z</time>
      </trkpt>
      <trkpt lat="38.415141" lon="-1.996188">
        <ele>531.0</ele>
        <time>2022-11-06T08:30:57Z</time>
      </trkpt>
      <trkpt lat="38.415190" lon="-1.996003">
        <ele>531.0</ele>
        <time>2022-11-06T08:31:14Z</time>
      </trkpt>
      <trkpt lat="38.415002" lon="-1.995803">
        <ele>530.0</ele>
        <time>2022-11-06T08:31:29Z</time>
      </trkpt>
      <trkpt lat="38.414847" lon="-1.995680">
        <ele>530.0</ele>
        <time>2022-11-06T08:31:42Z</time>
      </trkpt>
      <trkpt lat="38.414699" lon="-1.995543">
        <ele>529.0</ele>
        <time>2022-11-06T08:31:56Z</time>
      </trkpt>
      <trkpt lat="38.414523" lon="-1.995453">
        <ele>528.3</ele>
        <time>2022-11-06T08:32:11Z</time>
      </trkpt>
      <trkpt lat="38.414349" lon="-1.995391">
        <ele>528.1</ele>
        <time>2022-11-06T08:32:27Z</time>
      </trkpt>
      <trkpt lat="38.414235" lon="-1.995192">
        <ele>532.0</ele>
        <time>2022-11-06T08:32:43Z</time>
      </trkpt>
      <trkpt lat="38.414175" lon="-1.994968">
        <ele>533.0</ele>
        <time>2022-11-06T08:32:55Z</time>
      </trkpt>
      <trkpt lat="38.414026" lon="-1.994840">
        <ele>533.0</ele>
        <time>2022-11-06T08:33:09Z</time>
      </trkpt>
      <trkpt lat="38.413893" lon="-1.994681">
        <ele>535.0</ele>
        <time>2022-11-06T08:33:23Z</time>
      </trkpt>
      <trkpt lat="38.413811" lon="-1.994470">
        <ele>535.0</ele>
        <time>2022-11-06T08:33:39Z</time>
      </trkpt>
      <trkpt lat="38.413727" lon="-1.994255">
        <ele>536.0</ele>
        <time>2022-11-06T08:33:52Z</time>
      </trkpt>
      <trkpt lat="38.413722" lon="-1.994023">
        <ele>537.0</ele>
        <time>2022-11-06T08:34:05Z</time>
      </trkpt>
      <trkpt lat="38.413709" lon="-1.993786">
        <ele>539.0</ele>
        <time>2022-11-06T08:34:20Z</time>
      </trkpt>
      <trkpt lat="38.413636" lon="-1.993577">
        <ele>539.0</ele>
        <time>2022-11-06T08:34:37Z</time>
      </trkpt>
      <trkpt lat="38.413595" lon="-1.993337">
        <ele>538.2</ele>
        <time>2022-11-06T08:34:54Z</time>
      </trkpt>
      <trkpt lat="38.413589" lon="-1.993105">
        <ele>540.0</ele>
        <time>2022-11-06T08:35:09Z</time>
      </trkpt>
      <trkpt lat="38.413587" lon="-1.992874">
        <ele>540.0</ele>
        <time>2022-11-06T08:35:23Z</time>
      </trkpt>
      <trkpt lat="38.413564" lon="-1.992644">
        <ele>538.3</ele>
        <time>2022-11-06T08:35:42Z</time>
      </trkpt>
      <trkpt lat="38.413530" lon="-1.992414">
        <ele>539.0</ele>
        <time>2022-11-06T08:36:00Z</time>
      </trkpt>
      <trkpt lat="38.413483" lon="-1.992191">
        <ele>538.0</ele>
        <time>2022-11-06T08:36:14Z</time>
      </trkpt>
      <trkpt lat="38.413385" lon="-1.991996">
        <ele>539.0</ele>
        <time>2022-11-06T08:36:31Z</time>
      </trkpt>
      <trkpt lat="38.413289" lon="-1.991799">
        <ele>540.0</ele>
        <time>2022-11-06T08:36:47Z</time>
      </trkpt>
      <trkpt lat="38.413226" lon="-1.991580">
        <ele>538.9</ele>
        <time>2022-11-06T08:37:05Z</time>
      </trkpt>
      <trkpt lat="38.413263" lon="-1.991350">
        <ele>540.0</ele>
        <time>2022-11-06T08:37:19Z</time>
      </trkpt>
      <trkpt lat="38.413287" lon="-1.991112">
        <ele>539.0</ele>
        <time>2022-11-06T08:37:36Z</time>
      </trkpt>
      <trkpt lat="38.413250" lon="-1.990886">
        <ele>539.0</ele>
        <time>2022-11-06T08:37:53Z</time>
      </trkpt>
      <trkpt lat="38.413200" lon="-1.990665">
        <ele>540.0</ele>
        <time>2022-11-06T08:38:09Z</time>
      </trkpt>
      <trkpt lat="38.413097" lon="-1.990474">
        <ele>539.9</ele>
        <time>2022-11-06T08:38:25Z</time>
      </trkpt>
      <trkpt lat="38.412994" lon="-1.990279">
        <ele>536.0</ele>
        <time>2022-11-06T08:38:43Z</time>
      </trkpt>
      <trkpt lat="38.412992" lon="-1.990043">
        <ele>537.0</ele>
        <time>2022-11-06T08:39:01Z</time>
      </trkpt>
      <trkpt lat="38.413093" lon="-1.989843">
        <ele>536.0</ele>
        <time>2022-11-06T08:39:17Z</time>
      </trkpt>
      <trkpt lat="38.413227" lon="-1.989689">
        <ele>535.1</ele>
        <time>2022-11-06T08:39:34Z</time>
      </trkpt>
      <trkpt lat="38.413359" lon="-1.989521">
        <ele>533.0</ele>
        <time>2022-11-06T08:39:49Z</time>
      </trkpt>
      <trkpt lat="38.413486" lon="-1.989355">
        <ele>532.1</ele>
        <time>2022-11-06T08:40:05Z</time>
      </trkpt>
      <trkpt lat="38.413605" lon="-1.989173">
        <ele>531.0</ele>
        <time>2022-11-06T08:40:22Z</time>
      </trkpt>
      <trkpt lat="38.413699" lon="-1.988969">
        <ele>530.3</ele>
        <time>2022-11-06T08:40:39Z</time>
      </trkpt>
      <trkpt lat="38.413787" lon="-1.988759">
        <ele>530.0</ele>
        <time>2022-11-06T08:40:57Z</time>
      </trkpt>
      <trkpt lat="38.413781" lon="-1.988604">
        <ele>529.7</ele>
        <time>2022-11-06T08:41:13Z</time>
      </trkpt>
      <trkpt lat="38.413615" lon="-1.988634">
        <ele>527.0</ele>
        <time>2022-11-06T08:41:30Z</time>
      </trkpt>
      <trkpt lat="38.413443" lon="-1.988653">
        <ele>527.0</ele>
        <time>2022-11-06T08:41:47Z</time>
      </trkpt>
      <trkpt lat="38.413259" lon="-1.988636">
        <ele>526.3</ele>
        <time>2022-11-06T08:42:05Z</time>
      </trkpt>
      <trkpt lat="38.413084" lon="-1.988567">
        <ele>528.0</ele>
        <time>2022-11-06T08:42:22Z</time>
      </trkpt>
      <trkpt lat="38.412904" lon="-1.988513">
        <ele>528.9</ele>
        <time>2022-11-06T08:42:38Z</time>
      </trkpt>
      <trkpt lat="38.412738" lon="-1.988407">
        <ele>532.7</ele>
        <time>2022-11-06T08:42:54Z</time>
      </trkpt>
      <trkpt lat="38.412560" lon="-1.988352">
        <ele>530.3</ele>
        <time>2022-11-06T08:43:11Z</time>
      </trkpt>
      <trkpt lat="38.412374" lon="-1.988345">
        <ele>530.0</ele>
        <time>2022-11-06T08:43:25Z</time>
      </trkpt>
      <trkpt lat="38.412199" lon="-1.988405">
        <ele>529.3</ele>
        <time>2022-11-06T08:43:41Z</time>
      </trkpt>
      <trkpt lat="38.412039" lon="-1.988291">
        <ele>529.0</ele>
        <time>2022-11-06T08:43:58Z</time>
      </trkpt>
      <trkpt lat="38.411917" lon="-1.988115">
        <ele>530.0</ele>
        <time>2022-11-06T08:44:15Z</time>
      </trkpt>
      <trkpt lat="38.411791" lon="-1.987941">
        <ele>529.7</ele>
        <time>2022-11-06T08:44:31Z</time>
      </trkpt>
      <trkpt lat="38.411623" lon="-1.987844">
        <ele>530.0</ele>
        <time>2022-11-06T08:44:48Z</time>
      </trkpt>
      <trkpt lat="38.411437" lon="-1.987837">
        <ele>529.0</ele>
        <time>2022-11-06T08:45:02Z</time>
      </trkpt>
      <trkpt lat="38.411257" lon="-1.987794">
        <ele>529.1</ele>
        <time>2022-11-06T08:45:17Z</time>
      </trkpt>
      <trkpt lat="38.411129" lon="-1.987622">
        <ele>531.0</ele>
        <time>2022-11-06T08:46:28Z</time>
      </trkpt>
      <trkpt lat="38.411094" lon="-1.987382">
        <ele>532.0</ele>
        <time>2022-11-06T08:46:42Z</time>
      </trkpt>
      <trkpt lat="38.411038" lon="-1.987159">
        <ele>531.0</ele>
        <time>2022-11-06T08:46:54Z</time>
      </trkpt>
      <trkpt lat="38.411146" lon="-1.986969">
        <ele>530.0</ele>
        <time>2022-11-06T08:47:10Z</time>
      </trkpt>
      <trkpt lat="38.411308" lon="-1.986855">
        <ele>530.0</ele>
        <time>2022-11-06T08:47:24Z</time>
      </trkpt>
      <trkpt lat="38.411422" lon="-1.986671">
        <ele>531.0</ele>
        <time>2022-11-06T08:47:37Z</time>
      </trkpt>
      <trkpt lat="38.411562" lon="-1.986517">
        <ele>529.0</ele>
        <time>2022-11-06T08:47:55Z</time>
      </trkpt>
      <trkpt lat="38.411706" lon="-1.986371">
        <ele>526.0</ele>
        <time>2022-11-06T08:48:12Z</time>
      </trkpt>
      <trkpt lat="38.411821" lon="-1.986193">
        <ele>524.0</ele>
        <time>2022-11-06T08:48:26Z</time>
      </trkpt>
      <trkpt lat="38.411891" lon="-1.985978">
        <ele>522.0</ele>
        <time>2022-11-06T08:48:44Z</time>
      </trkpt>
      <trkpt lat="38.411864" lon="-1.985748">
        <ele>525.0</ele>
        <time>2022-11-06T08:48:58Z</time>
      </trkpt>
      <trkpt lat="38.411711" lon="-1.985698">
        <ele>521.3</ele>
        <time>2022-11-06T08:49:15Z</time>
      </trkpt>
      <trkpt lat="38.411541" lon="-1.985772">
        <ele>519.0</ele>
        <time>2022-11-06T08:49:31Z</time>
      </trkpt>
      <trkpt lat="38.411361" lon="-1.985808">
        <ele>517.0</ele>
        <time>2022-11-06T08:49:47Z</time>
      </trkpt>
      <trkpt lat="38.411176" lon="-1.985787">
        <ele>515.0</ele>
        <time>2022-11-06T08:50:21Z</time>
      </trkpt>
      <trkpt lat="38.410994" lon="-1.985750">
        <ele>515.0</ele>
        <time>2022-11-06T08:50:37Z</time>
      </trkpt>
      <trkpt lat="38.410825" lon="-1.985666">
        <ele>513.1</ele>
        <time>2022-11-06T08:50:53Z</time>
      </trkpt>
      <trkpt lat="38.410676" lon="-1.985529">
        <ele>513.9</ele>
        <time>2022-11-06T08:51:10Z</time>
      </trkpt>
      <trkpt lat="38.410620" lon="-1.985299">
        <ele>516.0</ele>
        <time>2022-11-06T08:51:27Z</time>
      </trkpt>
      <trkpt lat="38.410567" lon="-1.985076">
        <ele>517.3</ele>
        <time>2022-11-06T08:51:42Z</time>
      </trkpt>
      <trkpt lat="38.410524" lon="-1.984849">
        <ele>517.0</ele>
        <time>2022-11-06T08:51:57Z</time>
      </trkpt>
      <trkpt lat="38.410528" lon="-1.984614">
        <ele>516.7</ele>
        <time>2022-11-06T08:52:13Z</time>
      </trkpt>
      <trkpt lat="38.410597" lon="-1.984394">
        <ele>519.0</ele>
        <time>2022-11-06T08:52:27Z</time>
      </trkpt>
      <trkpt lat="38.410502" lon="-1.984191">
        <ele>520.1</ele>
        <time>2022-11-06T08:52:43Z</time>
      </trkpt>
      <trkpt lat="38.410381" lon="-1.984013">
        <ele>521.2</ele>
        <time>2022-11-06T08:52:59Z</time>
      </trkpt>
      <trkpt lat="38.410343" lon="-1.983785">
        <ele>519.0</ele>
        <time>2022-11-06T08:54:38Z</time>
      </trkpt>
      <trkpt lat="38.410304" lon="-1.983553">
        <ele>519.9</ele>
        <time>2022-11-06T08:55:25Z</time>
      </trkpt>
      <trkpt lat="38.410257" lon="-1.983321">
        <ele>523.0</ele>
        <time>2022-11-06T08:55:38Z</time>
      </trkpt>
      <trkpt lat="38.410145" lon="-1.983138">
        <ele>526.0</ele>
        <time>2022-11-06T08:55:52Z</time>
      </trkpt>
      <trkpt lat="38.410023" lon="-1.982968">
        <ele>524.0</ele>
        <time>2022-11-06T08:56:13Z</time>
      </trkpt>
      <trkpt lat="38.410085" lon="-1.982770">
        <ele>522.0</ele>
        <time>2022-11-06T08:56:41Z</time>
      </trkpt>
      <trkpt lat="38.410235" lon="-1.982768">
        <ele>519.0</ele>
        <time>2022-11-06T08:57:08Z</time>
      </trkpt>
      <trkpt lat="38.410413" lon="-1.982811">
        <ele>514.3</ele>
        <time>2022-11-06T08:57:23Z</time>
      </trkpt>
      <trkpt lat="38.410583" lon="-1.982894">
        <ele>513.1</ele>
        <time>2022-11-06T08:57:39Z</time>
      </trkpt>
      <trkpt lat="38.410748" lon="-1.983006">
        <ele>511.3</ele>
        <time>2022-11-06T08:57:54Z</time>
      </trkpt>
      <trkpt lat="38.410932" lon="-1.983033">
        <ele>513.0</ele>
        <time>2022-11-06T08:58:10Z</time>
      </trkpt>
      <trkpt lat="38.411109" lon="-1.983078">
        <ele>513.0</ele>
        <time>2022-11-06T08:58:24Z</time>
      </trkpt>
      <trkpt lat="38.411293" lon="-1.983065">
        <ele>515.7</ele>
        <time>2022-11-06T08:58:42Z</time>
      </trkpt>
      <trkpt lat="38.411424" lon="-1.982904">
        <ele>518.0</ele>
        <time>2022-11-06T08:58:58Z</time>
      </trkpt>
      <trkpt lat="38.411531" lon="-1.982708">
        <ele>520.0</ele>
        <time>2022-11-06T08:59:11Z</time>
      </trkpt>
      <trkpt lat="38.411656" lon="-1.982535">
        <ele>522.0</ele>
        <time>2022-11-06T08:59:29Z</time>
      </trkpt>
      <trkpt lat="38.411800" lon="-1.982396">
        <ele>523.0</ele>
        <time>2022-11-06T08:59:49Z</time>
      </trkpt>
      <trkpt lat="38.411912" lon="-1.982209">
        <ele>522.0</ele>
        <time>2022-11-06T09:02:30Z</time>
      </trkpt>
      <trkpt lat="38.411969" lon="-1.981985">
        <ele>527.0</ele>
        <time>2022-11-06T09:02:51Z</time>
      </trkpt>
      <trkpt lat="38.412013" lon="-1.981755">
        <ele>525.0</ele>
        <time>2022-11-06T09:03:15Z</time>
      </trkpt>
      <trkpt lat="38.412125" lon="-1.981563">
        <ele>529.7</ele>
        <time>2022-11-06T09:03:29Z</time>
      </trkpt>
      <trkpt lat="38.412195" lon="-1.981349">
        <ele>532.7</ele>
        <time>2022-11-06T09:03:52Z</time>
      </trkpt>
      <trkpt lat="38.412263" lon="-1.981123">
        <ele>533.7</ele>
        <time>2022-11-06T09:04:15Z</time>
      </trkpt>
      <trkpt lat="38.412354" lon="-1.980924">
        <ele>534.0</ele>
        <time>2022-11-06T09:04:39Z</time>
      </trkpt>
      <trkpt lat="38.412484" lon="-1.980762">
        <ele>533.0</ele>
        <time>2022-11-06T09:05:06Z</time>
      </trkpt>
      <trkpt lat="38.412571" lon="-1.980552">
        <ele>533.0</ele>
        <time>2022-11-06T09:05:24Z</time>
      </trkpt>
      <trkpt lat="38.412710" lon="-1.980404">
        <ele>534.7</ele>
        <time>2022-11-06T09:05:42Z</time>
      </trkpt>
      <trkpt lat="38.412878" lon="-1.980308">
        <ele>536.6</ele>
        <time>2022-11-06T09:06:00Z</time>
      </trkpt>
      <trkpt lat="38.413051" lon="-1.980232">
        <ele>539.0</ele>
        <time>2022-11-06T09:06:18Z</time>
      </trkpt>
      <trkpt lat="38.413236" lon="-1.980232">
        <ele>543.9</ele>
        <time>2022-11-06T09:06:39Z</time>
      </trkpt>
      <trkpt lat="38.413407" lon="-1.980151">
        <ele>546.0</ele>
        <time>2022-11-06T09:07:00Z</time>
      </trkpt>
      <trkpt lat="38.413562" lon="-1.980025">
        <ele>552.0</ele>
        <time>2022-11-06T09:07:30Z</time>
      </trkpt>
      <trkpt lat="38.413716" lon="-1.979889">
        <ele>554.0</ele>
        <time>2022-11-06T09:07:48Z</time>
      </trkpt>
      <trkpt lat="38.413838" lon="-1.979720">
        <ele>558.9</ele>
        <time>2022-11-06T09:08:12Z</time>
      </trkpt>
      <trkpt lat="38.413930" lon="-1.979513">
        <ele>558.0</ele>
        <time>2022-11-06T09:08:32Z</time>
      </trkpt>
      <trkpt lat="38.414041" lon="-1.979326">
        <ele>558.0</ele>
        <time>2022-11-06T09:08:51Z</time>
      </trkpt>
      <trkpt lat="38.414161" lon="-1.979133">
        <ele>563.3</ele>
        <time>2022-11-06T09:09:10Z</time>
      </trkpt>
      <trkpt lat="38.414230" lon="-1.979030">
        <ele>561.0</ele>
        <time>2022-11-06T09:09:32Z</time>
      </trkpt>
      <trkpt lat="38.414236" lon="-1.978935">
        <ele>557.1</ele>
        <time>2022-11-06T09:12:57Z</time>
      </trkpt>
      <trkpt lat="38.414334" lon="-1.978735">
        <ele>565.9</ele>
        <time>2022-11-06T09:14:25Z</time>
      </trkpt>
      <trkpt lat="38.414396" lon="-1.978517">
        <ele>570.0</ele>
        <time>2022-11-06T09:14:48Z</time>
      </trkpt>
      <trkpt lat="38.414492" lon="-1.978317">
        <ele>570.1</ele>
        <time>2022-11-06T09:15:07Z</time>
      </trkpt>
      <trkpt lat="38.414576" lon="-1.978109">
        <ele>569.0</ele>
        <time>2022-11-06T09:15:22Z</time>
      </trkpt>
      <trkpt lat="38.414654" lon="-1.977895">
        <ele>572.7</ele>
        <time>2022-11-06T09:15:42Z</time>
      </trkpt>
      <trkpt lat="38.414725" lon="-1.977670">
        <ele>574.7</ele>
        <time>2022-11-06T09:15:58Z</time>
      </trkpt>
      <trkpt lat="38.414809" lon="-1.977464">
        <ele>576.0</ele>
        <time>2022-11-06T09:16:13Z</time>
      </trkpt>
      <trkpt lat="38.414814" lon="-1.977231">
        <ele>583.7</ele>
        <time>2022-11-06T09:16:29Z</time>
      </trkpt>
      <trkpt lat="38.414767" lon="-1.977008">
        <ele>591.0</ele>
        <time>2022-11-06T09:16:46Z</time>
      </trkpt>
      <trkpt lat="38.414736" lon="-1.976772">
        <ele>593.0</ele>
        <time>2022-11-06T09:17:07Z</time>
      </trkpt>
      <trkpt lat="38.414674" lon="-1.976545">
        <ele>599.0</ele>
        <time>2022-11-06T09:17:28Z</time>
      </trkpt>
      <trkpt lat="38.414579" lon="-1.976338">
        <ele>601.0</ele>
        <time>2022-11-06T09:17:47Z</time>
      </trkpt>
      <trkpt lat="38.414594" lon="-1.976137">
        <ele>604.1</ele>
        <time>2022-11-06T09:18:08Z</time>
      </trkpt>
      <trkpt lat="38.414664" lon="-1.975921">
        <ele>606.0</ele>
        <time>2022-11-06T09:18:48Z</time>
      </trkpt>
      <trkpt lat="38.414764" lon="-1.975728">
        <ele>611.0</ele>
        <time>2022-11-06T09:19:32Z</time>
      </trkpt>
      <trkpt lat="38.414873" lon="-1.975542">
        <ele>611.0</ele>
        <time>2022-11-06T09:19:55Z</time>
      </trkpt>
      <trkpt lat="38.414999" lon="-1.975373">
        <ele>611.0</ele>
        <time>2022-11-06T09:20:29Z</time>
      </trkpt>
      <trkpt lat="38.415112" lon="-1.975194">
        <ele>621.7</ele>
        <time>2022-11-06T09:21:01Z</time>
      </trkpt>
      <trkpt lat="38.415107" lon="-1.974956">
        <ele>626.0</ele>
        <time>2022-11-06T09:22:12Z</time>
      </trkpt>
      <trkpt lat="38.415054" lon="-1.974732">
        <ele>629.3</ele>
        <time>2022-11-06T09:22:32Z</time>
      </trkpt>
      <trkpt lat="38.415002" lon="-1.974506">
        <ele>634.0</ele>
        <time>2022-11-06T09:22:53Z</time>
      </trkpt>
      <trkpt lat="38.414865" lon="-1.974349">
        <ele>636.0</ele>
        <time>2022-11-06T09:23:12Z</time>
      </trkpt>
      <trkpt lat="38.414702" lon="-1.974245">
        <ele>640.0</ele>
        <time>2022-11-06T09:23:34Z</time>
      </trkpt>
      <trkpt lat="38.414746" lon="-1.974459">
        <ele>635.4</ele>
        <time>2022-11-06T09:24:06Z</time>
      </trkpt>
      <trkpt lat="38.414697" lon="-1.974640">
        <ele>636.0</ele>
        <time>2022-11-06T09:24:27Z</time>
      </trkpt>
      <trkpt lat="38.414589" lon="-1.974772">
        <ele>647.0</ele>
        <time>2022-11-06T09:26:22Z</time>
      </trkpt>
      <trkpt lat="38.414379" lon="-1.974617">
        <ele>652.8</ele>
        <time>2022-11-06T09:27:32Z</time>
      </trkpt>
      <trkpt lat="38.414196" lon="-1.974492">
        <ele>656.0</ele>
        <time>2022-11-06T09:27:51Z</time>
      </trkpt>
      <trkpt lat="38.414049" lon="-1.974367">
        <ele>659.8</ele>
        <time>2022-11-06T09:28:08Z</time>
      </trkpt>
      <trkpt lat="38.413921" lon="-1.974182">
        <ele>665.8</ele>
        <time>2022-11-06T09:28:26Z</time>
      </trkpt>
      <trkpt lat="38.413803" lon="-1.973996">
        <ele>668.0</ele>
        <time>2022-11-06T09:28:45Z</time>
      </trkpt>
      <trkpt lat="38.413699" lon="-1.973802">
        <ele>672.8</ele>
        <time>2022-11-06T09:29:00Z</time>
      </trkpt>
      <trkpt lat="38.413598" lon="-1.973608">
        <ele>673.0</ele>
        <time>2022-11-06T09:29:17Z</time>
      </trkpt>
      <trkpt lat="38.413490" lon="-1.973410">
        <ele>673.0</ele>
        <time>2022-11-06T09:29:34Z</time>
      </trkpt>
      <trkpt lat="38.413374" lon="-1.973252">
        <ele>676.0</ele>
        <time>2022-11-06T09:29:53Z</time>
      </trkpt>
      <trkpt lat="38.413435" lon="-1.973040">
        <ele>678.8</ele>
        <time>2022-11-06T09:30:29Z</time>
      </trkpt>
      <trkpt lat="38.413506" lon="-1.972847">
        <ele>680.7</ele>
        <time>2022-11-06T09:30:50Z</time>
      </trkpt>
      <trkpt lat="38.413500" lon="-1.972614">
        <ele>689.7</ele>
        <time>2022-11-06T09:31:13Z</time>
      </trkpt>
      <trkpt lat="38.413487" lon="-1.972442">
        <ele>688.1</ele>
        <time>2022-11-06T09:34:03Z</time>
      </trkpt>
      <trkpt lat="38.413337" lon="-1.972277">
        <ele>693.8</ele>
        <time>2022-11-06T09:34:23Z</time>
      </trkpt>
      <trkpt lat="38.413261" lon="-1.972054">
        <ele>693.7</ele>
        <time>2022-11-06T09:34:42Z</time>
      </trkpt>
      <trkpt lat="38.413132" lon="-1.971881">
        <ele>695.0</ele>
        <time>2022-11-06T09:35:01Z</time>
      </trkpt>
      <trkpt lat="38.413026" lon="-1.971680">
        <ele>696.0</ele>
        <time>2022-11-06T09:35:16Z</time>
      </trkpt>
      <trkpt lat="38.412909" lon="-1.971514">
        <ele>696.0</ele>
        <time>2022-11-06T09:35:34Z</time>
      </trkpt>
      <trkpt lat="38.412845" lon="-1.971294">
        <ele>698.0</ele>
        <time>2022-11-06T09:35:53Z</time>
      </trkpt>
      <trkpt lat="38.412801" lon="-1.971074">
        <ele>697.0</ele>
        <time>2022-11-06T09:36:13Z</time>
      </trkpt>
      <trkpt lat="38.412841" lon="-1.970844">
        <ele>696.4</ele>
        <time>2022-11-06T09:36:38Z</time>
      </trkpt>
      <trkpt lat="38.412995" lon="-1.970724">
        <ele>697.0</ele>
        <time>2022-11-06T09:36:54Z</time>
      </trkpt>
      <trkpt lat="38.413056" lon="-1.970504">
        <ele>702.0</ele>
        <time>2022-11-06T09:37:25Z</time>
      </trkpt>
      <trkpt lat="38.413117" lon="-1.970282">
        <ele>704.8</ele>
        <time>2022-11-06T09:37:44Z</time>
      </trkpt>
      <trkpt lat="38.413118" lon="-1.970044">
        <ele>702.2</ele>
        <time>2022-11-06T09:37:57Z</time>
      </trkpt>
      <trkpt lat="38.413114" lon="-1.969808">
        <ele>702.2</ele>
        <time>2022-11-06T09:38:12Z</time>
      </trkpt>
      <trkpt lat="38.413105" lon="-1.969577">
        <ele>700.1</ele>
        <time>2022-11-06T09:38:27Z</time>
      </trkpt>
      <trkpt lat="38.413083" lon="-1.969345">
        <ele>698.1</ele>
        <time>2022-11-06T09:38:42Z</time>
      </trkpt>
      <trkpt lat="38.413058" lon="-1.969113">
        <ele>696.1</ele>
        <time>2022-11-06T09:38:58Z</time>
      </trkpt>
      <trkpt lat="38.413031" lon="-1.968881">
        <ele>697.1</ele>
        <time>2022-11-06T09:39:12Z</time>
      </trkpt>
      <trkpt lat="38.412993" lon="-1.968652">
        <ele>695.1</ele>
        <time>2022-11-06T09:39:28Z</time>
      </trkpt>
      <trkpt lat="38.412931" lon="-1.968429">
        <ele>688.2</ele>
        <time>2022-11-06T09:40:14Z</time>
      </trkpt>
      <trkpt lat="38.412879" lon="-1.968213">
        <ele>692.0</ele>
        <time>2022-11-06T09:40:27Z</time>
      </trkpt>
      <trkpt lat="38.412852" lon="-1.967965">
        <ele>691.8</ele>
        <time>2022-11-06T09:40:47Z</time>
      </trkpt>
      <trkpt lat="38.412816" lon="-1.967733">
        <ele>692.0</ele>
        <time>2022-11-06T09:41:22Z</time>
      </trkpt>
      <trkpt lat="38.412632" lon="-1.967753">
        <ele>694.2</ele>
        <time>2022-11-06T10:12:16Z</time>
      </trkpt>
      <trkpt lat="38.412448" lon="-1.967774">
        <ele>690.1</ele>
        <time>2022-11-06T10:15:05Z</time>
      </trkpt>
      <trkpt lat="38.412265" lon="-1.967822">
        <ele>690.1</ele>
        <time>2022-11-06T10:15:19Z</time>
      </trkpt>
      <trkpt lat="38.412085" lon="-1.967822">
        <ele>690.8</ele>
        <time>2022-11-06T10:15:33Z</time>
      </trkpt>
      <trkpt lat="38.411899" lon="-1.967830">
        <ele>688.4</ele>
        <time>2022-11-06T10:15:45Z</time>
      </trkpt>
      <trkpt lat="38.411715" lon="-1.967826">
        <ele>685.1</ele>
        <time>2022-11-06T10:15:59Z</time>
      </trkpt>
      <trkpt lat="38.411531" lon="-1.967858">
        <ele>684.2</ele>
        <time>2022-11-06T10:16:15Z</time>
      </trkpt>
      <trkpt lat="38.411351" lon="-1.967826">
        <ele>683.1</ele>
        <time>2022-11-06T10:16:29Z</time>
      </trkpt>
      <trkpt lat="38.411223" lon="-1.967663">
        <ele>681.1</ele>
        <time>2022-11-06T10:16:44Z</time>
      </trkpt>
      <trkpt lat="38.411208" lon="-1.967428">
        <ele>678.1</ele>
        <time>2022-11-06T10:16:55Z</time>
      </trkpt>
      <trkpt lat="38.411151" lon="-1.967210">
        <ele>679.1</ele>
        <time>2022-11-06T10:17:10Z</time>
      </trkpt>
      <trkpt lat="38.411149" lon="-1.966968">
        <ele>676.1</ele>
        <time>2022-11-06T10:17:25Z</time>
      </trkpt>
      <trkpt lat="38.411153" lon="-1.966738">
        <ele>672.2</ele>
        <time>2022-11-06T10:17:38Z</time>
      </trkpt>
      <trkpt lat="38.411139" lon="-1.966506">
        <ele>676.1</ele>
        <time>2022-11-06T10:17:52Z</time>
      </trkpt>
      <trkpt lat="38.411039" lon="-1.966313">
        <ele>675.0</ele>
        <time>2022-11-06T10:18:06Z</time>
      </trkpt>
      <trkpt lat="38.410940" lon="-1.966110">
        <ele>675.1</ele>
        <time>2022-11-06T10:18:20Z</time>
      </trkpt>
      <trkpt lat="38.410858" lon="-1.965899">
        <ele>679.0</ele>
        <time>2022-11-06T10:18:34Z</time>
      </trkpt>
      <trkpt lat="38.410775" lon="-1.965688">
        <ele>678.2</ele>
        <time>2022-11-06T10:18:48Z</time>
      </trkpt>
      <trkpt lat="38.410669" lon="-1.965493">
        <ele>679.1</ele>
        <time>2022-11-06T10:19:02Z</time>
      </trkpt>
      <trkpt lat="38.410539" lon="-1.965327">
        <ele>679.2</ele>
        <time>2022-11-06T10:19:15Z</time>
      </trkpt>
      <trkpt lat="38.410356" lon="-1.965333">
        <ele>683.1</ele>
        <time>2022-11-06T10:19:30Z</time>
      </trkpt>
      <trkpt lat="38.410174" lon="-1.965312">
        <ele>677.4</ele>
        <time>2022-11-06T10:19:58Z</time>
      </trkpt>
      <trkpt lat="38.410010" lon="-1.965213">
        <ele>674.8</ele>
        <time>2022-11-06T10:20:10Z</time>
      </trkpt>
      <trkpt lat="38.409873" lon="-1.965052">
        <ele>674.4</ele>
        <time>2022-11-06T10:20:20Z</time>
      </trkpt>
      <trkpt lat="38.409738" lon="-1.964900">
        <ele>675.1</ele>
        <time>2022-11-06T10:20:32Z</time>
      </trkpt>
      <trkpt lat="38.409604" lon="-1.964741">
        <ele>675.0</ele>
        <time>2022-11-06T10:20:46Z</time>
      </trkpt>
      <trkpt lat="38.409430" lon="-1.964683">
        <ele>675.1</ele>
        <time>2022-11-06T10:20:58Z</time>
      </trkpt>
      <trkpt lat="38.409255" lon="-1.964603">
        <ele>672.1</ele>
        <time>2022-11-06T10:21:13Z</time>
      </trkpt>
      <trkpt lat="38.409165" lon="-1.964403">
        <ele>667.4</ele>
        <time>2022-11-06T10:21:27Z</time>
      </trkpt>
      <trkpt lat="38.408999" lon="-1.964286">
        <ele>665.4</ele>
        <time>2022-11-06T10:21:39Z</time>
      </trkpt>
      <trkpt lat="38.408895" lon="-1.964088">
        <ele>660.1</ele>
        <time>2022-11-06T10:22:02Z</time>
      </trkpt>
      <trkpt lat="38.408753" lon="-1.963941">
        <ele>655.4</ele>
        <time>2022-11-06T10:22:18Z</time>
      </trkpt>
      <trkpt lat="38.408618" lon="-1.963782">
        <ele>653.1</ele>
        <time>2022-11-06T10:22:33Z</time>
      </trkpt>
      <trkpt lat="38.408506" lon="-1.963594">
        <ele>652.1</ele>
        <time>2022-11-06T10:22:49Z</time>
      </trkpt>
      <trkpt lat="38.408382" lon="-1.963421">
        <ele>651.2</ele>
        <time>2022-11-06T10:23:05Z</time>
      </trkpt>
      <trkpt lat="38.408299" lon="-1.963216">
        <ele>645.1</ele>
        <time>2022-11-06T10:23:21Z</time>
      </trkpt>
      <trkpt lat="38.408198" lon="-1.963017">
        <ele>639.1</ele>
        <time>2022-11-06T10:23:37Z</time>
      </trkpt>
      <trkpt lat="38.408124" lon="-1.962800">
        <ele>636.1</ele>
        <time>2022-11-06T10:23:52Z</time>
      </trkpt>
      <trkpt lat="38.408001" lon="-1.962631">
        <ele>636.1</ele>
        <time>2022-11-06T10:24:07Z</time>
      </trkpt>
      <trkpt lat="38.407916" lon="-1.962425">
        <ele>632.4</ele>
        <time>2022-11-06T10:24:24Z</time>
      </trkpt>
      <trkpt lat="38.407830" lon="-1.962220">
        <ele>627.1</ele>
        <time>2022-11-06T10:24:41Z</time>
      </trkpt>
      <trkpt lat="38.407762" lon="-1.962003">
        <ele>626.2</ele>
        <time>2022-11-06T10:24:54Z</time>
      </trkpt>
      <trkpt lat="38.407685" lon="-1.961790">
        <ele>623.1</ele>
        <time>2022-11-06T10:25:13Z</time>
      </trkpt>
      <trkpt lat="38.407592" lon="-1.961591">
        <ele>619.5</ele>
        <time>2022-11-06T10:25:29Z</time>
      </trkpt>
      <trkpt lat="38.407545" lon="-1.961368">
        <ele>616.1</ele>
        <time>2022-11-06T10:25:41Z</time>
      </trkpt>
      <trkpt lat="38.407483" lon="-1.961144">
        <ele>617.1</ele>
        <time>2022-11-06T10:25:57Z</time>
      </trkpt>
      <trkpt lat="38.407487" lon="-1.960911">
        <ele>616.1</ele>
        <time>2022-11-06T10:26:13Z</time>
      </trkpt>
      <trkpt lat="38.407410" lon="-1.960698">
        <ele>614.1</ele>
        <time>2022-11-06T10:26:28Z</time>
      </trkpt>
      <trkpt lat="38.407238" lon="-1.960613">
        <ele>613.1</ele>
        <time>2022-11-06T10:26:44Z</time>
      </trkpt>
      <trkpt lat="38.407127" lon="-1.960425">
        <ele>611.1</ele>
        <time>2022-11-06T10:26:58Z</time>
      </trkpt>
      <trkpt lat="38.407021" lon="-1.960239">
        <ele>609.1</ele>
        <time>2022-11-06T10:27:14Z</time>
      </trkpt>
      <trkpt lat="38.406894" lon="-1.960077">
        <ele>607.1</ele>
        <time>2022-11-06T10:27:31Z</time>
      </trkpt>
      <trkpt lat="38.406730" lon="-1.959975">
        <ele>604.1</ele>
        <time>2022-11-06T10:27:45Z</time>
      </trkpt>
      <trkpt lat="38.406605" lon="-1.959803">
        <ele>602.1</ele>
        <time>2022-11-06T10:28:02Z</time>
      </trkpt>
      <trkpt lat="38.406588" lon="-1.959569">
        <ele>598.2</ele>
        <time>2022-11-06T10:28:16Z</time>
      </trkpt>
      <trkpt lat="38.406456" lon="-1.959402">
        <ele>599.8</ele>
        <time>2022-11-06T10:28:29Z</time>
      </trkpt>
      <trkpt lat="38.406366" lon="-1.959201">
        <ele>596.1</ele>
        <time>2022-11-06T10:28:45Z</time>
      </trkpt>
      <trkpt lat="38.406400" lon="-1.958967">
        <ele>596.1</ele>
        <time>2022-11-06T10:28:58Z</time>
      </trkpt>
      <trkpt lat="38.406407" lon="-1.958737">
        <ele>595.1</ele>
        <time>2022-11-06T10:29:13Z</time>
      </trkpt>
      <trkpt lat="38.406387" lon="-1.958501">
        <ele>595.0</ele>
        <time>2022-11-06T10:29:27Z</time>
      </trkpt>
      <trkpt lat="38.406351" lon="-1.958269">
        <ele>594.1</ele>
        <time>2022-11-06T10:29:44Z</time>
      </trkpt>
      <trkpt lat="38.406349" lon="-1.958035">
        <ele>593.1</ele>
        <time>2022-11-06T10:29:59Z</time>
      </trkpt>
      <trkpt lat="38.406365" lon="-1.957806">
        <ele>590.1</ele>
        <time>2022-11-06T10:30:14Z</time>
      </trkpt>
      <trkpt lat="38.406392" lon="-1.957575">
        <ele>586.2</ele>
        <time>2022-11-06T10:30:29Z</time>
      </trkpt>
      <trkpt lat="38.406340" lon="-1.957349">
        <ele>587.1</ele>
        <time>2022-11-06T10:30:46Z</time>
      </trkpt>
      <trkpt lat="38.406400" lon="-1.957129">
        <ele>583.4</ele>
        <time>2022-11-06T10:31:01Z</time>
      </trkpt>
      <trkpt lat="38.406520" lon="-1.956947">
        <ele>581.1</ele>
        <time>2022-11-06T10:31:14Z</time>
      </trkpt>
      <trkpt lat="38.406533" lon="-1.956716">
        <ele>577.1</ele>
        <time>2022-11-06T10:31:30Z</time>
      </trkpt>
      <trkpt lat="38.406392" lon="-1.956571">
        <ele>575.1</ele>
        <time>2022-11-06T10:31:45Z</time>
      </trkpt>
      <trkpt lat="38.406242" lon="-1.956433">
        <ele>572.1</ele>
        <time>2022-11-06T10:32:03Z</time>
      </trkpt>
      <trkpt lat="38.406086" lon="-1.956316">
        <ele>573.1</ele>
        <time>2022-11-06T10:32:14Z</time>
      </trkpt>
      <trkpt lat="38.405933" lon="-1.956184">
        <ele>573.2</ele>
        <time>2022-11-06T10:32:28Z</time>
      </trkpt>
      <trkpt lat="38.405851" lon="-1.955960">
        <ele>569.4</ele>
        <time>2022-11-06T10:32:42Z</time>
      </trkpt>
      <trkpt lat="38.405798" lon="-1.955737">
        <ele>567.1</ele>
        <time>2022-11-06T10:32:55Z</time>
      </trkpt>
      <trkpt lat="38.405668" lon="-1.955577">
        <ele>565.1</ele>
        <time>2022-11-06T10:33:10Z</time>
      </trkpt>
      <trkpt lat="38.405531" lon="-1.955422">
        <ele>560.2</ele>
        <time>2022-11-06T10:33:24Z</time>
      </trkpt>
      <trkpt lat="38.405439" lon="-1.955218">
        <ele>559.1</ele>
        <time>2022-11-06T10:33:38Z</time>
      </trkpt>
      <trkpt lat="38.405331" lon="-1.955021">
        <ele>554.1</ele>
        <time>2022-11-06T10:33:52Z</time>
      </trkpt>
      <trkpt lat="38.405202" lon="-1.954857">
        <ele>551.4</ele>
        <time>2022-11-06T10:34:07Z</time>
      </trkpt>
      <trkpt lat="38.405108" lon="-1.954644">
        <ele>551.1</ele>
        <time>2022-11-06T10:34:22Z</time>
      </trkpt>
      <trkpt lat="38.405026" lon="-1.954433">
        <ele>551.1</ele>
        <time>2022-11-06T10:34:35Z</time>
      </trkpt>
      <trkpt lat="38.404902" lon="-1.954259">
        <ele>546.4</ele>
        <time>2022-11-06T10:34:48Z</time>
      </trkpt>
      <trkpt lat="38.404790" lon="-1.954079">
        <ele>544.9</ele>
        <time>2022-11-06T10:35:04Z</time>
      </trkpt>
      <trkpt lat="38.404727" lon="-1.953858">
        <ele>541.2</ele>
        <time>2022-11-06T10:35:19Z</time>
      </trkpt>
      <trkpt lat="38.404670" lon="-1.953635">
        <ele>536.1</ele>
        <time>2022-11-06T10:35:33Z</time>
      </trkpt>
      <trkpt lat="38.404619" lon="-1.953408">
        <ele>533.1</ele>
        <time>2022-11-06T10:35:48Z</time>
      </trkpt>
      <trkpt lat="38.404729" lon="-1.953226">
        <ele>529.1</ele>
        <time>2022-11-06T10:36:06Z</time>
      </trkpt>
      <trkpt lat="38.404908" lon="-1.953285">
        <ele>527.1</ele>
        <time>2022-11-06T10:36:23Z</time>
      </trkpt>
      <trkpt lat="38.405086" lon="-1.953325">
        <ele>525.1</ele>
        <time>2022-11-06T10:36:37Z</time>
      </trkpt>
      <trkpt lat="38.405267" lon="-1.953367">
        <ele>523.8</ele>
        <time>2022-11-06T10:36:52Z</time>
      </trkpt>
      <trkpt lat="38.405450" lon="-1.953382">
        <ele>524.1</ele>
        <time>2022-11-06T10:37:05Z</time>
      </trkpt>
      <trkpt lat="38.405628" lon="-1.953415">
        <ele>522.2</ele>
        <time>2022-11-06T10:37:19Z</time>
      </trkpt>
      <trkpt lat="38.405812" lon="-1.953418">
        <ele>520.1</ele>
        <time>2022-11-06T10:37:34Z</time>
      </trkpt>
      <trkpt lat="38.405992" lon="-1.953482">
        <ele>521.0</ele>
        <time>2022-11-06T10:37:51Z</time>
      </trkpt>
      <trkpt lat="38.406166" lon="-1.953570">
        <ele>523.1</ele>
        <time>2022-11-06T10:38:13Z</time>
      </trkpt>
      <trkpt lat="38.406346" lon="-1.953619">
        <ele>523.8</ele>
        <time>2022-11-06T10:38:27Z</time>
      </trkpt>
      <trkpt lat="38.406527" lon="-1.953619">
        <ele>525.1</ele>
        <time>2022-11-06T10:38:42Z</time>
      </trkpt>
      <trkpt lat="38.406709" lon="-1.953673">
        <ele>526.1</ele>
        <time>2022-11-06T10:38:54Z</time>
      </trkpt>
      <trkpt lat="38.406885" lon="-1.953576">
        <ele>520.5</ele>
        <time>2022-11-06T10:39:08Z</time>
      </trkpt>
      <trkpt lat="38.407070" lon="-1.953586">
        <ele>516.4</ele>
        <time>2022-11-06T10:39:18Z</time>
      </trkpt>
      <trkpt lat="38.407247" lon="-1.953644">
        <ele>515.1</ele>
        <time>2022-11-06T10:39:31Z</time>
      </trkpt>
      <trkpt lat="38.407427" lon="-1.953664">
        <ele>511.1</ele>
        <time>2022-11-06T10:39:46Z</time>
      </trkpt>
      <trkpt lat="38.407610" lon="-1.953687">
        <ele>509.1</ele>
        <time>2022-11-06T10:39:59Z</time>
      </trkpt>
      <trkpt lat="38.407793" lon="-1.953697">
        <ele>506.8</ele>
        <time>2022-11-06T10:40:16Z</time>
      </trkpt>
      <trkpt lat="38.407968" lon="-1.953748">
        <ele>505.1</ele>
        <time>2022-11-06T10:40:28Z</time>
      </trkpt>
      <trkpt lat="38.408143" lon="-1.953807">
        <ele>504.1</ele>
        <time>2022-11-06T10:40:44Z</time>
      </trkpt>
      <trkpt lat="38.408314" lon="-1.953891">
        <ele>503.1</ele>
        <time>2022-11-06T10:40:59Z</time>
      </trkpt>
      <trkpt lat="38.408497" lon="-1.953882">
        <ele>501.1</ele>
        <time>2022-11-06T10:41:20Z</time>
      </trkpt>
      <trkpt lat="38.408620" lon="-1.953712">
        <ele>505.0</ele>
        <time>2022-11-06T10:41:35Z</time>
      </trkpt>
      <trkpt lat="38.408769" lon="-1.953578">
        <ele>509.1</ele>
        <time>2022-11-06T10:41:53Z</time>
      </trkpt>
      <trkpt lat="38.408927" lon="-1.953463">
        <ele>510.4</ele>
        <time>2022-11-06T10:42:12Z</time>
      </trkpt>
      <trkpt lat="38.409097" lon="-1.953376">
        <ele>511.1</ele>
        <time>2022-11-06T10:42:29Z</time>
      </trkpt>
      <trkpt lat="38.409286" lon="-1.953359">
        <ele>510.3</ele>
        <time>2022-11-06T10:42:45Z</time>
      </trkpt>
      <trkpt lat="38.409461" lon="-1.953291">
        <ele>514.1</ele>
        <time>2022-11-06T10:43:04Z</time>
      </trkpt>
      <trkpt lat="38.409636" lon="-1.953220">
        <ele>516.1</ele>
        <time>2022-11-06T10:43:20Z</time>
      </trkpt>
      <trkpt lat="38.409806" lon="-1.953131">
        <ele>519.8</ele>
        <time>2022-11-06T10:43:40Z</time>
      </trkpt>
      <trkpt lat="38.409940" lon="-1.952970">
        <ele>522.1</ele>
        <time>2022-11-06T10:43:56Z</time>
      </trkpt>
      <trkpt lat="38.409938" lon="-1.952740">
        <ele>522.1</ele>
        <time>2022-11-06T10:44:07Z</time>
      </trkpt>
      <trkpt lat="38.409840" lon="-1.952541">
        <ele>524.1</ele>
        <time>2022-11-06T10:44:32Z</time>
      </trkpt>
      <trkpt lat="38.409818" lon="-1.952313">
        <ele>523.0</ele>
        <time>2022-11-06T10:44:44Z</time>
      </trkpt>
      <trkpt lat="38.409894" lon="-1.952102">
        <ele>522.1</ele>
        <time>2022-11-06T10:44:58Z</time>
      </trkpt>
      <trkpt lat="38.409938" lon="-1.951874">
        <ele>520.8</ele>
        <time>2022-11-06T10:45:14Z</time>
      </trkpt>
      <trkpt lat="38.410003" lon="-1.951653">
        <ele>521.1</ele>
        <time>2022-11-06T10:45:32Z</time>
      </trkpt>
      <trkpt lat="38.410033" lon="-1.951419">
        <ele>519.1</ele>
        <time>2022-11-06T10:45:46Z</time>
      </trkpt>
      <trkpt lat="38.410058" lon="-1.951174">
        <ele>522.1</ele>
        <time>2022-11-06T10:45:59Z</time>
      </trkpt>
      <trkpt lat="38.410062" lon="-1.950935">
        <ele>528.1</ele>
        <time>2022-11-06T10:46:27Z</time>
      </trkpt>
      <trkpt lat="38.410089" lon="-1.950697">
        <ele>529.1</ele>
        <time>2022-11-06T10:46:40Z</time>
      </trkpt>
      <trkpt lat="38.410095" lon="-1.950467">
        <ele>530.1</ele>
        <time>2022-11-06T10:46:53Z</time>
      </trkpt>
      <trkpt lat="38.410055" lon="-1.950239">
        <ele>529.4</ele>
        <time>2022-11-06T10:47:08Z</time>
      </trkpt>
      <trkpt lat="38.409894" lon="-1.950122">
        <ele>529.1</ele>
        <time>2022-11-06T10:47:29Z</time>
      </trkpt>
      <trkpt lat="38.409714" lon="-1.950125">
        <ele>526.8</ele>
        <time>2022-11-06T10:47:50Z</time>
      </trkpt>
      <trkpt lat="38.409536" lon="-1.950076">
        <ele>527.1</ele>
        <time>2022-11-06T10:48:06Z</time>
      </trkpt>
      <trkpt lat="38.409356" lon="-1.950045">
        <ele>529.1</ele>
        <time>2022-11-06T10:48:20Z</time>
      </trkpt>
      <trkpt lat="38.409180" lon="-1.949988">
        <ele>526.0</ele>
        <time>2022-11-06T10:48:40Z</time>
      </trkpt>
      <trkpt lat="38.409000" lon="-1.949956">
        <ele>526.4</ele>
        <time>2022-11-06T10:48:54Z</time>
      </trkpt>
      <trkpt lat="38.408824" lon="-1.949908">
        <ele>529.1</ele>
        <time>2022-11-06T10:49:09Z</time>
      </trkpt>
      <trkpt lat="38.408637" lon="-1.949881">
        <ele>521.1</ele>
        <time>2022-11-06T10:52:29Z</time>
      </trkpt>
      <trkpt lat="38.408461" lon="-1.949820">
        <ele>522.1</ele>
        <time>2022-11-06T10:52:50Z</time>
      </trkpt>
      <trkpt lat="38.408280" lon="-1.949759">
        <ele>522.0</ele>
        <time>2022-11-06T10:53:10Z</time>
      </trkpt>
      <trkpt lat="38.408103" lon="-1.949698">
        <ele>520.1</ele>
        <time>2022-11-06T10:53:28Z</time>
      </trkpt>
      <trkpt lat="38.407928" lon="-1.949636">
        <ele>518.1</ele>
        <time>2022-11-06T10:53:48Z</time>
      </trkpt>
      <trkpt lat="38.407744" lon="-1.949648">
        <ele>518.2</ele>
        <time>2022-11-06T10:54:04Z</time>
      </trkpt>
      <trkpt lat="38.407564" lon="-1.949599">
        <ele>517.1</ele>
        <time>2022-11-06T10:54:16Z</time>
      </trkpt>
      <trkpt lat="38.407409" lon="-1.949481">
        <ele>516.1</ele>
        <time>2022-11-06T10:54:32Z</time>
      </trkpt>
      <trkpt lat="38.407231" lon="-1.949430">
        <ele>515.1</ele>
        <time>2022-11-06T10:54:47Z</time>
      </trkpt>
      <trkpt lat="38.407055" lon="-1.949350">
        <ele>514.8</ele>
        <time>2022-11-06T10:55:03Z</time>
      </trkpt>
      <trkpt lat="38.406890" lon="-1.949256">
        <ele>514.1</ele>
        <time>2022-11-06T10:55:18Z</time>
      </trkpt>
      <trkpt lat="38.406706" lon="-1.949255">
        <ele>512.4</ele>
        <time>2022-11-06T10:55:37Z</time>
      </trkpt>
      <trkpt lat="38.406534" lon="-1.949331">
        <ele>513.1</ele>
        <time>2022-11-06T10:55:53Z</time>
      </trkpt>
      <trkpt lat="38.406356" lon="-1.949371">
        <ele>511.1</ele>
        <time>2022-11-06T10:56:11Z</time>
      </trkpt>
      <trkpt lat="38.406250" lon="-1.949236">
        <ele>508.2</ele>
        <time>2022-11-06T10:56:27Z</time>
      </trkpt>
      <trkpt lat="38.406246" lon="-1.949028">
        <ele>503.2</ele>
        <time>2022-11-06T10:56:42Z</time>
      </trkpt>
      <trkpt lat="38.406398" lon="-1.948893">
        <ele>503.1</ele>
        <time>2022-11-06T10:56:56Z</time>
      </trkpt>
      <trkpt lat="38.406472" lon="-1.948655">
        <ele>506.1</ele>
        <time>2022-11-06T10:57:12Z</time>
      </trkpt>
      <trkpt lat="38.406371" lon="-1.948506">
        <ele>504.0</ele>
        <time>2022-11-06T10:57:34Z</time>
      </trkpt>
      <trkpt lat="38.406187" lon="-1.948410">
        <ele>505.1</ele>
        <time>2022-11-06T10:57:49Z</time>
      </trkpt>
      <trkpt lat="38.406005" lon="-1.948371">
        <ele>503.1</ele>
        <time>2022-11-06T10:58:03Z</time>
      </trkpt>
      <trkpt lat="38.405823" lon="-1.948387">
        <ele>502.0</ele>
        <time>2022-11-06T10:58:20Z</time>
      </trkpt>
      <trkpt lat="38.405713" lon="-1.948575">
        <ele>500.1</ele>
        <time>2022-11-06T10:58:42Z</time>
      </trkpt>
      <trkpt lat="38.405625" lon="-1.948781">
        <ele>499.1</ele>
        <time>2022-11-06T10:59:00Z</time>
      </trkpt>
      <trkpt lat="38.405500" lon="-1.948951">
        <ele>498.1</ele>
        <time>2022-11-06T10:59:17Z</time>
      </trkpt>
      <trkpt lat="38.405352" lon="-1.949083">
        <ele>498.1</ele>
        <time>2022-11-06T10:59:32Z</time>
      </trkpt>
      <trkpt lat="38.405170" lon="-1.949128">
        <ele>494.2</ele>
        <time>2022-11-06T10:59:52Z</time>
      </trkpt>
      <trkpt lat="38.404991" lon="-1.949108">
        <ele>493.1</ele>
        <time>2022-11-06T11:00:06Z</time>
      </trkpt>
      <trkpt lat="38.404818" lon="-1.949037">
        <ele>492.0</ele>
        <time>2022-11-06T11:00:19Z</time>
      </trkpt>
      <trkpt lat="38.404632" lon="-1.949020">
        <ele>492.1</ele>
        <time>2022-11-06T11:00:34Z</time>
      </trkpt>
      <trkpt lat="38.404454" lon="-1.948975">
        <ele>489.1</ele>
        <time>2022-11-06T11:00:52Z</time>
      </trkpt>
      <trkpt lat="38.404273" lon="-1.948919">
        <ele>489.8</ele>
        <time>2022-11-06T11:01:11Z</time>
      </trkpt>
      <trkpt lat="38.404087" lon="-1.948905">
        <ele>488.1</ele>
        <time>2022-11-06T11:01:28Z</time>
      </trkpt>
      <trkpt lat="38.403930" lon="-1.948748">
        <ele>487.1</ele>
        <time>2022-11-06T11:01:45Z</time>
      </trkpt>
      <trkpt lat="38.403800" lon="-1.948755">
        <ele>485.1</ele>
        <time>2022-11-06T11:02:04Z</time>
      </trkpt>
      <trkpt lat="38.403607" lon="-1.948949">
        <ele>485.1</ele>
        <time>2022-11-06T11:02:23Z</time>
      </trkpt>
      <trkpt lat="38.403439" lon="-1.949035">
        <ele>485.1</ele>
        <time>2022-11-06T11:02:40Z</time>
      </trkpt>
      <trkpt lat="38.403263" lon="-1.949084">
        <ele>485.1</ele>
        <time>2022-11-06T11:02:56Z</time>
      </trkpt>
      <trkpt lat="38.403091" lon="-1.948996">
        <ele>482.4</ele>
        <time>2022-11-06T11:03:11Z</time>
      </trkpt>
      <trkpt lat="38.402906" lon="-1.949010">
        <ele>480.2</ele>
        <time>2022-11-06T11:03:29Z</time>
      </trkpt>
      <trkpt lat="38.402729" lon="-1.949083">
        <ele>477.1</ele>
        <time>2022-11-06T11:03:48Z</time>
      </trkpt>
      <trkpt lat="38.402544" lon="-1.949098">
        <ele>477.1</ele>
        <time>2022-11-06T11:04:04Z</time>
      </trkpt>
      <trkpt lat="38.402365" lon="-1.949151">
        <ele>477.1</ele>
        <time>2022-11-06T11:04:21Z</time>
      </trkpt>
      <trkpt lat="38.402179" lon="-1.949114">
        <ele>475.1</ele>
        <time>2022-11-06T11:04:36Z</time>
      </trkpt>
      <trkpt lat="38.402002" lon="-1.949043">
        <ele>471.2</ele>
        <time>2022-11-06T11:04:55Z</time>
      </trkpt>
      <trkpt lat="38.401832" lon="-1.948964">
        <ele>469.4</ele>
        <time>2022-11-06T11:05:10Z</time>
      </trkpt>
      <trkpt lat="38.401693" lon="-1.948807">
        <ele>468.1</ele>
        <time>2022-11-06T11:05:25Z</time>
      </trkpt>
      <trkpt lat="38.401533" lon="-1.948691">
        <ele>469.1</ele>
        <time>2022-11-06T11:05:41Z</time>
      </trkpt>
      <trkpt lat="38.401352" lon="-1.948587">
        <ele>469.2</ele>
        <time>2022-11-06T11:05:58Z</time>
      </trkpt>
      <trkpt lat="38.401223" lon="-1.948446">
        <ele>470.1</ele>
        <time>2022-11-06T11:06:13Z</time>
      </trkpt>
      <trkpt lat="38.401140" lon="-1.948250">
        <ele>464.2</ele>
        <time>2022-11-06T11:06:29Z</time>
      </trkpt>
      <trkpt lat="38.401124" lon="-1.948082">
        <ele>462.1</ele>
        <time>2022-11-06T11:06:45Z</time>
      </trkpt>
      <trkpt lat="38.401140" lon="-1.947852">
        <ele>461.1</ele>
        <time>2022-11-06T11:07:01Z</time>
      </trkpt>
      <trkpt lat="38.401190" lon="-1.947623">
        <ele>464.1</ele>
        <time>2022-11-06T11:07:18Z</time>
      </trkpt>
      <trkpt lat="38.401226" lon="-1.947389">
        <ele>466.1</ele>
        <time>2022-11-06T11:07:36Z</time>
      </trkpt>
      <trkpt lat="38.401269" lon="-1.947177">
        <ele>468.8</ele>
        <time>2022-11-06T11:07:54Z</time>
      </trkpt>
      <trkpt lat="38.401256" lon="-1.946921">
        <ele>469.1</ele>
        <time>2022-11-06T11:08:11Z</time>
      </trkpt>
      <trkpt lat="38.401150" lon="-1.946721">
        <ele>468.9</ele>
        <time>2022-11-06T11:08:30Z</time>
      </trkpt>
      <trkpt lat="38.400992" lon="-1.946595">
        <ele>472.1</ele>
        <time>2022-11-06T11:08:46Z</time>
      </trkpt>
      <trkpt lat="38.400866" lon="-1.946427">
        <ele>475.1</ele>
        <time>2022-11-06T11:09:00Z</time>
      </trkpt>
      <trkpt lat="38.400743" lon="-1.946257">
        <ele>473.1</ele>
        <time>2022-11-06T11:09:20Z</time>
      </trkpt>
      <trkpt lat="38.400654" lon="-1.946042">
        <ele>471.1</ele>
        <time>2022-11-06T11:09:39Z</time>
      </trkpt>
      <trkpt lat="38.400591" lon="-1.945822">
        <ele>469.8</ele>
        <time>2022-11-06T11:09:59Z</time>
      </trkpt>
      <trkpt lat="38.400490" lon="-1.945628">
        <ele>470.1</ele>
        <time>2022-11-06T11:10:12Z</time>
      </trkpt>
      <trkpt lat="38.400410" lon="-1.945417">
        <ele>469.1</ele>
        <time>2022-11-06T11:10:28Z</time>
      </trkpt>
      <trkpt lat="38.400360" lon="-1.945196">
        <ele>467.1</ele>
        <time>2022-11-06T11:10:43Z</time>
      </trkpt>
      <trkpt lat="38.400313" lon="-1.944969">
        <ele>465.2</ele>
        <time>2022-11-06T11:11:02Z</time>
      </trkpt>
      <trkpt lat="38.400270" lon="-1.944742">
        <ele>463.1</ele>
        <time>2022-11-06T11:11:17Z</time>
      </trkpt>
      <trkpt lat="38.400225" lon="-1.944520">
        <ele>462.1</ele>
        <time>2022-11-06T11:11:33Z</time>
      </trkpt>
      <trkpt lat="38.400176" lon="-1.944293">
        <ele>465.1</ele>
        <time>2022-11-06T11:11:50Z</time>
      </trkpt>
      <trkpt lat="38.400117" lon="-1.944069">
        <ele>466.1</ele>
        <time>2022-11-06T11:12:06Z</time>
      </trkpt>
      <trkpt lat="38.400063" lon="-1.943851">
        <ele>467.1</ele>
        <time>2022-11-06T11:12:22Z</time>
      </trkpt>
      <trkpt lat="38.400045" lon="-1.943622">
        <ele>468.1</ele>
        <time>2022-11-06T11:12:37Z</time>
      </trkpt>
      <trkpt lat="38.400024" lon="-1.943386">
        <ele>468.1</ele>
        <time>2022-11-06T11:12:55Z</time>
      </trkpt>
      <trkpt lat="38.400019" lon="-1.943153">
        <ele>467.1</ele>
        <time>2022-11-06T11:13:13Z</time>
      </trkpt>
      <trkpt lat="38.399969" lon="-1.942931">
        <ele>462.2</ele>
        <time>2022-11-06T11:13:30Z</time>
      </trkpt>
      <trkpt lat="38.399931" lon="-1.942704">
        <ele>462.1</ele>
        <time>2022-11-06T11:13:44Z</time>
      </trkpt>
      <trkpt lat="38.399934" lon="-1.942468">
        <ele>463.1</ele>
        <time>2022-11-06T11:14:00Z</time>
      </trkpt>
      <trkpt lat="38.399938" lon="-1.942235">
        <ele>464.1</ele>
        <time>2022-11-06T11:14:16Z</time>
      </trkpt>
      <trkpt lat="38.399890" lon="-1.942010">
        <ele>461.2</ele>
        <time>2022-11-06T11:14:31Z</time>
      </trkpt>
      <trkpt lat="38.399792" lon="-1.941812">
        <ele>462.1</ele>
        <time>2022-11-06T11:14:47Z</time>
      </trkpt>
      <trkpt lat="38.399749" lon="-1.941587">
        <ele>461.1</ele>
        <time>2022-11-06T11:15:21Z</time>
      </trkpt>
      <trkpt lat="38.399733" lon="-1.941352">
        <ele>464.1</ele>
        <time>2022-11-06T11:15:58Z</time>
      </trkpt>
      <trkpt lat="38.399785" lon="-1.941127">
        <ele>460.1</ele>
        <time>2022-11-06T11:16:15Z</time>
      </trkpt>
      <trkpt lat="38.399839" lon="-1.940904">
        <ele>460.1</ele>
        <time>2022-11-06T11:19:39Z</time>
      </trkpt>
      <trkpt lat="38.399875" lon="-1.940674">
        <ele>459.1</ele>
        <time>2022-11-06T11:19:58Z</time>
      </trkpt>
      <trkpt lat="38.399843" lon="-1.940446">
        <ele>461.1</ele>
        <time>2022-11-06T11:20:12Z</time>
      </trkpt>
      <trkpt lat="38.399831" lon="-1.940206">
        <ele>460.1</ele>
        <time>2022-11-06T11:20:28Z</time>
      </trkpt>
      <trkpt lat="38.399781" lon="-1.939979">
        <ele>458.1</ele>
        <time>2022-11-06T11:20:43Z</time>
      </trkpt>
      <trkpt lat="38.399739" lon="-1.939753">
        <ele>457.4</ele>
        <time>2022-11-06T11:20:59Z</time>
      </trkpt>
      <trkpt lat="38.399718" lon="-1.939517">
        <ele>455.4</ele>
        <time>2022-11-06T11:21:15Z</time>
      </trkpt>
      <trkpt lat="38.399601" lon="-1.939337">
        <ele>457.0</ele>
        <time>2022-11-06T11:21:29Z</time>
      </trkpt>
      <trkpt lat="38.399484" lon="-1.939158">
        <ele>458.1</ele>
        <time>2022-11-06T11:21:46Z</time>
      </trkpt>
      <trkpt lat="38.399375" lon="-1.938964">
        <ele>457.2</ele>
        <time>2022-11-06T11:22:11Z</time>
      </trkpt>
      <trkpt lat="38.399272" lon="-1.938755">
        <ele>455.2</ele>
        <time>2022-11-06T11:22:25Z</time>
      </trkpt>
      <trkpt lat="38.399130" lon="-1.938611">
        <ele>454.1</ele>
        <time>2022-11-06T11:22:37Z</time>
      </trkpt>
      <trkpt lat="38.398955" lon="-1.938522">
        <ele>454.1</ele>
        <time>2022-11-06T11:22:52Z</time>
      </trkpt>
      <trkpt lat="38.398787" lon="-1.938429">
        <ele>454.1</ele>
        <time>2022-11-06T11:23:12Z</time>
      </trkpt>
      <trkpt lat="38.398619" lon="-1.938332">
        <ele>453.1</ele>
        <time>2022-11-06T11:23:24Z</time>
      </trkpt>
      <trkpt lat="38.398454" lon="-1.938235">
        <ele>452.9</ele>
        <time>2022-11-06T11:23:38Z</time>
      </trkpt>
      <trkpt lat="38.398278" lon="-1.938131">
        <ele>452.1</ele>
        <time>2022-11-06T11:23:52Z</time>
      </trkpt>
      <trkpt lat="38.398129" lon="-1.938002">
        <ele>451.1</ele>
        <time>2022-11-06T11:24:06Z</time>
      </trkpt>
      <trkpt lat="38.397979" lon="-1.937864">
        <ele>450.1</ele>
        <time>2022-11-06T11:24:22Z</time>
      </trkpt>
      <trkpt lat="38.397846" lon="-1.937708">
        <ele>447.1</ele>
        <time>2022-11-06T11:24:36Z</time>
      </trkpt>
      <trkpt lat="38.397695" lon="-1.937561">
        <ele>445.8</ele>
        <time>2022-11-06T11:24:51Z</time>
      </trkpt>
      <trkpt lat="38.397559" lon="-1.937395">
        <ele>446.1</ele>
        <time>2022-11-06T11:25:05Z</time>
      </trkpt>
      <trkpt lat="38.397450" lon="-1.937191">
        <ele>444.1</ele>
        <time>2022-11-06T11:25:21Z</time>
      </trkpt>
      <trkpt lat="38.397501" lon="-1.936963">
        <ele>440.2</ele>
        <time>2022-11-06T11:25:34Z</time>
      </trkpt>
      <trkpt lat="38.397687" lon="-1.936910">
        <ele>437.1</ele>
        <time>2022-11-06T11:25:48Z</time>
      </trkpt>
      <trkpt lat="38.397876" lon="-1.936901">
        <ele>435.1</ele>
        <time>2022-11-06T11:26:03Z</time>
      </trkpt>
      <trkpt lat="38.398023" lon="-1.936767">
        <ele>433.2</ele>
        <time>2022-11-06T11:26:20Z</time>
      </trkpt>
      <trkpt lat="38.397912" lon="-1.936583">
        <ele>434.1</ele>
        <time>2022-11-06T11:26:36Z</time>
      </trkpt>
      <trkpt lat="38.397739" lon="-1.936514">
        <ele>437.1</ele>
        <time>2022-11-06T11:26:48Z</time>
      </trkpt>
      <trkpt lat="38.397573" lon="-1.936418">
        <ele>442.0</ele>
        <time>2022-11-06T11:27:02Z</time>
      </trkpt>
      <trkpt lat="38.397408" lon="-1.936327">
        <ele>443.2</ele>
        <time>2022-11-06T11:27:15Z</time>
      </trkpt>
      <trkpt lat="38.397247" lon="-1.936220">
        <ele>443.1</ele>
        <time>2022-11-06T11:27:29Z</time>
      </trkpt>
      <trkpt lat="38.397152" lon="-1.936020">
        <ele>444.1</ele>
        <time>2022-11-06T11:27:44Z</time>
      </trkpt>
      <trkpt lat="38.397137" lon="-1.935787">
        <ele>441.1</ele>
        <time>2022-11-06T11:27:57Z</time>
      </trkpt>
      <trkpt lat="38.397168" lon="-1.935556">
        <ele>440.1</ele>
        <time>2022-11-06T11:28:11Z</time>
      </trkpt>
      <trkpt lat="38.397261" lon="-1.935348">
        <ele>433.5</ele>
        <time>2022-11-06T11:28:28Z</time>
      </trkpt>
      <trkpt lat="38.397313" lon="-1.935153">
        <ele>431.2</ele>
        <time>2022-11-06T11:28:40Z</time>
      </trkpt>
      <trkpt lat="38.397315" lon="-1.934905">
        <ele>429.1</ele>
        <time>2022-11-06T11:28:54Z</time>
      </trkpt>
      <trkpt lat="38.397179" lon="-1.934739">
        <ele>433.1</ele>
        <time>2022-11-06T11:29:06Z</time>
      </trkpt>
      <trkpt lat="38.397090" lon="-1.934533">
        <ele>434.2</ele>
        <time>2022-11-06T11:29:20Z</time>
      </trkpt>
      <trkpt lat="38.397106" lon="-1.934300">
        <ele>431.2</ele>
        <time>2022-11-06T11:29:34Z</time>
      </trkpt>
      <trkpt lat="38.397118" lon="-1.934066">
        <ele>429.1</ele>
        <time>2022-11-06T11:29:47Z</time>
      </trkpt>
      <trkpt lat="38.397125" lon="-1.933828">
        <ele>429.1</ele>
        <time>2022-11-06T11:30:03Z</time>
      </trkpt>
      <trkpt lat="38.397098" lon="-1.933599">
        <ele>430.1</ele>
        <time>2022-11-06T11:30:20Z</time>
      </trkpt>
      <trkpt lat="38.397058" lon="-1.933371">
        <ele>432.1</ele>
        <time>2022-11-06T11:30:36Z</time>
      </trkpt>
      <trkpt lat="38.397040" lon="-1.933140">
        <ele>435.1</ele>
        <time>2022-11-06T11:30:50Z</time>
      </trkpt>
      <trkpt lat="38.396920" lon="-1.932967">
        <ele>444.1</ele>
        <time>2022-11-06T11:31:25Z</time>
      </trkpt>
      <trkpt lat="38.396841" lon="-1.932761">
        <ele>438.1</ele>
        <time>2022-11-06T11:33:52Z</time>
      </trkpt>
      <trkpt lat="38.396785" lon="-1.932539">
        <ele>440.1</ele>
        <time>2022-11-06T11:34:10Z</time>
      </trkpt>
      <trkpt lat="38.396778" lon="-1.932310">
        <ele>440.1</ele>
        <time>2022-11-06T11:34:27Z</time>
      </trkpt>
      <trkpt lat="38.396701" lon="-1.932099">
        <ele>442.1</ele>
        <time>2022-11-06T11:34:44Z</time>
      </trkpt>
      <trkpt lat="38.396648" lon="-1.931874">
        <ele>443.2</ele>
        <time>2022-11-06T11:35:01Z</time>
      </trkpt>
      <trkpt lat="38.396606" lon="-1.931645">
        <ele>444.1</ele>
        <time>2022-11-06T11:35:19Z</time>
      </trkpt>
      <trkpt lat="38.396572" lon="-1.931415">
        <ele>444.2</ele>
        <time>2022-11-06T11:35:38Z</time>
      </trkpt>
      <trkpt lat="38.396514" lon="-1.931194">
        <ele>445.2</ele>
        <time>2022-11-06T11:36:01Z</time>
      </trkpt>
      <trkpt lat="38.396444" lon="-1.930981">
        <ele>443.1</ele>
        <time>2022-11-06T11:36:24Z</time>
      </trkpt>
      <trkpt lat="38.396381" lon="-1.930764">
        <ele>444.1</ele>
        <time>2022-11-06T11:36:42Z</time>
      </trkpt>
      <trkpt lat="38.396313" lon="-1.930551">
        <ele>448.1</ele>
        <time>2022-11-06T11:37:56Z</time>
      </trkpt>
      <trkpt lat="38.396264" lon="-1.930324">
        <ele>447.1</ele>
        <time>2022-11-06T11:39:41Z</time>
      </trkpt>
      <trkpt lat="38.396135" lon="-1.930160">
        <ele>446.2</ele>
        <time>2022-11-06T11:41:47Z</time>
      </trkpt>
      <trkpt lat="38.396047" lon="-1.929957">
        <ele>446.1</ele>
        <time>2022-11-06T11:41:59Z</time>
      </trkpt>
      <trkpt lat="38.395950" lon="-1.929749">
        <ele>445.5</ele>
        <time>2022-11-06T11:42:12Z</time>
      </trkpt>
      <trkpt lat="38.395867" lon="-1.929543">
        <ele>441.1</ele>
        <time>2022-11-06T11:42:36Z</time>
      </trkpt>
      <trkpt lat="38.395820" lon="-1.929320">
        <ele>437.2</ele>
        <time>2022-11-06T11:42:52Z</time>
      </trkpt>
      <trkpt lat="38.395767" lon="-1.929100">
        <ele>437.1</ele>
        <time>2022-11-06T11:43:12Z</time>
      </trkpt>
      <trkpt lat="38.395755" lon="-1.928869">
        <ele>435.2</ele>
        <time>2022-11-06T11:43:26Z</time>
      </trkpt>
      <trkpt lat="38.395725" lon="-1.928638">
        <ele>436.2</ele>
        <time>2022-11-06T11:43:37Z</time>
      </trkpt>
      <trkpt lat="38.395687" lon="-1.928407">
        <ele>434.2</ele>
        <time>2022-11-06T11:43:58Z</time>
      </trkpt>
      <trkpt lat="38.395651" lon="-1.928179">
        <ele>433.2</ele>
        <time>2022-11-06T11:44:10Z</time>
      </trkpt>
      <trkpt lat="38.395620" lon="-1.927949">
        <ele>432.2</ele>
        <time>2022-11-06T11:44:33Z</time>
      </trkpt>
      <trkpt lat="38.395572" lon="-1.927719">
        <ele>434.5</ele>
        <time>2022-11-06T11:45:36Z</time>
      </trkpt>
      <trkpt lat="38.395608" lon="-1.927490">
        <ele>434.1</ele>
        <time>2022-11-06T11:45:57Z</time>
      </trkpt>
      <trkpt lat="38.395629" lon="-1.927259">
        <ele>432.2</ele>
        <time>2022-11-06T11:46:21Z</time>
      </trkpt>
      <trkpt lat="38.395692" lon="-1.927031">
        <ele>431.2</ele>
        <time>2022-11-06T11:46:36Z</time>
      </trkpt>
      <trkpt lat="38.395734" lon="-1.926799">
        <ele>431.2</ele>
        <time>2022-11-06T11:46:52Z</time>
      </trkpt>
      <trkpt lat="38.395795" lon="-1.926577">
        <ele>426.2</ele>
        <time>2022-11-06T11:47:14Z</time>
      </trkpt>
      <trkpt lat="38.395856" lon="-1.926355">
        <ele>426.2</ele>
        <time>2022-11-06T11:47:29Z</time>
      </trkpt>
      <trkpt lat="38.395902" lon="-1.926132">
        <ele>428.2</ele>
        <time>2022-11-06T11:47:46Z</time>
      </trkpt>
      <trkpt lat="38.395828" lon="-1.925900">
        <ele>426.9</ele>
        <time>2022-11-06T11:47:59Z</time>
      </trkpt>
      <trkpt lat="38.395684" lon="-1.925755">
        <ele>428.9</ele>
        <time>2022-11-06T11:48:18Z</time>
      </trkpt>
      <trkpt lat="38.395550" lon="-1.925583">
        <ele>433.2</ele>
        <time>2022-11-06T11:49:06Z</time>
      </trkpt>
      <trkpt lat="38.395464" lon="-1.925464">
        <ele>434.2</ele>
        <time>2022-11-06T11:49:33Z</time>
      </trkpt>
      <trkpt lat="38.395330" lon="-1.925339">
        <ele>430.9</ele>
        <time>2022-11-06T11:51:30Z</time>
      </trkpt>
      <trkpt lat="38.395229" lon="-1.925234">
        <ele>432.1</ele>
        <time>2022-11-06T11:51:42Z</time>
      </trkpt>
      <trkpt lat="38.395147" lon="-1.925130">
        <ele>433.2</ele>
        <time>2022-11-06T11:52:59Z</time>
      </trkpt>
      <trkpt lat="38.395033" lon="-1.925164">
        <ele>432.2</ele>
        <time>2022-11-06T11:53:35Z</time>
      </trkpt>
      <trkpt lat="38.395016" lon="-1.925217">
        <ele>445.1</ele>
        <time>2022-11-27T08:02:29Z</time>
      </trkpt>
      <trkpt lat="38.394829" lon="-1.925402">
        <ele>447.0</ele>
        <time>2022-11-27T08:02:33Z</time>
      </trkpt>
      <trkpt lat="38.394667" lon="-1.925561">
        <ele>449.1</ele>
        <time>2022-11-27T08:02:37Z</time>
      </trkpt>
      <trkpt lat="38.394518" lon="-1.925704">
        <ele>448.2</ele>
        <time>2022-11-27T08:03:19Z</time>
      </trkpt>
      <trkpt lat="38.394355" lon="-1.925859">
        <ele>451.1</ele>
        <time>2022-11-27T08:03:27Z</time>
      </trkpt>
      <trkpt lat="38.394173" lon="-1.925949">
        <ele>452.9</ele>
        <time>2022-11-27T08:03:34Z</time>
      </trkpt>
      <trkpt lat="38.393988" lon="-1.925970">
        <ele>454.1</ele>
        <time>2022-11-27T08:03:40Z</time>
      </trkpt>
      <trkpt lat="38.393796" lon="-1.925981">
        <ele>454.9</ele>
        <time>2022-11-27T08:03:47Z</time>
      </trkpt>
      <trkpt lat="38.393596" lon="-1.926013">
        <ele>455.2</ele>
        <time>2022-11-27T08:03:53Z</time>
      </trkpt>
      <trkpt lat="38.393447" lon="-1.926180">
        <ele>455.2</ele>
        <time>2022-11-27T08:03:59Z</time>
      </trkpt>
      <trkpt lat="38.393417" lon="-1.926167">
        <ele>465.7</ele>
        <time>2022-11-27T08:19:29Z</time>
      </trkpt>
      <trkpt lat="38.393360" lon="-1.925944">
        <ele>467.0</ele>
        <time>2022-11-27T08:23:31Z</time>
      </trkpt>
      <trkpt lat="38.393230" lon="-1.925768">
        <ele>465.2</ele>
        <time>2022-11-27T08:26:42Z</time>
      </trkpt>
      <trkpt lat="38.393083" lon="-1.925631">
        <ele>466.2</ele>
        <time>2022-11-27T08:27:02Z</time>
      </trkpt>
      <trkpt lat="38.392917" lon="-1.925509">
        <ele>465.1</ele>
        <time>2022-11-27T08:27:19Z</time>
      </trkpt>
      <trkpt lat="38.392750" lon="-1.925433">
        <ele>474.1</ele>
        <time>2022-11-27T08:28:02Z</time>
      </trkpt>
      <trkpt lat="38.392630" lon="-1.925245">
        <ele>475.2</ele>
        <time>2022-11-27T08:30:40Z</time>
      </trkpt>
      <trkpt lat="38.392657" lon="-1.925018">
        <ele>476.2</ele>
        <time>2022-11-27T08:32:32Z</time>
      </trkpt>
      <trkpt lat="38.392706" lon="-1.924792">
        <ele>485.2</ele>
        <time>2022-11-27T08:34:10Z</time>
      </trkpt>
      <trkpt lat="38.392843" lon="-1.924639">
        <ele>487.1</ele>
        <time>2022-11-27T08:34:36Z</time>
      </trkpt>
      <trkpt lat="38.393000" lon="-1.924521">
        <ele>490.2</ele>
        <time>2022-11-27T08:35:30Z</time>
      </trkpt>
      <trkpt lat="38.393051" lon="-1.924295">
        <ele>492.2</ele>
        <time>2022-11-27T08:36:13Z</time>
      </trkpt>
      <trkpt lat="38.393117" lon="-1.924080">
        <ele>495.0</ele>
        <time>2022-11-27T08:37:34Z</time>
      </trkpt>
      <trkpt lat="38.393220" lon="-1.923890">
        <ele>492.2</ele>
        <time>2022-11-27T08:37:58Z</time>
      </trkpt>
      <trkpt lat="38.393271" lon="-1.923661">
        <ele>491.2</ele>
        <time>2022-11-27T08:39:36Z</time>
      </trkpt>
      <trkpt lat="38.393205" lon="-1.923434">
        <ele>491.2</ele>
        <time>2022-11-27T08:39:59Z</time>
      </trkpt>
      <trkpt lat="38.393158" lon="-1.923208">
        <ele>497.1</ele>
        <time>2022-11-27T08:40:41Z</time>
      </trkpt>
      <trkpt lat="38.393132" lon="-1.922976">
        <ele>500.2</ele>
        <time>2022-11-27T08:42:21Z</time>
      </trkpt>
      <trkpt lat="38.393231" lon="-1.922781">
        <ele>491.5</ele>
        <time>2022-11-27T08:42:59Z</time>
      </trkpt>
      <trkpt lat="38.393249" lon="-1.922550">
        <ele>495.1</ele>
        <time>2022-11-27T08:43:43Z</time>
      </trkpt>
      <trkpt lat="38.393376" lon="-1.922385">
        <ele>497.3</ele>
        <time>2022-11-27T08:44:31Z</time>
      </trkpt>
      <trkpt lat="38.393498" lon="-1.922209">
        <ele>500.2</ele>
        <time>2022-11-27T08:45:32Z</time>
      </trkpt>
      <trkpt lat="38.393668" lon="-1.922124">
        <ele>506.2</ele>
        <time>2022-11-27T08:46:53Z</time>
      </trkpt>
      <trkpt lat="38.393828" lon="-1.922009">
        <ele>512.2</ele>
        <time>2022-11-27T08:48:28Z</time>
      </trkpt>
      <trkpt lat="38.394007" lon="-1.921979">
        <ele>513.2</ele>
        <time>2022-11-27T08:49:03Z</time>
      </trkpt>
      <trkpt lat="38.394186" lon="-1.921958">
        <ele>518.7</ele>
        <time>2022-11-27T08:49:21Z</time>
      </trkpt>
      <trkpt lat="38.394366" lon="-1.921936">
        <ele>522.2</ele>
        <time>2022-11-27T08:49:54Z</time>
      </trkpt>
      <trkpt lat="38.394531" lon="-1.921840">
        <ele>531.2</ele>
        <time>2022-11-27T08:50:54Z</time>
      </trkpt>
      <trkpt lat="38.394634" lon="-1.921645">
        <ele>535.2</ele>
        <time>2022-11-27T08:51:43Z</time>
      </trkpt>
      <trkpt lat="38.394747" lon="-1.921466">
        <ele>540.1</ele>
        <time>2022-11-27T08:53:22Z</time>
      </trkpt>
      <trkpt lat="38.394820" lon="-1.921255">
        <ele>547.2</ele>
        <time>2022-11-27T08:56:22Z</time>
      </trkpt>
      <trkpt lat="38.394908" lon="-1.921055">
        <ele>549.5</ele>
        <time>2022-11-27T08:57:21Z</time>
      </trkpt>
      <trkpt lat="38.394912" lon="-1.920821">
        <ele>546.2</ele>
        <time>2022-11-27T08:58:13Z</time>
      </trkpt>
      <trkpt lat="38.394921" lon="-1.920589">
        <ele>544.1</ele>
        <time>2022-11-27T08:59:07Z</time>
      </trkpt>
      <trkpt lat="38.394956" lon="-1.920364">
        <ele>539.5</ele>
        <time>2022-11-27T08:59:59Z</time>
      </trkpt>
      <trkpt lat="38.395034" lon="-1.920157">
        <ele>545.2</ele>
        <time>2022-11-27T09:00:35Z</time>
      </trkpt>
      <trkpt lat="38.395137" lon="-1.919966">
        <ele>543.7</ele>
        <time>2022-11-27T09:01:59Z</time>
      </trkpt>
      <trkpt lat="38.395280" lon="-1.919823">
        <ele>542.2</ele>
        <time>2022-11-27T09:02:58Z</time>
      </trkpt>
      <trkpt lat="38.395331" lon="-1.919598">
        <ele>537.2</ele>
        <time>2022-11-27T09:04:19Z</time>
      </trkpt>
      <trkpt lat="38.395371" lon="-1.919372">
        <ele>535.2</ele>
        <time>2022-11-27T09:04:44Z</time>
      </trkpt>
      <trkpt lat="38.395421" lon="-1.919145">
        <ele>537.2</ele>
        <time>2022-11-27T09:05:32Z</time>
      </trkpt>
      <trkpt lat="38.395467" lon="-1.918918">
        <ele>537.2</ele>
        <time>2022-11-27T09:05:53Z</time>
      </trkpt>
      <trkpt lat="38.395572" lon="-1.918716">
        <ele>540.2</ele>
        <time>2022-11-27T09:06:20Z</time>
      </trkpt>
      <trkpt lat="38.395678" lon="-1.918530">
        <ele>543.2</ele>
        <time>2022-11-27T09:07:10Z</time>
      </trkpt>
      <trkpt lat="38.395790" lon="-1.918348">
        <ele>544.2</ele>
        <time>2022-11-27T09:07:57Z</time>
      </trkpt>
      <trkpt lat="38.395924" lon="-1.918179">
        <ele>550.1</ele>
        <time>2022-11-27T09:08:32Z</time>
      </trkpt>
      <trkpt lat="38.396076" lon="-1.918054">
        <ele>548.2</ele>
        <time>2022-11-27T09:09:24Z</time>
      </trkpt>
      <trkpt lat="38.396203" lon="-1.917884">
        <ele>550.1</ele>
        <time>2022-11-27T09:09:57Z</time>
      </trkpt>
      <trkpt lat="38.396305" lon="-1.917695">
        <ele>552.2</ele>
        <time>2022-11-27T09:10:49Z</time>
      </trkpt>
      <trkpt lat="38.396398" lon="-1.917498">
        <ele>553.1</ele>
        <time>2022-11-27T09:11:48Z</time>
      </trkpt>
      <trkpt lat="38.396555" lon="-1.917385">
        <ele>554.2</ele>
        <time>2022-11-27T09:12:49Z</time>
      </trkpt>
      <trkpt lat="38.396735" lon="-1.917439">
        <ele>553.2</ele>
        <time>2022-11-27T09:13:20Z</time>
      </trkpt>
      <trkpt lat="38.396920" lon="-1.917464">
        <ele>554.2</ele>
        <time>2022-11-27T09:13:44Z</time>
      </trkpt>
      <trkpt lat="38.397104" lon="-1.917441">
        <ele>560.1</ele>
        <time>2022-11-27T09:15:06Z</time>
      </trkpt>
      <trkpt lat="38.397287" lon="-1.917403">
        <ele>562.2</ele>
        <time>2022-11-27T09:15:58Z</time>
      </trkpt>
      <trkpt lat="38.397399" lon="-1.917215">
        <ele>548.9</ele>
        <time>2022-11-27T09:23:17Z</time>
      </trkpt>
      <trkpt lat="38.397408" lon="-1.916979">
        <ele>547.2</ele>
        <time>2022-11-27T09:23:35Z</time>
      </trkpt>
      <trkpt lat="38.397405" lon="-1.916746">
        <ele>539.6</ele>
        <time>2022-11-27T09:23:56Z</time>
      </trkpt>
      <trkpt lat="38.397399" lon="-1.916508">
        <ele>530.5</ele>
        <time>2022-11-27T09:24:15Z</time>
      </trkpt>
      <trkpt lat="38.397362" lon="-1.916276">
        <ele>528.5</ele>
        <time>2022-11-27T09:24:30Z</time>
      </trkpt>
      <trkpt lat="38.397267" lon="-1.916080">
        <ele>525.2</ele>
        <time>2022-11-27T09:24:45Z</time>
      </trkpt>
      <trkpt lat="38.397300" lon="-1.915852">
        <ele>525.2</ele>
        <time>2022-11-27T09:25:01Z</time>
      </trkpt>
      <trkpt lat="38.397286" lon="-1.915623">
        <ele>522.2</ele>
        <time>2022-11-27T09:25:55Z</time>
      </trkpt>
      <trkpt lat="38.397256" lon="-1.915394">
        <ele>511.6</ele>
        <time>2022-11-27T09:26:51Z</time>
      </trkpt>
      <trkpt lat="38.397311" lon="-1.915171">
        <ele>509.2</ele>
        <time>2022-11-27T09:27:16Z</time>
      </trkpt>
      <trkpt lat="38.397409" lon="-1.914972">
        <ele>512.9</ele>
        <time>2022-11-27T09:28:12Z</time>
      </trkpt>
      <trkpt lat="38.397275" lon="-1.914818">
        <ele>494.2</ele>
        <time>2022-11-27T09:29:55Z</time>
      </trkpt>
      <trkpt lat="38.397242" lon="-1.914586">
        <ele>490.1</ele>
        <time>2022-11-27T09:30:22Z</time>
      </trkpt>
      <trkpt lat="38.397239" lon="-1.914354">
        <ele>490.2</ele>
        <time>2022-11-27T09:30:40Z</time>
      </trkpt>
      <trkpt lat="38.397262" lon="-1.914125">
        <ele>492.2</ele>
        <time>2022-11-27T09:31:07Z</time>
      </trkpt>
      <trkpt lat="38.397352" lon="-1.913923">
        <ele>490.9</ele>
        <time>2022-11-27T09:31:39Z</time>
      </trkpt>
      <trkpt lat="38.397411" lon="-1.913705">
        <ele>490.5</ele>
        <time>2022-11-27T09:32:39Z</time>
      </trkpt>
      <trkpt lat="38.397349" lon="-1.913488">
        <ele>484.2</ele>
        <time>2022-11-27T09:33:23Z</time>
      </trkpt>
      <trkpt lat="38.397260" lon="-1.913286">
        <ele>481.3</ele>
        <time>2022-11-27T09:33:56Z</time>
      </trkpt>
      <trkpt lat="38.397166" lon="-1.913089">
        <ele>481.2</ele>
        <time>2022-11-27T09:34:15Z</time>
      </trkpt>
      <trkpt lat="38.397086" lon="-1.912879">
        <ele>478.2</ele>
        <time>2022-11-27T09:34:37Z</time>
      </trkpt>
      <trkpt lat="38.397050" lon="-1.912648">
        <ele>479.2</ele>
        <time>2022-11-27T09:35:02Z</time>
      </trkpt>
      <trkpt lat="38.397005" lon="-1.912421">
        <ele>480.3</ele>
        <time>2022-11-27T09:35:41Z</time>
      </trkpt>
      <trkpt lat="38.396934" lon="-1.912206">
        <ele>475.9</ele>
        <time>2022-11-27T09:36:15Z</time>
      </trkpt>
      <trkpt lat="38.396904" lon="-1.911978">
        <ele>473.2</ele>
        <time>2022-11-27T09:36:43Z</time>
      </trkpt>
      <trkpt lat="38.396942" lon="-1.911753">
        <ele>474.2</ele>
        <time>2022-11-27T09:37:06Z</time>
      </trkpt>
      <trkpt lat="38.396883" lon="-1.911532">
        <ele>468.2</ele>
        <time>2022-11-27T09:37:37Z</time>
      </trkpt>
      <trkpt lat="38.396873" lon="-1.911303">
        <ele>465.2</ele>
        <time>2022-11-27T09:38:12Z</time>
      </trkpt>
      <trkpt lat="38.396870" lon="-1.911072">
        <ele>463.3</ele>
        <time>2022-11-27T09:38:46Z</time>
      </trkpt>
      <trkpt lat="38.396873" lon="-1.910840">
        <ele>465.2</ele>
        <time>2022-11-27T09:39:17Z</time>
      </trkpt>
      <trkpt lat="38.396894" lon="-1.910605">
        <ele>461.5</ele>
        <time>2022-11-27T09:39:39Z</time>
      </trkpt>
      <trkpt lat="38.396882" lon="-1.910375">
        <ele>456.2</ele>
        <time>2022-11-27T09:40:31Z</time>
      </trkpt>
      <trkpt lat="38.396982" lon="-1.910184">
        <ele>451.2</ele>
        <time>2022-11-27T09:42:02Z</time>
      </trkpt>
      <trkpt lat="38.397090" lon="-1.910000">
        <ele>448.2</ele>
        <time>2022-11-27T09:42:50Z</time>
      </trkpt>
      <trkpt lat="38.397111" lon="-1.909772">
        <ele>440.2</ele>
        <time>2022-11-27T09:44:00Z</time>
      </trkpt>
      <trkpt lat="38.397062" lon="-1.909548">
        <ele>431.2</ele>
        <time>2022-11-27T09:44:56Z</time>
      </trkpt>
      <trkpt lat="38.397133" lon="-1.909350">
        <ele>430.8</ele>
        <time>2022-11-27T09:45:27Z</time>
      </trkpt>
      <trkpt lat="38.397257" lon="-1.909154">
        <ele>433.1</ele>
        <time>2022-11-27T09:46:29Z</time>
      </trkpt>
      <trkpt lat="38.397355" lon="-1.908959">
        <ele>431.2</ele>
        <time>2022-11-27T09:48:35Z</time>
      </trkpt>
      <trkpt lat="38.397483" lon="-1.908800">
        <ele>425.5</ele>
        <time>2022-11-27T09:51:04Z</time>
      </trkpt>
      <trkpt lat="38.397575" lon="-1.908590">
        <ele>432.1</ele>
        <time>2022-11-27T09:52:21Z</time>
      </trkpt>
      <trkpt lat="38.397685" lon="-1.908407">
        <ele>441.1</ele>
        <time>2022-11-27T09:53:07Z</time>
      </trkpt>
      <trkpt lat="38.397683" lon="-1.908216">
        <ele>452.2</ele>
        <time>2022-11-27T09:54:59Z</time>
      </trkpt>
      <trkpt lat="38.397488" lon="-1.908277">
        <ele>447.1</ele>
        <time>2022-11-27T10:20:01Z</time>
      </trkpt>
      <trkpt lat="38.397204" lon="-1.908406">
        <ele>450.2</ele>
        <time>2022-11-27T10:20:20Z</time>
      </trkpt>
      <trkpt lat="38.397046" lon="-1.908524">
        <ele>449.2</ele>
        <time>2022-11-27T10:20:34Z</time>
      </trkpt>
      <trkpt lat="38.396875" lon="-1.908612">
        <ele>450.2</ele>
        <time>2022-11-27T10:20:47Z</time>
      </trkpt>
      <trkpt lat="38.396689" lon="-1.908643">
        <ele>451.3</ele>
        <time>2022-11-27T10:21:18Z</time>
      </trkpt>
      <trkpt lat="38.396515" lon="-1.908578">
        <ele>453.9</ele>
        <time>2022-11-27T10:22:57Z</time>
      </trkpt>
      <trkpt lat="38.396379" lon="-1.908407">
        <ele>455.3</ele>
        <time>2022-11-27T10:23:15Z</time>
      </trkpt>
      <trkpt lat="38.396298" lon="-1.908191">
        <ele>458.2</ele>
        <time>2022-11-27T10:23:34Z</time>
      </trkpt>
      <trkpt lat="38.396254" lon="-1.907968">
        <ele>459.9</ele>
        <time>2022-11-27T10:23:56Z</time>
      </trkpt>
      <trkpt lat="38.396220" lon="-1.907739">
        <ele>460.2</ele>
        <time>2022-11-27T10:24:13Z</time>
      </trkpt>
      <trkpt lat="38.396161" lon="-1.907522">
        <ele>462.1</ele>
        <time>2022-11-27T10:24:31Z</time>
      </trkpt>
      <trkpt lat="38.396093" lon="-1.907306">
        <ele>463.2</ele>
        <time>2022-11-27T10:24:48Z</time>
      </trkpt>
      <trkpt lat="38.396039" lon="-1.907079">
        <ele>462.5</ele>
        <time>2022-11-27T10:25:03Z</time>
      </trkpt>
      <trkpt lat="38.395988" lon="-1.906852">
        <ele>464.2</ele>
        <time>2022-11-27T10:25:19Z</time>
      </trkpt>
      <trkpt lat="38.395922" lon="-1.906630">
        <ele>464.9</ele>
        <time>2022-11-27T10:25:38Z</time>
      </trkpt>
      <trkpt lat="38.395847" lon="-1.906421">
        <ele>466.2</ele>
        <time>2022-11-27T10:25:54Z</time>
      </trkpt>
      <trkpt lat="38.395783" lon="-1.906205">
        <ele>470.2</ele>
        <time>2022-11-27T10:26:13Z</time>
      </trkpt>
      <trkpt lat="38.395673" lon="-1.906021">
        <ele>470.2</ele>
        <time>2022-11-27T10:26:29Z</time>
      </trkpt>
      <trkpt lat="38.395553" lon="-1.905841">
        <ele>472.2</ele>
        <time>2022-11-27T10:26:44Z</time>
      </trkpt>
      <trkpt lat="38.395417" lon="-1.905690">
        <ele>474.3</ele>
        <time>2022-11-27T10:26:59Z</time>
      </trkpt>
      <trkpt lat="38.395243" lon="-1.905615">
        <ele>477.2</ele>
        <time>2022-11-27T10:27:16Z</time>
      </trkpt>
      <trkpt lat="38.395218" lon="-1.905379">
        <ele>476.3</ele>
        <time>2022-11-27T10:27:42Z</time>
      </trkpt>
      <trkpt lat="38.395133" lon="-1.905173">
        <ele>478.1</ele>
        <time>2022-11-27T10:28:01Z</time>
      </trkpt>
      <trkpt lat="38.395089" lon="-1.904937">
        <ele>475.2</ele>
        <time>2022-11-27T10:28:21Z</time>
      </trkpt>
      <trkpt lat="38.395098" lon="-1.904702">
        <ele>477.2</ele>
        <time>2022-11-27T10:29:10Z</time>
      </trkpt>
      <trkpt lat="38.395105" lon="-1.904470">
        <ele>479.2</ele>
        <time>2022-11-27T10:29:27Z</time>
      </trkpt>
      <trkpt lat="38.395031" lon="-1.904251">
        <ele>480.2</ele>
        <time>2022-11-27T10:29:42Z</time>
      </trkpt>
      <trkpt lat="38.395023" lon="-1.904019">
        <ele>482.2</ele>
        <time>2022-11-27T10:29:56Z</time>
      </trkpt>
      <trkpt lat="38.394972" lon="-1.903790">
        <ele>485.2</ele>
        <time>2022-11-27T10:30:14Z</time>
      </trkpt>
      <trkpt lat="38.394926" lon="-1.903559">
        <ele>494.9</ele>
        <time>2022-11-27T10:30:43Z</time>
      </trkpt>
      <trkpt lat="38.394875" lon="-1.903335">
        <ele>496.2</ele>
        <time>2022-11-27T10:30:59Z</time>
      </trkpt>
      <trkpt lat="38.394923" lon="-1.903109">
        <ele>507.2</ele>
        <time>2022-11-27T10:33:53Z</time>
      </trkpt>
      <trkpt lat="38.395054" lon="-1.902946">
        <ele>504.5</ele>
        <time>2022-11-27T10:34:11Z</time>
      </trkpt>
      <trkpt lat="38.395157" lon="-1.902753">
        <ele>506.2</ele>
        <time>2022-11-27T10:34:36Z</time>
      </trkpt>
      <trkpt lat="38.395272" lon="-1.902560">
        <ele>507.2</ele>
        <time>2022-11-27T10:34:52Z</time>
      </trkpt>
      <trkpt lat="38.395399" lon="-1.902389">
        <ele>510.2</ele>
        <time>2022-11-27T10:35:10Z</time>
      </trkpt>
      <trkpt lat="38.395536" lon="-1.902227">
        <ele>513.2</ele>
        <time>2022-11-27T10:35:29Z</time>
      </trkpt>
      <trkpt lat="38.395678" lon="-1.902075">
        <ele>515.2</ele>
        <time>2022-11-27T10:35:47Z</time>
      </trkpt>
      <trkpt lat="38.395748" lon="-1.901862">
        <ele>514.2</ele>
        <time>2022-11-27T10:36:03Z</time>
      </trkpt>
      <trkpt lat="38.395834" lon="-1.901659">
        <ele>516.2</ele>
        <time>2022-11-27T10:36:19Z</time>
      </trkpt>
      <trkpt lat="38.395855" lon="-1.901424">
        <ele>516.2</ele>
        <time>2022-11-27T10:36:35Z</time>
      </trkpt>
      <trkpt lat="38.395916" lon="-1.901207">
        <ele>518.2</ele>
        <time>2022-11-27T10:36:52Z</time>
      </trkpt>
      <trkpt lat="38.396056" lon="-1.901064">
        <ele>519.2</ele>
        <time>2022-11-27T10:37:10Z</time>
      </trkpt>
      <trkpt lat="38.396214" lon="-1.900936">
        <ele>520.2</ele>
        <time>2022-11-27T10:37:30Z</time>
      </trkpt>
      <trkpt lat="38.396374" lon="-1.900831">
        <ele>521.5</ele>
        <time>2022-11-27T10:37:50Z</time>
      </trkpt>
      <trkpt lat="38.396477" lon="-1.900635">
        <ele>523.2</ele>
        <time>2022-11-27T10:38:10Z</time>
      </trkpt>
      <trkpt lat="38.396512" lon="-1.900403">
        <ele>522.2</ele>
        <time>2022-11-27T10:38:30Z</time>
      </trkpt>
      <trkpt lat="38.396430" lon="-1.900183">
        <ele>521.2</ele>
        <time>2022-11-27T10:38:49Z</time>
      </trkpt>
      <trkpt lat="38.396462" lon="-1.899956">
        <ele>520.3</ele>
        <time>2022-11-27T10:39:00Z</time>
      </trkpt>
      <trkpt lat="38.396564" lon="-1.899760">
        <ele>520.6</ele>
        <time>2022-11-27T10:39:56Z</time>
      </trkpt>
      <trkpt lat="38.396707" lon="-1.899617">
        <ele>518.3</ele>
        <time>2022-11-27T10:40:10Z</time>
      </trkpt>
      <trkpt lat="38.396838" lon="-1.899445">
        <ele>512.3</ele>
        <time>2022-11-27T10:40:38Z</time>
      </trkpt>
      <trkpt lat="38.396934" lon="-1.899249">
        <ele>510.3</ele>
        <time>2022-11-27T10:40:51Z</time>
      </trkpt>
      <trkpt lat="38.396986" lon="-1.899018">
        <ele>509.0</ele>
        <time>2022-11-27T10:41:35Z</time>
      </trkpt>
      <trkpt lat="38.397015" lon="-1.898785">
        <ele>514.2</ele>
        <time>2022-11-27T10:41:48Z</time>
      </trkpt>
      <trkpt lat="38.396994" lon="-1.898555">
        <ele>512.3</ele>
        <time>2022-11-27T10:42:07Z</time>
      </trkpt>
      <trkpt lat="38.396992" lon="-1.898322">
        <ele>511.2</ele>
        <time>2022-11-27T10:42:19Z</time>
      </trkpt>
      <trkpt lat="38.397049" lon="-1.898095">
        <ele>510.2</ele>
        <time>2022-11-27T10:42:33Z</time>
      </trkpt>
      <trkpt lat="38.397066" lon="-1.897865">
        <ele>509.2</ele>
        <time>2022-11-27T10:42:48Z</time>
      </trkpt>
      <trkpt lat="38.397124" lon="-1.897644">
        <ele>509.2</ele>
        <time>2022-11-27T10:42:59Z</time>
      </trkpt>
      <trkpt lat="38.397136" lon="-1.897405">
        <ele>507.2</ele>
        <time>2022-11-27T10:43:14Z</time>
      </trkpt>
      <trkpt lat="38.397153" lon="-1.897167">
        <ele>509.2</ele>
        <time>2022-11-27T10:43:27Z</time>
      </trkpt>
      <trkpt lat="38.397230" lon="-1.896956">
        <ele>508.2</ele>
        <time>2022-11-27T10:43:40Z</time>
      </trkpt>
      <trkpt lat="38.397321" lon="-1.896753">
        <ele>508.2</ele>
        <time>2022-11-27T10:43:54Z</time>
      </trkpt>
      <trkpt lat="38.397408" lon="-1.896527">
        <ele>511.0</ele>
        <time>2022-11-27T10:44:15Z</time>
      </trkpt>
      <trkpt lat="38.397484" lon="-1.896309">
        <ele>517.2</ele>
        <time>2022-11-27T10:44:35Z</time>
      </trkpt>
      <trkpt lat="38.397565" lon="-1.896101">
        <ele>518.3</ele>
        <time>2022-11-27T10:45:40Z</time>
      </trkpt>
      <trkpt lat="38.397654" lon="-1.895936">
        <ele>517.3</ele>
        <time>2022-11-27T10:46:49Z</time>
      </trkpt>
      <trkpt lat="38.397748" lon="-1.895776">
        <ele>512.3</ele>
        <time>2022-11-27T10:48:16Z</time>
      </trkpt>
      <trkpt lat="38.397795" lon="-1.895552">
        <ele>512.3</ele>
        <time>2022-11-27T10:48:31Z</time>
      </trkpt>
      <trkpt lat="38.397870" lon="-1.895338">
        <ele>510.3</ele>
        <time>2022-11-27T10:48:47Z</time>
      </trkpt>
      <trkpt lat="38.397909" lon="-1.895114">
        <ele>508.6</ele>
        <time>2022-11-27T10:48:59Z</time>
      </trkpt>
      <trkpt lat="38.397981" lon="-1.894897">
        <ele>505.3</ele>
        <time>2022-11-27T10:49:16Z</time>
      </trkpt>
      <trkpt lat="38.398035" lon="-1.894675">
        <ele>499.4</ele>
        <time>2022-11-27T10:49:31Z</time>
      </trkpt>
      <trkpt lat="38.398038" lon="-1.894431">
        <ele>495.1</ele>
        <time>2022-11-27T10:49:51Z</time>
      </trkpt>
      <trkpt lat="38.398042" lon="-1.894200">
        <ele>492.3</ele>
        <time>2022-11-27T10:50:05Z</time>
      </trkpt>
      <trkpt lat="38.398004" lon="-1.893969">
        <ele>491.3</ele>
        <time>2022-11-27T10:50:20Z</time>
      </trkpt>
      <trkpt lat="38.398059" lon="-1.893737">
        <ele>488.3</ele>
        <time>2022-11-27T10:50:35Z</time>
      </trkpt>
      <trkpt lat="38.398087" lon="-1.893503">
        <ele>485.6</ele>
        <time>2022-11-27T10:50:51Z</time>
      </trkpt>
      <trkpt lat="38.398023" lon="-1.893286">
        <ele>482.3</ele>
        <time>2022-11-27T10:51:03Z</time>
      </trkpt>
      <trkpt lat="38.397946" lon="-1.893077">
        <ele>480.3</ele>
        <time>2022-11-27T10:51:16Z</time>
      </trkpt>
      <trkpt lat="38.397848" lon="-1.892874">
        <ele>475.3</ele>
        <time>2022-11-27T10:51:31Z</time>
      </trkpt>
      <trkpt lat="38.397777" lon="-1.892657">
        <ele>473.4</ele>
        <time>2022-11-27T10:51:43Z</time>
      </trkpt>
      <trkpt lat="38.397695" lon="-1.892450">
        <ele>470.3</ele>
        <time>2022-11-27T10:51:57Z</time>
      </trkpt>
      <trkpt lat="38.397604" lon="-1.892238">
        <ele>468.6</ele>
        <time>2022-11-27T10:52:10Z</time>
      </trkpt>
      <trkpt lat="38.397509" lon="-1.892039">
        <ele>467.4</ele>
        <time>2022-11-27T10:52:22Z</time>
      </trkpt>
      <trkpt lat="38.397420" lon="-1.891837">
        <ele>466.3</ele>
        <time>2022-11-27T10:52:37Z</time>
      </trkpt>
      <trkpt lat="38.397297" lon="-1.891649">
        <ele>464.3</ele>
        <time>2022-11-27T10:52:54Z</time>
      </trkpt>
      <trkpt lat="38.397171" lon="-1.891465">
        <ele>461.3</ele>
        <time>2022-11-27T10:53:06Z</time>
      </trkpt>
      <trkpt lat="38.397041" lon="-1.891301">
        <ele>458.3</ele>
        <time>2022-11-27T10:53:23Z</time>
      </trkpt>
      <trkpt lat="38.396928" lon="-1.891119">
        <ele>455.3</ele>
        <time>2022-11-27T10:53:39Z</time>
      </trkpt>
      <trkpt lat="38.396788" lon="-1.890960">
        <ele>454.3</ele>
        <time>2022-11-27T10:53:55Z</time>
      </trkpt>
      <trkpt lat="38.396679" lon="-1.890778">
        <ele>457.3</ele>
        <time>2022-11-27T10:54:12Z</time>
      </trkpt>
      <trkpt lat="38.396566" lon="-1.890585">
        <ele>453.6</ele>
        <time>2022-11-27T10:54:29Z</time>
      </trkpt>
      <trkpt lat="38.396415" lon="-1.890450">
        <ele>453.3</ele>
        <time>2022-11-27T10:54:44Z</time>
      </trkpt>
      <trkpt lat="38.396306" lon="-1.890266">
        <ele>454.3</ele>
        <time>2022-11-27T10:55:00Z</time>
      </trkpt>
      <trkpt lat="38.396255" lon="-1.890041">
        <ele>451.3</ele>
        <time>2022-11-27T10:55:16Z</time>
      </trkpt>
      <trkpt lat="38.396323" lon="-1.889824">
        <ele>450.3</ele>
        <time>2022-11-27T10:55:31Z</time>
      </trkpt>
      <trkpt lat="38.396468" lon="-1.889687">
        <ele>449.6</ele>
        <time>2022-11-27T10:55:46Z</time>
      </trkpt>
      <trkpt lat="38.396578" lon="-1.889501">
        <ele>447.6</ele>
        <time>2022-11-27T10:55:57Z</time>
      </trkpt>
      <trkpt lat="38.396598" lon="-1.889269">
        <ele>446.3</ele>
        <time>2022-11-27T10:56:13Z</time>
      </trkpt>
      <trkpt lat="38.396560" lon="-1.889043">
        <ele>442.3</ele>
        <time>2022-11-27T10:56:30Z</time>
      </trkpt>
      <trkpt lat="38.396540" lon="-1.888809">
        <ele>440.6</ele>
        <time>2022-11-27T10:56:54Z</time>
      </trkpt>
      <trkpt lat="38.396514" lon="-1.888580">
        <ele>438.6</ele>
        <time>2022-11-27T10:57:13Z</time>
      </trkpt>
      <trkpt lat="38.396514" lon="-1.888340">
        <ele>436.3</ele>
        <time>2022-11-27T10:57:29Z</time>
      </trkpt>
      <trkpt lat="38.396575" lon="-1.888120">
        <ele>436.3</ele>
        <time>2022-11-27T11:01:19Z</time>
      </trkpt>
      <trkpt lat="38.396683" lon="-1.887935">
        <ele>440.3</ele>
        <time>2022-11-27T11:02:49Z</time>
      </trkpt>
      <trkpt lat="38.396608" lon="-1.887719">
        <ele>439.2</ele>
        <time>2022-11-27T11:03:09Z</time>
      </trkpt>
      <trkpt lat="38.396519" lon="-1.887514">
        <ele>437.6</ele>
        <time>2022-11-27T11:03:24Z</time>
      </trkpt>
      <trkpt lat="38.396340" lon="-1.887480">
        <ele>437.3</ele>
        <time>2022-11-27T11:03:56Z</time>
      </trkpt>
      <trkpt lat="38.396156" lon="-1.887498">
        <ele>438.3</ele>
        <time>2022-11-27T11:04:25Z</time>
      </trkpt>
      <trkpt lat="38.395975" lon="-1.887499">
        <ele>441.3</ele>
        <time>2022-11-27T11:04:45Z</time>
      </trkpt>
      <trkpt lat="38.395792" lon="-1.887538">
        <ele>441.3</ele>
        <time>2022-11-27T11:05:00Z</time>
      </trkpt>
      <trkpt lat="38.395616" lon="-1.887619">
        <ele>439.3</ele>
        <time>2022-11-27T11:05:13Z</time>
      </trkpt>
      <trkpt lat="38.395504" lon="-1.887805">
        <ele>439.1</ele>
        <time>2022-11-27T11:05:31Z</time>
      </trkpt>
      <trkpt lat="38.395335" lon="-1.887888">
        <ele>438.3</ele>
        <time>2022-11-27T11:05:49Z</time>
      </trkpt>
      <trkpt lat="38.395166" lon="-1.887965">
        <ele>436.3</ele>
        <time>2022-11-27T11:06:03Z</time>
      </trkpt>
      <trkpt lat="38.395006" lon="-1.888071">
        <ele>432.6</ele>
        <time>2022-11-27T11:06:23Z</time>
      </trkpt>
      <trkpt lat="38.394832" lon="-1.888155">
        <ele>434.0</ele>
        <time>2022-11-27T11:06:38Z</time>
      </trkpt>
      <trkpt lat="38.394664" lon="-1.888061">
        <ele>437.3</ele>
        <time>2022-11-27T11:06:52Z</time>
      </trkpt>
      <trkpt lat="38.394491" lon="-1.887990">
        <ele>437.6</ele>
        <time>2022-11-27T11:07:11Z</time>
      </trkpt>
      <trkpt lat="38.394432" lon="-1.888210">
        <ele>435.3</ele>
        <time>2022-11-27T11:07:27Z</time>
      </trkpt>
      <trkpt lat="38.394411" lon="-1.888448">
        <ele>437.2</ele>
        <time>2022-11-27T11:07:45Z</time>
      </trkpt>
      <trkpt lat="38.394371" lon="-1.888677">
        <ele>436.3</ele>
        <time>2022-11-27T11:08:02Z</time>
      </trkpt>
      <trkpt lat="38.394322" lon="-1.888901">
        <ele>439.2</ele>
        <time>2022-11-27T11:08:19Z</time>
      </trkpt>
      <trkpt lat="38.394274" lon="-1.889137">
        <ele>438.3</ele>
        <time>2022-11-27T11:08:36Z</time>
      </trkpt>
      <trkpt lat="38.394247" lon="-1.889367">
        <ele>435.3</ele>
        <time>2022-11-27T11:08:53Z</time>
      </trkpt>
      <trkpt lat="38.394184" lon="-1.889583">
        <ele>438.2</ele>
        <time>2022-11-27T11:09:13Z</time>
      </trkpt>
      <trkpt lat="38.394132" lon="-1.889817">
        <ele>440.2</ele>
        <time>2022-11-27T11:09:32Z</time>
      </trkpt>
      <trkpt lat="38.393979" lon="-1.889938">
        <ele>446.0</ele>
        <time>2022-11-27T11:09:50Z</time>
      </trkpt>
      <trkpt lat="38.393787" lon="-1.889944">
        <ele>449.1</ele>
        <time>2022-11-27T11:10:04Z</time>
      </trkpt>
      <trkpt lat="38.393606" lon="-1.889906">
        <ele>450.2</ele>
        <time>2022-11-27T11:10:20Z</time>
      </trkpt>
      <trkpt lat="38.393413" lon="-1.889897">
        <ele>448.3</ele>
        <time>2022-11-27T11:10:36Z</time>
      </trkpt>
      <trkpt lat="38.393234" lon="-1.889864">
        <ele>448.6</ele>
        <time>2022-11-27T11:11:00Z</time>
      </trkpt>
      <trkpt lat="38.393055" lon="-1.889922">
        <ele>447.3</ele>
        <time>2022-11-27T11:11:19Z</time>
      </trkpt>
      <trkpt lat="38.392874" lon="-1.889923">
        <ele>446.0</ele>
        <time>2022-11-27T11:11:31Z</time>
      </trkpt>
      <trkpt lat="38.392694" lon="-1.889962">
        <ele>445.3</ele>
        <time>2022-11-27T11:11:48Z</time>
      </trkpt>
      <trkpt lat="38.392523" lon="-1.890035">
        <ele>445.2</ele>
        <time>2022-11-27T11:12:05Z</time>
      </trkpt>
      <trkpt lat="38.392338" lon="-1.890047">
        <ele>446.6</ele>
        <time>2022-11-27T11:12:22Z</time>
      </trkpt>
      <trkpt lat="38.392159" lon="-1.890118">
        <ele>446.6</ele>
        <time>2022-11-27T11:12:47Z</time>
      </trkpt>
      <trkpt lat="38.391972" lon="-1.890128">
        <ele>446.3</ele>
        <time>2022-11-27T11:12:59Z</time>
      </trkpt>
      <trkpt lat="38.391786" lon="-1.890099">
        <ele>446.3</ele>
        <time>2022-11-27T11:13:14Z</time>
      </trkpt>
      <trkpt lat="38.391606" lon="-1.890067">
        <ele>448.0</ele>
        <time>2022-11-27T11:13:30Z</time>
      </trkpt>
      <trkpt lat="38.391428" lon="-1.889998">
        <ele>447.3</ele>
        <time>2022-11-27T11:13:46Z</time>
      </trkpt>
      <trkpt lat="38.391252" lon="-1.889951">
        <ele>447.6</ele>
        <time>2022-11-27T11:14:01Z</time>
      </trkpt>
      <trkpt lat="38.391073" lon="-1.889924">
        <ele>446.6</ele>
        <time>2022-11-27T11:14:16Z</time>
      </trkpt>
      <trkpt lat="38.390896" lon="-1.889976">
        <ele>445.4</ele>
        <time>2022-11-27T11:14:31Z</time>
      </trkpt>
      <trkpt lat="38.390718" lon="-1.890034">
        <ele>444.3</ele>
        <time>2022-11-27T11:14:47Z</time>
      </trkpt>
      <trkpt lat="38.390530" lon="-1.890055">
        <ele>442.3</ele>
        <time>2022-11-27T11:15:02Z</time>
      </trkpt>
      <trkpt lat="38.390355" lon="-1.890111">
        <ele>440.3</ele>
        <time>2022-11-27T11:15:18Z</time>
      </trkpt>
      <trkpt lat="38.390171" lon="-1.890153">
        <ele>442.3</ele>
        <time>2022-11-27T11:15:33Z</time>
      </trkpt>
      <trkpt lat="38.389990" lon="-1.890192">
        <ele>441.4</ele>
        <time>2022-11-27T11:15:49Z</time>
      </trkpt>
      <trkpt lat="38.389809" lon="-1.890147">
        <ele>442.9</ele>
        <time>2022-11-27T11:16:05Z</time>
      </trkpt>
      <trkpt lat="38.389630" lon="-1.890097">
        <ele>441.3</ele>
        <time>2022-11-27T11:16:22Z</time>
      </trkpt>
      <trkpt lat="38.389445" lon="-1.890068">
        <ele>438.4</ele>
        <time>2022-11-27T11:16:37Z</time>
      </trkpt>
      <trkpt lat="38.389261" lon="-1.890086">
        <ele>438.3</ele>
        <time>2022-11-27T11:16:54Z</time>
      </trkpt>
      <trkpt lat="38.389081" lon="-1.890085">
        <ele>439.5</ele>
        <time>2022-11-27T11:17:13Z</time>
      </trkpt>
      <trkpt lat="38.388916" lon="-1.890016">
        <ele>444.3</ele>
        <time>2022-11-27T11:17:39Z</time>
      </trkpt>
      <trkpt lat="38.388957" lon="-1.889784">
        <ele>447.2</ele>
        <time>2022-11-27T11:19:09Z</time>
      </trkpt>
      <trkpt lat="38.389096" lon="-1.889615">
        <ele>447.3</ele>
        <time>2022-11-27T11:19:30Z</time>
      </trkpt>
      <trkpt lat="38.389200" lon="-1.889409">
        <ele>444.3</ele>
        <time>2022-11-27T11:19:46Z</time>
      </trkpt>
      <trkpt lat="38.389264" lon="-1.889186">
        <ele>441.6</ele>
        <time>2022-11-27T11:20:02Z</time>
      </trkpt>
      <trkpt lat="38.389354" lon="-1.888985">
        <ele>440.0</ele>
        <time>2022-11-27T11:20:16Z</time>
      </trkpt>
      <trkpt lat="38.389505" lon="-1.888838">
        <ele>443.3</ele>
        <time>2022-11-27T11:20:34Z</time>
      </trkpt>
      <trkpt lat="38.389645" lon="-1.888686">
        <ele>443.0</ele>
        <time>2022-11-27T11:20:49Z</time>
      </trkpt>
      <trkpt lat="38.389796" lon="-1.888550">
        <ele>442.3</ele>
        <time>2022-11-27T11:21:03Z</time>
      </trkpt>
      <trkpt lat="38.389977" lon="-1.888525">
        <ele>443.3</ele>
        <time>2022-11-27T11:21:19Z</time>
      </trkpt>
      <trkpt lat="38.390142" lon="-1.888409">
        <ele>442.6</ele>
        <time>2022-11-27T11:21:34Z</time>
      </trkpt>
      <trkpt lat="38.390306" lon="-1.888303">
        <ele>441.3</ele>
        <time>2022-11-27T11:21:50Z</time>
      </trkpt>
      <trkpt lat="38.390466" lon="-1.888185">
        <ele>439.3</ele>
        <time>2022-11-27T11:22:04Z</time>
      </trkpt>
      <trkpt lat="38.390647" lon="-1.888140">
        <ele>439.4</ele>
        <time>2022-11-27T11:22:18Z</time>
      </trkpt>
      <trkpt lat="38.390823" lon="-1.888066">
        <ele>441.3</ele>
        <time>2022-11-27T11:22:32Z</time>
      </trkpt>
      <trkpt lat="38.391000" lon="-1.887994">
        <ele>441.3</ele>
        <time>2022-11-27T11:22:47Z</time>
      </trkpt>
      <trkpt lat="38.391158" lon="-1.887872">
        <ele>439.3</ele>
        <time>2022-11-27T11:23:02Z</time>
      </trkpt>
      <trkpt lat="38.391312" lon="-1.887739">
        <ele>438.3</ele>
        <time>2022-11-27T11:23:17Z</time>
      </trkpt>
      <trkpt lat="38.391482" lon="-1.887658">
        <ele>438.3</ele>
        <time>2022-11-27T11:23:33Z</time>
      </trkpt>
      <trkpt lat="38.391648" lon="-1.887566">
        <ele>437.4</ele>
        <time>2022-11-27T11:23:47Z</time>
      </trkpt>
      <trkpt lat="38.391784" lon="-1.887402">
        <ele>437.3</ele>
        <time>2022-11-27T11:24:04Z</time>
      </trkpt>
      <trkpt lat="38.391943" lon="-1.887279">
        <ele>437.3</ele>
        <time>2022-11-27T11:24:25Z</time>
      </trkpt>
      <trkpt lat="38.392083" lon="-1.887109">
        <ele>434.4</ele>
        <time>2022-11-27T11:24:39Z</time>
      </trkpt>
      <trkpt lat="38.392158" lon="-1.886883">
        <ele>433.3</ele>
        <time>2022-11-27T11:24:54Z</time>
      </trkpt>
      <trkpt lat="38.392256" lon="-1.886687">
        <ele>432.3</ele>
        <time>2022-11-27T11:25:08Z</time>
      </trkpt>
      <trkpt lat="38.392369" lon="-1.886497">
        <ele>430.4</ele>
        <time>2022-11-27T11:25:24Z</time>
      </trkpt>
      <trkpt lat="38.392449" lon="-1.886282">
        <ele>431.3</ele>
        <time>2022-11-27T11:25:41Z</time>
      </trkpt>
      <trkpt lat="38.392538" lon="-1.886080">
        <ele>429.3</ele>
        <time>2022-11-27T11:25:57Z</time>
      </trkpt>
      <trkpt lat="38.392660" lon="-1.885889">
        <ele>429.3</ele>
        <time>2022-11-27T11:26:12Z</time>
      </trkpt>
      <trkpt lat="38.392786" lon="-1.885724">
        <ele>429.3</ele>
        <time>2022-11-27T11:26:28Z</time>
      </trkpt>
      <trkpt lat="38.392947" lon="-1.885607">
        <ele>429.3</ele>
        <time>2022-11-27T11:26:42Z</time>
      </trkpt>
      <trkpt lat="38.393104" lon="-1.885486">
        <ele>427.4</ele>
        <time>2022-11-27T11:26:58Z</time>
      </trkpt>
      <trkpt lat="38.393192" lon="-1.885279">
        <ele>427.3</ele>
        <time>2022-11-27T11:27:12Z</time>
      </trkpt>
      <trkpt lat="38.393279" lon="-1.885077">
        <ele>426.5</ele>
        <time>2022-11-27T11:27:29Z</time>
      </trkpt>
      <trkpt lat="38.393445" lon="-1.884973">
        <ele>426.3</ele>
        <time>2022-11-27T11:27:46Z</time>
      </trkpt>
      <trkpt lat="38.393627" lon="-1.884918">
        <ele>430.0</ele>
        <time>2022-11-27T11:27:58Z</time>
      </trkpt>
      <trkpt lat="38.393780" lon="-1.884783">
        <ele>431.6</ele>
        <time>2022-11-27T11:28:18Z</time>
      </trkpt>
      <trkpt lat="38.393909" lon="-1.884620">
        <ele>429.3</ele>
        <time>2022-11-27T11:28:44Z</time>
      </trkpt>
      <trkpt lat="38.394019" lon="-1.884429">
        <ele>428.3</ele>
        <time>2022-11-27T11:28:57Z</time>
      </trkpt>
      <trkpt lat="38.394139" lon="-1.884254">
        <ele>425.3</ele>
        <time>2022-11-27T11:29:13Z</time>
      </trkpt>
      <trkpt lat="38.394288" lon="-1.884124">
        <ele>424.3</ele>
        <time>2022-11-27T11:29:28Z</time>
      </trkpt>
      <trkpt lat="38.394388" lon="-1.883925">
        <ele>425.3</ele>
        <time>2022-11-27T11:30:10Z</time>
      </trkpt>
      <trkpt lat="38.394437" lon="-1.883703">
        <ele>423.6</ele>
        <time>2022-11-27T11:30:26Z</time>
      </trkpt>
      <trkpt lat="38.394518" lon="-1.883490">
        <ele>424.4</ele>
        <time>2022-11-27T11:30:37Z</time>
      </trkpt>
      <trkpt lat="38.394601" lon="-1.883281">
        <ele>421.3</ele>
        <time>2022-11-27T11:30:50Z</time>
      </trkpt>
      <trkpt lat="38.394683" lon="-1.883066">
        <ele>420.2</ele>
        <time>2022-11-27T11:31:04Z</time>
      </trkpt>
      <trkpt lat="38.394741" lon="-1.882844">
        <ele>420.2</ele>
        <time>2022-11-27T11:31:17Z</time>
      </trkpt>
      <trkpt lat="38.394801" lon="-1.882622">
        <ele>421.3</ele>
        <time>2022-11-27T11:31:43Z</time>
      </trkpt>
      <trkpt lat="38.394860" lon="-1.882401">
        <ele>420.3</ele>
        <time>2022-11-27T11:31:54Z</time>
      </trkpt>
      <trkpt lat="38.394942" lon="-1.882195">
        <ele>419.3</ele>
        <time>2022-11-27T11:32:08Z</time>
      </trkpt>
      <trkpt lat="38.395013" lon="-1.881961">
        <ele>419.3</ele>
        <time>2022-11-27T11:33:02Z</time>
      </trkpt>
      <trkpt lat="38.395178" lon="-1.881852">
        <ele>421.2</ele>
        <time>2022-11-27T11:33:14Z</time>
      </trkpt>
      <trkpt lat="38.395329" lon="-1.881718">
        <ele>421.3</ele>
        <time>2022-11-27T11:33:28Z</time>
      </trkpt>
      <trkpt lat="38.395432" lon="-1.881524">
        <ele>417.3</ele>
        <time>2022-11-27T11:33:42Z</time>
      </trkpt>
      <trkpt lat="38.395501" lon="-1.881308">
        <ele>420.3</ele>
        <time>2022-11-27T11:33:56Z</time>
      </trkpt>
      <trkpt lat="38.395575" lon="-1.881094">
        <ele>419.0</ele>
        <time>2022-11-27T11:34:11Z</time>
      </trkpt>
      <trkpt lat="38.395677" lon="-1.880894">
        <ele>419.3</ele>
        <time>2022-11-27T11:34:26Z</time>
      </trkpt>
      <trkpt lat="38.395788" lon="-1.880708">
        <ele>417.2</ele>
        <time>2022-11-27T11:34:40Z</time>
      </trkpt>
      <trkpt lat="38.395875" lon="-1.880500">
        <ele>417.3</ele>
        <time>2022-11-27T11:34:54Z</time>
      </trkpt>
      <trkpt lat="38.395989" lon="-1.880317">
        <ele>418.3</ele>
        <time>2022-11-27T11:35:08Z</time>
      </trkpt>
      <trkpt lat="38.396093" lon="-1.880127">
        <ele>419.3</ele>
        <time>2022-11-27T11:35:22Z</time>
      </trkpt>
      <trkpt lat="38.396200" lon="-1.879935">
        <ele>419.3</ele>
        <time>2022-11-27T11:35:37Z</time>
      </trkpt>
      <trkpt lat="38.396328" lon="-1.879759">
        <ele>417.0</ele>
        <time>2022-11-27T11:35:52Z</time>
      </trkpt>
      <trkpt lat="38.396429" lon="-1.879565">
        <ele>416.0</ele>
        <time>2022-11-27T11:36:07Z</time>
      </trkpt>
      <trkpt lat="38.396535" lon="-1.879359">
        <ele>416.0</ele>
        <time>2022-11-27T11:36:21Z</time>
      </trkpt>
      <trkpt lat="38.396512" lon="-1.879128">
        <ele>416.3</ele>
        <time>2022-11-27T11:38:22Z</time>
      </trkpt>
      <trkpt lat="38.396539" lon="-1.878899">
        <ele>415.3</ele>
        <time>2022-11-27T11:39:19Z</time>
      </trkpt>
      <trkpt lat="38.396610" lon="-1.878683">
        <ele>416.3</ele>
        <time>2022-11-27T11:39:34Z</time>
      </trkpt>
      <trkpt lat="38.396758" lon="-1.878535">
        <ele>415.3</ele>
        <time>2022-11-27T11:39:52Z</time>
      </trkpt>
      <trkpt lat="38.396841" lon="-1.878327">
        <ele>416.3</ele>
        <time>2022-11-27T11:40:14Z</time>
      </trkpt>
      <trkpt lat="38.396990" lon="-1.878194">
        <ele>418.3</ele>
        <time>2022-11-27T11:40:26Z</time>
      </trkpt>
      <trkpt lat="38.397167" lon="-1.878133">
        <ele>415.7</ele>
        <time>2022-11-27T11:41:30Z</time>
      </trkpt>
      <trkpt lat="38.396978" lon="-1.878161">
        <ele>411.3</ele>
        <time>2022-11-27T11:41:45Z</time>
      </trkpt>
      <trkpt lat="38.396802" lon="-1.878095">
        <ele>414.3</ele>
        <time>2022-11-27T11:43:47Z</time>
      </trkpt>
      <trkpt lat="38.396615" lon="-1.878077">
        <ele>413.3</ele>
        <time>2022-11-27T11:44:00Z</time>
      </trkpt>
      <trkpt lat="38.396433" lon="-1.878054">
        <ele>413.3</ele>
        <time>2022-11-27T11:44:14Z</time>
      </trkpt>
      <trkpt lat="38.396362" lon="-1.878272">
        <ele>415.3</ele>
        <time>2022-11-27T11:45:04Z</time>
      </trkpt>
      <trkpt lat="38.396412" lon="-1.878500">
        <ele>414.3</ele>
        <time>2022-11-27T11:45:18Z</time>
      </trkpt>
      <trkpt lat="38.396475" lon="-1.878723">
        <ele>413.3</ele>
        <time>2022-11-27T11:45:33Z</time>
      </trkpt>
      <trkpt lat="38.396526" lon="-1.878951">
        <ele>412.4</ele>
        <time>2022-11-27T11:45:48Z</time>
      </trkpt>
      <trkpt lat="38.396540" lon="-1.879183">
        <ele>411.4</ele>
        <time>2022-11-27T11:46:02Z</time>
      </trkpt>
      <trkpt lat="38.396504" lon="-1.879410">
        <ele>411.6</ele>
        <time>2022-11-27T11:46:16Z</time>
      </trkpt>
      <trkpt lat="38.396419" lon="-1.879619">
        <ele>410.3</ele>
        <time>2022-11-27T11:46:31Z</time>
      </trkpt>
      <trkpt lat="38.396300" lon="-1.879801">
        <ele>409.6</ele>
        <time>2022-11-27T11:46:44Z</time>
      </trkpt>
      <trkpt lat="38.396180" lon="-1.879975">
        <ele>412.6</ele>
        <time>2022-11-27T11:46:57Z</time>
      </trkpt>
      <trkpt lat="38.396068" lon="-1.880165">
        <ele>412.4</ele>
        <time>2022-11-27T11:47:11Z</time>
      </trkpt>
      <trkpt lat="38.395968" lon="-1.880356">
        <ele>413.3</ele>
        <time>2022-11-27T11:47:24Z</time>
      </trkpt>
      <trkpt lat="38.395858" lon="-1.880549">
        <ele>413.3</ele>
        <time>2022-11-27T11:47:38Z</time>
      </trkpt>
      <trkpt lat="38.395747" lon="-1.880736">
        <ele>412.3</ele>
        <time>2022-11-27T11:47:52Z</time>
      </trkpt>
      <trkpt lat="38.395641" lon="-1.880924">
        <ele>412.3</ele>
        <time>2022-11-27T11:48:06Z</time>
      </trkpt>
      <trkpt lat="38.395542" lon="-1.881139">
        <ele>412.3</ele>
        <time>2022-11-27T11:48:21Z</time>
      </trkpt>
      <trkpt lat="38.395462" lon="-1.881363">
        <ele>413.3</ele>
        <time>2022-11-27T11:48:34Z</time>
      </trkpt>
      <trkpt lat="38.395386" lon="-1.881572">
        <ele>415.3</ele>
        <time>2022-11-27T11:48:49Z</time>
      </trkpt>
      <trkpt lat="38.395261" lon="-1.881750">
        <ele>413.3</ele>
        <time>2022-11-27T11:49:04Z</time>
      </trkpt>
      <trkpt lat="38.395117" lon="-1.881901">
        <ele>414.3</ele>
        <time>2022-11-27T11:49:17Z</time>
      </trkpt>
      <trkpt lat="38.394967" lon="-1.882036">
        <ele>415.3</ele>
        <time>2022-11-27T11:49:32Z</time>
      </trkpt>
      <trkpt lat="38.394889" lon="-1.882246">
        <ele>416.3</ele>
        <time>2022-11-27T11:49:46Z</time>
      </trkpt>
      <trkpt lat="38.394825" lon="-1.882463">
        <ele>416.3</ele>
        <time>2022-11-27T11:50:00Z</time>
      </trkpt>
      <trkpt lat="38.394760" lon="-1.882681">
        <ele>418.3</ele>
        <time>2022-11-27T11:50:15Z</time>
      </trkpt>
      <trkpt lat="38.394714" lon="-1.882910">
        <ele>419.3</ele>
        <time>2022-11-27T11:50:28Z</time>
      </trkpt>
      <trkpt lat="38.394645" lon="-1.883127">
        <ele>418.3</ele>
        <time>2022-11-27T11:50:44Z</time>
      </trkpt>
      <trkpt lat="38.394568" lon="-1.883343">
        <ele>419.2</ele>
        <time>2022-11-27T11:50:57Z</time>
      </trkpt>
      <trkpt lat="38.394490" lon="-1.883560">
        <ele>419.3</ele>
        <time>2022-11-27T11:51:13Z</time>
      </trkpt>
      <trkpt lat="38.394431" lon="-1.883783">
        <ele>421.2</ele>
        <time>2022-11-27T11:51:28Z</time>
      </trkpt>
      <trkpt lat="38.394330" lon="-1.883983">
        <ele>421.2</ele>
        <time>2022-11-27T11:51:42Z</time>
      </trkpt>
      <trkpt lat="38.394202" lon="-1.884157">
        <ele>421.5</ele>
        <time>2022-11-27T11:51:57Z</time>
      </trkpt>
      <trkpt lat="38.394084" lon="-1.884342">
        <ele>424.0</ele>
        <time>2022-11-27T11:52:11Z</time>
      </trkpt>
      <trkpt lat="38.393965" lon="-1.884516">
        <ele>423.4</ele>
        <time>2022-11-27T11:52:27Z</time>
      </trkpt>
      <trkpt lat="38.393832" lon="-1.884685">
        <ele>422.3</ele>
        <time>2022-11-27T11:52:43Z</time>
      </trkpt>
      <trkpt lat="38.393694" lon="-1.884840">
        <ele>424.3</ele>
        <time>2022-11-27T11:52:56Z</time>
      </trkpt>
      <trkpt lat="38.393529" lon="-1.884932">
        <ele>426.3</ele>
        <time>2022-11-27T11:53:12Z</time>
      </trkpt>
      <trkpt lat="38.393360" lon="-1.885025">
        <ele>425.3</ele>
        <time>2022-11-27T11:53:34Z</time>
      </trkpt>
      <trkpt lat="38.393234" lon="-1.885196">
        <ele>424.3</ele>
        <time>2022-11-27T11:53:48Z</time>
      </trkpt>
      <trkpt lat="38.393131" lon="-1.885391">
        <ele>425.3</ele>
        <time>2022-11-27T11:54:01Z</time>
      </trkpt>
      <trkpt lat="38.392989" lon="-1.885540">
        <ele>424.4</ele>
        <time>2022-11-27T11:54:17Z</time>
      </trkpt>
      <trkpt lat="38.392833" lon="-1.885668">
        <ele>423.3</ele>
        <time>2022-11-27T11:54:31Z</time>
      </trkpt>
      <trkpt lat="38.392684" lon="-1.885805">
        <ele>425.3</ele>
        <time>2022-11-27T11:54:45Z</time>
      </trkpt>
      <trkpt lat="38.392599" lon="-1.886010">
        <ele>426.3</ele>
        <time>2022-11-27T11:55:05Z</time>
      </trkpt>
      <trkpt lat="38.392522" lon="-1.886225">
        <ele>426.3</ele>
        <time>2022-11-27T11:55:21Z</time>
      </trkpt>
      <trkpt lat="38.392442" lon="-1.886440">
        <ele>426.3</ele>
        <time>2022-11-27T11:55:35Z</time>
      </trkpt>
      <trkpt lat="38.392342" lon="-1.886634">
        <ele>427.3</ele>
        <time>2022-11-27T11:55:50Z</time>
      </trkpt>
      <trkpt lat="38.392236" lon="-1.886819">
        <ele>426.3</ele>
        <time>2022-11-27T11:56:03Z</time>
      </trkpt>
      <trkpt lat="38.392135" lon="-1.887013">
        <ele>427.0</ele>
        <time>2022-11-27T11:56:20Z</time>
      </trkpt>
      <trkpt lat="38.392024" lon="-1.887203">
        <ele>428.3</ele>
        <time>2022-11-27T11:56:35Z</time>
      </trkpt>
      <trkpt lat="38.391898" lon="-1.887367">
        <ele>426.3</ele>
        <time>2022-11-27T11:56:48Z</time>
      </trkpt>
      <trkpt lat="38.391749" lon="-1.887500">
        <ele>428.3</ele>
        <time>2022-11-27T11:57:02Z</time>
      </trkpt>
      <trkpt lat="38.391590" lon="-1.887612">
        <ele>427.6</ele>
        <time>2022-11-27T11:57:16Z</time>
      </trkpt>
      <trkpt lat="38.391407" lon="-1.887688">
        <ele>427.3</ele>
        <time>2022-11-27T11:57:31Z</time>
      </trkpt>
      <trkpt lat="38.391244" lon="-1.887787">
        <ele>427.3</ele>
        <time>2022-11-27T11:57:45Z</time>
      </trkpt>
      <trkpt lat="38.391091" lon="-1.887917">
        <ele>430.3</ele>
        <time>2022-11-27T11:57:59Z</time>
      </trkpt>
      <trkpt lat="38.390933" lon="-1.888033">
        <ele>431.3</ele>
        <time>2022-11-27T11:58:13Z</time>
      </trkpt>
      <trkpt lat="38.390756" lon="-1.888100">
        <ele>430.4</ele>
        <time>2022-11-27T11:58:28Z</time>
      </trkpt>
      <trkpt lat="38.390581" lon="-1.888159">
        <ele>430.4</ele>
        <time>2022-11-27T11:58:44Z</time>
      </trkpt>
      <trkpt lat="38.390408" lon="-1.888261">
        <ele>431.3</ele>
        <time>2022-11-27T11:58:59Z</time>
      </trkpt>
      <trkpt lat="38.390246" lon="-1.888367">
        <ele>431.3</ele>
        <time>2022-11-27T11:59:13Z</time>
      </trkpt>
      <trkpt lat="38.390080" lon="-1.888463">
        <ele>432.2</ele>
        <time>2022-11-27T11:59:26Z</time>
      </trkpt>
      <trkpt lat="38.389906" lon="-1.888526">
        <ele>431.3</ele>
        <time>2022-11-27T11:59:42Z</time>
      </trkpt>
      <trkpt lat="38.389737" lon="-1.888631">
        <ele>430.2</ele>
        <time>2022-11-27T11:59:57Z</time>
      </trkpt>
      <trkpt lat="38.389580" lon="-1.888775">
        <ele>432.3</ele>
        <time>2022-11-27T12:00:12Z</time>
      </trkpt>
      <trkpt lat="38.389446" lon="-1.888934">
        <ele>437.2</ele>
        <time>2022-11-27T12:00:27Z</time>
      </trkpt>
      <trkpt lat="38.389340" lon="-1.889121">
        <ele>438.6</ele>
        <time>2022-11-27T12:00:42Z</time>
      </trkpt>
      <trkpt lat="38.389267" lon="-1.889338">
        <ele>440.2</ele>
        <time>2022-11-27T12:00:57Z</time>
      </trkpt>
      <trkpt lat="38.389185" lon="-1.889549">
        <ele>441.0</ele>
        <time>2022-11-27T12:01:12Z</time>
      </trkpt>
      <trkpt lat="38.389062" lon="-1.889721">
        <ele>441.2</ele>
        <time>2022-11-27T12:01:28Z</time>
      </trkpt>
      <trkpt lat="38.388969" lon="-1.889924">
        <ele>439.3</ele>
        <time>2022-11-27T12:01:46Z</time>
      </trkpt>
      <trkpt lat="38.388906" lon="-1.890149">
        <ele>443.3</ele>
        <time>2022-11-27T12:02:39Z</time>
      </trkpt>
      <trkpt lat="38.388840" lon="-1.890363">
        <ele>445.3</ele>
        <time>2022-11-27T12:02:52Z</time>
      </trkpt>
      <trkpt lat="38.388764" lon="-1.890579">
        <ele>445.5</ele>
        <time>2022-11-27T12:03:08Z</time>
      </trkpt>
      <trkpt lat="38.388685" lon="-1.890787">
        <ele>447.2</ele>
        <time>2022-11-27T12:03:24Z</time>
      </trkpt>
      <trkpt lat="38.388614" lon="-1.891007">
        <ele>451.3</ele>
        <time>2022-11-27T12:03:38Z</time>
      </trkpt>
      <trkpt lat="38.388550" lon="-1.891222">
        <ele>451.2</ele>
        <time>2022-11-27T12:03:53Z</time>
      </trkpt>
      <trkpt lat="38.388445" lon="-1.891409">
        <ele>452.3</ele>
        <time>2022-11-27T12:04:08Z</time>
      </trkpt>
      <trkpt lat="38.388319" lon="-1.891578">
        <ele>452.3</ele>
        <time>2022-11-27T12:04:23Z</time>
      </trkpt>
      <trkpt lat="38.388189" lon="-1.891744">
        <ele>452.3</ele>
        <time>2022-11-27T12:04:37Z</time>
      </trkpt>
      <trkpt lat="38.388060" lon="-1.891913">
        <ele>453.2</ele>
        <time>2022-11-27T12:04:52Z</time>
      </trkpt>
      <trkpt lat="38.387947" lon="-1.892091">
        <ele>455.2</ele>
        <time>2022-11-27T12:05:05Z</time>
      </trkpt>
      <trkpt lat="38.387768" lon="-1.892128">
        <ele>452.2</ele>
        <time>2022-11-27T12:05:20Z</time>
      </trkpt>
      <trkpt lat="38.387635" lon="-1.891973">
        <ele>451.0</ele>
        <time>2022-11-27T12:05:34Z</time>
      </trkpt>
      <trkpt lat="38.387476" lon="-1.891836">
        <ele>453.2</ele>
        <time>2022-11-27T12:05:50Z</time>
      </trkpt>
      <trkpt lat="38.387322" lon="-1.891716">
        <ele>452.3</ele>
        <time>2022-11-27T12:06:04Z</time>
      </trkpt>
      <trkpt lat="38.387158" lon="-1.891609">
        <ele>451.2</ele>
        <time>2022-11-27T12:06:22Z</time>
      </trkpt>
      <trkpt lat="38.386971" lon="-1.891608">
        <ele>449.5</ele>
        <time>2022-11-27T12:06:36Z</time>
      </trkpt>
      <trkpt lat="38.386777" lon="-1.891616">
        <ele>450.2</ele>
        <time>2022-11-27T12:06:51Z</time>
      </trkpt>
      <trkpt lat="38.386592" lon="-1.891617">
        <ele>449.3</ele>
        <time>2022-11-27T12:07:05Z</time>
      </trkpt>
      <trkpt lat="38.386415" lon="-1.891661">
        <ele>449.2</ele>
        <time>2022-11-27T12:07:18Z</time>
      </trkpt>
      <trkpt lat="38.386235" lon="-1.891698">
        <ele>452.0</ele>
        <time>2022-11-27T12:07:34Z</time>
      </trkpt>
      <trkpt lat="38.386058" lon="-1.891764">
        <ele>453.3</ele>
        <time>2022-11-27T12:07:47Z</time>
      </trkpt>
      <trkpt lat="38.385925" lon="-1.891928">
        <ele>451.3</ele>
        <time>2022-11-27T12:08:03Z</time>
      </trkpt>
      <trkpt lat="38.385811" lon="-1.892114">
        <ele>451.2</ele>
        <time>2022-11-27T12:08:18Z</time>
      </trkpt>
      <trkpt lat="38.385734" lon="-1.892324">
        <ele>449.2</ele>
        <time>2022-11-27T12:08:34Z</time>
      </trkpt>
      <trkpt lat="38.385669" lon="-1.892541">
        <ele>448.2</ele>
        <time>2022-11-27T12:08:49Z</time>
      </trkpt>
      <trkpt lat="38.385615" lon="-1.892763">
        <ele>447.3</ele>
        <time>2022-11-27T12:09:04Z</time>
      </trkpt>
      <trkpt lat="38.385528" lon="-1.892965">
        <ele>450.5</ele>
        <time>2022-11-27T12:09:19Z</time>
      </trkpt>
      <trkpt lat="38.385471" lon="-1.893189">
        <ele>453.5</ele>
        <time>2022-11-27T12:09:34Z</time>
      </trkpt>
      <trkpt lat="38.385404" lon="-1.893419">
        <ele>453.0</ele>
        <time>2022-11-27T12:09:51Z</time>
      </trkpt>
      <trkpt lat="38.385361" lon="-1.893650">
        <ele>452.3</ele>
        <time>2022-11-27T12:10:06Z</time>
      </trkpt>
      <trkpt lat="38.385215" lon="-1.893797">
        <ele>450.2</ele>
        <time>2022-11-27T12:10:27Z</time>
      </trkpt>
      <trkpt lat="38.385038" lon="-1.893754">
        <ele>454.3</ele>
        <time>2022-11-27T12:11:39Z</time>
      </trkpt>
      <trkpt lat="38.384870" lon="-1.893668">
        <ele>451.3</ele>
        <time>2022-11-27T12:11:51Z</time>
      </trkpt>
      <trkpt lat="38.384693" lon="-1.893621">
        <ele>450.1</ele>
        <time>2022-11-27T12:12:04Z</time>
      </trkpt>
      <trkpt lat="38.384508" lon="-1.893594">
        <ele>449.2</ele>
        <time>2022-11-27T12:12:20Z</time>
      </trkpt>
      <trkpt lat="38.384320" lon="-1.893533">
        <ele>447.5</ele>
        <time>2022-11-27T12:12:36Z</time>
      </trkpt>
      <trkpt lat="38.384153" lon="-1.893429">
        <ele>447.2</ele>
        <time>2022-11-27T12:12:50Z</time>
      </trkpt>
      <trkpt lat="38.383991" lon="-1.893294">
        <ele>446.5</ele>
        <time>2022-11-27T12:13:06Z</time>
      </trkpt>
      <trkpt lat="38.383824" lon="-1.893195">
        <ele>445.2</ele>
        <time>2022-11-27T12:13:20Z</time>
      </trkpt>
      <trkpt lat="38.383679" lon="-1.893057">
        <ele>444.2</ele>
        <time>2022-11-27T12:13:35Z</time>
      </trkpt>
      <trkpt lat="38.383502" lon="-1.892990">
        <ele>444.2</ele>
        <time>2022-11-27T12:13:51Z</time>
      </trkpt>
      <trkpt lat="38.383343" lon="-1.892876">
        <ele>444.5</ele>
        <time>2022-11-27T12:14:06Z</time>
      </trkpt>
      <trkpt lat="38.383202" lon="-1.892715">
        <ele>443.2</ele>
        <time>2022-11-27T12:14:23Z</time>
      </trkpt>
      <trkpt lat="38.383032" lon="-1.892639">
        <ele>444.5</ele>
        <time>2022-11-27T12:15:18Z</time>
      </trkpt>
      <trkpt lat="38.382846" lon="-1.892639">
        <ele>440.2</ele>
        <time>2022-11-27T12:15:33Z</time>
      </trkpt>
      <trkpt lat="38.382666" lon="-1.892620">
        <ele>434.2</ele>
        <time>2022-11-27T12:15:48Z</time>
      </trkpt>
      <trkpt lat="38.382482" lon="-1.892608">
        <ele>435.2</ele>
        <time>2022-11-27T12:16:05Z</time>
      </trkpt>
      <trkpt lat="38.382313" lon="-1.892705">
        <ele>434.5</ele>
        <time>2022-11-27T12:16:20Z</time>
      </trkpt>
      <trkpt lat="38.382255" lon="-1.892928">
        <ele>431.2</ele>
        <time>2022-11-27T12:16:33Z</time>
      </trkpt>
      <trkpt lat="38.382200" lon="-1.893148">
        <ele>429.2</ele>
        <time>2022-11-27T12:17:06Z</time>
      </trkpt>
      <trkpt lat="38.382026" lon="-1.893212">
        <ele>429.2</ele>
        <time>2022-11-27T12:17:22Z</time>
      </trkpt>
      <trkpt lat="38.381847" lon="-1.893255">
        <ele>433.1</ele>
        <time>2022-11-27T12:17:51Z</time>
      </trkpt>
      <trkpt lat="38.381667" lon="-1.893282">
        <ele>430.5</ele>
        <time>2022-11-27T12:18:07Z</time>
      </trkpt>
      <trkpt lat="38.381481" lon="-1.893283">
        <ele>435.2</ele>
        <time>2022-11-27T12:18:24Z</time>
      </trkpt>
      <trkpt lat="38.381300" lon="-1.893275">
        <ele>439.2</ele>
        <time>2022-11-27T12:18:39Z</time>
      </trkpt>
      <trkpt lat="38.381113" lon="-1.893290">
        <ele>441.2</ele>
        <time>2022-11-27T12:18:57Z</time>
      </trkpt>
      <trkpt lat="38.380930" lon="-1.893320">
        <ele>444.1</ele>
        <time>2022-11-27T12:19:15Z</time>
      </trkpt>
      <trkpt lat="38.380756" lon="-1.893383">
        <ele>444.2</ele>
        <time>2022-11-27T12:19:32Z</time>
      </trkpt>
      <trkpt lat="38.380579" lon="-1.893445">
        <ele>445.2</ele>
        <time>2022-11-27T12:19:52Z</time>
      </trkpt>
      <trkpt lat="38.380443" lon="-1.893600">
        <ele>443.2</ele>
        <time>2022-11-27T12:20:10Z</time>
      </trkpt>
      <trkpt lat="38.380383" lon="-1.893823">
        <ele>446.2</ele>
        <time>2022-11-27T12:20:27Z</time>
      </trkpt>
      <trkpt lat="38.380315" lon="-1.894038">
        <ele>447.2</ele>
        <time>2022-11-27T12:20:43Z</time>
      </trkpt>
      <trkpt lat="38.380176" lon="-1.894191">
        <ele>447.2</ele>
        <time>2022-11-27T12:20:58Z</time>
      </trkpt>
      <trkpt lat="38.380026" lon="-1.894319">
        <ele>448.2</ele>
        <time>2022-11-27T12:21:11Z</time>
      </trkpt>
      <trkpt lat="38.379852" lon="-1.894411">
        <ele>450.0</ele>
        <time>2022-11-27T12:21:29Z</time>
      </trkpt>
      <trkpt lat="38.379714" lon="-1.894562">
        <ele>450.9</ele>
        <time>2022-11-27T12:21:46Z</time>
      </trkpt>
      <trkpt lat="38.379579" lon="-1.894728">
        <ele>452.3</ele>
        <time>2022-11-27T12:22:02Z</time>
      </trkpt>
      <trkpt lat="38.379429" lon="-1.894869">
        <ele>452.2</ele>
        <time>2022-11-27T12:22:16Z</time>
      </trkpt>
      <trkpt lat="38.379281" lon="-1.895013">
        <ele>453.2</ele>
        <time>2022-11-27T12:22:31Z</time>
      </trkpt>
      <trkpt lat="38.379115" lon="-1.895133">
        <ele>455.2</ele>
        <time>2022-11-27T12:22:48Z</time>
      </trkpt>
      <trkpt lat="38.378977" lon="-1.895284">
        <ele>456.2</ele>
        <time>2022-11-27T12:23:04Z</time>
      </trkpt>
      <trkpt lat="38.378838" lon="-1.895447">
        <ele>459.2</ele>
        <time>2022-11-27T12:23:20Z</time>
      </trkpt>
      <trkpt lat="38.378720" lon="-1.895620">
        <ele>459.2</ele>
        <time>2022-11-27T12:23:38Z</time>
      </trkpt>
      <trkpt lat="38.378575" lon="-1.895766">
        <ele>461.5</ele>
        <time>2022-11-27T12:23:54Z</time>
      </trkpt>
      <trkpt lat="38.378398" lon="-1.895827">
        <ele>465.2</ele>
        <time>2022-11-27T12:24:10Z</time>
      </trkpt>
      <trkpt lat="38.378217" lon="-1.895864">
        <ele>466.2</ele>
        <time>2022-11-27T12:24:26Z</time>
      </trkpt>
      <trkpt lat="38.378041" lon="-1.895921">
        <ele>465.3</ele>
        <time>2022-11-27T12:24:42Z</time>
      </trkpt>
      <trkpt lat="38.377868" lon="-1.895984">
        <ele>463.2</ele>
        <time>2022-11-27T12:24:55Z</time>
      </trkpt>
      <trkpt lat="38.377700" lon="-1.896082">
        <ele>464.2</ele>
        <time>2022-11-27T12:25:12Z</time>
      </trkpt>
      <trkpt lat="38.377546" lon="-1.896218">
        <ele>463.9</ele>
        <time>2022-11-27T12:25:28Z</time>
      </trkpt>
      <trkpt lat="38.377405" lon="-1.896374">
        <ele>464.2</ele>
        <time>2022-11-27T12:25:43Z</time>
      </trkpt>
      <trkpt lat="38.377248" lon="-1.896513">
        <ele>465.2</ele>
        <time>2022-11-27T12:25:58Z</time>
      </trkpt>
      <trkpt lat="38.377070" lon="-1.896601">
        <ele>466.2</ele>
        <time>2022-11-27T12:26:12Z</time>
      </trkpt>
      <trkpt lat="38.376899" lon="-1.896693">
        <ele>466.2</ele>
        <time>2022-11-27T12:26:28Z</time>
      </trkpt>
      <trkpt lat="38.376731" lon="-1.896781">
        <ele>468.2</ele>
        <time>2022-11-27T12:26:44Z</time>
      </trkpt>
      <trkpt lat="38.376567" lon="-1.896667">
        <ele>473.2</ele>
        <time>2022-11-27T12:27:56Z</time>
      </trkpt>
      <trkpt lat="38.376456" lon="-1.896471">
        <ele>474.9</ele>
        <time>2022-11-27T12:28:11Z</time>
      </trkpt>
      <trkpt lat="38.376352" lon="-1.896280">
        <ele>476.3</ele>
        <time>2022-11-27T12:28:34Z</time>
      </trkpt>
      <trkpt lat="38.376251" lon="-1.896082">
        <ele>478.2</ele>
        <time>2022-11-27T12:29:22Z</time>
      </trkpt>
      <trkpt lat="38.376170" lon="-1.895870">
        <ele>477.9</ele>
        <time>2022-11-27T12:29:41Z</time>
      </trkpt>
      <trkpt lat="38.376061" lon="-1.895673">
        <ele>477.5</ele>
        <time>2022-11-27T12:29:56Z</time>
      </trkpt>
      <trkpt lat="38.375955" lon="-1.895478">
        <ele>476.2</ele>
        <time>2022-11-27T12:30:11Z</time>
      </trkpt>
      <trkpt lat="38.375870" lon="-1.895275">
        <ele>476.2</ele>
        <time>2022-11-27T12:30:27Z</time>
      </trkpt>
      <trkpt lat="38.375807" lon="-1.895059">
        <ele>479.2</ele>
        <time>2022-11-27T12:30:43Z</time>
      </trkpt>
      <trkpt lat="38.375700" lon="-1.894863">
        <ele>480.2</ele>
        <time>2022-11-27T12:30:58Z</time>
      </trkpt>
      <trkpt lat="38.375633" lon="-1.894644">
        <ele>481.2</ele>
        <time>2022-11-27T12:31:36Z</time>
      </trkpt>
      <trkpt lat="38.375548" lon="-1.894440">
        <ele>479.2</ele>
        <time>2022-11-27T12:32:18Z</time>
      </trkpt>
      <trkpt lat="38.375494" lon="-1.894214">
        <ele>479.2</ele>
        <time>2022-11-27T12:32:46Z</time>
      </trkpt>
      <trkpt lat="38.375453" lon="-1.893989">
        <ele>479.2</ele>
        <time>2022-11-27T12:32:58Z</time>
      </trkpt>
      <trkpt lat="38.375446" lon="-1.893757">
        <ele>480.2</ele>
        <time>2022-11-27T12:33:18Z</time>
      </trkpt>
      <trkpt lat="38.375373" lon="-1.893542">
        <ele>477.5</ele>
        <time>2022-11-27T12:33:32Z</time>
      </trkpt>
      <trkpt lat="38.375352" lon="-1.893305">
        <ele>476.0</ele>
        <time>2022-11-27T12:33:52Z</time>
      </trkpt>
      <trkpt lat="38.375330" lon="-1.893074">
        <ele>475.2</ele>
        <time>2022-11-27T12:34:04Z</time>
      </trkpt>
      <trkpt lat="38.375288" lon="-1.892844">
        <ele>474.2</ele>
        <time>2022-11-27T12:34:18Z</time>
      </trkpt>
      <trkpt lat="38.375234" lon="-1.892622">
        <ele>474.5</ele>
        <time>2022-11-27T12:34:31Z</time>
      </trkpt>
      <trkpt lat="38.375225" lon="-1.892388">
        <ele>473.2</ele>
        <time>2022-11-27T12:35:13Z</time>
      </trkpt>
      <trkpt lat="38.375182" lon="-1.892155">
        <ele>474.2</ele>
        <time>2022-11-27T12:35:25Z</time>
      </trkpt>
      <trkpt lat="38.375149" lon="-1.891924">
        <ele>473.9</ele>
        <time>2022-11-27T12:35:38Z</time>
      </trkpt>
      <trkpt lat="38.375105" lon="-1.891700">
        <ele>475.2</ele>
        <time>2022-11-27T12:35:51Z</time>
      </trkpt>
      <trkpt lat="38.375058" lon="-1.891473">
        <ele>476.2</ele>
        <time>2022-11-27T12:36:04Z</time>
      </trkpt>
      <trkpt lat="38.375032" lon="-1.891242">
        <ele>475.2</ele>
        <time>2022-11-27T12:36:16Z</time>
      </trkpt>
      <trkpt lat="38.374994" lon="-1.891008">
        <ele>476.9</ele>
        <time>2022-11-27T12:36:29Z</time>
      </trkpt>
      <trkpt lat="38.374948" lon="-1.890783">
        <ele>477.2</ele>
        <time>2022-11-27T12:36:41Z</time>
      </trkpt>
      <trkpt lat="38.374917" lon="-1.890549">
        <ele>474.5</ele>
        <time>2022-11-27T12:36:55Z</time>
      </trkpt>
      <trkpt lat="38.374901" lon="-1.890317">
        <ele>471.9</ele>
        <time>2022-11-27T12:37:08Z</time>
      </trkpt>
      <trkpt lat="38.374885" lon="-1.890086">
        <ele>470.2</ele>
        <time>2022-11-27T12:37:21Z</time>
      </trkpt>
      <trkpt lat="38.374847" lon="-1.889858">
        <ele>470.2</ele>
        <time>2022-11-27T12:37:34Z</time>
      </trkpt>
      <trkpt lat="38.374798" lon="-1.889632">
        <ele>470.3</ele>
        <time>2022-11-27T12:37:46Z</time>
      </trkpt>
      <trkpt lat="38.374806" lon="-1.889398">
        <ele>470.2</ele>
        <time>2022-11-27T12:37:58Z</time>
      </trkpt>
      <trkpt lat="38.374788" lon="-1.889169">
        <ele>472.2</ele>
        <time>2022-11-27T12:38:12Z</time>
      </trkpt>
      <trkpt lat="38.374809" lon="-1.888935">
        <ele>472.2</ele>
        <time>2022-11-27T12:38:24Z</time>
      </trkpt>
      <trkpt lat="38.374836" lon="-1.888702">
        <ele>474.1</ele>
        <time>2022-11-27T12:38:37Z</time>
      </trkpt>
      <trkpt lat="38.374839" lon="-1.888463">
        <ele>473.2</ele>
        <time>2022-11-27T12:38:50Z</time>
      </trkpt>
      <trkpt lat="38.374851" lon="-1.888228">
        <ele>471.2</ele>
        <time>2022-11-27T12:39:03Z</time>
      </trkpt>
      <trkpt lat="38.374865" lon="-1.887996">
        <ele>470.2</ele>
        <time>2022-11-27T12:39:16Z</time>
      </trkpt>
      <trkpt lat="38.374860" lon="-1.887763">
        <ele>471.1</ele>
        <time>2022-11-27T12:39:29Z</time>
      </trkpt>
      <trkpt lat="38.374827" lon="-1.887537">
        <ele>471.2</ele>
        <time>2022-11-27T12:39:41Z</time>
      </trkpt>
      <trkpt lat="38.374760" lon="-1.887303">
        <ele>472.2</ele>
        <time>2022-11-27T12:39:55Z</time>
      </trkpt>
      <trkpt lat="38.374790" lon="-1.887058">
        <ele>472.2</ele>
        <time>2022-11-27T12:40:08Z</time>
      </trkpt>
      <trkpt lat="38.374844" lon="-1.886831">
        <ele>474.2</ele>
        <time>2022-11-27T12:40:22Z</time>
      </trkpt>
      <trkpt lat="38.374910" lon="-1.886614">
        <ele>475.2</ele>
        <time>2022-11-27T12:40:33Z</time>
      </trkpt>
      <trkpt lat="38.375010" lon="-1.886421">
        <ele>475.2</ele>
        <time>2022-11-27T12:40:45Z</time>
      </trkpt>
      <trkpt lat="38.375095" lon="-1.886212">
        <ele>476.2</ele>
        <time>2022-11-27T12:40:58Z</time>
      </trkpt>
      <trkpt lat="38.375162" lon="-1.885994">
        <ele>476.5</ele>
        <time>2022-11-27T12:41:11Z</time>
      </trkpt>
      <trkpt lat="38.375197" lon="-1.885768">
        <ele>474.2</ele>
        <time>2022-11-27T12:41:24Z</time>
      </trkpt>
      <trkpt lat="38.375228" lon="-1.885532">
        <ele>473.3</ele>
        <time>2022-11-27T12:41:37Z</time>
      </trkpt>
      <trkpt lat="38.375257" lon="-1.885303">
        <ele>471.3</ele>
        <time>2022-11-27T12:41:50Z</time>
      </trkpt>
      <trkpt lat="38.375284" lon="-1.885069">
        <ele>472.2</ele>
        <time>2022-11-27T12:42:03Z</time>
      </trkpt>
      <trkpt lat="38.375251" lon="-1.884833">
        <ele>471.3</ele>
        <time>2022-11-27T12:42:18Z</time>
      </trkpt>
      <trkpt lat="38.375197" lon="-1.884611">
        <ele>469.6</ele>
        <time>2022-11-27T12:42:30Z</time>
      </trkpt>
      <trkpt lat="38.375152" lon="-1.884383">
        <ele>468.3</ele>
        <time>2022-11-27T12:42:43Z</time>
      </trkpt>
      <trkpt lat="38.375083" lon="-1.884161">
        <ele>467.3</ele>
        <time>2022-11-27T12:43:01Z</time>
      </trkpt>
      <trkpt lat="38.375038" lon="-1.883933">
        <ele>469.0</ele>
        <time>2022-11-27T12:43:14Z</time>
      </trkpt>
      <trkpt lat="38.374963" lon="-1.883707">
        <ele>470.3</ele>
        <time>2022-11-27T12:43:28Z</time>
      </trkpt>
      <trkpt lat="38.374889" lon="-1.883491">
        <ele>468.4</ele>
        <time>2022-11-27T12:43:42Z</time>
      </trkpt>
      <trkpt lat="38.374815" lon="-1.883276">
        <ele>465.6</ele>
        <time>2022-11-27T12:43:58Z</time>
      </trkpt>
      <trkpt lat="38.374724" lon="-1.883073">
        <ele>465.3</ele>
        <time>2022-11-27T12:44:13Z</time>
      </trkpt>
      <trkpt lat="38.374628" lon="-1.882873">
        <ele>464.3</ele>
        <time>2022-11-27T12:44:28Z</time>
      </trkpt>
      <trkpt lat="38.374521" lon="-1.882678">
        <ele>463.4</ele>
        <time>2022-11-27T12:44:42Z</time>
      </trkpt>
      <trkpt lat="38.374405" lon="-1.882502">
        <ele>463.3</ele>
        <time>2022-11-27T12:44:55Z</time>
      </trkpt>
      <trkpt lat="38.374318" lon="-1.882300">
        <ele>459.3</ele>
        <time>2022-11-27T12:45:10Z</time>
      </trkpt>
      <trkpt lat="38.374195" lon="-1.882129">
        <ele>459.3</ele>
        <time>2022-11-27T12:45:23Z</time>
      </trkpt>
      <trkpt lat="38.374052" lon="-1.881985">
        <ele>461.2</ele>
        <time>2022-11-27T12:45:35Z</time>
      </trkpt>
      <trkpt lat="38.373917" lon="-1.881825">
        <ele>463.2</ele>
        <time>2022-11-27T12:45:47Z</time>
      </trkpt>
      <trkpt lat="38.373843" lon="-1.881615">
        <ele>463.3</ele>
        <time>2022-11-27T12:46:01Z</time>
      </trkpt>
      <trkpt lat="38.373821" lon="-1.881387">
        <ele>464.3</ele>
        <time>2022-11-27T12:46:12Z</time>
      </trkpt>
      <trkpt lat="38.373760" lon="-1.881161">
        <ele>466.3</ele>
        <time>2022-11-27T12:46:25Z</time>
      </trkpt>
      <trkpt lat="38.373677" lon="-1.880950">
        <ele>463.3</ele>
        <time>2022-11-27T12:46:40Z</time>
      </trkpt>
      <trkpt lat="38.373586" lon="-1.880751">
        <ele>465.3</ele>
        <time>2022-11-27T12:46:52Z</time>
      </trkpt>
      <trkpt lat="38.373467" lon="-1.880569">
        <ele>467.3</ele>
        <time>2022-11-27T12:47:05Z</time>
      </trkpt>
      <trkpt lat="38.373308" lon="-1.880461">
        <ele>466.3</ele>
        <time>2022-11-27T12:47:37Z</time>
      </trkpt>
      <trkpt lat="38.373143" lon="-1.880361">
        <ele>467.3</ele>
        <time>2022-11-27T12:47:49Z</time>
      </trkpt>
      <trkpt lat="38.372966" lon="-1.880271">
        <ele>468.3</ele>
        <time>2022-11-27T12:48:03Z</time>
      </trkpt>
      <trkpt lat="38.372787" lon="-1.880207">
        <ele>469.3</ele>
        <time>2022-11-27T12:48:16Z</time>
      </trkpt>
      <trkpt lat="38.372605" lon="-1.880154">
        <ele>468.6</ele>
        <time>2022-11-27T12:48:30Z</time>
      </trkpt>
      <trkpt lat="38.372417" lon="-1.880197">
        <ele>468.3</ele>
        <time>2022-11-27T12:48:46Z</time>
      </trkpt>
      <trkpt lat="38.372250" lon="-1.880300">
        <ele>469.3</ele>
        <time>2022-11-27T12:49:03Z</time>
      </trkpt>
      <trkpt lat="38.372085" lon="-1.880419">
        <ele>472.3</ele>
        <time>2022-11-27T12:49:20Z</time>
      </trkpt>
      <trkpt lat="38.371934" lon="-1.880561">
        <ele>474.3</ele>
        <time>2022-11-27T12:49:37Z</time>
      </trkpt>
      <trkpt lat="38.371771" lon="-1.880696">
        <ele>474.3</ele>
        <time>2022-11-27T12:49:54Z</time>
      </trkpt>
      <trkpt lat="38.371626" lon="-1.880836">
        <ele>472.3</ele>
        <time>2022-11-27T12:50:11Z</time>
      </trkpt>
      <trkpt lat="38.371477" lon="-1.880978">
        <ele>472.5</ele>
        <time>2022-11-27T12:50:24Z</time>
      </trkpt>
      <trkpt lat="38.371322" lon="-1.881106">
        <ele>471.3</ele>
        <time>2022-11-27T12:50:39Z</time>
      </trkpt>
      <trkpt lat="38.371158" lon="-1.881239">
        <ele>471.6</ele>
        <time>2022-11-27T12:50:56Z</time>
      </trkpt>
      <trkpt lat="38.371015" lon="-1.881394">
        <ele>470.2</ele>
        <time>2022-11-27T12:51:10Z</time>
      </trkpt>
      <trkpt lat="38.370862" lon="-1.881518">
        <ele>470.2</ele>
        <time>2022-11-27T12:51:26Z</time>
      </trkpt>
      <trkpt lat="38.370701" lon="-1.881635">
        <ele>468.3</ele>
        <time>2022-11-27T12:51:41Z</time>
      </trkpt>
      <trkpt lat="38.370523" lon="-1.881687">
        <ele>465.3</ele>
        <time>2022-11-27T12:51:55Z</time>
      </trkpt>
      <trkpt lat="38.370344" lon="-1.881753">
        <ele>462.6</ele>
        <time>2022-11-27T12:52:14Z</time>
      </trkpt>
      <trkpt lat="38.370179" lon="-1.881848">
        <ele>463.2</ele>
        <time>2022-11-27T12:52:45Z</time>
      </trkpt>
      <trkpt lat="38.370002" lon="-1.881904">
        <ele>464.2</ele>
        <time>2022-11-27T12:53:17Z</time>
      </trkpt>
      <trkpt lat="38.369820" lon="-1.881965">
        <ele>461.2</ele>
        <time>2022-11-27T12:53:30Z</time>
      </trkpt>
      <trkpt lat="38.369643" lon="-1.882035">
        <ele>461.0</ele>
        <time>2022-11-27T12:53:46Z</time>
      </trkpt>
      <trkpt lat="38.369469" lon="-1.882105">
        <ele>462.2</ele>
        <time>2022-11-27T12:54:00Z</time>
      </trkpt>
      <trkpt lat="38.369285" lon="-1.882176">
        <ele>460.3</ele>
        <time>2022-11-27T12:54:18Z</time>
      </trkpt>
      <trkpt lat="38.369103" lon="-1.882254">
        <ele>460.5</ele>
        <time>2022-11-27T12:54:33Z</time>
      </trkpt>
      <trkpt lat="38.368937" lon="-1.882357">
        <ele>459.2</ele>
        <time>2022-11-27T12:54:48Z</time>
      </trkpt>
      <trkpt lat="38.368749" lon="-1.882387">
        <ele>459.2</ele>
        <time>2022-11-27T12:55:02Z</time>
      </trkpt>
      <trkpt lat="38.368570" lon="-1.882459">
        <ele>456.2</ele>
        <time>2022-11-27T12:55:15Z</time>
      </trkpt>
      <trkpt lat="38.368393" lon="-1.882526">
        <ele>454.3</ele>
        <time>2022-11-27T12:55:29Z</time>
      </trkpt>
      <trkpt lat="38.368216" lon="-1.882596">
        <ele>453.2</ele>
        <time>2022-11-27T12:55:43Z</time>
      </trkpt>
      <trkpt lat="38.368031" lon="-1.882643">
        <ele>452.2</ele>
        <time>2022-11-27T12:56:08Z</time>
      </trkpt>
      <trkpt lat="38.367881" lon="-1.882773">
        <ele>447.3</ele>
        <time>2022-11-27T12:56:50Z</time>
      </trkpt>
      <trkpt lat="38.367702" lon="-1.882744">
        <ele>448.3</ele>
        <time>2022-11-27T12:57:38Z</time>
      </trkpt>
      <trkpt lat="38.367517" lon="-1.882779">
        <ele>449.2</ele>
        <time>2022-11-27T12:57:54Z</time>
      </trkpt>
      <trkpt lat="38.367333" lon="-1.882766">
        <ele>452.0</ele>
        <time>2022-11-27T12:58:10Z</time>
      </trkpt>
      <trkpt lat="38.367154" lon="-1.882734">
        <ele>454.2</ele>
        <time>2022-11-27T12:58:25Z</time>
      </trkpt>
      <trkpt lat="38.366981" lon="-1.882658">
        <ele>454.2</ele>
        <time>2022-11-27T12:58:39Z</time>
      </trkpt>
      <trkpt lat="38.366812" lon="-1.882575">
        <ele>456.2</ele>
        <time>2022-11-27T12:58:55Z</time>
      </trkpt>
      <trkpt lat="38.366648" lon="-1.882477">
        <ele>455.2</ele>
        <time>2022-11-27T12:59:10Z</time>
      </trkpt>
      <trkpt lat="38.366476" lon="-1.882400">
        <ele>456.2</ele>
        <time>2022-11-27T12:59:24Z</time>
      </trkpt>
      <trkpt lat="38.366320" lon="-1.882275">
        <ele>455.2</ele>
        <time>2022-11-27T12:59:40Z</time>
      </trkpt>
      <trkpt lat="38.366162" lon="-1.882156">
        <ele>454.2</ele>
        <time>2022-11-27T12:59:56Z</time>
      </trkpt>
      <trkpt lat="38.365981" lon="-1.882107">
        <ele>455.2</ele>
        <time>2022-11-27T13:00:11Z</time>
      </trkpt>
      <trkpt lat="38.365798" lon="-1.882103">
        <ele>456.2</ele>
        <time>2022-11-27T13:00:26Z</time>
      </trkpt>
      <trkpt lat="38.365612" lon="-1.882089">
        <ele>455.2</ele>
        <time>2022-11-27T13:00:41Z</time>
      </trkpt>
      <trkpt lat="38.365434" lon="-1.882010">
        <ele>451.2</ele>
        <time>2022-11-27T13:01:14Z</time>
      </trkpt>
      <trkpt lat="38.365256" lon="-1.881964">
        <ele>450.2</ele>
        <time>2022-11-27T13:01:29Z</time>
      </trkpt>
      <trkpt lat="38.365077" lon="-1.881900">
        <ele>453.2</ele>
        <time>2022-11-27T13:01:43Z</time>
      </trkpt>
      <trkpt lat="38.364899" lon="-1.881850">
        <ele>455.2</ele>
        <time>2022-11-27T13:01:58Z</time>
      </trkpt>
      <trkpt lat="38.364733" lon="-1.881755">
        <ele>454.2</ele>
        <time>2022-11-27T13:02:13Z</time>
      </trkpt>
      <trkpt lat="38.364578" lon="-1.881623">
        <ele>453.2</ele>
        <time>2022-11-27T13:02:28Z</time>
      </trkpt>
      <trkpt lat="38.364441" lon="-1.881463">
        <ele>452.2</ele>
        <time>2022-11-27T13:02:44Z</time>
      </trkpt>
      <trkpt lat="38.364298" lon="-1.881320">
        <ele>449.2</ele>
        <time>2022-11-27T13:03:00Z</time>
      </trkpt>
      <trkpt lat="38.364155" lon="-1.881167">
        <ele>448.2</ele>
        <time>2022-11-27T13:03:15Z</time>
      </trkpt>
      <trkpt lat="38.364021" lon="-1.881012">
        <ele>447.3</ele>
        <time>2022-11-27T13:03:30Z</time>
      </trkpt>
      <trkpt lat="38.363869" lon="-1.880884">
        <ele>448.2</ele>
        <time>2022-11-27T13:03:43Z</time>
      </trkpt>
      <trkpt lat="38.363712" lon="-1.880753">
        <ele>446.2</ele>
        <time>2022-11-27T13:03:59Z</time>
      </trkpt>
      <trkpt lat="38.363550" lon="-1.880655">
        <ele>443.5</ele>
        <time>2022-11-27T13:05:08Z</time>
      </trkpt>
      <trkpt lat="38.363371" lon="-1.880606">
        <ele>444.2</ele>
        <time>2022-11-27T13:05:20Z</time>
      </trkpt>
      <trkpt lat="38.363185" lon="-1.880570">
        <ele>447.2</ele>
        <time>2022-11-27T13:05:33Z</time>
      </trkpt>
      <trkpt lat="38.363007" lon="-1.880532">
        <ele>446.2</ele>
        <time>2022-11-27T13:05:49Z</time>
      </trkpt>
      <trkpt lat="38.362824" lon="-1.880505">
        <ele>446.2</ele>
        <time>2022-11-27T13:06:04Z</time>
      </trkpt>
      <trkpt lat="38.362641" lon="-1.880508">
        <ele>447.2</ele>
        <time>2022-11-27T13:06:19Z</time>
      </trkpt>
      <trkpt lat="38.362460" lon="-1.880536">
        <ele>446.3</ele>
        <time>2022-11-27T13:06:34Z</time>
      </trkpt>
      <trkpt lat="38.362280" lon="-1.880546">
        <ele>445.2</ele>
        <time>2022-11-27T13:06:49Z</time>
      </trkpt>
      <trkpt lat="38.362101" lon="-1.880584">
        <ele>444.2</ele>
        <time>2022-11-27T13:07:05Z</time>
      </trkpt>
      <trkpt lat="38.361919" lon="-1.880628">
        <ele>446.2</ele>
        <time>2022-11-27T13:07:21Z</time>
      </trkpt>
      <trkpt lat="38.361735" lon="-1.880636">
        <ele>447.2</ele>
        <time>2022-11-27T13:07:38Z</time>
      </trkpt>
      <trkpt lat="38.361556" lon="-1.880670">
        <ele>449.1</ele>
        <time>2022-11-27T13:07:54Z</time>
      </trkpt>
      <trkpt lat="38.361377" lon="-1.880711">
        <ele>450.2</ele>
        <time>2022-11-27T13:08:09Z</time>
      </trkpt>
      <trkpt lat="38.361196" lon="-1.880734">
        <ele>451.2</ele>
        <time>2022-11-27T13:08:26Z</time>
      </trkpt>
      <trkpt lat="38.361012" lon="-1.880755">
        <ele>450.2</ele>
        <time>2022-11-27T13:08:47Z</time>
      </trkpt>
      <trkpt lat="38.360833" lon="-1.880798">
        <ele>451.1</ele>
        <time>2022-11-27T13:09:08Z</time>
      </trkpt>
      <trkpt lat="38.360653" lon="-1.880817">
        <ele>452.2</ele>
        <time>2022-11-27T13:09:21Z</time>
      </trkpt>
      <trkpt lat="38.360468" lon="-1.880804">
        <ele>452.2</ele>
        <time>2022-11-27T13:09:37Z</time>
      </trkpt>
      <trkpt lat="38.360294" lon="-1.880879">
        <ele>455.2</ele>
        <time>2022-11-27T13:09:51Z</time>
      </trkpt>
      <trkpt lat="38.360113" lon="-1.880843">
        <ele>458.2</ele>
        <time>2022-11-27T13:10:13Z</time>
      </trkpt>
      <trkpt lat="38.359939" lon="-1.880905">
        <ele>457.2</ele>
        <time>2022-11-27T13:10:29Z</time>
      </trkpt>
      <trkpt lat="38.359750" lon="-1.880916">
        <ele>457.2</ele>
        <time>2022-11-27T13:11:59Z</time>
      </trkpt>
      <trkpt lat="38.359575" lon="-1.880989">
        <ele>458.2</ele>
        <time>2022-11-27T13:12:15Z</time>
      </trkpt>
      <trkpt lat="38.359499" lon="-1.880994">
        <ele>462.4</ele>
        <time>2023-02-18T07:15:08Z</time>
      </trkpt>
      <trkpt lat="38.359539" lon="-1.880900">
        <ele>462.3</ele>
        <time>2023-02-18T07:15:14Z</time>
      </trkpt>
      <trkpt lat="38.359575" lon="-1.880815">
        <ele>461.5</ele>
        <time>2023-02-18T07:15:19Z</time>
      </trkpt>
      <trkpt lat="38.359620" lon="-1.880740">
        <ele>461.2</ele>
        <time>2023-02-18T07:15:25Z</time>
      </trkpt>
      <trkpt lat="38.359650" lon="-1.880660">
        <ele>460.5</ele>
        <time>2023-02-18T07:15:30Z</time>
      </trkpt>
      <trkpt lat="38.359691" lon="-1.880585">
        <ele>460.3</ele>
        <time>2023-02-18T07:15:35Z</time>
      </trkpt>
      <trkpt lat="38.359738" lon="-1.880524">
        <ele>460.2</ele>
        <time>2023-02-18T07:15:40Z</time>
      </trkpt>
      <trkpt lat="38.359779" lon="-1.880456">
        <ele>459.3</ele>
        <time>2023-02-18T07:15:45Z</time>
      </trkpt>
      <trkpt lat="38.359818" lon="-1.880386">
        <ele>459.3</ele>
        <time>2023-02-18T07:15:50Z</time>
      </trkpt>
      <trkpt lat="38.359869" lon="-1.880325">
        <ele>459.3</ele>
        <time>2023-02-18T07:15:56Z</time>
      </trkpt>
      <trkpt lat="38.359914" lon="-1.880258">
        <ele>458.5</ele>
        <time>2023-02-18T07:16:01Z</time>
      </trkpt>
      <trkpt lat="38.359963" lon="-1.880182">
        <ele>458.3</ele>
        <time>2023-02-18T07:16:06Z</time>
      </trkpt>
      <trkpt lat="38.360005" lon="-1.880111">
        <ele>457.3</ele>
        <time>2023-02-18T07:16:13Z</time>
      </trkpt>
      <trkpt lat="38.360056" lon="-1.880050">
        <ele>456.3</ele>
        <time>2023-02-18T07:16:18Z</time>
      </trkpt>
      <trkpt lat="38.360105" lon="-1.879998">
        <ele>454.3</ele>
        <time>2023-02-18T07:16:23Z</time>
      </trkpt>
      <trkpt lat="38.360148" lon="-1.879938">
        <ele>454.2</ele>
        <time>2023-02-18T07:16:28Z</time>
      </trkpt>
      <trkpt lat="38.360192" lon="-1.879877">
        <ele>453.3</ele>
        <time>2023-02-18T07:16:33Z</time>
      </trkpt>
      <trkpt lat="38.360232" lon="-1.879808">
        <ele>452.3</ele>
        <time>2023-02-18T07:16:38Z</time>
      </trkpt>
      <trkpt lat="38.360283" lon="-1.879738">
        <ele>452.3</ele>
        <time>2023-02-18T07:16:43Z</time>
      </trkpt>
      <trkpt lat="38.360323" lon="-1.879672">
        <ele>452.3</ele>
        <time>2023-02-18T07:16:48Z</time>
      </trkpt>
      <trkpt lat="38.360368" lon="-1.879611">
        <ele>452.3</ele>
        <time>2023-02-18T07:16:53Z</time>
      </trkpt>
      <trkpt lat="38.360407" lon="-1.879542">
        <ele>451.5</ele>
        <time>2023-02-18T07:16:58Z</time>
      </trkpt>
      <trkpt lat="38.360450" lon="-1.879461">
        <ele>450.3</ele>
        <time>2023-02-18T07:17:03Z</time>
      </trkpt>
      <trkpt lat="38.360476" lon="-1.879378">
        <ele>451.0</ele>
        <time>2023-02-18T07:17:08Z</time>
      </trkpt>
      <trkpt lat="38.360499" lon="-1.879303">
        <ele>450.3</ele>
        <time>2023-02-18T07:17:13Z</time>
      </trkpt>
      <trkpt lat="38.360503" lon="-1.879222">
        <ele>450.3</ele>
        <time>2023-02-18T07:17:17Z</time>
      </trkpt>
      <trkpt lat="38.360492" lon="-1.879122">
        <ele>450.2</ele>
        <time>2023-02-18T07:17:22Z</time>
      </trkpt>
      <trkpt lat="38.360484" lon="-1.879028">
        <ele>449.3</ele>
        <time>2023-02-18T07:17:27Z</time>
      </trkpt>
      <trkpt lat="38.360474" lon="-1.878938">
        <ele>449.3</ele>
        <time>2023-02-18T07:17:31Z</time>
      </trkpt>
      <trkpt lat="38.360462" lon="-1.878858">
        <ele>449.3</ele>
        <time>2023-02-18T07:17:36Z</time>
      </trkpt>
      <trkpt lat="38.360450" lon="-1.878766">
        <ele>449.3</ele>
        <time>2023-02-18T07:17:42Z</time>
      </trkpt>
      <trkpt lat="38.360424" lon="-1.878688">
        <ele>447.3</ele>
        <time>2023-02-18T07:17:47Z</time>
      </trkpt>
      <trkpt lat="38.360393" lon="-1.878614">
        <ele>445.5</ele>
        <time>2023-02-18T07:17:52Z</time>
      </trkpt>
      <trkpt lat="38.360335" lon="-1.878562">
        <ele>443.3</ele>
        <time>2023-02-18T07:17:59Z</time>
      </trkpt>
      <trkpt lat="38.360273" lon="-1.878546">
        <ele>442.5</ele>
        <time>2023-02-18T07:18:04Z</time>
      </trkpt>
      <trkpt lat="38.360206" lon="-1.878543">
        <ele>442.3</ele>
        <time>2023-02-18T07:18:09Z</time>
      </trkpt>
      <trkpt lat="38.360139" lon="-1.878531">
        <ele>441.3</ele>
        <time>2023-02-18T07:18:14Z</time>
      </trkpt>
      <trkpt lat="38.360067" lon="-1.878513">
        <ele>441.3</ele>
        <time>2023-02-18T07:18:20Z</time>
      </trkpt>
      <trkpt lat="38.359995" lon="-1.878495">
        <ele>440.3</ele>
        <time>2023-02-18T07:18:30Z</time>
      </trkpt>
      <trkpt lat="38.359924" lon="-1.878470">
        <ele>437.4</ele>
        <time>2023-02-18T07:18:35Z</time>
      </trkpt>
      <trkpt lat="38.359855" lon="-1.878448">
        <ele>435.4</ele>
        <time>2023-02-18T07:18:39Z</time>
      </trkpt>
      <trkpt lat="38.359785" lon="-1.878427">
        <ele>436.3</ele>
        <time>2023-02-18T07:18:44Z</time>
      </trkpt>
      <trkpt lat="38.359726" lon="-1.878397">
        <ele>436.5</ele>
        <time>2023-02-18T07:18:49Z</time>
      </trkpt>
      <trkpt lat="38.359652" lon="-1.878378">
        <ele>436.3</ele>
        <time>2023-02-18T07:19:11Z</time>
      </trkpt>
      <trkpt lat="38.359594" lon="-1.878339">
        <ele>436.3</ele>
        <time>2023-02-18T07:19:16Z</time>
      </trkpt>
      <trkpt lat="38.359531" lon="-1.878304">
        <ele>435.3</ele>
        <time>2023-02-18T07:19:21Z</time>
      </trkpt>
      <trkpt lat="38.359463" lon="-1.878271">
        <ele>432.4</ele>
        <time>2023-02-18T07:19:26Z</time>
      </trkpt>
      <trkpt lat="38.359391" lon="-1.878250">
        <ele>433.2</ele>
        <time>2023-02-18T07:19:31Z</time>
      </trkpt>
      <trkpt lat="38.359318" lon="-1.878241">
        <ele>432.3</ele>
        <time>2023-02-18T07:19:37Z</time>
      </trkpt>
      <trkpt lat="38.359244" lon="-1.878219">
        <ele>432.3</ele>
        <time>2023-02-18T07:19:43Z</time>
      </trkpt>
      <trkpt lat="38.359183" lon="-1.878186">
        <ele>431.5</ele>
        <time>2023-02-18T07:19:49Z</time>
      </trkpt>
      <trkpt lat="38.359118" lon="-1.878153">
        <ele>431.4</ele>
        <time>2023-02-18T07:19:54Z</time>
      </trkpt>
      <trkpt lat="38.359051" lon="-1.878140">
        <ele>430.3</ele>
        <time>2023-02-18T07:19:59Z</time>
      </trkpt>
      <trkpt lat="38.358980" lon="-1.878121">
        <ele>430.3</ele>
        <time>2023-02-18T07:20:05Z</time>
      </trkpt>
      <trkpt lat="38.358910" lon="-1.878110">
        <ele>431.0</ele>
        <time>2023-02-18T07:20:10Z</time>
      </trkpt>
      <trkpt lat="38.358844" lon="-1.878092">
        <ele>432.3</ele>
        <time>2023-02-18T07:20:15Z</time>
      </trkpt>
      <trkpt lat="38.358778" lon="-1.878063">
        <ele>433.3</ele>
        <time>2023-02-18T07:20:21Z</time>
      </trkpt>
      <trkpt lat="38.358711" lon="-1.878025">
        <ele>433.3</ele>
        <time>2023-02-18T07:20:28Z</time>
      </trkpt>
      <trkpt lat="38.358650" lon="-1.877973">
        <ele>433.3</ele>
        <time>2023-02-18T07:20:34Z</time>
      </trkpt>
      <trkpt lat="38.358586" lon="-1.877931">
        <ele>433.3</ele>
        <time>2023-02-18T07:20:40Z</time>
      </trkpt>
      <trkpt lat="38.358521" lon="-1.877888">
        <ele>434.3</ele>
        <time>2023-02-18T07:20:46Z</time>
      </trkpt>
      <trkpt lat="38.358451" lon="-1.877853">
        <ele>434.3</ele>
        <time>2023-02-18T07:20:53Z</time>
      </trkpt>
      <trkpt lat="38.358384" lon="-1.877821">
        <ele>435.3</ele>
        <time>2023-02-18T07:20:58Z</time>
      </trkpt>
      <trkpt lat="38.358320" lon="-1.877787">
        <ele>435.3</ele>
        <time>2023-02-18T07:21:03Z</time>
      </trkpt>
      <trkpt lat="38.358257" lon="-1.877773">
        <ele>436.0</ele>
        <time>2023-02-18T07:21:07Z</time>
      </trkpt>
      <trkpt lat="38.358192" lon="-1.877766">
        <ele>437.2</ele>
        <time>2023-02-18T07:21:11Z</time>
      </trkpt>
      <trkpt lat="38.358125" lon="-1.877746">
        <ele>439.2</ele>
        <time>2023-02-18T07:21:15Z</time>
      </trkpt>
      <trkpt lat="38.358060" lon="-1.877728">
        <ele>441.0</ele>
        <time>2023-02-18T07:21:19Z</time>
      </trkpt>
      <trkpt lat="38.357991" lon="-1.877698">
        <ele>443.2</ele>
        <time>2023-02-18T07:21:23Z</time>
      </trkpt>
      <trkpt lat="38.357911" lon="-1.877665">
        <ele>444.3</ele>
        <time>2023-02-18T07:21:28Z</time>
      </trkpt>
      <trkpt lat="38.357851" lon="-1.877637">
        <ele>443.4</ele>
        <time>2023-02-18T07:21:33Z</time>
      </trkpt>
      <trkpt lat="38.357784" lon="-1.877607">
        <ele>444.3</ele>
        <time>2023-02-18T07:21:39Z</time>
      </trkpt>
      <trkpt lat="38.357720" lon="-1.877583">
        <ele>445.2</ele>
        <time>2023-02-18T07:21:43Z</time>
      </trkpt>
      <trkpt lat="38.357656" lon="-1.877567">
        <ele>445.3</ele>
        <time>2023-02-18T07:21:48Z</time>
      </trkpt>
      <trkpt lat="38.357590" lon="-1.877535">
        <ele>446.3</ele>
        <time>2023-02-18T07:21:53Z</time>
      </trkpt>
      <trkpt lat="38.357519" lon="-1.877511">
        <ele>447.3</ele>
        <time>2023-02-18T07:21:58Z</time>
      </trkpt>
      <trkpt lat="38.357457" lon="-1.877491">
        <ele>448.3</ele>
        <time>2023-02-18T07:22:03Z</time>
      </trkpt>
      <trkpt lat="38.357395" lon="-1.877453">
        <ele>448.3</ele>
        <time>2023-02-18T07:22:08Z</time>
      </trkpt>
      <trkpt lat="38.357315" lon="-1.877430">
        <ele>449.3</ele>
        <time>2023-02-18T07:22:13Z</time>
      </trkpt>
      <trkpt lat="38.357254" lon="-1.877402">
        <ele>450.2</ele>
        <time>2023-02-18T07:22:19Z</time>
      </trkpt>
      <trkpt lat="38.357193" lon="-1.877382">
        <ele>450.3</ele>
        <time>2023-02-18T07:22:23Z</time>
      </trkpt>
      <trkpt lat="38.357129" lon="-1.877360">
        <ele>451.3</ele>
        <time>2023-02-18T07:22:28Z</time>
      </trkpt>
      <trkpt lat="38.357061" lon="-1.877346">
        <ele>450.4</ele>
        <time>2023-02-18T07:22:33Z</time>
      </trkpt>
      <trkpt lat="38.356987" lon="-1.877329">
        <ele>450.3</ele>
        <time>2023-02-18T07:22:38Z</time>
      </trkpt>
      <trkpt lat="38.356926" lon="-1.877304">
        <ele>452.2</ele>
        <time>2023-02-18T07:22:43Z</time>
      </trkpt>
      <trkpt lat="38.356854" lon="-1.877275">
        <ele>452.3</ele>
        <time>2023-02-18T07:22:50Z</time>
      </trkpt>
      <trkpt lat="38.356784" lon="-1.877247">
        <ele>453.2</ele>
        <time>2023-02-18T07:22:56Z</time>
      </trkpt>
      <trkpt lat="38.356719" lon="-1.877216">
        <ele>452.3</ele>
        <time>2023-02-18T07:23:01Z</time>
      </trkpt>
      <trkpt lat="38.356656" lon="-1.877192">
        <ele>453.3</ele>
        <time>2023-02-18T07:23:06Z</time>
      </trkpt>
      <trkpt lat="38.356587" lon="-1.877159">
        <ele>454.3</ele>
        <time>2023-02-18T07:23:11Z</time>
      </trkpt>
      <trkpt lat="38.356523" lon="-1.877133">
        <ele>454.1</ele>
        <time>2023-02-18T07:23:16Z</time>
      </trkpt>
      <trkpt lat="38.356460" lon="-1.877117">
        <ele>454.3</ele>
        <time>2023-02-18T07:23:21Z</time>
      </trkpt>
      <trkpt lat="38.356388" lon="-1.877103">
        <ele>454.3</ele>
        <time>2023-02-18T07:23:26Z</time>
      </trkpt>
      <trkpt lat="38.356325" lon="-1.877079">
        <ele>455.3</ele>
        <time>2023-02-18T07:23:31Z</time>
      </trkpt>
      <trkpt lat="38.356260" lon="-1.877054">
        <ele>456.1</ele>
        <time>2023-02-18T07:23:36Z</time>
      </trkpt>
      <trkpt lat="38.356192" lon="-1.877025">
        <ele>456.3</ele>
        <time>2023-02-18T07:23:42Z</time>
      </trkpt>
      <trkpt lat="38.356127" lon="-1.877002">
        <ele>454.6</ele>
        <time>2023-02-18T07:23:47Z</time>
      </trkpt>
      <trkpt lat="38.356055" lon="-1.876979">
        <ele>454.5</ele>
        <time>2023-02-18T07:23:53Z</time>
      </trkpt>
      <trkpt lat="38.355990" lon="-1.876956">
        <ele>453.4</ele>
        <time>2023-02-18T07:23:59Z</time>
      </trkpt>
      <trkpt lat="38.355921" lon="-1.876943">
        <ele>454.2</ele>
        <time>2023-02-18T07:24:05Z</time>
      </trkpt>
      <trkpt lat="38.355852" lon="-1.876933">
        <ele>455.3</ele>
        <time>2023-02-18T07:24:10Z</time>
      </trkpt>
      <trkpt lat="38.355788" lon="-1.876909">
        <ele>454.3</ele>
        <time>2023-02-18T07:24:15Z</time>
      </trkpt>
      <trkpt lat="38.355722" lon="-1.876889">
        <ele>455.3</ele>
        <time>2023-02-18T07:24:20Z</time>
      </trkpt>
      <trkpt lat="38.355658" lon="-1.876861">
        <ele>454.4</ele>
        <time>2023-02-18T07:24:26Z</time>
      </trkpt>
      <trkpt lat="38.355590" lon="-1.876832">
        <ele>455.3</ele>
        <time>2023-02-18T07:24:31Z</time>
      </trkpt>
      <trkpt lat="38.355528" lon="-1.876806">
        <ele>455.3</ele>
        <time>2023-02-18T07:24:36Z</time>
      </trkpt>
      <trkpt lat="38.355462" lon="-1.876779">
        <ele>456.2</ele>
        <time>2023-02-18T07:24:41Z</time>
      </trkpt>
      <trkpt lat="38.355397" lon="-1.876758">
        <ele>456.3</ele>
        <time>2023-02-18T07:24:46Z</time>
      </trkpt>
      <trkpt lat="38.355329" lon="-1.876706">
        <ele>456.3</ele>
        <time>2023-02-18T07:24:51Z</time>
      </trkpt>
      <trkpt lat="38.355277" lon="-1.876647">
        <ele>457.1</ele>
        <time>2023-02-18T07:24:56Z</time>
      </trkpt>
      <trkpt lat="38.355238" lon="-1.876577">
        <ele>458.1</ele>
        <time>2023-02-18T07:25:01Z</time>
      </trkpt>
      <trkpt lat="38.355219" lon="-1.876493">
        <ele>458.3</ele>
        <time>2023-02-18T07:25:06Z</time>
      </trkpt>
      <trkpt lat="38.355209" lon="-1.876407">
        <ele>460.1</ele>
        <time>2023-02-18T07:25:11Z</time>
      </trkpt>
      <trkpt lat="38.355198" lon="-1.876323">
        <ele>461.1</ele>
        <time>2023-02-18T07:25:16Z</time>
      </trkpt>
      <trkpt lat="38.355185" lon="-1.876239">
        <ele>461.3</ele>
        <time>2023-02-18T07:25:21Z</time>
      </trkpt>
      <trkpt lat="38.355166" lon="-1.876157">
        <ele>461.3</ele>
        <time>2023-02-18T07:25:26Z</time>
      </trkpt>
      <trkpt lat="38.355151" lon="-1.876077">
        <ele>462.2</ele>
        <time>2023-02-18T07:25:31Z</time>
      </trkpt>
      <trkpt lat="38.355143" lon="-1.875995">
        <ele>461.6</ele>
        <time>2023-02-18T07:25:35Z</time>
      </trkpt>
      <trkpt lat="38.355125" lon="-1.875914">
        <ele>458.6</ele>
        <time>2023-02-18T07:25:40Z</time>
      </trkpt>
      <trkpt lat="38.355108" lon="-1.875826">
        <ele>458.3</ele>
        <time>2023-02-18T07:25:47Z</time>
      </trkpt>
      <trkpt lat="38.355080" lon="-1.875742">
        <ele>457.3</ele>
        <time>2023-02-18T07:25:52Z</time>
      </trkpt>
      <trkpt lat="38.355059" lon="-1.875666">
        <ele>457.3</ele>
        <time>2023-02-18T07:25:57Z</time>
      </trkpt>
      <trkpt lat="38.355023" lon="-1.875584">
        <ele>456.6</ele>
        <time>2023-02-18T07:26:03Z</time>
      </trkpt>
      <trkpt lat="38.354994" lon="-1.875510">
        <ele>455.3</ele>
        <time>2023-02-18T07:26:08Z</time>
      </trkpt>
      <trkpt lat="38.354965" lon="-1.875430">
        <ele>454.3</ele>
        <time>2023-02-18T07:26:14Z</time>
      </trkpt>
      <trkpt lat="38.354935" lon="-1.875349">
        <ele>454.3</ele>
        <time>2023-02-18T07:26:19Z</time>
      </trkpt>
      <trkpt lat="38.354907" lon="-1.875258">
        <ele>456.2</ele>
        <time>2023-02-18T07:26:24Z</time>
      </trkpt>
      <trkpt lat="38.354868" lon="-1.875178">
        <ele>456.3</ele>
        <time>2023-02-18T07:26:29Z</time>
      </trkpt>
      <trkpt lat="38.354815" lon="-1.875116">
        <ele>457.2</ele>
        <time>2023-02-18T07:26:35Z</time>
      </trkpt>
      <trkpt lat="38.354756" lon="-1.875073">
        <ele>455.6</ele>
        <time>2023-02-18T07:26:40Z</time>
      </trkpt>
      <trkpt lat="38.354708" lon="-1.875018">
        <ele>455.3</ele>
        <time>2023-02-18T07:26:45Z</time>
      </trkpt>
      <trkpt lat="38.354678" lon="-1.874942">
        <ele>455.3</ele>
        <time>2023-02-18T07:26:50Z</time>
      </trkpt>
      <trkpt lat="38.354652" lon="-1.874852">
        <ele>456.1</ele>
        <time>2023-02-18T07:26:56Z</time>
      </trkpt>
      <trkpt lat="38.354653" lon="-1.874756">
        <ele>456.3</ele>
        <time>2023-02-18T07:27:01Z</time>
      </trkpt>
      <trkpt lat="38.354677" lon="-1.874670">
        <ele>457.3</ele>
        <time>2023-02-18T07:27:06Z</time>
      </trkpt>
      <trkpt lat="38.354695" lon="-1.874590">
        <ele>460.3</ele>
        <time>2023-02-18T07:27:11Z</time>
      </trkpt>
      <trkpt lat="38.354709" lon="-1.874506">
        <ele>461.1</ele>
        <time>2023-02-18T07:27:17Z</time>
      </trkpt>
      <trkpt lat="38.354701" lon="-1.874412">
        <ele>462.2</ele>
        <time>2023-02-18T07:27:22Z</time>
      </trkpt>
      <trkpt lat="38.354683" lon="-1.874334">
        <ele>464.1</ele>
        <time>2023-02-18T07:27:26Z</time>
      </trkpt>
      <trkpt lat="38.354670" lon="-1.874251">
        <ele>465.3</ele>
        <time>2023-02-18T07:27:30Z</time>
      </trkpt>
      <trkpt lat="38.354664" lon="-1.874165">
        <ele>464.3</ele>
        <time>2023-02-18T07:27:35Z</time>
      </trkpt>
      <trkpt lat="38.354648" lon="-1.874080">
        <ele>464.3</ele>
        <time>2023-02-18T07:27:40Z</time>
      </trkpt>
      <trkpt lat="38.354613" lon="-1.874009">
        <ele>463.4</ele>
        <time>2023-02-18T07:27:45Z</time>
      </trkpt>
      <trkpt lat="38.354576" lon="-1.873940">
        <ele>463.4</ele>
        <time>2023-02-18T07:27:50Z</time>
      </trkpt>
      <trkpt lat="38.354538" lon="-1.873863">
        <ele>462.1</ele>
        <time>2023-02-18T07:27:56Z</time>
      </trkpt>
      <trkpt lat="38.354505" lon="-1.873783">
        <ele>461.3</ele>
        <time>2023-02-18T07:28:01Z</time>
      </trkpt>
      <trkpt lat="38.354474" lon="-1.873704">
        <ele>459.3</ele>
        <time>2023-02-18T07:28:07Z</time>
      </trkpt>
      <trkpt lat="38.354435" lon="-1.873621">
        <ele>458.3</ele>
        <time>2023-02-18T07:28:13Z</time>
      </trkpt>
      <trkpt lat="38.354390" lon="-1.873547">
        <ele>459.1</ele>
        <time>2023-02-18T07:28:19Z</time>
      </trkpt>
      <trkpt lat="38.354348" lon="-1.873470">
        <ele>459.3</ele>
        <time>2023-02-18T07:28:25Z</time>
      </trkpt>
      <trkpt lat="38.354305" lon="-1.873408">
        <ele>457.4</ele>
        <time>2023-02-18T07:28:31Z</time>
      </trkpt>
      <trkpt lat="38.354258" lon="-1.873342">
        <ele>458.3</ele>
        <time>2023-02-18T07:28:35Z</time>
      </trkpt>
      <trkpt lat="38.354214" lon="-1.873276">
        <ele>459.3</ele>
        <time>2023-02-18T07:28:44Z</time>
      </trkpt>
      <trkpt lat="38.354178" lon="-1.873204">
        <ele>457.6</ele>
        <time>2023-02-18T07:28:50Z</time>
      </trkpt>
      <trkpt lat="38.354121" lon="-1.873142">
        <ele>456.3</ele>
        <time>2023-02-18T07:28:55Z</time>
      </trkpt>
      <trkpt lat="38.354079" lon="-1.873065">
        <ele>458.3</ele>
        <time>2023-02-18T07:29:00Z</time>
      </trkpt>
      <trkpt lat="38.354034" lon="-1.872999">
        <ele>458.3</ele>
        <time>2023-02-18T07:29:06Z</time>
      </trkpt>
      <trkpt lat="38.353986" lon="-1.872927">
        <ele>457.3</ele>
        <time>2023-02-18T07:29:11Z</time>
      </trkpt>
      <trkpt lat="38.353942" lon="-1.872858">
        <ele>456.3</ele>
        <time>2023-02-18T07:29:16Z</time>
      </trkpt>
      <trkpt lat="38.353897" lon="-1.872785">
        <ele>456.5</ele>
        <time>2023-02-18T07:29:21Z</time>
      </trkpt>
      <trkpt lat="38.353848" lon="-1.872717">
        <ele>454.6</ele>
        <time>2023-02-18T07:29:27Z</time>
      </trkpt>
      <trkpt lat="38.353796" lon="-1.872648">
        <ele>453.3</ele>
        <time>2023-02-18T07:29:33Z</time>
      </trkpt>
      <trkpt lat="38.353735" lon="-1.872593">
        <ele>454.3</ele>
        <time>2023-02-18T07:29:39Z</time>
      </trkpt>
      <trkpt lat="38.353668" lon="-1.872527">
        <ele>453.4</ele>
        <time>2023-02-18T07:29:45Z</time>
      </trkpt>
      <trkpt lat="38.353611" lon="-1.872473">
        <ele>453.3</ele>
        <time>2023-02-18T07:29:50Z</time>
      </trkpt>
      <trkpt lat="38.353553" lon="-1.872438">
        <ele>454.1</ele>
        <time>2023-02-18T07:29:55Z</time>
      </trkpt>
      <trkpt lat="38.353481" lon="-1.872431">
        <ele>453.6</ele>
        <time>2023-02-18T07:30:02Z</time>
      </trkpt>
      <trkpt lat="38.353420" lon="-1.872395">
        <ele>454.3</ele>
        <time>2023-02-18T07:30:07Z</time>
      </trkpt>
      <trkpt lat="38.353365" lon="-1.872339">
        <ele>453.6</ele>
        <time>2023-02-18T07:30:12Z</time>
      </trkpt>
      <trkpt lat="38.353347" lon="-1.872261">
        <ele>454.3</ele>
        <time>2023-02-18T07:30:19Z</time>
      </trkpt>
      <trkpt lat="38.353329" lon="-1.872177">
        <ele>454.3</ele>
        <time>2023-02-18T07:30:23Z</time>
      </trkpt>
      <trkpt lat="38.353314" lon="-1.872100">
        <ele>454.3</ele>
        <time>2023-02-18T07:30:27Z</time>
      </trkpt>
      <trkpt lat="38.353291" lon="-1.872022">
        <ele>455.1</ele>
        <time>2023-02-18T07:30:32Z</time>
      </trkpt>
      <trkpt lat="38.353266" lon="-1.871928">
        <ele>456.3</ele>
        <time>2023-02-18T07:30:37Z</time>
      </trkpt>
      <trkpt lat="38.353259" lon="-1.871845">
        <ele>456.6</ele>
        <time>2023-02-18T07:30:41Z</time>
      </trkpt>
      <trkpt lat="38.353255" lon="-1.871757">
        <ele>456.3</ele>
        <time>2023-02-18T07:30:45Z</time>
      </trkpt>
      <trkpt lat="38.353245" lon="-1.871671">
        <ele>456.3</ele>
        <time>2023-02-18T07:30:50Z</time>
      </trkpt>
      <trkpt lat="38.353243" lon="-1.871586">
        <ele>457.3</ele>
        <time>2023-02-18T07:30:55Z</time>
      </trkpt>
      <trkpt lat="38.353239" lon="-1.871490">
        <ele>459.1</ele>
        <time>2023-02-18T07:31:00Z</time>
      </trkpt>
      <trkpt lat="38.353226" lon="-1.871389">
        <ele>459.3</ele>
        <time>2023-02-18T07:31:05Z</time>
      </trkpt>
      <trkpt lat="38.353214" lon="-1.871289">
        <ele>463.1</ele>
        <time>2023-02-18T07:31:11Z</time>
      </trkpt>
      <trkpt lat="38.353210" lon="-1.871208">
        <ele>464.3</ele>
        <time>2023-02-18T07:31:16Z</time>
      </trkpt>
      <trkpt lat="38.353205" lon="-1.871119">
        <ele>463.3</ele>
        <time>2023-02-18T07:31:22Z</time>
      </trkpt>
      <trkpt lat="38.353177" lon="-1.871043">
        <ele>463.3</ele>
        <time>2023-02-18T07:31:28Z</time>
      </trkpt>
      <trkpt lat="38.353134" lon="-1.870974">
        <ele>464.3</ele>
        <time>2023-02-18T07:31:33Z</time>
      </trkpt>
      <trkpt lat="38.353083" lon="-1.870922">
        <ele>462.6</ele>
        <time>2023-02-18T07:31:39Z</time>
      </trkpt>
      <trkpt lat="38.353052" lon="-1.870852">
        <ele>463.3</ele>
        <time>2023-02-18T07:31:43Z</time>
      </trkpt>
      <trkpt lat="38.353017" lon="-1.870772">
        <ele>461.6</ele>
        <time>2023-02-18T07:31:49Z</time>
      </trkpt>
      <trkpt lat="38.352977" lon="-1.870693">
        <ele>462.3</ele>
        <time>2023-02-18T07:31:55Z</time>
      </trkpt>
      <trkpt lat="38.352944" lon="-1.870588">
        <ele>461.3</ele>
        <time>2023-02-18T07:32:01Z</time>
      </trkpt>
      <trkpt lat="38.352923" lon="-1.870504">
        <ele>461.3</ele>
        <time>2023-02-18T07:32:07Z</time>
      </trkpt>
      <trkpt lat="38.352875" lon="-1.870434">
        <ele>461.3</ele>
        <time>2023-02-18T07:32:14Z</time>
      </trkpt>
      <trkpt lat="38.352844" lon="-1.870357">
        <ele>462.3</ele>
        <time>2023-02-18T07:32:19Z</time>
      </trkpt>
      <trkpt lat="38.352815" lon="-1.870277">
        <ele>462.3</ele>
        <time>2023-02-18T07:32:24Z</time>
      </trkpt>
      <trkpt lat="38.352772" lon="-1.870199">
        <ele>462.3</ele>
        <time>2023-02-18T07:32:30Z</time>
      </trkpt>
      <trkpt lat="38.352713" lon="-1.870125">
        <ele>461.3</ele>
        <time>2023-02-18T07:32:36Z</time>
      </trkpt>
      <trkpt lat="38.352660" lon="-1.870064">
        <ele>457.4</ele>
        <time>2023-02-18T07:32:43Z</time>
      </trkpt>
      <trkpt lat="38.352610" lon="-1.869993">
        <ele>457.3</ele>
        <time>2023-02-18T07:32:49Z</time>
      </trkpt>
      <trkpt lat="38.352562" lon="-1.869932">
        <ele>457.3</ele>
        <time>2023-02-18T07:32:54Z</time>
      </trkpt>
      <trkpt lat="38.352522" lon="-1.869862">
        <ele>459.3</ele>
        <time>2023-02-18T07:32:59Z</time>
      </trkpt>
      <trkpt lat="38.352477" lon="-1.869784">
        <ele>459.3</ele>
        <time>2023-02-18T07:33:05Z</time>
      </trkpt>
      <trkpt lat="38.352449" lon="-1.869706">
        <ele>459.6</ele>
        <time>2023-02-18T07:33:10Z</time>
      </trkpt>
      <trkpt lat="38.352418" lon="-1.869625">
        <ele>463.0</ele>
        <time>2023-02-18T07:33:16Z</time>
      </trkpt>
      <trkpt lat="38.352382" lon="-1.869554">
        <ele>463.3</ele>
        <time>2023-02-18T07:33:22Z</time>
      </trkpt>
      <trkpt lat="38.352328" lon="-1.869467">
        <ele>464.3</ele>
        <time>2023-02-18T07:33:26Z</time>
      </trkpt>
      <trkpt lat="38.352291" lon="-1.869378">
        <ele>463.4</ele>
        <time>2023-02-18T07:33:31Z</time>
      </trkpt>
      <trkpt lat="38.352251" lon="-1.869293">
        <ele>464.3</ele>
        <time>2023-02-18T07:33:36Z</time>
      </trkpt>
      <trkpt lat="38.352202" lon="-1.869209">
        <ele>466.1</ele>
        <time>2023-02-18T07:33:41Z</time>
      </trkpt>
      <trkpt lat="38.352164" lon="-1.869138">
        <ele>467.3</ele>
        <time>2023-02-18T07:33:47Z</time>
      </trkpt>
      <trkpt lat="38.352130" lon="-1.869069">
        <ele>469.3</ele>
        <time>2023-02-18T07:33:52Z</time>
      </trkpt>
      <trkpt lat="38.352088" lon="-1.868999">
        <ele>469.3</ele>
        <time>2023-02-18T07:33:58Z</time>
      </trkpt>
      <trkpt lat="38.352067" lon="-1.868921">
        <ele>469.3</ele>
        <time>2023-02-18T07:34:03Z</time>
      </trkpt>
      <trkpt lat="38.352024" lon="-1.868851">
        <ele>470.3</ele>
        <time>2023-02-18T07:34:08Z</time>
      </trkpt>
      <trkpt lat="38.351989" lon="-1.868775">
        <ele>470.3</ele>
        <time>2023-02-18T07:34:13Z</time>
      </trkpt>
      <trkpt lat="38.351958" lon="-1.868697">
        <ele>468.6</ele>
        <time>2023-02-18T07:34:19Z</time>
      </trkpt>
      <trkpt lat="38.351927" lon="-1.868612">
        <ele>468.3</ele>
        <time>2023-02-18T07:34:25Z</time>
      </trkpt>
      <trkpt lat="38.351888" lon="-1.868540">
        <ele>469.1</ele>
        <time>2023-02-18T07:34:30Z</time>
      </trkpt>
      <trkpt lat="38.351848" lon="-1.868466">
        <ele>470.3</ele>
        <time>2023-02-18T07:34:35Z</time>
      </trkpt>
      <trkpt lat="38.351817" lon="-1.868388">
        <ele>470.3</ele>
        <time>2023-02-18T07:34:40Z</time>
      </trkpt>
      <trkpt lat="38.351787" lon="-1.868308">
        <ele>471.3</ele>
        <time>2023-02-18T07:34:45Z</time>
      </trkpt>
      <trkpt lat="38.351746" lon="-1.868229">
        <ele>470.3</ele>
        <time>2023-02-18T07:34:50Z</time>
      </trkpt>
      <trkpt lat="38.351714" lon="-1.868153">
        <ele>471.3</ele>
        <time>2023-02-18T07:34:55Z</time>
      </trkpt>
      <trkpt lat="38.351687" lon="-1.868080">
        <ele>471.3</ele>
        <time>2023-02-18T07:35:00Z</time>
      </trkpt>
      <trkpt lat="38.351651" lon="-1.867996">
        <ele>471.3</ele>
        <time>2023-02-18T07:35:06Z</time>
      </trkpt>
      <trkpt lat="38.351612" lon="-1.867923">
        <ele>471.3</ele>
        <time>2023-02-18T07:35:11Z</time>
      </trkpt>
      <trkpt lat="38.351573" lon="-1.867841">
        <ele>472.3</ele>
        <time>2023-02-18T07:35:17Z</time>
      </trkpt>
      <trkpt lat="38.351528" lon="-1.867776">
        <ele>474.3</ele>
        <time>2023-02-18T07:35:22Z</time>
      </trkpt>
      <trkpt lat="38.351488" lon="-1.867709">
        <ele>473.3</ele>
        <time>2023-02-18T07:35:28Z</time>
      </trkpt>
      <trkpt lat="38.351459" lon="-1.867637">
        <ele>473.3</ele>
        <time>2023-02-18T07:35:34Z</time>
      </trkpt>
      <trkpt lat="38.351415" lon="-1.867561">
        <ele>473.3</ele>
        <time>2023-02-18T07:35:39Z</time>
      </trkpt>
      <trkpt lat="38.351367" lon="-1.867492">
        <ele>474.3</ele>
        <time>2023-02-18T07:35:44Z</time>
      </trkpt>
      <trkpt lat="38.351315" lon="-1.867428">
        <ele>473.3</ele>
        <time>2023-02-18T07:35:50Z</time>
      </trkpt>
      <trkpt lat="38.351270" lon="-1.867351">
        <ele>472.3</ele>
        <time>2023-02-18T07:35:56Z</time>
      </trkpt>
      <trkpt lat="38.351224" lon="-1.867284">
        <ele>472.3</ele>
        <time>2023-02-18T07:36:01Z</time>
      </trkpt>
      <trkpt lat="38.351186" lon="-1.867214">
        <ele>472.3</ele>
        <time>2023-02-18T07:36:06Z</time>
      </trkpt>
      <trkpt lat="38.351139" lon="-1.867147">
        <ele>472.3</ele>
        <time>2023-02-18T07:36:12Z</time>
      </trkpt>
      <trkpt lat="38.351095" lon="-1.867083">
        <ele>471.4</ele>
        <time>2023-02-18T07:36:17Z</time>
      </trkpt>
      <trkpt lat="38.351053" lon="-1.867022">
        <ele>472.1</ele>
        <time>2023-02-18T07:36:22Z</time>
      </trkpt>
      <trkpt lat="38.351018" lon="-1.866951">
        <ele>472.2</ele>
        <time>2023-02-18T07:36:27Z</time>
      </trkpt>
      <trkpt lat="38.350982" lon="-1.866880">
        <ele>472.3</ele>
        <time>2023-02-18T07:36:32Z</time>
      </trkpt>
      <trkpt lat="38.350942" lon="-1.866809">
        <ele>472.4</ele>
        <time>2023-02-18T07:36:38Z</time>
      </trkpt>
      <trkpt lat="38.350902" lon="-1.866744">
        <ele>474.1</ele>
        <time>2023-02-18T07:36:43Z</time>
      </trkpt>
      <trkpt lat="38.350856" lon="-1.866685">
        <ele>473.4</ele>
        <time>2023-02-18T07:36:48Z</time>
      </trkpt>
      <trkpt lat="38.350815" lon="-1.866609">
        <ele>471.6</ele>
        <time>2023-02-18T07:36:54Z</time>
      </trkpt>
      <trkpt lat="38.350766" lon="-1.866537">
        <ele>473.3</ele>
        <time>2023-02-18T07:37:00Z</time>
      </trkpt>
      <trkpt lat="38.350730" lon="-1.866466">
        <ele>475.1</ele>
        <time>2023-02-18T07:37:05Z</time>
      </trkpt>
      <trkpt lat="38.350690" lon="-1.866391">
        <ele>474.4</ele>
        <time>2023-02-18T07:37:11Z</time>
      </trkpt>
      <trkpt lat="38.350643" lon="-1.866321">
        <ele>474.4</ele>
        <time>2023-02-18T07:37:16Z</time>
      </trkpt>
      <trkpt lat="38.350607" lon="-1.866254">
        <ele>475.3</ele>
        <time>2023-02-18T07:37:21Z</time>
      </trkpt>
      <trkpt lat="38.350561" lon="-1.866182">
        <ele>476.1</ele>
        <time>2023-02-18T07:37:27Z</time>
      </trkpt>
      <trkpt lat="38.350520" lon="-1.866113">
        <ele>476.4</ele>
        <time>2023-02-18T07:37:32Z</time>
      </trkpt>
      <trkpt lat="38.350483" lon="-1.866041">
        <ele>477.1</ele>
        <time>2023-02-18T07:37:37Z</time>
      </trkpt>
      <trkpt lat="38.350442" lon="-1.865972">
        <ele>478.3</ele>
        <time>2023-02-18T07:37:43Z</time>
      </trkpt>
      <trkpt lat="38.350404" lon="-1.865907">
        <ele>478.4</ele>
        <time>2023-02-18T07:37:48Z</time>
      </trkpt>
      <trkpt lat="38.350354" lon="-1.865834">
        <ele>478.1</ele>
        <time>2023-02-18T07:37:53Z</time>
      </trkpt>
      <trkpt lat="38.350306" lon="-1.865772">
        <ele>477.4</ele>
        <time>2023-02-18T07:37:57Z</time>
      </trkpt>
      <trkpt lat="38.350267" lon="-1.865704">
        <ele>477.4</ele>
        <time>2023-02-18T07:38:03Z</time>
      </trkpt>
      <trkpt lat="38.350225" lon="-1.865626">
        <ele>479.4</ele>
        <time>2023-02-18T07:38:09Z</time>
      </trkpt>
      <trkpt lat="38.350183" lon="-1.865561">
        <ele>480.4</ele>
        <time>2023-02-18T07:38:14Z</time>
      </trkpt>
      <trkpt lat="38.350140" lon="-1.865491">
        <ele>480.4</ele>
        <time>2023-02-18T07:38:20Z</time>
      </trkpt>
      <trkpt lat="38.350100" lon="-1.865414">
        <ele>480.4</ele>
        <time>2023-02-18T07:38:25Z</time>
      </trkpt>
      <trkpt lat="38.350063" lon="-1.865344">
        <ele>480.4</ele>
        <time>2023-02-18T07:38:30Z</time>
      </trkpt>
      <trkpt lat="38.350026" lon="-1.865272">
        <ele>481.1</ele>
        <time>2023-02-18T07:38:35Z</time>
      </trkpt>
      <trkpt lat="38.349984" lon="-1.865206">
        <ele>481.4</ele>
        <time>2023-02-18T07:38:40Z</time>
      </trkpt>
      <trkpt lat="38.349946" lon="-1.865136">
        <ele>480.4</ele>
        <time>2023-02-18T07:38:46Z</time>
      </trkpt>
      <trkpt lat="38.349906" lon="-1.865069">
        <ele>481.3</ele>
        <time>2023-02-18T07:38:51Z</time>
      </trkpt>
      <trkpt lat="38.349855" lon="-1.864994">
        <ele>482.3</ele>
        <time>2023-02-18T07:38:56Z</time>
      </trkpt>
      <trkpt lat="38.349812" lon="-1.864921">
        <ele>482.4</ele>
        <time>2023-02-18T07:39:01Z</time>
      </trkpt>
      <trkpt lat="38.349766" lon="-1.864852">
        <ele>483.4</ele>
        <time>2023-02-18T07:39:07Z</time>
      </trkpt>
      <trkpt lat="38.349714" lon="-1.864775">
        <ele>480.4</ele>
        <time>2023-02-18T07:39:13Z</time>
      </trkpt>
      <trkpt lat="38.349680" lon="-1.864695">
        <ele>481.1</ele>
        <time>2023-02-18T07:39:19Z</time>
      </trkpt>
      <trkpt lat="38.349647" lon="-1.864620">
        <ele>481.4</ele>
        <time>2023-02-18T07:39:24Z</time>
      </trkpt>
      <trkpt lat="38.349611" lon="-1.864541">
        <ele>482.1</ele>
        <time>2023-02-18T07:39:30Z</time>
      </trkpt>
      <trkpt lat="38.349581" lon="-1.864455">
        <ele>483.3</ele>
        <time>2023-02-18T07:39:36Z</time>
      </trkpt>
      <trkpt lat="38.349555" lon="-1.864378">
        <ele>484.4</ele>
        <time>2023-02-18T07:39:41Z</time>
      </trkpt>
      <trkpt lat="38.349527" lon="-1.864294">
        <ele>484.4</ele>
        <time>2023-02-18T07:39:46Z</time>
      </trkpt>
      <trkpt lat="38.349495" lon="-1.864224">
        <ele>484.2</ele>
        <time>2023-02-18T07:39:51Z</time>
      </trkpt>
      <trkpt lat="38.349474" lon="-1.864134">
        <ele>483.4</ele>
        <time>2023-02-18T07:39:57Z</time>
      </trkpt>
      <trkpt lat="38.349452" lon="-1.864056">
        <ele>486.1</ele>
        <time>2023-02-18T07:40:02Z</time>
      </trkpt>
      <trkpt lat="38.349421" lon="-1.863973">
        <ele>486.4</ele>
        <time>2023-02-18T07:40:08Z</time>
      </trkpt>
      <trkpt lat="38.349399" lon="-1.863890">
        <ele>487.4</ele>
        <time>2023-02-18T07:40:14Z</time>
      </trkpt>
      <trkpt lat="38.349375" lon="-1.863814">
        <ele>488.1</ele>
        <time>2023-02-18T07:40:18Z</time>
      </trkpt>
      <trkpt lat="38.349355" lon="-1.863726">
        <ele>488.4</ele>
        <time>2023-02-18T07:40:23Z</time>
      </trkpt>
      <trkpt lat="38.349331" lon="-1.863639">
        <ele>488.4</ele>
        <time>2023-02-18T07:40:28Z</time>
      </trkpt>
      <trkpt lat="38.349299" lon="-1.863556">
        <ele>488.4</ele>
        <time>2023-02-18T07:40:33Z</time>
      </trkpt>
      <trkpt lat="38.349275" lon="-1.863482">
        <ele>488.4</ele>
        <time>2023-02-18T07:40:38Z</time>
      </trkpt>
      <trkpt lat="38.349254" lon="-1.863399">
        <ele>489.1</ele>
        <time>2023-02-18T07:40:43Z</time>
      </trkpt>
      <trkpt lat="38.349229" lon="-1.863319">
        <ele>488.4</ele>
        <time>2023-02-18T07:40:48Z</time>
      </trkpt>
      <trkpt lat="38.349198" lon="-1.863227">
        <ele>490.1</ele>
        <time>2023-02-18T07:40:53Z</time>
      </trkpt>
      <trkpt lat="38.349176" lon="-1.863150">
        <ele>491.3</ele>
        <time>2023-02-18T07:40:58Z</time>
      </trkpt>
      <trkpt lat="38.349150" lon="-1.863063">
        <ele>491.6</ele>
        <time>2023-02-18T07:41:03Z</time>
      </trkpt>
      <trkpt lat="38.349128" lon="-1.862971">
        <ele>491.3</ele>
        <time>2023-02-18T07:41:09Z</time>
      </trkpt>
      <trkpt lat="38.349105" lon="-1.862892">
        <ele>493.3</ele>
        <time>2023-02-18T07:41:14Z</time>
      </trkpt>
      <trkpt lat="38.349074" lon="-1.862810">
        <ele>495.1</ele>
        <time>2023-02-18T07:41:19Z</time>
      </trkpt>
      <trkpt lat="38.349055" lon="-1.862725">
        <ele>496.4</ele>
        <time>2023-02-18T07:41:24Z</time>
      </trkpt>
      <trkpt lat="38.349028" lon="-1.862642">
        <ele>497.3</ele>
        <time>2023-02-18T07:41:29Z</time>
      </trkpt>
      <trkpt lat="38.348996" lon="-1.862567">
        <ele>497.4</ele>
        <time>2023-02-18T07:41:34Z</time>
      </trkpt>
      <trkpt lat="38.348979" lon="-1.862486">
        <ele>498.4</ele>
        <time>2023-02-18T07:41:39Z</time>
      </trkpt>
      <trkpt lat="38.348965" lon="-1.862408">
        <ele>498.4</ele>
        <time>2023-02-18T07:41:43Z</time>
      </trkpt>
      <trkpt lat="38.348948" lon="-1.862329">
        <ele>498.4</ele>
        <time>2023-02-18T07:41:48Z</time>
      </trkpt>
      <trkpt lat="38.348930" lon="-1.862246">
        <ele>497.4</ele>
        <time>2023-02-18T07:41:53Z</time>
      </trkpt>
      <trkpt lat="38.348921" lon="-1.862160">
        <ele>497.4</ele>
        <time>2023-02-18T07:41:58Z</time>
      </trkpt>
      <trkpt lat="38.348905" lon="-1.862081">
        <ele>497.4</ele>
        <time>2023-02-18T07:42:03Z</time>
      </trkpt>
      <trkpt lat="38.348898" lon="-1.861994">
        <ele>499.4</ele>
        <time>2023-02-18T07:42:09Z</time>
      </trkpt>
      <trkpt lat="38.348877" lon="-1.861901">
        <ele>499.4</ele>
        <time>2023-02-18T07:42:15Z</time>
      </trkpt>
      <trkpt lat="38.348858" lon="-1.861818">
        <ele>500.4</ele>
        <time>2023-02-18T07:42:20Z</time>
      </trkpt>
      <trkpt lat="38.348846" lon="-1.861739">
        <ele>499.4</ele>
        <time>2023-02-18T07:42:24Z</time>
      </trkpt>
      <trkpt lat="38.348829" lon="-1.861647">
        <ele>496.4</ele>
        <time>2023-02-18T07:42:30Z</time>
      </trkpt>
      <trkpt lat="38.348828" lon="-1.861562">
        <ele>497.3</ele>
        <time>2023-02-18T07:42:36Z</time>
      </trkpt>
      <trkpt lat="38.348828" lon="-1.861480">
        <ele>497.4</ele>
        <time>2023-02-18T07:42:42Z</time>
      </trkpt>
      <trkpt lat="38.348823" lon="-1.861393">
        <ele>496.4</ele>
        <time>2023-02-18T07:42:48Z</time>
      </trkpt>
      <trkpt lat="38.348806" lon="-1.861300">
        <ele>496.4</ele>
        <time>2023-02-18T07:42:53Z</time>
      </trkpt>
      <trkpt lat="38.348787" lon="-1.861220">
        <ele>495.4</ele>
        <time>2023-02-18T07:42:58Z</time>
      </trkpt>
      <trkpt lat="38.348767" lon="-1.861140">
        <ele>495.4</ele>
        <time>2023-02-18T07:43:04Z</time>
      </trkpt>
      <trkpt lat="38.348741" lon="-1.861061">
        <ele>495.6</ele>
        <time>2023-02-18T07:43:09Z</time>
      </trkpt>
      <trkpt lat="38.348703" lon="-1.860990">
        <ele>493.4</ele>
        <time>2023-02-18T07:43:15Z</time>
      </trkpt>
      <trkpt lat="38.348657" lon="-1.860918">
        <ele>490.6</ele>
        <time>2023-02-18T07:43:21Z</time>
      </trkpt>
      <trkpt lat="38.348599" lon="-1.860861">
        <ele>489.4</ele>
        <time>2023-02-18T07:43:26Z</time>
      </trkpt>
      <trkpt lat="38.348544" lon="-1.860805">
        <ele>487.4</ele>
        <time>2023-02-18T07:43:32Z</time>
      </trkpt>
      <trkpt lat="38.348490" lon="-1.860758">
        <ele>486.4</ele>
        <time>2023-02-18T07:43:38Z</time>
      </trkpt>
      <trkpt lat="38.348426" lon="-1.860721">
        <ele>486.4</ele>
        <time>2023-02-18T07:43:45Z</time>
      </trkpt>
      <trkpt lat="38.348363" lon="-1.860676">
        <ele>485.4</ele>
        <time>2023-02-18T07:43:49Z</time>
      </trkpt>
      <trkpt lat="38.348305" lon="-1.860623">
        <ele>484.4</ele>
        <time>2023-02-18T07:43:54Z</time>
      </trkpt>
      <trkpt lat="38.348256" lon="-1.860571">
        <ele>483.4</ele>
        <time>2023-02-18T07:43:58Z</time>
      </trkpt>
      <trkpt lat="38.348229" lon="-1.860484">
        <ele>484.4</ele>
        <time>2023-02-18T07:44:03Z</time>
      </trkpt>
      <trkpt lat="38.348234" lon="-1.860390">
        <ele>485.1</ele>
        <time>2023-02-18T07:44:08Z</time>
      </trkpt>
      <trkpt lat="38.348234" lon="-1.860306">
        <ele>484.6</ele>
        <time>2023-02-18T07:44:13Z</time>
      </trkpt>
      <trkpt lat="38.348210" lon="-1.860222">
        <ele>486.1</ele>
        <time>2023-02-18T07:44:18Z</time>
      </trkpt>
      <trkpt lat="38.348178" lon="-1.860148">
        <ele>487.3</ele>
        <time>2023-02-18T07:44:23Z</time>
      </trkpt>
      <trkpt lat="38.348149" lon="-1.860066">
        <ele>488.4</ele>
        <time>2023-02-18T07:44:30Z</time>
      </trkpt>
      <trkpt lat="38.348117" lon="-1.859989">
        <ele>491.4</ele>
        <time>2023-02-18T07:44:37Z</time>
      </trkpt>
      <trkpt lat="38.348081" lon="-1.859908">
        <ele>493.3</ele>
        <time>2023-02-18T07:44:43Z</time>
      </trkpt>
      <trkpt lat="38.348048" lon="-1.859832">
        <ele>493.4</ele>
        <time>2023-02-18T07:44:49Z</time>
      </trkpt>
      <trkpt lat="38.348014" lon="-1.859762">
        <ele>494.4</ele>
        <time>2023-02-18T07:44:55Z</time>
      </trkpt>
      <trkpt lat="38.347995" lon="-1.859681">
        <ele>494.4</ele>
        <time>2023-02-18T07:44:59Z</time>
      </trkpt>
      <trkpt lat="38.347970" lon="-1.859590">
        <ele>495.4</ele>
        <time>2023-02-18T07:45:04Z</time>
      </trkpt>
      <trkpt lat="38.347970" lon="-1.859491">
        <ele>497.1</ele>
        <time>2023-02-18T07:45:10Z</time>
      </trkpt>
      <trkpt lat="38.347967" lon="-1.859395">
        <ele>498.1</ele>
        <time>2023-02-18T07:45:16Z</time>
      </trkpt>
      <trkpt lat="38.347971" lon="-1.859304">
        <ele>498.4</ele>
        <time>2023-02-18T07:45:21Z</time>
      </trkpt>
      <trkpt lat="38.347964" lon="-1.859210">
        <ele>500.1</ele>
        <time>2023-02-18T07:45:26Z</time>
      </trkpt>
      <trkpt lat="38.347946" lon="-1.859123">
        <ele>499.4</ele>
        <time>2023-02-18T07:45:31Z</time>
      </trkpt>
      <trkpt lat="38.347924" lon="-1.859045">
        <ele>500.3</ele>
        <time>2023-02-18T07:45:36Z</time>
      </trkpt>
      <trkpt lat="38.347901" lon="-1.858969">
        <ele>500.4</ele>
        <time>2023-02-18T07:45:40Z</time>
      </trkpt>
      <trkpt lat="38.347874" lon="-1.858882">
        <ele>501.4</ele>
        <time>2023-02-18T07:45:46Z</time>
      </trkpt>
      <trkpt lat="38.347842" lon="-1.858813">
        <ele>501.4</ele>
        <time>2023-02-18T07:45:51Z</time>
      </trkpt>
      <trkpt lat="38.347800" lon="-1.858746">
        <ele>499.4</ele>
        <time>2023-02-18T07:45:58Z</time>
      </trkpt>
      <trkpt lat="38.347759" lon="-1.858645">
        <ele>499.4</ele>
        <time>2023-02-18T07:46:04Z</time>
      </trkpt>
      <trkpt lat="38.347739" lon="-1.858562">
        <ele>500.1</ele>
        <time>2023-02-18T07:46:09Z</time>
      </trkpt>
      <trkpt lat="38.347718" lon="-1.858476">
        <ele>499.4</ele>
        <time>2023-02-18T07:46:14Z</time>
      </trkpt>
      <trkpt lat="38.347688" lon="-1.858390">
        <ele>500.4</ele>
        <time>2023-02-18T07:46:19Z</time>
      </trkpt>
      <trkpt lat="38.347660" lon="-1.858317">
        <ele>500.4</ele>
        <time>2023-02-18T07:46:24Z</time>
      </trkpt>
      <trkpt lat="38.347622" lon="-1.858230">
        <ele>499.4</ele>
        <time>2023-02-18T07:46:31Z</time>
      </trkpt>
      <trkpt lat="38.347579" lon="-1.858160">
        <ele>497.4</ele>
        <time>2023-02-18T07:46:36Z</time>
      </trkpt>
      <trkpt lat="38.347540" lon="-1.858078">
        <ele>498.4</ele>
        <time>2023-02-18T07:46:43Z</time>
      </trkpt>
      <trkpt lat="38.347503" lon="-1.858003">
        <ele>498.6</ele>
        <time>2023-02-18T07:46:48Z</time>
      </trkpt>
      <trkpt lat="38.347461" lon="-1.857932">
        <ele>498.4</ele>
        <time>2023-02-18T07:46:53Z</time>
      </trkpt>
      <trkpt lat="38.347428" lon="-1.857863">
        <ele>496.4</ele>
        <time>2023-02-18T07:46:59Z</time>
      </trkpt>
      <trkpt lat="38.347383" lon="-1.857787">
        <ele>494.6</ele>
        <time>2023-02-18T07:47:06Z</time>
      </trkpt>
      <trkpt lat="38.347350" lon="-1.857717">
        <ele>493.4</ele>
        <time>2023-02-18T07:47:11Z</time>
      </trkpt>
      <trkpt lat="38.347318" lon="-1.857642">
        <ele>492.4</ele>
        <time>2023-02-18T07:47:16Z</time>
      </trkpt>
      <trkpt lat="38.347265" lon="-1.857583">
        <ele>490.6</ele>
        <time>2023-02-18T07:47:23Z</time>
      </trkpt>
      <trkpt lat="38.347213" lon="-1.857523">
        <ele>489.6</ele>
        <time>2023-02-18T07:47:30Z</time>
      </trkpt>
      <trkpt lat="38.347142" lon="-1.857496">
        <ele>486.6</ele>
        <time>2023-02-18T07:47:42Z</time>
      </trkpt>
      <trkpt lat="38.347067" lon="-1.857494">
        <ele>484.4</ele>
        <time>2023-02-18T07:47:48Z</time>
      </trkpt>
      <trkpt lat="38.347001" lon="-1.857516">
        <ele>482.4</ele>
        <time>2023-02-18T07:47:53Z</time>
      </trkpt>
      <trkpt lat="38.346931" lon="-1.857516">
        <ele>483.4</ele>
        <time>2023-02-18T07:47:58Z</time>
      </trkpt>
      <trkpt lat="38.346852" lon="-1.857534">
        <ele>484.4</ele>
        <time>2023-02-18T07:48:04Z</time>
      </trkpt>
      <trkpt lat="38.346761" lon="-1.857525">
        <ele>486.3</ele>
        <time>2023-02-18T07:48:09Z</time>
      </trkpt>
      <trkpt lat="38.346679" lon="-1.857503">
        <ele>487.4</ele>
        <time>2023-02-18T07:48:16Z</time>
      </trkpt>
      <trkpt lat="38.346611" lon="-1.857460">
        <ele>488.3</ele>
        <time>2023-02-18T07:48:22Z</time>
      </trkpt>
      <trkpt lat="38.346567" lon="-1.857387">
        <ele>489.4</ele>
        <time>2023-02-18T07:48:28Z</time>
      </trkpt>
      <trkpt lat="38.346533" lon="-1.857309">
        <ele>491.4</ele>
        <time>2023-02-18T07:48:34Z</time>
      </trkpt>
      <trkpt lat="38.346506" lon="-1.857231">
        <ele>494.4</ele>
        <time>2023-02-18T07:48:39Z</time>
      </trkpt>
      <trkpt lat="38.346495" lon="-1.857148">
        <ele>496.3</ele>
        <time>2023-02-18T07:48:43Z</time>
      </trkpt>
      <trkpt lat="38.346475" lon="-1.857034">
        <ele>499.1</ele>
        <time>2023-02-18T07:48:48Z</time>
      </trkpt>
      <trkpt lat="38.346449" lon="-1.856960">
        <ele>500.4</ele>
        <time>2023-02-18T07:48:53Z</time>
      </trkpt>
      <trkpt lat="38.346412" lon="-1.856888">
        <ele>502.4</ele>
        <time>2023-02-18T07:48:58Z</time>
      </trkpt>
      <trkpt lat="38.346371" lon="-1.856815">
        <ele>501.4</ele>
        <time>2023-02-18T07:49:04Z</time>
      </trkpt>
      <trkpt lat="38.346323" lon="-1.856757">
        <ele>500.4</ele>
        <time>2023-02-18T07:49:10Z</time>
      </trkpt>
      <trkpt lat="38.346275" lon="-1.856704">
        <ele>498.5</ele>
        <time>2023-02-18T07:49:16Z</time>
      </trkpt>
      <trkpt lat="38.346218" lon="-1.856648">
        <ele>498.4</ele>
        <time>2023-02-18T07:49:22Z</time>
      </trkpt>
      <trkpt lat="38.346169" lon="-1.856582">
        <ele>498.4</ele>
        <time>2023-02-18T07:49:28Z</time>
      </trkpt>
      <trkpt lat="38.346118" lon="-1.856514">
        <ele>498.4</ele>
        <time>2023-02-18T07:49:34Z</time>
      </trkpt>
      <trkpt lat="38.346070" lon="-1.856452">
        <ele>497.6</ele>
        <time>2023-02-18T07:49:39Z</time>
      </trkpt>
      <trkpt lat="38.346035" lon="-1.856376">
        <ele>497.4</ele>
        <time>2023-02-18T07:49:44Z</time>
      </trkpt>
      <trkpt lat="38.345997" lon="-1.856309">
        <ele>498.4</ele>
        <time>2023-02-18T07:49:49Z</time>
      </trkpt>
      <trkpt lat="38.345963" lon="-1.856234">
        <ele>500.1</ele>
        <time>2023-02-18T07:49:54Z</time>
      </trkpt>
      <trkpt lat="38.345936" lon="-1.856152">
        <ele>502.1</ele>
        <time>2023-02-18T07:49:59Z</time>
      </trkpt>
      <trkpt lat="38.345906" lon="-1.856064">
        <ele>503.4</ele>
        <time>2023-02-18T07:50:04Z</time>
      </trkpt>
      <trkpt lat="38.345876" lon="-1.855986">
        <ele>505.4</ele>
        <time>2023-02-18T07:50:09Z</time>
      </trkpt>
      <trkpt lat="38.345850" lon="-1.855896">
        <ele>504.4</ele>
        <time>2023-02-18T07:50:15Z</time>
      </trkpt>
      <trkpt lat="38.345833" lon="-1.855816">
        <ele>504.4</ele>
        <time>2023-02-18T07:50:20Z</time>
      </trkpt>
      <trkpt lat="38.345810" lon="-1.855742">
        <ele>506.1</ele>
        <time>2023-02-18T07:50:25Z</time>
      </trkpt>
      <trkpt lat="38.345782" lon="-1.855669">
        <ele>508.3</ele>
        <time>2023-02-18T07:50:30Z</time>
      </trkpt>
      <trkpt lat="38.345741" lon="-1.855595">
        <ele>507.4</ele>
        <time>2023-02-18T07:50:36Z</time>
      </trkpt>
      <trkpt lat="38.345690" lon="-1.855535">
        <ele>507.4</ele>
        <time>2023-02-18T07:50:41Z</time>
      </trkpt>
      <trkpt lat="38.345627" lon="-1.855485">
        <ele>505.5</ele>
        <time>2023-02-18T07:50:47Z</time>
      </trkpt>
      <trkpt lat="38.345572" lon="-1.855445">
        <ele>503.7</ele>
        <time>2023-02-18T07:50:54Z</time>
      </trkpt>
      <trkpt lat="38.345531" lon="-1.855381">
        <ele>502.4</ele>
        <time>2023-02-18T07:51:01Z</time>
      </trkpt>
      <trkpt lat="38.345497" lon="-1.855307">
        <ele>503.1</ele>
        <time>2023-02-18T07:51:06Z</time>
      </trkpt>
      <trkpt lat="38.345469" lon="-1.855230">
        <ele>504.3</ele>
        <time>2023-02-18T07:51:11Z</time>
      </trkpt>
      <trkpt lat="38.345442" lon="-1.855145">
        <ele>505.1</ele>
        <time>2023-02-18T07:51:16Z</time>
      </trkpt>
      <trkpt lat="38.345432" lon="-1.855063">
        <ele>504.5</ele>
        <time>2023-02-18T07:51:21Z</time>
      </trkpt>
      <trkpt lat="38.345424" lon="-1.854977">
        <ele>507.1</ele>
        <time>2023-02-18T07:51:26Z</time>
      </trkpt>
      <trkpt lat="38.345420" lon="-1.854890">
        <ele>507.4</ele>
        <time>2023-02-18T07:51:32Z</time>
      </trkpt>
      <trkpt lat="38.345416" lon="-1.854803">
        <ele>508.4</ele>
        <time>2023-02-18T07:51:37Z</time>
      </trkpt>
      <trkpt lat="38.345407" lon="-1.854717">
        <ele>509.1</ele>
        <time>2023-02-18T07:51:42Z</time>
      </trkpt>
      <trkpt lat="38.345410" lon="-1.854622">
        <ele>509.1</ele>
        <time>2023-02-18T07:51:48Z</time>
      </trkpt>
      <trkpt lat="38.345405" lon="-1.854531">
        <ele>509.7</ele>
        <time>2023-02-18T07:52:00Z</time>
      </trkpt>
      <trkpt lat="38.345405" lon="-1.854437">
        <ele>510.3</ele>
        <time>2023-02-18T07:52:06Z</time>
      </trkpt>
      <trkpt lat="38.345408" lon="-1.854348">
        <ele>510.4</ele>
        <time>2023-02-18T07:52:11Z</time>
      </trkpt>
      <trkpt lat="38.345405" lon="-1.854268">
        <ele>512.4</ele>
        <time>2023-02-18T07:52:17Z</time>
      </trkpt>
      <trkpt lat="38.345394" lon="-1.854188">
        <ele>512.4</ele>
        <time>2023-02-18T07:52:24Z</time>
      </trkpt>
      <trkpt lat="38.345379" lon="-1.854108">
        <ele>513.3</ele>
        <time>2023-02-18T07:52:32Z</time>
      </trkpt>
      <trkpt lat="38.345373" lon="-1.854019">
        <ele>511.5</ele>
        <time>2023-02-18T07:52:36Z</time>
      </trkpt>
      <trkpt lat="38.345361" lon="-1.853932">
        <ele>510.4</ele>
        <time>2023-02-18T07:52:43Z</time>
      </trkpt>
      <trkpt lat="38.345338" lon="-1.853845">
        <ele>511.4</ele>
        <time>2023-02-18T07:52:48Z</time>
      </trkpt>
      <trkpt lat="38.345333" lon="-1.853760">
        <ele>511.4</ele>
        <time>2023-02-18T07:52:54Z</time>
      </trkpt>
      <trkpt lat="38.345348" lon="-1.853679">
        <ele>511.4</ele>
        <time>2023-02-18T07:53:00Z</time>
      </trkpt>
      <trkpt lat="38.345364" lon="-1.853575">
        <ele>514.4</ele>
        <time>2023-02-18T07:53:06Z</time>
      </trkpt>
      <trkpt lat="38.345360" lon="-1.853475">
        <ele>516.1</ele>
        <time>2023-02-18T07:53:13Z</time>
      </trkpt>
      <trkpt lat="38.345349" lon="-1.853383">
        <ele>516.4</ele>
        <time>2023-02-18T07:53:18Z</time>
      </trkpt>
      <trkpt lat="38.345348" lon="-1.853293">
        <ele>515.7</ele>
        <time>2023-02-18T07:53:26Z</time>
      </trkpt>
      <trkpt lat="38.345317" lon="-1.853214">
        <ele>515.4</ele>
        <time>2023-02-18T07:53:33Z</time>
      </trkpt>
      <trkpt lat="38.345291" lon="-1.853140">
        <ele>515.4</ele>
        <time>2023-02-18T07:53:37Z</time>
      </trkpt>
      <trkpt lat="38.345237" lon="-1.853088">
        <ele>514.4</ele>
        <time>2023-02-18T07:54:01Z</time>
      </trkpt>
      <trkpt lat="38.345191" lon="-1.853027">
        <ele>513.6</ele>
        <time>2023-02-18T07:54:06Z</time>
      </trkpt>
      <trkpt lat="38.345152" lon="-1.852972">
        <ele>513.4</ele>
        <time>2023-02-18T07:54:11Z</time>
      </trkpt>
      <trkpt lat="38.345093" lon="-1.852919">
        <ele>512.4</ele>
        <time>2023-02-18T07:54:17Z</time>
      </trkpt>
      <trkpt lat="38.345068" lon="-1.852870">
        <ele>513.4</ele>
        <time>2023-02-18T07:54:25Z</time>
      </trkpt>
      <trkpt lat="38.345034" lon="-1.852813">
        <ele>513.4</ele>
        <time>2023-02-18T07:55:07Z</time>
      </trkpt>
      <trkpt lat="38.344993" lon="-1.852777">
        <ele>515.3</ele>
        <time>2023-02-18T07:55:13Z</time>
      </trkpt>
      <trkpt lat="38.344949" lon="-1.852730">
        <ele>515.4</ele>
        <time>2023-02-18T07:55:30Z</time>
      </trkpt>
      <trkpt lat="38.344899" lon="-1.852672">
        <ele>516.1</ele>
        <time>2023-02-18T07:55:34Z</time>
      </trkpt>
      <trkpt lat="38.344847" lon="-1.852613">
        <ele>515.2</ele>
        <time>2023-02-18T07:55:40Z</time>
      </trkpt>
      <trkpt lat="38.344786" lon="-1.852566">
        <ele>517.1</ele>
        <time>2023-02-18T07:55:45Z</time>
      </trkpt>
      <trkpt lat="38.344731" lon="-1.852516">
        <ele>516.4</ele>
        <time>2023-02-18T07:55:50Z</time>
      </trkpt>
      <trkpt lat="38.344677" lon="-1.852458">
        <ele>516.4</ele>
        <time>2023-02-18T07:55:55Z</time>
      </trkpt>
      <trkpt lat="38.344611" lon="-1.852422">
        <ele>517.4</ele>
        <time>2023-02-18T07:56:00Z</time>
      </trkpt>
      <trkpt lat="38.344548" lon="-1.852388">
        <ele>516.4</ele>
        <time>2023-02-18T07:56:09Z</time>
      </trkpt>
      <trkpt lat="38.344487" lon="-1.852341">
        <ele>517.4</ele>
        <time>2023-02-18T07:56:14Z</time>
      </trkpt>
      <trkpt lat="38.344433" lon="-1.852291">
        <ele>518.4</ele>
        <time>2023-02-18T07:56:25Z</time>
      </trkpt>
      <trkpt lat="38.344385" lon="-1.852260">
        <ele>519.2</ele>
        <time>2023-02-18T07:56:29Z</time>
      </trkpt>
      <trkpt lat="38.344321" lon="-1.852219">
        <ele>519.4</ele>
        <time>2023-02-18T07:56:34Z</time>
      </trkpt>
      <trkpt lat="38.344260" lon="-1.852180">
        <ele>522.3</ele>
        <time>2023-02-18T07:56:40Z</time>
      </trkpt>
      <trkpt lat="38.344195" lon="-1.852138">
        <ele>522.6</ele>
        <time>2023-02-18T07:56:45Z</time>
      </trkpt>
      <trkpt lat="38.344130" lon="-1.852113">
        <ele>519.5</ele>
        <time>2023-02-18T07:57:00Z</time>
      </trkpt>
      <trkpt lat="38.344096" lon="-1.852095">
        <ele>519.4</ele>
        <time>2023-02-18T07:57:14Z</time>
      </trkpt>
      <trkpt lat="38.344043" lon="-1.852030">
        <ele>519.2</ele>
        <time>2023-02-18T07:57:29Z</time>
      </trkpt>
      <trkpt lat="38.343982" lon="-1.851979">
        <ele>519.4</ele>
        <time>2023-02-18T07:57:35Z</time>
      </trkpt>
      <trkpt lat="38.343908" lon="-1.851965">
        <ele>518.7</ele>
        <time>2023-02-18T07:57:40Z</time>
      </trkpt>
      <trkpt lat="38.343858" lon="-1.852028">
        <ele>518.5</ele>
        <time>2023-02-18T07:57:47Z</time>
      </trkpt>
      <trkpt lat="38.343880" lon="-1.852104">
        <ele>517.4</ele>
        <time>2023-02-18T07:57:53Z</time>
      </trkpt>
      <trkpt lat="38.343826" lon="-1.852058">
        <ele>520.3</ele>
        <time>2023-02-18T07:58:46Z</time>
      </trkpt>
      <trkpt lat="38.343766" lon="-1.852024">
        <ele>521.4</ele>
        <time>2023-02-18T07:58:54Z</time>
      </trkpt>
      <trkpt lat="38.343706" lon="-1.851991">
        <ele>523.4</ele>
        <time>2023-02-18T07:59:08Z</time>
      </trkpt>
      <trkpt lat="38.343642" lon="-1.851965">
        <ele>524.2</ele>
        <time>2023-02-18T07:59:13Z</time>
      </trkpt>
      <trkpt lat="38.343579" lon="-1.851932">
        <ele>522.4</ele>
        <time>2023-02-18T07:59:19Z</time>
      </trkpt>
      <trkpt lat="38.343514" lon="-1.851910">
        <ele>520.5</ele>
        <time>2023-02-18T07:59:24Z</time>
      </trkpt>
      <trkpt lat="38.343444" lon="-1.851909">
        <ele>517.4</ele>
        <time>2023-02-18T07:59:31Z</time>
      </trkpt>
      <trkpt lat="38.343371" lon="-1.851919">
        <ele>515.5</ele>
        <time>2023-02-18T07:59:38Z</time>
      </trkpt>
      <trkpt lat="38.343301" lon="-1.851920">
        <ele>520.2</ele>
        <time>2023-02-18T08:00:03Z</time>
      </trkpt>
      <trkpt lat="38.343258" lon="-1.851929">
        <ele>520.4</ele>
        <time>2023-02-18T08:00:09Z</time>
      </trkpt>
      <trkpt lat="38.343199" lon="-1.851965">
        <ele>521.4</ele>
        <time>2023-02-18T08:00:19Z</time>
      </trkpt>
      <trkpt lat="38.343155" lon="-1.852021">
        <ele>523.2</ele>
        <time>2023-02-18T08:00:31Z</time>
      </trkpt>
      <trkpt lat="38.343096" lon="-1.851991">
        <ele>522.4</ele>
        <time>2023-02-18T08:00:44Z</time>
      </trkpt>
      <trkpt lat="38.343131" lon="-1.851954">
        <ele>522.4</ele>
        <time>2023-02-18T08:00:50Z</time>
      </trkpt>
      <trkpt lat="38.343133" lon="-1.851910">
        <ele>523.4</ele>
        <time>2023-02-18T08:01:04Z</time>
      </trkpt>
      <trkpt lat="38.343131" lon="-1.851874">
        <ele>526.4</ele>
        <time>2023-02-18T08:01:19Z</time>
      </trkpt>
      <trkpt lat="38.343115" lon="-1.851814">
        <ele>524.4</ele>
        <time>2023-02-18T08:01:36Z</time>
      </trkpt>
      <trkpt lat="38.343039" lon="-1.851784">
        <ele>517.4</ele>
        <time>2023-02-18T08:03:00Z</time>
      </trkpt>
      <trkpt lat="38.343125" lon="-1.851779">
        <ele>525.7</ele>
        <time>2023-02-18T08:03:17Z</time>
      </trkpt>
      <trkpt lat="38.343179" lon="-1.851738">
        <ele>530.1</ele>
        <time>2023-02-18T08:03:21Z</time>
      </trkpt>
      <trkpt lat="38.343223" lon="-1.851675">
        <ele>532.3</ele>
        <time>2023-02-18T08:03:28Z</time>
      </trkpt>
      <trkpt lat="38.343278" lon="-1.851624">
        <ele>532.4</ele>
        <time>2023-02-18T08:03:34Z</time>
      </trkpt>
      <trkpt lat="38.343324" lon="-1.851547">
        <ele>533.2</ele>
        <time>2023-02-18T08:03:40Z</time>
      </trkpt>
      <trkpt lat="38.343389" lon="-1.851528">
        <ele>534.4</ele>
        <time>2023-02-18T08:03:56Z</time>
      </trkpt>
      <trkpt lat="38.343414" lon="-1.851440">
        <ele>534.4</ele>
        <time>2023-02-18T08:04:01Z</time>
      </trkpt>
      <trkpt lat="38.343429" lon="-1.851349">
        <ele>532.5</ele>
        <time>2023-02-18T08:04:07Z</time>
      </trkpt>
      <trkpt lat="38.343427" lon="-1.851263">
        <ele>531.4</ele>
        <time>2023-02-18T08:04:12Z</time>
      </trkpt>
      <trkpt lat="38.343420" lon="-1.851170">
        <ele>530.4</ele>
        <time>2023-02-18T08:04:18Z</time>
      </trkpt>
      <trkpt lat="38.343415" lon="-1.851073">
        <ele>531.4</ele>
        <time>2023-02-18T08:04:24Z</time>
      </trkpt>
      <trkpt lat="38.343405" lon="-1.850985">
        <ele>531.4</ele>
        <time>2023-02-18T08:04:30Z</time>
      </trkpt>
      <trkpt lat="38.343388" lon="-1.850896">
        <ele>530.5</ele>
        <time>2023-02-18T08:04:35Z</time>
      </trkpt>
      <trkpt lat="38.343366" lon="-1.850810">
        <ele>531.4</ele>
        <time>2023-02-18T08:04:41Z</time>
      </trkpt>
      <trkpt lat="38.343345" lon="-1.850719">
        <ele>532.4</ele>
        <time>2023-02-18T08:04:47Z</time>
      </trkpt>
      <trkpt lat="38.343327" lon="-1.850635">
        <ele>532.2</ele>
        <time>2023-02-18T08:04:52Z</time>
      </trkpt>
      <trkpt lat="38.343311" lon="-1.850538">
        <ele>531.5</ele>
        <time>2023-02-18T08:04:58Z</time>
      </trkpt>
      <trkpt lat="38.343299" lon="-1.850455">
        <ele>530.5</ele>
        <time>2023-02-18T08:05:02Z</time>
      </trkpt>
      <trkpt lat="38.343300" lon="-1.850372">
        <ele>531.2</ele>
        <time>2023-02-18T08:05:07Z</time>
      </trkpt>
      <trkpt lat="38.343316" lon="-1.850286">
        <ele>529.7</ele>
        <time>2023-02-18T08:05:19Z</time>
      </trkpt>
      <trkpt lat="38.343297" lon="-1.850206">
        <ele>528.5</ele>
        <time>2023-02-18T08:05:24Z</time>
      </trkpt>
      <trkpt lat="38.343277" lon="-1.850118">
        <ele>529.4</ele>
        <time>2023-02-18T08:05:29Z</time>
      </trkpt>
      <trkpt lat="38.343257" lon="-1.850037">
        <ele>528.7</ele>
        <time>2023-02-18T08:05:34Z</time>
      </trkpt>
      <trkpt lat="38.343242" lon="-1.849958">
        <ele>527.4</ele>
        <time>2023-02-18T08:05:39Z</time>
      </trkpt>
      <trkpt lat="38.343227" lon="-1.849879">
        <ele>527.4</ele>
        <time>2023-02-18T08:05:44Z</time>
      </trkpt>
      <trkpt lat="38.343216" lon="-1.849791">
        <ele>526.4</ele>
        <time>2023-02-18T08:05:50Z</time>
      </trkpt>
      <trkpt lat="38.343198" lon="-1.849705">
        <ele>525.4</ele>
        <time>2023-02-18T08:05:55Z</time>
      </trkpt>
      <trkpt lat="38.343184" lon="-1.849621">
        <ele>525.4</ele>
        <time>2023-02-18T08:06:00Z</time>
      </trkpt>
      <trkpt lat="38.343170" lon="-1.849533">
        <ele>525.4</ele>
        <time>2023-02-18T08:06:05Z</time>
      </trkpt>
      <trkpt lat="38.343157" lon="-1.849445">
        <ele>527.1</ele>
        <time>2023-02-18T08:06:09Z</time>
      </trkpt>
      <trkpt lat="38.343146" lon="-1.849364">
        <ele>529.3</ele>
        <time>2023-02-18T08:06:14Z</time>
      </trkpt>
      <trkpt lat="38.343131" lon="-1.849274">
        <ele>530.4</ele>
        <time>2023-02-18T08:06:19Z</time>
      </trkpt>
      <trkpt lat="38.343124" lon="-1.849186">
        <ele>530.3</ele>
        <time>2023-02-18T08:06:24Z</time>
      </trkpt>
      <trkpt lat="38.343107" lon="-1.849105">
        <ele>530.4</ele>
        <time>2023-02-18T08:06:28Z</time>
      </trkpt>
      <trkpt lat="38.343107" lon="-1.849024">
        <ele>529.4</ele>
        <time>2023-02-18T08:06:33Z</time>
      </trkpt>
      <trkpt lat="38.343100" lon="-1.848939">
        <ele>528.4</ele>
        <time>2023-02-18T08:06:40Z</time>
      </trkpt>
      <trkpt lat="38.343099" lon="-1.848856">
        <ele>527.4</ele>
        <time>2023-02-18T08:06:49Z</time>
      </trkpt>
      <trkpt lat="38.343082" lon="-1.848770">
        <ele>528.4</ele>
        <time>2023-02-18T08:06:55Z</time>
      </trkpt>
      <trkpt lat="38.343066" lon="-1.848684">
        <ele>528.4</ele>
        <time>2023-02-18T08:07:00Z</time>
      </trkpt>
      <trkpt lat="38.343049" lon="-1.848592">
        <ele>528.2</ele>
        <time>2023-02-18T08:07:06Z</time>
      </trkpt>
      <trkpt lat="38.343038" lon="-1.848510">
        <ele>527.4</ele>
        <time>2023-02-18T08:07:11Z</time>
      </trkpt>
      <trkpt lat="38.343026" lon="-1.848426">
        <ele>528.2</ele>
        <time>2023-02-18T08:07:17Z</time>
      </trkpt>
      <trkpt lat="38.343006" lon="-1.848347">
        <ele>528.4</ele>
        <time>2023-02-18T08:07:21Z</time>
      </trkpt>
      <trkpt lat="38.343007" lon="-1.848262">
        <ele>528.2</ele>
        <time>2023-02-18T08:07:27Z</time>
      </trkpt>
      <trkpt lat="38.343019" lon="-1.848181">
        <ele>529.2</ele>
        <time>2023-02-18T08:07:31Z</time>
      </trkpt>
      <trkpt lat="38.343030" lon="-1.848089">
        <ele>528.4</ele>
        <time>2023-02-18T08:07:36Z</time>
      </trkpt>
      <trkpt lat="38.343042" lon="-1.848003">
        <ele>528.4</ele>
        <time>2023-02-18T08:07:41Z</time>
      </trkpt>
      <trkpt lat="38.343066" lon="-1.847916">
        <ele>527.4</ele>
        <time>2023-02-18T08:07:46Z</time>
      </trkpt>
      <trkpt lat="38.343080" lon="-1.847833">
        <ele>526.4</ele>
        <time>2023-02-18T08:07:51Z</time>
      </trkpt>
      <trkpt lat="38.343096" lon="-1.847740">
        <ele>527.3</ele>
        <time>2023-02-18T08:07:56Z</time>
      </trkpt>
      <trkpt lat="38.343101" lon="-1.847658">
        <ele>527.4</ele>
        <time>2023-02-18T08:08:01Z</time>
      </trkpt>
      <trkpt lat="38.343109" lon="-1.847573">
        <ele>527.7</ele>
        <time>2023-02-18T08:08:06Z</time>
      </trkpt>
      <trkpt lat="38.343122" lon="-1.847489">
        <ele>526.7</ele>
        <time>2023-02-18T08:08:11Z</time>
      </trkpt>
      <trkpt lat="38.343146" lon="-1.847384">
        <ele>525.4</ele>
        <time>2023-02-18T08:08:16Z</time>
      </trkpt>
      <trkpt lat="38.343164" lon="-1.847296">
        <ele>525.4</ele>
        <time>2023-02-18T08:08:22Z</time>
      </trkpt>
      <trkpt lat="38.343182" lon="-1.847216">
        <ele>525.4</ele>
        <time>2023-02-18T08:08:27Z</time>
      </trkpt>
      <trkpt lat="38.343196" lon="-1.847136">
        <ele>525.4</ele>
        <time>2023-02-18T08:08:32Z</time>
      </trkpt>
      <trkpt lat="38.343212" lon="-1.847054">
        <ele>524.4</ele>
        <time>2023-02-18T08:08:37Z</time>
      </trkpt>
      <trkpt lat="38.343218" lon="-1.846966">
        <ele>524.5</ele>
        <time>2023-02-18T08:08:42Z</time>
      </trkpt>
      <trkpt lat="38.343221" lon="-1.846878">
        <ele>523.7</ele>
        <time>2023-02-18T08:08:47Z</time>
      </trkpt>
      <trkpt lat="38.343230" lon="-1.846798">
        <ele>523.4</ele>
        <time>2023-02-18T08:08:52Z</time>
      </trkpt>
      <trkpt lat="38.343242" lon="-1.846718">
        <ele>522.5</ele>
        <time>2023-02-18T08:08:57Z</time>
      </trkpt>
      <trkpt lat="38.343241" lon="-1.846621">
        <ele>523.4</ele>
        <time>2023-02-18T08:09:02Z</time>
      </trkpt>
      <trkpt lat="38.343275" lon="-1.846548">
        <ele>521.4</ele>
        <time>2023-02-18T08:09:08Z</time>
      </trkpt>
      <trkpt lat="38.343263" lon="-1.846458">
        <ele>520.4</ele>
        <time>2023-02-18T08:09:19Z</time>
      </trkpt>
      <trkpt lat="38.343275" lon="-1.846379">
        <ele>518.7</ele>
        <time>2023-02-18T08:09:24Z</time>
      </trkpt>
      <trkpt lat="38.343277" lon="-1.846285">
        <ele>518.4</ele>
        <time>2023-02-18T08:09:29Z</time>
      </trkpt>
      <trkpt lat="38.343273" lon="-1.846199">
        <ele>518.4</ele>
        <time>2023-02-18T08:09:34Z</time>
      </trkpt>
      <trkpt lat="38.343286" lon="-1.846115">
        <ele>519.4</ele>
        <time>2023-02-18T08:09:39Z</time>
      </trkpt>
      <trkpt lat="38.343300" lon="-1.846036">
        <ele>520.2</ele>
        <time>2023-02-18T08:09:44Z</time>
      </trkpt>
      <trkpt lat="38.343310" lon="-1.845942">
        <ele>519.4</ele>
        <time>2023-02-18T08:09:49Z</time>
      </trkpt>
      <trkpt lat="38.343313" lon="-1.845851">
        <ele>519.4</ele>
        <time>2023-02-18T08:09:54Z</time>
      </trkpt>
      <trkpt lat="38.343323" lon="-1.845760">
        <ele>517.4</ele>
        <time>2023-02-18T08:09:59Z</time>
      </trkpt>
      <trkpt lat="38.343340" lon="-1.845679">
        <ele>517.2</ele>
        <time>2023-02-18T08:10:04Z</time>
      </trkpt>
      <trkpt lat="38.343348" lon="-1.845591">
        <ele>517.4</ele>
        <time>2023-02-18T08:10:09Z</time>
      </trkpt>
      <trkpt lat="38.343355" lon="-1.845508">
        <ele>517.4</ele>
        <time>2023-02-18T08:10:14Z</time>
      </trkpt>
      <trkpt lat="38.343359" lon="-1.845417">
        <ele>516.4</ele>
        <time>2023-02-18T08:10:19Z</time>
      </trkpt>
      <trkpt lat="38.343370" lon="-1.845329">
        <ele>515.4</ele>
        <time>2023-02-18T08:10:24Z</time>
      </trkpt>
      <trkpt lat="38.343370" lon="-1.845235">
        <ele>516.4</ele>
        <time>2023-02-18T08:10:29Z</time>
      </trkpt>
      <trkpt lat="38.343374" lon="-1.845151">
        <ele>516.4</ele>
        <time>2023-02-18T08:10:34Z</time>
      </trkpt>
      <trkpt lat="38.343382" lon="-1.845061">
        <ele>516.4</ele>
        <time>2023-02-18T08:10:39Z</time>
      </trkpt>
      <trkpt lat="38.343388" lon="-1.844966">
        <ele>517.4</ele>
        <time>2023-02-18T08:10:45Z</time>
      </trkpt>
      <trkpt lat="38.343393" lon="-1.844870">
        <ele>517.4</ele>
        <time>2023-02-18T08:10:51Z</time>
      </trkpt>
      <trkpt lat="38.343397" lon="-1.844782">
        <ele>515.4</ele>
        <time>2023-02-18T08:10:56Z</time>
      </trkpt>
      <trkpt lat="38.343401" lon="-1.844695">
        <ele>515.5</ele>
        <time>2023-02-18T08:11:01Z</time>
      </trkpt>
      <trkpt lat="38.343394" lon="-1.844612">
        <ele>514.5</ele>
        <time>2023-02-18T08:11:06Z</time>
      </trkpt>
      <trkpt lat="38.343390" lon="-1.844521">
        <ele>515.4</ele>
        <time>2023-02-18T08:11:11Z</time>
      </trkpt>
      <trkpt lat="38.343388" lon="-1.844432">
        <ele>515.2</ele>
        <time>2023-02-18T08:11:16Z</time>
      </trkpt>
      <trkpt lat="38.343384" lon="-1.844340">
        <ele>515.4</ele>
        <time>2023-02-18T08:11:21Z</time>
      </trkpt>
      <trkpt lat="38.343391" lon="-1.844245">
        <ele>515.4</ele>
        <time>2023-02-18T08:11:26Z</time>
      </trkpt>
      <trkpt lat="38.343388" lon="-1.844149">
        <ele>514.4</ele>
        <time>2023-02-18T08:11:31Z</time>
      </trkpt>
      <trkpt lat="38.343384" lon="-1.844062">
        <ele>513.7</ele>
        <time>2023-02-18T08:11:36Z</time>
      </trkpt>
      <trkpt lat="38.343390" lon="-1.843975">
        <ele>513.4</ele>
        <time>2023-02-18T08:11:41Z</time>
      </trkpt>
      <trkpt lat="38.343388" lon="-1.843886">
        <ele>513.4</ele>
        <time>2023-02-18T08:11:46Z</time>
      </trkpt>
      <trkpt lat="38.343386" lon="-1.843798">
        <ele>514.2</ele>
        <time>2023-02-18T08:11:51Z</time>
      </trkpt>
      <trkpt lat="38.343381" lon="-1.843714">
        <ele>513.7</ele>
        <time>2023-02-18T08:11:56Z</time>
      </trkpt>
      <trkpt lat="38.343376" lon="-1.843629">
        <ele>512.4</ele>
        <time>2023-02-18T08:12:01Z</time>
      </trkpt>
      <trkpt lat="38.343369" lon="-1.843541">
        <ele>511.5</ele>
        <time>2023-02-18T08:12:06Z</time>
      </trkpt>
      <trkpt lat="38.343365" lon="-1.843450">
        <ele>512.2</ele>
        <time>2023-02-18T08:12:12Z</time>
      </trkpt>
      <trkpt lat="38.343360" lon="-1.843350">
        <ele>511.4</ele>
        <time>2023-02-18T08:12:17Z</time>
      </trkpt>
      <trkpt lat="38.343354" lon="-1.843257">
        <ele>512.4</ele>
        <time>2023-02-18T08:12:22Z</time>
      </trkpt>
      <trkpt lat="38.343350" lon="-1.843161">
        <ele>511.4</ele>
        <time>2023-02-18T08:12:29Z</time>
      </trkpt>
      <trkpt lat="38.343337" lon="-1.843067">
        <ele>510.5</ele>
        <time>2023-02-18T08:12:35Z</time>
      </trkpt>
      <trkpt lat="38.343328" lon="-1.842980">
        <ele>510.4</ele>
        <time>2023-02-18T08:12:40Z</time>
      </trkpt>
      <trkpt lat="38.343323" lon="-1.842888">
        <ele>509.7</ele>
        <time>2023-02-18T08:12:46Z</time>
      </trkpt>
      <trkpt lat="38.343308" lon="-1.842798">
        <ele>509.5</ele>
        <time>2023-02-18T08:12:51Z</time>
      </trkpt>
      <trkpt lat="38.343301" lon="-1.842706">
        <ele>509.5</ele>
        <time>2023-02-18T08:12:56Z</time>
      </trkpt>
      <trkpt lat="38.343305" lon="-1.842626">
        <ele>508.4</ele>
        <time>2023-02-18T08:13:01Z</time>
      </trkpt>
      <trkpt lat="38.343301" lon="-1.842531">
        <ele>508.4</ele>
        <time>2023-02-18T08:13:07Z</time>
      </trkpt>
      <trkpt lat="38.343293" lon="-1.842437">
        <ele>507.4</ele>
        <time>2023-02-18T08:13:12Z</time>
      </trkpt>
      <trkpt lat="38.343294" lon="-1.842342">
        <ele>507.4</ele>
        <time>2023-02-18T08:13:18Z</time>
      </trkpt>
      <trkpt lat="38.343288" lon="-1.842261">
        <ele>506.4</ele>
        <time>2023-02-18T08:13:23Z</time>
      </trkpt>
      <trkpt lat="38.343286" lon="-1.842174">
        <ele>504.4</ele>
        <time>2023-02-18T08:13:28Z</time>
      </trkpt>
      <trkpt lat="38.343286" lon="-1.842088">
        <ele>507.4</ele>
        <time>2023-02-18T08:13:33Z</time>
      </trkpt>
      <trkpt lat="38.343286" lon="-1.841994">
        <ele>507.4</ele>
        <time>2023-02-18T08:13:38Z</time>
      </trkpt>
      <trkpt lat="38.343290" lon="-1.841911">
        <ele>507.4</ele>
        <time>2023-02-18T08:13:42Z</time>
      </trkpt>
      <trkpt lat="38.343297" lon="-1.841821">
        <ele>507.4</ele>
        <time>2023-02-18T08:13:47Z</time>
      </trkpt>
      <trkpt lat="38.343296" lon="-1.841734">
        <ele>508.2</ele>
        <time>2023-02-18T08:13:52Z</time>
      </trkpt>
      <trkpt lat="38.343309" lon="-1.841642">
        <ele>508.4</ele>
        <time>2023-02-18T08:13:57Z</time>
      </trkpt>
      <trkpt lat="38.343326" lon="-1.841565">
        <ele>507.7</ele>
        <time>2023-02-18T08:14:02Z</time>
      </trkpt>
      <trkpt lat="38.343339" lon="-1.841480">
        <ele>507.4</ele>
        <time>2023-02-18T08:14:07Z</time>
      </trkpt>
      <trkpt lat="38.343357" lon="-1.841389">
        <ele>508.4</ele>
        <time>2023-02-18T08:14:12Z</time>
      </trkpt>
      <trkpt lat="38.343375" lon="-1.841305">
        <ele>508.4</ele>
        <time>2023-02-18T08:14:17Z</time>
      </trkpt>
      <trkpt lat="38.343387" lon="-1.841216">
        <ele>507.5</ele>
        <time>2023-02-18T08:14:22Z</time>
      </trkpt>
      <trkpt lat="38.343392" lon="-1.841133">
        <ele>506.4</ele>
        <time>2023-02-18T08:14:27Z</time>
      </trkpt>
      <trkpt lat="38.343394" lon="-1.841045">
        <ele>505.7</ele>
        <time>2023-02-18T08:14:32Z</time>
      </trkpt>
      <trkpt lat="38.343394" lon="-1.840957">
        <ele>506.4</ele>
        <time>2023-02-18T08:14:37Z</time>
      </trkpt>
      <trkpt lat="38.343402" lon="-1.840864">
        <ele>505.4</ele>
        <time>2023-02-18T08:14:43Z</time>
      </trkpt>
      <trkpt lat="38.343417" lon="-1.840777">
        <ele>505.4</ele>
        <time>2023-02-18T08:14:48Z</time>
      </trkpt>
      <trkpt lat="38.343422" lon="-1.840687">
        <ele>504.4</ele>
        <time>2023-02-18T08:14:53Z</time>
      </trkpt>
      <trkpt lat="38.343427" lon="-1.840604">
        <ele>503.4</ele>
        <time>2023-02-18T08:14:58Z</time>
      </trkpt>
      <trkpt lat="38.343432" lon="-1.840511">
        <ele>503.4</ele>
        <time>2023-02-18T08:15:03Z</time>
      </trkpt>
      <trkpt lat="38.343428" lon="-1.840422">
        <ele>501.7</ele>
        <time>2023-02-18T08:15:08Z</time>
      </trkpt>
      <trkpt lat="38.343432" lon="-1.840339">
        <ele>500.5</ele>
        <time>2023-02-18T08:15:13Z</time>
      </trkpt>
      <trkpt lat="38.343436" lon="-1.840245">
        <ele>500.4</ele>
        <time>2023-02-18T08:15:18Z</time>
      </trkpt>
      <trkpt lat="38.343439" lon="-1.840154">
        <ele>500.7</ele>
        <time>2023-02-18T08:15:23Z</time>
      </trkpt>
      <trkpt lat="38.343447" lon="-1.840070">
        <ele>500.4</ele>
        <time>2023-02-18T08:15:28Z</time>
      </trkpt>
      <trkpt lat="38.343450" lon="-1.839984">
        <ele>498.5</ele>
        <time>2023-02-18T08:15:33Z</time>
      </trkpt>
      <trkpt lat="38.343448" lon="-1.839886">
        <ele>497.7</ele>
        <time>2023-02-18T08:15:39Z</time>
      </trkpt>
      <trkpt lat="38.343439" lon="-1.839801">
        <ele>497.5</ele>
        <time>2023-02-18T08:15:45Z</time>
      </trkpt>
      <trkpt lat="38.343426" lon="-1.839717">
        <ele>498.2</ele>
        <time>2023-02-18T08:15:50Z</time>
      </trkpt>
      <trkpt lat="38.343415" lon="-1.839637">
        <ele>500.2</ele>
        <time>2023-02-18T08:15:54Z</time>
      </trkpt>
      <trkpt lat="38.343405" lon="-1.839554">
        <ele>499.5</ele>
        <time>2023-02-18T08:15:58Z</time>
      </trkpt>
      <trkpt lat="38.343388" lon="-1.839458">
        <ele>499.5</ele>
        <time>2023-02-18T08:16:03Z</time>
      </trkpt>
      <trkpt lat="38.343370" lon="-1.839381">
        <ele>498.7</ele>
        <time>2023-02-18T08:16:08Z</time>
      </trkpt>
      <trkpt lat="38.343350" lon="-1.839300">
        <ele>498.4</ele>
        <time>2023-02-18T08:16:13Z</time>
      </trkpt>
      <trkpt lat="38.343348" lon="-1.839217">
        <ele>498.4</ele>
        <time>2023-02-18T08:16:18Z</time>
      </trkpt>
      <trkpt lat="38.343343" lon="-1.839128">
        <ele>497.5</ele>
        <time>2023-02-18T08:16:23Z</time>
      </trkpt>
      <trkpt lat="38.343336" lon="-1.839040">
        <ele>496.4</ele>
        <time>2023-02-18T08:16:28Z</time>
      </trkpt>
      <trkpt lat="38.343340" lon="-1.838945">
        <ele>496.7</ele>
        <time>2023-02-18T08:16:34Z</time>
      </trkpt>
      <trkpt lat="38.343348" lon="-1.838865">
        <ele>496.5</ele>
        <time>2023-02-18T08:16:38Z</time>
      </trkpt>
      <trkpt lat="38.343365" lon="-1.838767">
        <ele>496.2</ele>
        <time>2023-02-18T08:16:44Z</time>
      </trkpt>
      <trkpt lat="38.343391" lon="-1.838678">
        <ele>495.6</ele>
        <time>2023-02-18T08:16:49Z</time>
      </trkpt>
      <trkpt lat="38.343417" lon="-1.838598">
        <ele>496.4</ele>
        <time>2023-02-18T08:16:54Z</time>
      </trkpt>
      <trkpt lat="38.343428" lon="-1.838515">
        <ele>496.4</ele>
        <time>2023-02-18T08:16:59Z</time>
      </trkpt>
      <trkpt lat="38.343438" lon="-1.838425">
        <ele>496.7</ele>
        <time>2023-02-18T08:17:05Z</time>
      </trkpt>
      <trkpt lat="38.343445" lon="-1.838341">
        <ele>495.7</ele>
        <time>2023-02-18T08:17:10Z</time>
      </trkpt>
      <trkpt lat="38.343424" lon="-1.838246">
        <ele>495.2</ele>
        <time>2023-02-18T08:17:16Z</time>
      </trkpt>
      <trkpt lat="38.343401" lon="-1.838162">
        <ele>494.5</ele>
        <time>2023-02-18T08:17:21Z</time>
      </trkpt>
      <trkpt lat="38.343385" lon="-1.838071">
        <ele>494.4</ele>
        <time>2023-02-18T08:17:26Z</time>
      </trkpt>
      <trkpt lat="38.343363" lon="-1.837977">
        <ele>493.5</ele>
        <time>2023-02-18T08:17:32Z</time>
      </trkpt>
      <trkpt lat="38.343348" lon="-1.837885">
        <ele>493.4</ele>
        <time>2023-02-18T08:17:37Z</time>
      </trkpt>
      <trkpt lat="38.343352" lon="-1.837791">
        <ele>492.5</ele>
        <time>2023-02-18T08:17:42Z</time>
      </trkpt>
      <trkpt lat="38.343367" lon="-1.837704">
        <ele>492.7</ele>
        <time>2023-02-18T08:17:47Z</time>
      </trkpt>
      <trkpt lat="38.343385" lon="-1.837620">
        <ele>493.2</ele>
        <time>2023-02-18T08:17:52Z</time>
      </trkpt>
      <trkpt lat="38.343393" lon="-1.837532">
        <ele>493.5</ele>
        <time>2023-02-18T08:17:57Z</time>
      </trkpt>
      <trkpt lat="38.343403" lon="-1.837439">
        <ele>492.7</ele>
        <time>2023-02-18T08:18:02Z</time>
      </trkpt>
      <trkpt lat="38.343414" lon="-1.837347">
        <ele>492.5</ele>
        <time>2023-02-18T08:18:08Z</time>
      </trkpt>
      <trkpt lat="38.343415" lon="-1.837248">
        <ele>492.5</ele>
        <time>2023-02-18T08:18:14Z</time>
      </trkpt>
      <trkpt lat="38.343417" lon="-1.837156">
        <ele>492.5</ele>
        <time>2023-02-18T08:18:20Z</time>
      </trkpt>
      <trkpt lat="38.343411" lon="-1.837072">
        <ele>492.5</ele>
        <time>2023-02-18T08:18:25Z</time>
      </trkpt>
      <trkpt lat="38.343424" lon="-1.836985">
        <ele>494.4</ele>
        <time>2023-02-18T08:18:30Z</time>
      </trkpt>
      <trkpt lat="38.343437" lon="-1.836897">
        <ele>494.5</ele>
        <time>2023-02-18T08:18:35Z</time>
      </trkpt>
      <trkpt lat="38.343441" lon="-1.836800">
        <ele>495.4</ele>
        <time>2023-02-18T08:18:40Z</time>
      </trkpt>
      <trkpt lat="38.343447" lon="-1.836715">
        <ele>495.5</ele>
        <time>2023-02-18T08:18:45Z</time>
      </trkpt>
      <trkpt lat="38.343458" lon="-1.836617">
        <ele>495.5</ele>
        <time>2023-02-18T08:18:51Z</time>
      </trkpt>
      <trkpt lat="38.343466" lon="-1.836529">
        <ele>496.5</ele>
        <time>2023-02-18T08:18:56Z</time>
      </trkpt>
      <trkpt lat="38.343470" lon="-1.836446">
        <ele>496.5</ele>
        <time>2023-02-18T08:19:00Z</time>
      </trkpt>
      <trkpt lat="38.343470" lon="-1.836350">
        <ele>495.5</ele>
        <time>2023-02-18T08:19:06Z</time>
      </trkpt>
      <trkpt lat="38.343460" lon="-1.836270">
        <ele>494.3</ele>
        <time>2023-02-18T08:19:11Z</time>
      </trkpt>
      <trkpt lat="38.343445" lon="-1.836182">
        <ele>492.7</ele>
        <time>2023-02-18T08:19:16Z</time>
      </trkpt>
      <trkpt lat="38.343424" lon="-1.836093">
        <ele>492.5</ele>
        <time>2023-02-18T08:19:22Z</time>
      </trkpt>
      <trkpt lat="38.343409" lon="-1.836009">
        <ele>492.4</ele>
        <time>2023-02-18T08:19:27Z</time>
      </trkpt>
      <trkpt lat="38.343394" lon="-1.835930">
        <ele>492.5</ele>
        <time>2023-02-18T08:19:32Z</time>
      </trkpt>
      <trkpt lat="38.343392" lon="-1.835833">
        <ele>492.5</ele>
        <time>2023-02-18T08:19:37Z</time>
      </trkpt>
      <trkpt lat="38.343389" lon="-1.835741">
        <ele>491.5</ele>
        <time>2023-02-18T08:19:42Z</time>
      </trkpt>
      <trkpt lat="38.343393" lon="-1.835656">
        <ele>491.5</ele>
        <time>2023-02-18T08:19:47Z</time>
      </trkpt>
      <trkpt lat="38.343389" lon="-1.835568">
        <ele>492.2</ele>
        <time>2023-02-18T08:19:52Z</time>
      </trkpt>
      <trkpt lat="38.343384" lon="-1.835483">
        <ele>492.7</ele>
        <time>2023-02-18T08:19:57Z</time>
      </trkpt>
      <trkpt lat="38.343386" lon="-1.835397">
        <ele>491.7</ele>
        <time>2023-02-18T08:20:02Z</time>
      </trkpt>
      <trkpt lat="38.343381" lon="-1.835302">
        <ele>492.5</ele>
        <time>2023-02-18T08:20:07Z</time>
      </trkpt>
      <trkpt lat="38.343372" lon="-1.835207">
        <ele>493.5</ele>
        <time>2023-02-18T08:20:13Z</time>
      </trkpt>
      <trkpt lat="38.343364" lon="-1.835124">
        <ele>495.4</ele>
        <time>2023-02-18T08:20:18Z</time>
      </trkpt>
      <trkpt lat="38.343360" lon="-1.835041">
        <ele>494.5</ele>
        <time>2023-02-18T08:20:23Z</time>
      </trkpt>
      <trkpt lat="38.343348" lon="-1.834949">
        <ele>494.4</ele>
        <time>2023-02-18T08:20:29Z</time>
      </trkpt>
      <trkpt lat="38.343339" lon="-1.834858">
        <ele>496.2</ele>
        <time>2023-02-18T08:20:35Z</time>
      </trkpt>
      <trkpt lat="38.343324" lon="-1.834772">
        <ele>495.5</ele>
        <time>2023-02-18T08:20:40Z</time>
      </trkpt>
      <trkpt lat="38.343306" lon="-1.834681">
        <ele>497.4</ele>
        <time>2023-02-18T08:20:45Z</time>
      </trkpt>
      <trkpt lat="38.343296" lon="-1.834586">
        <ele>495.5</ele>
        <time>2023-02-18T08:20:51Z</time>
      </trkpt>
      <trkpt lat="38.343283" lon="-1.834507">
        <ele>495.5</ele>
        <time>2023-02-18T08:20:56Z</time>
      </trkpt>
      <trkpt lat="38.343270" lon="-1.834422">
        <ele>495.5</ele>
        <time>2023-02-18T08:21:01Z</time>
      </trkpt>
      <trkpt lat="38.343252" lon="-1.834342">
        <ele>496.5</ele>
        <time>2023-02-18T08:21:06Z</time>
      </trkpt>
      <trkpt lat="38.343240" lon="-1.834249">
        <ele>496.5</ele>
        <time>2023-02-18T08:21:12Z</time>
      </trkpt>
      <trkpt lat="38.343232" lon="-1.834153">
        <ele>498.2</ele>
        <time>2023-02-18T08:21:18Z</time>
      </trkpt>
      <trkpt lat="38.343224" lon="-1.834070">
        <ele>498.2</ele>
        <time>2023-02-18T08:21:23Z</time>
      </trkpt>
      <trkpt lat="38.343205" lon="-1.833981">
        <ele>497.5</ele>
        <time>2023-02-18T08:21:28Z</time>
      </trkpt>
      <trkpt lat="38.343193" lon="-1.833888">
        <ele>497.5</ele>
        <time>2023-02-18T08:21:34Z</time>
      </trkpt>
      <trkpt lat="38.343182" lon="-1.833796">
        <ele>496.7</ele>
        <time>2023-02-18T08:21:39Z</time>
      </trkpt>
      <trkpt lat="38.343174" lon="-1.833711">
        <ele>496.5</ele>
        <time>2023-02-18T08:21:44Z</time>
      </trkpt>
      <trkpt lat="38.343162" lon="-1.833621">
        <ele>496.5</ele>
        <time>2023-02-18T08:21:49Z</time>
      </trkpt>
      <trkpt lat="38.343149" lon="-1.833542">
        <ele>495.5</ele>
        <time>2023-02-18T08:21:54Z</time>
      </trkpt>
      <trkpt lat="38.343145" lon="-1.833457">
        <ele>494.5</ele>
        <time>2023-02-18T08:21:59Z</time>
      </trkpt>
      <trkpt lat="38.343142" lon="-1.833364">
        <ele>494.5</ele>
        <time>2023-02-18T08:22:06Z</time>
      </trkpt>
      <trkpt lat="38.343132" lon="-1.833267">
        <ele>501.5</ele>
        <time>2023-02-18T08:22:17Z</time>
      </trkpt>
      <trkpt lat="38.343136" lon="-1.833183">
        <ele>500.7</ele>
        <time>2023-02-18T08:22:22Z</time>
      </trkpt>
      <trkpt lat="38.343116" lon="-1.833101">
        <ele>501.4</ele>
        <time>2023-02-18T08:22:27Z</time>
      </trkpt>
      <trkpt lat="38.343113" lon="-1.833010">
        <ele>502.2</ele>
        <time>2023-02-18T08:22:34Z</time>
      </trkpt>
      <trkpt lat="38.343110" lon="-1.832913">
        <ele>502.5</ele>
        <time>2023-02-18T08:22:40Z</time>
      </trkpt>
      <trkpt lat="38.343087" lon="-1.832828">
        <ele>502.5</ele>
        <time>2023-02-18T08:22:47Z</time>
      </trkpt>
      <trkpt lat="38.343069" lon="-1.832733">
        <ele>502.5</ele>
        <time>2023-02-18T08:22:52Z</time>
      </trkpt>
      <trkpt lat="38.343060" lon="-1.832652">
        <ele>501.5</ele>
        <time>2023-02-18T08:22:57Z</time>
      </trkpt>
      <trkpt lat="38.343043" lon="-1.832566">
        <ele>501.5</ele>
        <time>2023-02-18T08:23:02Z</time>
      </trkpt>
      <trkpt lat="38.343029" lon="-1.832481">
        <ele>500.5</ele>
        <time>2023-02-18T08:23:07Z</time>
      </trkpt>
      <trkpt lat="38.343020" lon="-1.832388">
        <ele>498.7</ele>
        <time>2023-02-18T08:23:13Z</time>
      </trkpt>
      <trkpt lat="38.343014" lon="-1.832298">
        <ele>497.5</ele>
        <time>2023-02-18T08:23:19Z</time>
      </trkpt>
      <trkpt lat="38.343009" lon="-1.832212">
        <ele>498.5</ele>
        <time>2023-02-18T08:23:24Z</time>
      </trkpt>
      <trkpt lat="38.342994" lon="-1.832123">
        <ele>497.5</ele>
        <time>2023-02-18T08:23:29Z</time>
      </trkpt>
      <trkpt lat="38.342977" lon="-1.832034">
        <ele>497.5</ele>
        <time>2023-02-18T08:23:34Z</time>
      </trkpt>
      <trkpt lat="38.342963" lon="-1.831948">
        <ele>499.4</ele>
        <time>2023-02-18T08:23:39Z</time>
      </trkpt>
      <trkpt lat="38.342962" lon="-1.831861">
        <ele>500.2</ele>
        <time>2023-02-18T08:23:44Z</time>
      </trkpt>
      <trkpt lat="38.342946" lon="-1.831767">
        <ele>500.5</ele>
        <time>2023-02-18T08:23:50Z</time>
      </trkpt>
      <trkpt lat="38.342934" lon="-1.831682">
        <ele>499.7</ele>
        <time>2023-02-18T08:23:55Z</time>
      </trkpt>
      <trkpt lat="38.342922" lon="-1.831598">
        <ele>499.5</ele>
        <time>2023-02-18T08:24:00Z</time>
      </trkpt>
      <trkpt lat="38.342915" lon="-1.831503">
        <ele>499.5</ele>
        <time>2023-02-18T08:24:06Z</time>
      </trkpt>
      <trkpt lat="38.342904" lon="-1.831420">
        <ele>500.7</ele>
        <time>2023-02-18T08:24:11Z</time>
      </trkpt>
      <trkpt lat="38.342890" lon="-1.831329">
        <ele>500.5</ele>
        <time>2023-02-18T08:24:16Z</time>
      </trkpt>
      <trkpt lat="38.342878" lon="-1.831249">
        <ele>500.5</ele>
        <time>2023-02-18T08:24:21Z</time>
      </trkpt>
      <trkpt lat="38.342866" lon="-1.831158">
        <ele>499.5</ele>
        <time>2023-02-18T08:24:26Z</time>
      </trkpt>
      <trkpt lat="38.342855" lon="-1.831073">
        <ele>500.2</ele>
        <time>2023-02-18T08:24:31Z</time>
      </trkpt>
      <trkpt lat="38.342842" lon="-1.830983">
        <ele>500.5</ele>
        <time>2023-02-18T08:24:37Z</time>
      </trkpt>
      <trkpt lat="38.342830" lon="-1.830891">
        <ele>499.5</ele>
        <time>2023-02-18T08:24:43Z</time>
      </trkpt>
      <trkpt lat="38.342820" lon="-1.830803">
        <ele>499.5</ele>
        <time>2023-02-18T08:24:48Z</time>
      </trkpt>
      <trkpt lat="38.342808" lon="-1.830716">
        <ele>500.5</ele>
        <time>2023-02-18T08:24:53Z</time>
      </trkpt>
      <trkpt lat="38.342795" lon="-1.830631">
        <ele>500.5</ele>
        <time>2023-02-18T08:24:58Z</time>
      </trkpt>
      <trkpt lat="38.342788" lon="-1.830546">
        <ele>500.4</ele>
        <time>2023-02-18T08:25:03Z</time>
      </trkpt>
      <trkpt lat="38.342786" lon="-1.830462">
        <ele>500.5</ele>
        <time>2023-02-18T08:25:08Z</time>
      </trkpt>
      <trkpt lat="38.342802" lon="-1.830367">
        <ele>503.1</ele>
        <time>2023-02-18T08:25:18Z</time>
      </trkpt>
      <trkpt lat="38.342817" lon="-1.830274">
        <ele>503.7</ele>
        <time>2023-02-18T08:25:24Z</time>
      </trkpt>
      <trkpt lat="38.342839" lon="-1.830186">
        <ele>504.5</ele>
        <time>2023-02-18T08:25:29Z</time>
      </trkpt>
      <trkpt lat="38.342865" lon="-1.830097">
        <ele>503.5</ele>
        <time>2023-02-18T08:25:35Z</time>
      </trkpt>
      <trkpt lat="38.342883" lon="-1.830014">
        <ele>503.4</ele>
        <time>2023-02-18T08:25:40Z</time>
      </trkpt>
      <trkpt lat="38.342918" lon="-1.829928">
        <ele>503.4</ele>
        <time>2023-02-18T08:25:46Z</time>
      </trkpt>
      <trkpt lat="38.342946" lon="-1.829846">
        <ele>503.5</ele>
        <time>2023-02-18T08:25:51Z</time>
      </trkpt>
      <trkpt lat="38.342974" lon="-1.829764">
        <ele>502.5</ele>
        <time>2023-02-18T08:25:56Z</time>
      </trkpt>
      <trkpt lat="38.343015" lon="-1.829690">
        <ele>503.5</ele>
        <time>2023-02-18T08:26:01Z</time>
      </trkpt>
      <trkpt lat="38.343065" lon="-1.829632">
        <ele>501.7</ele>
        <time>2023-02-18T08:26:06Z</time>
      </trkpt>
      <trkpt lat="38.343138" lon="-1.829606">
        <ele>502.5</ele>
        <time>2023-02-18T08:26:11Z</time>
      </trkpt>
      <trkpt lat="38.343202" lon="-1.829599">
        <ele>502.5</ele>
        <time>2023-02-18T08:26:16Z</time>
      </trkpt>
      <trkpt lat="38.343270" lon="-1.829586">
        <ele>503.3</ele>
        <time>2023-02-18T08:26:21Z</time>
      </trkpt>
      <trkpt lat="38.343331" lon="-1.829562">
        <ele>502.5</ele>
        <time>2023-02-18T08:26:26Z</time>
      </trkpt>
      <trkpt lat="38.343393" lon="-1.829519">
        <ele>503.5</ele>
        <time>2023-02-18T08:26:31Z</time>
      </trkpt>
      <trkpt lat="38.343459" lon="-1.829474">
        <ele>503.5</ele>
        <time>2023-02-18T08:26:36Z</time>
      </trkpt>
      <trkpt lat="38.343503" lon="-1.829424">
        <ele>502.5</ele>
        <time>2023-02-18T08:26:41Z</time>
      </trkpt>
      <trkpt lat="38.343502" lon="-1.829363">
        <ele>503.2</ele>
        <time>2023-02-18T08:26:46Z</time>
      </trkpt>
      <trkpt lat="38.343550" lon="-1.829306">
        <ele>502.5</ele>
        <time>2023-02-18T08:26:51Z</time>
      </trkpt>
      <trkpt lat="38.343602" lon="-1.829249">
        <ele>504.4</ele>
        <time>2023-02-18T08:26:56Z</time>
      </trkpt>
      <trkpt lat="38.343617" lon="-1.829177">
        <ele>506.4</ele>
        <time>2023-02-18T08:27:14Z</time>
      </trkpt>
      <trkpt lat="38.343648" lon="-1.829138">
        <ele>508.8</ele>
        <time>2023-02-18T08:27:21Z</time>
      </trkpt>
      <trkpt lat="38.343651" lon="-1.829064">
        <ele>507.5</ele>
        <time>2023-02-18T08:27:25Z</time>
      </trkpt>
      <trkpt lat="38.343676" lon="-1.828989">
        <ele>505.7</ele>
        <time>2023-02-18T08:27:30Z</time>
      </trkpt>
      <trkpt lat="38.343691" lon="-1.828911">
        <ele>503.5</ele>
        <time>2023-02-18T08:27:37Z</time>
      </trkpt>
      <trkpt lat="38.343674" lon="-1.828827">
        <ele>502.4</ele>
        <time>2023-02-18T08:27:42Z</time>
      </trkpt>
      <trkpt lat="38.343677" lon="-1.828740">
        <ele>501.7</ele>
        <time>2023-02-18T08:27:47Z</time>
      </trkpt>
      <trkpt lat="38.343663" lon="-1.828648">
        <ele>501.3</ele>
        <time>2023-02-18T08:27:52Z</time>
      </trkpt>
      <trkpt lat="38.343646" lon="-1.828564">
        <ele>501.3</ele>
        <time>2023-02-18T08:27:56Z</time>
      </trkpt>
      <trkpt lat="38.343629" lon="-1.828485">
        <ele>500.5</ele>
        <time>2023-02-18T08:28:00Z</time>
      </trkpt>
      <trkpt lat="38.343608" lon="-1.828406">
        <ele>498.3</ele>
        <time>2023-02-18T08:28:05Z</time>
      </trkpt>
      <trkpt lat="38.343584" lon="-1.828323">
        <ele>497.5</ele>
        <time>2023-02-18T08:28:10Z</time>
      </trkpt>
      <trkpt lat="38.343563" lon="-1.828239">
        <ele>495.7</ele>
        <time>2023-02-18T08:28:15Z</time>
      </trkpt>
      <trkpt lat="38.343526" lon="-1.828169">
        <ele>495.5</ele>
        <time>2023-02-18T08:28:20Z</time>
      </trkpt>
      <trkpt lat="38.343488" lon="-1.828103">
        <ele>495.4</ele>
        <time>2023-02-18T08:28:24Z</time>
      </trkpt>
      <trkpt lat="38.343453" lon="-1.828029">
        <ele>496.5</ele>
        <time>2023-02-18T08:28:28Z</time>
      </trkpt>
      <trkpt lat="38.343439" lon="-1.827947">
        <ele>495.5</ele>
        <time>2023-02-18T08:28:33Z</time>
      </trkpt>
      <trkpt lat="38.343481" lon="-1.827834">
        <ele>497.2</ele>
        <time>2023-02-18T08:28:38Z</time>
      </trkpt>
      <trkpt lat="38.343542" lon="-1.827768">
        <ele>497.5</ele>
        <time>2023-02-18T08:28:43Z</time>
      </trkpt>
      <trkpt lat="38.343608" lon="-1.827743">
        <ele>497.5</ele>
        <time>2023-02-18T08:28:49Z</time>
      </trkpt>
      <trkpt lat="38.343684" lon="-1.827756">
        <ele>497.5</ele>
        <time>2023-02-18T08:28:53Z</time>
      </trkpt>
      <trkpt lat="38.343752" lon="-1.827737">
        <ele>497.4</ele>
        <time>2023-02-18T08:30:29Z</time>
      </trkpt>
      <trkpt lat="38.343822" lon="-1.827714">
        <ele>499.2</ele>
        <time>2023-02-18T08:30:33Z</time>
      </trkpt>
      <trkpt lat="38.343898" lon="-1.827736">
        <ele>498.5</ele>
        <time>2023-02-18T08:30:38Z</time>
      </trkpt>
      <trkpt lat="38.343972" lon="-1.827763">
        <ele>500.3</ele>
        <time>2023-02-18T08:30:43Z</time>
      </trkpt>
      <trkpt lat="38.344037" lon="-1.827783">
        <ele>500.5</ele>
        <time>2023-02-18T08:30:47Z</time>
      </trkpt>
      <trkpt lat="38.344098" lon="-1.827812">
        <ele>500.5</ele>
        <time>2023-02-18T08:30:51Z</time>
      </trkpt>
      <trkpt lat="38.344162" lon="-1.827828">
        <ele>501.5</ele>
        <time>2023-02-18T08:30:55Z</time>
      </trkpt>
      <trkpt lat="38.344219" lon="-1.827866">
        <ele>503.4</ele>
        <time>2023-02-18T08:30:59Z</time>
      </trkpt>
      <trkpt lat="38.344272" lon="-1.827931">
        <ele>503.3</ele>
        <time>2023-02-18T08:31:03Z</time>
      </trkpt>
      <trkpt lat="38.344328" lon="-1.827999">
        <ele>503.5</ele>
        <time>2023-02-18T08:31:08Z</time>
      </trkpt>
      <trkpt lat="38.344375" lon="-1.828060">
        <ele>503.5</ele>
        <time>2023-02-18T08:31:12Z</time>
      </trkpt>
      <trkpt lat="38.344423" lon="-1.828124">
        <ele>505.4</ele>
        <time>2023-02-18T08:31:17Z</time>
      </trkpt>
      <trkpt lat="38.344460" lon="-1.828189">
        <ele>504.5</ele>
        <time>2023-02-18T08:31:22Z</time>
      </trkpt>
      <trkpt lat="38.344504" lon="-1.828265">
        <ele>503.7</ele>
        <time>2023-02-18T08:31:27Z</time>
      </trkpt>
      <trkpt lat="38.344548" lon="-1.828326">
        <ele>503.5</ele>
        <time>2023-02-18T08:31:31Z</time>
      </trkpt>
      <trkpt lat="38.344597" lon="-1.828388">
        <ele>503.5</ele>
        <time>2023-02-18T08:31:36Z</time>
      </trkpt>
      <trkpt lat="38.344644" lon="-1.828452">
        <ele>504.5</ele>
        <time>2023-02-18T08:31:41Z</time>
      </trkpt>
      <trkpt lat="38.344688" lon="-1.828511">
        <ele>506.5</ele>
        <time>2023-02-18T08:31:46Z</time>
      </trkpt>
      <trkpt lat="38.344731" lon="-1.828570">
        <ele>508.2</ele>
        <time>2023-02-18T08:31:51Z</time>
      </trkpt>
      <trkpt lat="38.344769" lon="-1.828647">
        <ele>507.5</ele>
        <time>2023-02-18T08:31:57Z</time>
      </trkpt>
      <trkpt lat="38.344814" lon="-1.828715">
        <ele>507.5</ele>
        <time>2023-02-18T08:32:02Z</time>
      </trkpt>
      <trkpt lat="38.344861" lon="-1.828773">
        <ele>508.5</ele>
        <time>2023-02-18T08:32:07Z</time>
      </trkpt>
      <trkpt lat="38.344920" lon="-1.828828">
        <ele>509.5</ele>
        <time>2023-02-18T08:32:13Z</time>
      </trkpt>
      <trkpt lat="38.344978" lon="-1.828889">
        <ele>509.5</ele>
        <time>2023-02-18T08:32:19Z</time>
      </trkpt>
      <trkpt lat="38.345028" lon="-1.828956">
        <ele>510.5</ele>
        <time>2023-02-18T08:32:24Z</time>
      </trkpt>
      <trkpt lat="38.345075" lon="-1.829016">
        <ele>510.5</ele>
        <time>2023-02-18T08:32:29Z</time>
      </trkpt>
      <trkpt lat="38.345124" lon="-1.829088">
        <ele>511.3</ele>
        <time>2023-02-18T08:32:34Z</time>
      </trkpt>
      <trkpt lat="38.345172" lon="-1.829157">
        <ele>511.5</ele>
        <time>2023-02-18T08:32:39Z</time>
      </trkpt>
      <trkpt lat="38.345218" lon="-1.829234">
        <ele>510.5</ele>
        <time>2023-02-18T08:32:45Z</time>
      </trkpt>
      <trkpt lat="38.345265" lon="-1.829300">
        <ele>510.5</ele>
        <time>2023-02-18T08:32:50Z</time>
      </trkpt>
      <trkpt lat="38.345316" lon="-1.829373">
        <ele>509.5</ele>
        <time>2023-02-18T08:32:56Z</time>
      </trkpt>
      <trkpt lat="38.345356" lon="-1.829442">
        <ele>510.5</ele>
        <time>2023-02-18T08:33:01Z</time>
      </trkpt>
      <trkpt lat="38.345392" lon="-1.829522">
        <ele>509.5</ele>
        <time>2023-02-18T08:33:07Z</time>
      </trkpt>
      <trkpt lat="38.345437" lon="-1.829594">
        <ele>510.4</ele>
        <time>2023-02-18T08:33:12Z</time>
      </trkpt>
      <trkpt lat="38.345476" lon="-1.829663">
        <ele>509.5</ele>
        <time>2023-02-18T08:33:17Z</time>
      </trkpt>
      <trkpt lat="38.345509" lon="-1.829739">
        <ele>510.2</ele>
        <time>2023-02-18T08:33:22Z</time>
      </trkpt>
      <trkpt lat="38.345546" lon="-1.829815">
        <ele>511.5</ele>
        <time>2023-02-18T08:33:27Z</time>
      </trkpt>
      <trkpt lat="38.345588" lon="-1.829892">
        <ele>512.2</ele>
        <time>2023-02-18T08:33:32Z</time>
      </trkpt>
      <trkpt lat="38.345626" lon="-1.829963">
        <ele>512.5</ele>
        <time>2023-02-18T08:33:37Z</time>
      </trkpt>
      <trkpt lat="38.345665" lon="-1.830049">
        <ele>511.5</ele>
        <time>2023-02-18T08:33:42Z</time>
      </trkpt>
      <trkpt lat="38.345699" lon="-1.830123">
        <ele>510.7</ele>
        <time>2023-02-18T08:33:47Z</time>
      </trkpt>
      <trkpt lat="38.345746" lon="-1.830195">
        <ele>511.7</ele>
        <time>2023-02-18T08:33:53Z</time>
      </trkpt>
      <trkpt lat="38.345793" lon="-1.830274">
        <ele>514.0</ele>
        <time>2023-02-18T08:34:20Z</time>
      </trkpt>
      <trkpt lat="38.345835" lon="-1.830357">
        <ele>511.5</ele>
        <time>2023-02-18T08:34:26Z</time>
      </trkpt>
      <trkpt lat="38.345868" lon="-1.830430">
        <ele>509.5</ele>
        <time>2023-02-18T08:34:31Z</time>
      </trkpt>
      <trkpt lat="38.345915" lon="-1.830503">
        <ele>509.5</ele>
        <time>2023-02-18T08:34:36Z</time>
      </trkpt>
      <trkpt lat="38.345969" lon="-1.830565">
        <ele>509.3</ele>
        <time>2023-02-18T08:34:41Z</time>
      </trkpt>
      <trkpt lat="38.346007" lon="-1.830633">
        <ele>509.5</ele>
        <time>2023-02-18T08:34:45Z</time>
      </trkpt>
      <trkpt lat="38.346057" lon="-1.830706">
        <ele>511.4</ele>
        <time>2023-02-18T08:34:50Z</time>
      </trkpt>
      <trkpt lat="38.346108" lon="-1.830761">
        <ele>511.5</ele>
        <time>2023-02-18T08:34:55Z</time>
      </trkpt>
      <trkpt lat="38.346163" lon="-1.830820">
        <ele>512.5</ele>
        <time>2023-02-18T08:35:00Z</time>
      </trkpt>
      <trkpt lat="38.346219" lon="-1.830871">
        <ele>512.5</ele>
        <time>2023-02-18T08:35:05Z</time>
      </trkpt>
      <trkpt lat="38.346276" lon="-1.830927">
        <ele>511.5</ele>
        <time>2023-02-18T08:35:10Z</time>
      </trkpt>
      <trkpt lat="38.346335" lon="-1.830990">
        <ele>510.5</ele>
        <time>2023-02-18T08:35:15Z</time>
      </trkpt>
      <trkpt lat="38.346392" lon="-1.831043">
        <ele>510.5</ele>
        <time>2023-02-18T08:35:20Z</time>
      </trkpt>
      <trkpt lat="38.346454" lon="-1.831086">
        <ele>510.4</ele>
        <time>2023-02-18T08:35:25Z</time>
      </trkpt>
      <trkpt lat="38.346514" lon="-1.831139">
        <ele>510.5</ele>
        <time>2023-02-18T08:35:30Z</time>
      </trkpt>
      <trkpt lat="38.346560" lon="-1.831212">
        <ele>508.7</ele>
        <time>2023-02-18T08:35:36Z</time>
      </trkpt>
      <trkpt lat="38.346608" lon="-1.831281">
        <ele>506.7</ele>
        <time>2023-02-18T08:35:42Z</time>
      </trkpt>
      <trkpt lat="38.346662" lon="-1.831336">
        <ele>506.5</ele>
        <time>2023-02-18T08:35:47Z</time>
      </trkpt>
      <trkpt lat="38.346714" lon="-1.831398">
        <ele>506.5</ele>
        <time>2023-02-18T08:35:52Z</time>
      </trkpt>
      <trkpt lat="38.346767" lon="-1.831468">
        <ele>505.6</ele>
        <time>2023-02-18T08:35:57Z</time>
      </trkpt>
      <trkpt lat="38.346810" lon="-1.831544">
        <ele>505.5</ele>
        <time>2023-02-18T08:36:02Z</time>
      </trkpt>
      <trkpt lat="38.346853" lon="-1.831609">
        <ele>505.5</ele>
        <time>2023-02-18T08:36:07Z</time>
      </trkpt>
      <trkpt lat="38.346899" lon="-1.831674">
        <ele>505.5</ele>
        <time>2023-02-18T08:36:11Z</time>
      </trkpt>
      <trkpt lat="38.346946" lon="-1.831745">
        <ele>506.2</ele>
        <time>2023-02-18T08:36:16Z</time>
      </trkpt>
      <trkpt lat="38.346998" lon="-1.831801">
        <ele>505.5</ele>
        <time>2023-02-18T08:36:21Z</time>
      </trkpt>
      <trkpt lat="38.347047" lon="-1.831859">
        <ele>504.5</ele>
        <time>2023-02-18T08:36:26Z</time>
      </trkpt>
      <trkpt lat="38.347095" lon="-1.831914">
        <ele>503.5</ele>
        <time>2023-02-18T08:36:31Z</time>
      </trkpt>
      <trkpt lat="38.347158" lon="-1.831956">
        <ele>504.5</ele>
        <time>2023-02-18T08:36:37Z</time>
      </trkpt>
      <trkpt lat="38.347222" lon="-1.832000">
        <ele>503.5</ele>
        <time>2023-02-18T08:36:43Z</time>
      </trkpt>
      <trkpt lat="38.347294" lon="-1.832003">
        <ele>502.5</ele>
        <time>2023-02-18T08:36:49Z</time>
      </trkpt>
      <trkpt lat="38.347361" lon="-1.831980">
        <ele>502.5</ele>
        <time>2023-02-18T08:36:54Z</time>
      </trkpt>
      <trkpt lat="38.347426" lon="-1.831954">
        <ele>501.7</ele>
        <time>2023-02-18T08:36:59Z</time>
      </trkpt>
      <trkpt lat="38.347490" lon="-1.831931">
        <ele>499.5</ele>
        <time>2023-02-18T08:37:05Z</time>
      </trkpt>
      <trkpt lat="38.347566" lon="-1.831942">
        <ele>499.5</ele>
        <time>2023-02-18T08:37:09Z</time>
      </trkpt>
      <trkpt lat="38.347630" lon="-1.831980">
        <ele>500.5</ele>
        <time>2023-02-18T08:37:14Z</time>
      </trkpt>
      <trkpt lat="38.347688" lon="-1.832027">
        <ele>501.4</ele>
        <time>2023-02-18T08:37:19Z</time>
      </trkpt>
      <trkpt lat="38.347743" lon="-1.832079">
        <ele>502.4</ele>
        <time>2023-02-18T08:37:24Z</time>
      </trkpt>
      <trkpt lat="38.347801" lon="-1.832140">
        <ele>503.5</ele>
        <time>2023-02-18T08:37:29Z</time>
      </trkpt>
      <trkpt lat="38.347854" lon="-1.832193">
        <ele>502.5</ele>
        <time>2023-02-18T08:37:35Z</time>
      </trkpt>
      <trkpt lat="38.347909" lon="-1.832237">
        <ele>502.5</ele>
        <time>2023-02-18T08:37:40Z</time>
      </trkpt>
      <trkpt lat="38.347970" lon="-1.832270">
        <ele>501.5</ele>
        <time>2023-02-18T08:37:45Z</time>
      </trkpt>
      <trkpt lat="38.348022" lon="-1.832320">
        <ele>501.4</ele>
        <time>2023-02-18T08:37:50Z</time>
      </trkpt>
      <trkpt lat="38.348077" lon="-1.832365">
        <ele>501.5</ele>
        <time>2023-02-18T08:37:54Z</time>
      </trkpt>
      <trkpt lat="38.348139" lon="-1.832411">
        <ele>502.2</ele>
        <time>2023-02-18T08:38:01Z</time>
      </trkpt>
      <trkpt lat="38.348197" lon="-1.832468">
        <ele>502.4</ele>
        <time>2023-02-18T08:38:06Z</time>
      </trkpt>
      <trkpt lat="38.348252" lon="-1.832510">
        <ele>503.5</ele>
        <time>2023-02-18T08:38:11Z</time>
      </trkpt>
      <trkpt lat="38.348306" lon="-1.832554">
        <ele>503.5</ele>
        <time>2023-02-18T08:38:16Z</time>
      </trkpt>
      <trkpt lat="38.348365" lon="-1.832603">
        <ele>503.5</ele>
        <time>2023-02-18T08:38:21Z</time>
      </trkpt>
      <trkpt lat="38.348423" lon="-1.832658">
        <ele>503.5</ele>
        <time>2023-02-18T08:38:28Z</time>
      </trkpt>
      <trkpt lat="38.348479" lon="-1.832719">
        <ele>503.5</ele>
        <time>2023-02-18T08:38:33Z</time>
      </trkpt>
      <trkpt lat="38.348530" lon="-1.832780">
        <ele>503.5</ele>
        <time>2023-02-18T08:38:38Z</time>
      </trkpt>
      <trkpt lat="38.348590" lon="-1.832832">
        <ele>504.5</ele>
        <time>2023-02-18T08:38:43Z</time>
      </trkpt>
      <trkpt lat="38.348642" lon="-1.832892">
        <ele>503.7</ele>
        <time>2023-02-18T08:38:48Z</time>
      </trkpt>
      <trkpt lat="38.348698" lon="-1.832941">
        <ele>504.5</ele>
        <time>2023-02-18T08:38:53Z</time>
      </trkpt>
      <trkpt lat="38.348751" lon="-1.833004">
        <ele>503.5</ele>
        <time>2023-02-18T08:38:58Z</time>
      </trkpt>
      <trkpt lat="38.348802" lon="-1.833065">
        <ele>504.4</ele>
        <time>2023-02-18T08:39:04Z</time>
      </trkpt>
      <trkpt lat="38.348870" lon="-1.833112">
        <ele>505.4</ele>
        <time>2023-02-18T08:39:10Z</time>
      </trkpt>
      <trkpt lat="38.348935" lon="-1.833146">
        <ele>506.5</ele>
        <time>2023-02-18T08:39:15Z</time>
      </trkpt>
      <trkpt lat="38.348997" lon="-1.833162">
        <ele>506.5</ele>
        <time>2023-02-18T08:39:20Z</time>
      </trkpt>
      <trkpt lat="38.349063" lon="-1.833178">
        <ele>505.5</ele>
        <time>2023-02-18T08:39:26Z</time>
      </trkpt>
      <trkpt lat="38.349131" lon="-1.833193">
        <ele>505.5</ele>
        <time>2023-02-18T08:39:32Z</time>
      </trkpt>
      <trkpt lat="38.349194" lon="-1.833183">
        <ele>504.5</ele>
        <time>2023-02-18T08:39:37Z</time>
      </trkpt>
      <trkpt lat="38.349258" lon="-1.833184">
        <ele>504.7</ele>
        <time>2023-02-18T08:39:42Z</time>
      </trkpt>
      <trkpt lat="38.349326" lon="-1.833167">
        <ele>504.5</ele>
        <time>2023-02-18T08:39:47Z</time>
      </trkpt>
      <trkpt lat="38.349399" lon="-1.833162">
        <ele>504.5</ele>
        <time>2023-02-18T08:39:53Z</time>
      </trkpt>
      <trkpt lat="38.349462" lon="-1.833174">
        <ele>504.5</ele>
        <time>2023-02-18T08:39:58Z</time>
      </trkpt>
      <trkpt lat="38.349528" lon="-1.833169">
        <ele>504.5</ele>
        <time>2023-02-18T08:40:03Z</time>
      </trkpt>
      <trkpt lat="38.349599" lon="-1.833154">
        <ele>504.5</ele>
        <time>2023-02-18T08:40:08Z</time>
      </trkpt>
      <trkpt lat="38.349666" lon="-1.833142">
        <ele>505.4</ele>
        <time>2023-02-18T08:40:13Z</time>
      </trkpt>
      <trkpt lat="38.349730" lon="-1.833129">
        <ele>504.5</ele>
        <time>2023-02-18T08:40:18Z</time>
      </trkpt>
      <trkpt lat="38.349803" lon="-1.833116">
        <ele>503.5</ele>
        <time>2023-02-18T08:40:24Z</time>
      </trkpt>
      <trkpt lat="38.349868" lon="-1.833094">
        <ele>502.7</ele>
        <time>2023-02-18T08:40:29Z</time>
      </trkpt>
      <trkpt lat="38.349929" lon="-1.833061">
        <ele>503.5</ele>
        <time>2023-02-18T08:40:34Z</time>
      </trkpt>
      <trkpt lat="38.350001" lon="-1.833008">
        <ele>503.5</ele>
        <time>2023-02-18T08:40:40Z</time>
      </trkpt>
      <trkpt lat="38.350056" lon="-1.832961">
        <ele>501.7</ele>
        <time>2023-02-18T08:40:45Z</time>
      </trkpt>
      <trkpt lat="38.350115" lon="-1.832904">
        <ele>503.4</ele>
        <time>2023-02-18T08:40:50Z</time>
      </trkpt>
      <trkpt lat="38.350180" lon="-1.832837">
        <ele>505.4</ele>
        <time>2023-02-18T08:40:55Z</time>
      </trkpt>
      <trkpt lat="38.350232" lon="-1.832787">
        <ele>506.4</ele>
        <time>2023-02-18T08:41:00Z</time>
      </trkpt>
      <trkpt lat="38.350295" lon="-1.832734">
        <ele>507.4</ele>
        <time>2023-02-18T08:41:21Z</time>
      </trkpt>
      <trkpt lat="38.350350" lon="-1.832680">
        <ele>506.5</ele>
        <time>2023-02-18T08:41:27Z</time>
      </trkpt>
      <trkpt lat="38.350408" lon="-1.832627">
        <ele>507.5</ele>
        <time>2023-02-18T08:41:32Z</time>
      </trkpt>
      <trkpt lat="38.350461" lon="-1.832569">
        <ele>507.5</ele>
        <time>2023-02-18T08:41:39Z</time>
      </trkpt>
      <trkpt lat="38.350490" lon="-1.832484">
        <ele>506.5</ele>
        <time>2023-02-18T08:41:45Z</time>
      </trkpt>
      <trkpt lat="38.350530" lon="-1.832411">
        <ele>507.5</ele>
        <time>2023-02-18T08:41:50Z</time>
      </trkpt>
      <trkpt lat="38.350567" lon="-1.832337">
        <ele>508.5</ele>
        <time>2023-02-18T08:41:55Z</time>
      </trkpt>
      <trkpt lat="38.350602" lon="-1.832262">
        <ele>509.5</ele>
        <time>2023-02-18T08:42:00Z</time>
      </trkpt>
      <trkpt lat="38.350639" lon="-1.832188">
        <ele>509.5</ele>
        <time>2023-02-18T08:42:05Z</time>
      </trkpt>
      <trkpt lat="38.350672" lon="-1.832112">
        <ele>509.5</ele>
        <time>2023-02-18T08:42:12Z</time>
      </trkpt>
      <trkpt lat="38.350707" lon="-1.832036">
        <ele>510.4</ele>
        <time>2023-02-18T08:42:17Z</time>
      </trkpt>
      <trkpt lat="38.350722" lon="-1.831956">
        <ele>510.4</ele>
        <time>2023-02-18T08:42:22Z</time>
      </trkpt>
      <trkpt lat="38.350706" lon="-1.831877">
        <ele>510.0</ele>
        <time>2023-02-18T08:42:38Z</time>
      </trkpt>
      <trkpt lat="38.350762" lon="-1.831834">
        <ele>508.6</ele>
        <time>2023-02-18T08:42:52Z</time>
      </trkpt>
      <trkpt lat="38.350782" lon="-1.831751">
        <ele>509.4</ele>
        <time>2023-02-18T08:42:57Z</time>
      </trkpt>
      <trkpt lat="38.350792" lon="-1.831662">
        <ele>509.5</ele>
        <time>2023-02-18T08:43:01Z</time>
      </trkpt>
      <trkpt lat="38.350810" lon="-1.831574">
        <ele>508.5</ele>
        <time>2023-02-18T08:43:06Z</time>
      </trkpt>
      <trkpt lat="38.350821" lon="-1.831470">
        <ele>510.4</ele>
        <time>2023-02-18T08:43:11Z</time>
      </trkpt>
      <trkpt lat="38.350829" lon="-1.831383">
        <ele>510.5</ele>
        <time>2023-02-18T08:43:16Z</time>
      </trkpt>
      <trkpt lat="38.350845" lon="-1.831300">
        <ele>511.2</ele>
        <time>2023-02-18T08:43:21Z</time>
      </trkpt>
      <trkpt lat="38.350859" lon="-1.831219">
        <ele>512.4</ele>
        <time>2023-02-18T08:43:26Z</time>
      </trkpt>
      <trkpt lat="38.350873" lon="-1.831132">
        <ele>511.5</ele>
        <time>2023-02-18T08:43:31Z</time>
      </trkpt>
      <trkpt lat="38.350900" lon="-1.831046">
        <ele>510.5</ele>
        <time>2023-02-18T08:43:36Z</time>
      </trkpt>
      <trkpt lat="38.350930" lon="-1.830968">
        <ele>510.2</ele>
        <time>2023-02-18T08:43:41Z</time>
      </trkpt>
      <trkpt lat="38.350976" lon="-1.830879">
        <ele>510.4</ele>
        <time>2023-02-18T08:43:46Z</time>
      </trkpt>
      <trkpt lat="38.351018" lon="-1.830805">
        <ele>511.4</ele>
        <time>2023-02-18T08:43:52Z</time>
      </trkpt>
      <trkpt lat="38.351055" lon="-1.830723">
        <ele>512.5</ele>
        <time>2023-02-18T08:43:58Z</time>
      </trkpt>
      <trkpt lat="38.351089" lon="-1.830650">
        <ele>512.5</ele>
        <time>2023-02-18T08:44:03Z</time>
      </trkpt>
      <trkpt lat="38.351125" lon="-1.830567">
        <ele>512.2</ele>
        <time>2023-02-18T08:44:08Z</time>
      </trkpt>
      <trkpt lat="38.351142" lon="-1.830480">
        <ele>512.5</ele>
        <time>2023-02-18T08:44:13Z</time>
      </trkpt>
      <trkpt lat="38.351172" lon="-1.830400">
        <ele>511.5</ele>
        <time>2023-02-18T08:44:18Z</time>
      </trkpt>
      <trkpt lat="38.351228" lon="-1.830351">
        <ele>511.5</ele>
        <time>2023-02-18T08:44:23Z</time>
      </trkpt>
      <trkpt lat="38.351286" lon="-1.830310">
        <ele>512.2</ele>
        <time>2023-02-18T08:44:27Z</time>
      </trkpt>
      <trkpt lat="38.351356" lon="-1.830290">
        <ele>511.5</ele>
        <time>2023-02-18T08:44:33Z</time>
      </trkpt>
      <trkpt lat="38.351421" lon="-1.830263">
        <ele>510.5</ele>
        <time>2023-02-18T08:44:39Z</time>
      </trkpt>
      <trkpt lat="38.351480" lon="-1.830197">
        <ele>509.5</ele>
        <time>2023-02-18T08:44:46Z</time>
      </trkpt>
      <trkpt lat="38.351510" lon="-1.830123">
        <ele>506.7</ele>
        <time>2023-02-18T08:44:53Z</time>
      </trkpt>
      <trkpt lat="38.351563" lon="-1.830062">
        <ele>507.4</ele>
        <time>2023-02-18T08:44:59Z</time>
      </trkpt>
      <trkpt lat="38.351617" lon="-1.830009">
        <ele>505.5</ele>
        <time>2023-02-18T08:45:08Z</time>
      </trkpt>
      <trkpt lat="38.351658" lon="-1.829936">
        <ele>504.5</ele>
        <time>2023-02-18T08:45:14Z</time>
      </trkpt>
      <trkpt lat="38.351706" lon="-1.829873">
        <ele>503.5</ele>
        <time>2023-02-18T08:45:19Z</time>
      </trkpt>
      <trkpt lat="38.351757" lon="-1.829811">
        <ele>503.5</ele>
        <time>2023-02-18T08:45:24Z</time>
      </trkpt>
      <trkpt lat="38.351807" lon="-1.829749">
        <ele>503.7</ele>
        <time>2023-02-18T08:45:31Z</time>
      </trkpt>
      <trkpt lat="38.351826" lon="-1.829664">
        <ele>501.7</ele>
        <time>2023-02-18T08:45:39Z</time>
      </trkpt>
      <trkpt lat="38.351839" lon="-1.829583">
        <ele>500.7</ele>
        <time>2023-02-18T08:45:44Z</time>
      </trkpt>
      <trkpt lat="38.351878" lon="-1.829499">
        <ele>500.5</ele>
        <time>2023-02-18T08:45:49Z</time>
      </trkpt>
      <trkpt lat="38.351920" lon="-1.829438">
        <ele>500.5</ele>
        <time>2023-02-18T08:45:54Z</time>
      </trkpt>
      <trkpt lat="38.351962" lon="-1.829359">
        <ele>500.5</ele>
        <time>2023-02-18T08:45:59Z</time>
      </trkpt>
      <trkpt lat="38.351995" lon="-1.829290">
        <ele>498.5</ele>
        <time>2023-02-18T08:46:05Z</time>
      </trkpt>
      <trkpt lat="38.352024" lon="-1.829184">
        <ele>495.5</ele>
        <time>2023-02-18T08:46:11Z</time>
      </trkpt>
      <trkpt lat="38.352092" lon="-1.829150">
        <ele>495.4</ele>
        <time>2023-02-18T08:46:16Z</time>
      </trkpt>
      <trkpt lat="38.352154" lon="-1.829192">
        <ele>494.5</ele>
        <time>2023-02-18T08:46:24Z</time>
      </trkpt>
      <trkpt lat="38.352218" lon="-1.829219">
        <ele>494.5</ele>
        <time>2023-02-18T08:46:30Z</time>
      </trkpt>
      <trkpt lat="38.352289" lon="-1.829242">
        <ele>498.1</ele>
        <time>2023-02-18T08:46:35Z</time>
      </trkpt>
      <trkpt lat="38.352348" lon="-1.829276">
        <ele>497.7</ele>
        <time>2023-02-18T08:46:39Z</time>
      </trkpt>
      <trkpt lat="38.352401" lon="-1.829325">
        <ele>499.4</ele>
        <time>2023-02-18T08:46:44Z</time>
      </trkpt>
      <trkpt lat="38.352385" lon="-1.829463">
        <ele>498.5</ele>
        <time>2023-02-18T08:46:49Z</time>
      </trkpt>
      <trkpt lat="38.352417" lon="-1.829538">
        <ele>497.5</ele>
        <time>2023-02-18T08:46:55Z</time>
      </trkpt>
      <trkpt lat="38.352428" lon="-1.829627">
        <ele>498.5</ele>
        <time>2023-02-18T08:47:02Z</time>
      </trkpt>
      <trkpt lat="38.352423" lon="-1.829710">
        <ele>498.4</ele>
        <time>2023-02-18T08:47:07Z</time>
      </trkpt>
      <trkpt lat="38.352423" lon="-1.829799">
        <ele>499.2</ele>
        <time>2023-02-18T08:47:14Z</time>
      </trkpt>
      <trkpt lat="38.352449" lon="-1.829881">
        <ele>499.5</ele>
        <time>2023-02-18T08:47:20Z</time>
      </trkpt>
      <trkpt lat="38.352476" lon="-1.829963">
        <ele>501.4</ele>
        <time>2023-02-18T08:47:26Z</time>
      </trkpt>
      <trkpt lat="38.352519" lon="-1.830038">
        <ele>503.4</ele>
        <time>2023-02-18T08:47:33Z</time>
      </trkpt>
      <trkpt lat="38.352578" lon="-1.830086">
        <ele>507.4</ele>
        <time>2023-02-18T08:47:39Z</time>
      </trkpt>
      <trkpt lat="38.352648" lon="-1.830107">
        <ele>509.2</ele>
        <time>2023-02-18T08:47:44Z</time>
      </trkpt>
      <trkpt lat="38.352718" lon="-1.830107">
        <ele>508.5</ele>
        <time>2023-02-18T08:47:51Z</time>
      </trkpt>
      <trkpt lat="38.352788" lon="-1.830100">
        <ele>507.5</ele>
        <time>2023-02-18T08:47:58Z</time>
      </trkpt>
      <trkpt lat="38.352858" lon="-1.830100">
        <ele>508.3</ele>
        <time>2023-02-18T08:48:04Z</time>
      </trkpt>
      <trkpt lat="38.352933" lon="-1.830086">
        <ele>507.5</ele>
        <time>2023-02-18T08:48:09Z</time>
      </trkpt>
      <trkpt lat="38.353008" lon="-1.830107">
        <ele>507.5</ele>
        <time>2023-02-18T08:48:14Z</time>
      </trkpt>
      <trkpt lat="38.353067" lon="-1.830148">
        <ele>506.5</ele>
        <time>2023-02-18T08:48:18Z</time>
      </trkpt>
      <trkpt lat="38.353099" lon="-1.830230">
        <ele>506.5</ele>
        <time>2023-02-18T08:48:23Z</time>
      </trkpt>
      <trkpt lat="38.353088" lon="-1.830319">
        <ele>505.5</ele>
        <time>2023-02-18T08:48:29Z</time>
      </trkpt>
      <trkpt lat="38.353067" lon="-1.830402">
        <ele>504.5</ele>
        <time>2023-02-18T08:48:35Z</time>
      </trkpt>
      <trkpt lat="38.353046" lon="-1.830490">
        <ele>504.5</ele>
        <time>2023-02-18T08:48:40Z</time>
      </trkpt>
      <trkpt lat="38.353035" lon="-1.830573">
        <ele>503.5</ele>
        <time>2023-02-18T08:48:46Z</time>
      </trkpt>
      <trkpt lat="38.353035" lon="-1.830662">
        <ele>503.5</ele>
        <time>2023-02-18T08:48:52Z</time>
      </trkpt>
      <trkpt lat="38.353035" lon="-1.830744">
        <ele>504.4</ele>
        <time>2023-02-18T08:48:57Z</time>
      </trkpt>
      <trkpt lat="38.353040" lon="-1.830833">
        <ele>504.5</ele>
        <time>2023-02-18T08:49:02Z</time>
      </trkpt>
      <trkpt lat="38.353051" lon="-1.830915">
        <ele>504.5</ele>
        <time>2023-02-18T08:49:07Z</time>
      </trkpt>
      <trkpt lat="38.353051" lon="-1.831004">
        <ele>504.5</ele>
        <time>2023-02-18T08:49:12Z</time>
      </trkpt>
      <trkpt lat="38.353051" lon="-1.831093">
        <ele>503.7</ele>
        <time>2023-02-18T08:49:17Z</time>
      </trkpt>
      <trkpt lat="38.353056" lon="-1.831175">
        <ele>504.3</ele>
        <time>2023-02-18T08:49:22Z</time>
      </trkpt>
      <trkpt lat="38.353067" lon="-1.831258">
        <ele>503.5</ele>
        <time>2023-02-18T08:49:27Z</time>
      </trkpt>
      <trkpt lat="38.353072" lon="-1.831347">
        <ele>502.5</ele>
        <time>2023-02-18T08:49:32Z</time>
      </trkpt>
      <trkpt lat="38.353088" lon="-1.831422">
        <ele>502.5</ele>
        <time>2023-02-18T08:49:37Z</time>
      </trkpt>
      <trkpt lat="38.353110" lon="-1.831505">
        <ele>502.5</ele>
        <time>2023-02-18T08:49:42Z</time>
      </trkpt>
      <trkpt lat="38.353137" lon="-1.831580">
        <ele>503.4</ele>
        <time>2023-02-18T08:49:47Z</time>
      </trkpt>
      <trkpt lat="38.353158" lon="-1.831662">
        <ele>503.5</ele>
        <time>2023-02-18T08:49:52Z</time>
      </trkpt>
      <trkpt lat="38.353191" lon="-1.831744">
        <ele>503.2</ele>
        <time>2023-02-18T08:49:57Z</time>
      </trkpt>
      <trkpt lat="38.353212" lon="-1.831826">
        <ele>502.7</ele>
        <time>2023-02-18T08:50:02Z</time>
      </trkpt>
      <trkpt lat="38.353250" lon="-1.831895">
        <ele>501.5</ele>
        <time>2023-02-18T08:50:07Z</time>
      </trkpt>
      <trkpt lat="38.353298" lon="-1.831956">
        <ele>501.5</ele>
        <time>2023-02-18T08:50:12Z</time>
      </trkpt>
      <trkpt lat="38.353336" lon="-1.832018">
        <ele>502.4</ele>
        <time>2023-02-18T08:50:17Z</time>
      </trkpt>
      <trkpt lat="38.353384" lon="-1.832079">
        <ele>502.5</ele>
        <time>2023-02-18T08:50:22Z</time>
      </trkpt>
      <trkpt lat="38.353437" lon="-1.832128">
        <ele>502.5</ele>
        <time>2023-02-18T08:50:27Z</time>
      </trkpt>
      <trkpt lat="38.353481" lon="-1.832189">
        <ele>501.5</ele>
        <time>2023-02-18T08:50:32Z</time>
      </trkpt>
      <trkpt lat="38.353529" lon="-1.832251">
        <ele>501.5</ele>
        <time>2023-02-18T08:50:37Z</time>
      </trkpt>
      <trkpt lat="38.353577" lon="-1.832313">
        <ele>500.5</ele>
        <time>2023-02-18T08:50:42Z</time>
      </trkpt>
      <trkpt lat="38.353636" lon="-1.832381">
        <ele>500.5</ele>
        <time>2023-02-18T08:50:47Z</time>
      </trkpt>
      <trkpt lat="38.353685" lon="-1.832436">
        <ele>501.4</ele>
        <time>2023-02-18T08:50:52Z</time>
      </trkpt>
      <trkpt lat="38.353733" lon="-1.832511">
        <ele>500.5</ele>
        <time>2023-02-18T08:50:58Z</time>
      </trkpt>
      <trkpt lat="38.353776" lon="-1.832573">
        <ele>499.7</ele>
        <time>2023-02-18T08:51:03Z</time>
      </trkpt>
      <trkpt lat="38.353824" lon="-1.832648">
        <ele>499.4</ele>
        <time>2023-02-18T08:51:08Z</time>
      </trkpt>
      <trkpt lat="38.353868" lon="-1.832710">
        <ele>498.5</ele>
        <time>2023-02-18T08:51:13Z</time>
      </trkpt>
      <trkpt lat="38.353921" lon="-1.832779">
        <ele>496.7</ele>
        <time>2023-02-18T08:51:19Z</time>
      </trkpt>
      <trkpt lat="38.353964" lon="-1.832840">
        <ele>496.4</ele>
        <time>2023-02-18T08:51:24Z</time>
      </trkpt>
      <trkpt lat="38.354018" lon="-1.832902">
        <ele>494.5</ele>
        <time>2023-02-18T08:51:29Z</time>
      </trkpt>
      <trkpt lat="38.354066" lon="-1.832977">
        <ele>494.4</ele>
        <time>2023-02-18T08:51:35Z</time>
      </trkpt>
      <trkpt lat="38.354115" lon="-1.833039">
        <ele>493.4</ele>
        <time>2023-02-18T08:51:40Z</time>
      </trkpt>
      <trkpt lat="38.354168" lon="-1.833100">
        <ele>493.4</ele>
        <time>2023-02-18T08:51:45Z</time>
      </trkpt>
      <trkpt lat="38.354217" lon="-1.833169">
        <ele>494.4</ele>
        <time>2023-02-18T08:51:51Z</time>
      </trkpt>
      <trkpt lat="38.354270" lon="-1.833231">
        <ele>493.4</ele>
        <time>2023-02-18T08:51:56Z</time>
      </trkpt>
      <trkpt lat="38.354313" lon="-1.833299">
        <ele>492.5</ele>
        <time>2023-02-18T08:52:01Z</time>
      </trkpt>
      <trkpt lat="38.354356" lon="-1.833368">
        <ele>492.4</ele>
        <time>2023-02-18T08:52:07Z</time>
      </trkpt>
      <trkpt lat="38.354410" lon="-1.833429">
        <ele>492.4</ele>
        <time>2023-02-18T08:52:13Z</time>
      </trkpt>
      <trkpt lat="38.354459" lon="-1.833491">
        <ele>492.4</ele>
        <time>2023-02-18T08:52:18Z</time>
      </trkpt>
      <trkpt lat="38.354512" lon="-1.833546">
        <ele>491.7</ele>
        <time>2023-02-18T08:52:23Z</time>
      </trkpt>
      <trkpt lat="38.354566" lon="-1.833607">
        <ele>491.5</ele>
        <time>2023-02-18T08:52:28Z</time>
      </trkpt>
      <trkpt lat="38.354609" lon="-1.833669">
        <ele>491.4</ele>
        <time>2023-02-18T08:52:33Z</time>
      </trkpt>
      <trkpt lat="38.354652" lon="-1.833731">
        <ele>491.4</ele>
        <time>2023-02-18T08:52:38Z</time>
      </trkpt>
      <trkpt lat="38.354694" lon="-1.833799">
        <ele>490.7</ele>
        <time>2023-02-18T08:52:43Z</time>
      </trkpt>
      <trkpt lat="38.354743" lon="-1.833861">
        <ele>490.4</ele>
        <time>2023-02-18T08:52:48Z</time>
      </trkpt>
      <trkpt lat="38.354802" lon="-1.833923">
        <ele>490.4</ele>
        <time>2023-02-18T08:52:54Z</time>
      </trkpt>
      <trkpt lat="38.354781" lon="-1.834004">
        <ele>484.5</ele>
        <time>2023-02-18T08:53:08Z</time>
      </trkpt>
      <trkpt lat="38.354721" lon="-1.834052">
        <ele>483.4</ele>
        <time>2023-02-18T08:53:15Z</time>
      </trkpt>
      <trkpt lat="38.354797" lon="-1.834039">
        <ele>487.5</ele>
        <time>2023-02-18T08:53:34Z</time>
      </trkpt>
      <trkpt lat="38.354861" lon="-1.834066">
        <ele>484.5</ele>
        <time>2023-02-18T08:53:42Z</time>
      </trkpt>
      <trkpt lat="38.354915" lon="-1.834121">
        <ele>483.4</ele>
        <time>2023-02-18T08:53:50Z</time>
      </trkpt>
      <trkpt lat="38.354974" lon="-1.834176">
        <ele>482.4</ele>
        <time>2023-02-18T08:53:56Z</time>
      </trkpt>
      <trkpt lat="38.355033" lon="-1.834231">
        <ele>480.5</ele>
        <time>2023-02-18T08:54:04Z</time>
      </trkpt>
      <trkpt lat="38.355092" lon="-1.834285">
        <ele>481.4</ele>
        <time>2023-02-18T08:54:10Z</time>
      </trkpt>
      <trkpt lat="38.355141" lon="-1.834334">
        <ele>481.4</ele>
        <time>2023-02-18T08:54:15Z</time>
      </trkpt>
      <trkpt lat="38.355200" lon="-1.834388">
        <ele>480.5</ele>
        <time>2023-02-18T08:54:20Z</time>
      </trkpt>
      <trkpt lat="38.355253" lon="-1.834436">
        <ele>481.4</ele>
        <time>2023-02-18T08:54:25Z</time>
      </trkpt>
      <trkpt lat="38.355307" lon="-1.834491">
        <ele>482.4</ele>
        <time>2023-02-18T08:54:30Z</time>
      </trkpt>
      <trkpt lat="38.355366" lon="-1.834553">
        <ele>482.4</ele>
        <time>2023-02-18T08:54:35Z</time>
      </trkpt>
      <trkpt lat="38.355425" lon="-1.834607">
        <ele>482.4</ele>
        <time>2023-02-18T08:54:40Z</time>
      </trkpt>
      <trkpt lat="38.355479" lon="-1.834669">
        <ele>482.4</ele>
        <time>2023-02-18T08:54:46Z</time>
      </trkpt>
      <trkpt lat="38.355533" lon="-1.834710">
        <ele>481.5</ele>
        <time>2023-02-18T08:54:50Z</time>
      </trkpt>
      <trkpt lat="38.355587" lon="-1.834765">
        <ele>482.4</ele>
        <time>2023-02-18T08:54:55Z</time>
      </trkpt>
      <trkpt lat="38.355640" lon="-1.834827">
        <ele>481.5</ele>
        <time>2023-02-18T08:55:01Z</time>
      </trkpt>
      <trkpt lat="38.355688" lon="-1.834882">
        <ele>481.4</ele>
        <time>2023-02-18T08:55:06Z</time>
      </trkpt>
      <trkpt lat="38.355742" lon="-1.834930">
        <ele>480.4</ele>
        <time>2023-02-18T08:55:11Z</time>
      </trkpt>
      <trkpt lat="38.355796" lon="-1.834984">
        <ele>481.4</ele>
        <time>2023-02-18T08:55:16Z</time>
      </trkpt>
      <trkpt lat="38.355855" lon="-1.835032">
        <ele>480.7</ele>
        <time>2023-02-18T08:55:21Z</time>
      </trkpt>
      <trkpt lat="38.355914" lon="-1.835080">
        <ele>478.6</ele>
        <time>2023-02-18T08:55:29Z</time>
      </trkpt>
      <trkpt lat="38.355978" lon="-1.835121">
        <ele>477.4</ele>
        <time>2023-02-18T08:55:47Z</time>
      </trkpt>
      <trkpt lat="38.356037" lon="-1.835148">
        <ele>478.2</ele>
        <time>2023-02-18T08:55:53Z</time>
      </trkpt>
      <trkpt lat="38.356102" lon="-1.835176">
        <ele>477.4</ele>
        <time>2023-02-18T08:55:58Z</time>
      </trkpt>
      <trkpt lat="38.356172" lon="-1.835182">
        <ele>476.2</ele>
        <time>2023-02-18T08:56:05Z</time>
      </trkpt>
      <trkpt lat="38.356236" lon="-1.835176">
        <ele>476.4</ele>
        <time>2023-02-18T08:56:10Z</time>
      </trkpt>
      <trkpt lat="38.356306" lon="-1.835182">
        <ele>474.5</ele>
        <time>2023-02-18T08:56:15Z</time>
      </trkpt>
      <trkpt lat="38.356371" lon="-1.835190">
        <ele>474.2</ele>
        <time>2023-02-18T08:56:21Z</time>
      </trkpt>
      <trkpt lat="38.356440" lon="-1.835203">
        <ele>473.4</ele>
        <time>2023-02-18T08:56:26Z</time>
      </trkpt>
      <trkpt lat="38.356510" lon="-1.835224">
        <ele>473.4</ele>
        <time>2023-02-18T08:56:31Z</time>
      </trkpt>
      <trkpt lat="38.356586" lon="-1.835238">
        <ele>474.2</ele>
        <time>2023-02-18T08:56:36Z</time>
      </trkpt>
      <trkpt lat="38.356645" lon="-1.835279">
        <ele>473.4</ele>
        <time>2023-02-18T08:56:41Z</time>
      </trkpt>
      <trkpt lat="38.356709" lon="-1.835326">
        <ele>474.4</ele>
        <time>2023-02-18T08:56:46Z</time>
      </trkpt>
      <trkpt lat="38.356768" lon="-1.835361">
        <ele>475.4</ele>
        <time>2023-02-18T08:56:51Z</time>
      </trkpt>
      <trkpt lat="38.356827" lon="-1.835402">
        <ele>475.4</ele>
        <time>2023-02-18T08:56:56Z</time>
      </trkpt>
      <trkpt lat="38.356881" lon="-1.835457">
        <ele>475.4</ele>
        <time>2023-02-18T08:57:01Z</time>
      </trkpt>
      <trkpt lat="38.356945" lon="-1.835484">
        <ele>476.2</ele>
        <time>2023-02-18T08:57:06Z</time>
      </trkpt>
      <trkpt lat="38.356999" lon="-1.835532">
        <ele>474.5</ele>
        <time>2023-02-18T08:57:11Z</time>
      </trkpt>
      <trkpt lat="38.357053" lon="-1.835573">
        <ele>473.2</ele>
        <time>2023-02-18T08:57:16Z</time>
      </trkpt>
      <trkpt lat="38.357117" lon="-1.835621">
        <ele>474.4</ele>
        <time>2023-02-18T08:57:21Z</time>
      </trkpt>
      <trkpt lat="38.357176" lon="-1.835662">
        <ele>474.4</ele>
        <time>2023-02-18T08:57:26Z</time>
      </trkpt>
      <trkpt lat="38.357230" lon="-1.835710">
        <ele>474.4</ele>
        <time>2023-02-18T08:57:31Z</time>
      </trkpt>
      <trkpt lat="38.357289" lon="-1.835758">
        <ele>474.4</ele>
        <time>2023-02-18T08:57:36Z</time>
      </trkpt>
      <trkpt lat="38.357348" lon="-1.835813">
        <ele>475.4</ele>
        <time>2023-02-18T08:57:41Z</time>
      </trkpt>
      <trkpt lat="38.357407" lon="-1.835854">
        <ele>475.4</ele>
        <time>2023-02-18T08:57:46Z</time>
      </trkpt>
      <trkpt lat="38.357467" lon="-1.835909">
        <ele>474.4</ele>
        <time>2023-02-18T08:57:51Z</time>
      </trkpt>
      <trkpt lat="38.357526" lon="-1.835964">
        <ele>475.4</ele>
        <time>2023-02-18T08:57:57Z</time>
      </trkpt>
      <trkpt lat="38.357579" lon="-1.836011">
        <ele>474.4</ele>
        <time>2023-02-18T08:58:02Z</time>
      </trkpt>
      <trkpt lat="38.357638" lon="-1.836073">
        <ele>474.4</ele>
        <time>2023-02-18T08:58:07Z</time>
      </trkpt>
      <trkpt lat="38.357697" lon="-1.836128">
        <ele>475.5</ele>
        <time>2023-02-18T08:58:13Z</time>
      </trkpt>
      <trkpt lat="38.357751" lon="-1.836169">
        <ele>475.4</ele>
        <time>2023-02-18T08:58:18Z</time>
      </trkpt>
      <trkpt lat="38.357821" lon="-1.836217">
        <ele>474.4</ele>
        <time>2023-02-18T08:58:24Z</time>
      </trkpt>
      <trkpt lat="38.357885" lon="-1.836251">
        <ele>473.5</ele>
        <time>2023-02-18T08:58:29Z</time>
      </trkpt>
      <trkpt lat="38.357961" lon="-1.836285">
        <ele>473.4</ele>
        <time>2023-02-18T08:58:35Z</time>
      </trkpt>
      <trkpt lat="38.358019" lon="-1.836334">
        <ele>471.7</ele>
        <time>2023-02-18T08:58:41Z</time>
      </trkpt>
      <trkpt lat="38.358084" lon="-1.836375">
        <ele>471.4</ele>
        <time>2023-02-18T08:58:47Z</time>
      </trkpt>
      <trkpt lat="38.358143" lon="-1.836402">
        <ele>471.4</ele>
        <time>2023-02-18T08:58:51Z</time>
      </trkpt>
      <trkpt lat="38.358202" lon="-1.836436">
        <ele>469.5</ele>
        <time>2023-02-18T08:58:56Z</time>
      </trkpt>
      <trkpt lat="38.358262" lon="-1.836464">
        <ele>469.4</ele>
        <time>2023-02-18T08:59:01Z</time>
      </trkpt>
      <trkpt lat="38.358321" lon="-1.836505">
        <ele>468.4</ele>
        <time>2023-02-18T08:59:06Z</time>
      </trkpt>
      <trkpt lat="38.358385" lon="-1.836546">
        <ele>467.4</ele>
        <time>2023-02-18T08:59:11Z</time>
      </trkpt>
      <trkpt lat="38.358444" lon="-1.836608">
        <ele>467.4</ele>
        <time>2023-02-18T08:59:17Z</time>
      </trkpt>
      <trkpt lat="38.358487" lon="-1.836662">
        <ele>467.4</ele>
        <time>2023-02-18T08:59:22Z</time>
      </trkpt>
      <trkpt lat="38.358546" lon="-1.836717">
        <ele>468.4</ele>
        <time>2023-02-18T08:59:28Z</time>
      </trkpt>
      <trkpt lat="38.358605" lon="-1.836786">
        <ele>468.4</ele>
        <time>2023-02-18T08:59:33Z</time>
      </trkpt>
      <trkpt lat="38.358659" lon="-1.836833">
        <ele>467.5</ele>
        <time>2023-02-18T08:59:38Z</time>
      </trkpt>
      <trkpt lat="38.358712" lon="-1.836889">
        <ele>466.5</ele>
        <time>2023-02-18T08:59:43Z</time>
      </trkpt>
      <trkpt lat="38.358756" lon="-1.836950">
        <ele>465.7</ele>
        <time>2023-02-18T08:59:48Z</time>
      </trkpt>
      <trkpt lat="38.358804" lon="-1.837019">
        <ele>465.4</ele>
        <time>2023-02-18T08:59:54Z</time>
      </trkpt>
      <trkpt lat="38.358858" lon="-1.837073">
        <ele>465.4</ele>
        <time>2023-02-18T08:59:59Z</time>
      </trkpt>
      <trkpt lat="38.358922" lon="-1.837128">
        <ele>464.4</ele>
        <time>2023-02-18T09:00:04Z</time>
      </trkpt>
      <trkpt lat="38.358976" lon="-1.837176">
        <ele>465.4</ele>
        <time>2023-02-18T09:00:09Z</time>
      </trkpt>
      <trkpt lat="38.359040" lon="-1.837190">
        <ele>466.4</ele>
        <time>2023-02-18T09:00:14Z</time>
      </trkpt>
      <trkpt lat="38.359105" lon="-1.837210">
        <ele>464.5</ele>
        <time>2023-02-18T09:00:20Z</time>
      </trkpt>
      <trkpt lat="38.359174" lon="-1.837231">
        <ele>463.4</ele>
        <time>2023-02-18T09:00:25Z</time>
      </trkpt>
      <trkpt lat="38.359239" lon="-1.837231">
        <ele>464.4</ele>
        <time>2023-02-18T09:00:30Z</time>
      </trkpt>
      <trkpt lat="38.359309" lon="-1.837245">
        <ele>464.4</ele>
        <time>2023-02-18T09:00:35Z</time>
      </trkpt>
      <trkpt lat="38.359373" lon="-1.837285">
        <ele>464.4</ele>
        <time>2023-02-18T09:00:41Z</time>
      </trkpt>
      <trkpt lat="38.359433" lon="-1.837320">
        <ele>464.4</ele>
        <time>2023-02-18T09:00:46Z</time>
      </trkpt>
      <trkpt lat="38.359507" lon="-1.837361">
        <ele>464.4</ele>
        <time>2023-02-18T09:00:51Z</time>
      </trkpt>
      <trkpt lat="38.359567" lon="-1.837395">
        <ele>465.4</ele>
        <time>2023-02-18T09:00:56Z</time>
      </trkpt>
      <trkpt lat="38.359626" lon="-1.837450">
        <ele>465.4</ele>
        <time>2023-02-18T09:01:02Z</time>
      </trkpt>
      <trkpt lat="38.359690" lon="-1.837484">
        <ele>464.5</ele>
        <time>2023-02-18T09:01:07Z</time>
      </trkpt>
      <trkpt lat="38.359749" lon="-1.837532">
        <ele>463.4</ele>
        <time>2023-02-18T09:01:13Z</time>
      </trkpt>
      <trkpt lat="38.359808" lon="-1.837587">
        <ele>462.5</ele>
        <time>2023-02-18T09:01:18Z</time>
      </trkpt>
      <trkpt lat="38.359868" lon="-1.837628">
        <ele>462.4</ele>
        <time>2023-02-18T09:01:23Z</time>
      </trkpt>
      <trkpt lat="38.359927" lon="-1.837683">
        <ele>463.4</ele>
        <time>2023-02-18T09:01:29Z</time>
      </trkpt>
      <trkpt lat="38.359986" lon="-1.837737">
        <ele>463.5</ele>
        <time>2023-02-18T09:01:34Z</time>
      </trkpt>
      <trkpt lat="38.360039" lon="-1.837793">
        <ele>463.2</ele>
        <time>2023-02-18T09:01:39Z</time>
      </trkpt>
      <trkpt lat="38.360093" lon="-1.837848">
        <ele>463.4</ele>
        <time>2023-02-18T09:01:44Z</time>
      </trkpt>
      <trkpt lat="38.360130" lon="-1.837923">
        <ele>461.5</ele>
        <time>2023-02-18T09:01:50Z</time>
      </trkpt>
      <trkpt lat="38.360184" lon="-1.837985">
        <ele>461.4</ele>
        <time>2023-02-18T09:01:55Z</time>
      </trkpt>
      <trkpt lat="38.360232" lon="-1.838046">
        <ele>461.4</ele>
        <time>2023-02-18T09:02:00Z</time>
      </trkpt>
      <trkpt lat="38.360281" lon="-1.838114">
        <ele>460.4</ele>
        <time>2023-02-18T09:02:05Z</time>
      </trkpt>
      <trkpt lat="38.360313" lon="-1.838183">
        <ele>460.4</ele>
        <time>2023-02-18T09:02:10Z</time>
      </trkpt>
      <trkpt lat="38.360345" lon="-1.838258">
        <ele>459.4</ele>
        <time>2023-02-18T09:02:15Z</time>
      </trkpt>
      <trkpt lat="38.360378" lon="-1.838334">
        <ele>459.2</ele>
        <time>2023-02-18T09:02:20Z</time>
      </trkpt>
      <trkpt lat="38.360415" lon="-1.838395">
        <ele>457.4</ele>
        <time>2023-02-18T09:02:25Z</time>
      </trkpt>
      <trkpt lat="38.360458" lon="-1.838471">
        <ele>457.4</ele>
        <time>2023-02-18T09:02:30Z</time>
      </trkpt>
      <trkpt lat="38.360501" lon="-1.838539">
        <ele>457.4</ele>
        <time>2023-02-18T09:02:34Z</time>
      </trkpt>
      <trkpt lat="38.360539" lon="-1.838601">
        <ele>457.4</ele>
        <time>2023-02-18T09:02:38Z</time>
      </trkpt>
      <trkpt lat="38.360587" lon="-1.838669">
        <ele>457.4</ele>
        <time>2023-02-18T09:02:44Z</time>
      </trkpt>
      <trkpt lat="38.360630" lon="-1.838745">
        <ele>456.4</ele>
        <time>2023-02-18T09:02:50Z</time>
      </trkpt>
      <trkpt lat="38.360678" lon="-1.838800">
        <ele>456.4</ele>
        <time>2023-02-18T09:02:54Z</time>
      </trkpt>
      <trkpt lat="38.360732" lon="-1.838861">
        <ele>455.5</ele>
        <time>2023-02-18T09:03:00Z</time>
      </trkpt>
      <trkpt lat="38.360791" lon="-1.838909">
        <ele>456.4</ele>
        <time>2023-02-18T09:03:05Z</time>
      </trkpt>
      <trkpt lat="38.360856" lon="-1.838957">
        <ele>456.4</ele>
        <time>2023-02-18T09:03:10Z</time>
      </trkpt>
      <trkpt lat="38.360925" lon="-1.838998">
        <ele>457.4</ele>
        <time>2023-02-18T09:03:15Z</time>
      </trkpt>
      <trkpt lat="38.360985" lon="-1.839019">
        <ele>457.2</ele>
        <time>2023-02-18T09:03:20Z</time>
      </trkpt>
      <trkpt lat="38.361049" lon="-1.839053">
        <ele>458.4</ele>
        <time>2023-02-18T09:03:25Z</time>
      </trkpt>
      <trkpt lat="38.361119" lon="-1.839087">
        <ele>459.4</ele>
        <time>2023-02-18T09:03:30Z</time>
      </trkpt>
      <trkpt lat="38.361183" lon="-1.839114">
        <ele>459.4</ele>
        <time>2023-02-18T09:03:35Z</time>
      </trkpt>
      <trkpt lat="38.361248" lon="-1.839142">
        <ele>458.7</ele>
        <time>2023-02-18T09:03:40Z</time>
      </trkpt>
      <trkpt lat="38.361307" lon="-1.839190">
        <ele>458.5</ele>
        <time>2023-02-18T09:03:45Z</time>
      </trkpt>
      <trkpt lat="38.361366" lon="-1.839245">
        <ele>458.4</ele>
        <time>2023-02-18T09:03:50Z</time>
      </trkpt>
      <trkpt lat="38.361436" lon="-1.839272">
        <ele>458.4</ele>
        <time>2023-02-18T09:03:55Z</time>
      </trkpt>
      <trkpt lat="38.361495" lon="-1.839320">
        <ele>459.2</ele>
        <time>2023-02-18T09:04:00Z</time>
      </trkpt>
      <trkpt lat="38.361548" lon="-1.839368">
        <ele>458.7</ele>
        <time>2023-02-18T09:04:05Z</time>
      </trkpt>
      <trkpt lat="38.361592" lon="-1.839430">
        <ele>458.4</ele>
        <time>2023-02-18T09:04:10Z</time>
      </trkpt>
      <trkpt lat="38.361635" lon="-1.839505">
        <ele>458.4</ele>
        <time>2023-02-18T09:04:16Z</time>
      </trkpt>
      <trkpt lat="38.361678" lon="-1.839587">
        <ele>458.4</ele>
        <time>2023-02-18T09:04:22Z</time>
      </trkpt>
      <trkpt lat="38.361710" lon="-1.839656">
        <ele>457.5</ele>
        <time>2023-02-18T09:04:27Z</time>
      </trkpt>
      <trkpt lat="38.361753" lon="-1.839731">
        <ele>456.7</ele>
        <time>2023-02-18T09:04:32Z</time>
      </trkpt>
      <trkpt lat="38.361796" lon="-1.839793">
        <ele>457.2</ele>
        <time>2023-02-18T09:04:37Z</time>
      </trkpt>
      <trkpt lat="38.361849" lon="-1.839861">
        <ele>457.4</ele>
        <time>2023-02-18T09:04:43Z</time>
      </trkpt>
      <trkpt lat="38.361903" lon="-1.839916">
        <ele>457.4</ele>
        <time>2023-02-18T09:04:48Z</time>
      </trkpt>
      <trkpt lat="38.361956" lon="-1.839985">
        <ele>455.7</ele>
        <time>2023-02-18T09:04:54Z</time>
      </trkpt>
      <trkpt lat="38.362010" lon="-1.840039">
        <ele>454.7</ele>
        <time>2023-02-18T09:04:59Z</time>
      </trkpt>
      <trkpt lat="38.362069" lon="-1.840094">
        <ele>453.4</ele>
        <time>2023-02-18T09:05:05Z</time>
      </trkpt>
      <trkpt lat="38.362129" lon="-1.840136">
        <ele>454.4</ele>
        <time>2023-02-18T09:05:10Z</time>
      </trkpt>
      <trkpt lat="38.362182" lon="-1.840190">
        <ele>453.5</ele>
        <time>2023-02-18T09:05:16Z</time>
      </trkpt>
      <trkpt lat="38.362231" lon="-1.840259">
        <ele>451.7</ele>
        <time>2023-02-18T09:05:22Z</time>
      </trkpt>
      <trkpt lat="38.362284" lon="-1.840307">
        <ele>451.4</ele>
        <time>2023-02-18T09:05:28Z</time>
      </trkpt>
      <trkpt lat="38.362343" lon="-1.840348">
        <ele>451.4</ele>
        <time>2023-02-18T09:05:33Z</time>
      </trkpt>
      <trkpt lat="38.362403" lon="-1.840389">
        <ele>451.4</ele>
        <time>2023-02-18T09:05:38Z</time>
      </trkpt>
      <trkpt lat="38.362472" lon="-1.840423">
        <ele>451.4</ele>
        <time>2023-02-18T09:05:43Z</time>
      </trkpt>
      <trkpt lat="38.362537" lon="-1.840450">
        <ele>449.5</ele>
        <time>2023-02-18T09:05:49Z</time>
      </trkpt>
      <trkpt lat="38.362602" lon="-1.840464">
        <ele>449.4</ele>
        <time>2023-02-18T09:05:55Z</time>
      </trkpt>
      <trkpt lat="38.362671" lon="-1.840430">
        <ele>450.2</ele>
        <time>2023-02-18T09:06:01Z</time>
      </trkpt>
      <trkpt lat="38.362725" lon="-1.840382">
        <ele>450.4</ele>
        <time>2023-02-18T09:06:06Z</time>
      </trkpt>
      <trkpt lat="38.362773" lon="-1.840320">
        <ele>450.4</ele>
        <time>2023-02-18T09:06:12Z</time>
      </trkpt>
      <trkpt lat="38.362789" lon="-1.840238">
        <ele>449.4</ele>
        <time>2023-02-18T09:06:17Z</time>
      </trkpt>
      <trkpt lat="38.362789" lon="-1.840142">
        <ele>450.2</ele>
        <time>2023-02-18T09:06:22Z</time>
      </trkpt>
      <trkpt lat="38.362773" lon="-1.840067">
        <ele>449.5</ele>
        <time>2023-02-18T09:06:26Z</time>
      </trkpt>
      <trkpt lat="38.362747" lon="-1.839985">
        <ele>448.6</ele>
        <time>2023-02-18T09:06:31Z</time>
      </trkpt>
      <trkpt lat="38.362698" lon="-1.839896">
        <ele>447.4</ele>
        <time>2023-02-18T09:06:37Z</time>
      </trkpt>
      <trkpt lat="38.362676" lon="-1.839806">
        <ele>445.7</ele>
        <time>2023-02-18T09:06:43Z</time>
      </trkpt>
      <trkpt lat="38.362671" lon="-1.839731">
        <ele>445.4</ele>
        <time>2023-02-18T09:06:47Z</time>
      </trkpt>
      <trkpt lat="38.362693" lon="-1.839642">
        <ele>444.4</ele>
        <time>2023-02-18T09:06:53Z</time>
      </trkpt>
      <trkpt lat="38.362747" lon="-1.839587">
        <ele>443.4</ele>
        <time>2023-02-18T09:06:57Z</time>
      </trkpt>
      <trkpt lat="38.362866" lon="-1.839468">
        <ele>443.4</ele>
        <time>2023-02-18T09:07:03Z</time>
      </trkpt>
      <trkpt lat="38.362925" lon="-1.839428">
        <ele>443.6</ele>
        <time>2023-02-18T09:07:07Z</time>
      </trkpt>
      <trkpt lat="38.362984" lon="-1.839397">
        <ele>444.4</ele>
        <time>2023-02-18T09:07:12Z</time>
      </trkpt>
      <trkpt lat="38.363049" lon="-1.839402">
        <ele>444.4</ele>
        <time>2023-02-18T09:07:17Z</time>
      </trkpt>
      <trkpt lat="38.363113" lon="-1.839402">
        <ele>443.2</ele>
        <time>2023-02-18T09:07:26Z</time>
      </trkpt>
      <trkpt lat="38.363069" lon="-1.839508">
        <ele>457.0</ele>
        <time>2023-02-18T09:08:09Z</time>
      </trkpt>
      <trkpt lat="38.363202" lon="-1.839542">
        <ele>453.5</ele>
        <time>2023-02-18T09:08:38Z</time>
      </trkpt>
      <trkpt lat="38.363160" lon="-1.839444">
        <ele>448.5</ele>
        <time>2023-02-18T09:08:52Z</time>
      </trkpt>
      <trkpt lat="38.363160" lon="-1.839407">
        <ele>447.4</ele>
        <time>2023-02-18T09:08:59Z</time>
      </trkpt>
      <trkpt lat="38.363207" lon="-1.839410">
        <ele>448.4</ele>
        <time>2023-02-18T09:09:05Z</time>
      </trkpt>
      <trkpt lat="38.363274" lon="-1.839406">
        <ele>447.4</ele>
        <time>2023-02-18T09:09:10Z</time>
      </trkpt>
      <trkpt lat="38.363344" lon="-1.839416">
        <ele>448.4</ele>
        <time>2023-02-18T09:09:15Z</time>
      </trkpt>
      <trkpt lat="38.363421" lon="-1.839434">
        <ele>450.4</ele>
        <time>2023-02-18T09:09:20Z</time>
      </trkpt>
      <trkpt lat="38.363489" lon="-1.839440">
        <ele>448.7</ele>
        <time>2023-02-18T09:09:25Z</time>
      </trkpt>
      <trkpt lat="38.363551" lon="-1.839458">
        <ele>448.4</ele>
        <time>2023-02-18T09:09:29Z</time>
      </trkpt>
      <trkpt lat="38.363624" lon="-1.839478">
        <ele>448.4</ele>
        <time>2023-02-18T09:09:35Z</time>
      </trkpt>
      <trkpt lat="38.363698" lon="-1.839484">
        <ele>449.4</ele>
        <time>2023-02-18T09:09:41Z</time>
      </trkpt>
      <trkpt lat="38.363773" lon="-1.839493">
        <ele>450.4</ele>
        <time>2023-02-18T09:09:46Z</time>
      </trkpt>
      <trkpt lat="38.363846" lon="-1.839496">
        <ele>451.4</ele>
        <time>2023-02-18T09:09:52Z</time>
      </trkpt>
      <trkpt lat="38.363923" lon="-1.839490">
        <ele>452.4</ele>
        <time>2023-02-18T09:09:57Z</time>
      </trkpt>
      <trkpt lat="38.363996" lon="-1.839486">
        <ele>454.2</ele>
        <time>2023-02-18T09:10:02Z</time>
      </trkpt>
      <trkpt lat="38.364065" lon="-1.839495">
        <ele>454.4</ele>
        <time>2023-02-18T09:10:07Z</time>
      </trkpt>
      <trkpt lat="38.364135" lon="-1.839503">
        <ele>454.4</ele>
        <time>2023-02-18T09:10:12Z</time>
      </trkpt>
      <trkpt lat="38.364208" lon="-1.839512">
        <ele>454.4</ele>
        <time>2023-02-18T09:10:18Z</time>
      </trkpt>
      <trkpt lat="38.364274" lon="-1.839510">
        <ele>454.4</ele>
        <time>2023-02-18T09:10:23Z</time>
      </trkpt>
      <trkpt lat="38.364342" lon="-1.839504">
        <ele>454.4</ele>
        <time>2023-02-18T09:10:28Z</time>
      </trkpt>
      <trkpt lat="38.364412" lon="-1.839497">
        <ele>453.4</ele>
        <time>2023-02-18T09:10:33Z</time>
      </trkpt>
      <trkpt lat="38.364481" lon="-1.839485">
        <ele>454.4</ele>
        <time>2023-02-18T09:10:38Z</time>
      </trkpt>
      <trkpt lat="38.364552" lon="-1.839475">
        <ele>455.4</ele>
        <time>2023-02-18T09:10:43Z</time>
      </trkpt>
      <trkpt lat="38.364615" lon="-1.839462">
        <ele>455.4</ele>
        <time>2023-02-18T09:10:48Z</time>
      </trkpt>
      <trkpt lat="38.364678" lon="-1.839450">
        <ele>455.4</ele>
        <time>2023-02-18T09:10:53Z</time>
      </trkpt>
      <trkpt lat="38.364744" lon="-1.839450">
        <ele>454.4</ele>
        <time>2023-02-18T09:10:58Z</time>
      </trkpt>
      <trkpt lat="38.364808" lon="-1.839456">
        <ele>453.4</ele>
        <time>2023-02-18T09:11:03Z</time>
      </trkpt>
      <trkpt lat="38.364879" lon="-1.839437">
        <ele>453.4</ele>
        <time>2023-02-18T09:11:09Z</time>
      </trkpt>
      <trkpt lat="38.364948" lon="-1.839441">
        <ele>452.4</ele>
        <time>2023-02-18T09:11:14Z</time>
      </trkpt>
      <trkpt lat="38.365020" lon="-1.839432">
        <ele>452.4</ele>
        <time>2023-02-18T09:11:19Z</time>
      </trkpt>
      <trkpt lat="38.365086" lon="-1.839427">
        <ele>453.3</ele>
        <time>2023-02-18T09:11:24Z</time>
      </trkpt>
      <trkpt lat="38.365153" lon="-1.839422">
        <ele>453.4</ele>
        <time>2023-02-18T09:11:29Z</time>
      </trkpt>
      <trkpt lat="38.365220" lon="-1.839431">
        <ele>451.5</ele>
        <time>2023-02-18T09:11:34Z</time>
      </trkpt>
      <trkpt lat="38.365289" lon="-1.839420">
        <ele>451.4</ele>
        <time>2023-02-18T09:11:39Z</time>
      </trkpt>
      <trkpt lat="38.365357" lon="-1.839402">
        <ele>449.5</ele>
        <time>2023-02-18T09:11:44Z</time>
      </trkpt>
      <trkpt lat="38.365422" lon="-1.839379">
        <ele>449.4</ele>
        <time>2023-02-18T09:11:49Z</time>
      </trkpt>
      <trkpt lat="38.365493" lon="-1.839372">
        <ele>449.4</ele>
        <time>2023-02-18T09:11:55Z</time>
      </trkpt>
      <trkpt lat="38.365556" lon="-1.839364">
        <ele>450.3</ele>
        <time>2023-02-18T09:12:00Z</time>
      </trkpt>
      <trkpt lat="38.365621" lon="-1.839361">
        <ele>451.2</ele>
        <time>2023-02-18T09:12:05Z</time>
      </trkpt>
      <trkpt lat="38.365696" lon="-1.839360">
        <ele>450.5</ele>
        <time>2023-02-18T09:12:11Z</time>
      </trkpt>
      <trkpt lat="38.365762" lon="-1.839334">
        <ele>451.3</ele>
        <time>2023-02-18T09:12:17Z</time>
      </trkpt>
      <trkpt lat="38.365835" lon="-1.839315">
        <ele>450.4</ele>
        <time>2023-02-18T09:12:23Z</time>
      </trkpt>
      <trkpt lat="38.365890" lon="-1.839271">
        <ele>451.4</ele>
        <time>2023-02-18T09:12:29Z</time>
      </trkpt>
      <trkpt lat="38.365949" lon="-1.839225">
        <ele>453.1</ele>
        <time>2023-02-18T09:12:35Z</time>
      </trkpt>
      <trkpt lat="38.366014" lon="-1.839191">
        <ele>452.4</ele>
        <time>2023-02-18T09:12:40Z</time>
      </trkpt>
      <trkpt lat="38.366072" lon="-1.839145">
        <ele>450.7</ele>
        <time>2023-02-18T09:12:46Z</time>
      </trkpt>
      <trkpt lat="38.366123" lon="-1.839090">
        <ele>450.2</ele>
        <time>2023-02-18T09:12:52Z</time>
      </trkpt>
      <trkpt lat="38.366172" lon="-1.839023">
        <ele>449.7</ele>
        <time>2023-02-18T09:12:58Z</time>
      </trkpt>
      <trkpt lat="38.366223" lon="-1.838952">
        <ele>448.4</ele>
        <time>2023-02-18T09:13:05Z</time>
      </trkpt>
      <trkpt lat="38.366272" lon="-1.838878">
        <ele>448.4</ele>
        <time>2023-02-18T09:13:11Z</time>
      </trkpt>
      <trkpt lat="38.366321" lon="-1.838819">
        <ele>446.7</ele>
        <time>2023-02-18T09:13:16Z</time>
      </trkpt>
      <trkpt lat="38.366368" lon="-1.838756">
        <ele>446.2</ele>
        <time>2023-02-18T09:13:21Z</time>
      </trkpt>
      <trkpt lat="38.366412" lon="-1.838690">
        <ele>445.4</ele>
        <time>2023-02-18T09:13:26Z</time>
      </trkpt>
      <trkpt lat="38.366460" lon="-1.838633">
        <ele>445.4</ele>
        <time>2023-02-18T09:13:31Z</time>
      </trkpt>
      <trkpt lat="38.366509" lon="-1.838574">
        <ele>444.4</ele>
        <time>2023-02-18T09:13:36Z</time>
      </trkpt>
      <trkpt lat="38.366562" lon="-1.838520">
        <ele>443.4</ele>
        <time>2023-02-18T09:13:42Z</time>
      </trkpt>
      <trkpt lat="38.366620" lon="-1.838472">
        <ele>444.4</ele>
        <time>2023-02-18T09:13:48Z</time>
      </trkpt>
      <trkpt lat="38.366676" lon="-1.838431">
        <ele>442.4</ele>
        <time>2023-02-18T09:13:53Z</time>
      </trkpt>
      <trkpt lat="38.366732" lon="-1.838369">
        <ele>442.4</ele>
        <time>2023-02-18T09:13:59Z</time>
      </trkpt>
      <trkpt lat="38.366782" lon="-1.838310">
        <ele>441.5</ele>
        <time>2023-02-18T09:14:05Z</time>
      </trkpt>
      <trkpt lat="38.366844" lon="-1.838278">
        <ele>440.4</ele>
        <time>2023-02-18T09:14:12Z</time>
      </trkpt>
      <trkpt lat="38.366901" lon="-1.838238">
        <ele>439.4</ele>
        <time>2023-02-18T09:14:17Z</time>
      </trkpt>
      <trkpt lat="38.366957" lon="-1.838187">
        <ele>439.4</ele>
        <time>2023-02-18T09:14:24Z</time>
      </trkpt>
      <trkpt lat="38.367026" lon="-1.838147">
        <ele>436.4</ele>
        <time>2023-02-18T09:14:38Z</time>
      </trkpt>
      <trkpt lat="38.367077" lon="-1.838100">
        <ele>436.4</ele>
        <time>2023-02-18T09:14:44Z</time>
      </trkpt>
      <trkpt lat="38.367131" lon="-1.838054">
        <ele>438.9</ele>
        <time>2023-02-18T09:14:52Z</time>
      </trkpt>
      <trkpt lat="38.367177" lon="-1.837989">
        <ele>440.7</ele>
        <time>2023-02-18T09:14:59Z</time>
      </trkpt>
      <trkpt lat="38.367203" lon="-1.837906">
        <ele>441.5</ele>
        <time>2023-02-18T09:15:16Z</time>
      </trkpt>
      <trkpt lat="38.367240" lon="-1.837836">
        <ele>439.5</ele>
        <time>2023-02-18T09:15:21Z</time>
      </trkpt>
      <trkpt lat="38.367254" lon="-1.837753">
        <ele>438.6</ele>
        <time>2023-02-18T09:15:32Z</time>
      </trkpt>
      <trkpt lat="38.367280" lon="-1.837662">
        <ele>438.4</ele>
        <time>2023-02-18T09:15:38Z</time>
      </trkpt>
      <trkpt lat="38.367332" lon="-1.837608">
        <ele>437.4</ele>
        <time>2023-02-18T09:15:43Z</time>
      </trkpt>
      <trkpt lat="38.367386" lon="-1.837541">
        <ele>437.4</ele>
        <time>2023-02-18T09:16:05Z</time>
      </trkpt>
      <trkpt lat="38.367438" lon="-1.837486">
        <ele>436.5</ele>
        <time>2023-02-18T09:16:10Z</time>
      </trkpt>
      <trkpt lat="38.367492" lon="-1.837432">
        <ele>435.4</ele>
        <time>2023-02-18T09:16:15Z</time>
      </trkpt>
      <trkpt lat="38.367538" lon="-1.837372">
        <ele>436.4</ele>
        <time>2023-02-18T09:16:20Z</time>
      </trkpt>
      <trkpt lat="38.367586" lon="-1.837308">
        <ele>436.4</ele>
        <time>2023-02-18T09:16:25Z</time>
      </trkpt>
      <trkpt lat="38.367632" lon="-1.837251">
        <ele>437.4</ele>
        <time>2023-02-18T09:16:34Z</time>
      </trkpt>
      <trkpt lat="38.367674" lon="-1.837172">
        <ele>436.4</ele>
        <time>2023-02-18T09:16:40Z</time>
      </trkpt>
      <trkpt lat="38.367705" lon="-1.837092">
        <ele>432.5</ele>
        <time>2023-02-18T09:16:47Z</time>
      </trkpt>
      <trkpt lat="38.367730" lon="-1.837017">
        <ele>429.5</ele>
        <time>2023-02-18T09:16:52Z</time>
      </trkpt>
      <trkpt lat="38.367770" lon="-1.836937">
        <ele>427.4</ele>
        <time>2023-02-18T09:16:58Z</time>
      </trkpt>
      <trkpt lat="38.367817" lon="-1.836880">
        <ele>426.5</ele>
        <time>2023-02-18T09:17:03Z</time>
      </trkpt>
      <trkpt lat="38.367847" lon="-1.836808">
        <ele>426.4</ele>
        <time>2023-02-18T09:17:08Z</time>
      </trkpt>
      <trkpt lat="38.367879" lon="-1.836728">
        <ele>426.4</ele>
        <time>2023-02-18T09:17:13Z</time>
      </trkpt>
      <trkpt lat="38.367898" lon="-1.836640">
        <ele>426.4</ele>
        <time>2023-02-18T09:17:18Z</time>
      </trkpt>
      <trkpt lat="38.367915" lon="-1.836555">
        <ele>425.4</ele>
        <time>2023-02-18T09:17:23Z</time>
      </trkpt>
      <trkpt lat="38.367953" lon="-1.836476">
        <ele>426.4</ele>
        <time>2023-02-18T09:17:28Z</time>
      </trkpt>
      <trkpt lat="38.368008" lon="-1.836413">
        <ele>426.4</ele>
        <time>2023-02-18T09:17:34Z</time>
      </trkpt>
      <trkpt lat="38.368075" lon="-1.836394">
        <ele>427.2</ele>
        <time>2023-02-18T09:17:39Z</time>
      </trkpt>
      <trkpt lat="38.368150" lon="-1.836388">
        <ele>426.2</ele>
        <time>2023-02-18T09:17:45Z</time>
      </trkpt>
      <trkpt lat="38.368216" lon="-1.836415">
        <ele>425.5</ele>
        <time>2023-02-18T09:17:50Z</time>
      </trkpt>
      <trkpt lat="38.368287" lon="-1.836422">
        <ele>427.4</ele>
        <time>2023-02-18T09:17:57Z</time>
      </trkpt>
      <trkpt lat="38.368348" lon="-1.836395">
        <ele>428.2</ele>
        <time>2023-02-18T09:18:07Z</time>
      </trkpt>
      <trkpt lat="38.368406" lon="-1.836356">
        <ele>429.2</ele>
        <time>2023-02-18T09:18:15Z</time>
      </trkpt>
      <trkpt lat="38.368457" lon="-1.836295">
        <ele>427.4</ele>
        <time>2023-02-18T09:18:28Z</time>
      </trkpt>
      <trkpt lat="38.368502" lon="-1.836225">
        <ele>425.5</ele>
        <time>2023-02-18T09:18:34Z</time>
      </trkpt>
      <trkpt lat="38.368547" lon="-1.836151">
        <ele>426.4</ele>
        <time>2023-02-18T09:18:44Z</time>
      </trkpt>
      <trkpt lat="38.368571" lon="-1.836068">
        <ele>429.2</ele>
        <time>2023-02-18T09:18:50Z</time>
      </trkpt>
      <trkpt lat="38.368580" lon="-1.835986">
        <ele>430.3</ele>
        <time>2023-02-18T09:18:57Z</time>
      </trkpt>
      <trkpt lat="38.368593" lon="-1.835903">
        <ele>430.4</ele>
        <time>2023-02-18T09:19:07Z</time>
      </trkpt>
      <trkpt lat="38.368613" lon="-1.835822">
        <ele>431.4</ele>
        <time>2023-02-18T09:19:12Z</time>
      </trkpt>
      <trkpt lat="38.368622" lon="-1.835738">
        <ele>432.4</ele>
        <time>2023-02-18T09:19:17Z</time>
      </trkpt>
      <trkpt lat="38.368622" lon="-1.835650">
        <ele>432.4</ele>
        <time>2023-02-18T09:19:23Z</time>
      </trkpt>
      <trkpt lat="38.368606" lon="-1.835567">
        <ele>432.7</ele>
        <time>2023-02-18T09:19:29Z</time>
      </trkpt>
      <trkpt lat="38.368577" lon="-1.835487">
        <ele>431.5</ele>
        <time>2023-02-18T09:19:36Z</time>
      </trkpt>
      <trkpt lat="38.368540" lon="-1.835406">
        <ele>432.1</ele>
        <time>2023-02-18T09:19:44Z</time>
      </trkpt>
      <trkpt lat="38.368512" lon="-1.835319">
        <ele>438.4</ele>
        <time>2023-02-18T09:20:04Z</time>
      </trkpt>
      <trkpt lat="38.368460" lon="-1.835260">
        <ele>434.7</ele>
        <time>2023-02-18T09:20:10Z</time>
      </trkpt>
      <trkpt lat="38.368424" lon="-1.835192">
        <ele>432.4</ele>
        <time>2023-02-18T09:20:14Z</time>
      </trkpt>
      <trkpt lat="38.368377" lon="-1.835131">
        <ele>430.4</ele>
        <time>2023-02-18T09:20:19Z</time>
      </trkpt>
      <trkpt lat="38.368363" lon="-1.835051">
        <ele>428.7</ele>
        <time>2023-02-18T09:20:24Z</time>
      </trkpt>
      <trkpt lat="38.368365" lon="-1.834958">
        <ele>430.2</ele>
        <time>2023-02-18T09:20:29Z</time>
      </trkpt>
      <trkpt lat="38.368407" lon="-1.834883">
        <ele>429.4</ele>
        <time>2023-02-18T09:20:34Z</time>
      </trkpt>
      <trkpt lat="38.368466" lon="-1.834832">
        <ele>429.4</ele>
        <time>2023-02-18T09:20:40Z</time>
      </trkpt>
      <trkpt lat="38.368521" lon="-1.834775">
        <ele>430.2</ele>
        <time>2023-02-18T09:20:46Z</time>
      </trkpt>
      <trkpt lat="38.368571" lon="-1.834722">
        <ele>429.4</ele>
        <time>2023-02-18T09:20:52Z</time>
      </trkpt>
      <trkpt lat="38.368616" lon="-1.834652">
        <ele>428.5</ele>
        <time>2023-02-18T09:20:58Z</time>
      </trkpt>
      <trkpt lat="38.368670" lon="-1.834590">
        <ele>427.4</ele>
        <time>2023-02-18T09:21:04Z</time>
      </trkpt>
      <trkpt lat="38.368732" lon="-1.834543">
        <ele>425.4</ele>
        <time>2023-02-18T09:21:12Z</time>
      </trkpt>
      <trkpt lat="38.368781" lon="-1.834472">
        <ele>425.4</ele>
        <time>2023-02-18T09:21:24Z</time>
      </trkpt>
      <trkpt lat="38.368822" lon="-1.834407">
        <ele>426.2</ele>
        <time>2023-02-18T09:21:29Z</time>
      </trkpt>
      <trkpt lat="38.368846" lon="-1.834332">
        <ele>425.6</ele>
        <time>2023-02-18T09:21:34Z</time>
      </trkpt>
      <trkpt lat="38.368849" lon="-1.834252">
        <ele>426.4</ele>
        <time>2023-02-18T09:21:39Z</time>
      </trkpt>
      <trkpt lat="38.368846" lon="-1.834163">
        <ele>424.5</ele>
        <time>2023-02-18T09:21:44Z</time>
      </trkpt>
      <trkpt lat="38.368861" lon="-1.834077">
        <ele>424.4</ele>
        <time>2023-02-18T09:21:49Z</time>
      </trkpt>
      <trkpt lat="38.368906" lon="-1.834005">
        <ele>422.5</ele>
        <time>2023-02-18T09:21:56Z</time>
      </trkpt>
      <trkpt lat="38.368950" lon="-1.833928">
        <ele>423.4</ele>
        <time>2023-02-18T09:22:02Z</time>
      </trkpt>
      <trkpt lat="38.368993" lon="-1.833863">
        <ele>423.4</ele>
        <time>2023-02-18T09:22:07Z</time>
      </trkpt>
      <trkpt lat="38.369038" lon="-1.833788">
        <ele>422.4</ele>
        <time>2023-02-18T09:22:14Z</time>
      </trkpt>
      <trkpt lat="38.369070" lon="-1.833718">
        <ele>421.4</ele>
        <time>2023-02-18T09:22:19Z</time>
      </trkpt>
      <trkpt lat="38.369106" lon="-1.833647">
        <ele>422.4</ele>
        <time>2023-02-18T09:22:24Z</time>
      </trkpt>
      <trkpt lat="38.369124" lon="-1.833569">
        <ele>422.4</ele>
        <time>2023-02-18T09:22:29Z</time>
      </trkpt>
      <trkpt lat="38.369143" lon="-1.833478">
        <ele>423.4</ele>
        <time>2023-02-18T09:22:34Z</time>
      </trkpt>
      <trkpt lat="38.369142" lon="-1.833382">
        <ele>422.4</ele>
        <time>2023-02-18T09:22:40Z</time>
      </trkpt>
      <trkpt lat="38.369154" lon="-1.833301">
        <ele>424.4</ele>
        <time>2023-02-18T09:23:05Z</time>
      </trkpt>
      <trkpt lat="38.369134" lon="-1.833211">
        <ele>423.5</ele>
        <time>2023-02-18T09:23:26Z</time>
      </trkpt>
      <trkpt lat="38.369111" lon="-1.833128">
        <ele>420.8</ele>
        <time>2023-02-18T09:23:31Z</time>
      </trkpt>
      <trkpt lat="38.369092" lon="-1.833035">
        <ele>419.4</ele>
        <time>2023-02-18T09:23:36Z</time>
      </trkpt>
      <trkpt lat="38.369075" lon="-1.832943">
        <ele>418.4</ele>
        <time>2023-02-18T09:23:41Z</time>
      </trkpt>
      <trkpt lat="38.369057" lon="-1.832851">
        <ele>418.4</ele>
        <time>2023-02-18T09:23:46Z</time>
      </trkpt>
      <trkpt lat="38.369040" lon="-1.832743">
        <ele>418.4</ele>
        <time>2023-02-18T09:27:22Z</time>
      </trkpt>
      <trkpt lat="38.369038" lon="-1.832661">
        <ele>420.4</ele>
        <time>2023-02-18T09:27:28Z</time>
      </trkpt>
      <trkpt lat="38.369024" lon="-1.832580">
        <ele>421.4</ele>
        <time>2023-02-18T09:27:33Z</time>
      </trkpt>
      <trkpt lat="38.369024" lon="-1.832490">
        <ele>420.4</ele>
        <time>2023-02-18T09:27:40Z</time>
      </trkpt>
      <trkpt lat="38.369021" lon="-1.832407">
        <ele>421.4</ele>
        <time>2023-02-18T09:27:50Z</time>
      </trkpt>
      <trkpt lat="38.369028" lon="-1.832316">
        <ele>422.2</ele>
        <time>2023-02-18T09:28:00Z</time>
      </trkpt>
      <trkpt lat="38.368995" lon="-1.832233">
        <ele>423.2</ele>
        <time>2023-02-18T09:28:06Z</time>
      </trkpt>
      <trkpt lat="38.368970" lon="-1.832158">
        <ele>422.4</ele>
        <time>2023-02-18T09:28:12Z</time>
      </trkpt>
      <trkpt lat="38.368920" lon="-1.832099">
        <ele>421.4</ele>
        <time>2023-02-18T09:28:22Z</time>
      </trkpt>
      <trkpt lat="38.368874" lon="-1.832042">
        <ele>420.4</ele>
        <time>2023-02-18T09:28:30Z</time>
      </trkpt>
      <trkpt lat="38.368831" lon="-1.831980">
        <ele>419.7</ele>
        <time>2023-02-18T09:28:40Z</time>
      </trkpt>
      <trkpt lat="38.368811" lon="-1.831903">
        <ele>423.4</ele>
        <time>2023-02-18T09:28:53Z</time>
      </trkpt>
      <trkpt lat="38.368818" lon="-1.831812">
        <ele>423.2</ele>
        <time>2023-02-18T09:29:00Z</time>
      </trkpt>
      <trkpt lat="38.368802" lon="-1.831730">
        <ele>424.2</ele>
        <time>2023-02-18T09:29:10Z</time>
      </trkpt>
      <trkpt lat="38.368785" lon="-1.831651">
        <ele>427.3</ele>
        <time>2023-02-18T09:29:21Z</time>
      </trkpt>
      <trkpt lat="38.368770" lon="-1.831566">
        <ele>428.2</ele>
        <time>2023-02-18T09:29:27Z</time>
      </trkpt>
      <trkpt lat="38.368750" lon="-1.831485">
        <ele>427.4</ele>
        <time>2023-02-18T09:29:32Z</time>
      </trkpt>
      <trkpt lat="38.368710" lon="-1.831404">
        <ele>425.1</ele>
        <time>2023-02-18T09:29:49Z</time>
      </trkpt>
      <trkpt lat="38.368671" lon="-1.831340">
        <ele>424.4</ele>
        <time>2023-02-18T09:29:55Z</time>
      </trkpt>
      <trkpt lat="38.368621" lon="-1.831281">
        <ele>423.5</ele>
        <time>2023-02-18T09:30:00Z</time>
      </trkpt>
      <trkpt lat="38.368561" lon="-1.831228">
        <ele>425.2</ele>
        <time>2023-02-18T09:30:05Z</time>
      </trkpt>
      <trkpt lat="38.368522" lon="-1.831158">
        <ele>424.7</ele>
        <time>2023-02-18T09:30:10Z</time>
      </trkpt>
      <trkpt lat="38.368473" lon="-1.831103">
        <ele>424.4</ele>
        <time>2023-02-18T09:30:15Z</time>
      </trkpt>
      <trkpt lat="38.368426" lon="-1.831028">
        <ele>424.7</ele>
        <time>2023-02-18T09:30:21Z</time>
      </trkpt>
      <trkpt lat="38.368382" lon="-1.830952">
        <ele>424.4</ele>
        <time>2023-02-18T09:30:28Z</time>
      </trkpt>
      <trkpt lat="38.368346" lon="-1.830882">
        <ele>424.4</ele>
        <time>2023-02-18T09:30:34Z</time>
      </trkpt>
      <trkpt lat="38.368303" lon="-1.830820">
        <ele>427.4</ele>
        <time>2023-02-18T09:30:42Z</time>
      </trkpt>
      <trkpt lat="38.368254" lon="-1.830746">
        <ele>427.4</ele>
        <time>2023-02-18T09:30:49Z</time>
      </trkpt>
      <trkpt lat="38.368240" lon="-1.830658">
        <ele>425.7</ele>
        <time>2023-02-18T09:30:56Z</time>
      </trkpt>
      <trkpt lat="38.368234" lon="-1.830572">
        <ele>426.4</ele>
        <time>2023-02-18T09:31:03Z</time>
      </trkpt>
      <trkpt lat="38.368248" lon="-1.830477">
        <ele>426.4</ele>
        <time>2023-02-18T09:31:10Z</time>
      </trkpt>
      <trkpt lat="38.368243" lon="-1.830396">
        <ele>426.4</ele>
        <time>2023-02-18T09:31:15Z</time>
      </trkpt>
      <trkpt lat="38.368215" lon="-1.830314">
        <ele>427.4</ele>
        <time>2023-02-18T09:31:23Z</time>
      </trkpt>
      <trkpt lat="38.368156" lon="-1.830359">
        <ele>423.7</ele>
        <time>2023-02-18T09:31:44Z</time>
      </trkpt>
      <trkpt lat="38.368100" lon="-1.830412">
        <ele>423.4</ele>
        <time>2023-02-18T09:31:51Z</time>
      </trkpt>
      <trkpt lat="38.368035" lon="-1.830446">
        <ele>421.5</ele>
        <time>2023-02-18T09:32:01Z</time>
      </trkpt>
      <trkpt lat="38.367969" lon="-1.830459">
        <ele>420.4</ele>
        <time>2023-02-18T09:32:10Z</time>
      </trkpt>
      <trkpt lat="38.367906" lon="-1.830442">
        <ele>420.4</ele>
        <time>2023-02-18T09:32:16Z</time>
      </trkpt>
      <trkpt lat="38.367841" lon="-1.830438">
        <ele>420.5</ele>
        <time>2023-02-18T09:32:21Z</time>
      </trkpt>
      <trkpt lat="38.367788" lon="-1.830379">
        <ele>421.4</ele>
        <time>2023-02-18T09:32:27Z</time>
      </trkpt>
      <trkpt lat="38.367753" lon="-1.830301">
        <ele>422.2</ele>
        <time>2023-02-18T09:32:34Z</time>
      </trkpt>
      <trkpt lat="38.367760" lon="-1.830215">
        <ele>423.4</ele>
        <time>2023-02-18T09:32:42Z</time>
      </trkpt>
      <trkpt lat="38.367766" lon="-1.830134">
        <ele>425.2</ele>
        <time>2023-02-18T09:32:47Z</time>
      </trkpt>
      <trkpt lat="38.367772" lon="-1.830044">
        <ele>427.2</ele>
        <time>2023-02-18T09:32:53Z</time>
      </trkpt>
      <trkpt lat="38.367785" lon="-1.829963">
        <ele>427.4</ele>
        <time>2023-02-18T09:33:00Z</time>
      </trkpt>
      <trkpt lat="38.367775" lon="-1.829882">
        <ele>427.5</ele>
        <time>2023-02-18T09:33:07Z</time>
      </trkpt>
      <trkpt lat="38.367788" lon="-1.829796">
        <ele>426.5</ele>
        <time>2023-02-18T09:33:13Z</time>
      </trkpt>
      <trkpt lat="38.367777" lon="-1.829710">
        <ele>425.5</ele>
        <time>2023-02-18T09:33:19Z</time>
      </trkpt>
      <trkpt lat="38.367782" lon="-1.829629">
        <ele>425.4</ele>
        <time>2023-02-18T09:33:26Z</time>
      </trkpt>
      <trkpt lat="38.367793" lon="-1.829550">
        <ele>426.4</ele>
        <time>2023-02-18T09:33:33Z</time>
      </trkpt>
      <trkpt lat="38.367809" lon="-1.829468">
        <ele>427.4</ele>
        <time>2023-02-18T09:33:40Z</time>
      </trkpt>
      <trkpt lat="38.367835" lon="-1.829386">
        <ele>428.4</ele>
        <time>2023-02-18T09:33:49Z</time>
      </trkpt>
      <trkpt lat="38.367800" lon="-1.829308">
        <ele>427.5</ele>
        <time>2023-02-18T09:33:55Z</time>
      </trkpt>
      <trkpt lat="38.367766" lon="-1.829222">
        <ele>427.4</ele>
        <time>2023-02-18T09:34:00Z</time>
      </trkpt>
      <trkpt lat="38.367727" lon="-1.829154">
        <ele>428.4</ele>
        <time>2023-02-18T09:34:05Z</time>
      </trkpt>
      <trkpt lat="38.367694" lon="-1.829081">
        <ele>428.4</ele>
        <time>2023-02-18T09:34:10Z</time>
      </trkpt>
      <trkpt lat="38.367670" lon="-1.829000">
        <ele>428.5</ele>
        <time>2023-02-18T09:34:15Z</time>
      </trkpt>
      <trkpt lat="38.367634" lon="-1.828918">
        <ele>428.2</ele>
        <time>2023-02-18T09:34:21Z</time>
      </trkpt>
      <trkpt lat="38.367615" lon="-1.828840">
        <ele>427.5</ele>
        <time>2023-02-18T09:34:27Z</time>
      </trkpt>
      <trkpt lat="38.367589" lon="-1.828761">
        <ele>426.7</ele>
        <time>2023-02-18T09:34:33Z</time>
      </trkpt>
      <trkpt lat="38.367553" lon="-1.828684">
        <ele>426.5</ele>
        <time>2023-02-18T09:34:40Z</time>
      </trkpt>
      <trkpt lat="38.367525" lon="-1.828611">
        <ele>428.2</ele>
        <time>2023-02-18T09:34:45Z</time>
      </trkpt>
      <trkpt lat="38.367493" lon="-1.828531">
        <ele>429.4</ele>
        <time>2023-02-18T09:34:51Z</time>
      </trkpt>
      <trkpt lat="38.367474" lon="-1.828452">
        <ele>429.2</ele>
        <time>2023-02-18T09:34:57Z</time>
      </trkpt>
      <trkpt lat="38.367451" lon="-1.828373">
        <ele>427.7</ele>
        <time>2023-02-18T09:35:04Z</time>
      </trkpt>
      <trkpt lat="38.367414" lon="-1.828302">
        <ele>427.4</ele>
        <time>2023-02-18T09:35:09Z</time>
      </trkpt>
      <trkpt lat="38.367371" lon="-1.828232">
        <ele>426.4</ele>
        <time>2023-02-18T09:35:16Z</time>
      </trkpt>
      <trkpt lat="38.367354" lon="-1.828145">
        <ele>428.2</ele>
        <time>2023-02-18T09:35:22Z</time>
      </trkpt>
      <trkpt lat="38.367338" lon="-1.828057">
        <ele>428.2</ele>
        <time>2023-02-18T09:35:28Z</time>
      </trkpt>
      <trkpt lat="38.367316" lon="-1.827978">
        <ele>426.4</ele>
        <time>2023-02-18T09:35:33Z</time>
      </trkpt>
      <trkpt lat="38.367312" lon="-1.827890">
        <ele>427.5</ele>
        <time>2023-02-18T09:35:39Z</time>
      </trkpt>
      <trkpt lat="38.367299" lon="-1.827804">
        <ele>427.4</ele>
        <time>2023-02-18T09:35:45Z</time>
      </trkpt>
      <trkpt lat="38.367274" lon="-1.827726">
        <ele>426.6</ele>
        <time>2023-02-18T09:35:51Z</time>
      </trkpt>
      <trkpt lat="38.367268" lon="-1.827631">
        <ele>428.4</ele>
        <time>2023-02-18T09:35:57Z</time>
      </trkpt>
      <trkpt lat="38.367257" lon="-1.827540">
        <ele>429.4</ele>
        <time>2023-02-18T09:36:03Z</time>
      </trkpt>
      <trkpt lat="38.367242" lon="-1.827456">
        <ele>428.5</ele>
        <time>2023-02-18T09:36:09Z</time>
      </trkpt>
      <trkpt lat="38.367238" lon="-1.827363">
        <ele>428.7</ele>
        <time>2023-02-18T09:36:15Z</time>
      </trkpt>
      <trkpt lat="38.367216" lon="-1.827283">
        <ele>426.7</ele>
        <time>2023-02-18T09:36:21Z</time>
      </trkpt>
      <trkpt lat="38.367191" lon="-1.827200">
        <ele>426.5</ele>
        <time>2023-02-18T09:36:28Z</time>
      </trkpt>
      <trkpt lat="38.367157" lon="-1.827117">
        <ele>427.4</ele>
        <time>2023-02-18T09:36:35Z</time>
      </trkpt>
      <trkpt lat="38.367162" lon="-1.827036">
        <ele>428.4</ele>
        <time>2023-02-18T09:36:42Z</time>
      </trkpt>
      <trkpt lat="38.367129" lon="-1.826956">
        <ele>429.4</ele>
        <time>2023-02-18T09:36:49Z</time>
      </trkpt>
      <trkpt lat="38.367104" lon="-1.826872">
        <ele>429.4</ele>
        <time>2023-02-18T09:36:56Z</time>
      </trkpt>
      <trkpt lat="38.367087" lon="-1.826788">
        <ele>425.8</ele>
        <time>2023-02-18T09:37:04Z</time>
      </trkpt>
      <trkpt lat="38.367048" lon="-1.826717">
        <ele>421.5</ele>
        <time>2023-02-18T09:37:10Z</time>
      </trkpt>
      <trkpt lat="38.367011" lon="-1.826645">
        <ele>421.4</ele>
        <time>2023-02-18T09:37:16Z</time>
      </trkpt>
      <trkpt lat="38.366963" lon="-1.826578">
        <ele>421.4</ele>
        <time>2023-02-18T09:37:22Z</time>
      </trkpt>
      <trkpt lat="38.366940" lon="-1.826504">
        <ele>421.4</ele>
        <time>2023-02-18T09:37:29Z</time>
      </trkpt>
      <trkpt lat="38.366906" lon="-1.826433">
        <ele>420.5</ele>
        <time>2023-02-18T09:37:35Z</time>
      </trkpt>
      <trkpt lat="38.366870" lon="-1.826362">
        <ele>421.4</ele>
        <time>2023-02-18T09:37:41Z</time>
      </trkpt>
      <trkpt lat="38.366830" lon="-1.826292">
        <ele>422.2</ele>
        <time>2023-02-18T09:37:48Z</time>
      </trkpt>
      <trkpt lat="38.366792" lon="-1.826225">
        <ele>422.4</ele>
        <time>2023-02-18T09:37:56Z</time>
      </trkpt>
      <trkpt lat="38.366761" lon="-1.826151">
        <ele>421.5</ele>
        <time>2023-02-18T09:38:04Z</time>
      </trkpt>
      <trkpt lat="38.366722" lon="-1.826088">
        <ele>421.4</ele>
        <time>2023-02-18T09:38:10Z</time>
      </trkpt>
      <trkpt lat="38.366668" lon="-1.826029">
        <ele>422.6</ele>
        <time>2023-02-18T09:38:17Z</time>
      </trkpt>
      <trkpt lat="38.366629" lon="-1.825955">
        <ele>423.4</ele>
        <time>2023-02-18T09:38:24Z</time>
      </trkpt>
      <trkpt lat="38.366571" lon="-1.825895">
        <ele>424.2</ele>
        <time>2023-02-18T09:38:30Z</time>
      </trkpt>
      <trkpt lat="38.366514" lon="-1.825846">
        <ele>423.5</ele>
        <time>2023-02-18T09:38:37Z</time>
      </trkpt>
      <trkpt lat="38.366514" lon="-1.825929">
        <ele>420.5</ele>
        <time>2023-02-18T09:38:50Z</time>
      </trkpt>
      <trkpt lat="38.366451" lon="-1.825921">
        <ele>423.4</ele>
        <time>2023-02-18T09:39:03Z</time>
      </trkpt>
      <trkpt lat="38.366387" lon="-1.825893">
        <ele>422.5</ele>
        <time>2023-02-18T09:39:08Z</time>
      </trkpt>
      <trkpt lat="38.366316" lon="-1.825857">
        <ele>422.4</ele>
        <time>2023-02-18T09:39:13Z</time>
      </trkpt>
      <trkpt lat="38.366260" lon="-1.825817">
        <ele>422.5</ele>
        <time>2023-02-18T09:39:20Z</time>
      </trkpt>
      <trkpt lat="38.366195" lon="-1.825822">
        <ele>422.5</ele>
        <time>2023-02-18T09:39:38Z</time>
      </trkpt>
      <trkpt lat="38.366195" lon="-1.825793">
        <ele>423.2</ele>
        <time>2023-02-18T09:42:32Z</time>
      </trkpt>
      <trkpt lat="38.366187" lon="-1.825779">
        <ele>425.7</ele>
        <time>2023-02-18T09:50:23Z</time>
      </trkpt>
      <trkpt lat="38.366133" lon="-1.825719">
        <ele>425.4</ele>
        <time>2023-02-18T09:51:07Z</time>
      </trkpt>
      <trkpt lat="38.366130" lon="-1.825637">
        <ele>425.5</ele>
        <time>2023-02-18T09:51:12Z</time>
      </trkpt>
      <trkpt lat="38.366153" lon="-1.825561">
        <ele>426.2</ele>
        <time>2023-02-18T09:51:17Z</time>
      </trkpt>
      <trkpt lat="38.366169" lon="-1.825480">
        <ele>427.4</ele>
        <time>2023-02-18T09:51:23Z</time>
      </trkpt>
      <trkpt lat="38.366174" lon="-1.825399">
        <ele>426.5</ele>
        <time>2023-02-18T09:51:28Z</time>
      </trkpt>
      <trkpt lat="38.366169" lon="-1.825304">
        <ele>425.5</ele>
        <time>2023-02-18T09:51:34Z</time>
      </trkpt>
      <trkpt lat="38.366167" lon="-1.825221">
        <ele>424.5</ele>
        <time>2023-02-18T09:51:39Z</time>
      </trkpt>
      <trkpt lat="38.366166" lon="-1.825135">
        <ele>424.5</ele>
        <time>2023-02-18T09:51:45Z</time>
      </trkpt>
      <trkpt lat="38.366163" lon="-1.825046">
        <ele>423.5</ele>
        <time>2023-02-18T09:51:52Z</time>
      </trkpt>
      <trkpt lat="38.366161" lon="-1.824965">
        <ele>424.5</ele>
        <time>2023-02-18T09:51:58Z</time>
      </trkpt>
      <trkpt lat="38.366158" lon="-1.824877">
        <ele>423.5</ele>
        <time>2023-02-18T09:52:04Z</time>
      </trkpt>
      <trkpt lat="38.366133" lon="-1.824791">
        <ele>424.5</ele>
        <time>2023-02-18T09:52:10Z</time>
      </trkpt>
      <trkpt lat="38.366094" lon="-1.824728">
        <ele>422.7</ele>
        <time>2023-02-18T09:52:16Z</time>
      </trkpt>
      <trkpt lat="38.366042" lon="-1.824677">
        <ele>420.5</ele>
        <time>2023-02-18T09:52:25Z</time>
      </trkpt>
      <trkpt lat="38.366009" lon="-1.824603">
        <ele>420.5</ele>
        <time>2023-02-18T09:52:32Z</time>
      </trkpt>
      <trkpt lat="38.365960" lon="-1.824540">
        <ele>420.2</ele>
        <time>2023-02-18T09:52:41Z</time>
      </trkpt>
      <trkpt lat="38.365916" lon="-1.824481">
        <ele>420.5</ele>
        <time>2023-02-18T09:52:47Z</time>
      </trkpt>
      <trkpt lat="38.365878" lon="-1.824408">
        <ele>424.2</ele>
        <time>2023-02-18T09:52:55Z</time>
      </trkpt>
      <trkpt lat="38.365875" lon="-1.824328">
        <ele>425.2</ele>
        <time>2023-02-18T09:53:02Z</time>
      </trkpt>
      <trkpt lat="38.365855" lon="-1.824238">
        <ele>423.7</ele>
        <time>2023-02-18T09:53:10Z</time>
      </trkpt>
      <trkpt lat="38.365874" lon="-1.824151">
        <ele>423.3</ele>
        <time>2023-02-18T09:53:16Z</time>
      </trkpt>
      <trkpt lat="38.365891" lon="-1.824070">
        <ele>423.2</ele>
        <time>2023-02-18T09:53:25Z</time>
      </trkpt>
      <trkpt lat="38.365939" lon="-1.824005">
        <ele>423.4</ele>
        <time>2023-02-18T09:53:40Z</time>
      </trkpt>
      <trkpt lat="38.365941" lon="-1.823922">
        <ele>424.5</ele>
        <time>2023-02-18T09:53:47Z</time>
      </trkpt>
      <trkpt lat="38.365937" lon="-1.823840">
        <ele>423.5</ele>
        <time>2023-02-18T09:54:01Z</time>
      </trkpt>
      <trkpt lat="38.365899" lon="-1.823774">
        <ele>422.5</ele>
        <time>2023-02-18T09:54:08Z</time>
      </trkpt>
      <trkpt lat="38.365859" lon="-1.823702">
        <ele>422.5</ele>
        <time>2023-02-18T09:54:14Z</time>
      </trkpt>
      <trkpt lat="38.365821" lon="-1.823636">
        <ele>422.5</ele>
        <time>2023-02-18T09:54:20Z</time>
      </trkpt>
      <trkpt lat="38.365770" lon="-1.823574">
        <ele>422.4</ele>
        <time>2023-02-18T09:54:27Z</time>
      </trkpt>
      <trkpt lat="38.365723" lon="-1.823511">
        <ele>423.5</ele>
        <time>2023-02-18T09:54:35Z</time>
      </trkpt>
      <trkpt lat="38.365665" lon="-1.823475">
        <ele>423.5</ele>
        <time>2023-02-18T09:54:43Z</time>
      </trkpt>
      <trkpt lat="38.365621" lon="-1.823404">
        <ele>425.5</ele>
        <time>2023-02-18T09:54:51Z</time>
      </trkpt>
      <trkpt lat="38.365632" lon="-1.823314">
        <ele>424.5</ele>
        <time>2023-02-18T09:54:57Z</time>
      </trkpt>
      <trkpt lat="38.365667" lon="-1.823242">
        <ele>426.4</ele>
        <time>2023-02-18T09:55:06Z</time>
      </trkpt>
      <trkpt lat="38.365729" lon="-1.823212">
        <ele>425.5</ele>
        <time>2023-02-18T09:55:17Z</time>
      </trkpt>
      <trkpt lat="38.365748" lon="-1.823126">
        <ele>425.2</ele>
        <time>2023-02-18T09:55:26Z</time>
      </trkpt>
      <trkpt lat="38.365769" lon="-1.823050">
        <ele>424.5</ele>
        <time>2023-02-18T09:55:32Z</time>
      </trkpt>
      <trkpt lat="38.365770" lon="-1.822965">
        <ele>425.5</ele>
        <time>2023-02-18T09:55:38Z</time>
      </trkpt>
      <trkpt lat="38.365761" lon="-1.822876">
        <ele>425.5</ele>
        <time>2023-02-18T09:55:44Z</time>
      </trkpt>
      <trkpt lat="38.365749" lon="-1.822793">
        <ele>425.5</ele>
        <time>2023-02-18T09:55:49Z</time>
      </trkpt>
      <trkpt lat="38.365727" lon="-1.822715">
        <ele>425.5</ele>
        <time>2023-02-18T09:55:55Z</time>
      </trkpt>
      <trkpt lat="38.365708" lon="-1.822635">
        <ele>426.2</ele>
        <time>2023-02-18T09:56:01Z</time>
      </trkpt>
      <trkpt lat="38.365659" lon="-1.822574">
        <ele>425.7</ele>
        <time>2023-02-18T09:56:09Z</time>
      </trkpt>
      <trkpt lat="38.365605" lon="-1.822516">
        <ele>425.7</ele>
        <time>2023-02-18T09:56:17Z</time>
      </trkpt>
      <trkpt lat="38.365550" lon="-1.822455">
        <ele>423.7</ele>
        <time>2023-02-18T09:56:23Z</time>
      </trkpt>
      <trkpt lat="38.365489" lon="-1.822407">
        <ele>422.3</ele>
        <time>2023-02-18T09:56:30Z</time>
      </trkpt>
      <trkpt lat="38.365423" lon="-1.822368">
        <ele>420.5</ele>
        <time>2023-02-18T09:56:38Z</time>
      </trkpt>
      <trkpt lat="38.365360" lon="-1.822334">
        <ele>420.2</ele>
        <time>2023-02-18T09:56:45Z</time>
      </trkpt>
      <trkpt lat="38.365295" lon="-1.822296">
        <ele>421.5</ele>
        <time>2023-02-18T09:57:05Z</time>
      </trkpt>
      <trkpt lat="38.365225" lon="-1.822284">
        <ele>420.5</ele>
        <time>2023-02-18T09:57:16Z</time>
      </trkpt>
      <trkpt lat="38.365159" lon="-1.822270">
        <ele>420.5</ele>
        <time>2023-02-18T09:57:22Z</time>
      </trkpt>
      <trkpt lat="38.365096" lon="-1.822242">
        <ele>421.5</ele>
        <time>2023-02-18T09:57:28Z</time>
      </trkpt>
      <trkpt lat="38.365033" lon="-1.822213">
        <ele>421.5</ele>
        <time>2023-02-18T09:57:34Z</time>
      </trkpt>
      <trkpt lat="38.364968" lon="-1.822173">
        <ele>421.5</ele>
        <time>2023-02-18T09:57:40Z</time>
      </trkpt>
      <trkpt lat="38.364923" lon="-1.822118">
        <ele>422.3</ele>
        <time>2023-02-18T09:57:45Z</time>
      </trkpt>
      <trkpt lat="38.364886" lon="-1.822050">
        <ele>422.2</ele>
        <time>2023-02-18T09:57:50Z</time>
      </trkpt>
      <trkpt lat="38.364849" lon="-1.821976">
        <ele>423.5</ele>
        <time>2023-02-18T09:57:57Z</time>
      </trkpt>
      <trkpt lat="38.364837" lon="-1.821893">
        <ele>424.4</ele>
        <time>2023-02-18T09:58:02Z</time>
      </trkpt>
      <trkpt lat="38.364835" lon="-1.821809">
        <ele>425.4</ele>
        <time>2023-02-18T09:58:07Z</time>
      </trkpt>
      <trkpt lat="38.364868" lon="-1.821726">
        <ele>427.2</ele>
        <time>2023-02-18T09:58:13Z</time>
      </trkpt>
      <trkpt lat="38.364901" lon="-1.821650">
        <ele>427.5</ele>
        <time>2023-02-18T09:58:19Z</time>
      </trkpt>
      <trkpt lat="38.364936" lon="-1.821573">
        <ele>428.5</ele>
        <time>2023-02-18T09:58:27Z</time>
      </trkpt>
      <trkpt lat="38.364968" lon="-1.821504">
        <ele>428.5</ele>
        <time>2023-02-18T09:58:33Z</time>
      </trkpt>
      <trkpt lat="38.364983" lon="-1.821420">
        <ele>428.5</ele>
        <time>2023-02-18T09:58:39Z</time>
      </trkpt>
      <trkpt lat="38.365003" lon="-1.821340">
        <ele>427.7</ele>
        <time>2023-02-18T09:58:45Z</time>
      </trkpt>
      <trkpt lat="38.364991" lon="-1.821258">
        <ele>428.5</ele>
        <time>2023-02-18T09:58:52Z</time>
      </trkpt>
      <trkpt lat="38.364976" lon="-1.821170">
        <ele>428.5</ele>
        <time>2023-02-18T09:59:00Z</time>
      </trkpt>
      <trkpt lat="38.364933" lon="-1.821098">
        <ele>429.2</ele>
        <time>2023-02-18T09:59:06Z</time>
      </trkpt>
      <trkpt lat="38.364912" lon="-1.821006">
        <ele>428.5</ele>
        <time>2023-02-18T09:59:12Z</time>
      </trkpt>
      <trkpt lat="38.364889" lon="-1.820916">
        <ele>428.5</ele>
        <time>2023-02-18T09:59:18Z</time>
      </trkpt>
      <trkpt lat="38.364880" lon="-1.820823">
        <ele>429.5</ele>
        <time>2023-02-18T09:59:25Z</time>
      </trkpt>
      <trkpt lat="38.364857" lon="-1.820741">
        <ele>431.5</ele>
        <time>2023-02-18T09:59:36Z</time>
      </trkpt>
      <trkpt lat="38.364795" lon="-1.820679">
        <ele>428.7</ele>
        <time>2023-02-18T09:59:42Z</time>
      </trkpt>
      <trkpt lat="38.364741" lon="-1.820635">
        <ele>428.5</ele>
        <time>2023-02-18T09:59:46Z</time>
      </trkpt>
      <trkpt lat="38.364681" lon="-1.820585">
        <ele>427.7</ele>
        <time>2023-02-18T09:59:53Z</time>
      </trkpt>
      <trkpt lat="38.364616" lon="-1.820539">
        <ele>426.5</ele>
        <time>2023-02-18T09:59:59Z</time>
      </trkpt>
      <trkpt lat="38.364550" lon="-1.820499">
        <ele>425.5</ele>
        <time>2023-02-18T10:00:05Z</time>
      </trkpt>
      <trkpt lat="38.364497" lon="-1.820452">
        <ele>425.5</ele>
        <time>2023-02-18T10:00:11Z</time>
      </trkpt>
      <trkpt lat="38.364433" lon="-1.820409">
        <ele>425.5</ele>
        <time>2023-02-18T10:00:16Z</time>
      </trkpt>
      <trkpt lat="38.364384" lon="-1.820354">
        <ele>423.5</ele>
        <time>2023-02-18T10:00:22Z</time>
      </trkpt>
      <trkpt lat="38.364328" lon="-1.820309">
        <ele>424.2</ele>
        <time>2023-02-18T10:00:28Z</time>
      </trkpt>
      <trkpt lat="38.364279" lon="-1.820259">
        <ele>424.5</ele>
        <time>2023-02-18T10:00:33Z</time>
      </trkpt>
      <trkpt lat="38.364215" lon="-1.820206">
        <ele>424.5</ele>
        <time>2023-02-18T10:00:38Z</time>
      </trkpt>
      <trkpt lat="38.364177" lon="-1.820130">
        <ele>425.5</ele>
        <time>2023-02-18T10:00:43Z</time>
      </trkpt>
      <trkpt lat="38.364164" lon="-1.820036">
        <ele>425.5</ele>
        <time>2023-02-18T10:00:48Z</time>
      </trkpt>
      <trkpt lat="38.364187" lon="-1.819949">
        <ele>427.5</ele>
        <time>2023-02-18T10:00:53Z</time>
      </trkpt>
      <trkpt lat="38.364215" lon="-1.819866">
        <ele>428.5</ele>
        <time>2023-02-18T10:00:59Z</time>
      </trkpt>
      <trkpt lat="38.364237" lon="-1.819785">
        <ele>430.4</ele>
        <time>2023-02-18T10:01:06Z</time>
      </trkpt>
      <trkpt lat="38.364263" lon="-1.819703">
        <ele>430.5</ele>
        <time>2023-02-18T10:01:12Z</time>
      </trkpt>
      <trkpt lat="38.364270" lon="-1.819611">
        <ele>433.5</ele>
        <time>2023-02-18T10:01:18Z</time>
      </trkpt>
      <trkpt lat="38.364245" lon="-1.819526">
        <ele>433.5</ele>
        <time>2023-02-18T10:01:24Z</time>
      </trkpt>
      <trkpt lat="38.364216" lon="-1.819447">
        <ele>432.5</ele>
        <time>2023-02-18T10:01:30Z</time>
      </trkpt>
      <trkpt lat="38.364149" lon="-1.819411">
        <ele>430.5</ele>
        <time>2023-02-18T10:01:52Z</time>
      </trkpt>
      <trkpt lat="38.364089" lon="-1.819378">
        <ele>426.7</ele>
        <time>2023-02-18T10:01:59Z</time>
      </trkpt>
      <trkpt lat="38.364030" lon="-1.819336">
        <ele>426.5</ele>
        <time>2023-02-18T10:02:05Z</time>
      </trkpt>
      <trkpt lat="38.363958" lon="-1.819317">
        <ele>432.2</ele>
        <time>2023-02-18T10:02:19Z</time>
      </trkpt>
      <trkpt lat="38.363896" lon="-1.819288">
        <ele>429.5</ele>
        <time>2023-02-18T10:02:26Z</time>
      </trkpt>
      <trkpt lat="38.363832" lon="-1.819251">
        <ele>426.7</ele>
        <time>2023-02-18T10:02:32Z</time>
      </trkpt>
      <trkpt lat="38.363769" lon="-1.819231">
        <ele>428.4</ele>
        <time>2023-02-18T10:02:37Z</time>
      </trkpt>
      <trkpt lat="38.363708" lon="-1.819205">
        <ele>429.2</ele>
        <time>2023-02-18T10:02:42Z</time>
      </trkpt>
      <trkpt lat="38.363647" lon="-1.819165">
        <ele>430.6</ele>
        <time>2023-02-18T10:02:51Z</time>
      </trkpt>
      <trkpt lat="38.363582" lon="-1.819175">
        <ele>428.5</ele>
        <time>2023-02-18T10:02:56Z</time>
      </trkpt>
      <trkpt lat="38.363514" lon="-1.819166">
        <ele>427.5</ele>
        <time>2023-02-18T10:03:01Z</time>
      </trkpt>
      <trkpt lat="38.363446" lon="-1.819154">
        <ele>427.5</ele>
        <time>2023-02-18T10:03:07Z</time>
      </trkpt>
      <trkpt lat="38.363388" lon="-1.819118">
        <ele>426.7</ele>
        <time>2023-02-18T10:03:13Z</time>
      </trkpt>
      <trkpt lat="38.363323" lon="-1.819098">
        <ele>426.5</ele>
        <time>2023-02-18T10:03:19Z</time>
      </trkpt>
      <trkpt lat="38.363260" lon="-1.819078">
        <ele>428.2</ele>
        <time>2023-02-18T10:03:25Z</time>
      </trkpt>
      <trkpt lat="38.363193" lon="-1.819070">
        <ele>427.5</ele>
        <time>2023-02-18T10:03:30Z</time>
      </trkpt>
      <trkpt lat="38.363120" lon="-1.819091">
        <ele>427.5</ele>
        <time>2023-02-18T10:03:36Z</time>
      </trkpt>
      <trkpt lat="38.363056" lon="-1.819084">
        <ele>427.5</ele>
        <time>2023-02-18T10:03:42Z</time>
      </trkpt>
      <trkpt lat="38.362990" lon="-1.819064">
        <ele>426.5</ele>
        <time>2023-02-18T10:03:48Z</time>
      </trkpt>
      <trkpt lat="38.362926" lon="-1.819049">
        <ele>427.5</ele>
        <time>2023-02-18T10:03:53Z</time>
      </trkpt>
      <trkpt lat="38.362854" lon="-1.819059">
        <ele>426.5</ele>
        <time>2023-02-18T10:04:00Z</time>
      </trkpt>
      <trkpt lat="38.362786" lon="-1.819034">
        <ele>426.5</ele>
        <time>2023-02-18T10:04:07Z</time>
      </trkpt>
      <trkpt lat="38.362720" lon="-1.819048">
        <ele>427.5</ele>
        <time>2023-02-18T10:04:13Z</time>
      </trkpt>
      <trkpt lat="38.362656" lon="-1.819057">
        <ele>431.2</ele>
        <time>2023-02-18T10:04:21Z</time>
      </trkpt>
      <trkpt lat="38.362586" lon="-1.819069">
        <ele>433.5</ele>
        <time>2023-02-18T10:04:28Z</time>
      </trkpt>
      <trkpt lat="38.362521" lon="-1.819052">
        <ele>432.5</ele>
        <time>2023-02-18T10:04:35Z</time>
      </trkpt>
      <trkpt lat="38.362447" lon="-1.819071">
        <ele>430.8</ele>
        <time>2023-02-18T10:04:45Z</time>
      </trkpt>
      <trkpt lat="38.362378" lon="-1.819083">
        <ele>429.5</ele>
        <time>2023-02-18T10:04:51Z</time>
      </trkpt>
      <trkpt lat="38.362302" lon="-1.819087">
        <ele>431.2</ele>
        <time>2023-02-18T10:05:04Z</time>
      </trkpt>
      <trkpt lat="38.362238" lon="-1.819078">
        <ele>433.0</ele>
        <time>2023-02-18T10:05:35Z</time>
      </trkpt>
      <trkpt lat="38.362164" lon="-1.819074">
        <ele>432.5</ele>
        <time>2023-02-18T10:06:17Z</time>
      </trkpt>
      <trkpt lat="38.362095" lon="-1.819086">
        <ele>433.7</ele>
        <time>2023-02-18T10:06:24Z</time>
      </trkpt>
      <trkpt lat="38.362026" lon="-1.819082">
        <ele>434.5</ele>
        <time>2023-02-18T10:06:32Z</time>
      </trkpt>
      <trkpt lat="38.361960" lon="-1.819074">
        <ele>434.7</ele>
        <time>2023-02-18T10:06:40Z</time>
      </trkpt>
      <trkpt lat="38.361886" lon="-1.819068">
        <ele>436.5</ele>
        <time>2023-02-18T10:06:46Z</time>
      </trkpt>
      <trkpt lat="38.361824" lon="-1.819086">
        <ele>435.3</ele>
        <time>2023-02-18T10:06:52Z</time>
      </trkpt>
      <trkpt lat="38.361761" lon="-1.819106">
        <ele>436.5</ele>
        <time>2023-02-18T10:06:58Z</time>
      </trkpt>
      <trkpt lat="38.361696" lon="-1.819124">
        <ele>436.5</ele>
        <time>2023-02-18T10:07:05Z</time>
      </trkpt>
      <trkpt lat="38.361630" lon="-1.819122">
        <ele>437.5</ele>
        <time>2023-02-18T10:07:12Z</time>
      </trkpt>
      <trkpt lat="38.361567" lon="-1.819144">
        <ele>437.5</ele>
        <time>2023-02-18T10:07:16Z</time>
      </trkpt>
      <trkpt lat="38.361498" lon="-1.819157">
        <ele>436.5</ele>
        <time>2023-02-18T10:07:22Z</time>
      </trkpt>
      <trkpt lat="38.361425" lon="-1.819162">
        <ele>436.5</ele>
        <time>2023-02-18T10:07:28Z</time>
      </trkpt>
      <trkpt lat="38.361352" lon="-1.819175">
        <ele>437.5</ele>
        <time>2023-02-18T10:07:35Z</time>
      </trkpt>
      <trkpt lat="38.361284" lon="-1.819203">
        <ele>436.5</ele>
        <time>2023-02-18T10:07:42Z</time>
      </trkpt>
      <trkpt lat="38.361219" lon="-1.819210">
        <ele>436.5</ele>
        <time>2023-02-18T10:07:48Z</time>
      </trkpt>
      <trkpt lat="38.361147" lon="-1.819220">
        <ele>437.5</ele>
        <time>2023-02-18T10:07:54Z</time>
      </trkpt>
      <trkpt lat="38.361081" lon="-1.819216">
        <ele>439.4</ele>
        <time>2023-02-18T10:08:00Z</time>
      </trkpt>
      <trkpt lat="38.361010" lon="-1.819206">
        <ele>438.7</ele>
        <time>2023-02-18T10:08:05Z</time>
      </trkpt>
      <trkpt lat="38.360945" lon="-1.819155">
        <ele>439.5</ele>
        <time>2023-02-18T10:08:12Z</time>
      </trkpt>
      <trkpt lat="38.360951" lon="-1.819074">
        <ele>438.5</ele>
        <time>2023-02-18T10:08:17Z</time>
      </trkpt>
      <trkpt lat="38.360992" lon="-1.819006">
        <ele>439.4</ele>
        <time>2023-02-18T10:08:23Z</time>
      </trkpt>
      <trkpt lat="38.361050" lon="-1.818965">
        <ele>441.2</ele>
        <time>2023-02-18T10:08:29Z</time>
      </trkpt>
      <trkpt lat="38.361118" lon="-1.818938">
        <ele>440.5</ele>
        <time>2023-02-18T10:08:35Z</time>
      </trkpt>
      <trkpt lat="38.361187" lon="-1.818925">
        <ele>439.5</ele>
        <time>2023-02-18T10:08:42Z</time>
      </trkpt>
      <trkpt lat="38.361249" lon="-1.818948">
        <ele>436.5</ele>
        <time>2023-02-18T10:08:51Z</time>
      </trkpt>
      <trkpt lat="38.361316" lon="-1.818945">
        <ele>434.5</ele>
        <time>2023-02-18T10:09:00Z</time>
      </trkpt>
      <trkpt lat="38.361375" lon="-1.818895">
        <ele>435.5</ele>
        <time>2023-02-18T10:09:07Z</time>
      </trkpt>
      <trkpt lat="38.361390" lon="-1.818817">
        <ele>435.7</ele>
        <time>2023-02-18T10:09:15Z</time>
      </trkpt>
      <trkpt lat="38.361379" lon="-1.818737">
        <ele>435.5</ele>
        <time>2023-02-18T10:09:30Z</time>
      </trkpt>
      <trkpt lat="38.361407" lon="-1.818651">
        <ele>437.5</ele>
        <time>2023-02-18T10:09:39Z</time>
      </trkpt>
      <trkpt lat="38.361445" lon="-1.818578">
        <ele>437.5</ele>
        <time>2023-02-18T10:09:45Z</time>
      </trkpt>
      <trkpt lat="38.361477" lon="-1.818490">
        <ele>437.5</ele>
        <time>2023-02-18T10:09:51Z</time>
      </trkpt>
      <trkpt lat="38.361518" lon="-1.818418">
        <ele>438.4</ele>
        <time>2023-02-18T10:09:57Z</time>
      </trkpt>
      <trkpt lat="38.361568" lon="-1.818354">
        <ele>438.2</ele>
        <time>2023-02-18T10:10:03Z</time>
      </trkpt>
      <trkpt lat="38.361612" lon="-1.818293">
        <ele>440.4</ele>
        <time>2023-02-18T10:10:09Z</time>
      </trkpt>
      <trkpt lat="38.361668" lon="-1.818240">
        <ele>439.5</ele>
        <time>2023-02-18T10:10:17Z</time>
      </trkpt>
      <trkpt lat="38.361719" lon="-1.818179">
        <ele>439.5</ele>
        <time>2023-02-18T10:10:23Z</time>
      </trkpt>
      <trkpt lat="38.361770" lon="-1.818130">
        <ele>440.5</ele>
        <time>2023-02-18T10:10:28Z</time>
      </trkpt>
      <trkpt lat="38.361818" lon="-1.818070">
        <ele>441.5</ele>
        <time>2023-02-18T10:10:34Z</time>
      </trkpt>
      <trkpt lat="38.361855" lon="-1.818005">
        <ele>441.2</ele>
        <time>2023-02-18T10:10:40Z</time>
      </trkpt>
      <trkpt lat="38.361897" lon="-1.817933">
        <ele>441.5</ele>
        <time>2023-02-18T10:10:46Z</time>
      </trkpt>
      <trkpt lat="38.361939" lon="-1.817861">
        <ele>442.4</ele>
        <time>2023-02-18T10:10:52Z</time>
      </trkpt>
      <trkpt lat="38.361988" lon="-1.817806">
        <ele>442.5</ele>
        <time>2023-02-18T10:10:58Z</time>
      </trkpt>
      <trkpt lat="38.362034" lon="-1.817742">
        <ele>443.2</ele>
        <time>2023-02-18T10:11:04Z</time>
      </trkpt>
      <trkpt lat="38.362073" lon="-1.817669">
        <ele>443.5</ele>
        <time>2023-02-18T10:11:10Z</time>
      </trkpt>
      <trkpt lat="38.362105" lon="-1.817595">
        <ele>442.5</ele>
        <time>2023-02-18T10:11:18Z</time>
      </trkpt>
      <trkpt lat="38.362149" lon="-1.817518">
        <ele>443.4</ele>
        <time>2023-02-18T10:11:25Z</time>
      </trkpt>
      <trkpt lat="38.362154" lon="-1.817429">
        <ele>443.5</ele>
        <time>2023-02-18T10:11:32Z</time>
      </trkpt>
      <trkpt lat="38.362151" lon="-1.817344">
        <ele>442.5</ele>
        <time>2023-02-18T10:11:38Z</time>
      </trkpt>
      <trkpt lat="38.362132" lon="-1.817249">
        <ele>442.7</ele>
        <time>2023-02-18T10:11:44Z</time>
      </trkpt>
      <trkpt lat="38.362119" lon="-1.817171">
        <ele>438.5</ele>
        <time>2023-02-18T10:12:19Z</time>
      </trkpt>
      <trkpt lat="38.362085" lon="-1.817103">
        <ele>437.7</ele>
        <time>2023-02-18T10:12:27Z</time>
      </trkpt>
      <trkpt lat="38.362047" lon="-1.817037">
        <ele>439.4</ele>
        <time>2023-02-18T10:12:32Z</time>
      </trkpt>
      <trkpt lat="38.362007" lon="-1.816964">
        <ele>442.2</ele>
        <time>2023-02-18T10:12:38Z</time>
      </trkpt>
      <trkpt lat="38.361955" lon="-1.816902">
        <ele>440.5</ele>
        <time>2023-02-18T10:12:44Z</time>
      </trkpt>
      <trkpt lat="38.361904" lon="-1.816834">
        <ele>440.5</ele>
        <time>2023-02-18T10:12:50Z</time>
      </trkpt>
      <trkpt lat="38.361860" lon="-1.816776">
        <ele>441.5</ele>
        <time>2023-02-18T10:12:56Z</time>
      </trkpt>
      <trkpt lat="38.361817" lon="-1.816714">
        <ele>439.7</ele>
        <time>2023-02-18T10:13:03Z</time>
      </trkpt>
      <trkpt lat="38.361766" lon="-1.816646">
        <ele>439.5</ele>
        <time>2023-02-18T10:13:09Z</time>
      </trkpt>
      <trkpt lat="38.361719" lon="-1.816583">
        <ele>439.5</ele>
        <time>2023-02-18T10:13:15Z</time>
      </trkpt>
      <trkpt lat="38.361666" lon="-1.816527">
        <ele>440.5</ele>
        <time>2023-02-18T10:13:21Z</time>
      </trkpt>
      <trkpt lat="38.361621" lon="-1.816464">
        <ele>439.5</ele>
        <time>2023-02-18T10:13:26Z</time>
      </trkpt>
      <trkpt lat="38.361578" lon="-1.816398">
        <ele>439.5</ele>
        <time>2023-02-18T10:13:32Z</time>
      </trkpt>
      <trkpt lat="38.361530" lon="-1.816340">
        <ele>441.5</ele>
        <time>2023-02-18T10:13:39Z</time>
      </trkpt>
      <trkpt lat="38.361488" lon="-1.816270">
        <ele>441.5</ele>
        <time>2023-02-18T10:13:46Z</time>
      </trkpt>
      <trkpt lat="38.361438" lon="-1.816219">
        <ele>440.5</ele>
        <time>2023-02-18T10:13:52Z</time>
      </trkpt>
      <trkpt lat="38.361394" lon="-1.816141">
        <ele>439.5</ele>
        <time>2023-02-18T10:13:58Z</time>
      </trkpt>
      <trkpt lat="38.361348" lon="-1.816080">
        <ele>440.5</ele>
        <time>2023-02-18T10:14:04Z</time>
      </trkpt>
      <trkpt lat="38.361301" lon="-1.816005">
        <ele>441.5</ele>
        <time>2023-02-18T10:14:10Z</time>
      </trkpt>
      <trkpt lat="38.361260" lon="-1.815938">
        <ele>442.5</ele>
        <time>2023-02-18T10:14:16Z</time>
      </trkpt>
      <trkpt lat="38.361222" lon="-1.815857">
        <ele>443.5</ele>
        <time>2023-02-18T10:14:22Z</time>
      </trkpt>
      <trkpt lat="38.361222" lon="-1.815762">
        <ele>442.5</ele>
        <time>2023-02-18T10:14:28Z</time>
      </trkpt>
      <trkpt lat="38.361247" lon="-1.815686">
        <ele>442.5</ele>
        <time>2023-02-18T10:14:33Z</time>
      </trkpt>
      <trkpt lat="38.361290" lon="-1.815622">
        <ele>441.5</ele>
        <time>2023-02-18T10:14:40Z</time>
      </trkpt>
      <trkpt lat="38.361313" lon="-1.815546">
        <ele>441.2</ele>
        <time>2023-02-18T10:14:46Z</time>
      </trkpt>
      <trkpt lat="38.361307" lon="-1.815464">
        <ele>442.5</ele>
        <time>2023-02-18T10:14:51Z</time>
      </trkpt>
      <trkpt lat="38.361280" lon="-1.815379">
        <ele>443.4</ele>
        <time>2023-02-18T10:14:56Z</time>
      </trkpt>
      <trkpt lat="38.361250" lon="-1.815308">
        <ele>443.5</ele>
        <time>2023-02-18T10:15:01Z</time>
      </trkpt>
      <trkpt lat="38.361220" lon="-1.815226">
        <ele>442.5</ele>
        <time>2023-02-18T10:15:08Z</time>
      </trkpt>
      <trkpt lat="38.361182" lon="-1.815148">
        <ele>444.5</ele>
        <time>2023-02-18T10:15:14Z</time>
      </trkpt>
      <trkpt lat="38.361133" lon="-1.815093">
        <ele>445.4</ele>
        <time>2023-02-18T10:15:19Z</time>
      </trkpt>
      <trkpt lat="38.361096" lon="-1.815022">
        <ele>446.5</ele>
        <time>2023-02-18T10:15:24Z</time>
      </trkpt>
      <trkpt lat="38.361062" lon="-1.814952">
        <ele>446.7</ele>
        <time>2023-02-18T10:15:29Z</time>
      </trkpt>
      <trkpt lat="38.361028" lon="-1.814872">
        <ele>445.5</ele>
        <time>2023-02-18T10:15:35Z</time>
      </trkpt>
      <trkpt lat="38.361006" lon="-1.814785">
        <ele>446.2</ele>
        <time>2023-02-18T10:15:42Z</time>
      </trkpt>
      <trkpt lat="38.361000" lon="-1.814688">
        <ele>447.4</ele>
        <time>2023-02-18T10:15:48Z</time>
      </trkpt>
      <trkpt lat="38.361008" lon="-1.814594">
        <ele>445.5</ele>
        <time>2023-02-18T10:15:54Z</time>
      </trkpt>
      <trkpt lat="38.361002" lon="-1.814504">
        <ele>445.5</ele>
        <time>2023-02-18T10:16:00Z</time>
      </trkpt>
      <trkpt lat="38.360995" lon="-1.814411">
        <ele>444.5</ele>
        <time>2023-02-18T10:16:06Z</time>
      </trkpt>
      <trkpt lat="38.360982" lon="-1.814333">
        <ele>443.5</ele>
        <time>2023-02-18T10:16:11Z</time>
      </trkpt>
      <trkpt lat="38.360962" lon="-1.814242">
        <ele>443.5</ele>
        <time>2023-02-18T10:16:17Z</time>
      </trkpt>
      <trkpt lat="38.360951" lon="-1.814161">
        <ele>443.5</ele>
        <time>2023-02-18T10:16:22Z</time>
      </trkpt>
      <trkpt lat="38.360938" lon="-1.814079">
        <ele>444.3</ele>
        <time>2023-02-18T10:16:27Z</time>
      </trkpt>
      <trkpt lat="38.360924" lon="-1.813988">
        <ele>444.5</ele>
        <time>2023-02-18T10:16:32Z</time>
      </trkpt>
      <trkpt lat="38.360924" lon="-1.813900">
        <ele>444.5</ele>
        <time>2023-02-18T10:16:38Z</time>
      </trkpt>
      <trkpt lat="38.360933" lon="-1.813817">
        <ele>444.4</ele>
        <time>2023-02-18T10:16:43Z</time>
      </trkpt>
      <trkpt lat="38.360936" lon="-1.813732">
        <ele>444.2</ele>
        <time>2023-02-18T10:16:48Z</time>
      </trkpt>
      <trkpt lat="38.360944" lon="-1.813643">
        <ele>444.5</ele>
        <time>2023-02-18T10:16:54Z</time>
      </trkpt>
      <trkpt lat="38.360950" lon="-1.813560">
        <ele>444.5</ele>
        <time>2023-02-18T10:16:59Z</time>
      </trkpt>
      <trkpt lat="38.360961" lon="-1.813476">
        <ele>445.4</ele>
        <time>2023-02-18T10:17:04Z</time>
      </trkpt>
      <trkpt lat="38.360973" lon="-1.813386">
        <ele>446.4</ele>
        <time>2023-02-18T10:17:10Z</time>
      </trkpt>
      <trkpt lat="38.360986" lon="-1.813295">
        <ele>445.5</ele>
        <time>2023-02-18T10:17:15Z</time>
      </trkpt>
      <trkpt lat="38.360995" lon="-1.813203">
        <ele>446.5</ele>
        <time>2023-02-18T10:17:21Z</time>
      </trkpt>
      <trkpt lat="38.360998" lon="-1.813120">
        <ele>447.5</ele>
        <time>2023-02-18T10:17:26Z</time>
      </trkpt>
      <trkpt lat="38.361004" lon="-1.813022">
        <ele>446.5</ele>
        <time>2023-02-18T10:17:32Z</time>
      </trkpt>
      <trkpt lat="38.361008" lon="-1.812935">
        <ele>447.2</ele>
        <time>2023-02-18T10:17:38Z</time>
      </trkpt>
      <trkpt lat="38.361004" lon="-1.812849">
        <ele>446.5</ele>
        <time>2023-02-18T10:17:43Z</time>
      </trkpt>
      <trkpt lat="38.360996" lon="-1.812763">
        <ele>446.5</ele>
        <time>2023-02-18T10:17:49Z</time>
      </trkpt>
      <trkpt lat="38.360982" lon="-1.812684">
        <ele>446.5</ele>
        <time>2023-02-18T10:17:54Z</time>
      </trkpt>
      <trkpt lat="38.360956" lon="-1.812596">
        <ele>445.7</ele>
        <time>2023-02-18T10:18:00Z</time>
      </trkpt>
      <trkpt lat="38.360916" lon="-1.812522">
        <ele>443.5</ele>
        <time>2023-02-18T10:18:06Z</time>
      </trkpt>
      <trkpt lat="38.360879" lon="-1.812451">
        <ele>442.5</ele>
        <time>2023-02-18T10:18:12Z</time>
      </trkpt>
      <trkpt lat="38.360836" lon="-1.812381">
        <ele>441.5</ele>
        <time>2023-02-18T10:18:19Z</time>
      </trkpt>
      <trkpt lat="38.360792" lon="-1.812309">
        <ele>441.5</ele>
        <time>2023-02-18T10:18:25Z</time>
      </trkpt>
      <trkpt lat="38.360744" lon="-1.812254">
        <ele>441.6</ele>
        <time>2023-02-18T10:18:32Z</time>
      </trkpt>
      <trkpt lat="38.360688" lon="-1.812209">
        <ele>444.5</ele>
        <time>2023-02-18T10:18:41Z</time>
      </trkpt>
      <trkpt lat="38.360633" lon="-1.812154">
        <ele>444.5</ele>
        <time>2023-02-18T10:18:48Z</time>
      </trkpt>
      <trkpt lat="38.360582" lon="-1.812098">
        <ele>446.4</ele>
        <time>2023-02-18T10:18:55Z</time>
      </trkpt>
      <trkpt lat="38.360541" lon="-1.812034">
        <ele>448.5</ele>
        <time>2023-02-18T10:19:02Z</time>
      </trkpt>
      <trkpt lat="38.360498" lon="-1.811962">
        <ele>447.5</ele>
        <time>2023-02-18T10:19:09Z</time>
      </trkpt>
      <trkpt lat="38.360466" lon="-1.811887">
        <ele>448.5</ele>
        <time>2023-02-18T10:19:17Z</time>
      </trkpt>
      <trkpt lat="38.360430" lon="-1.811825">
        <ele>449.5</ele>
        <time>2023-02-18T10:19:23Z</time>
      </trkpt>
      <trkpt lat="38.360435" lon="-1.811739">
        <ele>450.2</ele>
        <time>2023-02-18T10:19:28Z</time>
      </trkpt>
      <trkpt lat="38.360443" lon="-1.811643">
        <ele>450.7</ele>
        <time>2023-02-18T10:19:34Z</time>
      </trkpt>
      <trkpt lat="38.360447" lon="-1.811568">
        <ele>450.5</ele>
        <time>2023-02-18T10:19:39Z</time>
      </trkpt>
      <trkpt lat="38.360447" lon="-1.811482">
        <ele>452.5</ele>
        <time>2023-02-18T10:19:44Z</time>
      </trkpt>
      <trkpt lat="38.360451" lon="-1.811402">
        <ele>453.5</ele>
        <time>2023-02-18T10:19:49Z</time>
      </trkpt>
      <trkpt lat="38.360460" lon="-1.811316">
        <ele>454.5</ele>
        <time>2023-02-18T10:19:55Z</time>
      </trkpt>
      <trkpt lat="38.360468" lon="-1.811236">
        <ele>455.5</ele>
        <time>2023-02-18T10:20:00Z</time>
      </trkpt>
      <trkpt lat="38.360484" lon="-1.811150">
        <ele>456.5</ele>
        <time>2023-02-18T10:20:07Z</time>
      </trkpt>
      <trkpt lat="38.360481" lon="-1.811059">
        <ele>453.6</ele>
        <time>2023-02-18T10:20:22Z</time>
      </trkpt>
      <trkpt lat="38.360472" lon="-1.810973">
        <ele>453.3</ele>
        <time>2023-02-18T10:20:27Z</time>
      </trkpt>
      <trkpt lat="38.360472" lon="-1.810882">
        <ele>453.5</ele>
        <time>2023-02-18T10:20:33Z</time>
      </trkpt>
      <trkpt lat="38.360477" lon="-1.810786">
        <ele>454.2</ele>
        <time>2023-02-18T10:20:39Z</time>
      </trkpt>
      <trkpt lat="38.360484" lon="-1.810700">
        <ele>454.5</ele>
        <time>2023-02-18T10:20:45Z</time>
      </trkpt>
      <trkpt lat="38.360497" lon="-1.810609">
        <ele>453.5</ele>
        <time>2023-02-18T10:20:51Z</time>
      </trkpt>
      <trkpt lat="38.360514" lon="-1.810512">
        <ele>451.8</ele>
        <time>2023-02-18T10:20:57Z</time>
      </trkpt>
      <trkpt lat="38.360523" lon="-1.810432">
        <ele>450.5</ele>
        <time>2023-02-18T10:21:03Z</time>
      </trkpt>
      <trkpt lat="38.360535" lon="-1.810341">
        <ele>449.5</ele>
        <time>2023-02-18T10:21:09Z</time>
      </trkpt>
      <trkpt lat="38.360539" lon="-1.810250">
        <ele>448.5</ele>
        <time>2023-02-18T10:21:15Z</time>
      </trkpt>
      <trkpt lat="38.360556" lon="-1.810159">
        <ele>449.2</ele>
        <time>2023-02-18T10:21:21Z</time>
      </trkpt>
      <trkpt lat="38.360565" lon="-1.810079">
        <ele>449.5</ele>
        <time>2023-02-18T10:21:26Z</time>
      </trkpt>
      <trkpt lat="38.360573" lon="-1.809993">
        <ele>449.4</ele>
        <time>2023-02-18T10:21:31Z</time>
      </trkpt>
      <trkpt lat="38.360577" lon="-1.809912">
        <ele>450.2</ele>
        <time>2023-02-18T10:21:36Z</time>
      </trkpt>
      <trkpt lat="38.360582" lon="-1.809827">
        <ele>451.4</ele>
        <time>2023-02-18T10:21:41Z</time>
      </trkpt>
      <trkpt lat="38.360586" lon="-1.809736">
        <ele>452.5</ele>
        <time>2023-02-18T10:21:47Z</time>
      </trkpt>
      <trkpt lat="38.360594" lon="-1.809655">
        <ele>452.5</ele>
        <time>2023-02-18T10:21:52Z</time>
      </trkpt>
      <trkpt lat="38.360602" lon="-1.809575">
        <ele>451.8</ele>
        <time>2023-02-18T10:21:57Z</time>
      </trkpt>
      <trkpt lat="38.360619" lon="-1.809494">
        <ele>452.5</ele>
        <time>2023-02-18T10:22:02Z</time>
      </trkpt>
      <trkpt lat="38.360624" lon="-1.809398">
        <ele>452.7</ele>
        <time>2023-02-18T10:22:08Z</time>
      </trkpt>
      <trkpt lat="38.360632" lon="-1.809318">
        <ele>453.5</ele>
        <time>2023-02-18T10:22:14Z</time>
      </trkpt>
      <trkpt lat="38.360632" lon="-1.809227">
        <ele>452.5</ele>
        <time>2023-02-18T10:22:20Z</time>
      </trkpt>
      <trkpt lat="38.360636" lon="-1.809135">
        <ele>453.4</ele>
        <time>2023-02-18T10:22:26Z</time>
      </trkpt>
      <trkpt lat="38.360636" lon="-1.809045">
        <ele>453.5</ele>
        <time>2023-02-18T10:22:32Z</time>
      </trkpt>
      <trkpt lat="38.360640" lon="-1.808959">
        <ele>454.4</ele>
        <time>2023-02-18T10:22:37Z</time>
      </trkpt>
      <trkpt lat="38.360624" lon="-1.808878">
        <ele>454.5</ele>
        <time>2023-02-18T10:22:43Z</time>
      </trkpt>
      <trkpt lat="38.360590" lon="-1.808803">
        <ele>455.5</ele>
        <time>2023-02-18T10:22:48Z</time>
      </trkpt>
      <trkpt lat="38.360552" lon="-1.808739">
        <ele>456.5</ele>
        <time>2023-02-18T10:22:53Z</time>
      </trkpt>
      <trkpt lat="38.360502" lon="-1.808691">
        <ele>456.5</ele>
        <time>2023-02-18T10:22:58Z</time>
      </trkpt>
      <trkpt lat="38.360451" lon="-1.808643">
        <ele>457.5</ele>
        <time>2023-02-18T10:23:04Z</time>
      </trkpt>
      <trkpt lat="38.360392" lon="-1.808595">
        <ele>456.5</ele>
        <time>2023-02-18T10:23:09Z</time>
      </trkpt>
      <trkpt lat="38.360338" lon="-1.808541">
        <ele>456.5</ele>
        <time>2023-02-18T10:23:15Z</time>
      </trkpt>
      <trkpt lat="38.360283" lon="-1.808493">
        <ele>456.6</ele>
        <time>2023-02-18T10:23:21Z</time>
      </trkpt>
      <trkpt lat="38.360225" lon="-1.808434">
        <ele>456.5</ele>
        <time>2023-02-18T10:23:27Z</time>
      </trkpt>
      <trkpt lat="38.360178" lon="-1.808386">
        <ele>457.3</ele>
        <time>2023-02-18T10:23:32Z</time>
      </trkpt>
      <trkpt lat="38.360124" lon="-1.808327">
        <ele>457.5</ele>
        <time>2023-02-18T10:23:38Z</time>
      </trkpt>
      <trkpt lat="38.360056" lon="-1.808300">
        <ele>456.8</ele>
        <time>2023-02-18T10:23:49Z</time>
      </trkpt>
      <trkpt lat="38.359998" lon="-1.808262">
        <ele>457.5</ele>
        <time>2023-02-18T10:23:55Z</time>
      </trkpt>
      <trkpt lat="38.359934" lon="-1.808209">
        <ele>456.5</ele>
        <time>2023-02-18T10:24:00Z</time>
      </trkpt>
      <trkpt lat="38.359880" lon="-1.808161">
        <ele>456.5</ele>
        <time>2023-02-18T10:24:06Z</time>
      </trkpt>
      <trkpt lat="38.359821" lon="-1.808118">
        <ele>457.5</ele>
        <time>2023-02-18T10:24:12Z</time>
      </trkpt>
      <trkpt lat="38.359778" lon="-1.808045">
        <ele>458.3</ele>
        <time>2023-02-18T10:24:18Z</time>
      </trkpt>
      <trkpt lat="38.359743" lon="-1.808011">
        <ele>458.5</ele>
        <time>2023-02-18T10:24:25Z</time>
      </trkpt>
      <trkpt lat="38.359712" lon="-1.807915">
        <ele>459.5</ele>
        <time>2023-02-18T10:24:33Z</time>
      </trkpt>
      <trkpt lat="38.359668" lon="-1.807857">
        <ele>459.5</ele>
        <time>2023-02-18T10:24:42Z</time>
      </trkpt>
      <trkpt lat="38.359631" lon="-1.807788">
        <ele>460.5</ele>
        <time>2023-02-18T10:24:54Z</time>
      </trkpt>
      <trkpt lat="38.359626" lon="-1.807706">
        <ele>460.5</ele>
        <time>2023-02-18T10:25:03Z</time>
      </trkpt>
      <trkpt lat="38.359618" lon="-1.807614">
        <ele>461.5</ele>
        <time>2023-02-18T10:25:10Z</time>
      </trkpt>
      <trkpt lat="38.359599" lon="-1.807529">
        <ele>463.5</ele>
        <time>2023-02-18T10:25:16Z</time>
      </trkpt>
      <trkpt lat="38.359607" lon="-1.807448">
        <ele>464.5</ele>
        <time>2023-02-18T10:25:21Z</time>
      </trkpt>
      <trkpt lat="38.359624" lon="-1.807352">
        <ele>463.5</ele>
        <time>2023-02-18T10:25:27Z</time>
      </trkpt>
      <trkpt lat="38.359674" lon="-1.807293">
        <ele>463.5</ele>
        <time>2023-02-18T10:25:32Z</time>
      </trkpt>
      <trkpt lat="38.359782" lon="-1.807251">
        <ele>461.6</ele>
        <time>2023-02-18T10:25:38Z</time>
      </trkpt>
      <trkpt lat="38.359842" lon="-1.807282">
        <ele>460.6</ele>
        <time>2023-02-18T10:25:47Z</time>
      </trkpt>
      <trkpt lat="38.359874" lon="-1.807377">
        <ele>456.8</ele>
        <time>2023-02-18T10:26:26Z</time>
      </trkpt>
      <trkpt lat="38.359895" lon="-1.807463">
        <ele>457.3</ele>
        <time>2023-02-18T10:26:33Z</time>
      </trkpt>
      <trkpt lat="38.359923" lon="-1.807542">
        <ele>457.5</ele>
        <time>2023-02-18T10:26:46Z</time>
      </trkpt>
      <trkpt lat="38.359962" lon="-1.807608">
        <ele>456.6</ele>
        <time>2023-02-18T10:26:52Z</time>
      </trkpt>
      <trkpt lat="38.360025" lon="-1.807659">
        <ele>454.8</ele>
        <time>2023-02-18T10:26:58Z</time>
      </trkpt>
      <trkpt lat="38.360084" lon="-1.807692">
        <ele>454.6</ele>
        <time>2023-02-18T10:27:03Z</time>
      </trkpt>
      <trkpt lat="38.360153" lon="-1.807707">
        <ele>454.6</ele>
        <time>2023-02-18T10:27:09Z</time>
      </trkpt>
      <trkpt lat="38.360219" lon="-1.807706">
        <ele>454.5</ele>
        <time>2023-02-18T10:27:15Z</time>
      </trkpt>
      <trkpt lat="38.360286" lon="-1.807658">
        <ele>454.6</ele>
        <time>2023-02-18T10:27:21Z</time>
      </trkpt>
      <trkpt lat="38.360328" lon="-1.807617">
        <ele>456.3</ele>
        <time>2023-02-18T10:27:27Z</time>
      </trkpt>
      <trkpt lat="38.360382" lon="-1.807559">
        <ele>455.5</ele>
        <time>2023-02-18T10:27:34Z</time>
      </trkpt>
      <trkpt lat="38.360398" lon="-1.807511">
        <ele>456.5</ele>
        <time>2023-02-18T10:27:40Z</time>
      </trkpt>
      <trkpt lat="38.360430" lon="-1.807436">
        <ele>457.3</ele>
        <time>2023-02-18T10:27:46Z</time>
      </trkpt>
      <trkpt lat="38.360499" lon="-1.807363">
        <ele>457.5</ele>
        <time>2023-02-18T10:27:51Z</time>
      </trkpt>
      <trkpt lat="38.360535" lon="-1.807287">
        <ele>459.2</ele>
        <time>2023-02-18T10:27:56Z</time>
      </trkpt>
      <trkpt lat="38.360564" lon="-1.807215">
        <ele>460.5</ele>
        <time>2023-02-18T10:28:01Z</time>
      </trkpt>
      <trkpt lat="38.360593" lon="-1.807144">
        <ele>460.5</ele>
        <time>2023-02-18T10:28:06Z</time>
      </trkpt>
      <trkpt lat="38.360625" lon="-1.807062">
        <ele>457.5</ele>
        <time>2023-02-18T10:28:12Z</time>
      </trkpt>
      <trkpt lat="38.360659" lon="-1.806988">
        <ele>456.6</ele>
        <time>2023-02-18T10:28:18Z</time>
      </trkpt>
      <trkpt lat="38.360700" lon="-1.806907">
        <ele>457.5</ele>
        <time>2023-02-18T10:28:24Z</time>
      </trkpt>
      <trkpt lat="38.360729" lon="-1.806834">
        <ele>457.5</ele>
        <time>2023-02-18T10:28:29Z</time>
      </trkpt>
      <trkpt lat="38.360769" lon="-1.806768">
        <ele>457.5</ele>
        <time>2023-02-18T10:28:34Z</time>
      </trkpt>
      <trkpt lat="38.360802" lon="-1.806692">
        <ele>456.6</ele>
        <time>2023-02-18T10:28:40Z</time>
      </trkpt>
      <trkpt lat="38.360831" lon="-1.806605">
        <ele>455.5</ele>
        <time>2023-02-18T10:28:46Z</time>
      </trkpt>
      <trkpt lat="38.360860" lon="-1.806533">
        <ele>455.5</ele>
        <time>2023-02-18T10:28:52Z</time>
      </trkpt>
      <trkpt lat="38.360885" lon="-1.806444">
        <ele>456.5</ele>
        <time>2023-02-18T10:28:58Z</time>
      </trkpt>
      <trkpt lat="38.360908" lon="-1.806359">
        <ele>456.5</ele>
        <time>2023-02-18T10:29:04Z</time>
      </trkpt>
      <trkpt lat="38.360927" lon="-1.806274">
        <ele>458.5</ele>
        <time>2023-02-18T10:29:10Z</time>
      </trkpt>
      <trkpt lat="38.360951" lon="-1.806185">
        <ele>458.6</ele>
        <time>2023-02-18T10:29:16Z</time>
      </trkpt>
      <trkpt lat="38.360968" lon="-1.806106">
        <ele>457.8</ele>
        <time>2023-02-18T10:29:21Z</time>
      </trkpt>
      <trkpt lat="38.360981" lon="-1.806017">
        <ele>458.3</ele>
        <time>2023-02-18T10:29:27Z</time>
      </trkpt>
      <trkpt lat="38.360995" lon="-1.805928">
        <ele>459.5</ele>
        <time>2023-02-18T10:29:33Z</time>
      </trkpt>
      <trkpt lat="38.361017" lon="-1.805850">
        <ele>459.5</ele>
        <time>2023-02-18T10:29:39Z</time>
      </trkpt>
      <trkpt lat="38.361050" lon="-1.805777">
        <ele>458.6</ele>
        <time>2023-02-18T10:29:44Z</time>
      </trkpt>
      <trkpt lat="38.361099" lon="-1.805710">
        <ele>457.8</ele>
        <time>2023-02-18T10:29:50Z</time>
      </trkpt>
      <trkpt lat="38.361127" lon="-1.805630">
        <ele>458.5</ele>
        <time>2023-02-18T10:29:56Z</time>
      </trkpt>
      <trkpt lat="38.361138" lon="-1.805546">
        <ele>459.3</ele>
        <time>2023-02-18T10:30:01Z</time>
      </trkpt>
      <trkpt lat="38.361131" lon="-1.805463">
        <ele>458.5</ele>
        <time>2023-02-18T10:30:06Z</time>
      </trkpt>
      <trkpt lat="38.361118" lon="-1.805382">
        <ele>456.6</ele>
        <time>2023-02-18T10:30:12Z</time>
      </trkpt>
      <trkpt lat="38.361118" lon="-1.805300">
        <ele>457.7</ele>
        <time>2023-02-18T10:30:17Z</time>
      </trkpt>
      <trkpt lat="38.361159" lon="-1.805233">
        <ele>457.8</ele>
        <time>2023-02-18T10:30:22Z</time>
      </trkpt>
      <trkpt lat="38.361230" lon="-1.805217">
        <ele>455.6</ele>
        <time>2023-02-18T10:30:27Z</time>
      </trkpt>
      <trkpt lat="38.361297" lon="-1.805204">
        <ele>452.6</ele>
        <time>2023-02-18T10:30:33Z</time>
      </trkpt>
      <trkpt lat="38.361365" lon="-1.805165">
        <ele>453.5</ele>
        <time>2023-02-18T10:30:39Z</time>
      </trkpt>
      <trkpt lat="38.361428" lon="-1.805118">
        <ele>452.5</ele>
        <time>2023-02-18T10:30:45Z</time>
      </trkpt>
      <trkpt lat="38.361466" lon="-1.805052">
        <ele>452.3</ele>
        <time>2023-02-18T10:30:50Z</time>
      </trkpt>
      <trkpt lat="38.361501" lon="-1.804984">
        <ele>451.6</ele>
        <time>2023-02-18T10:30:55Z</time>
      </trkpt>
      <trkpt lat="38.361547" lon="-1.804909">
        <ele>451.5</ele>
        <time>2023-02-18T10:31:01Z</time>
      </trkpt>
      <trkpt lat="38.361591" lon="-1.804840">
        <ele>452.5</ele>
        <time>2023-02-18T10:31:06Z</time>
      </trkpt>
      <trkpt lat="38.361632" lon="-1.804769">
        <ele>452.5</ele>
        <time>2023-02-18T10:31:12Z</time>
      </trkpt>
      <trkpt lat="38.361685" lon="-1.804697">
        <ele>453.5</ele>
        <time>2023-02-18T10:31:18Z</time>
      </trkpt>
      <trkpt lat="38.361719" lon="-1.804627">
        <ele>453.5</ele>
        <time>2023-02-18T10:31:23Z</time>
      </trkpt>
      <trkpt lat="38.361755" lon="-1.804555">
        <ele>454.5</ele>
        <time>2023-02-18T10:31:28Z</time>
      </trkpt>
      <trkpt lat="38.361797" lon="-1.804482">
        <ele>455.3</ele>
        <time>2023-02-18T10:31:34Z</time>
      </trkpt>
      <trkpt lat="38.361829" lon="-1.804406">
        <ele>455.5</ele>
        <time>2023-02-18T10:31:40Z</time>
      </trkpt>
      <trkpt lat="38.361855" lon="-1.804325">
        <ele>455.5</ele>
        <time>2023-02-18T10:31:45Z</time>
      </trkpt>
      <trkpt lat="38.361881" lon="-1.804241">
        <ele>454.5</ele>
        <time>2023-02-18T10:31:51Z</time>
      </trkpt>
      <trkpt lat="38.361899" lon="-1.804155">
        <ele>456.5</ele>
        <time>2023-02-18T10:31:57Z</time>
      </trkpt>
      <trkpt lat="38.361922" lon="-1.804061">
        <ele>456.5</ele>
        <time>2023-02-18T10:32:03Z</time>
      </trkpt>
      <trkpt lat="38.361939" lon="-1.803973">
        <ele>457.5</ele>
        <time>2023-02-18T10:32:08Z</time>
      </trkpt>
      <trkpt lat="38.361954" lon="-1.803892">
        <ele>458.3</ele>
        <time>2023-02-18T10:32:13Z</time>
      </trkpt>
      <trkpt lat="38.361953" lon="-1.803809">
        <ele>458.5</ele>
        <time>2023-02-18T10:32:18Z</time>
      </trkpt>
      <trkpt lat="38.361958" lon="-1.803723">
        <ele>459.5</ele>
        <time>2023-02-18T10:32:24Z</time>
      </trkpt>
      <trkpt lat="38.361947" lon="-1.803644">
        <ele>460.3</ele>
        <time>2023-02-18T10:32:29Z</time>
      </trkpt>
      <trkpt lat="38.361909" lon="-1.803563">
        <ele>459.5</ele>
        <time>2023-02-18T10:32:35Z</time>
      </trkpt>
      <trkpt lat="38.361868" lon="-1.803494">
        <ele>459.5</ele>
        <time>2023-02-18T10:32:41Z</time>
      </trkpt>
      <trkpt lat="38.361846" lon="-1.803402">
        <ele>458.8</ele>
        <time>2023-02-18T10:32:47Z</time>
      </trkpt>
      <trkpt lat="38.361841" lon="-1.803315">
        <ele>458.5</ele>
        <time>2023-02-18T10:32:52Z</time>
      </trkpt>
      <trkpt lat="38.361852" lon="-1.803225">
        <ele>457.5</ele>
        <time>2023-02-18T10:32:58Z</time>
      </trkpt>
      <trkpt lat="38.361848" lon="-1.803143">
        <ele>457.6</ele>
        <time>2023-02-18T10:33:04Z</time>
      </trkpt>
      <trkpt lat="38.361829" lon="-1.803052">
        <ele>457.8</ele>
        <time>2023-02-18T10:33:10Z</time>
      </trkpt>
      <trkpt lat="38.361800" lon="-1.802970">
        <ele>458.5</ele>
        <time>2023-02-18T10:33:16Z</time>
      </trkpt>
      <trkpt lat="38.361776" lon="-1.802888">
        <ele>457.3</ele>
        <time>2023-02-18T10:33:22Z</time>
      </trkpt>
      <trkpt lat="38.361746" lon="-1.802810">
        <ele>458.5</ele>
        <time>2023-02-18T10:33:28Z</time>
      </trkpt>
      <trkpt lat="38.361722" lon="-1.802732">
        <ele>459.5</ele>
        <time>2023-02-18T10:33:35Z</time>
      </trkpt>
      <trkpt lat="38.361699" lon="-1.802657">
        <ele>459.5</ele>
        <time>2023-02-18T10:33:41Z</time>
      </trkpt>
      <trkpt lat="38.361669" lon="-1.802584">
        <ele>459.5</ele>
        <time>2023-02-18T10:33:48Z</time>
      </trkpt>
      <trkpt lat="38.361629" lon="-1.802516">
        <ele>460.5</ele>
        <time>2023-02-18T10:33:54Z</time>
      </trkpt>
      <trkpt lat="38.361581" lon="-1.802452">
        <ele>463.3</ele>
        <time>2023-02-18T10:34:01Z</time>
      </trkpt>
      <trkpt lat="38.361546" lon="-1.802378">
        <ele>463.5</ele>
        <time>2023-02-18T10:34:07Z</time>
      </trkpt>
      <trkpt lat="38.361522" lon="-1.802291">
        <ele>465.3</ele>
        <time>2023-02-18T10:34:13Z</time>
      </trkpt>
      <trkpt lat="38.361518" lon="-1.802205">
        <ele>466.3</ele>
        <time>2023-02-18T10:34:20Z</time>
      </trkpt>
      <trkpt lat="38.361494" lon="-1.802124">
        <ele>466.5</ele>
        <time>2023-02-18T10:34:27Z</time>
      </trkpt>
      <trkpt lat="38.361460" lon="-1.802047">
        <ele>466.5</ele>
        <time>2023-02-18T10:34:33Z</time>
      </trkpt>
      <trkpt lat="38.361416" lon="-1.801982">
        <ele>466.8</ele>
        <time>2023-02-18T10:34:40Z</time>
      </trkpt>
      <trkpt lat="38.361374" lon="-1.801921">
        <ele>465.6</ele>
        <time>2023-02-18T10:34:46Z</time>
      </trkpt>
      <trkpt lat="38.361320" lon="-1.801860">
        <ele>466.5</ele>
        <time>2023-02-18T10:34:51Z</time>
      </trkpt>
      <trkpt lat="38.361274" lon="-1.801797">
        <ele>466.5</ele>
        <time>2023-02-18T10:34:56Z</time>
      </trkpt>
      <trkpt lat="38.361252" lon="-1.801709">
        <ele>467.5</ele>
        <time>2023-02-18T10:35:02Z</time>
      </trkpt>
      <trkpt lat="38.361278" lon="-1.801633">
        <ele>467.3</ele>
        <time>2023-02-18T10:35:07Z</time>
      </trkpt>
      <trkpt lat="38.361310" lon="-1.801547">
        <ele>466.5</ele>
        <time>2023-02-18T10:35:13Z</time>
      </trkpt>
      <trkpt lat="38.361321" lon="-1.801465">
        <ele>467.3</ele>
        <time>2023-02-18T10:35:18Z</time>
      </trkpt>
      <trkpt lat="38.361330" lon="-1.801372">
        <ele>467.8</ele>
        <time>2023-02-18T10:35:24Z</time>
      </trkpt>
      <trkpt lat="38.361346" lon="-1.801286">
        <ele>467.5</ele>
        <time>2023-02-18T10:35:30Z</time>
      </trkpt>
      <trkpt lat="38.361340" lon="-1.801198">
        <ele>468.5</ele>
        <time>2023-02-18T10:35:36Z</time>
      </trkpt>
      <trkpt lat="38.361311" lon="-1.801123">
        <ele>466.8</ele>
        <time>2023-02-18T10:35:42Z</time>
      </trkpt>
      <trkpt lat="38.361306" lon="-1.801032">
        <ele>464.6</ele>
        <time>2023-02-18T10:35:49Z</time>
      </trkpt>
      <trkpt lat="38.361347" lon="-1.800962">
        <ele>464.6</ele>
        <time>2023-02-18T10:35:54Z</time>
      </trkpt>
      <trkpt lat="38.361409" lon="-1.800953">
        <ele>464.5</ele>
        <time>2023-02-18T10:35:59Z</time>
      </trkpt>
      <trkpt lat="38.361476" lon="-1.800983">
        <ele>463.5</ele>
        <time>2023-02-18T10:36:05Z</time>
      </trkpt>
      <trkpt lat="38.361531" lon="-1.801029">
        <ele>464.5</ele>
        <time>2023-02-18T10:36:12Z</time>
      </trkpt>
      <trkpt lat="38.361579" lon="-1.801084">
        <ele>464.5</ele>
        <time>2023-02-18T10:36:19Z</time>
      </trkpt>
      <trkpt lat="38.361632" lon="-1.801148">
        <ele>467.3</ele>
        <time>2023-02-18T10:36:31Z</time>
      </trkpt>
      <trkpt lat="38.361682" lon="-1.801206">
        <ele>466.5</ele>
        <time>2023-02-18T10:36:49Z</time>
      </trkpt>
      <trkpt lat="38.361732" lon="-1.801260">
        <ele>465.5</ele>
        <time>2023-02-18T10:36:54Z</time>
      </trkpt>
      <trkpt lat="38.361786" lon="-1.801314">
        <ele>463.8</ele>
        <time>2023-02-18T10:37:01Z</time>
      </trkpt>
      <trkpt lat="38.361831" lon="-1.801390">
        <ele>459.6</ele>
        <time>2023-02-18T10:37:08Z</time>
      </trkpt>
      <trkpt lat="38.361874" lon="-1.801454">
        <ele>458.6</ele>
        <time>2023-02-18T10:37:17Z</time>
      </trkpt>
      <trkpt lat="38.361919" lon="-1.801533">
        <ele>458.5</ele>
        <time>2023-02-18T10:37:22Z</time>
      </trkpt>
      <trkpt lat="38.361963" lon="-1.801604">
        <ele>458.8</ele>
        <time>2023-02-18T10:37:27Z</time>
      </trkpt>
      <trkpt lat="38.362012" lon="-1.801669">
        <ele>457.6</ele>
        <time>2023-02-18T10:37:32Z</time>
      </trkpt>
      <trkpt lat="38.362054" lon="-1.801736">
        <ele>457.3</ele>
        <time>2023-02-18T10:37:38Z</time>
      </trkpt>
      <trkpt lat="38.362094" lon="-1.801820">
        <ele>456.5</ele>
        <time>2023-02-18T10:37:44Z</time>
      </trkpt>
      <trkpt lat="38.362131" lon="-1.801891">
        <ele>455.5</ele>
        <time>2023-02-18T10:37:49Z</time>
      </trkpt>
      <trkpt lat="38.362172" lon="-1.801965">
        <ele>455.5</ele>
        <time>2023-02-18T10:37:56Z</time>
      </trkpt>
      <trkpt lat="38.362198" lon="-1.802038">
        <ele>454.5</ele>
        <time>2023-02-18T10:38:01Z</time>
      </trkpt>
      <trkpt lat="38.362219" lon="-1.802125">
        <ele>455.5</ele>
        <time>2023-02-18T10:38:07Z</time>
      </trkpt>
      <trkpt lat="38.362250" lon="-1.802202">
        <ele>454.3</ele>
        <time>2023-02-18T10:38:13Z</time>
      </trkpt>
      <trkpt lat="38.362277" lon="-1.802278">
        <ele>453.8</ele>
        <time>2023-02-18T10:38:20Z</time>
      </trkpt>
      <trkpt lat="38.362300" lon="-1.802356">
        <ele>453.5</ele>
        <time>2023-02-18T10:38:25Z</time>
      </trkpt>
      <trkpt lat="38.362328" lon="-1.802429">
        <ele>452.5</ele>
        <time>2023-02-18T10:38:31Z</time>
      </trkpt>
      <trkpt lat="38.362368" lon="-1.802496">
        <ele>451.6</ele>
        <time>2023-02-18T10:38:37Z</time>
      </trkpt>
      <trkpt lat="38.362403" lon="-1.802574">
        <ele>451.5</ele>
        <time>2023-02-18T10:38:43Z</time>
      </trkpt>
      <trkpt lat="38.362425" lon="-1.802653">
        <ele>450.8</ele>
        <time>2023-02-18T10:38:50Z</time>
      </trkpt>
      <trkpt lat="38.362431" lon="-1.802735">
        <ele>449.5</ele>
        <time>2023-02-18T10:38:56Z</time>
      </trkpt>
      <trkpt lat="38.362438" lon="-1.802822">
        <ele>450.3</ele>
        <time>2023-02-18T10:39:03Z</time>
      </trkpt>
      <trkpt lat="38.362456" lon="-1.802902">
        <ele>448.6</ele>
        <time>2023-02-18T10:39:09Z</time>
      </trkpt>
      <trkpt lat="38.362492" lon="-1.802977">
        <ele>446.8</ele>
        <time>2023-02-18T10:39:15Z</time>
      </trkpt>
      <trkpt lat="38.362532" lon="-1.803039">
        <ele>447.5</ele>
        <time>2023-02-18T10:39:21Z</time>
      </trkpt>
      <trkpt lat="38.362567" lon="-1.803114">
        <ele>448.3</ele>
        <time>2023-02-18T10:39:30Z</time>
      </trkpt>
      <trkpt lat="38.362580" lon="-1.803197">
        <ele>448.5</ele>
        <time>2023-02-18T10:39:37Z</time>
      </trkpt>
      <trkpt lat="38.362582" lon="-1.803277">
        <ele>447.3</ele>
        <time>2023-02-18T10:39:43Z</time>
      </trkpt>
      <trkpt lat="38.362599" lon="-1.803354">
        <ele>445.8</ele>
        <time>2023-02-18T10:39:49Z</time>
      </trkpt>
      <trkpt lat="38.362629" lon="-1.803441">
        <ele>445.3</ele>
        <time>2023-02-18T10:39:55Z</time>
      </trkpt>
      <trkpt lat="38.362636" lon="-1.803532">
        <ele>443.8</ele>
        <time>2023-02-18T10:40:01Z</time>
      </trkpt>
      <trkpt lat="38.362658" lon="-1.803609">
        <ele>442.8</ele>
        <time>2023-02-18T10:40:08Z</time>
      </trkpt>
      <trkpt lat="38.362683" lon="-1.803682">
        <ele>440.6</ele>
        <time>2023-02-18T10:40:15Z</time>
      </trkpt>
      <trkpt lat="38.362714" lon="-1.803763">
        <ele>440.5</ele>
        <time>2023-02-18T10:40:20Z</time>
      </trkpt>
      <trkpt lat="38.362729" lon="-1.803854">
        <ele>441.5</ele>
        <time>2023-02-18T10:40:27Z</time>
      </trkpt>
      <trkpt lat="38.362761" lon="-1.803930">
        <ele>440.5</ele>
        <time>2023-02-18T10:40:34Z</time>
      </trkpt>
      <trkpt lat="38.362803" lon="-1.803993">
        <ele>438.6</ele>
        <time>2023-02-18T10:40:41Z</time>
      </trkpt>
      <trkpt lat="38.362858" lon="-1.804052">
        <ele>437.5</ele>
        <time>2023-02-18T10:40:48Z</time>
      </trkpt>
      <trkpt lat="38.362906" lon="-1.804106">
        <ele>436.7</ele>
        <time>2023-02-18T10:40:54Z</time>
      </trkpt>
      <trkpt lat="38.362976" lon="-1.804128">
        <ele>437.5</ele>
        <time>2023-02-18T10:41:10Z</time>
      </trkpt>
      <trkpt lat="38.363037" lon="-1.804102">
        <ele>436.8</ele>
        <time>2023-02-18T10:41:18Z</time>
      </trkpt>
      <trkpt lat="38.363093" lon="-1.804063">
        <ele>433.6</ele>
        <time>2023-02-18T10:41:28Z</time>
      </trkpt>
      <trkpt lat="38.363150" lon="-1.804026">
        <ele>431.6</ele>
        <time>2023-02-18T10:41:37Z</time>
      </trkpt>
      <trkpt lat="38.363210" lon="-1.803996">
        <ele>428.8</ele>
        <time>2023-02-18T10:41:45Z</time>
      </trkpt>
      <trkpt lat="38.363279" lon="-1.803966">
        <ele>428.5</ele>
        <time>2023-02-18T10:41:55Z</time>
      </trkpt>
      <trkpt lat="38.363348" lon="-1.803934">
        <ele>428.5</ele>
        <time>2023-02-18T10:42:22Z</time>
      </trkpt>
      <trkpt lat="38.363412" lon="-1.803895">
        <ele>429.5</ele>
        <time>2023-02-18T10:42:29Z</time>
      </trkpt>
      <trkpt lat="38.363465" lon="-1.803848">
        <ele>429.5</ele>
        <time>2023-02-18T10:42:34Z</time>
      </trkpt>
      <trkpt lat="38.363517" lon="-1.803801">
        <ele>430.3</ele>
        <time>2023-02-18T10:42:39Z</time>
      </trkpt>
      <trkpt lat="38.363557" lon="-1.803734">
        <ele>431.5</ele>
        <time>2023-02-18T10:42:45Z</time>
      </trkpt>
      <trkpt lat="38.363533" lon="-1.803659">
        <ele>432.5</ele>
        <time>2023-02-18T10:42:56Z</time>
      </trkpt>
      <trkpt lat="38.363508" lon="-1.803585">
        <ele>433.5</ele>
        <time>2023-02-18T10:43:04Z</time>
      </trkpt>
      <trkpt lat="38.363492" lon="-1.803505">
        <ele>434.5</ele>
        <time>2023-02-18T10:43:12Z</time>
      </trkpt>
      <trkpt lat="38.363525" lon="-1.803430">
        <ele>433.5</ele>
        <time>2023-02-18T10:43:18Z</time>
      </trkpt>
      <trkpt lat="38.363565" lon="-1.803360">
        <ele>431.5</ele>
        <time>2023-02-18T10:43:25Z</time>
      </trkpt>
      <trkpt lat="38.363616" lon="-1.803311">
        <ele>432.5</ele>
        <time>2023-02-18T10:43:33Z</time>
      </trkpt>
      <trkpt lat="38.363672" lon="-1.803270">
        <ele>431.3</ele>
        <time>2023-02-18T10:43:39Z</time>
      </trkpt>
      <trkpt lat="38.363716" lon="-1.803212">
        <ele>430.5</ele>
        <time>2023-02-18T10:44:24Z</time>
      </trkpt>
      <trkpt lat="38.363769" lon="-1.803159">
        <ele>430.5</ele>
        <time>2023-02-18T10:44:32Z</time>
      </trkpt>
      <trkpt lat="38.363828" lon="-1.803108">
        <ele>430.5</ele>
        <time>2023-02-18T10:44:39Z</time>
      </trkpt>
      <trkpt lat="38.363896" lon="-1.803107">
        <ele>431.5</ele>
        <time>2023-02-18T10:44:47Z</time>
      </trkpt>
      <trkpt lat="38.363967" lon="-1.803104">
        <ele>430.3</ele>
        <time>2023-02-18T10:44:57Z</time>
      </trkpt>
      <trkpt lat="38.364034" lon="-1.803101">
        <ele>430.5</ele>
        <time>2023-02-18T10:45:08Z</time>
      </trkpt>
      <trkpt lat="38.364100" lon="-1.803087">
        <ele>431.5</ele>
        <time>2023-02-18T10:45:17Z</time>
      </trkpt>
      <trkpt lat="38.364147" lon="-1.803022">
        <ele>433.5</ele>
        <time>2023-02-18T10:45:32Z</time>
      </trkpt>
      <trkpt lat="38.364119" lon="-1.802945">
        <ele>434.5</ele>
        <time>2023-02-18T10:45:43Z</time>
      </trkpt>
      <trkpt lat="38.364112" lon="-1.802864">
        <ele>435.3</ele>
        <time>2023-02-18T10:45:54Z</time>
      </trkpt>
      <trkpt lat="38.364141" lon="-1.802785">
        <ele>436.5</ele>
        <time>2023-02-18T10:46:00Z</time>
      </trkpt>
      <trkpt lat="38.364164" lon="-1.802701">
        <ele>436.5</ele>
        <time>2023-02-18T10:46:09Z</time>
      </trkpt>
      <trkpt lat="38.364227" lon="-1.802670">
        <ele>439.5</ele>
        <time>2023-02-18T10:46:22Z</time>
      </trkpt>
      <trkpt lat="38.364295" lon="-1.802632">
        <ele>440.5</ele>
        <time>2023-02-18T10:46:36Z</time>
      </trkpt>
      <trkpt lat="38.364348" lon="-1.802583">
        <ele>439.5</ele>
        <time>2023-02-18T10:46:44Z</time>
      </trkpt>
      <trkpt lat="38.364377" lon="-1.802512">
        <ele>439.5</ele>
        <time>2023-02-18T10:46:56Z</time>
      </trkpt>
      <trkpt lat="38.364442" lon="-1.802479">
        <ele>440.8</ele>
        <time>2023-02-18T10:47:35Z</time>
      </trkpt>
      <trkpt lat="38.364501" lon="-1.802449">
        <ele>441.5</ele>
        <time>2023-02-18T10:47:46Z</time>
      </trkpt>
      <trkpt lat="38.364564" lon="-1.802464">
        <ele>435.5</ele>
        <time>2023-02-18T10:48:03Z</time>
      </trkpt>
      <trkpt lat="38.364632" lon="-1.802449">
        <ele>435.3</ele>
        <time>2023-02-18T10:48:11Z</time>
      </trkpt>
      <trkpt lat="38.364699" lon="-1.802442">
        <ele>436.5</ele>
        <time>2023-02-18T10:48:17Z</time>
      </trkpt>
      <trkpt lat="38.364764" lon="-1.802456">
        <ele>435.5</ele>
        <time>2023-02-18T10:48:24Z</time>
      </trkpt>
      <trkpt lat="38.364822" lon="-1.802414">
        <ele>434.5</ele>
        <time>2023-02-18T10:48:31Z</time>
      </trkpt>
      <trkpt lat="38.364893" lon="-1.802376">
        <ele>433.5</ele>
        <time>2023-02-18T10:48:38Z</time>
      </trkpt>
      <trkpt lat="38.364945" lon="-1.802325">
        <ele>432.5</ele>
        <time>2023-02-18T10:48:45Z</time>
      </trkpt>
      <trkpt lat="38.364994" lon="-1.802265">
        <ele>432.8</ele>
        <time>2023-02-18T10:48:51Z</time>
      </trkpt>
      <trkpt lat="38.365034" lon="-1.802197">
        <ele>432.5</ele>
        <time>2023-02-18T10:48:56Z</time>
      </trkpt>
      <trkpt lat="38.365074" lon="-1.802131">
        <ele>434.5</ele>
        <time>2023-02-18T10:49:07Z</time>
      </trkpt>
      <trkpt lat="38.365090" lon="-1.802051">
        <ele>434.5</ele>
        <time>2023-02-18T10:49:16Z</time>
      </trkpt>
      <trkpt lat="38.365078" lon="-1.801961">
        <ele>434.5</ele>
        <time>2023-02-18T10:49:23Z</time>
      </trkpt>
      <trkpt lat="38.365037" lon="-1.801890">
        <ele>436.3</ele>
        <time>2023-02-18T10:49:28Z</time>
      </trkpt>
      <trkpt lat="38.365020" lon="-1.801813">
        <ele>435.5</ele>
        <time>2023-02-18T10:49:33Z</time>
      </trkpt>
      <trkpt lat="38.365000" lon="-1.801724">
        <ele>435.5</ele>
        <time>2023-02-18T10:49:41Z</time>
      </trkpt>
      <trkpt lat="38.364989" lon="-1.801641">
        <ele>434.7</ele>
        <time>2023-02-18T10:49:48Z</time>
      </trkpt>
      <trkpt lat="38.364946" lon="-1.801580">
        <ele>434.5</ele>
        <time>2023-02-18T10:49:54Z</time>
      </trkpt>
      <trkpt lat="38.364912" lon="-1.801507">
        <ele>435.3</ele>
        <time>2023-02-18T10:50:00Z</time>
      </trkpt>
      <trkpt lat="38.364856" lon="-1.801457">
        <ele>434.5</ele>
        <time>2023-02-18T10:50:10Z</time>
      </trkpt>
      <trkpt lat="38.364807" lon="-1.801405">
        <ele>434.5</ele>
        <time>2023-02-18T10:50:17Z</time>
      </trkpt>
      <trkpt lat="38.364812" lon="-1.801315">
        <ele>433.5</ele>
        <time>2023-02-18T10:50:25Z</time>
      </trkpt>
      <trkpt lat="38.364824" lon="-1.801232">
        <ele>429.5</ele>
        <time>2023-02-18T10:50:32Z</time>
      </trkpt>
      <trkpt lat="38.364872" lon="-1.801176">
        <ele>430.5</ele>
        <time>2023-02-18T10:50:40Z</time>
      </trkpt>
      <trkpt lat="38.364864" lon="-1.801093">
        <ele>430.5</ele>
        <time>2023-02-18T10:50:54Z</time>
      </trkpt>
      <trkpt lat="38.364878" lon="-1.801008">
        <ele>433.5</ele>
        <time>2023-02-18T10:51:04Z</time>
      </trkpt>
      <trkpt lat="38.364888" lon="-1.800915">
        <ele>432.6</ele>
        <time>2023-02-18T10:51:11Z</time>
      </trkpt>
      <trkpt lat="38.364876" lon="-1.800826">
        <ele>431.6</ele>
        <time>2023-02-18T10:51:20Z</time>
      </trkpt>
      <trkpt lat="38.364888" lon="-1.800735">
        <ele>432.3</ele>
        <time>2023-02-18T10:51:46Z</time>
      </trkpt>
      <trkpt lat="38.364895" lon="-1.800649">
        <ele>431.5</ele>
        <time>2023-02-18T10:51:53Z</time>
      </trkpt>
      <trkpt lat="38.364909" lon="-1.800570">
        <ele>431.6</ele>
        <time>2023-02-18T10:52:02Z</time>
      </trkpt>
      <trkpt lat="38.364902" lon="-1.800490">
        <ele>433.5</ele>
        <time>2023-02-18T10:52:09Z</time>
      </trkpt>
      <trkpt lat="38.364925" lon="-1.800415">
        <ele>435.5</ele>
        <time>2023-02-18T10:52:18Z</time>
      </trkpt>
      <trkpt lat="38.364979" lon="-1.800366">
        <ele>439.5</ele>
        <time>2023-02-18T10:52:33Z</time>
      </trkpt>
      <trkpt lat="38.365016" lon="-1.800300">
        <ele>440.5</ele>
        <time>2023-02-18T10:52:43Z</time>
      </trkpt>
      <trkpt lat="38.365043" lon="-1.800224">
        <ele>442.5</ele>
        <time>2023-02-18T10:52:56Z</time>
      </trkpt>
      <trkpt lat="38.365109" lon="-1.800202">
        <ele>442.8</ele>
        <time>2023-02-18T10:53:08Z</time>
      </trkpt>
      <trkpt lat="38.365174" lon="-1.800165">
        <ele>442.5</ele>
        <time>2023-02-18T10:53:16Z</time>
      </trkpt>
      <trkpt lat="38.365242" lon="-1.800144">
        <ele>444.5</ele>
        <time>2023-02-18T10:53:24Z</time>
      </trkpt>
      <trkpt lat="38.365282" lon="-1.800074">
        <ele>447.5</ele>
        <time>2023-02-18T10:53:39Z</time>
      </trkpt>
      <trkpt lat="38.365322" lon="-1.800011">
        <ele>449.3</ele>
        <time>2023-02-18T10:53:47Z</time>
      </trkpt>
      <trkpt lat="38.365374" lon="-1.799953">
        <ele>448.8</ele>
        <time>2023-02-18T10:53:54Z</time>
      </trkpt>
      <trkpt lat="38.365412" lon="-1.799884">
        <ele>449.5</ele>
        <time>2023-02-18T10:54:03Z</time>
      </trkpt>
      <trkpt lat="38.365395" lon="-1.799796">
        <ele>449.5</ele>
        <time>2023-02-18T10:54:14Z</time>
      </trkpt>
      <trkpt lat="38.365433" lon="-1.799731">
        <ele>451.5</ele>
        <time>2023-02-18T10:54:29Z</time>
      </trkpt>
      <trkpt lat="38.365458" lon="-1.799652">
        <ele>450.5</ele>
        <time>2023-02-18T10:54:49Z</time>
      </trkpt>
      <trkpt lat="38.365496" lon="-1.799582">
        <ele>448.7</ele>
        <time>2023-02-18T10:54:56Z</time>
      </trkpt>
      <trkpt lat="38.365515" lon="-1.799504">
        <ele>448.5</ele>
        <time>2023-02-18T10:55:03Z</time>
      </trkpt>
      <trkpt lat="38.365535" lon="-1.799423">
        <ele>448.8</ele>
        <time>2023-02-18T10:55:30Z</time>
      </trkpt>
      <trkpt lat="38.365550" lon="-1.799342">
        <ele>448.8</ele>
        <time>2023-02-18T10:55:56Z</time>
      </trkpt>
      <trkpt lat="38.365560" lon="-1.799253">
        <ele>444.6</ele>
        <time>2023-02-18T10:56:19Z</time>
      </trkpt>
      <trkpt lat="38.365532" lon="-1.799179">
        <ele>448.5</ele>
        <time>2023-02-18T10:56:42Z</time>
      </trkpt>
      <trkpt lat="38.365538" lon="-1.799096">
        <ele>448.5</ele>
        <time>2023-02-18T10:56:52Z</time>
      </trkpt>
      <trkpt lat="38.365558" lon="-1.799015">
        <ele>443.6</ele>
        <time>2023-02-18T10:57:32Z</time>
      </trkpt>
      <trkpt lat="38.365603" lon="-1.798957">
        <ele>446.5</ele>
        <time>2023-02-18T10:58:16Z</time>
      </trkpt>
      <trkpt lat="38.365656" lon="-1.798891">
        <ele>443.8</ele>
        <time>2023-02-18T10:58:36Z</time>
      </trkpt>
      <trkpt lat="38.365725" lon="-1.798880">
        <ele>442.5</ele>
        <time>2023-02-18T10:59:02Z</time>
      </trkpt>
      <trkpt lat="38.365742" lon="-1.798796">
        <ele>442.5</ele>
        <time>2023-02-18T10:59:13Z</time>
      </trkpt>
      <trkpt lat="38.365805" lon="-1.798796">
        <ele>439.5</ele>
        <time>2023-02-18T10:59:46Z</time>
      </trkpt>
      <trkpt lat="38.365865" lon="-1.798752">
        <ele>439.6</ele>
        <time>2023-02-18T10:59:59Z</time>
      </trkpt>
      <trkpt lat="38.365908" lon="-1.798688">
        <ele>442.2</ele>
        <time>2023-02-18T11:00:07Z</time>
      </trkpt>
      <trkpt lat="38.365973" lon="-1.798689">
        <ele>441.5</ele>
        <time>2023-02-18T11:00:33Z</time>
      </trkpt>
      <trkpt lat="38.366037" lon="-1.798704">
        <ele>438.5</ele>
        <time>2023-02-18T11:00:48Z</time>
      </trkpt>
      <trkpt lat="38.366097" lon="-1.798737">
        <ele>436.5</ele>
        <time>2023-02-18T11:01:07Z</time>
      </trkpt>
      <trkpt lat="38.366164" lon="-1.798736">
        <ele>435.8</ele>
        <time>2023-02-18T11:01:17Z</time>
      </trkpt>
      <trkpt lat="38.366231" lon="-1.798766">
        <ele>436.5</ele>
        <time>2023-02-18T11:01:32Z</time>
      </trkpt>
      <trkpt lat="38.366298" lon="-1.798760">
        <ele>437.5</ele>
        <time>2023-02-18T11:01:39Z</time>
      </trkpt>
      <trkpt lat="38.366362" lon="-1.798760">
        <ele>436.5</ele>
        <time>2023-02-18T11:01:47Z</time>
      </trkpt>
      <trkpt lat="38.366426" lon="-1.798748">
        <ele>435.7</ele>
        <time>2023-02-18T11:02:01Z</time>
      </trkpt>
      <trkpt lat="38.366489" lon="-1.798712">
        <ele>432.8</ele>
        <time>2023-02-18T11:02:24Z</time>
      </trkpt>
      <trkpt lat="38.366548" lon="-1.798684">
        <ele>435.3</ele>
        <time>2023-02-18T11:02:42Z</time>
      </trkpt>
      <trkpt lat="38.366575" lon="-1.798611">
        <ele>437.8</ele>
        <time>2023-02-18T11:03:21Z</time>
      </trkpt>
      <trkpt lat="38.366616" lon="-1.798546">
        <ele>436.5</ele>
        <time>2023-02-18T11:03:35Z</time>
      </trkpt>
      <trkpt lat="38.366654" lon="-1.798478">
        <ele>438.5</ele>
        <time>2023-02-18T11:03:50Z</time>
      </trkpt>
      <trkpt lat="38.366715" lon="-1.798440">
        <ele>442.5</ele>
        <time>2023-02-18T11:04:07Z</time>
      </trkpt>
      <trkpt lat="38.366768" lon="-1.798392">
        <ele>444.8</ele>
        <time>2023-02-18T11:04:19Z</time>
      </trkpt>
      <trkpt lat="38.366795" lon="-1.798318">
        <ele>446.5</ele>
        <time>2023-02-18T11:04:29Z</time>
      </trkpt>
      <trkpt lat="38.366827" lon="-1.798238">
        <ele>445.5</ele>
        <time>2023-02-18T11:04:40Z</time>
      </trkpt>
      <trkpt lat="38.366846" lon="-1.798160">
        <ele>448.5</ele>
        <time>2023-02-18T11:05:00Z</time>
      </trkpt>
      <trkpt lat="38.366856" lon="-1.798081">
        <ele>450.5</ele>
        <time>2023-02-18T11:05:06Z</time>
      </trkpt>
      <trkpt lat="38.366876" lon="-1.798002">
        <ele>451.5</ele>
        <time>2023-02-18T11:05:12Z</time>
      </trkpt>
      <trkpt lat="38.366876" lon="-1.797870">
        <ele>450.5</ele>
        <time>2023-02-18T11:06:08Z</time>
      </trkpt>
      <trkpt lat="38.366903" lon="-1.797779">
        <ele>450.3</ele>
        <time>2023-02-18T11:06:17Z</time>
      </trkpt>
      <trkpt lat="38.366953" lon="-1.797716">
        <ele>451.5</ele>
        <time>2023-02-18T11:06:23Z</time>
      </trkpt>
      <trkpt lat="38.366970" lon="-1.797630">
        <ele>450.5</ele>
        <time>2023-02-18T11:06:53Z</time>
      </trkpt>
      <trkpt lat="38.367005" lon="-1.797560">
        <ele>452.8</ele>
        <time>2023-02-18T11:07:52Z</time>
      </trkpt>
      <trkpt lat="38.367015" lon="-1.797480">
        <ele>453.5</ele>
        <time>2023-02-18T11:08:00Z</time>
      </trkpt>
      <trkpt lat="38.367000" lon="-1.797399">
        <ele>453.5</ele>
        <time>2023-02-18T11:08:11Z</time>
      </trkpt>
      <trkpt lat="38.366974" lon="-1.797314">
        <ele>453.5</ele>
        <time>2023-02-18T11:08:20Z</time>
      </trkpt>
      <trkpt lat="38.366956" lon="-1.797237">
        <ele>451.7</ele>
        <time>2023-02-18T11:08:28Z</time>
      </trkpt>
      <trkpt lat="38.366916" lon="-1.797174">
        <ele>451.5</ele>
        <time>2023-02-18T11:08:43Z</time>
      </trkpt>
      <trkpt lat="38.366884" lon="-1.797102">
        <ele>450.7</ele>
        <time>2023-02-18T11:08:51Z</time>
      </trkpt>
      <trkpt lat="38.366866" lon="-1.797025">
        <ele>450.5</ele>
        <time>2023-02-18T11:08:58Z</time>
      </trkpt>
      <trkpt lat="38.366878" lon="-1.796941">
        <ele>450.5</ele>
        <time>2023-02-18T11:09:08Z</time>
      </trkpt>
      <trkpt lat="38.366884" lon="-1.796852">
        <ele>450.5</ele>
        <time>2023-02-18T11:09:15Z</time>
      </trkpt>
      <trkpt lat="38.366907" lon="-1.796774">
        <ele>450.6</ele>
        <time>2023-02-18T11:09:23Z</time>
      </trkpt>
      <trkpt lat="38.366894" lon="-1.796694">
        <ele>451.5</ele>
        <time>2023-02-18T11:09:36Z</time>
      </trkpt>
      <trkpt lat="38.366898" lon="-1.796608">
        <ele>452.5</ele>
        <time>2023-02-18T11:09:46Z</time>
      </trkpt>
      <trkpt lat="38.366940" lon="-1.796547">
        <ele>452.5</ele>
        <time>2023-02-18T11:10:01Z</time>
      </trkpt>
      <trkpt lat="38.366921" lon="-1.796466">
        <ele>452.5</ele>
        <time>2023-02-18T11:10:17Z</time>
      </trkpt>
      <trkpt lat="38.366954" lon="-1.796395">
        <ele>449.5</ele>
        <time>2023-02-18T11:10:31Z</time>
      </trkpt>
      <trkpt lat="38.366967" lon="-1.796316">
        <ele>451.5</ele>
        <time>2023-02-18T11:10:51Z</time>
      </trkpt>
      <trkpt lat="38.367012" lon="-1.796254">
        <ele>453.5</ele>
        <time>2023-02-18T11:11:04Z</time>
      </trkpt>
      <trkpt lat="38.367022" lon="-1.796172">
        <ele>458.2</ele>
        <time>2023-02-18T11:11:19Z</time>
      </trkpt>
      <trkpt lat="38.367011" lon="-1.796088">
        <ele>459.6</ele>
        <time>2023-02-18T11:11:36Z</time>
      </trkpt>
      <trkpt lat="38.367014" lon="-1.796007">
        <ele>460.5</ele>
        <time>2023-02-18T11:11:46Z</time>
      </trkpt>
      <trkpt lat="38.367026" lon="-1.795925">
        <ele>458.6</ele>
        <time>2023-02-18T11:11:57Z</time>
      </trkpt>
      <trkpt lat="38.367061" lon="-1.795847">
        <ele>459.5</ele>
        <time>2023-02-18T11:12:05Z</time>
      </trkpt>
      <trkpt lat="38.367061" lon="-1.795763">
        <ele>460.7</ele>
        <time>2023-02-18T11:12:15Z</time>
      </trkpt>
      <trkpt lat="38.367008" lon="-1.795708">
        <ele>460.5</ele>
        <time>2023-02-18T11:12:39Z</time>
      </trkpt>
      <trkpt lat="38.366983" lon="-1.795631">
        <ele>460.5</ele>
        <time>2023-02-18T11:12:46Z</time>
      </trkpt>
      <trkpt lat="38.366949" lon="-1.795559">
        <ele>461.8</ele>
        <time>2023-02-18T11:13:16Z</time>
      </trkpt>
      <trkpt lat="38.366966" lon="-1.795475">
        <ele>462.5</ele>
        <time>2023-02-18T11:13:31Z</time>
      </trkpt>
      <trkpt lat="38.366992" lon="-1.795401">
        <ele>464.3</ele>
        <time>2023-02-18T11:13:42Z</time>
      </trkpt>
      <trkpt lat="38.367052" lon="-1.795360">
        <ele>465.5</ele>
        <time>2023-02-18T11:14:00Z</time>
      </trkpt>
      <trkpt lat="38.367051" lon="-1.795278">
        <ele>469.5</ele>
        <time>2023-02-18T11:14:23Z</time>
      </trkpt>
      <trkpt lat="38.367095" lon="-1.795220">
        <ele>469.3</ele>
        <time>2023-02-18T11:14:34Z</time>
      </trkpt>
      <trkpt lat="38.367152" lon="-1.795179">
        <ele>471.5</ele>
        <time>2023-02-18T11:14:42Z</time>
      </trkpt>
      <trkpt lat="38.367156" lon="-1.795091">
        <ele>476.5</ele>
        <time>2023-02-18T11:15:05Z</time>
      </trkpt>
      <trkpt lat="38.367206" lon="-1.795042">
        <ele>473.8</ele>
        <time>2023-02-18T11:15:18Z</time>
      </trkpt>
      <trkpt lat="38.367216" lon="-1.794961">
        <ele>474.5</ele>
        <time>2023-02-18T11:15:28Z</time>
      </trkpt>
      <trkpt lat="38.367169" lon="-1.794898">
        <ele>481.5</ele>
        <time>2023-02-18T11:15:48Z</time>
      </trkpt>
      <trkpt lat="38.367202" lon="-1.794822">
        <ele>479.5</ele>
        <time>2023-02-18T11:16:05Z</time>
      </trkpt>
      <trkpt lat="38.367225" lon="-1.794742">
        <ele>481.5</ele>
        <time>2023-02-18T11:16:12Z</time>
      </trkpt>
      <trkpt lat="38.367248" lon="-1.794660">
        <ele>483.3</ele>
        <time>2023-02-18T11:16:25Z</time>
      </trkpt>
      <trkpt lat="38.367260" lon="-1.794570">
        <ele>482.6</ele>
        <time>2023-02-18T11:16:46Z</time>
      </trkpt>
      <trkpt lat="38.367243" lon="-1.794488">
        <ele>482.5</ele>
        <time>2023-02-18T11:17:07Z</time>
      </trkpt>
      <trkpt lat="38.367219" lon="-1.794404">
        <ele>482.8</ele>
        <time>2023-02-18T11:19:15Z</time>
      </trkpt>
      <trkpt lat="38.367213" lon="-1.794322">
        <ele>480.6</ele>
        <time>2023-02-18T11:19:29Z</time>
      </trkpt>
      <trkpt lat="38.367172" lon="-1.794258">
        <ele>482.5</ele>
        <time>2023-02-18T11:19:40Z</time>
      </trkpt>
      <trkpt lat="38.367106" lon="-1.794217">
        <ele>482.5</ele>
        <time>2023-02-18T11:19:46Z</time>
      </trkpt>
      <trkpt lat="38.367087" lon="-1.794139">
        <ele>482.5</ele>
        <time>2023-02-18T11:19:57Z</time>
      </trkpt>
      <trkpt lat="38.367071" lon="-1.794060">
        <ele>482.4</ele>
        <time>2023-02-18T11:20:02Z</time>
      </trkpt>
      <trkpt lat="38.367057" lon="-1.793981">
        <ele>481.5</ele>
        <time>2023-02-18T11:20:10Z</time>
      </trkpt>
      <trkpt lat="38.367037" lon="-1.793904">
        <ele>480.3</ele>
        <time>2023-02-18T11:20:18Z</time>
      </trkpt>
      <trkpt lat="38.366984" lon="-1.793839">
        <ele>479.6</ele>
        <time>2023-02-18T11:20:35Z</time>
      </trkpt>
      <trkpt lat="38.366951" lon="-1.793763">
        <ele>477.8</ele>
        <time>2023-02-18T11:20:42Z</time>
      </trkpt>
      <trkpt lat="38.366930" lon="-1.793687">
        <ele>479.5</ele>
        <time>2023-02-18T11:20:48Z</time>
      </trkpt>
      <trkpt lat="38.366898" lon="-1.793610">
        <ele>480.5</ele>
        <time>2023-02-18T11:20:53Z</time>
      </trkpt>
      <trkpt lat="38.366845" lon="-1.793552">
        <ele>481.5</ele>
        <time>2023-02-18T11:21:00Z</time>
      </trkpt>
      <trkpt lat="38.366781" lon="-1.793510">
        <ele>481.8</ele>
        <time>2023-02-18T11:21:07Z</time>
      </trkpt>
      <trkpt lat="38.366724" lon="-1.793465">
        <ele>481.5</ele>
        <time>2023-02-18T11:21:12Z</time>
      </trkpt>
      <trkpt lat="38.366660" lon="-1.793454">
        <ele>483.5</ele>
        <time>2023-02-18T11:21:18Z</time>
      </trkpt>
      <trkpt lat="38.366598" lon="-1.793413">
        <ele>482.5</ele>
        <time>2023-02-18T11:21:24Z</time>
      </trkpt>
      <trkpt lat="38.366539" lon="-1.793363">
        <ele>481.5</ele>
        <time>2023-02-18T11:21:30Z</time>
      </trkpt>
      <trkpt lat="38.366478" lon="-1.793328">
        <ele>481.5</ele>
        <time>2023-02-18T11:21:37Z</time>
      </trkpt>
      <trkpt lat="38.366417" lon="-1.793282">
        <ele>481.8</ele>
        <time>2023-02-18T11:21:44Z</time>
      </trkpt>
      <trkpt lat="38.366358" lon="-1.793247">
        <ele>481.8</ele>
        <time>2023-02-18T11:21:51Z</time>
      </trkpt>
      <trkpt lat="38.366321" lon="-1.793174">
        <ele>481.5</ele>
        <time>2023-02-18T11:22:02Z</time>
      </trkpt>
      <trkpt lat="38.366313" lon="-1.793094">
        <ele>482.5</ele>
        <time>2023-02-18T11:22:13Z</time>
      </trkpt>
      <trkpt lat="38.366317" lon="-1.793010">
        <ele>482.5</ele>
        <time>2023-02-18T11:22:42Z</time>
      </trkpt>
      <trkpt lat="38.366303" lon="-1.792927">
        <ele>484.5</ele>
        <time>2023-02-18T11:22:54Z</time>
      </trkpt>
      <trkpt lat="38.366249" lon="-1.792884">
        <ele>486.5</ele>
        <time>2023-02-18T11:23:13Z</time>
      </trkpt>
      <trkpt lat="38.366221" lon="-1.792811">
        <ele>490.5</ele>
        <time>2023-02-18T11:23:28Z</time>
      </trkpt>
      <trkpt lat="38.366221" lon="-1.792730">
        <ele>492.5</ele>
        <time>2023-02-18T11:23:37Z</time>
      </trkpt>
      <trkpt lat="38.366183" lon="-1.792664">
        <ele>494.5</ele>
        <time>2023-02-18T11:23:55Z</time>
      </trkpt>
      <trkpt lat="38.366189" lon="-1.792584">
        <ele>495.5</ele>
        <time>2023-02-18T11:24:04Z</time>
      </trkpt>
      <trkpt lat="38.366188" lon="-1.792495">
        <ele>495.6</ele>
        <time>2023-02-18T11:24:12Z</time>
      </trkpt>
      <trkpt lat="38.366186" lon="-1.792408">
        <ele>496.5</ele>
        <time>2023-02-18T11:24:20Z</time>
      </trkpt>
      <trkpt lat="38.366165" lon="-1.792330">
        <ele>500.5</ele>
        <time>2023-02-18T11:24:30Z</time>
      </trkpt>
      <trkpt lat="38.366145" lon="-1.792250">
        <ele>501.5</ele>
        <time>2023-02-18T11:24:38Z</time>
      </trkpt>
      <trkpt lat="38.366114" lon="-1.792174">
        <ele>501.3</ele>
        <time>2023-02-18T11:24:47Z</time>
      </trkpt>
      <trkpt lat="38.366096" lon="-1.792081">
        <ele>503.5</ele>
        <time>2023-02-18T11:24:56Z</time>
      </trkpt>
      <trkpt lat="38.366042" lon="-1.792030">
        <ele>502.8</ele>
        <time>2023-02-18T11:25:04Z</time>
      </trkpt>
      <trkpt lat="38.365978" lon="-1.792022">
        <ele>502.3</ele>
        <time>2023-02-18T11:25:13Z</time>
      </trkpt>
      <trkpt lat="38.365917" lon="-1.792045">
        <ele>503.5</ele>
        <time>2023-02-18T11:26:14Z</time>
      </trkpt>
      <trkpt lat="38.365869" lon="-1.792097">
        <ele>502.9</ele>
        <time>2023-02-18T11:26:35Z</time>
      </trkpt>
      <trkpt lat="38.365820" lon="-1.792149">
        <ele>503.5</ele>
        <time>2023-02-18T11:26:54Z</time>
      </trkpt>
      <trkpt lat="38.365769" lon="-1.792206">
        <ele>500.5</ele>
        <time>2023-02-18T11:27:18Z</time>
      </trkpt>
      <trkpt lat="38.365705" lon="-1.792233">
        <ele>502.3</ele>
        <time>2023-02-18T11:28:10Z</time>
      </trkpt>
      <trkpt lat="38.365633" lon="-1.792250">
        <ele>502.5</ele>
        <time>2023-02-18T11:28:18Z</time>
      </trkpt>
      <trkpt lat="38.365568" lon="-1.792239">
        <ele>501.6</ele>
        <time>2023-02-18T11:28:26Z</time>
      </trkpt>
      <trkpt lat="38.365507" lon="-1.792267">
        <ele>500.8</ele>
        <time>2023-02-18T11:28:33Z</time>
      </trkpt>
      <trkpt lat="38.365444" lon="-1.792261">
        <ele>489.6</ele>
        <time>2023-02-18T11:29:03Z</time>
      </trkpt>
      <trkpt lat="38.365385" lon="-1.792216">
        <ele>483.6</ele>
        <time>2023-02-18T11:29:30Z</time>
      </trkpt>
      <trkpt lat="38.365318" lon="-1.792192">
        <ele>483.5</ele>
        <time>2023-02-18T11:29:39Z</time>
      </trkpt>
      <trkpt lat="38.365261" lon="-1.792156">
        <ele>483.5</ele>
        <time>2023-02-18T11:29:52Z</time>
      </trkpt>
      <trkpt lat="38.365195" lon="-1.792162">
        <ele>482.8</ele>
        <time>2023-02-18T11:30:01Z</time>
      </trkpt>
      <trkpt lat="38.365133" lon="-1.792120">
        <ele>480.6</ele>
        <time>2023-02-18T11:30:14Z</time>
      </trkpt>
      <trkpt lat="38.365085" lon="-1.792049">
        <ele>479.6</ele>
        <time>2023-02-18T11:31:24Z</time>
      </trkpt>
      <trkpt lat="38.365029" lon="-1.792004">
        <ele>480.5</ele>
        <time>2023-02-18T11:31:32Z</time>
      </trkpt>
      <trkpt lat="38.364991" lon="-1.791936">
        <ele>477.5</ele>
        <time>2023-02-18T11:31:46Z</time>
      </trkpt>
      <trkpt lat="38.364946" lon="-1.791877">
        <ele>477.6</ele>
        <time>2023-02-18T11:31:53Z</time>
      </trkpt>
      <trkpt lat="38.364923" lon="-1.791795">
        <ele>476.5</ele>
        <time>2023-02-18T11:32:05Z</time>
      </trkpt>
      <trkpt lat="38.364897" lon="-1.791719">
        <ele>476.5</ele>
        <time>2023-02-18T11:32:19Z</time>
      </trkpt>
      <trkpt lat="38.364866" lon="-1.791640">
        <ele>479.5</ele>
        <time>2023-02-18T11:32:35Z</time>
      </trkpt>
      <trkpt lat="38.364800" lon="-1.791680">
        <ele>482.2</ele>
        <time>2023-02-18T11:32:41Z</time>
      </trkpt>
      <trkpt lat="38.364736" lon="-1.791663">
        <ele>484.5</ele>
        <time>2023-02-18T11:32:49Z</time>
      </trkpt>
      <trkpt lat="38.364670" lon="-1.791653">
        <ele>484.5</ele>
        <time>2023-02-18T11:32:55Z</time>
      </trkpt>
      <trkpt lat="38.364602" lon="-1.791624">
        <ele>484.5</ele>
        <time>2023-02-18T11:33:05Z</time>
      </trkpt>
      <trkpt lat="38.364557" lon="-1.791557">
        <ele>477.8</ele>
        <time>2023-02-18T11:33:24Z</time>
      </trkpt>
      <trkpt lat="38.364497" lon="-1.791524">
        <ele>474.6</ele>
        <time>2023-02-18T11:33:33Z</time>
      </trkpt>
      <trkpt lat="38.364456" lon="-1.791461">
        <ele>472.5</ele>
        <time>2023-02-18T11:33:48Z</time>
      </trkpt>
      <trkpt lat="38.364401" lon="-1.791421">
        <ele>472.5</ele>
        <time>2023-02-18T11:33:56Z</time>
      </trkpt>
      <trkpt lat="38.364345" lon="-1.791378">
        <ele>471.5</ele>
        <time>2023-02-18T11:34:03Z</time>
      </trkpt>
      <trkpt lat="38.364284" lon="-1.791351">
        <ele>472.5</ele>
        <time>2023-02-18T11:34:17Z</time>
      </trkpt>
      <trkpt lat="38.364216" lon="-1.791338">
        <ele>475.3</ele>
        <time>2023-02-18T11:34:25Z</time>
      </trkpt>
      <trkpt lat="38.364155" lon="-1.791292">
        <ele>476.3</ele>
        <time>2023-02-18T11:34:35Z</time>
      </trkpt>
      <trkpt lat="38.364116" lon="-1.791218">
        <ele>473.6</ele>
        <time>2023-02-18T11:34:47Z</time>
      </trkpt>
      <trkpt lat="38.364056" lon="-1.791192">
        <ele>470.6</ele>
        <time>2023-02-18T11:34:57Z</time>
      </trkpt>
      <trkpt lat="38.363987" lon="-1.791204">
        <ele>467.9</ele>
        <time>2023-02-18T11:35:05Z</time>
      </trkpt>
      <trkpt lat="38.363914" lon="-1.791178">
        <ele>465.3</ele>
        <time>2023-02-18T11:36:34Z</time>
      </trkpt>
      <trkpt lat="38.363847" lon="-1.791180">
        <ele>466.5</ele>
        <time>2023-02-18T11:37:11Z</time>
      </trkpt>
      <trkpt lat="38.363817" lon="-1.791097">
        <ele>465.5</ele>
        <time>2023-02-18T11:37:21Z</time>
      </trkpt>
      <trkpt lat="38.363851" lon="-1.791018">
        <ele>465.6</ele>
        <time>2023-02-18T11:37:29Z</time>
      </trkpt>
      <trkpt lat="38.363899" lon="-1.790964">
        <ele>466.5</ele>
        <time>2023-02-18T11:37:42Z</time>
      </trkpt>
      <trkpt lat="38.363941" lon="-1.790902">
        <ele>466.5</ele>
        <time>2023-02-18T11:37:50Z</time>
      </trkpt>
      <trkpt lat="38.363980" lon="-1.790837">
        <ele>467.5</ele>
        <time>2023-02-18T11:38:02Z</time>
      </trkpt>
      <trkpt lat="38.364001" lon="-1.790756">
        <ele>463.6</ele>
        <time>2023-02-18T11:38:12Z</time>
      </trkpt>
      <trkpt lat="38.364043" lon="-1.790691">
        <ele>464.5</ele>
        <time>2023-02-18T11:38:19Z</time>
      </trkpt>
      <trkpt lat="38.364061" lon="-1.790601">
        <ele>465.5</ele>
        <time>2023-02-18T11:38:26Z</time>
      </trkpt>
      <trkpt lat="38.364064" lon="-1.790517">
        <ele>468.5</ele>
        <time>2023-02-18T11:38:35Z</time>
      </trkpt>
      <trkpt lat="38.364079" lon="-1.790437">
        <ele>469.5</ele>
        <time>2023-02-18T11:38:48Z</time>
      </trkpt>
      <trkpt lat="38.364093" lon="-1.790352">
        <ele>469.6</ele>
        <time>2023-02-18T11:39:04Z</time>
      </trkpt>
      <trkpt lat="38.364046" lon="-1.790295">
        <ele>471.5</ele>
        <time>2023-02-18T11:39:11Z</time>
      </trkpt>
      <trkpt lat="38.364014" lon="-1.790216">
        <ele>474.6</ele>
        <time>2023-02-18T11:39:27Z</time>
      </trkpt>
      <trkpt lat="38.363993" lon="-1.790125">
        <ele>470.6</ele>
        <time>2023-02-18T11:39:37Z</time>
      </trkpt>
      <trkpt lat="38.363985" lon="-1.790047">
        <ele>472.5</ele>
        <time>2023-02-18T11:39:51Z</time>
      </trkpt>
      <trkpt lat="38.363956" lon="-1.789975">
        <ele>471.5</ele>
        <time>2023-02-18T11:41:09Z</time>
      </trkpt>
      <trkpt lat="38.363963" lon="-1.789890">
        <ele>473.3</ele>
        <time>2023-02-18T11:41:20Z</time>
      </trkpt>
      <trkpt lat="38.363987" lon="-1.789812">
        <ele>473.5</ele>
        <time>2023-02-18T11:41:29Z</time>
      </trkpt>
      <trkpt lat="38.363988" lon="-1.789730">
        <ele>474.6</ele>
        <time>2023-02-18T11:41:55Z</time>
      </trkpt>
      <trkpt lat="38.363997" lon="-1.789648">
        <ele>473.5</ele>
        <time>2023-02-18T11:42:05Z</time>
      </trkpt>
      <trkpt lat="38.364016" lon="-1.789568">
        <ele>475.5</ele>
        <time>2023-02-18T11:42:25Z</time>
      </trkpt>
      <trkpt lat="38.364034" lon="-1.789486">
        <ele>475.6</ele>
        <time>2023-02-18T11:42:41Z</time>
      </trkpt>
      <trkpt lat="38.364055" lon="-1.789404">
        <ele>477.5</ele>
        <time>2023-02-18T11:43:01Z</time>
      </trkpt>
      <trkpt lat="38.364108" lon="-1.789355">
        <ele>478.6</ele>
        <time>2023-02-18T11:43:13Z</time>
      </trkpt>
      <trkpt lat="38.364090" lon="-1.789271">
        <ele>481.5</ele>
        <time>2023-02-18T11:43:38Z</time>
      </trkpt>
      <trkpt lat="38.364137" lon="-1.789215">
        <ele>483.3</ele>
        <time>2023-02-18T11:43:48Z</time>
      </trkpt>
      <trkpt lat="38.364108" lon="-1.789143">
        <ele>485.6</ele>
        <time>2023-02-18T11:44:28Z</time>
      </trkpt>
      <trkpt lat="38.364081" lon="-1.789070">
        <ele>484.8</ele>
        <time>2023-02-18T11:44:39Z</time>
      </trkpt>
      <trkpt lat="38.364025" lon="-1.789013">
        <ele>485.6</ele>
        <time>2023-02-18T11:44:51Z</time>
      </trkpt>
      <trkpt lat="38.363960" lon="-1.788979">
        <ele>484.6</ele>
        <time>2023-02-18T11:45:01Z</time>
      </trkpt>
      <trkpt lat="38.363928" lon="-1.788906">
        <ele>483.6</ele>
        <time>2023-02-18T11:45:16Z</time>
      </trkpt>
      <trkpt lat="38.363883" lon="-1.788841">
        <ele>481.8</ele>
        <time>2023-02-18T11:45:25Z</time>
      </trkpt>
      <trkpt lat="38.363858" lon="-1.788765">
        <ele>480.7</ele>
        <time>2023-02-18T11:45:47Z</time>
      </trkpt>
      <trkpt lat="38.363844" lon="-1.788678">
        <ele>479.3</ele>
        <time>2023-02-18T11:46:02Z</time>
      </trkpt>
      <trkpt lat="38.363834" lon="-1.788595">
        <ele>478.6</ele>
        <time>2023-02-18T11:46:10Z</time>
      </trkpt>
      <trkpt lat="38.363808" lon="-1.788518">
        <ele>478.6</ele>
        <time>2023-02-18T11:46:18Z</time>
      </trkpt>
      <trkpt lat="38.363765" lon="-1.788453">
        <ele>478.6</ele>
        <time>2023-02-18T11:46:34Z</time>
      </trkpt>
      <trkpt lat="38.363705" lon="-1.788419">
        <ele>479.6</ele>
        <time>2023-02-18T11:46:43Z</time>
      </trkpt>
      <trkpt lat="38.363649" lon="-1.788379">
        <ele>478.6</ele>
        <time>2023-02-18T11:46:54Z</time>
      </trkpt>
      <trkpt lat="38.363592" lon="-1.788326">
        <ele>474.4</ele>
        <time>2023-02-18T11:47:24Z</time>
      </trkpt>
      <trkpt lat="38.363599" lon="-1.788243">
        <ele>470.6</ele>
        <time>2023-02-18T11:47:59Z</time>
      </trkpt>
      <trkpt lat="38.363542" lon="-1.788198">
        <ele>471.6</ele>
        <time>2023-02-18T11:48:21Z</time>
      </trkpt>
      <trkpt lat="38.363468" lon="-1.788192">
        <ele>469.8</ele>
        <time>2023-02-18T11:48:42Z</time>
      </trkpt>
      <trkpt lat="38.363402" lon="-1.788153">
        <ele>468.6</ele>
        <time>2023-02-18T11:49:13Z</time>
      </trkpt>
      <trkpt lat="38.363430" lon="-1.788065">
        <ele>462.6</ele>
        <time>2023-02-18T11:49:52Z</time>
      </trkpt>
      <trkpt lat="38.363431" lon="-1.787974">
        <ele>458.6</ele>
        <time>2023-02-18T11:50:35Z</time>
      </trkpt>
      <trkpt lat="38.363397" lon="-1.787906">
        <ele>453.8</ele>
        <time>2023-02-18T11:50:58Z</time>
      </trkpt>
      <trkpt lat="38.363371" lon="-1.787823">
        <ele>449.8</ele>
        <time>2023-02-18T11:51:08Z</time>
      </trkpt>
      <trkpt lat="38.363396" lon="-1.787725">
        <ele>450.8</ele>
        <time>2023-02-18T11:52:03Z</time>
      </trkpt>
      <trkpt lat="38.363428" lon="-1.787655">
        <ele>450.6</ele>
        <time>2023-02-18T11:52:11Z</time>
      </trkpt>
      <trkpt lat="38.363479" lon="-1.787592">
        <ele>451.3</ele>
        <time>2023-02-18T11:52:19Z</time>
      </trkpt>
      <trkpt lat="38.363506" lon="-1.787504">
        <ele>451.6</ele>
        <time>2023-02-18T11:52:27Z</time>
      </trkpt>
      <trkpt lat="38.363531" lon="-1.787424">
        <ele>451.6</ele>
        <time>2023-02-18T11:52:38Z</time>
      </trkpt>
      <trkpt lat="38.363575" lon="-1.787363">
        <ele>454.5</ele>
        <time>2023-02-18T11:52:48Z</time>
      </trkpt>
      <trkpt lat="38.363590" lon="-1.787283">
        <ele>453.5</ele>
        <time>2023-02-18T11:52:59Z</time>
      </trkpt>
      <trkpt lat="38.363630" lon="-1.787206">
        <ele>453.6</ele>
        <time>2023-02-18T11:53:08Z</time>
      </trkpt>
      <trkpt lat="38.363682" lon="-1.787152">
        <ele>453.4</ele>
        <time>2023-02-18T11:53:19Z</time>
      </trkpt>
      <trkpt lat="38.363676" lon="-1.787059">
        <ele>448.5</ele>
        <time>2023-02-18T11:53:43Z</time>
      </trkpt>
      <trkpt lat="38.363662" lon="-1.786978">
        <ele>446.6</ele>
        <time>2023-02-18T11:53:51Z</time>
      </trkpt>
      <trkpt lat="38.363635" lon="-1.786899">
        <ele>445.6</ele>
        <time>2023-02-18T11:54:01Z</time>
      </trkpt>
      <trkpt lat="38.363575" lon="-1.786854">
        <ele>448.3</ele>
        <time>2023-02-18T11:54:12Z</time>
      </trkpt>
      <trkpt lat="38.363605" lon="-1.786763">
        <ele>450.6</ele>
        <time>2023-02-18T11:54:28Z</time>
      </trkpt>
      <trkpt lat="38.363665" lon="-1.786708">
        <ele>451.3</ele>
        <time>2023-02-18T11:54:38Z</time>
      </trkpt>
      <trkpt lat="38.363712" lon="-1.786654">
        <ele>453.6</ele>
        <time>2023-02-18T11:54:51Z</time>
      </trkpt>
      <trkpt lat="38.363722" lon="-1.786562">
        <ele>454.3</ele>
        <time>2023-02-18T11:55:04Z</time>
      </trkpt>
      <trkpt lat="38.363716" lon="-1.786480">
        <ele>456.8</ele>
        <time>2023-02-18T11:55:12Z</time>
      </trkpt>
      <trkpt lat="38.363719" lon="-1.786399">
        <ele>457.6</ele>
        <time>2023-02-18T11:55:21Z</time>
      </trkpt>
      <trkpt lat="38.363717" lon="-1.786310">
        <ele>454.8</ele>
        <time>2023-02-18T11:55:36Z</time>
      </trkpt>
      <trkpt lat="38.363766" lon="-1.786247">
        <ele>452.6</ele>
        <time>2023-02-18T11:55:45Z</time>
      </trkpt>
      <trkpt lat="38.363807" lon="-1.786175">
        <ele>453.5</ele>
        <time>2023-02-18T11:55:55Z</time>
      </trkpt>
      <trkpt lat="38.363817" lon="-1.786093">
        <ele>456.6</ele>
        <time>2023-02-18T11:56:09Z</time>
      </trkpt>
      <trkpt lat="38.363844" lon="-1.785775">
        <ele>457.6</ele>
        <time>2023-02-18T11:58:42Z</time>
      </trkpt>
      <trkpt lat="38.363844" lon="-1.785690">
        <ele>457.6</ele>
        <time>2023-02-18T11:59:02Z</time>
      </trkpt>
      <trkpt lat="38.363823" lon="-1.785610">
        <ele>456.6</ele>
        <time>2023-02-18T11:59:07Z</time>
      </trkpt>
      <trkpt lat="38.363796" lon="-1.785535">
        <ele>456.6</ele>
        <time>2023-02-18T11:59:15Z</time>
      </trkpt>
      <trkpt lat="38.363780" lon="-1.785457">
        <ele>455.6</ele>
        <time>2023-02-18T11:59:20Z</time>
      </trkpt>
      <trkpt lat="38.363756" lon="-1.785380">
        <ele>455.3</ele>
        <time>2023-02-18T11:59:37Z</time>
      </trkpt>
      <trkpt lat="38.363770" lon="-1.785299">
        <ele>454.6</ele>
        <time>2023-02-18T11:59:44Z</time>
      </trkpt>
      <trkpt lat="38.363749" lon="-1.785204">
        <ele>455.6</ele>
        <time>2023-02-18T11:59:50Z</time>
      </trkpt>
      <trkpt lat="38.363732" lon="-1.785127">
        <ele>453.5</ele>
        <time>2023-02-18T11:59:58Z</time>
      </trkpt>
      <trkpt lat="38.363704" lon="-1.785049">
        <ele>451.6</ele>
        <time>2023-02-18T12:00:11Z</time>
      </trkpt>
      <trkpt lat="38.363690" lon="-1.784966">
        <ele>449.8</ele>
        <time>2023-02-18T12:00:20Z</time>
      </trkpt>
      <trkpt lat="38.363712" lon="-1.784880">
        <ele>447.8</ele>
        <time>2023-02-18T12:00:28Z</time>
      </trkpt>
      <trkpt lat="38.363716" lon="-1.784790">
        <ele>447.6</ele>
        <time>2023-02-18T12:00:33Z</time>
      </trkpt>
      <trkpt lat="38.363686" lon="-1.784717">
        <ele>450.6</ele>
        <time>2023-02-18T12:00:40Z</time>
      </trkpt>
      <trkpt lat="38.363702" lon="-1.784634">
        <ele>452.6</ele>
        <time>2023-02-18T12:00:55Z</time>
      </trkpt>
      <trkpt lat="38.363710" lon="-1.784545">
        <ele>452.6</ele>
        <time>2023-02-18T12:01:03Z</time>
      </trkpt>
      <trkpt lat="38.363649" lon="-1.784522">
        <ele>450.6</ele>
        <time>2023-02-18T12:01:19Z</time>
      </trkpt>
      <trkpt lat="38.363581" lon="-1.784531">
        <ele>454.6</ele>
        <time>2023-02-18T12:01:30Z</time>
      </trkpt>
      <trkpt lat="38.363506" lon="-1.784514">
        <ele>458.6</ele>
        <time>2023-02-18T12:01:47Z</time>
      </trkpt>
      <trkpt lat="38.363438" lon="-1.784484">
        <ele>456.6</ele>
        <time>2023-02-18T12:02:07Z</time>
      </trkpt>
      <trkpt lat="38.363395" lon="-1.784419">
        <ele>456.4</ele>
        <time>2023-02-18T12:02:34Z</time>
      </trkpt>
      <trkpt lat="38.363328" lon="-1.784417">
        <ele>455.5</ele>
        <time>2023-02-18T12:02:56Z</time>
      </trkpt>
      <trkpt lat="38.363359" lon="-1.784343">
        <ele>451.3</ele>
        <time>2023-02-18T12:03:41Z</time>
      </trkpt>
      <trkpt lat="38.363424" lon="-1.784334">
        <ele>448.6</ele>
        <time>2023-02-18T12:03:57Z</time>
      </trkpt>
      <trkpt lat="38.363470" lon="-1.784268">
        <ele>444.3</ele>
        <time>2023-02-18T12:04:21Z</time>
      </trkpt>
      <trkpt lat="38.363411" lon="-1.784226">
        <ele>446.6</ele>
        <time>2023-02-18T12:05:10Z</time>
      </trkpt>
      <trkpt lat="38.363385" lon="-1.784145">
        <ele>442.5</ele>
        <time>2023-02-18T12:05:35Z</time>
      </trkpt>
      <trkpt lat="38.363331" lon="-1.784097">
        <ele>441.6</ele>
        <time>2023-02-18T12:05:46Z</time>
      </trkpt>
      <trkpt lat="38.363327" lon="-1.784007">
        <ele>436.1</ele>
        <time>2023-02-18T12:06:13Z</time>
      </trkpt>
      <trkpt lat="38.363299" lon="-1.783932">
        <ele>432.8</ele>
        <time>2023-02-18T12:06:29Z</time>
      </trkpt>
      <trkpt lat="38.363265" lon="-1.783864">
        <ele>426.6</ele>
        <time>2023-02-18T12:07:01Z</time>
      </trkpt>
      <trkpt lat="38.363199" lon="-1.783830">
        <ele>423.6</ele>
        <time>2023-02-18T12:07:21Z</time>
      </trkpt>
      <trkpt lat="38.363135" lon="-1.783833">
        <ele>424.3</ele>
        <time>2023-02-18T12:07:32Z</time>
      </trkpt>
      <trkpt lat="38.363119" lon="-1.783751">
        <ele>425.6</ele>
        <time>2023-02-18T12:07:46Z</time>
      </trkpt>
      <trkpt lat="38.363140" lon="-1.783668">
        <ele>426.6</ele>
        <time>2023-02-18T12:08:00Z</time>
      </trkpt>
      <trkpt lat="38.363139" lon="-1.783577">
        <ele>425.6</ele>
        <time>2023-02-18T12:08:11Z</time>
      </trkpt>
      <trkpt lat="38.363101" lon="-1.783505">
        <ele>423.6</ele>
        <time>2023-02-18T12:08:24Z</time>
      </trkpt>
      <trkpt lat="38.363143" lon="-1.783435">
        <ele>422.5</ele>
        <time>2023-02-18T12:08:38Z</time>
      </trkpt>
      <trkpt lat="38.363161" lon="-1.783357">
        <ele>421.6</ele>
        <time>2023-02-18T12:08:51Z</time>
      </trkpt>
      <trkpt lat="38.363178" lon="-1.783278">
        <ele>422.6</ele>
        <time>2023-02-18T12:09:07Z</time>
      </trkpt>
      <trkpt lat="38.363179" lon="-1.783193">
        <ele>422.6</ele>
        <time>2023-02-18T12:09:18Z</time>
      </trkpt>
      <trkpt lat="38.363230" lon="-1.783132">
        <ele>424.6</ele>
        <time>2023-02-18T12:09:27Z</time>
      </trkpt>
      <trkpt lat="38.363224" lon="-1.783048">
        <ele>422.6</ele>
        <time>2023-02-18T12:09:41Z</time>
      </trkpt>
      <trkpt lat="38.363175" lon="-1.782991">
        <ele>426.5</ele>
        <time>2023-02-18T12:09:57Z</time>
      </trkpt>
      <trkpt lat="38.363112" lon="-1.782946">
        <ele>427.6</ele>
        <time>2023-02-18T12:10:05Z</time>
      </trkpt>
      <trkpt lat="38.363058" lon="-1.782899">
        <ele>430.5</ele>
        <time>2023-02-18T12:10:12Z</time>
      </trkpt>
      <trkpt lat="38.363002" lon="-1.782856">
        <ele>431.6</ele>
        <time>2023-02-18T12:10:20Z</time>
      </trkpt>
      <trkpt lat="38.362938" lon="-1.782819">
        <ele>435.5</ele>
        <time>2023-02-18T12:10:32Z</time>
      </trkpt>
      <trkpt lat="38.362873" lon="-1.782802">
        <ele>439.5</ele>
        <time>2023-02-18T12:10:45Z</time>
      </trkpt>
      <trkpt lat="38.362810" lon="-1.782777">
        <ele>440.6</ele>
        <time>2023-02-18T12:10:54Z</time>
      </trkpt>
      <trkpt lat="38.362780" lon="-1.782704">
        <ele>440.8</ele>
        <time>2023-02-18T12:11:04Z</time>
      </trkpt>
      <trkpt lat="38.362730" lon="-1.782648">
        <ele>441.6</ele>
        <time>2023-02-18T12:11:17Z</time>
      </trkpt>
      <trkpt lat="38.362700" lon="-1.782571">
        <ele>442.6</ele>
        <time>2023-02-18T12:11:26Z</time>
      </trkpt>
      <trkpt lat="38.362664" lon="-1.782505">
        <ele>443.6</ele>
        <time>2023-02-18T12:11:33Z</time>
      </trkpt>
      <trkpt lat="38.362607" lon="-1.782466">
        <ele>445.5</ele>
        <time>2023-02-18T12:11:47Z</time>
      </trkpt>
      <trkpt lat="38.362573" lon="-1.782387">
        <ele>446.6</ele>
        <time>2023-02-18T12:11:56Z</time>
      </trkpt>
      <trkpt lat="38.362521" lon="-1.782333">
        <ele>445.6</ele>
        <time>2023-02-18T12:12:07Z</time>
      </trkpt>
      <trkpt lat="38.362480" lon="-1.782270">
        <ele>450.3</ele>
        <time>2023-02-18T12:12:20Z</time>
      </trkpt>
      <trkpt lat="38.362411" lon="-1.782274">
        <ele>452.4</ele>
        <time>2023-02-18T12:12:36Z</time>
      </trkpt>
      <trkpt lat="38.362358" lon="-1.782224">
        <ele>452.3</ele>
        <time>2023-02-18T12:12:46Z</time>
      </trkpt>
      <trkpt lat="38.362290" lon="-1.782209">
        <ele>454.3</ele>
        <time>2023-02-18T12:12:56Z</time>
      </trkpt>
      <trkpt lat="38.362223" lon="-1.782202">
        <ele>453.8</ele>
        <time>2023-02-18T12:13:03Z</time>
      </trkpt>
      <trkpt lat="38.362154" lon="-1.782189">
        <ele>453.3</ele>
        <time>2023-02-18T12:13:13Z</time>
      </trkpt>
      <trkpt lat="38.362082" lon="-1.782169">
        <ele>454.3</ele>
        <time>2023-02-18T12:13:23Z</time>
      </trkpt>
      <trkpt lat="38.361950" lon="-1.782077">
        <ele>457.3</ele>
        <time>2023-02-18T12:15:17Z</time>
      </trkpt>
      <trkpt lat="38.361897" lon="-1.782021">
        <ele>461.4</ele>
        <time>2023-02-18T12:15:32Z</time>
      </trkpt>
      <trkpt lat="38.361866" lon="-1.781945">
        <ele>460.3</ele>
        <time>2023-02-18T12:15:42Z</time>
      </trkpt>
      <trkpt lat="38.361821" lon="-1.781880">
        <ele>459.5</ele>
        <time>2023-02-18T12:15:53Z</time>
      </trkpt>
      <trkpt lat="38.361780" lon="-1.781800">
        <ele>461.6</ele>
        <time>2023-02-18T12:16:03Z</time>
      </trkpt>
      <trkpt lat="38.361719" lon="-1.781756">
        <ele>462.6</ele>
        <time>2023-02-18T12:16:12Z</time>
      </trkpt>
      <trkpt lat="38.361668" lon="-1.781704">
        <ele>462.5</ele>
        <time>2023-02-18T12:16:23Z</time>
      </trkpt>
      <trkpt lat="38.361604" lon="-1.781584">
        <ele>468.5</ele>
        <time>2023-02-18T12:17:54Z</time>
      </trkpt>
      <trkpt lat="38.361629" lon="-1.781504">
        <ele>467.6</ele>
        <time>2023-02-18T12:18:11Z</time>
      </trkpt>
      <trkpt lat="38.361617" lon="-1.781424">
        <ele>467.6</ele>
        <time>2023-02-18T12:18:18Z</time>
      </trkpt>
      <trkpt lat="38.361608" lon="-1.781340">
        <ele>468.6</ele>
        <time>2023-02-18T12:18:27Z</time>
      </trkpt>
      <trkpt lat="38.361619" lon="-1.781258">
        <ele>469.5</ele>
        <time>2023-02-18T12:18:34Z</time>
      </trkpt>
      <trkpt lat="38.361602" lon="-1.781176">
        <ele>470.6</ele>
        <time>2023-02-18T12:18:43Z</time>
      </trkpt>
      <trkpt lat="38.361628" lon="-1.781090">
        <ele>473.6</ele>
        <time>2023-02-18T12:18:54Z</time>
      </trkpt>
      <trkpt lat="38.361616" lon="-1.781010">
        <ele>476.4</ele>
        <time>2023-02-18T12:19:09Z</time>
      </trkpt>
      <trkpt lat="38.361641" lon="-1.780928">
        <ele>477.3</ele>
        <time>2023-02-18T12:19:18Z</time>
      </trkpt>
      <trkpt lat="38.361654" lon="-1.780849">
        <ele>479.5</ele>
        <time>2023-02-18T12:19:27Z</time>
      </trkpt>
      <trkpt lat="38.361627" lon="-1.780774">
        <ele>479.6</ele>
        <time>2023-02-18T12:19:38Z</time>
      </trkpt>
      <trkpt lat="38.361654" lon="-1.780694">
        <ele>481.5</ele>
        <time>2023-02-18T12:19:47Z</time>
      </trkpt>
      <trkpt lat="38.361675" lon="-1.780611">
        <ele>480.8</ele>
        <time>2023-02-18T12:19:58Z</time>
      </trkpt>
      <trkpt lat="38.361713" lon="-1.780546">
        <ele>480.6</ele>
        <time>2023-02-18T12:20:07Z</time>
      </trkpt>
      <trkpt lat="38.361742" lon="-1.780471">
        <ele>483.6</ele>
        <time>2023-02-18T12:20:23Z</time>
      </trkpt>
      <trkpt lat="38.361782" lon="-1.780408">
        <ele>483.6</ele>
        <time>2023-02-18T12:20:34Z</time>
      </trkpt>
      <trkpt lat="38.361834" lon="-1.780352">
        <ele>484.6</ele>
        <time>2023-02-18T12:20:44Z</time>
      </trkpt>
      <trkpt lat="38.361834" lon="-1.780333">
        <ele>492.3</ele>
        <time>2023-02-18T12:22:43Z</time>
      </trkpt>
      <trkpt lat="38.361895" lon="-1.780291">
        <ele>492.6</ele>
        <time>2023-02-18T12:23:07Z</time>
      </trkpt>
      <trkpt lat="38.361946" lon="-1.780232">
        <ele>491.6</ele>
        <time>2023-02-18T12:23:19Z</time>
      </trkpt>
      <trkpt lat="38.361974" lon="-1.780150">
        <ele>489.8</ele>
        <time>2023-02-18T12:23:25Z</time>
      </trkpt>
      <trkpt lat="38.362030" lon="-1.780096">
        <ele>486.6</ele>
        <time>2023-02-18T12:23:47Z</time>
      </trkpt>
      <trkpt lat="38.361960" lon="-1.780110">
        <ele>486.6</ele>
        <time>2023-02-18T12:24:25Z</time>
      </trkpt>
      <trkpt lat="38.361907" lon="-1.780053">
        <ele>485.6</ele>
        <time>2023-02-18T12:24:33Z</time>
      </trkpt>
      <trkpt lat="38.361872" lon="-1.779980">
        <ele>483.6</ele>
        <time>2023-02-18T12:24:56Z</time>
      </trkpt>
      <trkpt lat="38.361855" lon="-1.779899">
        <ele>483.8</ele>
        <time>2023-02-18T12:25:01Z</time>
      </trkpt>
      <trkpt lat="38.361842" lon="-1.779805">
        <ele>483.6</ele>
        <time>2023-02-18T12:25:06Z</time>
      </trkpt>
      <trkpt lat="38.361836" lon="-1.779722">
        <ele>482.6</ele>
        <time>2023-02-18T12:25:11Z</time>
      </trkpt>
      <trkpt lat="38.361837" lon="-1.779630">
        <ele>481.6</ele>
        <time>2023-02-18T12:25:17Z</time>
      </trkpt>
      <trkpt lat="38.361807" lon="-1.779549">
        <ele>479.6</ele>
        <time>2023-02-18T12:25:48Z</time>
      </trkpt>
      <trkpt lat="38.361783" lon="-1.779473">
        <ele>480.6</ele>
        <time>2023-02-18T12:25:53Z</time>
      </trkpt>
      <trkpt lat="38.361754" lon="-1.779396">
        <ele>479.8</ele>
        <time>2023-02-18T12:25:59Z</time>
      </trkpt>
      <trkpt lat="38.361738" lon="-1.779308">
        <ele>479.6</ele>
        <time>2023-02-18T12:26:05Z</time>
      </trkpt>
      <trkpt lat="38.361710" lon="-1.779217">
        <ele>478.8</ele>
        <time>2023-02-18T12:26:11Z</time>
      </trkpt>
      <trkpt lat="38.361680" lon="-1.779137">
        <ele>480.8</ele>
        <time>2023-02-18T12:26:23Z</time>
      </trkpt>
      <trkpt lat="38.361650" lon="-1.779060">
        <ele>481.6</ele>
        <time>2023-02-18T12:26:32Z</time>
      </trkpt>
      <trkpt lat="38.361634" lon="-1.778974">
        <ele>483.6</ele>
        <time>2023-02-18T12:26:40Z</time>
      </trkpt>
      <trkpt lat="38.361623" lon="-1.778891">
        <ele>482.6</ele>
        <time>2023-02-18T12:26:45Z</time>
      </trkpt>
      <trkpt lat="38.361619" lon="-1.778801">
        <ele>482.6</ele>
        <time>2023-02-18T12:26:50Z</time>
      </trkpt>
      <trkpt lat="38.361612" lon="-1.778720">
        <ele>482.6</ele>
        <time>2023-02-18T12:26:54Z</time>
      </trkpt>
      <trkpt lat="38.361610" lon="-1.778632">
        <ele>482.6</ele>
        <time>2023-02-18T12:27:00Z</time>
      </trkpt>
      <trkpt lat="38.361564" lon="-1.778573">
        <ele>480.6</ele>
        <time>2023-02-18T12:27:06Z</time>
      </trkpt>
      <trkpt lat="38.361552" lon="-1.778481">
        <ele>474.7</ele>
        <time>2023-02-18T12:27:13Z</time>
      </trkpt>
      <trkpt lat="38.361527" lon="-1.778402">
        <ele>472.6</ele>
        <time>2023-02-18T12:27:20Z</time>
      </trkpt>
      <trkpt lat="38.361467" lon="-1.778360">
        <ele>471.9</ele>
        <time>2023-02-18T12:27:28Z</time>
      </trkpt>
      <trkpt lat="38.361457" lon="-1.778276">
        <ele>469.9</ele>
        <time>2023-02-18T12:27:31Z</time>
      </trkpt>
      <trkpt lat="38.361425" lon="-1.778196">
        <ele>467.6</ele>
        <time>2023-02-18T12:27:40Z</time>
      </trkpt>
      <trkpt lat="38.361422" lon="-1.778108">
        <ele>468.5</ele>
        <time>2023-02-18T12:27:48Z</time>
      </trkpt>
      <trkpt lat="38.361395" lon="-1.778034">
        <ele>467.9</ele>
        <time>2023-02-18T12:27:52Z</time>
      </trkpt>
      <trkpt lat="38.361394" lon="-1.777942">
        <ele>467.6</ele>
        <time>2023-02-18T12:27:56Z</time>
      </trkpt>
      <trkpt lat="38.361443" lon="-1.777886">
        <ele>467.9</ele>
        <time>2023-02-18T12:28:01Z</time>
      </trkpt>
      <trkpt lat="38.361465" lon="-1.777805">
        <ele>467.6</ele>
        <time>2023-02-18T12:28:09Z</time>
      </trkpt>
      <trkpt lat="38.361478" lon="-1.777725">
        <ele>475.5</ele>
        <time>2023-02-18T12:28:39Z</time>
      </trkpt>
      <trkpt lat="38.361533" lon="-1.777679">
        <ele>478.6</ele>
        <time>2023-02-18T12:28:49Z</time>
      </trkpt>
      <trkpt lat="38.361582" lon="-1.777623">
        <ele>479.4</ele>
        <time>2023-02-18T12:28:59Z</time>
      </trkpt>
      <trkpt lat="38.361634" lon="-1.777561">
        <ele>483.8</ele>
        <time>2023-02-18T12:29:46Z</time>
      </trkpt>
      <trkpt lat="38.361702" lon="-1.777522">
        <ele>487.3</ele>
        <time>2023-02-18T12:29:57Z</time>
      </trkpt>
      <trkpt lat="38.361721" lon="-1.777433">
        <ele>483.6</ele>
        <time>2023-02-18T12:30:11Z</time>
      </trkpt>
      <trkpt lat="38.361783" lon="-1.777406">
        <ele>483.6</ele>
        <time>2023-02-18T12:30:17Z</time>
      </trkpt>
      <trkpt lat="38.361832" lon="-1.777336">
        <ele>482.6</ele>
        <time>2023-02-18T12:30:25Z</time>
      </trkpt>
      <trkpt lat="38.361846" lon="-1.777254">
        <ele>481.6</ele>
        <time>2023-02-18T12:30:33Z</time>
      </trkpt>
      <trkpt lat="38.361863" lon="-1.777163">
        <ele>479.7</ele>
        <time>2023-02-18T12:30:42Z</time>
      </trkpt>
      <trkpt lat="38.361845" lon="-1.777084">
        <ele>478.4</ele>
        <time>2023-02-18T12:30:51Z</time>
      </trkpt>
      <trkpt lat="38.361784" lon="-1.777054">
        <ele>478.6</ele>
        <time>2023-02-18T12:30:56Z</time>
      </trkpt>
      <trkpt lat="38.361734" lon="-1.776994">
        <ele>476.9</ele>
        <time>2023-02-18T12:31:03Z</time>
      </trkpt>
      <trkpt lat="38.361701" lon="-1.776923">
        <ele>474.6</ele>
        <time>2023-02-18T12:31:10Z</time>
      </trkpt>
      <trkpt lat="38.361653" lon="-1.776863">
        <ele>472.9</ele>
        <time>2023-02-18T12:31:18Z</time>
      </trkpt>
      <trkpt lat="38.361613" lon="-1.776781">
        <ele>468.9</ele>
        <time>2023-02-18T12:31:26Z</time>
      </trkpt>
      <trkpt lat="38.361595" lon="-1.776697">
        <ele>465.6</ele>
        <time>2023-02-18T12:31:36Z</time>
      </trkpt>
      <trkpt lat="38.361648" lon="-1.776632">
        <ele>465.5</ele>
        <time>2023-02-18T12:31:44Z</time>
      </trkpt>
      <trkpt lat="38.361702" lon="-1.776590">
        <ele>462.4</ele>
        <time>2023-02-18T12:31:51Z</time>
      </trkpt>
      <trkpt lat="38.361763" lon="-1.776546">
        <ele>460.7</ele>
        <time>2023-02-18T12:32:00Z</time>
      </trkpt>
      <trkpt lat="38.361822" lon="-1.776490">
        <ele>460.6</ele>
        <time>2023-02-18T12:32:06Z</time>
      </trkpt>
      <trkpt lat="38.361867" lon="-1.776433">
        <ele>460.6</ele>
        <time>2023-02-18T12:32:16Z</time>
      </trkpt>
      <trkpt lat="38.361912" lon="-1.776395">
        <ele>458.6</ele>
        <time>2023-02-18T12:32:24Z</time>
      </trkpt>
      <trkpt lat="38.361844" lon="-1.776357">
        <ele>456.6</ele>
        <time>2023-02-18T12:32:37Z</time>
      </trkpt>
      <trkpt lat="38.361771" lon="-1.776347">
        <ele>455.6</ele>
        <time>2023-02-18T12:32:43Z</time>
      </trkpt>
      <trkpt lat="38.361703" lon="-1.776342">
        <ele>453.9</ele>
        <time>2023-02-18T12:32:47Z</time>
      </trkpt>
      <trkpt lat="38.361614" lon="-1.776314">
        <ele>451.7</ele>
        <time>2023-02-18T12:32:52Z</time>
      </trkpt>
      <trkpt lat="38.361562" lon="-1.776262">
        <ele>451.8</ele>
        <time>2023-02-18T12:32:58Z</time>
      </trkpt>
      <trkpt lat="38.361498" lon="-1.776201">
        <ele>452.6</ele>
        <time>2023-02-18T12:33:03Z</time>
      </trkpt>
      <trkpt lat="38.361442" lon="-1.776176">
        <ele>451.6</ele>
        <time>2023-02-18T12:33:09Z</time>
      </trkpt>
      <trkpt lat="38.361365" lon="-1.776139">
        <ele>450.7</ele>
        <time>2023-02-18T12:33:15Z</time>
      </trkpt>
      <trkpt lat="38.361301" lon="-1.776085">
        <ele>448.7</ele>
        <time>2023-02-18T12:33:22Z</time>
      </trkpt>
      <trkpt lat="38.361250" lon="-1.776036">
        <ele>448.6</ele>
        <time>2023-02-18T12:33:26Z</time>
      </trkpt>
      <trkpt lat="38.361194" lon="-1.775996">
        <ele>447.6</ele>
        <time>2023-02-18T12:33:32Z</time>
      </trkpt>
      <trkpt lat="38.361130" lon="-1.775967">
        <ele>445.7</ele>
        <time>2023-02-18T12:33:41Z</time>
      </trkpt>
      <trkpt lat="38.361096" lon="-1.775893">
        <ele>444.6</ele>
        <time>2023-02-18T12:33:46Z</time>
      </trkpt>
      <trkpt lat="38.361124" lon="-1.775803">
        <ele>444.6</ele>
        <time>2023-02-18T12:33:51Z</time>
      </trkpt>
      <trkpt lat="38.361196" lon="-1.775801">
        <ele>442.9</ele>
        <time>2023-02-18T12:33:59Z</time>
      </trkpt>
      <trkpt lat="38.361269" lon="-1.775812">
        <ele>443.6</ele>
        <time>2023-02-18T12:34:03Z</time>
      </trkpt>
      <trkpt lat="38.361348" lon="-1.775850">
        <ele>443.6</ele>
        <time>2023-02-18T12:34:09Z</time>
      </trkpt>
      <trkpt lat="38.361395" lon="-1.775898">
        <ele>444.4</ele>
        <time>2023-02-18T12:34:15Z</time>
      </trkpt>
      <trkpt lat="38.361450" lon="-1.775939">
        <ele>443.7</ele>
        <time>2023-02-18T12:34:21Z</time>
      </trkpt>
      <trkpt lat="38.361534" lon="-1.775947">
        <ele>443.6</ele>
        <time>2023-02-18T12:34:26Z</time>
      </trkpt>
      <trkpt lat="38.361609" lon="-1.775967">
        <ele>442.6</ele>
        <time>2023-02-18T12:34:35Z</time>
      </trkpt>
      <trkpt lat="38.361675" lon="-1.775961">
        <ele>440.6</ele>
        <time>2023-02-18T12:34:40Z</time>
      </trkpt>
      <trkpt lat="38.361749" lon="-1.775923">
        <ele>441.6</ele>
        <time>2023-02-18T12:34:45Z</time>
      </trkpt>
      <trkpt lat="38.361812" lon="-1.775893">
        <ele>440.9</ele>
        <time>2023-02-18T12:34:50Z</time>
      </trkpt>
      <trkpt lat="38.361852" lon="-1.775818">
        <ele>439.9</ele>
        <time>2023-02-18T12:34:56Z</time>
      </trkpt>
      <trkpt lat="38.361834" lon="-1.775788">
        <ele>438.7</ele>
        <time>2023-02-18T12:35:03Z</time>
      </trkpt>
      <trkpt lat="38.361790" lon="-1.775806">
        <ele>441.9</ele>
        <time>2023-02-18T12:35:42Z</time>
      </trkpt>
      <trkpt lat="38.361749" lon="-1.775806">
        <ele>441.6</ele>
        <time>2023-02-18T12:35:46Z</time>
      </trkpt>
      <trkpt lat="38.361688" lon="-1.775823">
        <ele>441.6</ele>
        <time>2023-02-18T12:35:51Z</time>
      </trkpt>
      <trkpt lat="38.361636" lon="-1.775825">
        <ele>441.6</ele>
        <time>2023-02-18T12:35:56Z</time>
      </trkpt>
      <trkpt lat="38.361579" lon="-1.775801">
        <ele>440.9</ele>
        <time>2023-02-18T12:36:01Z</time>
      </trkpt>
      <trkpt lat="38.361512" lon="-1.775759">
        <ele>439.7</ele>
        <time>2023-02-18T12:36:06Z</time>
      </trkpt>
      <trkpt lat="38.361436" lon="-1.775735">
        <ele>436.9</ele>
        <time>2023-02-18T12:36:11Z</time>
      </trkpt>
      <trkpt lat="38.361383" lon="-1.775663">
        <ele>434.6</ele>
        <time>2023-02-18T12:36:17Z</time>
      </trkpt>
      <trkpt lat="38.361311" lon="-1.775630">
        <ele>432.9</ele>
        <time>2023-02-18T12:36:23Z</time>
      </trkpt>
      <trkpt lat="38.361232" lon="-1.775630">
        <ele>432.6</ele>
        <time>2023-02-18T12:36:28Z</time>
      </trkpt>
      <trkpt lat="38.361174" lon="-1.775603">
        <ele>430.7</ele>
        <time>2023-02-18T12:36:33Z</time>
      </trkpt>
      <trkpt lat="38.361103" lon="-1.775585">
        <ele>430.6</ele>
        <time>2023-02-18T12:36:38Z</time>
      </trkpt>
      <trkpt lat="38.361013" lon="-1.775572">
        <ele>430.6</ele>
        <time>2023-02-18T12:36:43Z</time>
      </trkpt>
      <trkpt lat="38.360953" lon="-1.775520">
        <ele>428.7</ele>
        <time>2023-02-18T12:36:47Z</time>
      </trkpt>
      <trkpt lat="38.360918" lon="-1.775451">
        <ele>428.4</ele>
        <time>2023-02-18T12:36:54Z</time>
      </trkpt>
      <trkpt lat="38.360884" lon="-1.775402">
        <ele>429.4</ele>
        <time>2023-02-18T12:36:59Z</time>
      </trkpt>
      <trkpt lat="38.360823" lon="-1.775356">
        <ele>426.6</ele>
        <time>2023-02-18T12:37:05Z</time>
      </trkpt>
      <trkpt lat="38.360783" lon="-1.775278">
        <ele>424.9</ele>
        <time>2023-02-18T12:37:09Z</time>
      </trkpt>
      <trkpt lat="38.360739" lon="-1.775216">
        <ele>424.8</ele>
        <time>2023-02-18T12:37:15Z</time>
      </trkpt>
      <trkpt lat="38.360704" lon="-1.775143">
        <ele>424.6</ele>
        <time>2023-02-18T12:37:21Z</time>
      </trkpt>
      <trkpt lat="38.360666" lon="-1.775055">
        <ele>422.7</ele>
        <time>2023-02-18T12:37:27Z</time>
      </trkpt>
      <trkpt lat="38.360624" lon="-1.774979">
        <ele>423.5</ele>
        <time>2023-02-18T12:37:33Z</time>
      </trkpt>
      <trkpt lat="38.360574" lon="-1.774912">
        <ele>421.9</ele>
        <time>2023-02-18T12:37:38Z</time>
      </trkpt>
      <trkpt lat="38.360530" lon="-1.774830">
        <ele>420.6</ele>
        <time>2023-02-18T12:37:42Z</time>
      </trkpt>
      <trkpt lat="38.360492" lon="-1.774755">
        <ele>420.6</ele>
        <time>2023-02-18T12:37:48Z</time>
      </trkpt>
      <trkpt lat="38.360435" lon="-1.774698">
        <ele>419.6</ele>
        <time>2023-02-18T12:38:00Z</time>
      </trkpt>
      <trkpt lat="38.360391" lon="-1.774628">
        <ele>418.4</ele>
        <time>2023-02-18T12:38:06Z</time>
      </trkpt>
      <trkpt lat="38.360355" lon="-1.774554">
        <ele>418.6</ele>
        <time>2023-02-18T12:38:11Z</time>
      </trkpt>
      <trkpt lat="38.360320" lon="-1.774481">
        <ele>418.9</ele>
        <time>2023-02-18T12:38:20Z</time>
      </trkpt>
      <trkpt lat="38.360385" lon="-1.774482">
        <ele>417.6</ele>
        <time>2023-02-18T12:38:27Z</time>
      </trkpt>
      <trkpt lat="38.360422" lon="-1.774561">
        <ele>417.6</ele>
        <time>2023-02-18T12:38:38Z</time>
      </trkpt>
      <trkpt lat="38.360455" lon="-1.774629">
        <ele>418.6</ele>
        <time>2023-02-18T12:38:43Z</time>
      </trkpt>
      <trkpt lat="38.360504" lon="-1.774688">
        <ele>418.6</ele>
        <time>2023-02-18T12:38:48Z</time>
      </trkpt>
      <trkpt lat="38.360559" lon="-1.774749">
        <ele>419.6</ele>
        <time>2023-02-18T12:38:53Z</time>
      </trkpt>
      <trkpt lat="38.360606" lon="-1.774826">
        <ele>420.5</ele>
        <time>2023-02-18T12:38:58Z</time>
      </trkpt>
      <trkpt lat="38.360652" lon="-1.774888">
        <ele>420.6</ele>
        <time>2023-02-18T12:39:03Z</time>
      </trkpt>
      <trkpt lat="38.360720" lon="-1.774922">
        <ele>420.6</ele>
        <time>2023-02-18T12:39:08Z</time>
      </trkpt>
      <trkpt lat="38.360762" lon="-1.774988">
        <ele>419.9</ele>
        <time>2023-02-18T12:39:13Z</time>
      </trkpt>
      <trkpt lat="38.360817" lon="-1.775029">
        <ele>420.6</ele>
        <time>2023-02-18T12:39:18Z</time>
      </trkpt>
      <trkpt lat="38.360881" lon="-1.775056">
        <ele>419.6</ele>
        <time>2023-02-18T12:39:22Z</time>
      </trkpt>
      <trkpt lat="38.360950" lon="-1.775084">
        <ele>417.9</ele>
        <time>2023-02-18T12:39:26Z</time>
      </trkpt>
      <trkpt lat="38.361014" lon="-1.775120">
        <ele>417.6</ele>
        <time>2023-02-18T12:39:31Z</time>
      </trkpt>
      <trkpt lat="38.361076" lon="-1.775134">
        <ele>418.5</ele>
        <time>2023-02-18T12:39:36Z</time>
      </trkpt>
      <trkpt lat="38.361149" lon="-1.775164">
        <ele>419.4</ele>
        <time>2023-02-18T12:39:42Z</time>
      </trkpt>
      <trkpt lat="38.361215" lon="-1.775192">
        <ele>420.6</ele>
        <time>2023-02-18T12:39:47Z</time>
      </trkpt>
      <trkpt lat="38.361279" lon="-1.775214">
        <ele>420.6</ele>
        <time>2023-02-18T12:39:52Z</time>
      </trkpt>
      <trkpt lat="38.361343" lon="-1.775226">
        <ele>421.6</ele>
        <time>2023-02-18T12:39:57Z</time>
      </trkpt>
      <trkpt lat="38.361414" lon="-1.775238">
        <ele>422.6</ele>
        <time>2023-02-18T12:40:03Z</time>
      </trkpt>
      <trkpt lat="38.361477" lon="-1.775255">
        <ele>421.6</ele>
        <time>2023-02-18T12:40:08Z</time>
      </trkpt>
      <trkpt lat="38.361545" lon="-1.775267">
        <ele>422.4</ele>
        <time>2023-02-18T12:40:14Z</time>
      </trkpt>
      <trkpt lat="38.361613" lon="-1.775282">
        <ele>423.6</ele>
        <time>2023-02-18T12:40:19Z</time>
      </trkpt>
      <trkpt lat="38.361688" lon="-1.775303">
        <ele>424.6</ele>
        <time>2023-02-18T12:40:24Z</time>
      </trkpt>
      <trkpt lat="38.361758" lon="-1.775322">
        <ele>424.6</ele>
        <time>2023-02-18T12:40:35Z</time>
      </trkpt>
      <trkpt lat="38.361832" lon="-1.775330">
        <ele>423.9</ele>
        <time>2023-02-18T12:40:39Z</time>
      </trkpt>
      <trkpt lat="38.361903" lon="-1.775343">
        <ele>423.6</ele>
        <time>2023-02-18T12:40:43Z</time>
      </trkpt>
      <trkpt lat="38.361972" lon="-1.775340">
        <ele>423.6</ele>
        <time>2023-02-18T12:40:47Z</time>
      </trkpt>
      <trkpt lat="38.362044" lon="-1.775348">
        <ele>422.6</ele>
        <time>2023-02-18T12:40:52Z</time>
      </trkpt>
      <trkpt lat="38.362120" lon="-1.775362">
        <ele>424.5</ele>
        <time>2023-02-18T12:40:57Z</time>
      </trkpt>
      <trkpt lat="38.362188" lon="-1.775373">
        <ele>424.6</ele>
        <time>2023-02-18T12:41:04Z</time>
      </trkpt>
      <trkpt lat="38.362257" lon="-1.775370">
        <ele>425.6</ele>
        <time>2023-02-18T12:41:10Z</time>
      </trkpt>
      <trkpt lat="38.362329" lon="-1.775375">
        <ele>426.4</ele>
        <time>2023-02-18T12:41:16Z</time>
      </trkpt>
      <trkpt lat="38.362392" lon="-1.775370">
        <ele>426.6</ele>
        <time>2023-02-18T12:41:21Z</time>
      </trkpt>
      <trkpt lat="38.362465" lon="-1.775363">
        <ele>427.4</ele>
        <time>2023-02-18T12:41:28Z</time>
      </trkpt>
      <trkpt lat="38.362528" lon="-1.775369">
        <ele>426.6</ele>
        <time>2023-02-18T12:41:35Z</time>
      </trkpt>
      <trkpt lat="38.362598" lon="-1.775374">
        <ele>427.4</ele>
        <time>2023-02-18T12:41:54Z</time>
      </trkpt>
      <trkpt lat="38.362673" lon="-1.775380">
        <ele>427.6</ele>
        <time>2023-02-18T12:41:59Z</time>
      </trkpt>
      <trkpt lat="38.362736" lon="-1.775353">
        <ele>425.7</ele>
        <time>2023-02-18T12:42:04Z</time>
      </trkpt>
      <trkpt lat="38.362806" lon="-1.775336">
        <ele>427.6</ele>
        <time>2023-02-18T12:42:15Z</time>
      </trkpt>
      <trkpt lat="38.362876" lon="-1.775359">
        <ele>427.7</ele>
        <time>2023-02-18T12:42:21Z</time>
      </trkpt>
      <trkpt lat="38.362938" lon="-1.775364">
        <ele>428.4</ele>
        <time>2023-02-18T12:42:26Z</time>
      </trkpt>
      <trkpt lat="38.362990" lon="-1.775417">
        <ele>432.5</ele>
        <time>2023-02-18T12:42:35Z</time>
      </trkpt>
      <trkpt lat="38.363057" lon="-1.775418">
        <ele>431.7</ele>
        <time>2023-02-18T12:42:41Z</time>
      </trkpt>
      <trkpt lat="38.363121" lon="-1.775380">
        <ele>430.6</ele>
        <time>2023-02-18T12:42:46Z</time>
      </trkpt>
      <trkpt lat="38.363190" lon="-1.775372">
        <ele>428.9</ele>
        <time>2023-02-18T12:42:52Z</time>
      </trkpt>
      <trkpt lat="38.363268" lon="-1.775368">
        <ele>428.6</ele>
        <time>2023-02-18T12:42:57Z</time>
      </trkpt>
      <trkpt lat="38.363342" lon="-1.775374">
        <ele>426.9</ele>
        <time>2023-02-18T12:43:03Z</time>
      </trkpt>
      <trkpt lat="38.363420" lon="-1.775384">
        <ele>427.6</ele>
        <time>2023-02-18T12:43:08Z</time>
      </trkpt>
      <trkpt lat="38.363484" lon="-1.775395">
        <ele>427.6</ele>
        <time>2023-02-18T12:43:12Z</time>
      </trkpt>
      <trkpt lat="38.363553" lon="-1.775391">
        <ele>426.6</ele>
        <time>2023-02-18T12:43:18Z</time>
      </trkpt>
      <trkpt lat="38.363634" lon="-1.775390">
        <ele>426.6</ele>
        <time>2023-02-18T12:43:24Z</time>
      </trkpt>
      <trkpt lat="38.363697" lon="-1.775390">
        <ele>424.7</ele>
        <time>2023-02-18T12:43:30Z</time>
      </trkpt>
      <trkpt lat="38.363775" lon="-1.775395">
        <ele>425.5</ele>
        <time>2023-02-18T12:43:35Z</time>
      </trkpt>
      <trkpt lat="38.363845" lon="-1.775408">
        <ele>424.6</ele>
        <time>2023-02-18T12:43:40Z</time>
      </trkpt>
      <trkpt lat="38.363924" lon="-1.775422">
        <ele>425.6</ele>
        <time>2023-02-18T12:43:46Z</time>
      </trkpt>
      <trkpt lat="38.363993" lon="-1.775448">
        <ele>424.8</ele>
        <time>2023-02-18T12:43:52Z</time>
      </trkpt>
      <trkpt lat="38.364064" lon="-1.775489">
        <ele>425.5</ele>
        <time>2023-02-18T12:43:59Z</time>
      </trkpt>
      <trkpt lat="38.364112" lon="-1.775542">
        <ele>425.6</ele>
        <time>2023-02-18T12:44:04Z</time>
      </trkpt>
      <trkpt lat="38.364176" lon="-1.775588">
        <ele>425.6</ele>
        <time>2023-02-18T12:44:14Z</time>
      </trkpt>
      <trkpt lat="38.364236" lon="-1.775628">
        <ele>426.6</ele>
        <time>2023-02-18T12:44:19Z</time>
      </trkpt>
      <trkpt lat="38.364294" lon="-1.775675">
        <ele>427.6</ele>
        <time>2023-02-18T12:44:24Z</time>
      </trkpt>
      <trkpt lat="38.364343" lon="-1.775798">
        <ele>429.6</ele>
        <time>2023-02-18T12:44:33Z</time>
      </trkpt>
      <trkpt lat="38.364392" lon="-1.775852">
        <ele>429.6</ele>
        <time>2023-02-18T12:44:42Z</time>
      </trkpt>
      <trkpt lat="38.364424" lon="-1.775916">
        <ele>429.7</ele>
        <time>2023-02-18T12:44:52Z</time>
      </trkpt>
      <trkpt lat="38.364475" lon="-1.776012">
        <ele>432.3</ele>
        <time>2023-02-18T12:45:10Z</time>
      </trkpt>
      <trkpt lat="38.364685" lon="-1.776085">
        <ele>433.4</ele>
        <time>2023-02-18T12:45:22Z</time>
      </trkpt>
      <trkpt lat="38.364840" lon="-1.776077">
        <ele>433.6</ele>
        <time>2023-02-18T12:45:29Z</time>
      </trkpt>
      <trkpt lat="38.364972" lon="-1.776085">
        <ele>434.6</ele>
        <time>2023-02-18T12:45:55Z</time>
      </trkpt>
      <trkpt lat="38.365204" lon="-1.776054">
        <ele>435.6</ele>
        <time>2023-02-18T12:46:06Z</time>
      </trkpt>
      <trkpt lat="38.364992" lon="-1.776023">
        <ele>433.6</ele>
        <time>2023-02-18T12:48:06Z</time>
      </trkpt>
      <trkpt lat="38.364762" lon="-1.776018">
        <ele>434.3</ele>
        <time>2023-02-18T12:48:28Z</time>
      </trkpt>
      <trkpt lat="38.364612" lon="-1.776009">
        <ele>432.6</ele>
        <time>2023-02-18T12:48:34Z</time>
      </trkpt>
      <trkpt lat="38.364504" lon="-1.775945">
        <ele>435.6</ele>
        <time>2023-02-18T12:49:45Z</time>
      </trkpt>
      <trkpt lat="38.364427" lon="-1.775826">
        <ele>434.6</ele>
        <time>2023-02-18T12:50:16Z</time>
      </trkpt>
      <trkpt lat="38.364385" lon="-1.775780">
        <ele>434.6</ele>
        <time>2023-02-18T12:50:18Z</time>
      </trkpt>
      <trkpt lat="38.364310" lon="-1.775724">
        <ele>433.9</ele>
        <time>2023-02-18T12:50:20Z</time>
      </trkpt>
      <trkpt lat="38.364231" lon="-1.775644">
        <ele>434.4</ele>
        <time>2023-02-18T12:50:22Z</time>
      </trkpt>
      <trkpt lat="38.364178" lon="-1.775588">
        <ele>434.5</ele>
        <time>2023-02-18T12:50:23Z</time>
      </trkpt>
      <trkpt lat="38.364109" lon="-1.775534">
        <ele>434.6</ele>
        <time>2023-02-18T12:50:24Z</time>
      </trkpt>
      <trkpt lat="38.364032" lon="-1.775478">
        <ele>433.9</ele>
        <time>2023-02-18T12:50:25Z</time>
      </trkpt>
      <trkpt lat="38.363955" lon="-1.775433">
        <ele>432.9</ele>
        <time>2023-02-18T12:50:26Z</time>
      </trkpt>
      <trkpt lat="38.363880" lon="-1.775401">
        <ele>433.4</ele>
        <time>2023-02-18T12:50:27Z</time>
      </trkpt>
      <trkpt lat="38.363799" lon="-1.775383">
        <ele>432.8</ele>
        <time>2023-02-18T12:50:28Z</time>
      </trkpt>
      <trkpt lat="38.363715" lon="-1.775373">
        <ele>433.4</ele>
        <time>2023-02-18T12:50:29Z</time>
      </trkpt>
      <trkpt lat="38.363628" lon="-1.775368">
        <ele>432.8</ele>
        <time>2023-02-18T12:50:30Z</time>
      </trkpt>
      <trkpt lat="38.363538" lon="-1.775364">
        <ele>432.6</ele>
        <time>2023-02-18T12:50:31Z</time>
      </trkpt>
      <trkpt lat="38.363442" lon="-1.775370">
        <ele>433.4</ele>
        <time>2023-02-18T12:50:32Z</time>
      </trkpt>
      <trkpt lat="38.363347" lon="-1.775377">
        <ele>432.8</ele>
        <time>2023-02-18T12:50:33Z</time>
      </trkpt>
      <trkpt lat="38.363254" lon="-1.775373">
        <ele>432.6</ele>
        <time>2023-02-18T12:50:34Z</time>
      </trkpt>
      <trkpt lat="38.363159" lon="-1.775365">
        <ele>432.6</ele>
        <time>2023-02-18T12:50:35Z</time>
      </trkpt>
      <trkpt lat="38.363063" lon="-1.775353">
        <ele>433.4</ele>
        <time>2023-02-18T12:50:36Z</time>
      </trkpt>
      <trkpt lat="38.362964" lon="-1.775346">
        <ele>433.5</ele>
        <time>2023-02-18T12:50:37Z</time>
      </trkpt>
      <trkpt lat="38.362866" lon="-1.775342">
        <ele>432.8</ele>
        <time>2023-02-18T12:50:38Z</time>
      </trkpt>
      <trkpt lat="38.362767" lon="-1.775336">
        <ele>432.7</ele>
        <time>2023-02-18T12:50:39Z</time>
      </trkpt>
      <trkpt lat="38.362665" lon="-1.775333">
        <ele>432.6</ele>
        <time>2023-02-18T12:50:40Z</time>
      </trkpt>
      <trkpt lat="38.362560" lon="-1.775333">
        <ele>432.6</ele>
        <time>2023-02-18T12:50:41Z</time>
      </trkpt>
      <trkpt lat="38.362454" lon="-1.775335">
        <ele>431.9</ele>
        <time>2023-02-18T12:50:42Z</time>
      </trkpt>
      <trkpt lat="38.362346" lon="-1.775335">
        <ele>431.7</ele>
        <time>2023-02-18T12:50:43Z</time>
      </trkpt>
      <trkpt lat="38.362240" lon="-1.775334">
        <ele>431.6</ele>
        <time>2023-02-18T12:50:44Z</time>
      </trkpt>
      <trkpt lat="38.362129" lon="-1.775326">
        <ele>431.6</ele>
        <time>2023-02-18T12:50:45Z</time>
      </trkpt>
      <trkpt lat="38.362013" lon="-1.775320">
        <ele>430.9</ele>
        <time>2023-02-18T12:50:46Z</time>
      </trkpt>
      <trkpt lat="38.361898" lon="-1.775313">
        <ele>429.9</ele>
        <time>2023-02-18T12:50:47Z</time>
      </trkpt>
      <trkpt lat="38.361782" lon="-1.775302">
        <ele>429.7</ele>
        <time>2023-02-18T12:50:48Z</time>
      </trkpt>
      <trkpt lat="38.361670" lon="-1.775293">
        <ele>429.6</ele>
        <time>2023-02-18T12:50:49Z</time>
      </trkpt>
      <trkpt lat="38.361558" lon="-1.775287">
        <ele>429.6</ele>
        <time>2023-02-18T12:50:50Z</time>
      </trkpt>
      <trkpt lat="38.361449" lon="-1.775277">
        <ele>429.6</ele>
        <time>2023-02-18T12:50:51Z</time>
      </trkpt>
      <trkpt lat="38.361338" lon="-1.775264">
        <ele>429.6</ele>
        <time>2023-02-18T12:50:52Z</time>
      </trkpt>
      <trkpt lat="38.361229" lon="-1.775245">
        <ele>429.6</ele>
        <time>2023-02-18T12:50:53Z</time>
      </trkpt>
      <trkpt lat="38.361125" lon="-1.775209">
        <ele>429.6</ele>
        <time>2023-02-18T12:50:54Z</time>
      </trkpt>
      <trkpt lat="38.361024" lon="-1.775155">
        <ele>428.9</ele>
        <time>2023-02-18T12:50:55Z</time>
      </trkpt>
      <trkpt lat="38.360927" lon="-1.775102">
        <ele>428.7</ele>
        <time>2023-02-18T12:50:56Z</time>
      </trkpt>
      <trkpt lat="38.360839" lon="-1.775049">
        <ele>428.6</ele>
        <time>2023-02-18T12:50:57Z</time>
      </trkpt>
      <trkpt lat="38.360754" lon="-1.774988">
        <ele>427.9</ele>
        <time>2023-02-18T12:50:58Z</time>
      </trkpt>
      <trkpt lat="38.360710" lon="-1.774865">
        <ele>427.7</ele>
        <time>2023-02-18T12:50:59Z</time>
      </trkpt>
      <trkpt lat="38.360623" lon="-1.774767">
        <ele>426.9</ele>
        <time>2023-02-18T12:51:00Z</time>
      </trkpt>
      <trkpt lat="38.360559" lon="-1.774679">
        <ele>426.7</ele>
        <time>2023-02-18T12:51:01Z</time>
      </trkpt>
      <trkpt lat="38.360497" lon="-1.774583">
        <ele>425.9</ele>
        <time>2023-02-18T12:51:02Z</time>
      </trkpt>
      <trkpt lat="38.360430" lon="-1.774497">
        <ele>425.7</ele>
        <time>2023-02-18T12:51:03Z</time>
      </trkpt>
      <trkpt lat="38.360365" lon="-1.774397">
        <ele>424.9</ele>
        <time>2023-02-18T12:51:04Z</time>
      </trkpt>
      <trkpt lat="38.360281" lon="-1.774325">
        <ele>423.9</ele>
        <time>2023-02-18T12:51:05Z</time>
      </trkpt>
      <trkpt lat="38.360223" lon="-1.774233">
        <ele>423.7</ele>
        <time>2023-02-18T12:51:06Z</time>
      </trkpt>
      <trkpt lat="38.360171" lon="-1.774170">
        <ele>423.6</ele>
        <time>2023-02-18T12:51:07Z</time>
      </trkpt>
      <trkpt lat="38.360104" lon="-1.774104">
        <ele>423.6</ele>
        <time>2023-02-18T12:51:08Z</time>
      </trkpt>
      <trkpt lat="38.360060" lon="-1.774005">
        <ele>423.6</ele>
        <time>2023-02-18T12:51:09Z</time>
      </trkpt>
      <trkpt lat="38.360010" lon="-1.773931">
        <ele>423.6</ele>
        <time>2023-02-18T12:51:10Z</time>
      </trkpt>
      <trkpt lat="38.359964" lon="-1.773896">
        <ele>423.6</ele>
        <time>2023-02-18T12:51:11Z</time>
      </trkpt>
      <trkpt lat="38.359919" lon="-1.773857">
        <ele>423.6</ele>
        <time>2023-02-18T12:51:12Z</time>
      </trkpt>
      <trkpt lat="38.359886" lon="-1.773849">
        <ele>422.9</ele>
        <time>2023-02-18T12:51:13Z</time>
      </trkpt>
      <trkpt lat="38.359855" lon="-1.773833">
        <ele>421.9</ele>
        <time>2023-02-18T12:51:14Z</time>
      </trkpt>
      <trkpt lat="38.359832" lon="-1.773819">
        <ele>421.7</ele>
        <time>2023-02-18T12:51:15Z</time>
      </trkpt>
      <trkpt lat="38.359810" lon="-1.773806">
        <ele>420.9</ele>
        <time>2023-02-18T12:51:16Z</time>
      </trkpt>
      <trkpt lat="38.359778" lon="-1.773803">
        <ele>420.7</ele>
        <time>2023-02-18T12:51:17Z</time>
      </trkpt>
      <trkpt lat="38.359751" lon="-1.773802">
        <ele>420.6</ele>
        <time>2023-02-18T12:51:18Z</time>
      </trkpt>
      <trkpt lat="38.359718" lon="-1.773791">
        <ele>420.6</ele>
        <time>2023-02-18T12:51:19Z</time>
      </trkpt>
      <trkpt lat="38.359686" lon="-1.773789">
        <ele>419.9</ele>
        <time>2023-02-18T12:51:20Z</time>
      </trkpt>
      <trkpt lat="38.359663" lon="-1.773768">
        <ele>419.7</ele>
        <time>2023-02-18T12:51:21Z</time>
      </trkpt>
      <trkpt lat="38.359670" lon="-1.773745">
        <ele>419.6</ele>
        <time>2023-02-18T12:51:22Z</time>
      </trkpt>
      <trkpt lat="38.359686" lon="-1.773724">
        <ele>418.9</ele>
        <time>2023-02-18T12:51:23Z</time>
      </trkpt>
      <trkpt lat="38.359711" lon="-1.773701">
        <ele>417.9</ele>
        <time>2023-02-18T12:51:24Z</time>
      </trkpt>
      <trkpt lat="38.359717" lon="-1.773685">
        <ele>426.6</ele>
        <time>2023-02-26T07:59:56Z</time>
      </trkpt>
      <trkpt lat="38.359724" lon="-1.773664">
        <ele>426.4</ele>
        <time>2023-02-26T08:00:00Z</time>
      </trkpt>
      <trkpt lat="38.359727" lon="-1.773647">
        <ele>425.6</ele>
        <time>2023-02-26T08:00:10Z</time>
      </trkpt>
      <trkpt lat="38.359742" lon="-1.773614">
        <ele>424.6</ele>
        <time>2023-02-26T08:00:22Z</time>
      </trkpt>
      <trkpt lat="38.359780" lon="-1.773570">
        <ele>424.9</ele>
        <time>2023-02-26T08:00:26Z</time>
      </trkpt>
      <trkpt lat="38.359816" lon="-1.773532">
        <ele>424.9</ele>
        <time>2023-02-26T08:00:30Z</time>
      </trkpt>
      <trkpt lat="38.359884" lon="-1.773496">
        <ele>422.9</ele>
        <time>2023-02-26T08:00:34Z</time>
      </trkpt>
      <trkpt lat="38.359941" lon="-1.773450">
        <ele>422.6</ele>
        <time>2023-02-26T08:00:41Z</time>
      </trkpt>
      <trkpt lat="38.359990" lon="-1.773396">
        <ele>422.6</ele>
        <time>2023-02-26T08:00:46Z</time>
      </trkpt>
      <trkpt lat="38.360042" lon="-1.773347">
        <ele>420.7</ele>
        <time>2023-02-26T08:00:54Z</time>
      </trkpt>
      <trkpt lat="38.360095" lon="-1.773297">
        <ele>421.6</ele>
        <time>2023-02-26T08:00:59Z</time>
      </trkpt>
      <trkpt lat="38.360148" lon="-1.773254">
        <ele>419.9</ele>
        <time>2023-02-26T08:01:03Z</time>
      </trkpt>
      <trkpt lat="38.360213" lon="-1.773218">
        <ele>419.6</ele>
        <time>2023-02-26T08:01:07Z</time>
      </trkpt>
      <trkpt lat="38.360275" lon="-1.773181">
        <ele>417.6</ele>
        <time>2023-02-26T08:01:11Z</time>
      </trkpt>
      <trkpt lat="38.360340" lon="-1.773165">
        <ele>415.5</ele>
        <time>2023-02-26T08:01:16Z</time>
      </trkpt>
      <trkpt lat="38.360411" lon="-1.773122">
        <ele>413.9</ele>
        <time>2023-02-26T08:01:22Z</time>
      </trkpt>
      <trkpt lat="38.360478" lon="-1.773083">
        <ele>413.6</ele>
        <time>2023-02-26T08:01:27Z</time>
      </trkpt>
      <trkpt lat="38.360536" lon="-1.773042">
        <ele>412.6</ele>
        <time>2023-02-26T08:01:31Z</time>
      </trkpt>
      <trkpt lat="38.360597" lon="-1.773016">
        <ele>412.6</ele>
        <time>2023-02-26T08:01:36Z</time>
      </trkpt>
      <trkpt lat="38.360654" lon="-1.772972">
        <ele>412.6</ele>
        <time>2023-02-26T08:01:41Z</time>
      </trkpt>
      <trkpt lat="38.360719" lon="-1.772950">
        <ele>411.6</ele>
        <time>2023-02-26T08:01:46Z</time>
      </trkpt>
      <trkpt lat="38.360784" lon="-1.772916">
        <ele>411.4</ele>
        <time>2023-02-26T08:01:52Z</time>
      </trkpt>
      <trkpt lat="38.360835" lon="-1.772852">
        <ele>412.6</ele>
        <time>2023-02-26T08:01:56Z</time>
      </trkpt>
      <trkpt lat="38.360869" lon="-1.772778">
        <ele>413.6</ele>
        <time>2023-02-26T08:02:01Z</time>
      </trkpt>
      <trkpt lat="38.360916" lon="-1.772718">
        <ele>412.6</ele>
        <time>2023-02-26T08:02:07Z</time>
      </trkpt>
      <trkpt lat="38.360943" lon="-1.772643">
        <ele>413.6</ele>
        <time>2023-02-26T08:02:11Z</time>
      </trkpt>
      <trkpt lat="38.360991" lon="-1.772590">
        <ele>412.6</ele>
        <time>2023-02-26T08:02:15Z</time>
      </trkpt>
      <trkpt lat="38.361064" lon="-1.772568">
        <ele>412.6</ele>
        <time>2023-02-26T08:02:21Z</time>
      </trkpt>
      <trkpt lat="38.361133" lon="-1.772593">
        <ele>411.6</ele>
        <time>2023-02-26T08:02:26Z</time>
      </trkpt>
      <trkpt lat="38.361194" lon="-1.772635">
        <ele>410.6</ele>
        <time>2023-02-26T08:02:32Z</time>
      </trkpt>
      <trkpt lat="38.361255" lon="-1.772675">
        <ele>409.5</ele>
        <time>2023-02-26T08:02:36Z</time>
      </trkpt>
      <trkpt lat="38.361272" lon="-1.772760">
        <ele>408.6</ele>
        <time>2023-02-26T08:02:42Z</time>
      </trkpt>
      <trkpt lat="38.361257" lon="-1.772840">
        <ele>409.6</ele>
        <time>2023-02-26T08:02:47Z</time>
      </trkpt>
      <trkpt lat="38.361250" lon="-1.772932">
        <ele>407.8</ele>
        <time>2023-02-26T08:02:54Z</time>
      </trkpt>
      <trkpt lat="38.361212" lon="-1.773003">
        <ele>406.9</ele>
        <time>2023-02-26T08:03:00Z</time>
      </trkpt>
      <trkpt lat="38.361176" lon="-1.773070">
        <ele>403.9</ele>
        <time>2023-02-26T08:03:05Z</time>
      </trkpt>
      <trkpt lat="38.361139" lon="-1.773135">
        <ele>402.9</ele>
        <time>2023-02-26T08:03:11Z</time>
      </trkpt>
      <trkpt lat="38.361114" lon="-1.773214">
        <ele>401.9</ele>
        <time>2023-02-26T08:03:16Z</time>
      </trkpt>
      <trkpt lat="38.361102" lon="-1.773301">
        <ele>400.6</ele>
        <time>2023-02-26T08:03:21Z</time>
      </trkpt>
      <trkpt lat="38.361124" lon="-1.773381">
        <ele>401.5</ele>
        <time>2023-02-26T08:03:26Z</time>
      </trkpt>
      <trkpt lat="38.361147" lon="-1.773458">
        <ele>400.6</ele>
        <time>2023-02-26T08:03:31Z</time>
      </trkpt>
      <trkpt lat="38.361192" lon="-1.773522">
        <ele>400.6</ele>
        <time>2023-02-26T08:03:36Z</time>
      </trkpt>
      <trkpt lat="38.361252" lon="-1.773560">
        <ele>399.6</ele>
        <time>2023-02-26T08:03:42Z</time>
      </trkpt>
      <trkpt lat="38.361320" lon="-1.773548">
        <ele>400.6</ele>
        <time>2023-02-26T08:03:47Z</time>
      </trkpt>
      <trkpt lat="38.361384" lon="-1.773523">
        <ele>400.6</ele>
        <time>2023-02-26T08:03:52Z</time>
      </trkpt>
      <trkpt lat="38.361445" lon="-1.773484">
        <ele>400.6</ele>
        <time>2023-02-26T08:03:56Z</time>
      </trkpt>
      <trkpt lat="38.361511" lon="-1.773452">
        <ele>401.6</ele>
        <time>2023-02-26T08:04:01Z</time>
      </trkpt>
      <trkpt lat="38.361580" lon="-1.773423">
        <ele>402.6</ele>
        <time>2023-02-26T08:04:07Z</time>
      </trkpt>
      <trkpt lat="38.361650" lon="-1.773390">
        <ele>402.6</ele>
        <time>2023-02-26T08:04:14Z</time>
      </trkpt>
      <trkpt lat="38.361710" lon="-1.773355">
        <ele>402.6</ele>
        <time>2023-02-26T08:04:19Z</time>
      </trkpt>
      <trkpt lat="38.361774" lon="-1.773322">
        <ele>401.6</ele>
        <time>2023-02-26T08:04:25Z</time>
      </trkpt>
      <trkpt lat="38.361832" lon="-1.773282">
        <ele>399.7</ele>
        <time>2023-02-26T08:04:31Z</time>
      </trkpt>
      <trkpt lat="38.361883" lon="-1.773234">
        <ele>397.6</ele>
        <time>2023-02-26T08:04:37Z</time>
      </trkpt>
      <trkpt lat="38.361920" lon="-1.773168">
        <ele>395.9</ele>
        <time>2023-02-26T08:04:43Z</time>
      </trkpt>
      <trkpt lat="38.361941" lon="-1.773091">
        <ele>395.6</ele>
        <time>2023-02-26T08:04:48Z</time>
      </trkpt>
      <trkpt lat="38.361960" lon="-1.773010">
        <ele>393.6</ele>
        <time>2023-02-26T08:04:55Z</time>
      </trkpt>
      <trkpt lat="38.361976" lon="-1.772924">
        <ele>392.6</ele>
        <time>2023-02-26T08:05:02Z</time>
      </trkpt>
      <trkpt lat="38.361985" lon="-1.772841">
        <ele>392.6</ele>
        <time>2023-02-26T08:05:07Z</time>
      </trkpt>
      <trkpt lat="38.362014" lon="-1.772767">
        <ele>391.6</ele>
        <time>2023-02-26T08:05:12Z</time>
      </trkpt>
      <trkpt lat="38.362070" lon="-1.772716">
        <ele>389.6</ele>
        <time>2023-02-26T08:05:17Z</time>
      </trkpt>
      <trkpt lat="38.362134" lon="-1.772683">
        <ele>390.6</ele>
        <time>2023-02-26T08:05:22Z</time>
      </trkpt>
      <trkpt lat="38.362202" lon="-1.772656">
        <ele>390.6</ele>
        <time>2023-02-26T08:05:27Z</time>
      </trkpt>
      <trkpt lat="38.362264" lon="-1.772627">
        <ele>389.6</ele>
        <time>2023-02-26T08:05:32Z</time>
      </trkpt>
      <trkpt lat="38.362324" lon="-1.772580">
        <ele>389.6</ele>
        <time>2023-02-26T08:05:36Z</time>
      </trkpt>
      <trkpt lat="38.362384" lon="-1.772553">
        <ele>389.4</ele>
        <time>2023-02-26T08:05:41Z</time>
      </trkpt>
      <trkpt lat="38.362448" lon="-1.772524">
        <ele>388.6</ele>
        <time>2023-02-26T08:05:46Z</time>
      </trkpt>
      <trkpt lat="38.362519" lon="-1.772511">
        <ele>388.5</ele>
        <time>2023-02-26T08:05:51Z</time>
      </trkpt>
      <trkpt lat="38.362581" lon="-1.772533">
        <ele>386.7</ele>
        <time>2023-02-26T08:05:56Z</time>
      </trkpt>
      <trkpt lat="38.362636" lon="-1.772586">
        <ele>386.6</ele>
        <time>2023-02-26T08:06:00Z</time>
      </trkpt>
      <trkpt lat="38.362676" lon="-1.772657">
        <ele>384.9</ele>
        <time>2023-02-26T08:06:05Z</time>
      </trkpt>
      <trkpt lat="38.362699" lon="-1.772738">
        <ele>384.6</ele>
        <time>2023-02-26T08:06:09Z</time>
      </trkpt>
      <trkpt lat="38.362687" lon="-1.772823">
        <ele>384.6</ele>
        <time>2023-02-26T08:06:14Z</time>
      </trkpt>
      <trkpt lat="38.362691" lon="-1.772908">
        <ele>383.6</ele>
        <time>2023-02-26T08:06:20Z</time>
      </trkpt>
      <trkpt lat="38.362698" lon="-1.772997">
        <ele>381.6</ele>
        <time>2023-02-26T08:06:25Z</time>
      </trkpt>
      <trkpt lat="38.362753" lon="-1.773052">
        <ele>380.6</ele>
        <time>2023-02-26T08:06:30Z</time>
      </trkpt>
      <trkpt lat="38.362826" lon="-1.773042">
        <ele>381.5</ele>
        <time>2023-02-26T08:06:34Z</time>
      </trkpt>
      <trkpt lat="38.362885" lon="-1.772996">
        <ele>380.6</ele>
        <time>2023-02-26T08:06:38Z</time>
      </trkpt>
      <trkpt lat="38.362926" lon="-1.772933">
        <ele>380.5</ele>
        <time>2023-02-26T08:06:44Z</time>
      </trkpt>
      <trkpt lat="38.362944" lon="-1.772851">
        <ele>378.7</ele>
        <time>2023-02-26T08:06:49Z</time>
      </trkpt>
      <trkpt lat="38.362974" lon="-1.772779">
        <ele>377.6</ele>
        <time>2023-02-26T08:06:55Z</time>
      </trkpt>
      <trkpt lat="38.362987" lon="-1.772695">
        <ele>380.6</ele>
        <time>2023-02-26T08:07:00Z</time>
      </trkpt>
      <trkpt lat="38.363010" lon="-1.772609">
        <ele>381.6</ele>
        <time>2023-02-26T08:07:04Z</time>
      </trkpt>
      <trkpt lat="38.363044" lon="-1.772531">
        <ele>381.6</ele>
        <time>2023-02-26T08:07:09Z</time>
      </trkpt>
      <trkpt lat="38.363073" lon="-1.772459">
        <ele>379.6</ele>
        <time>2023-02-26T08:07:16Z</time>
      </trkpt>
      <trkpt lat="38.363059" lon="-1.772378">
        <ele>379.4</ele>
        <time>2023-02-26T08:07:20Z</time>
      </trkpt>
      <trkpt lat="38.363092" lon="-1.772306">
        <ele>378.9</ele>
        <time>2023-02-26T08:07:25Z</time>
      </trkpt>
      <trkpt lat="38.363154" lon="-1.772272">
        <ele>376.7</ele>
        <time>2023-02-26T08:07:29Z</time>
      </trkpt>
      <trkpt lat="38.363222" lon="-1.772262">
        <ele>374.7</ele>
        <time>2023-02-26T08:07:34Z</time>
      </trkpt>
      <trkpt lat="38.363288" lon="-1.772240">
        <ele>376.6</ele>
        <time>2023-02-26T08:07:39Z</time>
      </trkpt>
      <trkpt lat="38.363356" lon="-1.772218">
        <ele>376.6</ele>
        <time>2023-02-26T08:07:44Z</time>
      </trkpt>
      <trkpt lat="38.363422" lon="-1.772211">
        <ele>376.9</ele>
        <time>2023-02-26T08:07:49Z</time>
      </trkpt>
      <trkpt lat="38.363486" lon="-1.772212">
        <ele>375.9</ele>
        <time>2023-02-26T08:07:55Z</time>
      </trkpt>
      <trkpt lat="38.363551" lon="-1.772199">
        <ele>375.6</ele>
        <time>2023-02-26T08:08:00Z</time>
      </trkpt>
      <trkpt lat="38.363615" lon="-1.772194">
        <ele>376.6</ele>
        <time>2023-02-26T08:08:05Z</time>
      </trkpt>
      <trkpt lat="38.363679" lon="-1.772222">
        <ele>375.6</ele>
        <time>2023-02-26T08:08:10Z</time>
      </trkpt>
      <trkpt lat="38.363729" lon="-1.772272">
        <ele>374.6</ele>
        <time>2023-02-26T08:08:15Z</time>
      </trkpt>
      <trkpt lat="38.363766" lon="-1.772338">
        <ele>374.6</ele>
        <time>2023-02-26T08:08:20Z</time>
      </trkpt>
      <trkpt lat="38.363808" lon="-1.772410">
        <ele>373.6</ele>
        <time>2023-02-26T08:08:25Z</time>
      </trkpt>
      <trkpt lat="38.363870" lon="-1.772457">
        <ele>374.7</ele>
        <time>2023-02-26T08:08:29Z</time>
      </trkpt>
      <trkpt lat="38.363905" lon="-1.772530">
        <ele>373.9</ele>
        <time>2023-02-26T08:08:34Z</time>
      </trkpt>
      <trkpt lat="38.363946" lon="-1.772593">
        <ele>374.6</ele>
        <time>2023-02-26T08:08:40Z</time>
      </trkpt>
      <trkpt lat="38.363961" lon="-1.772683">
        <ele>374.6</ele>
        <time>2023-02-26T08:08:44Z</time>
      </trkpt>
      <trkpt lat="38.363997" lon="-1.772760">
        <ele>375.6</ele>
        <time>2023-02-26T08:08:49Z</time>
      </trkpt>
      <trkpt lat="38.364048" lon="-1.772810">
        <ele>372.6</ele>
        <time>2023-02-26T08:09:16Z</time>
      </trkpt>
      <trkpt lat="38.364069" lon="-1.772894">
        <ele>371.6</ele>
        <time>2023-02-26T08:09:19Z</time>
      </trkpt>
      <trkpt lat="38.364081" lon="-1.772978">
        <ele>370.6</ele>
        <time>2023-02-26T08:09:24Z</time>
      </trkpt>
      <trkpt lat="38.364073" lon="-1.773058">
        <ele>369.6</ele>
        <time>2023-02-26T08:09:46Z</time>
      </trkpt>
      <trkpt lat="38.364112" lon="-1.773123">
        <ele>369.6</ele>
        <time>2023-02-26T08:09:49Z</time>
      </trkpt>
      <trkpt lat="38.364149" lon="-1.773200">
        <ele>368.6</ele>
        <time>2023-02-26T08:09:54Z</time>
      </trkpt>
      <trkpt lat="38.364166" lon="-1.773284">
        <ele>367.7</ele>
        <time>2023-02-26T08:10:01Z</time>
      </trkpt>
      <trkpt lat="38.364202" lon="-1.773354">
        <ele>364.6</ele>
        <time>2023-02-26T08:10:06Z</time>
      </trkpt>
      <trkpt lat="38.364215" lon="-1.773444">
        <ele>362.7</ele>
        <time>2023-02-26T08:10:11Z</time>
      </trkpt>
      <trkpt lat="38.364226" lon="-1.773528">
        <ele>360.6</ele>
        <time>2023-02-26T08:10:16Z</time>
      </trkpt>
      <trkpt lat="38.364248" lon="-1.773614">
        <ele>360.6</ele>
        <time>2023-02-26T08:10:21Z</time>
      </trkpt>
      <trkpt lat="38.364265" lon="-1.773694">
        <ele>360.7</ele>
        <time>2023-02-26T08:10:26Z</time>
      </trkpt>
      <trkpt lat="38.364280" lon="-1.773772">
        <ele>360.8</ele>
        <time>2023-02-26T08:10:31Z</time>
      </trkpt>
      <trkpt lat="38.364300" lon="-1.773850">
        <ele>359.6</ele>
        <time>2023-02-26T08:10:36Z</time>
      </trkpt>
      <trkpt lat="38.364312" lon="-1.773934">
        <ele>357.6</ele>
        <time>2023-02-26T08:10:41Z</time>
      </trkpt>
      <trkpt lat="38.364350" lon="-1.774003">
        <ele>356.6</ele>
        <time>2023-02-26T08:10:46Z</time>
      </trkpt>
      <trkpt lat="38.364399" lon="-1.774061">
        <ele>357.6</ele>
        <time>2023-02-26T08:10:52Z</time>
      </trkpt>
      <trkpt lat="38.364441" lon="-1.774162">
        <ele>355.7</ele>
        <time>2023-02-26T08:11:12Z</time>
      </trkpt>
      <trkpt lat="38.364527" lon="-1.774178">
        <ele>356.6</ele>
        <time>2023-02-26T08:11:15Z</time>
      </trkpt>
      <trkpt lat="38.364609" lon="-1.774160">
        <ele>356.6</ele>
        <time>2023-02-26T08:11:19Z</time>
      </trkpt>
      <trkpt lat="38.364671" lon="-1.774165">
        <ele>355.6</ele>
        <time>2023-02-26T08:11:23Z</time>
      </trkpt>
      <trkpt lat="38.364744" lon="-1.774165">
        <ele>356.6</ele>
        <time>2023-02-26T08:11:29Z</time>
      </trkpt>
      <trkpt lat="38.364803" lon="-1.774137">
        <ele>355.6</ele>
        <time>2023-02-26T08:11:36Z</time>
      </trkpt>
      <trkpt lat="38.364869" lon="-1.774102">
        <ele>361.6</ele>
        <time>2023-02-26T08:11:59Z</time>
      </trkpt>
      <trkpt lat="38.364953" lon="-1.774033">
        <ele>361.6</ele>
        <time>2023-02-26T08:12:04Z</time>
      </trkpt>
      <trkpt lat="38.365013" lon="-1.774000">
        <ele>361.6</ele>
        <time>2023-02-26T08:12:09Z</time>
      </trkpt>
      <trkpt lat="38.365053" lon="-1.773959">
        <ele>361.5</ele>
        <time>2023-02-26T08:12:14Z</time>
      </trkpt>
      <trkpt lat="38.365032" lon="-1.773918">
        <ele>358.9</ele>
        <time>2023-02-26T08:13:32Z</time>
      </trkpt>
      <trkpt lat="38.364943" lon="-1.773991">
        <ele>357.6</ele>
        <time>2023-02-26T08:14:03Z</time>
      </trkpt>
      <trkpt lat="38.364878" lon="-1.774019">
        <ele>357.6</ele>
        <time>2023-02-26T08:14:08Z</time>
      </trkpt>
      <trkpt lat="38.364820" lon="-1.774059">
        <ele>356.6</ele>
        <time>2023-02-26T08:14:15Z</time>
      </trkpt>
      <trkpt lat="38.364760" lon="-1.774093">
        <ele>356.6</ele>
        <time>2023-02-26T08:14:19Z</time>
      </trkpt>
      <trkpt lat="38.364698" lon="-1.774119">
        <ele>357.6</ele>
        <time>2023-02-26T08:14:24Z</time>
      </trkpt>
      <trkpt lat="38.364632" lon="-1.774126">
        <ele>358.4</ele>
        <time>2023-02-26T08:14:29Z</time>
      </trkpt>
      <trkpt lat="38.364568" lon="-1.774126">
        <ele>357.6</ele>
        <time>2023-02-26T08:14:35Z</time>
      </trkpt>
      <trkpt lat="38.364502" lon="-1.774130">
        <ele>357.6</ele>
        <time>2023-02-26T08:15:00Z</time>
      </trkpt>
      <trkpt lat="38.364446" lon="-1.774088">
        <ele>357.6</ele>
        <time>2023-02-26T08:15:05Z</time>
      </trkpt>
      <trkpt lat="38.364412" lon="-1.774018">
        <ele>363.6</ele>
        <time>2023-02-26T08:15:26Z</time>
      </trkpt>
      <trkpt lat="38.364427" lon="-1.773926">
        <ele>362.6</ele>
        <time>2023-02-26T08:15:31Z</time>
      </trkpt>
      <trkpt lat="38.364448" lon="-1.773840">
        <ele>363.6</ele>
        <time>2023-02-26T08:15:35Z</time>
      </trkpt>
      <trkpt lat="38.364459" lon="-1.773749">
        <ele>361.9</ele>
        <time>2023-02-26T08:15:40Z</time>
      </trkpt>
      <trkpt lat="38.364463" lon="-1.773664">
        <ele>364.5</ele>
        <time>2023-02-26T08:15:46Z</time>
      </trkpt>
      <trkpt lat="38.364509" lon="-1.773600">
        <ele>363.7</ele>
        <time>2023-02-26T08:15:56Z</time>
      </trkpt>
      <trkpt lat="38.364507" lon="-1.773508">
        <ele>362.6</ele>
        <time>2023-02-26T08:16:02Z</time>
      </trkpt>
      <trkpt lat="38.364491" lon="-1.773427">
        <ele>362.6</ele>
        <time>2023-02-26T08:16:04Z</time>
      </trkpt>
      <trkpt lat="38.364449" lon="-1.773361">
        <ele>362.4</ele>
        <time>2023-02-26T08:16:19Z</time>
      </trkpt>
      <trkpt lat="38.364427" lon="-1.773286">
        <ele>361.6</ele>
        <time>2023-02-26T08:16:23Z</time>
      </trkpt>
      <trkpt lat="38.364411" lon="-1.773204">
        <ele>359.6</ele>
        <time>2023-02-26T08:16:28Z</time>
      </trkpt>
      <trkpt lat="38.364394" lon="-1.773120">
        <ele>356.7</ele>
        <time>2023-02-26T08:16:34Z</time>
      </trkpt>
      <trkpt lat="38.364396" lon="-1.773035">
        <ele>355.6</ele>
        <time>2023-02-26T08:16:41Z</time>
      </trkpt>
      <trkpt lat="38.364360" lon="-1.772970">
        <ele>356.6</ele>
        <time>2023-02-26T08:16:56Z</time>
      </trkpt>
      <trkpt lat="38.364338" lon="-1.772891">
        <ele>356.6</ele>
        <time>2023-02-26T08:17:00Z</time>
      </trkpt>
      <trkpt lat="38.364336" lon="-1.772803">
        <ele>354.7</ele>
        <time>2023-02-26T08:17:04Z</time>
      </trkpt>
      <trkpt lat="38.364325" lon="-1.772720">
        <ele>352.6</ele>
        <time>2023-02-26T08:17:10Z</time>
      </trkpt>
      <trkpt lat="38.364303" lon="-1.772640">
        <ele>353.6</ele>
        <time>2023-02-26T08:17:14Z</time>
      </trkpt>
      <trkpt lat="38.364270" lon="-1.772562">
        <ele>353.6</ele>
        <time>2023-02-26T08:17:19Z</time>
      </trkpt>
      <trkpt lat="38.364236" lon="-1.772490">
        <ele>353.6</ele>
        <time>2023-02-26T08:17:24Z</time>
      </trkpt>
      <trkpt lat="38.364201" lon="-1.772420">
        <ele>353.6</ele>
        <time>2023-02-26T08:17:29Z</time>
      </trkpt>
      <trkpt lat="38.364180" lon="-1.772343">
        <ele>354.6</ele>
        <time>2023-02-26T08:17:33Z</time>
      </trkpt>
      <trkpt lat="38.364156" lon="-1.772267">
        <ele>354.6</ele>
        <time>2023-02-26T08:17:36Z</time>
      </trkpt>
      <trkpt lat="38.364130" lon="-1.772188">
        <ele>355.6</ele>
        <time>2023-02-26T08:17:41Z</time>
      </trkpt>
      <trkpt lat="38.364090" lon="-1.772119">
        <ele>357.6</ele>
        <time>2023-02-26T08:17:45Z</time>
      </trkpt>
      <trkpt lat="38.364049" lon="-1.772042">
        <ele>355.6</ele>
        <time>2023-02-26T08:17:50Z</time>
      </trkpt>
      <trkpt lat="38.364002" lon="-1.771981">
        <ele>354.6</ele>
        <time>2023-02-26T08:17:55Z</time>
      </trkpt>
      <trkpt lat="38.363954" lon="-1.771927">
        <ele>354.5</ele>
        <time>2023-02-26T08:17:59Z</time>
      </trkpt>
      <trkpt lat="38.363905" lon="-1.771868">
        <ele>354.6</ele>
        <time>2023-02-26T08:18:02Z</time>
      </trkpt>
      <trkpt lat="38.363847" lon="-1.771832">
        <ele>354.6</ele>
        <time>2023-02-26T08:18:06Z</time>
      </trkpt>
      <trkpt lat="38.363800" lon="-1.771772">
        <ele>355.6</ele>
        <time>2023-02-26T08:18:11Z</time>
      </trkpt>
      <trkpt lat="38.363781" lon="-1.771690">
        <ele>354.6</ele>
        <time>2023-02-26T08:18:16Z</time>
      </trkpt>
      <trkpt lat="38.363797" lon="-1.771609">
        <ele>353.7</ele>
        <time>2023-02-26T08:18:20Z</time>
      </trkpt>
      <trkpt lat="38.363813" lon="-1.771525">
        <ele>352.9</ele>
        <time>2023-02-26T08:18:24Z</time>
      </trkpt>
      <trkpt lat="38.363825" lon="-1.771436">
        <ele>352.6</ele>
        <time>2023-02-26T08:18:29Z</time>
      </trkpt>
      <trkpt lat="38.363853" lon="-1.771363">
        <ele>353.6</ele>
        <time>2023-02-26T08:18:58Z</time>
      </trkpt>
      <trkpt lat="38.363862" lon="-1.771276">
        <ele>354.6</ele>
        <time>2023-02-26T08:19:01Z</time>
      </trkpt>
      <trkpt lat="38.363886" lon="-1.771195">
        <ele>354.6</ele>
        <time>2023-02-26T08:19:05Z</time>
      </trkpt>
      <trkpt lat="38.363893" lon="-1.771112">
        <ele>353.6</ele>
        <time>2023-02-26T08:19:13Z</time>
      </trkpt>
      <trkpt lat="38.363899" lon="-1.771029">
        <ele>351.6</ele>
        <time>2023-02-26T08:19:17Z</time>
      </trkpt>
      <trkpt lat="38.363893" lon="-1.770942">
        <ele>353.6</ele>
        <time>2023-02-26T08:19:22Z</time>
      </trkpt>
      <trkpt lat="38.363889" lon="-1.770858">
        <ele>354.4</ele>
        <time>2023-02-26T08:19:27Z</time>
      </trkpt>
      <trkpt lat="38.363887" lon="-1.770770">
        <ele>354.6</ele>
        <time>2023-02-26T08:19:32Z</time>
      </trkpt>
      <trkpt lat="38.363893" lon="-1.770683">
        <ele>356.6</ele>
        <time>2023-02-26T08:19:39Z</time>
      </trkpt>
      <trkpt lat="38.363898" lon="-1.770600">
        <ele>357.6</ele>
        <time>2023-02-26T08:19:44Z</time>
      </trkpt>
      <trkpt lat="38.363910" lon="-1.770510">
        <ele>356.6</ele>
        <time>2023-02-26T08:19:49Z</time>
      </trkpt>
      <trkpt lat="38.363914" lon="-1.770430">
        <ele>355.7</ele>
        <time>2023-02-26T08:19:53Z</time>
      </trkpt>
      <trkpt lat="38.363909" lon="-1.770350">
        <ele>355.6</ele>
        <time>2023-02-26T08:19:58Z</time>
      </trkpt>
      <trkpt lat="38.363900" lon="-1.770268">
        <ele>356.6</ele>
        <time>2023-02-26T08:20:03Z</time>
      </trkpt>
      <trkpt lat="38.363910" lon="-1.770184">
        <ele>354.6</ele>
        <time>2023-02-26T08:20:12Z</time>
      </trkpt>
      <trkpt lat="38.363926" lon="-1.770102">
        <ele>354.6</ele>
        <time>2023-02-26T08:20:30Z</time>
      </trkpt>
      <trkpt lat="38.363946" lon="-1.770025">
        <ele>353.9</ele>
        <time>2023-02-26T08:20:34Z</time>
      </trkpt>
      <trkpt lat="38.364009" lon="-1.770003">
        <ele>352.6</ele>
        <time>2023-02-26T08:20:54Z</time>
      </trkpt>
      <trkpt lat="38.364062" lon="-1.769957">
        <ele>350.6</ele>
        <time>2023-02-26T08:20:57Z</time>
      </trkpt>
      <trkpt lat="38.364124" lon="-1.769929">
        <ele>348.6</ele>
        <time>2023-02-26T08:21:02Z</time>
      </trkpt>
      <trkpt lat="38.364193" lon="-1.769910">
        <ele>349.6</ele>
        <time>2023-02-26T08:21:06Z</time>
      </trkpt>
      <trkpt lat="38.364248" lon="-1.769854">
        <ele>346.9</ele>
        <time>2023-02-26T08:21:10Z</time>
      </trkpt>
      <trkpt lat="38.364317" lon="-1.769828">
        <ele>347.5</ele>
        <time>2023-02-26T08:21:15Z</time>
      </trkpt>
      <trkpt lat="38.364375" lon="-1.769769">
        <ele>347.6</ele>
        <time>2023-02-26T08:21:19Z</time>
      </trkpt>
      <trkpt lat="38.364437" lon="-1.769744">
        <ele>347.6</ele>
        <time>2023-02-26T08:21:23Z</time>
      </trkpt>
      <trkpt lat="38.364493" lon="-1.769699">
        <ele>348.4</ele>
        <time>2023-02-26T08:21:28Z</time>
      </trkpt>
      <trkpt lat="38.364542" lon="-1.769642">
        <ele>348.6</ele>
        <time>2023-02-26T08:21:32Z</time>
      </trkpt>
      <trkpt lat="38.364588" lon="-1.769571">
        <ele>348.6</ele>
        <time>2023-02-26T08:21:36Z</time>
      </trkpt>
      <trkpt lat="38.364651" lon="-1.769535">
        <ele>346.6</ele>
        <time>2023-02-26T08:21:41Z</time>
      </trkpt>
      <trkpt lat="38.364716" lon="-1.769494">
        <ele>346.6</ele>
        <time>2023-02-26T08:21:46Z</time>
      </trkpt>
      <trkpt lat="38.364769" lon="-1.769440">
        <ele>348.4</ele>
        <time>2023-02-26T08:21:51Z</time>
      </trkpt>
      <trkpt lat="38.364824" lon="-1.769400">
        <ele>349.6</ele>
        <time>2023-02-26T08:21:56Z</time>
      </trkpt>
      <trkpt lat="38.364886" lon="-1.769369">
        <ele>348.6</ele>
        <time>2023-02-26T08:22:01Z</time>
      </trkpt>
      <trkpt lat="38.364944" lon="-1.769335">
        <ele>350.6</ele>
        <time>2023-02-26T08:22:06Z</time>
      </trkpt>
      <trkpt lat="38.365010" lon="-1.769325">
        <ele>350.6</ele>
        <time>2023-02-26T08:22:11Z</time>
      </trkpt>
      <trkpt lat="38.365063" lon="-1.769274">
        <ele>348.6</ele>
        <time>2023-02-26T08:22:16Z</time>
      </trkpt>
      <trkpt lat="38.365112" lon="-1.769222">
        <ele>348.6</ele>
        <time>2023-02-26T08:22:21Z</time>
      </trkpt>
      <trkpt lat="38.365162" lon="-1.769170">
        <ele>347.6</ele>
        <time>2023-02-26T08:22:25Z</time>
      </trkpt>
      <trkpt lat="38.365224" lon="-1.769143">
        <ele>347.6</ele>
        <time>2023-02-26T08:22:30Z</time>
      </trkpt>
      <trkpt lat="38.365283" lon="-1.769102">
        <ele>348.6</ele>
        <time>2023-02-26T08:22:35Z</time>
      </trkpt>
      <trkpt lat="38.365346" lon="-1.769078">
        <ele>347.6</ele>
        <time>2023-02-26T08:22:40Z</time>
      </trkpt>
      <trkpt lat="38.365405" lon="-1.769039">
        <ele>348.6</ele>
        <time>2023-02-26T08:22:45Z</time>
      </trkpt>
      <trkpt lat="38.365460" lon="-1.768990">
        <ele>349.6</ele>
        <time>2023-02-26T08:22:52Z</time>
      </trkpt>
      <trkpt lat="38.365527" lon="-1.768968">
        <ele>348.9</ele>
        <time>2023-02-26T08:22:58Z</time>
      </trkpt>
      <trkpt lat="38.365591" lon="-1.768930">
        <ele>346.6</ele>
        <time>2023-02-26T08:23:03Z</time>
      </trkpt>
      <trkpt lat="38.365647" lon="-1.768887">
        <ele>345.9</ele>
        <time>2023-02-26T08:23:08Z</time>
      </trkpt>
      <trkpt lat="38.365708" lon="-1.768859">
        <ele>348.4</ele>
        <time>2023-02-26T08:23:12Z</time>
      </trkpt>
      <trkpt lat="38.365774" lon="-1.768843">
        <ele>348.6</ele>
        <time>2023-02-26T08:23:16Z</time>
      </trkpt>
      <trkpt lat="38.365840" lon="-1.768815">
        <ele>348.7</ele>
        <time>2023-02-26T08:23:22Z</time>
      </trkpt>
      <trkpt lat="38.365896" lon="-1.768773">
        <ele>349.6</ele>
        <time>2023-02-26T08:23:27Z</time>
      </trkpt>
      <trkpt lat="38.365952" lon="-1.768728">
        <ele>350.6</ele>
        <time>2023-02-26T08:23:32Z</time>
      </trkpt>
      <trkpt lat="38.366014" lon="-1.768692">
        <ele>351.6</ele>
        <time>2023-02-26T08:23:37Z</time>
      </trkpt>
      <trkpt lat="38.366080" lon="-1.768729">
        <ele>360.9</ele>
        <time>2023-02-26T08:23:53Z</time>
      </trkpt>
      <trkpt lat="38.366149" lon="-1.768738">
        <ele>358.6</ele>
        <time>2023-02-26T08:23:58Z</time>
      </trkpt>
      <trkpt lat="38.366219" lon="-1.768743">
        <ele>359.6</ele>
        <time>2023-02-26T08:24:03Z</time>
      </trkpt>
      <trkpt lat="38.366286" lon="-1.768750">
        <ele>357.7</ele>
        <time>2023-02-26T08:24:07Z</time>
      </trkpt>
      <trkpt lat="38.366352" lon="-1.768731">
        <ele>357.6</ele>
        <time>2023-02-26T08:24:12Z</time>
      </trkpt>
      <trkpt lat="38.366418" lon="-1.768708">
        <ele>357.6</ele>
        <time>2023-02-26T08:24:16Z</time>
      </trkpt>
      <trkpt lat="38.366480" lon="-1.768682">
        <ele>354.6</ele>
        <time>2023-02-26T08:24:21Z</time>
      </trkpt>
      <trkpt lat="38.366542" lon="-1.768665">
        <ele>350.9</ele>
        <time>2023-02-26T08:24:27Z</time>
      </trkpt>
      <trkpt lat="38.366606" lon="-1.768639">
        <ele>348.9</ele>
        <time>2023-02-26T08:24:32Z</time>
      </trkpt>
      <trkpt lat="38.366674" lon="-1.768605">
        <ele>349.6</ele>
        <time>2023-02-26T08:24:37Z</time>
      </trkpt>
      <trkpt lat="38.366743" lon="-1.768597">
        <ele>347.7</ele>
        <time>2023-02-26T08:24:43Z</time>
      </trkpt>
      <trkpt lat="38.366810" lon="-1.768591">
        <ele>345.6</ele>
        <time>2023-02-26T08:24:50Z</time>
      </trkpt>
      <trkpt lat="38.366872" lon="-1.768642">
        <ele>343.9</ele>
        <time>2023-02-26T08:24:56Z</time>
      </trkpt>
      <trkpt lat="38.366935" lon="-1.768638">
        <ele>343.6</ele>
        <time>2023-02-26T08:24:59Z</time>
      </trkpt>
      <trkpt lat="38.367006" lon="-1.768639">
        <ele>342.7</ele>
        <time>2023-02-26T08:25:04Z</time>
      </trkpt>
      <trkpt lat="38.367078" lon="-1.768629">
        <ele>342.6</ele>
        <time>2023-02-26T08:25:09Z</time>
      </trkpt>
      <trkpt lat="38.367143" lon="-1.768620">
        <ele>341.6</ele>
        <time>2023-02-26T08:25:14Z</time>
      </trkpt>
      <trkpt lat="38.367210" lon="-1.768603">
        <ele>340.6</ele>
        <time>2023-02-26T08:25:21Z</time>
      </trkpt>
      <trkpt lat="38.367275" lon="-1.768591">
        <ele>338.9</ele>
        <time>2023-02-26T08:25:25Z</time>
      </trkpt>
      <trkpt lat="38.367338" lon="-1.768626">
        <ele>338.7</ele>
        <time>2023-02-26T08:25:30Z</time>
      </trkpt>
      <trkpt lat="38.367398" lon="-1.768656">
        <ele>338.6</ele>
        <time>2023-02-26T08:25:34Z</time>
      </trkpt>
      <trkpt lat="38.367460" lon="-1.768682">
        <ele>339.6</ele>
        <time>2023-02-26T08:25:40Z</time>
      </trkpt>
      <trkpt lat="38.367528" lon="-1.768680">
        <ele>340.6</ele>
        <time>2023-02-26T08:25:49Z</time>
      </trkpt>
      <trkpt lat="38.367593" lon="-1.768674">
        <ele>341.6</ele>
        <time>2023-02-26T08:25:54Z</time>
      </trkpt>
      <trkpt lat="38.367658" lon="-1.768662">
        <ele>341.6</ele>
        <time>2023-02-26T08:25:58Z</time>
      </trkpt>
      <trkpt lat="38.367722" lon="-1.768651">
        <ele>342.6</ele>
        <time>2023-02-26T08:26:02Z</time>
      </trkpt>
      <trkpt lat="38.367784" lon="-1.768628">
        <ele>342.6</ele>
        <time>2023-02-26T08:26:05Z</time>
      </trkpt>
      <trkpt lat="38.367847" lon="-1.768606">
        <ele>343.6</ele>
        <time>2023-02-26T08:26:09Z</time>
      </trkpt>
      <trkpt lat="38.367912" lon="-1.768594">
        <ele>345.4</ele>
        <time>2023-02-26T08:26:13Z</time>
      </trkpt>
      <trkpt lat="38.367974" lon="-1.768568">
        <ele>344.6</ele>
        <time>2023-02-26T08:26:21Z</time>
      </trkpt>
      <trkpt lat="38.368046" lon="-1.768555">
        <ele>342.9</ele>
        <time>2023-02-26T08:26:25Z</time>
      </trkpt>
      <trkpt lat="38.368106" lon="-1.768523">
        <ele>344.6</ele>
        <time>2023-02-26T08:26:30Z</time>
      </trkpt>
      <trkpt lat="38.368171" lon="-1.768529">
        <ele>346.6</ele>
        <time>2023-02-26T08:26:34Z</time>
      </trkpt>
      <trkpt lat="38.368235" lon="-1.768538">
        <ele>349.6</ele>
        <time>2023-02-26T08:26:48Z</time>
      </trkpt>
      <trkpt lat="38.368302" lon="-1.768538">
        <ele>348.6</ele>
        <time>2023-02-26T08:26:53Z</time>
      </trkpt>
      <trkpt lat="38.368373" lon="-1.768534">
        <ele>348.6</ele>
        <time>2023-02-26T08:26:59Z</time>
      </trkpt>
      <trkpt lat="38.368436" lon="-1.768498">
        <ele>347.6</ele>
        <time>2023-02-26T08:27:03Z</time>
      </trkpt>
      <trkpt lat="38.368500" lon="-1.768473">
        <ele>348.6</ele>
        <time>2023-02-26T08:27:08Z</time>
      </trkpt>
      <trkpt lat="38.368562" lon="-1.768442">
        <ele>346.6</ele>
        <time>2023-02-26T08:27:14Z</time>
      </trkpt>
      <trkpt lat="38.368628" lon="-1.768426">
        <ele>345.6</ele>
        <time>2023-02-26T08:27:19Z</time>
      </trkpt>
      <trkpt lat="38.368690" lon="-1.768408">
        <ele>345.6</ele>
        <time>2023-02-26T08:27:23Z</time>
      </trkpt>
      <trkpt lat="38.368754" lon="-1.768392">
        <ele>345.6</ele>
        <time>2023-02-26T08:27:27Z</time>
      </trkpt>
      <trkpt lat="38.368821" lon="-1.768385">
        <ele>345.5</ele>
        <time>2023-02-26T08:27:32Z</time>
      </trkpt>
      <trkpt lat="38.368885" lon="-1.768385">
        <ele>345.6</ele>
        <time>2023-02-26T08:27:36Z</time>
      </trkpt>
      <trkpt lat="38.368954" lon="-1.768381">
        <ele>343.6</ele>
        <time>2023-02-26T08:27:42Z</time>
      </trkpt>
      <trkpt lat="38.369022" lon="-1.768370">
        <ele>343.9</ele>
        <time>2023-02-26T08:27:47Z</time>
      </trkpt>
      <trkpt lat="38.369087" lon="-1.768372">
        <ele>346.5</ele>
        <time>2023-02-26T08:27:54Z</time>
      </trkpt>
      <trkpt lat="38.369152" lon="-1.768381">
        <ele>347.6</ele>
        <time>2023-02-26T08:28:00Z</time>
      </trkpt>
      <trkpt lat="38.369220" lon="-1.768380">
        <ele>347.6</ele>
        <time>2023-02-26T08:28:07Z</time>
      </trkpt>
      <trkpt lat="38.369283" lon="-1.768385">
        <ele>346.7</ele>
        <time>2023-02-26T08:28:12Z</time>
      </trkpt>
      <trkpt lat="38.369346" lon="-1.768374">
        <ele>345.6</ele>
        <time>2023-02-26T08:28:16Z</time>
      </trkpt>
      <trkpt lat="38.369413" lon="-1.768357">
        <ele>345.6</ele>
        <time>2023-02-26T08:28:21Z</time>
      </trkpt>
      <trkpt lat="38.369480" lon="-1.768364">
        <ele>345.6</ele>
        <time>2023-02-26T08:28:26Z</time>
      </trkpt>
      <trkpt lat="38.369548" lon="-1.768371">
        <ele>346.6</ele>
        <time>2023-02-26T08:28:31Z</time>
      </trkpt>
      <trkpt lat="38.369612" lon="-1.768396">
        <ele>344.6</ele>
        <time>2023-02-26T08:28:35Z</time>
      </trkpt>
      <trkpt lat="38.369673" lon="-1.768422">
        <ele>343.6</ele>
        <time>2023-02-26T08:28:40Z</time>
      </trkpt>
      <trkpt lat="38.369737" lon="-1.768456">
        <ele>343.9</ele>
        <time>2023-02-26T08:28:44Z</time>
      </trkpt>
      <trkpt lat="38.369803" lon="-1.768462">
        <ele>342.6</ele>
        <time>2023-02-26T08:28:50Z</time>
      </trkpt>
      <trkpt lat="38.369869" lon="-1.768466">
        <ele>341.6</ele>
        <time>2023-02-26T08:28:54Z</time>
      </trkpt>
      <trkpt lat="38.369938" lon="-1.768482">
        <ele>340.6</ele>
        <time>2023-02-26T08:28:59Z</time>
      </trkpt>
      <trkpt lat="38.370004" lon="-1.768512">
        <ele>341.6</ele>
        <time>2023-02-26T08:29:04Z</time>
      </trkpt>
      <trkpt lat="38.370065" lon="-1.768537">
        <ele>340.4</ele>
        <time>2023-02-26T08:29:09Z</time>
      </trkpt>
      <trkpt lat="38.370133" lon="-1.768543">
        <ele>340.6</ele>
        <time>2023-02-26T08:29:14Z</time>
      </trkpt>
      <trkpt lat="38.370198" lon="-1.768541">
        <ele>339.6</ele>
        <time>2023-02-26T08:29:18Z</time>
      </trkpt>
      <trkpt lat="38.370262" lon="-1.768558">
        <ele>340.6</ele>
        <time>2023-02-26T08:29:23Z</time>
      </trkpt>
      <trkpt lat="38.370326" lon="-1.768581">
        <ele>341.6</ele>
        <time>2023-02-26T08:29:28Z</time>
      </trkpt>
      <trkpt lat="38.370391" lon="-1.768601">
        <ele>342.6</ele>
        <time>2023-02-26T08:29:34Z</time>
      </trkpt>
      <trkpt lat="38.370449" lon="-1.768635">
        <ele>341.7</ele>
        <time>2023-02-26T08:29:38Z</time>
      </trkpt>
      <trkpt lat="38.370506" lon="-1.768685">
        <ele>343.6</ele>
        <time>2023-02-26T08:29:43Z</time>
      </trkpt>
      <trkpt lat="38.370563" lon="-1.768740">
        <ele>345.6</ele>
        <time>2023-02-26T08:29:48Z</time>
      </trkpt>
      <trkpt lat="38.370622" lon="-1.768773">
        <ele>345.6</ele>
        <time>2023-02-26T08:29:52Z</time>
      </trkpt>
      <trkpt lat="38.370686" lon="-1.768798">
        <ele>346.6</ele>
        <time>2023-02-26T08:29:57Z</time>
      </trkpt>
      <trkpt lat="38.370743" lon="-1.768834">
        <ele>346.6</ele>
        <time>2023-02-26T08:30:02Z</time>
      </trkpt>
      <trkpt lat="38.370810" lon="-1.768840">
        <ele>347.6</ele>
        <time>2023-02-26T08:30:06Z</time>
      </trkpt>
      <trkpt lat="38.370877" lon="-1.768825">
        <ele>348.6</ele>
        <time>2023-02-26T08:30:10Z</time>
      </trkpt>
      <trkpt lat="38.370943" lon="-1.768822">
        <ele>347.7</ele>
        <time>2023-02-26T08:30:15Z</time>
      </trkpt>
      <trkpt lat="38.371010" lon="-1.768845">
        <ele>348.4</ele>
        <time>2023-02-26T08:30:20Z</time>
      </trkpt>
      <trkpt lat="38.371064" lon="-1.768887">
        <ele>347.6</ele>
        <time>2023-02-26T08:30:25Z</time>
      </trkpt>
      <trkpt lat="38.371121" lon="-1.768936">
        <ele>347.7</ele>
        <time>2023-02-26T08:30:33Z</time>
      </trkpt>
      <trkpt lat="38.371187" lon="-1.768966">
        <ele>347.7</ele>
        <time>2023-02-26T08:30:39Z</time>
      </trkpt>
      <trkpt lat="38.371253" lon="-1.768982">
        <ele>349.5</ele>
        <time>2023-02-26T08:30:44Z</time>
      </trkpt>
      <trkpt lat="38.371303" lon="-1.769037">
        <ele>350.9</ele>
        <time>2023-02-26T08:30:51Z</time>
      </trkpt>
      <trkpt lat="38.371357" lon="-1.769085">
        <ele>349.7</ele>
        <time>2023-02-26T08:30:57Z</time>
      </trkpt>
      <trkpt lat="38.371421" lon="-1.769092">
        <ele>350.6</ele>
        <time>2023-02-26T08:31:02Z</time>
      </trkpt>
      <trkpt lat="38.371468" lon="-1.769150">
        <ele>348.6</ele>
        <time>2023-02-26T08:31:22Z</time>
      </trkpt>
      <trkpt lat="38.371532" lon="-1.769124">
        <ele>348.6</ele>
        <time>2023-02-26T08:31:28Z</time>
      </trkpt>
      <trkpt lat="38.371597" lon="-1.769106">
        <ele>347.6</ele>
        <time>2023-02-26T08:31:34Z</time>
      </trkpt>
      <trkpt lat="38.371665" lon="-1.769103">
        <ele>348.6</ele>
        <time>2023-02-26T08:31:38Z</time>
      </trkpt>
      <trkpt lat="38.371733" lon="-1.769114">
        <ele>348.6</ele>
        <time>2023-02-26T08:31:44Z</time>
      </trkpt>
      <trkpt lat="38.371797" lon="-1.769110">
        <ele>347.6</ele>
        <time>2023-02-26T08:31:50Z</time>
      </trkpt>
      <trkpt lat="38.371859" lon="-1.769139">
        <ele>348.4</ele>
        <time>2023-02-26T08:31:56Z</time>
      </trkpt>
      <trkpt lat="38.371921" lon="-1.769172">
        <ele>346.7</ele>
        <time>2023-02-26T08:32:05Z</time>
      </trkpt>
      <trkpt lat="38.371986" lon="-1.769200">
        <ele>348.6</ele>
        <time>2023-02-26T08:32:10Z</time>
      </trkpt>
      <trkpt lat="38.372051" lon="-1.769225">
        <ele>349.5</ele>
        <time>2023-02-26T08:32:14Z</time>
      </trkpt>
      <trkpt lat="38.372119" lon="-1.769244">
        <ele>349.6</ele>
        <time>2023-02-26T08:32:20Z</time>
      </trkpt>
      <trkpt lat="38.372187" lon="-1.769264">
        <ele>348.6</ele>
        <time>2023-02-26T08:32:25Z</time>
      </trkpt>
      <trkpt lat="38.372248" lon="-1.769284">
        <ele>349.6</ele>
        <time>2023-02-26T08:32:30Z</time>
      </trkpt>
      <trkpt lat="38.372311" lon="-1.769321">
        <ele>350.6</ele>
        <time>2023-02-26T08:32:36Z</time>
      </trkpt>
      <trkpt lat="38.372374" lon="-1.769362">
        <ele>349.6</ele>
        <time>2023-02-26T08:32:41Z</time>
      </trkpt>
      <trkpt lat="38.372439" lon="-1.769385">
        <ele>351.5</ele>
        <time>2023-02-26T08:32:45Z</time>
      </trkpt>
      <trkpt lat="38.372508" lon="-1.769395">
        <ele>350.6</ele>
        <time>2023-02-26T08:32:50Z</time>
      </trkpt>
      <trkpt lat="38.372571" lon="-1.769426">
        <ele>350.6</ele>
        <time>2023-02-26T08:32:55Z</time>
      </trkpt>
      <trkpt lat="38.372620" lon="-1.769484">
        <ele>349.6</ele>
        <time>2023-02-26T08:33:00Z</time>
      </trkpt>
      <trkpt lat="38.372669" lon="-1.769543">
        <ele>349.6</ele>
        <time>2023-02-26T08:33:04Z</time>
      </trkpt>
      <trkpt lat="38.372727" lon="-1.769578">
        <ele>349.6</ele>
        <time>2023-02-26T08:33:10Z</time>
      </trkpt>
      <trkpt lat="38.372788" lon="-1.769602">
        <ele>350.6</ele>
        <time>2023-02-26T08:33:15Z</time>
      </trkpt>
      <trkpt lat="38.372851" lon="-1.769625">
        <ele>350.9</ele>
        <time>2023-02-26T08:33:21Z</time>
      </trkpt>
      <trkpt lat="38.372917" lon="-1.769625">
        <ele>351.5</ele>
        <time>2023-02-26T08:33:27Z</time>
      </trkpt>
      <trkpt lat="38.372986" lon="-1.769631">
        <ele>352.6</ele>
        <time>2023-02-26T08:33:32Z</time>
      </trkpt>
      <trkpt lat="38.373052" lon="-1.769641">
        <ele>351.6</ele>
        <time>2023-02-26T08:33:37Z</time>
      </trkpt>
      <trkpt lat="38.373118" lon="-1.769653">
        <ele>352.6</ele>
        <time>2023-02-26T08:33:42Z</time>
      </trkpt>
      <trkpt lat="38.373182" lon="-1.769666">
        <ele>350.6</ele>
        <time>2023-02-26T08:33:49Z</time>
      </trkpt>
      <trkpt lat="38.373248" lon="-1.769682">
        <ele>350.6</ele>
        <time>2023-02-26T08:33:54Z</time>
      </trkpt>
      <trkpt lat="38.373308" lon="-1.769728">
        <ele>352.5</ele>
        <time>2023-02-26T08:34:01Z</time>
      </trkpt>
      <trkpt lat="38.373373" lon="-1.769752">
        <ele>351.6</ele>
        <time>2023-02-26T08:34:05Z</time>
      </trkpt>
      <trkpt lat="38.373436" lon="-1.769768">
        <ele>352.6</ele>
        <time>2023-02-26T08:34:08Z</time>
      </trkpt>
      <trkpt lat="38.373501" lon="-1.769765">
        <ele>354.4</ele>
        <time>2023-02-26T08:34:12Z</time>
      </trkpt>
      <trkpt lat="38.373566" lon="-1.769761">
        <ele>355.6</ele>
        <time>2023-02-26T08:34:17Z</time>
      </trkpt>
      <trkpt lat="38.373631" lon="-1.769777">
        <ele>357.6</ele>
        <time>2023-02-26T08:34:23Z</time>
      </trkpt>
      <trkpt lat="38.373699" lon="-1.769788">
        <ele>358.7</ele>
        <time>2023-02-26T08:34:29Z</time>
      </trkpt>
      <trkpt lat="38.373762" lon="-1.769771">
        <ele>357.6</ele>
        <time>2023-02-26T08:34:32Z</time>
      </trkpt>
      <trkpt lat="38.373825" lon="-1.769757">
        <ele>357.9</ele>
        <time>2023-02-26T08:34:37Z</time>
      </trkpt>
      <trkpt lat="38.373878" lon="-1.769777">
        <ele>356.6</ele>
        <time>2023-02-26T08:34:41Z</time>
      </trkpt>
      <trkpt lat="38.373928" lon="-1.769771">
        <ele>355.6</ele>
        <time>2023-02-26T08:34:47Z</time>
      </trkpt>
      <trkpt lat="38.374006" lon="-1.769808">
        <ele>363.6</ele>
        <time>2023-02-26T08:35:22Z</time>
      </trkpt>
      <trkpt lat="38.374039" lon="-1.769814">
        <ele>362.7</ele>
        <time>2023-02-26T08:35:26Z</time>
      </trkpt>
      <trkpt lat="38.374096" lon="-1.769841">
        <ele>360.7</ele>
        <time>2023-02-26T08:35:29Z</time>
      </trkpt>
      <trkpt lat="38.374160" lon="-1.769869">
        <ele>359.6</ele>
        <time>2023-02-26T08:35:33Z</time>
      </trkpt>
      <trkpt lat="38.374226" lon="-1.769889">
        <ele>358.6</ele>
        <time>2023-02-26T08:35:38Z</time>
      </trkpt>
      <trkpt lat="38.374295" lon="-1.769900">
        <ele>359.6</ele>
        <time>2023-02-26T08:35:44Z</time>
      </trkpt>
      <trkpt lat="38.374364" lon="-1.769915">
        <ele>356.6</ele>
        <time>2023-02-26T08:35:54Z</time>
      </trkpt>
      <trkpt lat="38.374432" lon="-1.769925">
        <ele>355.7</ele>
        <time>2023-02-26T08:35:59Z</time>
      </trkpt>
      <trkpt lat="38.374496" lon="-1.769944">
        <ele>355.7</ele>
        <time>2023-02-26T08:36:05Z</time>
      </trkpt>
      <trkpt lat="38.374563" lon="-1.769928">
        <ele>353.6</ele>
        <time>2023-02-26T08:36:11Z</time>
      </trkpt>
      <trkpt lat="38.374630" lon="-1.769916">
        <ele>352.6</ele>
        <time>2023-02-26T08:36:17Z</time>
      </trkpt>
      <trkpt lat="38.374695" lon="-1.769915">
        <ele>353.6</ele>
        <time>2023-02-26T08:36:22Z</time>
      </trkpt>
      <trkpt lat="38.374756" lon="-1.769949">
        <ele>352.6</ele>
        <time>2023-02-26T08:36:26Z</time>
      </trkpt>
      <trkpt lat="38.374822" lon="-1.769959">
        <ele>354.6</ele>
        <time>2023-02-26T08:36:32Z</time>
      </trkpt>
      <trkpt lat="38.374888" lon="-1.769980">
        <ele>352.6</ele>
        <time>2023-02-26T08:36:37Z</time>
      </trkpt>
      <trkpt lat="38.374950" lon="-1.769995">
        <ele>353.4</ele>
        <time>2023-02-26T08:36:41Z</time>
      </trkpt>
      <trkpt lat="38.375014" lon="-1.770007">
        <ele>352.7</ele>
        <time>2023-02-26T08:36:46Z</time>
      </trkpt>
      <trkpt lat="38.375079" lon="-1.770019">
        <ele>353.6</ele>
        <time>2023-02-26T08:36:51Z</time>
      </trkpt>
      <trkpt lat="38.375148" lon="-1.770032">
        <ele>352.7</ele>
        <time>2023-02-26T08:36:56Z</time>
      </trkpt>
      <trkpt lat="38.375211" lon="-1.770051">
        <ele>353.6</ele>
        <time>2023-02-26T08:37:00Z</time>
      </trkpt>
      <trkpt lat="38.375269" lon="-1.770085">
        <ele>355.5</ele>
        <time>2023-02-26T08:37:06Z</time>
      </trkpt>
      <trkpt lat="38.375339" lon="-1.770066">
        <ele>353.8</ele>
        <time>2023-02-26T08:38:22Z</time>
      </trkpt>
      <trkpt lat="38.375406" lon="-1.770052">
        <ele>353.6</ele>
        <time>2023-02-26T08:38:26Z</time>
      </trkpt>
      <trkpt lat="38.375470" lon="-1.770048">
        <ele>352.6</ele>
        <time>2023-02-26T08:38:31Z</time>
      </trkpt>
      <trkpt lat="38.375540" lon="-1.770039">
        <ele>351.7</ele>
        <time>2023-02-26T08:38:36Z</time>
      </trkpt>
      <trkpt lat="38.375612" lon="-1.770049">
        <ele>352.5</ele>
        <time>2023-02-26T08:38:41Z</time>
      </trkpt>
      <trkpt lat="38.375676" lon="-1.770079">
        <ele>349.7</ele>
        <time>2023-02-26T08:38:45Z</time>
      </trkpt>
      <trkpt lat="38.375739" lon="-1.770106">
        <ele>350.4</ele>
        <time>2023-02-26T08:39:01Z</time>
      </trkpt>
      <trkpt lat="38.375814" lon="-1.770119">
        <ele>350.6</ele>
        <time>2023-02-26T08:39:05Z</time>
      </trkpt>
      <trkpt lat="38.375884" lon="-1.770113">
        <ele>351.6</ele>
        <time>2023-02-26T08:39:09Z</time>
      </trkpt>
      <trkpt lat="38.375952" lon="-1.770103">
        <ele>351.6</ele>
        <time>2023-02-26T08:39:14Z</time>
      </trkpt>
      <trkpt lat="38.376018" lon="-1.770110">
        <ele>350.6</ele>
        <time>2023-02-26T08:39:19Z</time>
      </trkpt>
      <trkpt lat="38.376086" lon="-1.770137">
        <ele>348.6</ele>
        <time>2023-02-26T08:39:34Z</time>
      </trkpt>
      <trkpt lat="38.376154" lon="-1.770126">
        <ele>347.6</ele>
        <time>2023-02-26T08:39:39Z</time>
      </trkpt>
      <trkpt lat="38.376217" lon="-1.770093">
        <ele>348.6</ele>
        <time>2023-02-26T08:39:44Z</time>
      </trkpt>
      <trkpt lat="38.376283" lon="-1.770070">
        <ele>347.6</ele>
        <time>2023-02-26T08:39:48Z</time>
      </trkpt>
      <trkpt lat="38.376343" lon="-1.770037">
        <ele>347.6</ele>
        <time>2023-02-26T08:39:53Z</time>
      </trkpt>
      <trkpt lat="38.376395" lon="-1.769986">
        <ele>346.6</ele>
        <time>2023-02-26T08:39:58Z</time>
      </trkpt>
      <trkpt lat="38.376519" lon="-1.769887">
        <ele>349.6</ele>
        <time>2023-02-26T08:40:52Z</time>
      </trkpt>
      <trkpt lat="38.376579" lon="-1.769858">
        <ele>348.6</ele>
        <time>2023-02-26T08:40:55Z</time>
      </trkpt>
      <trkpt lat="38.376625" lon="-1.769789">
        <ele>346.6</ele>
        <time>2023-02-26T08:41:00Z</time>
      </trkpt>
      <trkpt lat="38.376680" lon="-1.769730">
        <ele>347.6</ele>
        <time>2023-02-26T08:41:05Z</time>
      </trkpt>
      <trkpt lat="38.376733" lon="-1.769673">
        <ele>348.6</ele>
        <time>2023-02-26T08:41:09Z</time>
      </trkpt>
      <trkpt lat="38.376780" lon="-1.769613">
        <ele>348.6</ele>
        <time>2023-02-26T08:41:13Z</time>
      </trkpt>
      <trkpt lat="38.376835" lon="-1.769563">
        <ele>349.4</ele>
        <time>2023-02-26T08:41:18Z</time>
      </trkpt>
      <trkpt lat="38.376878" lon="-1.769501">
        <ele>349.6</ele>
        <time>2023-02-26T08:41:22Z</time>
      </trkpt>
      <trkpt lat="38.376923" lon="-1.769444">
        <ele>350.6</ele>
        <time>2023-02-26T08:41:26Z</time>
      </trkpt>
      <trkpt lat="38.376968" lon="-1.769377">
        <ele>351.4</ele>
        <time>2023-02-26T08:41:31Z</time>
      </trkpt>
      <trkpt lat="38.377004" lon="-1.769306">
        <ele>351.6</ele>
        <time>2023-02-26T08:41:35Z</time>
      </trkpt>
      <trkpt lat="38.377046" lon="-1.769238">
        <ele>351.6</ele>
        <time>2023-02-26T08:41:39Z</time>
      </trkpt>
      <trkpt lat="38.377080" lon="-1.769166">
        <ele>352.4</ele>
        <time>2023-02-26T08:41:43Z</time>
      </trkpt>
      <trkpt lat="38.377115" lon="-1.769100">
        <ele>351.6</ele>
        <time>2023-02-26T08:41:47Z</time>
      </trkpt>
      <trkpt lat="38.377151" lon="-1.769024">
        <ele>351.6</ele>
        <time>2023-02-26T08:41:52Z</time>
      </trkpt>
      <trkpt lat="38.377192" lon="-1.768949">
        <ele>351.6</ele>
        <time>2023-02-26T08:41:56Z</time>
      </trkpt>
      <trkpt lat="38.377228" lon="-1.768884">
        <ele>351.6</ele>
        <time>2023-02-26T08:42:01Z</time>
      </trkpt>
      <trkpt lat="38.377249" lon="-1.768804">
        <ele>351.6</ele>
        <time>2023-02-26T08:42:11Z</time>
      </trkpt>
      <trkpt lat="38.377289" lon="-1.768732">
        <ele>352.6</ele>
        <time>2023-02-26T08:42:16Z</time>
      </trkpt>
      <trkpt lat="38.377333" lon="-1.768669">
        <ele>350.6</ele>
        <time>2023-02-26T08:42:21Z</time>
      </trkpt>
      <trkpt lat="38.377364" lon="-1.768596">
        <ele>348.6</ele>
        <time>2023-02-26T08:42:25Z</time>
      </trkpt>
      <trkpt lat="38.377405" lon="-1.768524">
        <ele>349.6</ele>
        <time>2023-02-26T08:42:30Z</time>
      </trkpt>
      <trkpt lat="38.377448" lon="-1.768462">
        <ele>350.6</ele>
        <time>2023-02-26T08:42:34Z</time>
      </trkpt>
      <trkpt lat="38.377473" lon="-1.768387">
        <ele>349.6</ele>
        <time>2023-02-26T08:42:39Z</time>
      </trkpt>
      <trkpt lat="38.377506" lon="-1.768314">
        <ele>350.4</ele>
        <time>2023-02-26T08:42:43Z</time>
      </trkpt>
      <trkpt lat="38.377542" lon="-1.768242">
        <ele>351.6</ele>
        <time>2023-02-26T08:42:48Z</time>
      </trkpt>
      <trkpt lat="38.377576" lon="-1.768169">
        <ele>352.6</ele>
        <time>2023-02-26T08:42:52Z</time>
      </trkpt>
      <trkpt lat="38.377614" lon="-1.768104">
        <ele>352.6</ele>
        <time>2023-02-26T08:42:57Z</time>
      </trkpt>
      <trkpt lat="38.377653" lon="-1.768026">
        <ele>353.5</ele>
        <time>2023-02-26T08:43:01Z</time>
      </trkpt>
      <trkpt lat="38.377700" lon="-1.767954">
        <ele>352.6</ele>
        <time>2023-02-26T08:43:06Z</time>
      </trkpt>
      <trkpt lat="38.377748" lon="-1.767900">
        <ele>352.6</ele>
        <time>2023-02-26T08:43:11Z</time>
      </trkpt>
      <trkpt lat="38.377792" lon="-1.767836">
        <ele>353.6</ele>
        <time>2023-02-26T08:43:15Z</time>
      </trkpt>
      <trkpt lat="38.377831" lon="-1.767770">
        <ele>353.6</ele>
        <time>2023-02-26T08:43:19Z</time>
      </trkpt>
      <trkpt lat="38.377870" lon="-1.767702">
        <ele>353.6</ele>
        <time>2023-02-26T08:43:24Z</time>
      </trkpt>
      <trkpt lat="38.377896" lon="-1.767623">
        <ele>353.6</ele>
        <time>2023-02-26T08:43:28Z</time>
      </trkpt>
      <trkpt lat="38.377929" lon="-1.767545">
        <ele>353.6</ele>
        <time>2023-02-26T08:43:33Z</time>
      </trkpt>
      <trkpt lat="38.377949" lon="-1.767468">
        <ele>353.6</ele>
        <time>2023-02-26T08:43:37Z</time>
      </trkpt>
      <trkpt lat="38.377968" lon="-1.767390">
        <ele>353.6</ele>
        <time>2023-02-26T08:43:41Z</time>
      </trkpt>
      <trkpt lat="38.377974" lon="-1.767300">
        <ele>352.5</ele>
        <time>2023-02-26T08:43:46Z</time>
      </trkpt>
      <trkpt lat="38.377988" lon="-1.767212">
        <ele>351.6</ele>
        <time>2023-02-26T08:43:51Z</time>
      </trkpt>
      <trkpt lat="38.377998" lon="-1.767124">
        <ele>351.6</ele>
        <time>2023-02-26T08:43:56Z</time>
      </trkpt>
      <trkpt lat="38.378005" lon="-1.767038">
        <ele>351.6</ele>
        <time>2023-02-26T08:44:01Z</time>
      </trkpt>
      <trkpt lat="38.378014" lon="-1.766950">
        <ele>352.6</ele>
        <time>2023-02-26T08:44:05Z</time>
      </trkpt>
      <trkpt lat="38.378016" lon="-1.766868">
        <ele>352.6</ele>
        <time>2023-02-26T08:44:10Z</time>
      </trkpt>
      <trkpt lat="38.378021" lon="-1.766782">
        <ele>353.6</ele>
        <time>2023-02-26T08:44:15Z</time>
      </trkpt>
      <trkpt lat="38.378009" lon="-1.766690">
        <ele>354.6</ele>
        <time>2023-02-26T08:44:20Z</time>
      </trkpt>
      <trkpt lat="38.377999" lon="-1.766606">
        <ele>355.5</ele>
        <time>2023-02-26T08:44:24Z</time>
      </trkpt>
      <trkpt lat="38.377993" lon="-1.766522">
        <ele>356.4</ele>
        <time>2023-02-26T08:44:29Z</time>
      </trkpt>
      <trkpt lat="38.377977" lon="-1.766433">
        <ele>357.6</ele>
        <time>2023-02-26T08:44:33Z</time>
      </trkpt>
      <trkpt lat="38.377959" lon="-1.766353">
        <ele>358.6</ele>
        <time>2023-02-26T08:44:38Z</time>
      </trkpt>
      <trkpt lat="38.377938" lon="-1.766268">
        <ele>358.6</ele>
        <time>2023-02-26T08:44:42Z</time>
      </trkpt>
      <trkpt lat="38.377920" lon="-1.766190">
        <ele>358.6</ele>
        <time>2023-02-26T08:44:47Z</time>
      </trkpt>
      <trkpt lat="38.377905" lon="-1.766105">
        <ele>357.6</ele>
        <time>2023-02-26T08:44:52Z</time>
      </trkpt>
      <trkpt lat="38.377879" lon="-1.766026">
        <ele>358.6</ele>
        <time>2023-02-26T08:44:57Z</time>
      </trkpt>
      <trkpt lat="38.377832" lon="-1.765960">
        <ele>357.6</ele>
        <time>2023-02-26T08:45:01Z</time>
      </trkpt>
      <trkpt lat="38.377793" lon="-1.765896">
        <ele>358.6</ele>
        <time>2023-02-26T08:45:05Z</time>
      </trkpt>
      <trkpt lat="38.377772" lon="-1.765820">
        <ele>359.6</ele>
        <time>2023-02-26T08:45:09Z</time>
      </trkpt>
      <trkpt lat="38.377757" lon="-1.765737">
        <ele>359.6</ele>
        <time>2023-02-26T08:45:13Z</time>
      </trkpt>
      <trkpt lat="38.377755" lon="-1.765645">
        <ele>360.6</ele>
        <time>2023-02-26T08:45:18Z</time>
      </trkpt>
      <trkpt lat="38.377750" lon="-1.765563">
        <ele>360.6</ele>
        <time>2023-02-26T08:45:23Z</time>
      </trkpt>
      <trkpt lat="38.377744" lon="-1.765475">
        <ele>360.6</ele>
        <time>2023-02-26T08:45:27Z</time>
      </trkpt>
      <trkpt lat="38.377733" lon="-1.765393">
        <ele>359.6</ele>
        <time>2023-02-26T08:45:32Z</time>
      </trkpt>
      <trkpt lat="38.377716" lon="-1.765305">
        <ele>357.6</ele>
        <time>2023-02-26T08:45:36Z</time>
      </trkpt>
      <trkpt lat="38.377689" lon="-1.765228">
        <ele>356.6</ele>
        <time>2023-02-26T08:45:41Z</time>
      </trkpt>
      <trkpt lat="38.377667" lon="-1.765147">
        <ele>355.6</ele>
        <time>2023-02-26T08:45:45Z</time>
      </trkpt>
      <trkpt lat="38.377646" lon="-1.765066">
        <ele>355.6</ele>
        <time>2023-02-26T08:45:50Z</time>
      </trkpt>
      <trkpt lat="38.377631" lon="-1.764976">
        <ele>358.5</ele>
        <time>2023-02-26T08:45:54Z</time>
      </trkpt>
      <trkpt lat="38.377636" lon="-1.764894">
        <ele>357.9</ele>
        <time>2023-02-26T08:45:59Z</time>
      </trkpt>
      <trkpt lat="38.377659" lon="-1.764815">
        <ele>358.4</ele>
        <time>2023-02-26T08:46:03Z</time>
      </trkpt>
      <trkpt lat="38.377691" lon="-1.764727">
        <ele>358.6</ele>
        <time>2023-02-26T08:46:08Z</time>
      </trkpt>
      <trkpt lat="38.377710" lon="-1.764640">
        <ele>356.6</ele>
        <time>2023-02-26T08:46:13Z</time>
      </trkpt>
      <trkpt lat="38.377710" lon="-1.764552">
        <ele>355.6</ele>
        <time>2023-02-26T08:46:17Z</time>
      </trkpt>
      <trkpt lat="38.377720" lon="-1.764467">
        <ele>355.6</ele>
        <time>2023-02-26T08:46:22Z</time>
      </trkpt>
      <trkpt lat="38.377707" lon="-1.764385">
        <ele>355.6</ele>
        <time>2023-02-26T08:46:26Z</time>
      </trkpt>
      <trkpt lat="38.377697" lon="-1.764301">
        <ele>354.6</ele>
        <time>2023-02-26T08:46:30Z</time>
      </trkpt>
      <trkpt lat="38.377681" lon="-1.764222">
        <ele>353.6</ele>
        <time>2023-02-26T08:46:35Z</time>
      </trkpt>
      <trkpt lat="38.377659" lon="-1.764139">
        <ele>353.6</ele>
        <time>2023-02-26T08:46:40Z</time>
      </trkpt>
      <trkpt lat="38.377627" lon="-1.764064">
        <ele>353.6</ele>
        <time>2023-02-26T08:46:44Z</time>
      </trkpt>
      <trkpt lat="38.377589" lon="-1.763989">
        <ele>353.6</ele>
        <time>2023-02-26T08:46:49Z</time>
      </trkpt>
      <trkpt lat="38.377548" lon="-1.763918">
        <ele>354.6</ele>
        <time>2023-02-26T08:46:54Z</time>
      </trkpt>
      <trkpt lat="38.377516" lon="-1.763845">
        <ele>354.6</ele>
        <time>2023-02-26T08:46:58Z</time>
      </trkpt>
      <trkpt lat="38.377480" lon="-1.763779">
        <ele>354.6</ele>
        <time>2023-02-26T08:47:03Z</time>
      </trkpt>
      <trkpt lat="38.377427" lon="-1.763730">
        <ele>354.6</ele>
        <time>2023-02-26T08:47:19Z</time>
      </trkpt>
      <trkpt lat="38.377381" lon="-1.763672">
        <ele>356.5</ele>
        <time>2023-02-26T08:47:23Z</time>
      </trkpt>
      <trkpt lat="38.377342" lon="-1.763603">
        <ele>356.6</ele>
        <time>2023-02-26T08:47:27Z</time>
      </trkpt>
      <trkpt lat="38.377313" lon="-1.763529">
        <ele>356.6</ele>
        <time>2023-02-26T08:47:30Z</time>
      </trkpt>
      <trkpt lat="38.377293" lon="-1.763452">
        <ele>354.9</ele>
        <time>2023-02-26T08:47:35Z</time>
      </trkpt>
      <trkpt lat="38.377274" lon="-1.763371">
        <ele>350.6</ele>
        <time>2023-02-26T08:47:54Z</time>
      </trkpt>
      <trkpt lat="38.377269" lon="-1.763290">
        <ele>348.9</ele>
        <time>2023-02-26T08:47:59Z</time>
      </trkpt>
      <trkpt lat="38.377263" lon="-1.763210">
        <ele>347.7</ele>
        <time>2023-02-26T08:48:03Z</time>
      </trkpt>
      <trkpt lat="38.377252" lon="-1.763122">
        <ele>348.6</ele>
        <time>2023-02-26T08:48:08Z</time>
      </trkpt>
      <trkpt lat="38.377224" lon="-1.763039">
        <ele>348.6</ele>
        <time>2023-02-26T08:48:14Z</time>
      </trkpt>
      <trkpt lat="38.377226" lon="-1.762956">
        <ele>347.6</ele>
        <time>2023-02-26T08:48:18Z</time>
      </trkpt>
      <trkpt lat="38.377249" lon="-1.762875">
        <ele>346.9</ele>
        <time>2023-02-26T08:48:23Z</time>
      </trkpt>
      <trkpt lat="38.377217" lon="-1.762787">
        <ele>346.9</ele>
        <time>2023-02-26T08:48:28Z</time>
      </trkpt>
      <trkpt lat="38.377210" lon="-1.762707">
        <ele>344.6</ele>
        <time>2023-02-26T08:48:32Z</time>
      </trkpt>
      <trkpt lat="38.377202" lon="-1.762610">
        <ele>344.6</ele>
        <time>2023-02-26T08:48:37Z</time>
      </trkpt>
      <trkpt lat="38.377180" lon="-1.762528">
        <ele>343.6</ele>
        <time>2023-02-26T08:48:42Z</time>
      </trkpt>
      <trkpt lat="38.377173" lon="-1.762440">
        <ele>343.6</ele>
        <time>2023-02-26T08:48:47Z</time>
      </trkpt>
      <trkpt lat="38.377166" lon="-1.762356">
        <ele>341.6</ele>
        <time>2023-02-26T08:48:51Z</time>
      </trkpt>
      <trkpt lat="38.377158" lon="-1.762271">
        <ele>345.3</ele>
        <time>2023-02-26T08:48:59Z</time>
      </trkpt>
      <trkpt lat="38.377170" lon="-1.762184">
        <ele>348.6</ele>
        <time>2023-02-26T08:49:13Z</time>
      </trkpt>
      <trkpt lat="38.377138" lon="-1.762106">
        <ele>348.6</ele>
        <time>2023-02-26T08:49:17Z</time>
      </trkpt>
      <trkpt lat="38.377138" lon="-1.762025">
        <ele>349.4</ele>
        <time>2023-02-26T08:49:21Z</time>
      </trkpt>
      <trkpt lat="38.377119" lon="-1.761937">
        <ele>348.4</ele>
        <time>2023-02-26T08:49:26Z</time>
      </trkpt>
      <trkpt lat="38.377094" lon="-1.761850">
        <ele>349.6</ele>
        <time>2023-02-26T08:49:33Z</time>
      </trkpt>
      <trkpt lat="38.377085" lon="-1.761769">
        <ele>347.6</ele>
        <time>2023-02-26T08:49:48Z</time>
      </trkpt>
      <trkpt lat="38.377061" lon="-1.761693">
        <ele>347.5</ele>
        <time>2023-02-26T08:49:59Z</time>
      </trkpt>
      <trkpt lat="38.377049" lon="-1.761611">
        <ele>347.6</ele>
        <time>2023-02-26T08:50:03Z</time>
      </trkpt>
      <trkpt lat="38.377023" lon="-1.761530">
        <ele>347.6</ele>
        <time>2023-02-26T08:50:07Z</time>
      </trkpt>
      <trkpt lat="38.376997" lon="-1.761446">
        <ele>347.6</ele>
        <time>2023-02-26T08:50:12Z</time>
      </trkpt>
      <trkpt lat="38.376988" lon="-1.761364">
        <ele>349.4</ele>
        <time>2023-02-26T08:50:17Z</time>
      </trkpt>
      <trkpt lat="38.376985" lon="-1.761279">
        <ele>347.6</ele>
        <time>2023-02-26T08:50:22Z</time>
      </trkpt>
      <trkpt lat="38.376985" lon="-1.761195">
        <ele>347.6</ele>
        <time>2023-02-26T08:50:28Z</time>
      </trkpt>
      <trkpt lat="38.376947" lon="-1.761129">
        <ele>346.6</ele>
        <time>2023-02-26T08:50:32Z</time>
      </trkpt>
      <trkpt lat="38.376907" lon="-1.761066">
        <ele>347.4</ele>
        <time>2023-02-26T08:50:37Z</time>
      </trkpt>
      <trkpt lat="38.376888" lon="-1.760985">
        <ele>346.9</ele>
        <time>2023-02-26T08:50:42Z</time>
      </trkpt>
      <trkpt lat="38.376856" lon="-1.760906">
        <ele>347.6</ele>
        <time>2023-02-26T08:50:47Z</time>
      </trkpt>
      <trkpt lat="38.376823" lon="-1.760831">
        <ele>347.6</ele>
        <time>2023-02-26T08:50:52Z</time>
      </trkpt>
      <trkpt lat="38.376787" lon="-1.760762">
        <ele>347.7</ele>
        <time>2023-02-26T08:50:57Z</time>
      </trkpt>
      <trkpt lat="38.376758" lon="-1.760687">
        <ele>348.6</ele>
        <time>2023-02-26T08:51:01Z</time>
      </trkpt>
      <trkpt lat="38.376706" lon="-1.760632">
        <ele>347.6</ele>
        <time>2023-02-26T08:51:06Z</time>
      </trkpt>
      <trkpt lat="38.376676" lon="-1.760554">
        <ele>347.6</ele>
        <time>2023-02-26T08:51:12Z</time>
      </trkpt>
      <trkpt lat="38.376635" lon="-1.760485">
        <ele>347.6</ele>
        <time>2023-02-26T08:51:16Z</time>
      </trkpt>
      <trkpt lat="38.376598" lon="-1.760411">
        <ele>348.4</ele>
        <time>2023-02-26T08:51:21Z</time>
      </trkpt>
      <trkpt lat="38.376556" lon="-1.760348">
        <ele>349.6</ele>
        <time>2023-02-26T08:51:26Z</time>
      </trkpt>
      <trkpt lat="38.376511" lon="-1.760283">
        <ele>348.6</ele>
        <time>2023-02-26T08:51:30Z</time>
      </trkpt>
      <trkpt lat="38.376462" lon="-1.760218">
        <ele>347.6</ele>
        <time>2023-02-26T08:51:35Z</time>
      </trkpt>
      <trkpt lat="38.376425" lon="-1.760144">
        <ele>346.6</ele>
        <time>2023-02-26T08:51:40Z</time>
      </trkpt>
      <trkpt lat="38.376381" lon="-1.760069">
        <ele>348.6</ele>
        <time>2023-02-26T08:51:45Z</time>
      </trkpt>
      <trkpt lat="38.376338" lon="-1.760006">
        <ele>347.6</ele>
        <time>2023-02-26T08:51:50Z</time>
      </trkpt>
      <trkpt lat="38.376290" lon="-1.759948">
        <ele>348.6</ele>
        <time>2023-02-26T08:51:56Z</time>
      </trkpt>
      <trkpt lat="38.376252" lon="-1.759879">
        <ele>348.6</ele>
        <time>2023-02-26T08:52:00Z</time>
      </trkpt>
      <trkpt lat="38.376217" lon="-1.759805">
        <ele>349.6</ele>
        <time>2023-02-26T08:52:05Z</time>
      </trkpt>
      <trkpt lat="38.376184" lon="-1.759734">
        <ele>349.6</ele>
        <time>2023-02-26T08:52:09Z</time>
      </trkpt>
      <trkpt lat="38.376139" lon="-1.759671">
        <ele>348.9</ele>
        <time>2023-02-26T08:52:13Z</time>
      </trkpt>
      <trkpt lat="38.376098" lon="-1.759603">
        <ele>349.6</ele>
        <time>2023-02-26T08:52:18Z</time>
      </trkpt>
      <trkpt lat="38.376060" lon="-1.759531">
        <ele>349.9</ele>
        <time>2023-02-26T08:52:23Z</time>
      </trkpt>
      <trkpt lat="38.376021" lon="-1.759460">
        <ele>350.6</ele>
        <time>2023-02-26T08:52:27Z</time>
      </trkpt>
      <trkpt lat="38.375984" lon="-1.759389">
        <ele>348.6</ele>
        <time>2023-02-26T08:52:32Z</time>
      </trkpt>
      <trkpt lat="38.375945" lon="-1.759320">
        <ele>349.6</ele>
        <time>2023-02-26T08:52:37Z</time>
      </trkpt>
      <trkpt lat="38.375904" lon="-1.759256">
        <ele>349.6</ele>
        <time>2023-02-26T08:52:42Z</time>
      </trkpt>
      <trkpt lat="38.375858" lon="-1.759197">
        <ele>349.6</ele>
        <time>2023-02-26T08:52:47Z</time>
      </trkpt>
      <trkpt lat="38.375814" lon="-1.759135">
        <ele>349.6</ele>
        <time>2023-02-26T08:52:52Z</time>
      </trkpt>
      <trkpt lat="38.375773" lon="-1.759071">
        <ele>348.6</ele>
        <time>2023-02-26T08:52:57Z</time>
      </trkpt>
      <trkpt lat="38.375719" lon="-1.759017">
        <ele>348.4</ele>
        <time>2023-02-26T08:53:02Z</time>
      </trkpt>
      <trkpt lat="38.375669" lon="-1.758961">
        <ele>347.9</ele>
        <time>2023-02-26T08:53:06Z</time>
      </trkpt>
      <trkpt lat="38.375621" lon="-1.758902">
        <ele>347.9</ele>
        <time>2023-02-26T08:53:11Z</time>
      </trkpt>
      <trkpt lat="38.375573" lon="-1.758845">
        <ele>347.6</ele>
        <time>2023-02-26T08:53:16Z</time>
      </trkpt>
      <trkpt lat="38.375521" lon="-1.758795">
        <ele>348.6</ele>
        <time>2023-02-26T08:53:21Z</time>
      </trkpt>
      <trkpt lat="38.375468" lon="-1.758751">
        <ele>348.6</ele>
        <time>2023-02-26T08:53:27Z</time>
      </trkpt>
      <trkpt lat="38.375418" lon="-1.758692">
        <ele>348.4</ele>
        <time>2023-02-26T08:53:32Z</time>
      </trkpt>
      <trkpt lat="38.375372" lon="-1.758637">
        <ele>348.6</ele>
        <time>2023-02-26T08:53:37Z</time>
      </trkpt>
      <trkpt lat="38.375320" lon="-1.758590">
        <ele>348.6</ele>
        <time>2023-02-26T08:53:42Z</time>
      </trkpt>
      <trkpt lat="38.375261" lon="-1.758551">
        <ele>347.6</ele>
        <time>2023-02-26T08:53:47Z</time>
      </trkpt>
      <trkpt lat="38.375211" lon="-1.758498">
        <ele>349.6</ele>
        <time>2023-02-26T08:53:52Z</time>
      </trkpt>
      <trkpt lat="38.375161" lon="-1.758445">
        <ele>349.6</ele>
        <time>2023-02-26T08:53:57Z</time>
      </trkpt>
      <trkpt lat="38.375109" lon="-1.758392">
        <ele>349.6</ele>
        <time>2023-02-26T08:54:02Z</time>
      </trkpt>
      <trkpt lat="38.375047" lon="-1.758354">
        <ele>348.6</ele>
        <time>2023-02-26T08:54:07Z</time>
      </trkpt>
      <trkpt lat="38.374996" lon="-1.758304">
        <ele>348.6</ele>
        <time>2023-02-26T08:54:12Z</time>
      </trkpt>
      <trkpt lat="38.374943" lon="-1.758255">
        <ele>348.6</ele>
        <time>2023-02-26T08:54:17Z</time>
      </trkpt>
      <trkpt lat="38.374888" lon="-1.758214">
        <ele>348.6</ele>
        <time>2023-02-26T08:54:22Z</time>
      </trkpt>
      <trkpt lat="38.374830" lon="-1.758167">
        <ele>346.7</ele>
        <time>2023-02-26T08:54:27Z</time>
      </trkpt>
      <trkpt lat="38.374780" lon="-1.758111">
        <ele>345.6</ele>
        <time>2023-02-26T08:54:34Z</time>
      </trkpt>
      <trkpt lat="38.374725" lon="-1.758072">
        <ele>346.6</ele>
        <time>2023-02-26T08:54:39Z</time>
      </trkpt>
      <trkpt lat="38.374663" lon="-1.758050">
        <ele>346.6</ele>
        <time>2023-02-26T08:54:44Z</time>
      </trkpt>
      <trkpt lat="38.374614" lon="-1.757999">
        <ele>346.6</ele>
        <time>2023-02-26T08:54:48Z</time>
      </trkpt>
      <trkpt lat="38.374559" lon="-1.757945">
        <ele>347.4</ele>
        <time>2023-02-26T08:54:53Z</time>
      </trkpt>
      <trkpt lat="38.374505" lon="-1.757893">
        <ele>346.7</ele>
        <time>2023-02-26T08:54:58Z</time>
      </trkpt>
      <trkpt lat="38.374453" lon="-1.757841">
        <ele>346.6</ele>
        <time>2023-02-26T08:55:03Z</time>
      </trkpt>
      <trkpt lat="38.374403" lon="-1.757790">
        <ele>347.6</ele>
        <time>2023-02-26T08:55:07Z</time>
      </trkpt>
      <trkpt lat="38.374344" lon="-1.757753">
        <ele>347.6</ele>
        <time>2023-02-26T08:55:12Z</time>
      </trkpt>
      <trkpt lat="38.374291" lon="-1.757698">
        <ele>345.6</ele>
        <time>2023-02-26T08:55:17Z</time>
      </trkpt>
      <trkpt lat="38.374238" lon="-1.757648">
        <ele>344.6</ele>
        <time>2023-02-26T08:55:22Z</time>
      </trkpt>
      <trkpt lat="38.374183" lon="-1.757605">
        <ele>343.6</ele>
        <time>2023-02-26T08:55:28Z</time>
      </trkpt>
      <trkpt lat="38.374119" lon="-1.757563">
        <ele>342.6</ele>
        <time>2023-02-26T08:55:34Z</time>
      </trkpt>
      <trkpt lat="38.374076" lon="-1.757495">
        <ele>342.6</ele>
        <time>2023-02-26T08:55:39Z</time>
      </trkpt>
      <trkpt lat="38.374025" lon="-1.757445">
        <ele>341.6</ele>
        <time>2023-02-26T08:55:44Z</time>
      </trkpt>
      <trkpt lat="38.373994" lon="-1.757374">
        <ele>342.6</ele>
        <time>2023-02-26T08:55:52Z</time>
      </trkpt>
      <trkpt lat="38.373944" lon="-1.757324">
        <ele>341.6</ele>
        <time>2023-02-26T08:55:56Z</time>
      </trkpt>
      <trkpt lat="38.373877" lon="-1.757321">
        <ele>343.3</ele>
        <time>2023-02-26T08:56:00Z</time>
      </trkpt>
      <trkpt lat="38.373810" lon="-1.757308">
        <ele>343.6</ele>
        <time>2023-02-26T08:56:05Z</time>
      </trkpt>
      <trkpt lat="38.373759" lon="-1.757257">
        <ele>342.6</ele>
        <time>2023-02-26T08:56:10Z</time>
      </trkpt>
      <trkpt lat="38.373727" lon="-1.757183">
        <ele>342.6</ele>
        <time>2023-02-26T08:56:14Z</time>
      </trkpt>
      <trkpt lat="38.373672" lon="-1.757136">
        <ele>341.6</ele>
        <time>2023-02-26T08:56:19Z</time>
      </trkpt>
      <trkpt lat="38.373613" lon="-1.757094">
        <ele>339.7</ele>
        <time>2023-02-26T08:56:24Z</time>
      </trkpt>
      <trkpt lat="38.373570" lon="-1.757033">
        <ele>339.6</ele>
        <time>2023-02-26T08:56:30Z</time>
      </trkpt>
      <trkpt lat="38.373511" lon="-1.756984">
        <ele>338.7</ele>
        <time>2023-02-26T08:56:34Z</time>
      </trkpt>
      <trkpt lat="38.373457" lon="-1.756937">
        <ele>338.4</ele>
        <time>2023-02-26T08:56:39Z</time>
      </trkpt>
      <trkpt lat="38.373406" lon="-1.756885">
        <ele>338.6</ele>
        <time>2023-02-26T08:56:43Z</time>
      </trkpt>
      <trkpt lat="38.373353" lon="-1.756840">
        <ele>339.6</ele>
        <time>2023-02-26T08:56:48Z</time>
      </trkpt>
      <trkpt lat="38.373295" lon="-1.756783">
        <ele>341.6</ele>
        <time>2023-02-26T08:56:53Z</time>
      </trkpt>
      <trkpt lat="38.373235" lon="-1.756741">
        <ele>341.6</ele>
        <time>2023-02-26T08:56:58Z</time>
      </trkpt>
      <trkpt lat="38.373176" lon="-1.756708">
        <ele>343.6</ele>
        <time>2023-02-26T08:57:03Z</time>
      </trkpt>
      <trkpt lat="38.373132" lon="-1.756641">
        <ele>344.4</ele>
        <time>2023-02-26T08:57:10Z</time>
      </trkpt>
      <trkpt lat="38.373064" lon="-1.756652">
        <ele>344.6</ele>
        <time>2023-02-26T08:57:16Z</time>
      </trkpt>
      <trkpt lat="38.373014" lon="-1.756600">
        <ele>344.6</ele>
        <time>2023-02-26T08:57:23Z</time>
      </trkpt>
      <trkpt lat="38.372976" lon="-1.756524">
        <ele>344.6</ele>
        <time>2023-02-26T08:57:30Z</time>
      </trkpt>
      <trkpt lat="38.372919" lon="-1.756477">
        <ele>346.6</ele>
        <time>2023-02-26T08:57:34Z</time>
      </trkpt>
      <trkpt lat="38.372866" lon="-1.756418">
        <ele>347.6</ele>
        <time>2023-02-26T08:57:37Z</time>
      </trkpt>
      <trkpt lat="38.372871" lon="-1.756436">
        <ele>344.9</ele>
        <time>2023-02-26T09:00:23Z</time>
      </trkpt>
      <trkpt lat="38.372831" lon="-1.756367">
        <ele>348.6</ele>
        <time>2023-02-26T09:00:37Z</time>
      </trkpt>
      <trkpt lat="38.372781" lon="-1.756304">
        <ele>348.6</ele>
        <time>2023-02-26T09:00:40Z</time>
      </trkpt>
      <trkpt lat="38.372719" lon="-1.756278">
        <ele>350.6</ele>
        <time>2023-02-26T09:00:44Z</time>
      </trkpt>
      <trkpt lat="38.372649" lon="-1.756271">
        <ele>351.6</ele>
        <time>2023-02-26T09:00:49Z</time>
      </trkpt>
      <trkpt lat="38.372596" lon="-1.756226">
        <ele>352.4</ele>
        <time>2023-02-26T09:00:54Z</time>
      </trkpt>
      <trkpt lat="38.372578" lon="-1.756147">
        <ele>350.9</ele>
        <time>2023-02-26T09:01:02Z</time>
      </trkpt>
      <trkpt lat="38.372537" lon="-1.756109">
        <ele>351.6</ele>
        <time>2023-02-26T09:01:16Z</time>
      </trkpt>
      <trkpt lat="38.372518" lon="-1.756050">
        <ele>350.6</ele>
        <time>2023-02-26T09:01:23Z</time>
      </trkpt>
      <trkpt lat="38.372501" lon="-1.755996">
        <ele>351.6</ele>
        <time>2023-02-26T09:01:29Z</time>
      </trkpt>
      <trkpt lat="38.372476" lon="-1.755917">
        <ele>352.6</ele>
        <time>2023-02-26T09:01:37Z</time>
      </trkpt>
      <trkpt lat="38.372452" lon="-1.755847">
        <ele>350.9</ele>
        <time>2023-02-26T09:01:44Z</time>
      </trkpt>
      <trkpt lat="38.372435" lon="-1.755760">
        <ele>349.6</ele>
        <time>2023-02-26T09:01:51Z</time>
      </trkpt>
      <trkpt lat="38.372391" lon="-1.755698">
        <ele>349.7</ele>
        <time>2023-02-26T09:01:56Z</time>
      </trkpt>
      <trkpt lat="38.372370" lon="-1.755615">
        <ele>348.9</ele>
        <time>2023-02-26T09:02:01Z</time>
      </trkpt>
      <trkpt lat="38.372370" lon="-1.755526">
        <ele>349.6</ele>
        <time>2023-02-26T09:02:06Z</time>
      </trkpt>
      <trkpt lat="38.372368" lon="-1.755446">
        <ele>350.7</ele>
        <time>2023-02-26T09:02:12Z</time>
      </trkpt>
      <trkpt lat="38.372356" lon="-1.755367">
        <ele>351.6</ele>
        <time>2023-02-26T09:02:18Z</time>
      </trkpt>
      <trkpt lat="38.372335" lon="-1.755288">
        <ele>350.6</ele>
        <time>2023-02-26T09:02:23Z</time>
      </trkpt>
      <trkpt lat="38.372320" lon="-1.755208">
        <ele>350.6</ele>
        <time>2023-02-26T09:02:27Z</time>
      </trkpt>
      <trkpt lat="38.372326" lon="-1.755126">
        <ele>352.6</ele>
        <time>2023-02-26T09:02:33Z</time>
      </trkpt>
      <trkpt lat="38.372325" lon="-1.755037">
        <ele>351.6</ele>
        <time>2023-02-26T09:02:38Z</time>
      </trkpt>
      <trkpt lat="38.372315" lon="-1.754955">
        <ele>352.4</ele>
        <time>2023-02-26T09:02:43Z</time>
      </trkpt>
      <trkpt lat="38.372299" lon="-1.754874">
        <ele>353.4</ele>
        <time>2023-02-26T09:02:49Z</time>
      </trkpt>
      <trkpt lat="38.372302" lon="-1.754790">
        <ele>354.6</ele>
        <time>2023-02-26T09:02:54Z</time>
      </trkpt>
      <trkpt lat="38.372295" lon="-1.754701">
        <ele>354.6</ele>
        <time>2023-02-26T09:02:59Z</time>
      </trkpt>
      <trkpt lat="38.372303" lon="-1.754614">
        <ele>354.6</ele>
        <time>2023-02-26T09:03:04Z</time>
      </trkpt>
      <trkpt lat="38.372294" lon="-1.754530">
        <ele>354.6</ele>
        <time>2023-02-26T09:03:09Z</time>
      </trkpt>
      <trkpt lat="38.372314" lon="-1.754444">
        <ele>354.6</ele>
        <time>2023-02-26T09:03:15Z</time>
      </trkpt>
      <trkpt lat="38.372318" lon="-1.754356">
        <ele>351.7</ele>
        <time>2023-02-26T09:03:20Z</time>
      </trkpt>
      <trkpt lat="38.372364" lon="-1.754284">
        <ele>351.6</ele>
        <time>2023-02-26T09:03:27Z</time>
      </trkpt>
      <trkpt lat="38.372385" lon="-1.754201">
        <ele>349.7</ele>
        <time>2023-02-26T09:03:32Z</time>
      </trkpt>
      <trkpt lat="38.372404" lon="-1.754121">
        <ele>348.9</ele>
        <time>2023-02-26T09:03:37Z</time>
      </trkpt>
      <trkpt lat="38.372420" lon="-1.754042">
        <ele>348.6</ele>
        <time>2023-02-26T09:03:43Z</time>
      </trkpt>
      <trkpt lat="38.372441" lon="-1.753964">
        <ele>347.6</ele>
        <time>2023-02-26T09:03:48Z</time>
      </trkpt>
      <trkpt lat="38.372495" lon="-1.753906">
        <ele>348.6</ele>
        <time>2023-02-26T09:03:53Z</time>
      </trkpt>
      <trkpt lat="38.372523" lon="-1.753818">
        <ele>350.6</ele>
        <time>2023-02-26T09:03:58Z</time>
      </trkpt>
      <trkpt lat="38.372571" lon="-1.753756">
        <ele>350.6</ele>
        <time>2023-02-26T09:04:05Z</time>
      </trkpt>
      <trkpt lat="38.372589" lon="-1.753676">
        <ele>352.6</ele>
        <time>2023-02-26T09:04:11Z</time>
      </trkpt>
      <trkpt lat="38.372623" lon="-1.753600">
        <ele>351.6</ele>
        <time>2023-02-26T09:04:17Z</time>
      </trkpt>
      <trkpt lat="38.372667" lon="-1.753540">
        <ele>349.7</ele>
        <time>2023-02-26T09:04:23Z</time>
      </trkpt>
      <trkpt lat="38.372708" lon="-1.753471">
        <ele>347.7</ele>
        <time>2023-02-26T09:04:29Z</time>
      </trkpt>
      <trkpt lat="38.372740" lon="-1.753401">
        <ele>348.4</ele>
        <time>2023-02-26T09:04:35Z</time>
      </trkpt>
      <trkpt lat="38.372790" lon="-1.753342">
        <ele>346.7</ele>
        <time>2023-02-26T09:04:42Z</time>
      </trkpt>
      <trkpt lat="38.372838" lon="-1.753290">
        <ele>345.6</ele>
        <time>2023-02-26T09:04:48Z</time>
      </trkpt>
      <trkpt lat="38.372877" lon="-1.753222">
        <ele>345.9</ele>
        <time>2023-02-26T09:04:53Z</time>
      </trkpt>
      <trkpt lat="38.372920" lon="-1.753160">
        <ele>344.9</ele>
        <time>2023-02-26T09:04:58Z</time>
      </trkpt>
      <trkpt lat="38.372954" lon="-1.753087">
        <ele>345.6</ele>
        <time>2023-02-26T09:05:03Z</time>
      </trkpt>
      <trkpt lat="38.372994" lon="-1.753023">
        <ele>346.6</ele>
        <time>2023-02-26T09:05:08Z</time>
      </trkpt>
      <trkpt lat="38.373032" lon="-1.752954">
        <ele>344.7</ele>
        <time>2023-02-26T09:05:13Z</time>
      </trkpt>
      <trkpt lat="38.373074" lon="-1.752884">
        <ele>342.7</ele>
        <time>2023-02-26T09:05:18Z</time>
      </trkpt>
      <trkpt lat="38.373113" lon="-1.752810">
        <ele>342.6</ele>
        <time>2023-02-26T09:05:23Z</time>
      </trkpt>
      <trkpt lat="38.373162" lon="-1.752749">
        <ele>340.9</ele>
        <time>2023-02-26T09:05:29Z</time>
      </trkpt>
      <trkpt lat="38.373199" lon="-1.752676">
        <ele>341.6</ele>
        <time>2023-02-26T09:05:35Z</time>
      </trkpt>
      <trkpt lat="38.373224" lon="-1.752594">
        <ele>342.6</ele>
        <time>2023-02-26T09:05:40Z</time>
      </trkpt>
      <trkpt lat="38.373255" lon="-1.752519">
        <ele>340.7</ele>
        <time>2023-02-26T09:05:46Z</time>
      </trkpt>
      <trkpt lat="38.373278" lon="-1.752439">
        <ele>339.7</ele>
        <time>2023-02-26T09:05:53Z</time>
      </trkpt>
      <trkpt lat="38.373307" lon="-1.752368">
        <ele>341.4</ele>
        <time>2023-02-26T09:05:58Z</time>
      </trkpt>
      <trkpt lat="38.373344" lon="-1.752295">
        <ele>342.4</ele>
        <time>2023-02-26T09:06:03Z</time>
      </trkpt>
      <trkpt lat="38.373378" lon="-1.752222">
        <ele>342.7</ele>
        <time>2023-02-26T09:06:08Z</time>
      </trkpt>
      <trkpt lat="38.373416" lon="-1.752154">
        <ele>343.4</ele>
        <time>2023-02-26T09:06:14Z</time>
      </trkpt>
      <trkpt lat="38.373475" lon="-1.752105">
        <ele>343.7</ele>
        <time>2023-02-26T09:06:19Z</time>
      </trkpt>
      <trkpt lat="38.373538" lon="-1.752076">
        <ele>343.7</ele>
        <time>2023-02-26T09:06:25Z</time>
      </trkpt>
      <trkpt lat="38.373599" lon="-1.752030">
        <ele>345.6</ele>
        <time>2023-02-26T09:06:30Z</time>
      </trkpt>
      <trkpt lat="38.373662" lon="-1.752002">
        <ele>347.4</ele>
        <time>2023-02-26T09:06:35Z</time>
      </trkpt>
      <trkpt lat="38.373726" lon="-1.751986">
        <ele>347.4</ele>
        <time>2023-02-26T09:06:40Z</time>
      </trkpt>
      <trkpt lat="38.373784" lon="-1.751950">
        <ele>345.7</ele>
        <time>2023-02-26T09:06:44Z</time>
      </trkpt>
      <trkpt lat="38.373840" lon="-1.751911">
        <ele>346.7</ele>
        <time>2023-02-26T09:06:50Z</time>
      </trkpt>
      <trkpt lat="38.373904" lon="-1.751885">
        <ele>347.7</ele>
        <time>2023-02-26T09:06:55Z</time>
      </trkpt>
      <trkpt lat="38.373968" lon="-1.751870">
        <ele>349.4</ele>
        <time>2023-02-26T09:07:01Z</time>
      </trkpt>
      <trkpt lat="38.374029" lon="-1.751834">
        <ele>347.7</ele>
        <time>2023-02-26T09:07:17Z</time>
      </trkpt>
      <trkpt lat="38.374086" lon="-1.751798">
        <ele>348.4</ele>
        <time>2023-02-26T09:07:21Z</time>
      </trkpt>
      <trkpt lat="38.374152" lon="-1.751781">
        <ele>345.7</ele>
        <time>2023-02-26T09:07:26Z</time>
      </trkpt>
      <trkpt lat="38.374215" lon="-1.751755">
        <ele>345.6</ele>
        <time>2023-02-26T09:07:30Z</time>
      </trkpt>
      <trkpt lat="38.374272" lon="-1.751705">
        <ele>345.7</ele>
        <time>2023-02-26T09:07:37Z</time>
      </trkpt>
      <trkpt lat="38.374332" lon="-1.751661">
        <ele>344.7</ele>
        <time>2023-02-26T09:07:42Z</time>
      </trkpt>
      <trkpt lat="38.374397" lon="-1.751644">
        <ele>345.6</ele>
        <time>2023-02-26T09:07:46Z</time>
      </trkpt>
      <trkpt lat="38.374462" lon="-1.751664">
        <ele>344.7</ele>
        <time>2023-02-26T09:07:58Z</time>
      </trkpt>
      <trkpt lat="38.374522" lon="-1.751626">
        <ele>347.6</ele>
        <time>2023-02-26T09:08:04Z</time>
      </trkpt>
      <trkpt lat="38.374566" lon="-1.751564">
        <ele>346.7</ele>
        <time>2023-02-26T09:08:28Z</time>
      </trkpt>
      <trkpt lat="38.374638" lon="-1.751538">
        <ele>347.7</ele>
        <time>2023-02-26T09:08:32Z</time>
      </trkpt>
      <trkpt lat="38.374702" lon="-1.751511">
        <ele>347.7</ele>
        <time>2023-02-26T09:08:35Z</time>
      </trkpt>
      <trkpt lat="38.374760" lon="-1.751482">
        <ele>346.7</ele>
        <time>2023-02-26T09:08:40Z</time>
      </trkpt>
      <trkpt lat="38.374828" lon="-1.751470">
        <ele>348.6</ele>
        <time>2023-02-26T09:08:44Z</time>
      </trkpt>
      <trkpt lat="38.374892" lon="-1.751444">
        <ele>349.7</ele>
        <time>2023-02-26T09:08:49Z</time>
      </trkpt>
      <trkpt lat="38.374955" lon="-1.751416">
        <ele>348.7</ele>
        <time>2023-02-26T09:08:54Z</time>
      </trkpt>
      <trkpt lat="38.375009" lon="-1.751374">
        <ele>347.7</ele>
        <time>2023-02-26T09:08:58Z</time>
      </trkpt>
      <trkpt lat="38.375071" lon="-1.751327">
        <ele>348.7</ele>
        <time>2023-02-26T09:09:04Z</time>
      </trkpt>
      <trkpt lat="38.375132" lon="-1.751291">
        <ele>348.6</ele>
        <time>2023-02-26T09:09:09Z</time>
      </trkpt>
      <trkpt lat="38.375188" lon="-1.751245">
        <ele>347.7</ele>
        <time>2023-02-26T09:09:14Z</time>
      </trkpt>
      <trkpt lat="38.375252" lon="-1.751221">
        <ele>346.7</ele>
        <time>2023-02-26T09:09:19Z</time>
      </trkpt>
      <trkpt lat="38.375308" lon="-1.751183">
        <ele>346.7</ele>
        <time>2023-02-26T09:09:24Z</time>
      </trkpt>
      <trkpt lat="38.375378" lon="-1.751166">
        <ele>347.7</ele>
        <time>2023-02-26T09:09:29Z</time>
      </trkpt>
      <trkpt lat="38.375441" lon="-1.751164">
        <ele>346.7</ele>
        <time>2023-02-26T09:09:33Z</time>
      </trkpt>
      <trkpt lat="38.375510" lon="-1.751143">
        <ele>346.7</ele>
        <time>2023-02-26T09:09:38Z</time>
      </trkpt>
      <trkpt lat="38.375579" lon="-1.751121">
        <ele>346.6</ele>
        <time>2023-02-26T09:09:43Z</time>
      </trkpt>
      <trkpt lat="38.375640" lon="-1.751100">
        <ele>346.6</ele>
        <time>2023-02-26T09:09:48Z</time>
      </trkpt>
      <trkpt lat="38.375706" lon="-1.751091">
        <ele>345.7</ele>
        <time>2023-02-26T09:09:52Z</time>
      </trkpt>
      <trkpt lat="38.375770" lon="-1.751109">
        <ele>343.7</ele>
        <time>2023-02-26T09:09:58Z</time>
      </trkpt>
      <trkpt lat="38.375829" lon="-1.751140">
        <ele>344.6</ele>
        <time>2023-02-26T09:10:03Z</time>
      </trkpt>
      <trkpt lat="38.375894" lon="-1.751155">
        <ele>344.6</ele>
        <time>2023-02-26T09:10:09Z</time>
      </trkpt>
      <trkpt lat="38.375957" lon="-1.751164">
        <ele>342.9</ele>
        <time>2023-02-26T09:10:13Z</time>
      </trkpt>
      <trkpt lat="38.375996" lon="-1.751229">
        <ele>343.6</ele>
        <time>2023-02-26T09:10:18Z</time>
      </trkpt>
      <trkpt lat="38.376049" lon="-1.751258">
        <ele>344.6</ele>
        <time>2023-02-26T09:10:24Z</time>
      </trkpt>
      <trkpt lat="38.376100" lon="-1.751283">
        <ele>345.6</ele>
        <time>2023-02-26T09:10:29Z</time>
      </trkpt>
      <trkpt lat="38.376158" lon="-1.751290">
        <ele>345.6</ele>
        <time>2023-02-26T09:10:35Z</time>
      </trkpt>
      <trkpt lat="38.376209" lon="-1.751309">
        <ele>345.6</ele>
        <time>2023-02-26T09:10:41Z</time>
      </trkpt>
      <trkpt lat="38.376252" lon="-1.751321">
        <ele>345.6</ele>
        <time>2023-02-26T09:11:03Z</time>
      </trkpt>
      <trkpt lat="38.376317" lon="-1.751316">
        <ele>346.9</ele>
        <time>2023-02-26T09:11:32Z</time>
      </trkpt>
      <trkpt lat="38.376371" lon="-1.751345">
        <ele>346.6</ele>
        <time>2023-02-26T09:11:39Z</time>
      </trkpt>
      <trkpt lat="38.376428" lon="-1.751366">
        <ele>349.4</ele>
        <time>2023-02-26T09:11:49Z</time>
      </trkpt>
      <trkpt lat="38.376495" lon="-1.751378">
        <ele>349.6</ele>
        <time>2023-02-26T09:11:54Z</time>
      </trkpt>
      <trkpt lat="38.376560" lon="-1.751376">
        <ele>350.6</ele>
        <time>2023-02-26T09:12:00Z</time>
      </trkpt>
      <trkpt lat="38.376625" lon="-1.751384">
        <ele>349.7</ele>
        <time>2023-02-26T09:12:05Z</time>
      </trkpt>
      <trkpt lat="38.376692" lon="-1.751386">
        <ele>348.7</ele>
        <time>2023-02-26T09:12:11Z</time>
      </trkpt>
      <trkpt lat="38.376760" lon="-1.751396">
        <ele>349.1</ele>
        <time>2023-02-26T09:12:15Z</time>
      </trkpt>
      <trkpt lat="38.376826" lon="-1.751405">
        <ele>348.6</ele>
        <time>2023-02-26T09:12:20Z</time>
      </trkpt>
      <trkpt lat="38.376894" lon="-1.751398">
        <ele>349.6</ele>
        <time>2023-02-26T09:12:25Z</time>
      </trkpt>
      <trkpt lat="38.376963" lon="-1.751414">
        <ele>348.7</ele>
        <time>2023-02-26T09:12:30Z</time>
      </trkpt>
      <trkpt lat="38.377030" lon="-1.751442">
        <ele>348.6</ele>
        <time>2023-02-26T09:12:34Z</time>
      </trkpt>
      <trkpt lat="38.377095" lon="-1.751456">
        <ele>346.9</ele>
        <time>2023-02-26T09:12:39Z</time>
      </trkpt>
      <trkpt lat="38.377159" lon="-1.751455">
        <ele>347.6</ele>
        <time>2023-02-26T09:12:43Z</time>
      </trkpt>
      <trkpt lat="38.377225" lon="-1.751460">
        <ele>347.5</ele>
        <time>2023-02-26T09:12:49Z</time>
      </trkpt>
      <trkpt lat="38.377288" lon="-1.751466">
        <ele>347.6</ele>
        <time>2023-02-26T09:12:54Z</time>
      </trkpt>
      <trkpt lat="38.377352" lon="-1.751468">
        <ele>347.7</ele>
        <time>2023-02-26T09:12:59Z</time>
      </trkpt>
      <trkpt lat="38.377416" lon="-1.751465">
        <ele>347.6</ele>
        <time>2023-02-26T09:13:04Z</time>
      </trkpt>
      <trkpt lat="38.377489" lon="-1.751474">
        <ele>347.6</ele>
        <time>2023-02-26T09:13:09Z</time>
      </trkpt>
      <trkpt lat="38.377556" lon="-1.751499">
        <ele>347.6</ele>
        <time>2023-02-26T09:13:14Z</time>
      </trkpt>
      <trkpt lat="38.377620" lon="-1.751501">
        <ele>347.6</ele>
        <time>2023-02-26T09:13:19Z</time>
      </trkpt>
      <trkpt lat="38.377688" lon="-1.751496">
        <ele>348.6</ele>
        <time>2023-02-26T09:13:24Z</time>
      </trkpt>
      <trkpt lat="38.377753" lon="-1.751507">
        <ele>348.6</ele>
        <time>2023-02-26T09:13:29Z</time>
      </trkpt>
      <trkpt lat="38.377812" lon="-1.751539">
        <ele>348.6</ele>
        <time>2023-02-26T09:13:34Z</time>
      </trkpt>
      <trkpt lat="38.377875" lon="-1.751549">
        <ele>348.6</ele>
        <time>2023-02-26T09:13:38Z</time>
      </trkpt>
      <trkpt lat="38.377944" lon="-1.751557">
        <ele>350.6</ele>
        <time>2023-02-26T09:13:43Z</time>
      </trkpt>
      <trkpt lat="38.378008" lon="-1.751567">
        <ele>349.6</ele>
        <time>2023-02-26T09:13:47Z</time>
      </trkpt>
      <trkpt lat="38.378070" lon="-1.751575">
        <ele>349.7</ele>
        <time>2023-02-26T09:13:52Z</time>
      </trkpt>
      <trkpt lat="38.378137" lon="-1.751565">
        <ele>349.6</ele>
        <time>2023-02-26T09:13:56Z</time>
      </trkpt>
      <trkpt lat="38.378185" lon="-1.751495">
        <ele>349.6</ele>
        <time>2023-02-26T09:14:05Z</time>
      </trkpt>
      <trkpt lat="38.378252" lon="-1.751482">
        <ele>347.7</ele>
        <time>2023-02-26T09:14:09Z</time>
      </trkpt>
      <trkpt lat="38.378315" lon="-1.751450">
        <ele>346.6</ele>
        <time>2023-02-26T09:14:15Z</time>
      </trkpt>
      <trkpt lat="38.378373" lon="-1.751406">
        <ele>346.6</ele>
        <time>2023-02-26T09:14:21Z</time>
      </trkpt>
      <trkpt lat="38.378430" lon="-1.751371">
        <ele>345.6</ele>
        <time>2023-02-26T09:14:27Z</time>
      </trkpt>
      <trkpt lat="38.378483" lon="-1.751325">
        <ele>345.6</ele>
        <time>2023-02-26T09:14:32Z</time>
      </trkpt>
      <trkpt lat="38.378536" lon="-1.751267">
        <ele>343.6</ele>
        <time>2023-02-26T09:14:38Z</time>
      </trkpt>
      <trkpt lat="38.378573" lon="-1.751201">
        <ele>343.6</ele>
        <time>2023-02-26T09:14:43Z</time>
      </trkpt>
      <trkpt lat="38.378612" lon="-1.751133">
        <ele>343.9</ele>
        <time>2023-02-26T09:14:49Z</time>
      </trkpt>
      <trkpt lat="38.378645" lon="-1.751062">
        <ele>345.4</ele>
        <time>2023-02-26T09:14:54Z</time>
      </trkpt>
      <trkpt lat="38.378671" lon="-1.750986">
        <ele>343.7</ele>
        <time>2023-02-26T09:15:00Z</time>
      </trkpt>
      <trkpt lat="38.378705" lon="-1.750910">
        <ele>343.6</ele>
        <time>2023-02-26T09:15:07Z</time>
      </trkpt>
      <trkpt lat="38.378738" lon="-1.750839">
        <ele>342.6</ele>
        <time>2023-02-26T09:15:12Z</time>
      </trkpt>
      <trkpt lat="38.378758" lon="-1.750763">
        <ele>343.6</ele>
        <time>2023-02-26T09:15:16Z</time>
      </trkpt>
      <trkpt lat="38.378781" lon="-1.750686">
        <ele>344.6</ele>
        <time>2023-02-26T09:15:21Z</time>
      </trkpt>
      <trkpt lat="38.378816" lon="-1.750614">
        <ele>343.6</ele>
        <time>2023-02-26T09:15:31Z</time>
      </trkpt>
      <trkpt lat="38.378825" lon="-1.750531">
        <ele>346.6</ele>
        <time>2023-02-26T09:15:52Z</time>
      </trkpt>
      <trkpt lat="38.378826" lon="-1.750449">
        <ele>345.9</ele>
        <time>2023-02-26T09:15:57Z</time>
      </trkpt>
      <trkpt lat="38.378846" lon="-1.750369">
        <ele>341.7</ele>
        <time>2023-02-26T09:16:02Z</time>
      </trkpt>
      <trkpt lat="38.378867" lon="-1.750285">
        <ele>342.6</ele>
        <time>2023-02-26T09:16:07Z</time>
      </trkpt>
      <trkpt lat="38.378907" lon="-1.750219">
        <ele>340.7</ele>
        <time>2023-02-26T09:16:12Z</time>
      </trkpt>
      <trkpt lat="38.378934" lon="-1.750215">
        <ele>342.6</ele>
        <time>2023-02-26T09:16:17Z</time>
      </trkpt>
      <trkpt lat="38.378983" lon="-1.750233">
        <ele>345.6</ele>
        <time>2023-02-26T09:17:12Z</time>
      </trkpt>
      <trkpt lat="38.378975" lon="-1.750147">
        <ele>344.7</ele>
        <time>2023-02-26T09:17:23Z</time>
      </trkpt>
      <trkpt lat="38.378982" lon="-1.750062">
        <ele>342.7</ele>
        <time>2023-02-26T09:17:27Z</time>
      </trkpt>
      <trkpt lat="38.379031" lon="-1.750007">
        <ele>339.7</ele>
        <time>2023-02-26T09:17:32Z</time>
      </trkpt>
      <trkpt lat="38.379069" lon="-1.749939">
        <ele>342.4</ele>
        <time>2023-02-26T09:17:40Z</time>
      </trkpt>
      <trkpt lat="38.379103" lon="-1.749860">
        <ele>342.6</ele>
        <time>2023-02-26T09:17:50Z</time>
      </trkpt>
      <trkpt lat="38.379136" lon="-1.749790">
        <ele>342.7</ele>
        <time>2023-02-26T09:17:55Z</time>
      </trkpt>
      <trkpt lat="38.379190" lon="-1.749747">
        <ele>341.6</ele>
        <time>2023-02-26T09:18:02Z</time>
      </trkpt>
      <trkpt lat="38.379252" lon="-1.749712">
        <ele>346.7</ele>
        <time>2023-02-26T09:18:31Z</time>
      </trkpt>
      <trkpt lat="38.379295" lon="-1.749645">
        <ele>343.9</ele>
        <time>2023-02-26T09:18:36Z</time>
      </trkpt>
      <trkpt lat="38.379349" lon="-1.749587">
        <ele>346.7</ele>
        <time>2023-02-26T09:18:51Z</time>
      </trkpt>
      <trkpt lat="38.379401" lon="-1.749534">
        <ele>344.8</ele>
        <time>2023-02-26T09:18:56Z</time>
      </trkpt>
      <trkpt lat="38.379422" lon="-1.749455">
        <ele>343.6</ele>
        <time>2023-02-26T09:19:00Z</time>
      </trkpt>
      <trkpt lat="38.379453" lon="-1.749384">
        <ele>342.6</ele>
        <time>2023-02-26T09:19:05Z</time>
      </trkpt>
      <trkpt lat="38.379508" lon="-1.749328">
        <ele>342.6</ele>
        <time>2023-02-26T09:19:09Z</time>
      </trkpt>
      <trkpt lat="38.379562" lon="-1.749274">
        <ele>341.7</ele>
        <time>2023-02-26T09:19:15Z</time>
      </trkpt>
      <trkpt lat="38.379603" lon="-1.749211">
        <ele>341.6</ele>
        <time>2023-02-26T09:19:21Z</time>
      </trkpt>
      <trkpt lat="38.379638" lon="-1.749138">
        <ele>340.7</ele>
        <time>2023-02-26T09:19:29Z</time>
      </trkpt>
      <trkpt lat="38.379636" lon="-1.749054">
        <ele>342.4</ele>
        <time>2023-02-26T09:19:35Z</time>
      </trkpt>
      <trkpt lat="38.379636" lon="-1.748967">
        <ele>342.6</ele>
        <time>2023-02-26T09:19:40Z</time>
      </trkpt>
      <trkpt lat="38.379643" lon="-1.748881">
        <ele>342.6</ele>
        <time>2023-02-26T09:19:45Z</time>
      </trkpt>
      <trkpt lat="38.379673" lon="-1.748801">
        <ele>341.9</ele>
        <time>2023-02-26T09:19:50Z</time>
      </trkpt>
      <trkpt lat="38.379698" lon="-1.748724">
        <ele>341.6</ele>
        <time>2023-02-26T09:19:58Z</time>
      </trkpt>
      <trkpt lat="38.379717" lon="-1.748638">
        <ele>342.4</ele>
        <time>2023-02-26T09:20:03Z</time>
      </trkpt>
      <trkpt lat="38.379732" lon="-1.748553">
        <ele>344.6</ele>
        <time>2023-02-26T09:20:08Z</time>
      </trkpt>
      <trkpt lat="38.379739" lon="-1.748469">
        <ele>346.4</ele>
        <time>2023-02-26T09:20:15Z</time>
      </trkpt>
      <trkpt lat="38.379736" lon="-1.748419">
        <ele>345.7</ele>
        <time>2023-02-26T09:20:22Z</time>
      </trkpt>
      <trkpt lat="38.379736" lon="-1.748328">
        <ele>347.4</ele>
        <time>2023-02-26T09:20:26Z</time>
      </trkpt>
      <trkpt lat="38.379738" lon="-1.748254">
        <ele>346.7</ele>
        <time>2023-02-26T09:20:32Z</time>
      </trkpt>
      <trkpt lat="38.379748" lon="-1.748152">
        <ele>344.7</ele>
        <time>2023-02-26T09:20:37Z</time>
      </trkpt>
      <trkpt lat="38.379730" lon="-1.748067">
        <ele>342.7</ele>
        <time>2023-02-26T09:20:43Z</time>
      </trkpt>
      <trkpt lat="38.379738" lon="-1.748000">
        <ele>340.7</ele>
        <time>2023-02-26T09:20:47Z</time>
      </trkpt>
      <trkpt lat="38.379738" lon="-1.747918">
        <ele>340.6</ele>
        <time>2023-02-26T09:20:52Z</time>
      </trkpt>
      <trkpt lat="38.379725" lon="-1.747836">
        <ele>339.7</ele>
        <time>2023-02-26T09:20:57Z</time>
      </trkpt>
      <trkpt lat="38.379722" lon="-1.747752">
        <ele>340.7</ele>
        <time>2023-02-26T09:21:01Z</time>
      </trkpt>
      <trkpt lat="38.379683" lon="-1.747669">
        <ele>340.7</ele>
        <time>2023-02-26T09:21:14Z</time>
      </trkpt>
      <trkpt lat="38.379675" lon="-1.747586">
        <ele>340.7</ele>
        <time>2023-02-26T09:21:17Z</time>
      </trkpt>
      <trkpt lat="38.379681" lon="-1.747503">
        <ele>340.7</ele>
        <time>2023-02-26T09:21:22Z</time>
      </trkpt>
      <trkpt lat="38.379693" lon="-1.747413">
        <ele>338.7</ele>
        <time>2023-02-26T09:21:32Z</time>
      </trkpt>
      <trkpt lat="38.379693" lon="-1.747330">
        <ele>339.6</ele>
        <time>2023-02-26T09:21:42Z</time>
      </trkpt>
      <trkpt lat="38.379648" lon="-1.747226">
        <ele>343.6</ele>
        <time>2023-02-26T09:22:10Z</time>
      </trkpt>
      <trkpt lat="38.379655" lon="-1.747136">
        <ele>346.7</ele>
        <time>2023-02-26T09:22:47Z</time>
      </trkpt>
      <trkpt lat="38.379659" lon="-1.747064">
        <ele>347.7</ele>
        <time>2023-02-26T09:22:52Z</time>
      </trkpt>
      <trkpt lat="38.379657" lon="-1.746982">
        <ele>347.7</ele>
        <time>2023-02-26T09:22:56Z</time>
      </trkpt>
      <trkpt lat="38.379641" lon="-1.746898">
        <ele>347.4</ele>
        <time>2023-02-26T09:23:01Z</time>
      </trkpt>
      <trkpt lat="38.379650" lon="-1.746802">
        <ele>349.4</ele>
        <time>2023-02-26T09:23:05Z</time>
      </trkpt>
      <trkpt lat="38.379644" lon="-1.746719">
        <ele>350.6</ele>
        <time>2023-02-26T09:23:11Z</time>
      </trkpt>
      <trkpt lat="38.379636" lon="-1.746628">
        <ele>350.7</ele>
        <time>2023-02-26T09:23:16Z</time>
      </trkpt>
      <trkpt lat="38.379631" lon="-1.746542">
        <ele>349.7</ele>
        <time>2023-02-26T09:23:20Z</time>
      </trkpt>
      <trkpt lat="38.379615" lon="-1.746462">
        <ele>349.7</ele>
        <time>2023-02-26T09:23:26Z</time>
      </trkpt>
      <trkpt lat="38.379625" lon="-1.746380">
        <ele>349.7</ele>
        <time>2023-02-26T09:23:29Z</time>
      </trkpt>
      <trkpt lat="38.379616" lon="-1.746290">
        <ele>350.6</ele>
        <time>2023-02-26T09:23:33Z</time>
      </trkpt>
      <trkpt lat="38.379609" lon="-1.746210">
        <ele>349.7</ele>
        <time>2023-02-26T09:23:41Z</time>
      </trkpt>
      <trkpt lat="38.379604" lon="-1.746128">
        <ele>351.7</ele>
        <time>2023-02-26T09:23:45Z</time>
      </trkpt>
      <trkpt lat="38.379582" lon="-1.746049">
        <ele>352.7</ele>
        <time>2023-02-26T09:23:50Z</time>
      </trkpt>
      <trkpt lat="38.379564" lon="-1.745966">
        <ele>350.7</ele>
        <time>2023-02-26T09:23:55Z</time>
      </trkpt>
      <trkpt lat="38.379560" lon="-1.745876">
        <ele>351.6</ele>
        <time>2023-02-26T09:23:59Z</time>
      </trkpt>
      <trkpt lat="38.379549" lon="-1.745793">
        <ele>350.7</ele>
        <time>2023-02-26T09:24:04Z</time>
      </trkpt>
      <trkpt lat="38.379554" lon="-1.745712">
        <ele>349.7</ele>
        <time>2023-02-26T09:24:08Z</time>
      </trkpt>
      <trkpt lat="38.379562" lon="-1.745632">
        <ele>350.7</ele>
        <time>2023-02-26T09:24:12Z</time>
      </trkpt>
      <trkpt lat="38.379564" lon="-1.745545">
        <ele>352.4</ele>
        <time>2023-02-26T09:24:16Z</time>
      </trkpt>
      <trkpt lat="38.379574" lon="-1.745457">
        <ele>352.7</ele>
        <time>2023-02-26T09:24:20Z</time>
      </trkpt>
      <trkpt lat="38.379564" lon="-1.745371">
        <ele>352.7</ele>
        <time>2023-02-26T09:24:25Z</time>
      </trkpt>
      <trkpt lat="38.379554" lon="-1.745289">
        <ele>351.7</ele>
        <time>2023-02-26T09:24:30Z</time>
      </trkpt>
      <trkpt lat="38.379544" lon="-1.745202">
        <ele>350.7</ele>
        <time>2023-02-26T09:24:35Z</time>
      </trkpt>
      <trkpt lat="38.379524" lon="-1.745125">
        <ele>351.7</ele>
        <time>2023-02-26T09:24:39Z</time>
      </trkpt>
      <trkpt lat="38.379516" lon="-1.745038">
        <ele>351.6</ele>
        <time>2023-02-26T09:24:44Z</time>
      </trkpt>
      <trkpt lat="38.379503" lon="-1.744952">
        <ele>352.7</ele>
        <time>2023-02-26T09:24:49Z</time>
      </trkpt>
      <trkpt lat="38.379500" lon="-1.744864">
        <ele>352.7</ele>
        <time>2023-02-26T09:24:55Z</time>
      </trkpt>
      <trkpt lat="38.379490" lon="-1.744777">
        <ele>354.6</ele>
        <time>2023-02-26T09:25:00Z</time>
      </trkpt>
      <trkpt lat="38.379473" lon="-1.744692">
        <ele>354.7</ele>
        <time>2023-02-26T09:25:05Z</time>
      </trkpt>
      <trkpt lat="38.379458" lon="-1.744604">
        <ele>354.7</ele>
        <time>2023-02-26T09:25:10Z</time>
      </trkpt>
      <trkpt lat="38.379455" lon="-1.744524">
        <ele>354.7</ele>
        <time>2023-02-26T09:25:15Z</time>
      </trkpt>
      <trkpt lat="38.379441" lon="-1.744443">
        <ele>355.7</ele>
        <time>2023-02-26T09:25:19Z</time>
      </trkpt>
      <trkpt lat="38.379427" lon="-1.744359">
        <ele>355.7</ele>
        <time>2023-02-26T09:25:24Z</time>
      </trkpt>
      <trkpt lat="38.379423" lon="-1.744278">
        <ele>356.7</ele>
        <time>2023-02-26T09:25:28Z</time>
      </trkpt>
      <trkpt lat="38.379426" lon="-1.744189">
        <ele>356.4</ele>
        <time>2023-02-26T09:25:34Z</time>
      </trkpt>
      <trkpt lat="38.379420" lon="-1.744103">
        <ele>355.7</ele>
        <time>2023-02-26T09:25:38Z</time>
      </trkpt>
      <trkpt lat="38.379418" lon="-1.744012">
        <ele>354.7</ele>
        <time>2023-02-26T09:25:43Z</time>
      </trkpt>
      <trkpt lat="38.379396" lon="-1.743933">
        <ele>354.7</ele>
        <time>2023-02-26T09:25:48Z</time>
      </trkpt>
      <trkpt lat="38.379389" lon="-1.743848">
        <ele>355.7</ele>
        <time>2023-02-26T09:25:52Z</time>
      </trkpt>
      <trkpt lat="38.379381" lon="-1.743765">
        <ele>356.7</ele>
        <time>2023-02-26T09:25:58Z</time>
      </trkpt>
      <trkpt lat="38.379386" lon="-1.743682">
        <ele>358.6</ele>
        <time>2023-02-26T09:26:02Z</time>
      </trkpt>
      <trkpt lat="38.379380" lon="-1.743594">
        <ele>361.4</ele>
        <time>2023-02-26T09:26:07Z</time>
      </trkpt>
      <trkpt lat="38.379370" lon="-1.743505">
        <ele>361.7</ele>
        <time>2023-02-26T09:26:12Z</time>
      </trkpt>
      <trkpt lat="38.379355" lon="-1.743410">
        <ele>361.9</ele>
        <time>2023-02-26T09:26:18Z</time>
      </trkpt>
      <trkpt lat="38.379340" lon="-1.743330">
        <ele>362.7</ele>
        <time>2023-02-26T09:26:23Z</time>
      </trkpt>
      <trkpt lat="38.379303" lon="-1.743261">
        <ele>361.7</ele>
        <time>2023-02-26T09:26:28Z</time>
      </trkpt>
      <trkpt lat="38.379271" lon="-1.743179">
        <ele>362.7</ele>
        <time>2023-02-26T09:26:49Z</time>
      </trkpt>
      <trkpt lat="38.379226" lon="-1.743110">
        <ele>363.4</ele>
        <time>2023-02-26T09:26:52Z</time>
      </trkpt>
      <trkpt lat="38.379201" lon="-1.743034">
        <ele>363.7</ele>
        <time>2023-02-26T09:26:57Z</time>
      </trkpt>
      <trkpt lat="38.379135" lon="-1.742999">
        <ele>363.7</ele>
        <time>2023-02-26T09:27:02Z</time>
      </trkpt>
      <trkpt lat="38.379102" lon="-1.742928">
        <ele>362.7</ele>
        <time>2023-02-26T09:27:05Z</time>
      </trkpt>
      <trkpt lat="38.379049" lon="-1.742877">
        <ele>361.7</ele>
        <time>2023-02-26T09:27:10Z</time>
      </trkpt>
      <trkpt lat="38.378990" lon="-1.742832">
        <ele>359.7</ele>
        <time>2023-02-26T09:27:14Z</time>
      </trkpt>
      <trkpt lat="38.378948" lon="-1.742769">
        <ele>359.7</ele>
        <time>2023-02-26T09:27:18Z</time>
      </trkpt>
      <trkpt lat="38.378883" lon="-1.742725">
        <ele>360.7</ele>
        <time>2023-02-26T09:27:25Z</time>
      </trkpt>
      <trkpt lat="38.378828" lon="-1.742685">
        <ele>362.6</ele>
        <time>2023-02-26T09:27:29Z</time>
      </trkpt>
      <trkpt lat="38.378766" lon="-1.742654">
        <ele>366.4</ele>
        <time>2023-02-26T09:27:34Z</time>
      </trkpt>
      <trkpt lat="38.378717" lon="-1.742600">
        <ele>367.6</ele>
        <time>2023-02-26T09:27:38Z</time>
      </trkpt>
      <trkpt lat="38.378690" lon="-1.742524">
        <ele>366.7</ele>
        <time>2023-02-26T09:27:49Z</time>
      </trkpt>
      <trkpt lat="38.378704" lon="-1.742445">
        <ele>367.6</ele>
        <time>2023-02-26T09:27:54Z</time>
      </trkpt>
      <trkpt lat="38.378710" lon="-1.742357">
        <ele>365.9</ele>
        <time>2023-02-26T09:27:59Z</time>
      </trkpt>
      <trkpt lat="38.378669" lon="-1.742288">
        <ele>366.6</ele>
        <time>2023-02-26T09:28:04Z</time>
      </trkpt>
      <trkpt lat="38.378642" lon="-1.742212">
        <ele>365.7</ele>
        <time>2023-02-26T09:28:09Z</time>
      </trkpt>
      <trkpt lat="38.378600" lon="-1.742148">
        <ele>364.7</ele>
        <time>2023-02-26T09:28:14Z</time>
      </trkpt>
      <trkpt lat="38.378565" lon="-1.742082">
        <ele>365.6</ele>
        <time>2023-02-26T09:28:19Z</time>
      </trkpt>
      <trkpt lat="38.378518" lon="-1.742020">
        <ele>364.7</ele>
        <time>2023-02-26T09:28:25Z</time>
      </trkpt>
      <trkpt lat="38.378476" lon="-1.741954">
        <ele>362.0</ele>
        <time>2023-02-26T09:28:31Z</time>
      </trkpt>
      <trkpt lat="38.378421" lon="-1.741907">
        <ele>360.7</ele>
        <time>2023-02-26T09:28:36Z</time>
      </trkpt>
      <trkpt lat="38.378364" lon="-1.741863">
        <ele>360.7</ele>
        <time>2023-02-26T09:28:40Z</time>
      </trkpt>
      <trkpt lat="38.378322" lon="-1.741798">
        <ele>361.4</ele>
        <time>2023-02-26T09:28:46Z</time>
      </trkpt>
      <trkpt lat="38.378272" lon="-1.741731">
        <ele>361.7</ele>
        <time>2023-02-26T09:28:53Z</time>
      </trkpt>
      <trkpt lat="38.378238" lon="-1.741657">
        <ele>360.7</ele>
        <time>2023-02-26T09:28:59Z</time>
      </trkpt>
      <trkpt lat="38.378225" lon="-1.741576">
        <ele>359.7</ele>
        <time>2023-02-26T09:29:04Z</time>
      </trkpt>
      <trkpt lat="38.378251" lon="-1.741501">
        <ele>359.7</ele>
        <time>2023-02-26T09:29:10Z</time>
      </trkpt>
      <trkpt lat="38.378278" lon="-1.741428">
        <ele>360.7</ele>
        <time>2023-02-26T09:29:15Z</time>
      </trkpt>
      <trkpt lat="38.378278" lon="-1.741339">
        <ele>360.7</ele>
        <time>2023-02-26T09:29:30Z</time>
      </trkpt>
      <trkpt lat="38.378253" lon="-1.741264">
        <ele>358.7</ele>
        <time>2023-02-26T09:29:36Z</time>
      </trkpt>
      <trkpt lat="38.378212" lon="-1.741194">
        <ele>357.7</ele>
        <time>2023-02-26T09:29:41Z</time>
      </trkpt>
      <trkpt lat="38.378176" lon="-1.741124">
        <ele>356.7</ele>
        <time>2023-02-26T09:29:47Z</time>
      </trkpt>
      <trkpt lat="38.378114" lon="-1.741094">
        <ele>355.9</ele>
        <time>2023-02-26T09:29:51Z</time>
      </trkpt>
      <trkpt lat="38.378066" lon="-1.741034">
        <ele>356.7</ele>
        <time>2023-02-26T09:29:56Z</time>
      </trkpt>
      <trkpt lat="38.378014" lon="-1.740972">
        <ele>354.7</ele>
        <time>2023-02-26T09:30:02Z</time>
      </trkpt>
      <trkpt lat="38.377970" lon="-1.740913">
        <ele>354.4</ele>
        <time>2023-02-26T09:30:07Z</time>
      </trkpt>
      <trkpt lat="38.377940" lon="-1.740833">
        <ele>355.7</ele>
        <time>2023-02-26T09:30:12Z</time>
      </trkpt>
      <trkpt lat="38.377912" lon="-1.740760">
        <ele>355.7</ele>
        <time>2023-02-26T09:30:17Z</time>
      </trkpt>
      <trkpt lat="38.377878" lon="-1.740684">
        <ele>354.7</ele>
        <time>2023-02-26T09:30:24Z</time>
      </trkpt>
      <trkpt lat="38.377826" lon="-1.740631">
        <ele>354.7</ele>
        <time>2023-02-26T09:30:29Z</time>
      </trkpt>
      <trkpt lat="38.377781" lon="-1.740548">
        <ele>353.7</ele>
        <time>2023-02-26T09:30:35Z</time>
      </trkpt>
      <trkpt lat="38.377750" lon="-1.740474">
        <ele>351.8</ele>
        <time>2023-02-26T09:30:39Z</time>
      </trkpt>
      <trkpt lat="38.377701" lon="-1.740414">
        <ele>352.7</ele>
        <time>2023-02-26T09:30:45Z</time>
      </trkpt>
      <trkpt lat="38.377668" lon="-1.740342">
        <ele>353.7</ele>
        <time>2023-02-26T09:30:49Z</time>
      </trkpt>
      <trkpt lat="38.377647" lon="-1.740262">
        <ele>352.7</ele>
        <time>2023-02-26T09:30:54Z</time>
      </trkpt>
      <trkpt lat="38.377623" lon="-1.740178">
        <ele>353.6</ele>
        <time>2023-02-26T09:30:59Z</time>
      </trkpt>
      <trkpt lat="38.377595" lon="-1.740103">
        <ele>353.7</ele>
        <time>2023-02-26T09:31:04Z</time>
      </trkpt>
      <trkpt lat="38.377559" lon="-1.740029">
        <ele>352.9</ele>
        <time>2023-02-26T09:31:09Z</time>
      </trkpt>
      <trkpt lat="38.377526" lon="-1.739957">
        <ele>353.9</ele>
        <time>2023-02-26T09:31:15Z</time>
      </trkpt>
      <trkpt lat="38.377486" lon="-1.739889">
        <ele>352.7</ele>
        <time>2023-02-26T09:31:21Z</time>
      </trkpt>
      <trkpt lat="38.377441" lon="-1.739819">
        <ele>352.7</ele>
        <time>2023-02-26T09:31:25Z</time>
      </trkpt>
      <trkpt lat="38.377402" lon="-1.739755">
        <ele>352.7</ele>
        <time>2023-02-26T09:31:30Z</time>
      </trkpt>
      <trkpt lat="38.377358" lon="-1.739684">
        <ele>354.7</ele>
        <time>2023-02-26T09:31:35Z</time>
      </trkpt>
      <trkpt lat="38.377313" lon="-1.739618">
        <ele>352.7</ele>
        <time>2023-02-26T09:31:40Z</time>
      </trkpt>
      <trkpt lat="38.377272" lon="-1.739550">
        <ele>352.7</ele>
        <time>2023-02-26T09:31:45Z</time>
      </trkpt>
      <trkpt lat="38.377237" lon="-1.739474">
        <ele>352.7</ele>
        <time>2023-02-26T09:31:50Z</time>
      </trkpt>
      <trkpt lat="38.377203" lon="-1.739402">
        <ele>353.7</ele>
        <time>2023-02-26T09:31:55Z</time>
      </trkpt>
      <trkpt lat="38.377188" lon="-1.739321">
        <ele>353.7</ele>
        <time>2023-02-26T09:32:01Z</time>
      </trkpt>
      <trkpt lat="38.377160" lon="-1.739243">
        <ele>352.7</ele>
        <time>2023-02-26T09:32:06Z</time>
      </trkpt>
      <trkpt lat="38.377099" lon="-1.739199">
        <ele>349.7</ele>
        <time>2023-02-26T09:32:10Z</time>
      </trkpt>
      <trkpt lat="38.377049" lon="-1.739138">
        <ele>350.4</ele>
        <time>2023-02-26T09:32:15Z</time>
      </trkpt>
      <trkpt lat="38.377010" lon="-1.739070">
        <ele>350.7</ele>
        <time>2023-02-26T09:32:20Z</time>
      </trkpt>
      <trkpt lat="38.376968" lon="-1.739008">
        <ele>350.7</ele>
        <time>2023-02-26T09:32:24Z</time>
      </trkpt>
      <trkpt lat="38.376924" lon="-1.738949">
        <ele>352.4</ele>
        <time>2023-02-26T09:33:25Z</time>
      </trkpt>
      <trkpt lat="38.376883" lon="-1.738875">
        <ele>353.7</ele>
        <time>2023-02-26T09:33:30Z</time>
      </trkpt>
      <trkpt lat="38.376842" lon="-1.738804">
        <ele>352.7</ele>
        <time>2023-02-26T09:33:35Z</time>
      </trkpt>
      <trkpt lat="38.376804" lon="-1.738733">
        <ele>353.7</ele>
        <time>2023-02-26T09:33:40Z</time>
      </trkpt>
      <trkpt lat="38.376768" lon="-1.738660">
        <ele>354.7</ele>
        <time>2023-02-26T09:33:44Z</time>
      </trkpt>
      <trkpt lat="38.376726" lon="-1.738589">
        <ele>354.7</ele>
        <time>2023-02-26T09:33:49Z</time>
      </trkpt>
      <trkpt lat="38.376684" lon="-1.738512">
        <ele>354.7</ele>
        <time>2023-02-26T09:33:55Z</time>
      </trkpt>
      <trkpt lat="38.376652" lon="-1.738442">
        <ele>354.7</ele>
        <time>2023-02-26T09:34:00Z</time>
      </trkpt>
      <trkpt lat="38.376608" lon="-1.738379">
        <ele>355.7</ele>
        <time>2023-02-26T09:34:03Z</time>
      </trkpt>
      <trkpt lat="38.376572" lon="-1.738312">
        <ele>354.7</ele>
        <time>2023-02-26T09:34:07Z</time>
      </trkpt>
      <trkpt lat="38.376535" lon="-1.738235">
        <ele>355.7</ele>
        <time>2023-02-26T09:34:12Z</time>
      </trkpt>
      <trkpt lat="38.376503" lon="-1.738158">
        <ele>357.7</ele>
        <time>2023-02-26T09:34:17Z</time>
      </trkpt>
      <trkpt lat="38.376471" lon="-1.738087">
        <ele>357.7</ele>
        <time>2023-02-26T09:34:22Z</time>
      </trkpt>
      <trkpt lat="38.376432" lon="-1.738019">
        <ele>356.7</ele>
        <time>2023-02-26T09:34:26Z</time>
      </trkpt>
      <trkpt lat="38.376388" lon="-1.737947">
        <ele>355.7</ele>
        <time>2023-02-26T09:34:31Z</time>
      </trkpt>
      <trkpt lat="38.376357" lon="-1.737874">
        <ele>355.7</ele>
        <time>2023-02-26T09:34:35Z</time>
      </trkpt>
      <trkpt lat="38.376326" lon="-1.737800">
        <ele>355.7</ele>
        <time>2023-02-26T09:34:40Z</time>
      </trkpt>
      <trkpt lat="38.376283" lon="-1.737738">
        <ele>354.7</ele>
        <time>2023-02-26T09:34:45Z</time>
      </trkpt>
      <trkpt lat="38.376240" lon="-1.737670">
        <ele>355.7</ele>
        <time>2023-02-26T09:34:50Z</time>
      </trkpt>
      <trkpt lat="38.376204" lon="-1.737600">
        <ele>356.7</ele>
        <time>2023-02-26T09:34:55Z</time>
      </trkpt>
      <trkpt lat="38.376163" lon="-1.737536">
        <ele>356.7</ele>
        <time>2023-02-26T09:35:00Z</time>
      </trkpt>
      <trkpt lat="38.376131" lon="-1.737467">
        <ele>356.7</ele>
        <time>2023-02-26T09:35:04Z</time>
      </trkpt>
      <trkpt lat="38.376085" lon="-1.737403">
        <ele>356.7</ele>
        <time>2023-02-26T09:35:09Z</time>
      </trkpt>
      <trkpt lat="38.376043" lon="-1.737333">
        <ele>355.7</ele>
        <time>2023-02-26T09:35:15Z</time>
      </trkpt>
      <trkpt lat="38.375998" lon="-1.737270">
        <ele>354.7</ele>
        <time>2023-02-26T09:35:19Z</time>
      </trkpt>
      <trkpt lat="38.375963" lon="-1.737204">
        <ele>353.9</ele>
        <time>2023-02-26T09:35:24Z</time>
      </trkpt>
      <trkpt lat="38.375929" lon="-1.737128">
        <ele>354.7</ele>
        <time>2023-02-26T09:35:29Z</time>
      </trkpt>
      <trkpt lat="38.375904" lon="-1.737052">
        <ele>354.7</ele>
        <time>2023-02-26T09:35:34Z</time>
      </trkpt>
      <trkpt lat="38.375874" lon="-1.736977">
        <ele>354.7</ele>
        <time>2023-02-26T09:35:38Z</time>
      </trkpt>
      <trkpt lat="38.375847" lon="-1.736898">
        <ele>356.6</ele>
        <time>2023-02-26T09:35:42Z</time>
      </trkpt>
      <trkpt lat="38.375805" lon="-1.736820">
        <ele>357.9</ele>
        <time>2023-02-26T09:35:47Z</time>
      </trkpt>
      <trkpt lat="38.375773" lon="-1.736744">
        <ele>357.4</ele>
        <time>2023-02-26T09:35:53Z</time>
      </trkpt>
      <trkpt lat="38.375740" lon="-1.736668">
        <ele>357.7</ele>
        <time>2023-02-26T09:35:57Z</time>
      </trkpt>
      <trkpt lat="38.375705" lon="-1.736590">
        <ele>358.6</ele>
        <time>2023-02-26T09:36:02Z</time>
      </trkpt>
      <trkpt lat="38.375660" lon="-1.736525">
        <ele>357.7</ele>
        <time>2023-02-26T09:36:08Z</time>
      </trkpt>
      <trkpt lat="38.375618" lon="-1.736453">
        <ele>355.7</ele>
        <time>2023-02-26T09:36:14Z</time>
      </trkpt>
      <trkpt lat="38.375571" lon="-1.736397">
        <ele>354.7</ele>
        <time>2023-02-26T09:36:17Z</time>
      </trkpt>
      <trkpt lat="38.375525" lon="-1.736332">
        <ele>353.7</ele>
        <time>2023-02-26T09:36:22Z</time>
      </trkpt>
      <trkpt lat="38.375479" lon="-1.736270">
        <ele>352.9</ele>
        <time>2023-02-26T09:36:28Z</time>
      </trkpt>
      <trkpt lat="38.375437" lon="-1.736201">
        <ele>352.7</ele>
        <time>2023-02-26T09:36:33Z</time>
      </trkpt>
      <trkpt lat="38.375395" lon="-1.736138">
        <ele>350.9</ele>
        <time>2023-02-26T09:36:38Z</time>
      </trkpt>
      <trkpt lat="38.375342" lon="-1.736078">
        <ele>350.7</ele>
        <time>2023-02-26T09:36:44Z</time>
      </trkpt>
      <trkpt lat="38.375295" lon="-1.736016">
        <ele>348.7</ele>
        <time>2023-02-26T09:36:49Z</time>
      </trkpt>
      <trkpt lat="38.375249" lon="-1.735953">
        <ele>347.7</ele>
        <time>2023-02-26T09:36:54Z</time>
      </trkpt>
      <trkpt lat="38.375212" lon="-1.735886">
        <ele>347.7</ele>
        <time>2023-02-26T09:36:59Z</time>
      </trkpt>
      <trkpt lat="38.375172" lon="-1.735810">
        <ele>348.6</ele>
        <time>2023-02-26T09:37:04Z</time>
      </trkpt>
      <trkpt lat="38.375135" lon="-1.735745">
        <ele>347.9</ele>
        <time>2023-02-26T09:37:09Z</time>
      </trkpt>
      <trkpt lat="38.375092" lon="-1.735677">
        <ele>345.7</ele>
        <time>2023-02-26T09:37:15Z</time>
      </trkpt>
      <trkpt lat="38.375047" lon="-1.735612">
        <ele>345.7</ele>
        <time>2023-02-26T09:37:20Z</time>
      </trkpt>
      <trkpt lat="38.374989" lon="-1.735555">
        <ele>345.7</ele>
        <time>2023-02-26T09:37:26Z</time>
      </trkpt>
      <trkpt lat="38.374944" lon="-1.735494">
        <ele>345.7</ele>
        <time>2023-02-26T09:37:31Z</time>
      </trkpt>
      <trkpt lat="38.374894" lon="-1.735442">
        <ele>345.7</ele>
        <time>2023-02-26T09:37:35Z</time>
      </trkpt>
      <trkpt lat="38.374839" lon="-1.735395">
        <ele>345.7</ele>
        <time>2023-02-26T09:37:40Z</time>
      </trkpt>
      <trkpt lat="38.374787" lon="-1.735340">
        <ele>343.8</ele>
        <time>2023-02-26T09:37:45Z</time>
      </trkpt>
      <trkpt lat="38.374731" lon="-1.735289">
        <ele>343.7</ele>
        <time>2023-02-26T09:37:50Z</time>
      </trkpt>
      <trkpt lat="38.374681" lon="-1.735233">
        <ele>343.7</ele>
        <time>2023-02-26T09:37:55Z</time>
      </trkpt>
      <trkpt lat="38.374630" lon="-1.735180">
        <ele>343.7</ele>
        <time>2023-02-26T09:38:00Z</time>
      </trkpt>
      <trkpt lat="38.374586" lon="-1.735122">
        <ele>344.7</ele>
        <time>2023-02-26T09:38:05Z</time>
      </trkpt>
      <trkpt lat="38.374530" lon="-1.735069">
        <ele>343.7</ele>
        <time>2023-02-26T09:38:11Z</time>
      </trkpt>
      <trkpt lat="38.374469" lon="-1.735030">
        <ele>343.7</ele>
        <time>2023-02-26T09:38:16Z</time>
      </trkpt>
      <trkpt lat="38.374410" lon="-1.734980">
        <ele>343.7</ele>
        <time>2023-02-26T09:38:21Z</time>
      </trkpt>
      <trkpt lat="38.374355" lon="-1.734928">
        <ele>343.8</ele>
        <time>2023-02-26T09:38:25Z</time>
      </trkpt>
      <trkpt lat="38.374300" lon="-1.734884">
        <ele>344.7</ele>
        <time>2023-02-26T09:38:29Z</time>
      </trkpt>
      <trkpt lat="38.374237" lon="-1.734852">
        <ele>343.7</ele>
        <time>2023-02-26T09:38:35Z</time>
      </trkpt>
      <trkpt lat="38.374171" lon="-1.734835">
        <ele>341.9</ele>
        <time>2023-02-26T09:38:40Z</time>
      </trkpt>
      <trkpt lat="38.374109" lon="-1.734813">
        <ele>340.7</ele>
        <time>2023-02-26T09:38:45Z</time>
      </trkpt>
      <trkpt lat="38.374041" lon="-1.734800">
        <ele>339.7</ele>
        <time>2023-02-26T09:38:50Z</time>
      </trkpt>
      <trkpt lat="38.373976" lon="-1.734788">
        <ele>338.7</ele>
        <time>2023-02-26T09:38:55Z</time>
      </trkpt>
      <trkpt lat="38.373908" lon="-1.734776">
        <ele>339.4</ele>
        <time>2023-02-26T09:38:59Z</time>
      </trkpt>
      <trkpt lat="38.373842" lon="-1.734788">
        <ele>338.7</ele>
        <time>2023-02-26T09:39:03Z</time>
      </trkpt>
      <trkpt lat="38.373780" lon="-1.734802">
        <ele>337.7</ele>
        <time>2023-02-26T09:39:08Z</time>
      </trkpt>
      <trkpt lat="38.373715" lon="-1.734816">
        <ele>336.4</ele>
        <time>2023-02-26T09:39:16Z</time>
      </trkpt>
      <trkpt lat="38.373660" lon="-1.734859">
        <ele>341.7</ele>
        <time>2023-02-26T09:39:39Z</time>
      </trkpt>
      <trkpt lat="38.373600" lon="-1.734888">
        <ele>340.8</ele>
        <time>2023-02-26T09:39:44Z</time>
      </trkpt>
      <trkpt lat="38.373535" lon="-1.734910">
        <ele>339.7</ele>
        <time>2023-02-26T09:39:50Z</time>
      </trkpt>
      <trkpt lat="38.373469" lon="-1.734942">
        <ele>340.7</ele>
        <time>2023-02-26T09:39:56Z</time>
      </trkpt>
      <trkpt lat="38.373409" lon="-1.734969">
        <ele>339.9</ele>
        <time>2023-02-26T09:40:00Z</time>
      </trkpt>
      <trkpt lat="38.373344" lon="-1.734982">
        <ele>340.7</ele>
        <time>2023-02-26T09:40:05Z</time>
      </trkpt>
      <trkpt lat="38.373276" lon="-1.734992">
        <ele>339.9</ele>
        <time>2023-02-26T09:40:10Z</time>
      </trkpt>
      <trkpt lat="38.373211" lon="-1.734978">
        <ele>339.7</ele>
        <time>2023-02-26T09:40:15Z</time>
      </trkpt>
      <trkpt lat="38.373148" lon="-1.735015">
        <ele>338.7</ele>
        <time>2023-02-26T09:40:20Z</time>
      </trkpt>
      <trkpt lat="38.373086" lon="-1.735048">
        <ele>337.7</ele>
        <time>2023-02-26T09:40:25Z</time>
      </trkpt>
      <trkpt lat="38.373035" lon="-1.735110">
        <ele>341.6</ele>
        <time>2023-02-26T09:40:31Z</time>
      </trkpt>
      <trkpt lat="38.372972" lon="-1.735145">
        <ele>345.7</ele>
        <time>2023-02-26T09:40:36Z</time>
      </trkpt>
      <trkpt lat="38.372909" lon="-1.735156">
        <ele>345.7</ele>
        <time>2023-02-26T09:40:40Z</time>
      </trkpt>
      <trkpt lat="38.372844" lon="-1.735163">
        <ele>346.4</ele>
        <time>2023-02-26T09:40:44Z</time>
      </trkpt>
      <trkpt lat="38.372779" lon="-1.735189">
        <ele>347.6</ele>
        <time>2023-02-26T09:40:49Z</time>
      </trkpt>
      <trkpt lat="38.372715" lon="-1.735216">
        <ele>347.7</ele>
        <time>2023-02-26T09:40:55Z</time>
      </trkpt>
      <trkpt lat="38.372652" lon="-1.735253">
        <ele>347.7</ele>
        <time>2023-02-26T09:41:01Z</time>
      </trkpt>
      <trkpt lat="38.372589" lon="-1.735291">
        <ele>348.6</ele>
        <time>2023-02-26T09:41:06Z</time>
      </trkpt>
      <trkpt lat="38.372532" lon="-1.735332">
        <ele>349.4</ele>
        <time>2023-02-26T09:41:11Z</time>
      </trkpt>
      <trkpt lat="38.372477" lon="-1.735372">
        <ele>350.7</ele>
        <time>2023-02-26T09:41:16Z</time>
      </trkpt>
      <trkpt lat="38.372424" lon="-1.735420">
        <ele>350.7</ele>
        <time>2023-02-26T09:41:23Z</time>
      </trkpt>
      <trkpt lat="38.372368" lon="-1.735465">
        <ele>350.7</ele>
        <time>2023-02-26T09:41:28Z</time>
      </trkpt>
      <trkpt lat="38.372307" lon="-1.735494">
        <ele>350.7</ele>
        <time>2023-02-26T09:41:34Z</time>
      </trkpt>
      <trkpt lat="38.372243" lon="-1.735477">
        <ele>350.7</ele>
        <time>2023-02-26T09:41:40Z</time>
      </trkpt>
      <trkpt lat="38.372184" lon="-1.735514">
        <ele>349.8</ele>
        <time>2023-02-26T09:41:45Z</time>
      </trkpt>
      <trkpt lat="38.372128" lon="-1.735560">
        <ele>348.7</ele>
        <time>2023-02-26T09:41:52Z</time>
      </trkpt>
      <trkpt lat="38.372068" lon="-1.735600">
        <ele>347.7</ele>
        <time>2023-02-26T09:41:57Z</time>
      </trkpt>
      <trkpt lat="38.372004" lon="-1.735631">
        <ele>347.7</ele>
        <time>2023-02-26T09:42:02Z</time>
      </trkpt>
      <trkpt lat="38.371943" lon="-1.735653">
        <ele>347.7</ele>
        <time>2023-02-26T09:42:07Z</time>
      </trkpt>
      <trkpt lat="38.371876" lon="-1.735658">
        <ele>347.7</ele>
        <time>2023-02-26T09:42:13Z</time>
      </trkpt>
      <trkpt lat="38.371806" lon="-1.735647">
        <ele>349.4</ele>
        <time>2023-02-26T09:42:18Z</time>
      </trkpt>
      <trkpt lat="38.371745" lon="-1.735626">
        <ele>350.7</ele>
        <time>2023-02-26T09:42:24Z</time>
      </trkpt>
      <trkpt lat="38.371684" lon="-1.735598">
        <ele>350.7</ele>
        <time>2023-02-26T09:42:29Z</time>
      </trkpt>
      <trkpt lat="38.371620" lon="-1.735575">
        <ele>353.7</ele>
        <time>2023-02-26T09:42:33Z</time>
      </trkpt>
      <trkpt lat="38.371559" lon="-1.735545">
        <ele>354.7</ele>
        <time>2023-02-26T09:42:38Z</time>
      </trkpt>
      <trkpt lat="38.371493" lon="-1.735532">
        <ele>356.7</ele>
        <time>2023-02-26T09:42:45Z</time>
      </trkpt>
      <trkpt lat="38.371426" lon="-1.735526">
        <ele>356.7</ele>
        <time>2023-02-26T09:42:52Z</time>
      </trkpt>
      <trkpt lat="38.371357" lon="-1.735526">
        <ele>354.7</ele>
        <time>2023-02-26T09:42:59Z</time>
      </trkpt>
      <trkpt lat="38.371288" lon="-1.735525">
        <ele>353.7</ele>
        <time>2023-02-26T09:43:05Z</time>
      </trkpt>
      <trkpt lat="38.371224" lon="-1.735530">
        <ele>353.7</ele>
        <time>2023-02-26T09:43:11Z</time>
      </trkpt>
      <trkpt lat="38.371163" lon="-1.735546">
        <ele>352.7</ele>
        <time>2023-02-26T09:43:17Z</time>
      </trkpt>
      <trkpt lat="38.371095" lon="-1.735542">
        <ele>357.7</ele>
        <time>2023-02-26T09:43:31Z</time>
      </trkpt>
      <trkpt lat="38.371033" lon="-1.735506">
        <ele>358.7</ele>
        <time>2023-02-26T09:43:35Z</time>
      </trkpt>
      <trkpt lat="38.370969" lon="-1.735461">
        <ele>358.7</ele>
        <time>2023-02-26T09:43:40Z</time>
      </trkpt>
      <trkpt lat="38.370905" lon="-1.735432">
        <ele>359.7</ele>
        <time>2023-02-26T09:43:45Z</time>
      </trkpt>
      <trkpt lat="38.370844" lon="-1.735397">
        <ele>360.7</ele>
        <time>2023-02-26T09:43:50Z</time>
      </trkpt>
      <trkpt lat="38.370787" lon="-1.735358">
        <ele>362.7</ele>
        <time>2023-02-26T09:43:54Z</time>
      </trkpt>
      <trkpt lat="38.370729" lon="-1.735324">
        <ele>364.7</ele>
        <time>2023-02-26T09:43:59Z</time>
      </trkpt>
      <trkpt lat="38.370673" lon="-1.735279">
        <ele>365.7</ele>
        <time>2023-02-26T09:44:03Z</time>
      </trkpt>
      <trkpt lat="38.370614" lon="-1.735232">
        <ele>365.7</ele>
        <time>2023-02-26T09:44:09Z</time>
      </trkpt>
      <trkpt lat="38.370558" lon="-1.735185">
        <ele>364.7</ele>
        <time>2023-02-26T09:44:15Z</time>
      </trkpt>
      <trkpt lat="38.370500" lon="-1.735150">
        <ele>362.7</ele>
        <time>2023-02-26T09:44:23Z</time>
      </trkpt>
      <trkpt lat="38.370461" lon="-1.735083">
        <ele>362.9</ele>
        <time>2023-02-26T09:44:27Z</time>
      </trkpt>
      <trkpt lat="38.370407" lon="-1.735033">
        <ele>363.7</ele>
        <time>2023-02-26T09:44:31Z</time>
      </trkpt>
      <trkpt lat="38.370379" lon="-1.734952">
        <ele>363.7</ele>
        <time>2023-02-26T09:44:37Z</time>
      </trkpt>
      <trkpt lat="38.370347" lon="-1.734875">
        <ele>363.7</ele>
        <time>2023-02-26T09:44:41Z</time>
      </trkpt>
      <trkpt lat="38.370296" lon="-1.734816">
        <ele>363.7</ele>
        <time>2023-02-26T09:44:45Z</time>
      </trkpt>
      <trkpt lat="38.370238" lon="-1.734785">
        <ele>358.8</ele>
        <time>2023-02-26T09:44:54Z</time>
      </trkpt>
      <trkpt lat="38.370180" lon="-1.734751">
        <ele>353.0</ele>
        <time>2023-02-26T09:45:02Z</time>
      </trkpt>
      <trkpt lat="38.370113" lon="-1.734730">
        <ele>351.7</ele>
        <time>2023-02-26T09:45:08Z</time>
      </trkpt>
      <trkpt lat="38.370047" lon="-1.734702">
        <ele>350.0</ele>
        <time>2023-02-26T09:45:13Z</time>
      </trkpt>
      <trkpt lat="38.370005" lon="-1.734640">
        <ele>349.5</ele>
        <time>2023-02-26T09:45:18Z</time>
      </trkpt>
      <trkpt lat="38.369954" lon="-1.734586">
        <ele>346.7</ele>
        <time>2023-02-26T09:45:24Z</time>
      </trkpt>
      <trkpt lat="38.369890" lon="-1.734546">
        <ele>340.7</ele>
        <time>2023-02-26T09:47:42Z</time>
      </trkpt>
      <trkpt lat="38.369842" lon="-1.734470">
        <ele>341.7</ele>
        <time>2023-02-26T09:47:45Z</time>
      </trkpt>
      <trkpt lat="38.369803" lon="-1.734405">
        <ele>342.7</ele>
        <time>2023-02-26T09:47:50Z</time>
      </trkpt>
      <trkpt lat="38.369761" lon="-1.734336">
        <ele>344.6</ele>
        <time>2023-02-26T09:47:54Z</time>
      </trkpt>
      <trkpt lat="38.369734" lon="-1.734258">
        <ele>346.5</ele>
        <time>2023-02-26T09:47:59Z</time>
      </trkpt>
      <trkpt lat="38.369694" lon="-1.734193">
        <ele>347.4</ele>
        <time>2023-02-26T09:48:03Z</time>
      </trkpt>
      <trkpt lat="38.369665" lon="-1.734118">
        <ele>348.7</ele>
        <time>2023-02-26T09:48:08Z</time>
      </trkpt>
      <trkpt lat="38.369625" lon="-1.734046">
        <ele>347.0</ele>
        <time>2023-02-26T09:48:12Z</time>
      </trkpt>
      <trkpt lat="38.369600" lon="-1.733960">
        <ele>347.7</ele>
        <time>2023-02-26T09:48:16Z</time>
      </trkpt>
      <trkpt lat="38.369568" lon="-1.733884">
        <ele>349.5</ele>
        <time>2023-02-26T09:48:21Z</time>
      </trkpt>
      <trkpt lat="38.369545" lon="-1.733800">
        <ele>349.7</ele>
        <time>2023-02-26T09:48:25Z</time>
      </trkpt>
      <trkpt lat="38.369537" lon="-1.733716">
        <ele>349.7</ele>
        <time>2023-02-26T09:48:30Z</time>
      </trkpt>
      <trkpt lat="38.369523" lon="-1.733632">
        <ele>348.7</ele>
        <time>2023-02-26T09:48:35Z</time>
      </trkpt>
      <trkpt lat="38.369486" lon="-1.733557">
        <ele>349.7</ele>
        <time>2023-02-26T09:48:41Z</time>
      </trkpt>
      <trkpt lat="38.369534" lon="-1.733492">
        <ele>342.7</ele>
        <time>2023-02-26T09:49:09Z</time>
      </trkpt>
      <trkpt lat="38.369588" lon="-1.733437">
        <ele>340.7</ele>
        <time>2023-02-26T09:49:12Z</time>
      </trkpt>
      <trkpt lat="38.369641" lon="-1.733394">
        <ele>340.7</ele>
        <time>2023-02-26T09:49:17Z</time>
      </trkpt>
      <trkpt lat="38.369683" lon="-1.733330">
        <ele>339.7</ele>
        <time>2023-02-26T09:49:23Z</time>
      </trkpt>
      <trkpt lat="38.369717" lon="-1.733261">
        <ele>339.7</ele>
        <time>2023-02-26T09:49:27Z</time>
      </trkpt>
      <trkpt lat="38.369767" lon="-1.733209">
        <ele>340.7</ele>
        <time>2023-02-26T09:49:44Z</time>
      </trkpt>
      <trkpt lat="38.369775" lon="-1.733128">
        <ele>340.7</ele>
        <time>2023-02-26T09:49:48Z</time>
      </trkpt>
      <trkpt lat="38.369826" lon="-1.733075">
        <ele>342.7</ele>
        <time>2023-02-26T09:49:52Z</time>
      </trkpt>
      <trkpt lat="38.369893" lon="-1.733054">
        <ele>342.7</ele>
        <time>2023-02-26T09:49:56Z</time>
      </trkpt>
      <trkpt lat="38.369972" lon="-1.733027">
        <ele>342.7</ele>
        <time>2023-02-26T09:50:15Z</time>
      </trkpt>
      <trkpt lat="38.370042" lon="-1.733034">
        <ele>341.7</ele>
        <time>2023-02-26T09:50:19Z</time>
      </trkpt>
      <trkpt lat="38.370107" lon="-1.733039">
        <ele>340.7</ele>
        <time>2023-02-26T09:50:22Z</time>
      </trkpt>
      <trkpt lat="38.370180" lon="-1.733030">
        <ele>340.7</ele>
        <time>2023-02-26T09:50:26Z</time>
      </trkpt>
      <trkpt lat="38.370201" lon="-1.733096">
        <ele>339.0</ele>
        <time>2023-02-26T09:50:43Z</time>
      </trkpt>
      <trkpt lat="38.370222" lon="-1.733178">
        <ele>336.7</ele>
        <time>2023-02-26T09:50:49Z</time>
      </trkpt>
      <trkpt lat="38.370231" lon="-1.733250">
        <ele>336.7</ele>
        <time>2023-02-26T09:52:49Z</time>
      </trkpt>
      <trkpt lat="38.370240" lon="-1.733167">
        <ele>340.5</ele>
        <time>2023-02-26T09:52:59Z</time>
      </trkpt>
      <trkpt lat="38.370215" lon="-1.733096">
        <ele>340.7</ele>
        <time>2023-02-26T09:53:25Z</time>
      </trkpt>
      <trkpt lat="38.370212" lon="-1.733007">
        <ele>340.7</ele>
        <time>2023-02-26T09:53:29Z</time>
      </trkpt>
      <trkpt lat="38.370251" lon="-1.732941">
        <ele>341.7</ele>
        <time>2023-02-26T09:53:33Z</time>
      </trkpt>
      <trkpt lat="38.370313" lon="-1.732900">
        <ele>342.5</ele>
        <time>2023-02-26T09:53:38Z</time>
      </trkpt>
      <trkpt lat="38.370376" lon="-1.732872">
        <ele>342.0</ele>
        <time>2023-02-26T09:53:41Z</time>
      </trkpt>
      <trkpt lat="38.370436" lon="-1.732840">
        <ele>341.7</ele>
        <time>2023-02-26T09:53:45Z</time>
      </trkpt>
      <trkpt lat="38.370497" lon="-1.732800">
        <ele>342.7</ele>
        <time>2023-02-26T09:53:49Z</time>
      </trkpt>
      <trkpt lat="38.370554" lon="-1.732748">
        <ele>343.7</ele>
        <time>2023-02-26T09:53:54Z</time>
      </trkpt>
      <trkpt lat="38.370608" lon="-1.732703">
        <ele>343.7</ele>
        <time>2023-02-26T09:53:58Z</time>
      </trkpt>
      <trkpt lat="38.370659" lon="-1.732652">
        <ele>344.7</ele>
        <time>2023-02-26T09:54:02Z</time>
      </trkpt>
      <trkpt lat="38.370717" lon="-1.732612">
        <ele>344.8</ele>
        <time>2023-02-26T09:54:08Z</time>
      </trkpt>
      <trkpt lat="38.370774" lon="-1.732567">
        <ele>346.7</ele>
        <time>2023-02-26T09:54:12Z</time>
      </trkpt>
      <trkpt lat="38.370815" lon="-1.732501">
        <ele>346.7</ele>
        <time>2023-02-26T09:54:17Z</time>
      </trkpt>
      <trkpt lat="38.370852" lon="-1.732487">
        <ele>346.0</ele>
        <time>2023-02-26T09:55:07Z</time>
      </trkpt>
      <trkpt lat="38.370911" lon="-1.732449">
        <ele>345.5</ele>
        <time>2023-02-26T09:55:12Z</time>
      </trkpt>
      <trkpt lat="38.370976" lon="-1.732426">
        <ele>344.7</ele>
        <time>2023-02-26T09:55:16Z</time>
      </trkpt>
      <trkpt lat="38.371035" lon="-1.732392">
        <ele>345.7</ele>
        <time>2023-02-26T09:55:20Z</time>
      </trkpt>
      <trkpt lat="38.371091" lon="-1.732348">
        <ele>346.7</ele>
        <time>2023-02-26T09:55:24Z</time>
      </trkpt>
      <trkpt lat="38.371154" lon="-1.732324">
        <ele>347.7</ele>
        <time>2023-02-26T09:55:28Z</time>
      </trkpt>
      <trkpt lat="38.371217" lon="-1.732293">
        <ele>346.7</ele>
        <time>2023-02-26T09:55:32Z</time>
      </trkpt>
      <trkpt lat="38.371275" lon="-1.732250">
        <ele>346.7</ele>
        <time>2023-02-26T09:55:36Z</time>
      </trkpt>
      <trkpt lat="38.371337" lon="-1.732206">
        <ele>345.8</ele>
        <time>2023-02-26T09:55:41Z</time>
      </trkpt>
      <trkpt lat="38.371389" lon="-1.732159">
        <ele>346.7</ele>
        <time>2023-02-26T09:55:46Z</time>
      </trkpt>
      <trkpt lat="38.371441" lon="-1.732096">
        <ele>347.7</ele>
        <time>2023-02-26T09:55:50Z</time>
      </trkpt>
      <trkpt lat="38.371477" lon="-1.732016">
        <ele>345.7</ele>
        <time>2023-02-26T09:55:55Z</time>
      </trkpt>
      <trkpt lat="38.371514" lon="-1.731948">
        <ele>345.7</ele>
        <time>2023-02-26T09:55:59Z</time>
      </trkpt>
      <trkpt lat="38.371555" lon="-1.731872">
        <ele>345.7</ele>
        <time>2023-02-26T09:56:04Z</time>
      </trkpt>
      <trkpt lat="38.371585" lon="-1.731802">
        <ele>344.0</ele>
        <time>2023-02-26T09:56:08Z</time>
      </trkpt>
      <trkpt lat="38.371602" lon="-1.731724">
        <ele>344.7</ele>
        <time>2023-02-26T09:56:13Z</time>
      </trkpt>
      <trkpt lat="38.371629" lon="-1.731642">
        <ele>344.7</ele>
        <time>2023-02-26T09:56:17Z</time>
      </trkpt>
      <trkpt lat="38.371650" lon="-1.731566">
        <ele>344.7</ele>
        <time>2023-02-26T09:56:21Z</time>
      </trkpt>
      <trkpt lat="38.371649" lon="-1.731476">
        <ele>345.7</ele>
        <time>2023-02-26T09:56:25Z</time>
      </trkpt>
      <trkpt lat="38.371615" lon="-1.731397">
        <ele>347.5</ele>
        <time>2023-02-26T09:56:30Z</time>
      </trkpt>
      <trkpt lat="38.371609" lon="-1.731393">
        <ele>340.7</ele>
        <time>2023-02-26T10:10:55Z</time>
      </trkpt>
      <trkpt lat="38.371676" lon="-1.731401">
        <ele>342.7</ele>
        <time>2023-02-26T10:11:10Z</time>
      </trkpt>
      <trkpt lat="38.371748" lon="-1.731398">
        <ele>341.0</ele>
        <time>2023-02-26T10:11:16Z</time>
      </trkpt>
      <trkpt lat="38.371800" lon="-1.731446">
        <ele>342.7</ele>
        <time>2023-02-26T10:11:25Z</time>
      </trkpt>
      <trkpt lat="38.371863" lon="-1.731463">
        <ele>342.7</ele>
        <time>2023-02-26T10:11:31Z</time>
      </trkpt>
      <trkpt lat="38.371922" lon="-1.731436">
        <ele>341.8</ele>
        <time>2023-02-26T10:11:35Z</time>
      </trkpt>
      <trkpt lat="38.371985" lon="-1.731401">
        <ele>341.7</ele>
        <time>2023-02-26T10:11:40Z</time>
      </trkpt>
      <trkpt lat="38.372042" lon="-1.731362">
        <ele>342.5</ele>
        <time>2023-02-26T10:11:45Z</time>
      </trkpt>
      <trkpt lat="38.372108" lon="-1.731350">
        <ele>343.7</ele>
        <time>2023-02-26T10:11:54Z</time>
      </trkpt>
      <trkpt lat="38.372159" lon="-1.731292">
        <ele>341.8</ele>
        <time>2023-02-26T10:13:01Z</time>
      </trkpt>
      <trkpt lat="38.372157" lon="-1.731290">
        <ele>341.7</ele>
        <time>2023-02-26T10:15:00Z</time>
      </trkpt>
      <trkpt lat="38.372221" lon="-1.731308">
        <ele>340.7</ele>
        <time>2023-02-26T10:15:06Z</time>
      </trkpt>
      <trkpt lat="38.372285" lon="-1.731318">
        <ele>339.7</ele>
        <time>2023-02-26T10:15:11Z</time>
      </trkpt>
      <trkpt lat="38.372347" lon="-1.731286">
        <ele>339.7</ele>
        <time>2023-02-26T10:15:18Z</time>
      </trkpt>
      <trkpt lat="38.372406" lon="-1.731249">
        <ele>338.7</ele>
        <time>2023-02-26T10:15:24Z</time>
      </trkpt>
      <trkpt lat="38.372452" lon="-1.731193">
        <ele>342.7</ele>
        <time>2023-02-26T10:15:37Z</time>
      </trkpt>
      <trkpt lat="38.372462" lon="-1.731111">
        <ele>342.7</ele>
        <time>2023-02-26T10:15:45Z</time>
      </trkpt>
      <trkpt lat="38.372468" lon="-1.731028">
        <ele>343.7</ele>
        <time>2023-02-26T10:16:05Z</time>
      </trkpt>
      <trkpt lat="38.372452" lon="-1.730940">
        <ele>343.6</ele>
        <time>2023-02-26T10:16:12Z</time>
      </trkpt>
      <trkpt lat="38.372408" lon="-1.730874">
        <ele>343.7</ele>
        <time>2023-02-26T10:16:18Z</time>
      </trkpt>
      <trkpt lat="38.372388" lon="-1.730832">
        <ele>342.0</ele>
        <time>2023-02-26T10:16:33Z</time>
      </trkpt>
      <trkpt lat="38.372346" lon="-1.730778">
        <ele>340.7</ele>
        <time>2023-02-26T10:17:24Z</time>
      </trkpt>
      <trkpt lat="38.372373" lon="-1.730823">
        <ele>341.7</ele>
        <time>2023-02-26T10:18:13Z</time>
      </trkpt>
      <trkpt lat="38.372413" lon="-1.730903">
        <ele>338.0</ele>
        <time>2023-02-26T10:19:48Z</time>
      </trkpt>
      <trkpt lat="38.372385" lon="-1.730982">
        <ele>336.7</ele>
        <time>2023-02-26T10:20:03Z</time>
      </trkpt>
      <trkpt lat="38.372321" lon="-1.730956">
        <ele>337.7</ele>
        <time>2023-02-26T10:20:11Z</time>
      </trkpt>
      <trkpt lat="38.372259" lon="-1.730919">
        <ele>335.8</ele>
        <time>2023-02-26T10:20:19Z</time>
      </trkpt>
      <trkpt lat="38.372216" lon="-1.730857">
        <ele>332.0</ele>
        <time>2023-02-26T10:20:37Z</time>
      </trkpt>
      <trkpt lat="38.372206" lon="-1.730775">
        <ele>333.7</ele>
        <time>2023-02-26T10:20:58Z</time>
      </trkpt>
      <trkpt lat="38.372135" lon="-1.730760">
        <ele>336.7</ele>
        <time>2023-02-26T10:21:30Z</time>
      </trkpt>
      <trkpt lat="38.372069" lon="-1.730736">
        <ele>336.7</ele>
        <time>2023-02-26T10:21:35Z</time>
      </trkpt>
      <trkpt lat="38.371996" lon="-1.730723">
        <ele>336.7</ele>
        <time>2023-02-26T10:21:40Z</time>
      </trkpt>
      <trkpt lat="38.371931" lon="-1.730729">
        <ele>335.7</ele>
        <time>2023-02-26T10:21:44Z</time>
      </trkpt>
      <trkpt lat="38.371867" lon="-1.730696">
        <ele>334.7</ele>
        <time>2023-02-26T10:21:49Z</time>
      </trkpt>
      <trkpt lat="38.371818" lon="-1.730637">
        <ele>335.5</ele>
        <time>2023-02-26T10:22:10Z</time>
      </trkpt>
      <trkpt lat="38.371764" lon="-1.730595">
        <ele>334.7</ele>
        <time>2023-02-26T10:22:18Z</time>
      </trkpt>
      <trkpt lat="38.371721" lon="-1.730528">
        <ele>334.7</ele>
        <time>2023-02-26T10:22:23Z</time>
      </trkpt>
      <trkpt lat="38.371676" lon="-1.730472">
        <ele>333.7</ele>
        <time>2023-02-26T10:22:27Z</time>
      </trkpt>
      <trkpt lat="38.371644" lon="-1.730399">
        <ele>332.7</ele>
        <time>2023-02-26T10:22:32Z</time>
      </trkpt>
      <trkpt lat="38.371600" lon="-1.730321">
        <ele>334.7</ele>
        <time>2023-02-26T10:22:39Z</time>
      </trkpt>
      <trkpt lat="38.371570" lon="-1.730246">
        <ele>336.6</ele>
        <time>2023-02-26T10:22:43Z</time>
      </trkpt>
      <trkpt lat="38.371532" lon="-1.730177">
        <ele>336.7</ele>
        <time>2023-02-26T10:22:48Z</time>
      </trkpt>
      <trkpt lat="38.371486" lon="-1.730116">
        <ele>336.7</ele>
        <time>2023-02-26T10:22:53Z</time>
      </trkpt>
      <trkpt lat="38.371466" lon="-1.730034">
        <ele>336.5</ele>
        <time>2023-02-26T10:22:58Z</time>
      </trkpt>
      <trkpt lat="38.371434" lon="-1.729961">
        <ele>339.7</ele>
        <time>2023-02-26T10:23:03Z</time>
      </trkpt>
      <trkpt lat="38.371380" lon="-1.729911">
        <ele>338.7</ele>
        <time>2023-02-26T10:23:08Z</time>
      </trkpt>
      <trkpt lat="38.371339" lon="-1.729847">
        <ele>339.6</ele>
        <time>2023-02-26T10:23:12Z</time>
      </trkpt>
      <trkpt lat="38.371320" lon="-1.729768">
        <ele>340.7</ele>
        <time>2023-02-26T10:23:18Z</time>
      </trkpt>
      <trkpt lat="38.371312" lon="-1.729686">
        <ele>342.7</ele>
        <time>2023-02-26T10:23:38Z</time>
      </trkpt>
      <trkpt lat="38.371251" lon="-1.729658">
        <ele>343.7</ele>
        <time>2023-02-26T10:23:42Z</time>
      </trkpt>
      <trkpt lat="38.371198" lon="-1.729613">
        <ele>344.7</ele>
        <time>2023-02-26T10:23:46Z</time>
      </trkpt>
      <trkpt lat="38.371149" lon="-1.729562">
        <ele>345.6</ele>
        <time>2023-02-26T10:23:50Z</time>
      </trkpt>
      <trkpt lat="38.371103" lon="-1.729502">
        <ele>345.7</ele>
        <time>2023-02-26T10:23:55Z</time>
      </trkpt>
      <trkpt lat="38.371055" lon="-1.729432">
        <ele>344.8</ele>
        <time>2023-02-26T10:24:00Z</time>
      </trkpt>
      <trkpt lat="38.371017" lon="-1.729363">
        <ele>344.7</ele>
        <time>2023-02-26T10:24:05Z</time>
      </trkpt>
      <trkpt lat="38.370982" lon="-1.729294">
        <ele>344.7</ele>
        <time>2023-02-26T10:24:10Z</time>
      </trkpt>
      <trkpt lat="38.370957" lon="-1.729211">
        <ele>345.7</ele>
        <time>2023-02-26T10:24:15Z</time>
      </trkpt>
      <trkpt lat="38.370915" lon="-1.729146">
        <ele>343.7</ele>
        <time>2023-02-26T10:24:20Z</time>
      </trkpt>
      <trkpt lat="38.370859" lon="-1.729104">
        <ele>342.7</ele>
        <time>2023-02-26T10:24:26Z</time>
      </trkpt>
      <trkpt lat="38.370872" lon="-1.729022">
        <ele>342.5</ele>
        <time>2023-02-26T10:24:29Z</time>
      </trkpt>
      <trkpt lat="38.370842" lon="-1.728944">
        <ele>342.7</ele>
        <time>2023-02-26T10:24:34Z</time>
      </trkpt>
      <trkpt lat="38.370801" lon="-1.728876">
        <ele>341.8</ele>
        <time>2023-02-26T10:24:38Z</time>
      </trkpt>
      <trkpt lat="38.370751" lon="-1.728808">
        <ele>341.8</ele>
        <time>2023-02-26T10:24:43Z</time>
      </trkpt>
      <trkpt lat="38.370738" lon="-1.728725">
        <ele>342.7</ele>
        <time>2023-02-26T10:24:50Z</time>
      </trkpt>
      <trkpt lat="38.370718" lon="-1.728648">
        <ele>343.0</ele>
        <time>2023-02-26T10:24:55Z</time>
      </trkpt>
      <trkpt lat="38.370694" lon="-1.728567">
        <ele>342.7</ele>
        <time>2023-02-26T10:25:00Z</time>
      </trkpt>
      <trkpt lat="38.370652" lon="-1.728497">
        <ele>341.7</ele>
        <time>2023-02-26T10:25:05Z</time>
      </trkpt>
      <trkpt lat="38.370610" lon="-1.728428">
        <ele>342.7</ele>
        <time>2023-02-26T10:25:11Z</time>
      </trkpt>
      <trkpt lat="38.370562" lon="-1.728364">
        <ele>343.7</ele>
        <time>2023-02-26T10:25:16Z</time>
      </trkpt>
      <trkpt lat="38.370514" lon="-1.728298">
        <ele>343.7</ele>
        <time>2023-02-26T10:25:21Z</time>
      </trkpt>
      <trkpt lat="38.370467" lon="-1.728236">
        <ele>342.7</ele>
        <time>2023-02-26T10:25:26Z</time>
      </trkpt>
      <trkpt lat="38.370428" lon="-1.728166">
        <ele>344.6</ele>
        <time>2023-02-26T10:25:31Z</time>
      </trkpt>
      <trkpt lat="38.370385" lon="-1.728107">
        <ele>344.7</ele>
        <time>2023-02-26T10:25:36Z</time>
      </trkpt>
      <trkpt lat="38.370340" lon="-1.728038">
        <ele>344.6</ele>
        <time>2023-02-26T10:25:41Z</time>
      </trkpt>
      <trkpt lat="38.370285" lon="-1.727984">
        <ele>345.6</ele>
        <time>2023-02-26T10:25:46Z</time>
      </trkpt>
      <trkpt lat="38.370231" lon="-1.727937">
        <ele>346.6</ele>
        <time>2023-02-26T10:25:51Z</time>
      </trkpt>
      <trkpt lat="38.370188" lon="-1.727871">
        <ele>345.7</ele>
        <time>2023-02-26T10:25:56Z</time>
      </trkpt>
      <trkpt lat="38.370131" lon="-1.727825">
        <ele>346.6</ele>
        <time>2023-02-26T10:26:02Z</time>
      </trkpt>
      <trkpt lat="38.370079" lon="-1.727770">
        <ele>347.7</ele>
        <time>2023-02-26T10:26:07Z</time>
      </trkpt>
      <trkpt lat="38.370024" lon="-1.727730">
        <ele>348.7</ele>
        <time>2023-02-26T10:26:12Z</time>
      </trkpt>
      <trkpt lat="38.369967" lon="-1.727683">
        <ele>348.7</ele>
        <time>2023-02-26T10:26:18Z</time>
      </trkpt>
      <trkpt lat="38.369916" lon="-1.727629">
        <ele>349.6</ele>
        <time>2023-02-26T10:26:23Z</time>
      </trkpt>
      <trkpt lat="38.369866" lon="-1.727570">
        <ele>350.6</ele>
        <time>2023-02-26T10:26:29Z</time>
      </trkpt>
      <trkpt lat="38.369816" lon="-1.727513">
        <ele>351.6</ele>
        <time>2023-02-26T10:26:35Z</time>
      </trkpt>
      <trkpt lat="38.369762" lon="-1.727454">
        <ele>349.8</ele>
        <time>2023-02-26T10:26:41Z</time>
      </trkpt>
      <trkpt lat="38.369706" lon="-1.727411">
        <ele>349.7</ele>
        <time>2023-02-26T10:26:46Z</time>
      </trkpt>
      <trkpt lat="38.369668" lon="-1.727347">
        <ele>348.8</ele>
        <time>2023-02-26T10:26:51Z</time>
      </trkpt>
      <trkpt lat="38.369623" lon="-1.727272">
        <ele>348.7</ele>
        <time>2023-02-26T10:26:57Z</time>
      </trkpt>
      <trkpt lat="38.369590" lon="-1.727196">
        <ele>347.7</ele>
        <time>2023-02-26T10:27:03Z</time>
      </trkpt>
      <trkpt lat="38.369593" lon="-1.727114">
        <ele>346.7</ele>
        <time>2023-02-26T10:27:15Z</time>
      </trkpt>
      <trkpt lat="38.369562" lon="-1.727044">
        <ele>347.5</ele>
        <time>2023-02-26T10:27:20Z</time>
      </trkpt>
      <trkpt lat="38.369503" lon="-1.726995">
        <ele>346.0</ele>
        <time>2023-02-26T10:27:26Z</time>
      </trkpt>
      <trkpt lat="38.369463" lon="-1.726934">
        <ele>344.7</ele>
        <time>2023-02-26T10:27:31Z</time>
      </trkpt>
      <trkpt lat="38.369423" lon="-1.726864">
        <ele>345.7</ele>
        <time>2023-02-26T10:27:37Z</time>
      </trkpt>
      <trkpt lat="38.369375" lon="-1.726795">
        <ele>344.7</ele>
        <time>2023-02-26T10:27:47Z</time>
      </trkpt>
      <trkpt lat="38.369324" lon="-1.726739">
        <ele>348.5</ele>
        <time>2023-02-26T10:27:56Z</time>
      </trkpt>
      <trkpt lat="38.369261" lon="-1.726734">
        <ele>348.7</ele>
        <time>2023-02-26T10:27:59Z</time>
      </trkpt>
      <trkpt lat="38.369205" lon="-1.726685">
        <ele>347.7</ele>
        <time>2023-02-26T10:28:03Z</time>
      </trkpt>
      <trkpt lat="38.369165" lon="-1.726616">
        <ele>348.6</ele>
        <time>2023-02-26T10:28:09Z</time>
      </trkpt>
      <trkpt lat="38.369130" lon="-1.726539">
        <ele>347.7</ele>
        <time>2023-02-26T10:28:13Z</time>
      </trkpt>
      <trkpt lat="38.369084" lon="-1.726484">
        <ele>345.7</ele>
        <time>2023-02-26T10:28:20Z</time>
      </trkpt>
      <trkpt lat="38.369049" lon="-1.726416">
        <ele>346.6</ele>
        <time>2023-02-26T10:28:25Z</time>
      </trkpt>
      <trkpt lat="38.368996" lon="-1.726367">
        <ele>347.0</ele>
        <time>2023-02-26T10:28:30Z</time>
      </trkpt>
      <trkpt lat="38.368937" lon="-1.726326">
        <ele>347.8</ele>
        <time>2023-02-26T10:28:35Z</time>
      </trkpt>
      <trkpt lat="38.368889" lon="-1.726269">
        <ele>347.7</ele>
        <time>2023-02-26T10:28:41Z</time>
      </trkpt>
      <trkpt lat="38.368832" lon="-1.726219">
        <ele>347.7</ele>
        <time>2023-02-26T10:28:46Z</time>
      </trkpt>
      <trkpt lat="38.368774" lon="-1.726178">
        <ele>348.7</ele>
        <time>2023-02-26T10:28:51Z</time>
      </trkpt>
      <trkpt lat="38.368708" lon="-1.726151">
        <ele>348.7</ele>
        <time>2023-02-26T10:28:57Z</time>
      </trkpt>
      <trkpt lat="38.368657" lon="-1.726104">
        <ele>347.7</ele>
        <time>2023-02-26T10:29:04Z</time>
      </trkpt>
      <trkpt lat="38.368632" lon="-1.726016">
        <ele>350.5</ele>
        <time>2023-02-26T10:29:11Z</time>
      </trkpt>
      <trkpt lat="38.368616" lon="-1.725934">
        <ele>351.5</ele>
        <time>2023-02-26T10:29:16Z</time>
      </trkpt>
      <trkpt lat="38.368589" lon="-1.725851">
        <ele>351.7</ele>
        <time>2023-02-26T10:29:21Z</time>
      </trkpt>
      <trkpt lat="38.368541" lon="-1.725784">
        <ele>352.7</ele>
        <time>2023-02-26T10:29:27Z</time>
      </trkpt>
      <trkpt lat="38.368504" lon="-1.725718">
        <ele>353.6</ele>
        <time>2023-02-26T10:29:32Z</time>
      </trkpt>
      <trkpt lat="38.368458" lon="-1.725650">
        <ele>355.7</ele>
        <time>2023-02-26T10:29:38Z</time>
      </trkpt>
      <trkpt lat="38.368418" lon="-1.725588">
        <ele>355.7</ele>
        <time>2023-02-26T10:29:46Z</time>
      </trkpt>
      <trkpt lat="38.368366" lon="-1.725542">
        <ele>354.7</ele>
        <time>2023-02-26T10:29:53Z</time>
      </trkpt>
      <trkpt lat="38.368318" lon="-1.725490">
        <ele>353.7</ele>
        <time>2023-02-26T10:29:58Z</time>
      </trkpt>
      <trkpt lat="38.368278" lon="-1.725421">
        <ele>354.7</ele>
        <time>2023-02-26T10:30:05Z</time>
      </trkpt>
      <trkpt lat="38.368229" lon="-1.725365">
        <ele>352.8</ele>
        <time>2023-02-26T10:30:11Z</time>
      </trkpt>
      <trkpt lat="38.368182" lon="-1.725305">
        <ele>353.7</ele>
        <time>2023-02-26T10:30:17Z</time>
      </trkpt>
      <trkpt lat="38.368138" lon="-1.725241">
        <ele>355.7</ele>
        <time>2023-02-26T10:30:22Z</time>
      </trkpt>
      <trkpt lat="38.368101" lon="-1.725166">
        <ele>356.7</ele>
        <time>2023-02-26T10:30:28Z</time>
      </trkpt>
      <trkpt lat="38.368076" lon="-1.725090">
        <ele>357.7</ele>
        <time>2023-02-26T10:30:34Z</time>
      </trkpt>
      <trkpt lat="38.368050" lon="-1.725012">
        <ele>362.5</ele>
        <time>2023-02-26T10:30:57Z</time>
      </trkpt>
      <trkpt lat="38.367995" lon="-1.724968">
        <ele>363.7</ele>
        <time>2023-02-26T10:30:59Z</time>
      </trkpt>
      <trkpt lat="38.367972" lon="-1.724892">
        <ele>362.7</ele>
        <time>2023-02-26T10:31:09Z</time>
      </trkpt>
      <trkpt lat="38.367954" lon="-1.724814">
        <ele>362.7</ele>
        <time>2023-02-26T10:31:13Z</time>
      </trkpt>
      <trkpt lat="38.367945" lon="-1.724732">
        <ele>364.7</ele>
        <time>2023-02-26T10:31:20Z</time>
      </trkpt>
      <trkpt lat="38.367910" lon="-1.724662">
        <ele>365.7</ele>
        <time>2023-02-26T10:31:32Z</time>
      </trkpt>
      <trkpt lat="38.367865" lon="-1.724600">
        <ele>365.7</ele>
        <time>2023-02-26T10:31:36Z</time>
      </trkpt>
      <trkpt lat="38.367870" lon="-1.724520">
        <ele>365.7</ele>
        <time>2023-02-26T10:32:18Z</time>
      </trkpt>
      <trkpt lat="38.367830" lon="-1.724457">
        <ele>366.7</ele>
        <time>2023-02-26T10:32:23Z</time>
      </trkpt>
      <trkpt lat="38.367802" lon="-1.724383">
        <ele>368.7</ele>
        <time>2023-02-26T10:32:27Z</time>
      </trkpt>
      <trkpt lat="38.367779" lon="-1.724308">
        <ele>368.0</ele>
        <time>2023-02-26T10:32:32Z</time>
      </trkpt>
      <trkpt lat="38.367766" lon="-1.724218">
        <ele>367.7</ele>
        <time>2023-02-26T10:32:36Z</time>
      </trkpt>
      <trkpt lat="38.367756" lon="-1.724137">
        <ele>367.7</ele>
        <time>2023-02-26T10:32:42Z</time>
      </trkpt>
      <trkpt lat="38.367723" lon="-1.724059">
        <ele>370.7</ele>
        <time>2023-02-26T10:32:47Z</time>
      </trkpt>
      <trkpt lat="38.367689" lon="-1.723982">
        <ele>370.7</ele>
        <time>2023-02-26T10:32:52Z</time>
      </trkpt>
      <trkpt lat="38.367682" lon="-1.723893">
        <ele>372.7</ele>
        <time>2023-02-26T10:32:58Z</time>
      </trkpt>
      <trkpt lat="38.367659" lon="-1.723815">
        <ele>372.7</ele>
        <time>2023-02-26T10:33:03Z</time>
      </trkpt>
      <trkpt lat="38.367647" lon="-1.723734">
        <ele>374.7</ele>
        <time>2023-02-26T10:33:10Z</time>
      </trkpt>
      <trkpt lat="38.367651" lon="-1.723641">
        <ele>374.7</ele>
        <time>2023-02-26T10:33:15Z</time>
      </trkpt>
      <trkpt lat="38.367649" lon="-1.723560">
        <ele>374.7</ele>
        <time>2023-02-26T10:33:20Z</time>
      </trkpt>
      <trkpt lat="38.367648" lon="-1.723474">
        <ele>375.7</ele>
        <time>2023-02-26T10:33:26Z</time>
      </trkpt>
      <trkpt lat="38.367648" lon="-1.723392">
        <ele>374.7</ele>
        <time>2023-02-26T10:33:32Z</time>
      </trkpt>
      <trkpt lat="38.367664" lon="-1.723307">
        <ele>375.7</ele>
        <time>2023-02-26T10:33:38Z</time>
      </trkpt>
      <trkpt lat="38.367684" lon="-1.723230">
        <ele>375.7</ele>
        <time>2023-02-26T10:33:43Z</time>
      </trkpt>
      <trkpt lat="38.367706" lon="-1.723150">
        <ele>376.7</ele>
        <time>2023-02-26T10:33:49Z</time>
      </trkpt>
      <trkpt lat="38.367704" lon="-1.723069">
        <ele>377.7</ele>
        <time>2023-02-26T10:33:55Z</time>
      </trkpt>
      <trkpt lat="38.367669" lon="-1.722994">
        <ele>377.7</ele>
        <time>2023-02-26T10:34:00Z</time>
      </trkpt>
      <trkpt lat="38.367617" lon="-1.722946">
        <ele>378.7</ele>
        <time>2023-02-26T10:34:05Z</time>
      </trkpt>
      <trkpt lat="38.367569" lon="-1.722884">
        <ele>377.7</ele>
        <time>2023-02-26T10:34:11Z</time>
      </trkpt>
      <trkpt lat="38.367511" lon="-1.722850">
        <ele>378.5</ele>
        <time>2023-02-26T10:34:16Z</time>
      </trkpt>
      <trkpt lat="38.367449" lon="-1.722814">
        <ele>378.7</ele>
        <time>2023-02-26T10:34:21Z</time>
      </trkpt>
      <trkpt lat="38.367397" lon="-1.722761">
        <ele>379.7</ele>
        <time>2023-02-26T10:34:27Z</time>
      </trkpt>
      <trkpt lat="38.367346" lon="-1.722710">
        <ele>380.7</ele>
        <time>2023-02-26T10:34:33Z</time>
      </trkpt>
      <trkpt lat="38.367314" lon="-1.722639">
        <ele>379.7</ele>
        <time>2023-02-26T10:34:56Z</time>
      </trkpt>
      <trkpt lat="38.367242" lon="-1.722620">
        <ele>380.5</ele>
        <time>2023-02-26T10:35:06Z</time>
      </trkpt>
      <trkpt lat="38.367182" lon="-1.722574">
        <ele>380.7</ele>
        <time>2023-02-26T10:35:12Z</time>
      </trkpt>
      <trkpt lat="38.367126" lon="-1.722532">
        <ele>381.7</ele>
        <time>2023-02-26T10:35:18Z</time>
      </trkpt>
      <trkpt lat="38.367062" lon="-1.722513">
        <ele>380.7</ele>
        <time>2023-02-26T10:35:47Z</time>
      </trkpt>
      <trkpt lat="38.366998" lon="-1.722527">
        <ele>382.7</ele>
        <time>2023-02-26T10:35:52Z</time>
      </trkpt>
      <trkpt lat="38.366934" lon="-1.722517">
        <ele>382.7</ele>
        <time>2023-02-26T10:35:56Z</time>
      </trkpt>
      <trkpt lat="38.366871" lon="-1.722502">
        <ele>383.7</ele>
        <time>2023-02-26T10:36:01Z</time>
      </trkpt>
      <trkpt lat="38.366805" lon="-1.722494">
        <ele>383.7</ele>
        <time>2023-02-26T10:36:06Z</time>
      </trkpt>
      <trkpt lat="38.366747" lon="-1.722540">
        <ele>382.7</ele>
        <time>2023-02-26T10:36:14Z</time>
      </trkpt>
      <trkpt lat="38.366708" lon="-1.722604">
        <ele>382.8</ele>
        <time>2023-02-26T10:36:19Z</time>
      </trkpt>
      <trkpt lat="38.366636" lon="-1.722606">
        <ele>381.7</ele>
        <time>2023-02-26T10:36:24Z</time>
      </trkpt>
      <trkpt lat="38.366568" lon="-1.722564">
        <ele>381.7</ele>
        <time>2023-02-26T10:36:29Z</time>
      </trkpt>
      <trkpt lat="38.366524" lon="-1.722507">
        <ele>381.7</ele>
        <time>2023-02-26T10:36:33Z</time>
      </trkpt>
      <trkpt lat="38.366500" lon="-1.722429">
        <ele>382.0</ele>
        <time>2023-02-26T10:36:39Z</time>
      </trkpt>
      <trkpt lat="38.366484" lon="-1.722349">
        <ele>381.7</ele>
        <time>2023-02-26T10:36:44Z</time>
      </trkpt>
      <trkpt lat="38.366477" lon="-1.722265">
        <ele>382.7</ele>
        <time>2023-02-26T10:36:49Z</time>
      </trkpt>
      <trkpt lat="38.366470" lon="-1.722180">
        <ele>382.7</ele>
        <time>2023-02-26T10:36:54Z</time>
      </trkpt>
      <trkpt lat="38.366446" lon="-1.722101">
        <ele>382.7</ele>
        <time>2023-02-26T10:36:59Z</time>
      </trkpt>
      <trkpt lat="38.366417" lon="-1.722026">
        <ele>381.7</ele>
        <time>2023-02-26T10:37:03Z</time>
      </trkpt>
      <trkpt lat="38.366406" lon="-1.721938">
        <ele>382.7</ele>
        <time>2023-02-26T10:37:09Z</time>
      </trkpt>
      <trkpt lat="38.366378" lon="-1.721860">
        <ele>383.7</ele>
        <time>2023-02-26T10:37:15Z</time>
      </trkpt>
      <trkpt lat="38.366356" lon="-1.721773">
        <ele>383.7</ele>
        <time>2023-02-26T10:37:20Z</time>
      </trkpt>
      <trkpt lat="38.366305" lon="-1.721717">
        <ele>384.7</ele>
        <time>2023-02-26T10:37:25Z</time>
      </trkpt>
      <trkpt lat="38.366241" lon="-1.721682">
        <ele>383.7</ele>
        <time>2023-02-26T10:37:30Z</time>
      </trkpt>
      <trkpt lat="38.366199" lon="-1.721620">
        <ele>383.7</ele>
        <time>2023-02-26T10:37:41Z</time>
      </trkpt>
      <trkpt lat="38.366147" lon="-1.721570">
        <ele>384.7</ele>
        <time>2023-02-26T10:37:56Z</time>
      </trkpt>
      <trkpt lat="38.366157" lon="-1.721486">
        <ele>380.0</ele>
        <time>2023-02-26T10:38:09Z</time>
      </trkpt>
      <trkpt lat="38.366130" lon="-1.721406">
        <ele>379.7</ele>
        <time>2023-02-26T10:38:14Z</time>
      </trkpt>
      <trkpt lat="38.366088" lon="-1.721344">
        <ele>380.7</ele>
        <time>2023-02-26T10:38:20Z</time>
      </trkpt>
      <trkpt lat="38.366025" lon="-1.721317">
        <ele>379.7</ele>
        <time>2023-02-26T10:38:24Z</time>
      </trkpt>
      <trkpt lat="38.365973" lon="-1.721268">
        <ele>378.7</ele>
        <time>2023-02-26T10:38:28Z</time>
      </trkpt>
      <trkpt lat="38.365914" lon="-1.721228">
        <ele>379.7</ele>
        <time>2023-02-26T10:38:33Z</time>
      </trkpt>
      <trkpt lat="38.365881" lon="-1.721153">
        <ele>378.7</ele>
        <time>2023-02-26T10:38:38Z</time>
      </trkpt>
      <trkpt lat="38.365852" lon="-1.721081">
        <ele>380.7</ele>
        <time>2023-02-26T10:38:43Z</time>
      </trkpt>
      <trkpt lat="38.365826" lon="-1.721008">
        <ele>379.7</ele>
        <time>2023-02-26T10:38:49Z</time>
      </trkpt>
      <trkpt lat="38.365787" lon="-1.720927">
        <ele>378.8</ele>
        <time>2023-02-26T10:38:54Z</time>
      </trkpt>
      <trkpt lat="38.365754" lon="-1.720854">
        <ele>377.8</ele>
        <time>2023-02-26T10:38:59Z</time>
      </trkpt>
      <trkpt lat="38.365724" lon="-1.720766">
        <ele>377.7</ele>
        <time>2023-02-26T10:39:05Z</time>
      </trkpt>
      <trkpt lat="38.365726" lon="-1.720680">
        <ele>376.8</ele>
        <time>2023-02-26T10:39:10Z</time>
      </trkpt>
      <trkpt lat="38.365747" lon="-1.720602">
        <ele>374.8</ele>
        <time>2023-02-26T10:39:38Z</time>
      </trkpt>
      <trkpt lat="38.365792" lon="-1.720542">
        <ele>372.8</ele>
        <time>2023-02-26T10:39:43Z</time>
      </trkpt>
      <trkpt lat="38.365852" lon="-1.720505">
        <ele>371.8</ele>
        <time>2023-02-26T10:39:47Z</time>
      </trkpt>
      <trkpt lat="38.365916" lon="-1.720493">
        <ele>371.7</ele>
        <time>2023-02-26T10:40:01Z</time>
      </trkpt>
      <trkpt lat="38.365983" lon="-1.720512">
        <ele>370.7</ele>
        <time>2023-02-26T10:40:07Z</time>
      </trkpt>
      <trkpt lat="38.366045" lon="-1.720533">
        <ele>370.7</ele>
        <time>2023-02-26T10:40:14Z</time>
      </trkpt>
      <trkpt lat="38.366098" lon="-1.720487">
        <ele>370.8</ele>
        <time>2023-02-26T10:40:22Z</time>
      </trkpt>
      <trkpt lat="38.366124" lon="-1.720408">
        <ele>370.7</ele>
        <time>2023-02-26T10:40:28Z</time>
      </trkpt>
      <trkpt lat="38.366130" lon="-1.720328">
        <ele>370.5</ele>
        <time>2023-02-26T10:40:33Z</time>
      </trkpt>
      <trkpt lat="38.366135" lon="-1.720246">
        <ele>368.8</ele>
        <time>2023-02-26T10:40:38Z</time>
      </trkpt>
      <trkpt lat="38.366129" lon="-1.720166">
        <ele>366.8</ele>
        <time>2023-02-26T10:40:43Z</time>
      </trkpt>
      <trkpt lat="38.366097" lon="-1.720092">
        <ele>365.7</ele>
        <time>2023-02-26T10:40:52Z</time>
      </trkpt>
      <trkpt lat="38.366027" lon="-1.720068">
        <ele>365.5</ele>
        <time>2023-02-26T10:41:07Z</time>
      </trkpt>
      <trkpt lat="38.365965" lon="-1.720049">
        <ele>365.7</ele>
        <time>2023-02-26T10:41:12Z</time>
      </trkpt>
      <trkpt lat="38.365897" lon="-1.720053">
        <ele>364.7</ele>
        <time>2023-02-26T10:41:17Z</time>
      </trkpt>
      <trkpt lat="38.365828" lon="-1.720055">
        <ele>365.0</ele>
        <time>2023-02-26T10:41:23Z</time>
      </trkpt>
      <trkpt lat="38.365765" lon="-1.720061">
        <ele>364.7</ele>
        <time>2023-02-26T10:41:27Z</time>
      </trkpt>
      <trkpt lat="38.365697" lon="-1.720065">
        <ele>364.7</ele>
        <time>2023-02-26T10:41:33Z</time>
      </trkpt>
      <trkpt lat="38.365635" lon="-1.720078">
        <ele>363.7</ele>
        <time>2023-02-26T10:41:38Z</time>
      </trkpt>
      <trkpt lat="38.365567" lon="-1.720100">
        <ele>363.7</ele>
        <time>2023-02-26T10:41:44Z</time>
      </trkpt>
      <trkpt lat="38.365503" lon="-1.720115">
        <ele>363.7</ele>
        <time>2023-02-26T10:41:50Z</time>
      </trkpt>
      <trkpt lat="38.365430" lon="-1.720130">
        <ele>362.8</ele>
        <time>2023-02-26T10:41:55Z</time>
      </trkpt>
      <trkpt lat="38.365361" lon="-1.720147">
        <ele>360.7</ele>
        <time>2023-02-26T10:42:02Z</time>
      </trkpt>
      <trkpt lat="38.365293" lon="-1.720161">
        <ele>359.8</ele>
        <time>2023-02-26T10:42:08Z</time>
      </trkpt>
      <trkpt lat="38.365230" lon="-1.720176">
        <ele>360.7</ele>
        <time>2023-02-26T10:42:12Z</time>
      </trkpt>
      <trkpt lat="38.365185" lon="-1.720233">
        <ele>357.8</ele>
        <time>2023-02-26T10:42:18Z</time>
      </trkpt>
      <trkpt lat="38.365176" lon="-1.720320">
        <ele>356.7</ele>
        <time>2023-02-26T10:42:23Z</time>
      </trkpt>
      <trkpt lat="38.365180" lon="-1.720402">
        <ele>355.7</ele>
        <time>2023-02-26T10:42:28Z</time>
      </trkpt>
      <trkpt lat="38.365156" lon="-1.720477">
        <ele>354.7</ele>
        <time>2023-02-26T10:42:33Z</time>
      </trkpt>
      <trkpt lat="38.365100" lon="-1.720526">
        <ele>352.7</ele>
        <time>2023-02-26T10:42:39Z</time>
      </trkpt>
      <trkpt lat="38.365035" lon="-1.720529">
        <ele>354.7</ele>
        <time>2023-02-26T10:42:44Z</time>
      </trkpt>
      <trkpt lat="38.364969" lon="-1.720513">
        <ele>355.7</ele>
        <time>2023-02-26T10:42:49Z</time>
      </trkpt>
      <trkpt lat="38.364905" lon="-1.720513">
        <ele>354.7</ele>
        <time>2023-02-26T10:42:55Z</time>
      </trkpt>
      <trkpt lat="38.364842" lon="-1.720485">
        <ele>354.7</ele>
        <time>2023-02-26T10:43:01Z</time>
      </trkpt>
      <trkpt lat="38.364782" lon="-1.720445">
        <ele>353.7</ele>
        <time>2023-02-26T10:43:08Z</time>
      </trkpt>
      <trkpt lat="38.364716" lon="-1.720426">
        <ele>353.7</ele>
        <time>2023-02-26T10:43:14Z</time>
      </trkpt>
      <trkpt lat="38.364655" lon="-1.720407">
        <ele>352.8</ele>
        <time>2023-02-26T10:43:19Z</time>
      </trkpt>
      <trkpt lat="38.364592" lon="-1.720390">
        <ele>351.8</ele>
        <time>2023-02-26T10:43:25Z</time>
      </trkpt>
      <trkpt lat="38.364527" lon="-1.720407">
        <ele>351.7</ele>
        <time>2023-02-26T10:43:30Z</time>
      </trkpt>
      <trkpt lat="38.364462" lon="-1.720388">
        <ele>349.8</ele>
        <time>2023-02-26T10:43:36Z</time>
      </trkpt>
      <trkpt lat="38.364429" lon="-1.720317">
        <ele>348.0</ele>
        <time>2023-02-26T10:43:42Z</time>
      </trkpt>
      <trkpt lat="38.364414" lon="-1.720236">
        <ele>345.7</ele>
        <time>2023-02-26T10:43:50Z</time>
      </trkpt>
      <trkpt lat="38.364363" lon="-1.720187">
        <ele>345.7</ele>
        <time>2023-02-26T10:43:56Z</time>
      </trkpt>
      <trkpt lat="38.364299" lon="-1.720199">
        <ele>344.0</ele>
        <time>2023-02-26T10:43:59Z</time>
      </trkpt>
      <trkpt lat="38.364239" lon="-1.720223">
        <ele>343.7</ele>
        <time>2023-02-26T10:44:04Z</time>
      </trkpt>
      <trkpt lat="38.364180" lon="-1.720273">
        <ele>342.8</ele>
        <time>2023-02-26T10:44:11Z</time>
      </trkpt>
      <trkpt lat="38.364115" lon="-1.720290">
        <ele>341.7</ele>
        <time>2023-02-26T10:44:18Z</time>
      </trkpt>
      <trkpt lat="38.364051" lon="-1.720281">
        <ele>340.8</ele>
        <time>2023-02-26T10:44:23Z</time>
      </trkpt>
      <trkpt lat="38.363985" lon="-1.720297">
        <ele>339.0</ele>
        <time>2023-02-26T10:44:28Z</time>
      </trkpt>
      <trkpt lat="38.363916" lon="-1.720293">
        <ele>338.7</ele>
        <time>2023-02-26T10:44:33Z</time>
      </trkpt>
      <trkpt lat="38.363853" lon="-1.720293">
        <ele>339.5</ele>
        <time>2023-02-26T10:44:38Z</time>
      </trkpt>
      <trkpt lat="38.363792" lon="-1.720320">
        <ele>339.5</ele>
        <time>2023-02-26T10:44:44Z</time>
      </trkpt>
      <trkpt lat="38.363723" lon="-1.720298">
        <ele>338.7</ele>
        <time>2023-02-26T10:44:52Z</time>
      </trkpt>
      <trkpt lat="38.363658" lon="-1.720311">
        <ele>335.7</ele>
        <time>2023-02-26T10:45:00Z</time>
      </trkpt>
      <trkpt lat="38.363594" lon="-1.720317">
        <ele>334.8</ele>
        <time>2023-02-26T10:45:09Z</time>
      </trkpt>
      <trkpt lat="38.363528" lon="-1.720317">
        <ele>335.7</ele>
        <time>2023-02-26T10:45:17Z</time>
      </trkpt>
      <trkpt lat="38.363464" lon="-1.720304">
        <ele>335.7</ele>
        <time>2023-02-26T10:45:24Z</time>
      </trkpt>
      <trkpt lat="38.363399" lon="-1.720306">
        <ele>336.7</ele>
        <time>2023-02-26T10:45:31Z</time>
      </trkpt>
      <trkpt lat="38.363329" lon="-1.720338">
        <ele>338.7</ele>
        <time>2023-02-26T10:45:55Z</time>
      </trkpt>
      <trkpt lat="38.363282" lon="-1.720273">
        <ele>337.7</ele>
        <time>2023-02-26T10:46:00Z</time>
      </trkpt>
      <trkpt lat="38.363272" lon="-1.720193">
        <ele>337.8</ele>
        <time>2023-02-26T10:46:05Z</time>
      </trkpt>
      <trkpt lat="38.363265" lon="-1.720109">
        <ele>337.7</ele>
        <time>2023-02-26T10:46:11Z</time>
      </trkpt>
      <trkpt lat="38.363249" lon="-1.720018">
        <ele>341.5</ele>
        <time>2023-02-26T10:46:17Z</time>
      </trkpt>
      <trkpt lat="38.363214" lon="-1.719947">
        <ele>342.0</ele>
        <time>2023-02-26T10:46:27Z</time>
      </trkpt>
      <trkpt lat="38.363190" lon="-1.719872">
        <ele>338.8</ele>
        <time>2023-02-26T10:46:35Z</time>
      </trkpt>
      <trkpt lat="38.363135" lon="-1.719825">
        <ele>339.7</ele>
        <time>2023-02-26T10:46:43Z</time>
      </trkpt>
      <trkpt lat="38.363072" lon="-1.719822">
        <ele>338.8</ele>
        <time>2023-02-26T10:46:51Z</time>
      </trkpt>
      <trkpt lat="38.363002" lon="-1.719820">
        <ele>337.7</ele>
        <time>2023-02-26T10:46:58Z</time>
      </trkpt>
      <trkpt lat="38.362921" lon="-1.719788">
        <ele>340.7</ele>
        <time>2023-02-26T10:47:07Z</time>
      </trkpt>
      <trkpt lat="38.362908" lon="-1.719701">
        <ele>343.7</ele>
        <time>2023-02-26T10:47:14Z</time>
      </trkpt>
      <trkpt lat="38.362879" lon="-1.719623">
        <ele>344.7</ele>
        <time>2023-02-26T10:47:21Z</time>
      </trkpt>
      <trkpt lat="38.362864" lon="-1.719545">
        <ele>346.7</ele>
        <time>2023-02-26T10:47:27Z</time>
      </trkpt>
      <trkpt lat="38.362864" lon="-1.719461">
        <ele>348.7</ele>
        <time>2023-02-26T10:47:35Z</time>
      </trkpt>
      <trkpt lat="38.362884" lon="-1.719383">
        <ele>354.7</ele>
        <time>2023-02-26T10:48:00Z</time>
      </trkpt>
      <trkpt lat="38.362872" lon="-1.719299">
        <ele>351.7</ele>
        <time>2023-02-26T10:48:51Z</time>
      </trkpt>
      <trkpt lat="38.362901" lon="-1.719224">
        <ele>352.0</ele>
        <time>2023-02-26T10:48:57Z</time>
      </trkpt>
      <trkpt lat="38.362879" lon="-1.719149">
        <ele>352.0</ele>
        <time>2023-02-26T10:49:04Z</time>
      </trkpt>
      <trkpt lat="38.362879" lon="-1.719058">
        <ele>352.7</ele>
        <time>2023-02-26T10:49:10Z</time>
      </trkpt>
      <trkpt lat="38.362891" lon="-1.718981">
        <ele>352.7</ele>
        <time>2023-02-26T10:49:15Z</time>
      </trkpt>
      <trkpt lat="38.362908" lon="-1.718903">
        <ele>352.8</ele>
        <time>2023-02-26T10:49:20Z</time>
      </trkpt>
      <trkpt lat="38.362904" lon="-1.718816">
        <ele>351.7</ele>
        <time>2023-02-26T10:49:26Z</time>
      </trkpt>
      <trkpt lat="38.362879" lon="-1.718738">
        <ele>350.7</ele>
        <time>2023-02-26T10:49:33Z</time>
      </trkpt>
      <trkpt lat="38.362857" lon="-1.718659">
        <ele>349.0</ele>
        <time>2023-02-26T10:49:39Z</time>
      </trkpt>
      <trkpt lat="38.362857" lon="-1.718572">
        <ele>346.7</ele>
        <time>2023-02-26T10:49:46Z</time>
      </trkpt>
      <trkpt lat="38.362852" lon="-1.718491">
        <ele>345.7</ele>
        <time>2023-02-26T10:49:53Z</time>
      </trkpt>
      <trkpt lat="38.362847" lon="-1.718410">
        <ele>344.8</ele>
        <time>2023-02-26T10:49:59Z</time>
      </trkpt>
      <trkpt lat="38.362828" lon="-1.718326">
        <ele>346.0</ele>
        <time>2023-02-26T10:50:04Z</time>
      </trkpt>
      <trkpt lat="38.362813" lon="-1.718242">
        <ele>344.7</ele>
        <time>2023-02-26T10:50:10Z</time>
      </trkpt>
      <trkpt lat="38.362772" lon="-1.718167">
        <ele>341.7</ele>
        <time>2023-02-26T10:50:16Z</time>
      </trkpt>
      <trkpt lat="38.362755" lon="-1.718089">
        <ele>340.8</ele>
        <time>2023-02-26T10:50:22Z</time>
      </trkpt>
      <trkpt lat="38.362747" lon="-1.718009">
        <ele>339.7</ele>
        <time>2023-02-26T10:50:27Z</time>
      </trkpt>
      <trkpt lat="38.362725" lon="-1.717931">
        <ele>339.0</ele>
        <time>2023-02-26T10:50:33Z</time>
      </trkpt>
      <trkpt lat="38.362688" lon="-1.717859">
        <ele>336.7</ele>
        <time>2023-02-26T10:50:39Z</time>
      </trkpt>
      <trkpt lat="38.362649" lon="-1.717793">
        <ele>334.8</ele>
        <time>2023-02-26T10:50:44Z</time>
      </trkpt>
      <trkpt lat="38.362618" lon="-1.717725">
        <ele>334.7</ele>
        <time>2023-02-26T10:50:48Z</time>
      </trkpt>
      <trkpt lat="38.362588" lon="-1.717647">
        <ele>334.7</ele>
        <time>2023-02-26T10:50:54Z</time>
      </trkpt>
      <trkpt lat="38.362571" lon="-1.717569">
        <ele>335.7</ele>
        <time>2023-02-26T10:50:59Z</time>
      </trkpt>
      <trkpt lat="38.362557" lon="-1.717479">
        <ele>335.5</ele>
        <time>2023-02-26T10:51:06Z</time>
      </trkpt>
      <trkpt lat="38.362502" lon="-1.717430">
        <ele>334.7</ele>
        <time>2023-02-26T10:51:12Z</time>
      </trkpt>
      <trkpt lat="38.362467" lon="-1.717353">
        <ele>334.7</ele>
        <time>2023-02-26T10:51:18Z</time>
      </trkpt>
      <trkpt lat="38.362440" lon="-1.717276">
        <ele>334.7</ele>
        <time>2023-02-26T10:51:23Z</time>
      </trkpt>
      <trkpt lat="38.362366" lon="-1.717223">
        <ele>334.0</ele>
        <time>2023-02-26T10:51:28Z</time>
      </trkpt>
      <trkpt lat="38.362346" lon="-1.717136">
        <ele>335.7</ele>
        <time>2023-02-26T10:51:34Z</time>
      </trkpt>
      <trkpt lat="38.362315" lon="-1.717064">
        <ele>334.7</ele>
        <time>2023-02-26T10:51:38Z</time>
      </trkpt>
      <trkpt lat="38.362281" lon="-1.716986">
        <ele>335.7</ele>
        <time>2023-02-26T10:51:44Z</time>
      </trkpt>
      <trkpt lat="38.362251" lon="-1.716914">
        <ele>335.7</ele>
        <time>2023-02-26T10:51:49Z</time>
      </trkpt>
      <trkpt lat="38.362229" lon="-1.716833">
        <ele>335.7</ele>
        <time>2023-02-26T10:51:55Z</time>
      </trkpt>
      <trkpt lat="38.362215" lon="-1.716752">
        <ele>335.7</ele>
        <time>2023-02-26T10:52:00Z</time>
      </trkpt>
      <trkpt lat="38.362188" lon="-1.716674">
        <ele>334.7</ele>
        <time>2023-02-26T10:52:05Z</time>
      </trkpt>
      <trkpt lat="38.362158" lon="-1.716603">
        <ele>333.7</ele>
        <time>2023-02-26T10:52:10Z</time>
      </trkpt>
      <trkpt lat="38.362127" lon="-1.716534">
        <ele>335.7</ele>
        <time>2023-02-26T10:52:15Z</time>
      </trkpt>
      <trkpt lat="38.362095" lon="-1.716453">
        <ele>335.7</ele>
        <time>2023-02-26T10:52:21Z</time>
      </trkpt>
      <trkpt lat="38.362090" lon="-1.716372">
        <ele>335.8</ele>
        <time>2023-02-26T10:52:28Z</time>
      </trkpt>
      <trkpt lat="38.362075" lon="-1.716285">
        <ele>334.8</ele>
        <time>2023-02-26T10:52:34Z</time>
      </trkpt>
      <trkpt lat="38.362125" lon="-1.716180">
        <ele>335.7</ele>
        <time>2023-02-26T10:52:40Z</time>
      </trkpt>
      <trkpt lat="38.362194" lon="-1.716166">
        <ele>335.9</ele>
        <time>2023-02-26T10:52:58Z</time>
      </trkpt>
      <trkpt lat="38.362251" lon="-1.716215">
        <ele>335.7</ele>
        <time>2023-02-26T10:53:06Z</time>
      </trkpt>
      <trkpt lat="38.362293" lon="-1.716148">
        <ele>336.9</ele>
        <time>2023-02-26T10:53:24Z</time>
      </trkpt>
      <trkpt lat="38.362362" lon="-1.716130">
        <ele>333.7</ele>
        <time>2023-02-26T10:53:51Z</time>
      </trkpt>
      <trkpt lat="38.362427" lon="-1.716104">
        <ele>333.0</ele>
        <time>2023-02-26T10:53:56Z</time>
      </trkpt>
      <trkpt lat="38.362468" lon="-1.716040">
        <ele>330.8</ele>
        <time>2023-02-26T10:54:00Z</time>
      </trkpt>
      <trkpt lat="38.362529" lon="-1.716008">
        <ele>332.7</ele>
        <time>2023-02-26T10:54:07Z</time>
      </trkpt>
      <trkpt lat="38.362582" lon="-1.715960">
        <ele>331.0</ele>
        <time>2023-02-26T10:54:14Z</time>
      </trkpt>
      <trkpt lat="38.362638" lon="-1.715919">
        <ele>329.1</ele>
        <time>2023-02-26T10:54:20Z</time>
      </trkpt>
      <trkpt lat="38.362692" lon="-1.715874">
        <ele>327.8</ele>
        <time>2023-02-26T10:54:25Z</time>
      </trkpt>
      <trkpt lat="38.362754" lon="-1.715845">
        <ele>327.5</ele>
        <time>2023-02-26T10:54:29Z</time>
      </trkpt>
      <trkpt lat="38.362805" lon="-1.715791">
        <ele>328.7</ele>
        <time>2023-02-26T10:54:35Z</time>
      </trkpt>
      <trkpt lat="38.362856" lon="-1.715742">
        <ele>329.7</ele>
        <time>2023-02-26T10:54:41Z</time>
      </trkpt>
      <trkpt lat="38.362876" lon="-1.715661">
        <ele>328.7</ele>
        <time>2023-02-26T10:54:47Z</time>
      </trkpt>
      <trkpt lat="38.362890" lon="-1.715580">
        <ele>327.8</ele>
        <time>2023-02-26T10:54:53Z</time>
      </trkpt>
      <trkpt lat="38.362927" lon="-1.715512">
        <ele>328.7</ele>
        <time>2023-02-26T10:55:03Z</time>
      </trkpt>
      <trkpt lat="38.362905" lon="-1.715480">
        <ele>329.0</ele>
        <time>2023-02-26T10:59:46Z</time>
      </trkpt>
      <trkpt lat="38.362931" lon="-1.715401">
        <ele>324.7</ele>
        <time>2023-02-26T11:00:56Z</time>
      </trkpt>
      <trkpt lat="38.362954" lon="-1.715325">
        <ele>325.7</ele>
        <time>2023-02-26T11:01:00Z</time>
      </trkpt>
      <trkpt lat="38.362988" lon="-1.715251">
        <ele>324.7</ele>
        <time>2023-02-26T11:01:12Z</time>
      </trkpt>
      <trkpt lat="38.363048" lon="-1.715228">
        <ele>327.0</ele>
        <time>2023-02-26T11:01:43Z</time>
      </trkpt>
      <trkpt lat="38.363102" lon="-1.715088">
        <ele>325.0</ele>
        <time>2023-02-26T11:03:02Z</time>
      </trkpt>
      <trkpt lat="38.363128" lon="-1.715012">
        <ele>321.8</ele>
        <time>2023-02-26T11:03:16Z</time>
      </trkpt>
      <trkpt lat="38.363126" lon="-1.715007">
        <ele>324.8</ele>
        <time>2023-02-26T11:03:52Z</time>
      </trkpt>
      <trkpt lat="38.363157" lon="-1.714935">
        <ele>327.8</ele>
        <time>2023-02-26T11:04:39Z</time>
      </trkpt>
      <trkpt lat="38.363198" lon="-1.714866">
        <ele>326.8</ele>
        <time>2023-02-26T11:04:48Z</time>
      </trkpt>
      <trkpt lat="38.363234" lon="-1.714792">
        <ele>325.7</ele>
        <time>2023-02-26T11:04:55Z</time>
      </trkpt>
      <trkpt lat="38.363236" lon="-1.714706">
        <ele>323.8</ele>
        <time>2023-02-26T11:05:09Z</time>
      </trkpt>
      <trkpt lat="38.363252" lon="-1.714622">
        <ele>316.8</ele>
        <time>2023-02-26T11:05:26Z</time>
      </trkpt>
      <trkpt lat="38.363263" lon="-1.714532">
        <ele>314.0</ele>
        <time>2023-02-26T11:05:33Z</time>
      </trkpt>
      <trkpt lat="38.363287" lon="-1.714451">
        <ele>313.7</ele>
        <time>2023-02-26T11:05:40Z</time>
      </trkpt>
      <trkpt lat="38.363310" lon="-1.714373">
        <ele>315.8</ele>
        <time>2023-02-26T11:05:55Z</time>
      </trkpt>
      <trkpt lat="38.363358" lon="-1.714319">
        <ele>316.8</ele>
        <time>2023-02-26T11:06:04Z</time>
      </trkpt>
      <trkpt lat="38.363421" lon="-1.714311">
        <ele>321.8</ele>
        <time>2023-02-26T11:06:23Z</time>
      </trkpt>
      <trkpt lat="38.363460" lon="-1.714242">
        <ele>321.8</ele>
        <time>2023-02-26T11:06:55Z</time>
      </trkpt>
      <trkpt lat="38.363532" lon="-1.714224">
        <ele>318.0</ele>
        <time>2023-02-26T11:07:08Z</time>
      </trkpt>
      <trkpt lat="38.363567" lon="-1.714155">
        <ele>316.8</ele>
        <time>2023-02-26T11:07:13Z</time>
      </trkpt>
      <trkpt lat="38.363612" lon="-1.714099">
        <ele>316.7</ele>
        <time>2023-02-26T11:07:19Z</time>
      </trkpt>
      <trkpt lat="38.363670" lon="-1.714064">
        <ele>315.8</ele>
        <time>2023-02-26T11:07:24Z</time>
      </trkpt>
      <trkpt lat="38.363729" lon="-1.714027">
        <ele>318.4</ele>
        <time>2023-02-26T11:07:30Z</time>
      </trkpt>
      <trkpt lat="38.363792" lon="-1.714000">
        <ele>318.8</ele>
        <time>2023-02-26T11:07:36Z</time>
      </trkpt>
      <trkpt lat="38.363865" lon="-1.714006">
        <ele>317.8</ele>
        <time>2023-02-26T11:07:42Z</time>
      </trkpt>
      <trkpt lat="38.363933" lon="-1.714010">
        <ele>320.7</ele>
        <time>2023-02-26T11:07:45Z</time>
      </trkpt>
      <trkpt lat="38.364008" lon="-1.714079">
        <ele>320.5</ele>
        <time>2023-02-26T11:08:45Z</time>
      </trkpt>
      <trkpt lat="38.364026" lon="-1.714152">
        <ele>324.5</ele>
        <time>2023-02-26T11:12:32Z</time>
      </trkpt>
      <trkpt lat="38.364091" lon="-1.714141">
        <ele>324.7</ele>
        <time>2023-02-26T11:13:05Z</time>
      </trkpt>
      <trkpt lat="38.364157" lon="-1.714165">
        <ele>325.0</ele>
        <time>2023-02-26T11:13:16Z</time>
      </trkpt>
      <trkpt lat="38.364222" lon="-1.714183">
        <ele>326.7</ele>
        <time>2023-02-26T11:13:23Z</time>
      </trkpt>
      <trkpt lat="38.364297" lon="-1.714164">
        <ele>325.7</ele>
        <time>2023-02-26T11:13:36Z</time>
      </trkpt>
      <trkpt lat="38.364359" lon="-1.714194">
        <ele>325.7</ele>
        <time>2023-02-26T11:13:44Z</time>
      </trkpt>
      <trkpt lat="38.364429" lon="-1.714205">
        <ele>326.8</ele>
        <time>2023-02-26T11:13:51Z</time>
      </trkpt>
      <trkpt lat="38.364511" lon="-1.714220">
        <ele>325.7</ele>
        <time>2023-02-26T11:17:42Z</time>
      </trkpt>
      <trkpt lat="38.364576" lon="-1.714204">
        <ele>329.8</ele>
        <time>2023-02-26T11:18:05Z</time>
      </trkpt>
      <trkpt lat="38.364627" lon="-1.714145">
        <ele>326.8</ele>
        <time>2023-02-26T11:18:11Z</time>
      </trkpt>
      <trkpt lat="38.364682" lon="-1.714094">
        <ele>324.8</ele>
        <time>2023-02-26T11:18:18Z</time>
      </trkpt>
      <trkpt lat="38.364735" lon="-1.714050">
        <ele>324.7</ele>
        <time>2023-02-26T11:18:24Z</time>
      </trkpt>
      <trkpt lat="38.364787" lon="-1.714001">
        <ele>322.8</ele>
        <time>2023-02-26T11:18:30Z</time>
      </trkpt>
      <trkpt lat="38.364852" lon="-1.713969">
        <ele>323.7</ele>
        <time>2023-02-26T11:18:36Z</time>
      </trkpt>
      <trkpt lat="38.364914" lon="-1.713941">
        <ele>324.7</ele>
        <time>2023-02-26T11:18:41Z</time>
      </trkpt>
      <trkpt lat="38.364974" lon="-1.713906">
        <ele>326.7</ele>
        <time>2023-02-26T11:18:47Z</time>
      </trkpt>
      <trkpt lat="38.365039" lon="-1.713890">
        <ele>326.7</ele>
        <time>2023-02-26T11:18:53Z</time>
      </trkpt>
      <trkpt lat="38.365104" lon="-1.713869">
        <ele>326.7</ele>
        <time>2023-02-26T11:19:00Z</time>
      </trkpt>
      <trkpt lat="38.365169" lon="-1.713861">
        <ele>325.8</ele>
        <time>2023-02-26T11:19:07Z</time>
      </trkpt>
      <trkpt lat="38.365234" lon="-1.713865">
        <ele>327.8</ele>
        <time>2023-02-26T11:19:15Z</time>
      </trkpt>
      <trkpt lat="38.365298" lon="-1.713856">
        <ele>326.0</ele>
        <time>2023-02-26T11:19:24Z</time>
      </trkpt>
      <trkpt lat="38.365364" lon="-1.713855">
        <ele>325.7</ele>
        <time>2023-02-26T11:19:29Z</time>
      </trkpt>
      <trkpt lat="38.365428" lon="-1.713841">
        <ele>324.8</ele>
        <time>2023-02-26T11:19:33Z</time>
      </trkpt>
      <trkpt lat="38.365485" lon="-1.713794">
        <ele>324.5</ele>
        <time>2023-02-26T11:19:39Z</time>
      </trkpt>
      <trkpt lat="38.365545" lon="-1.713761">
        <ele>325.7</ele>
        <time>2023-02-26T11:19:45Z</time>
      </trkpt>
      <trkpt lat="38.365607" lon="-1.713774">
        <ele>326.0</ele>
        <time>2023-02-26T11:19:51Z</time>
      </trkpt>
      <trkpt lat="38.365672" lon="-1.713768">
        <ele>326.7</ele>
        <time>2023-02-26T11:19:56Z</time>
      </trkpt>
      <trkpt lat="38.365737" lon="-1.713776">
        <ele>326.5</ele>
        <time>2023-02-26T11:20:03Z</time>
      </trkpt>
      <trkpt lat="38.365810" lon="-1.713773">
        <ele>326.7</ele>
        <time>2023-02-26T11:20:10Z</time>
      </trkpt>
      <trkpt lat="38.365880" lon="-1.713776">
        <ele>328.7</ele>
        <time>2023-02-26T11:20:23Z</time>
      </trkpt>
      <trkpt lat="38.365945" lon="-1.713753">
        <ele>328.7</ele>
        <time>2023-02-26T11:20:28Z</time>
      </trkpt>
      <trkpt lat="38.366004" lon="-1.713724">
        <ele>326.8</ele>
        <time>2023-02-26T11:20:34Z</time>
      </trkpt>
      <trkpt lat="38.366064" lon="-1.713692">
        <ele>326.7</ele>
        <time>2023-02-26T11:20:39Z</time>
      </trkpt>
      <trkpt lat="38.366133" lon="-1.713679">
        <ele>327.7</ele>
        <time>2023-02-26T11:20:45Z</time>
      </trkpt>
      <trkpt lat="38.366198" lon="-1.713669">
        <ele>327.7</ele>
        <time>2023-02-26T11:20:51Z</time>
      </trkpt>
      <trkpt lat="38.366263" lon="-1.713662">
        <ele>326.8</ele>
        <time>2023-02-26T11:20:56Z</time>
      </trkpt>
      <trkpt lat="38.366325" lon="-1.713649">
        <ele>327.7</ele>
        <time>2023-02-26T11:21:01Z</time>
      </trkpt>
      <trkpt lat="38.366392" lon="-1.713623">
        <ele>328.7</ele>
        <time>2023-02-26T11:21:06Z</time>
      </trkpt>
      <trkpt lat="38.366453" lon="-1.713602">
        <ele>328.7</ele>
        <time>2023-02-26T11:21:10Z</time>
      </trkpt>
      <trkpt lat="38.366512" lon="-1.713566">
        <ele>327.8</ele>
        <time>2023-02-26T11:21:16Z</time>
      </trkpt>
      <trkpt lat="38.366574" lon="-1.713532">
        <ele>325.8</ele>
        <time>2023-02-26T11:21:21Z</time>
      </trkpt>
      <trkpt lat="38.366634" lon="-1.713504">
        <ele>325.5</ele>
        <time>2023-02-26T11:21:28Z</time>
      </trkpt>
      <trkpt lat="38.366701" lon="-1.713514">
        <ele>323.7</ele>
        <time>2023-02-26T11:21:33Z</time>
      </trkpt>
      <trkpt lat="38.366766" lon="-1.713533">
        <ele>322.8</ele>
        <time>2023-02-26T11:21:39Z</time>
      </trkpt>
      <trkpt lat="38.366827" lon="-1.713563">
        <ele>322.7</ele>
        <time>2023-02-26T11:21:45Z</time>
      </trkpt>
      <trkpt lat="38.366891" lon="-1.713581">
        <ele>323.7</ele>
        <time>2023-02-26T11:21:55Z</time>
      </trkpt>
      <trkpt lat="38.366959" lon="-1.713608">
        <ele>324.7</ele>
        <time>2023-02-26T11:22:00Z</time>
      </trkpt>
      <trkpt lat="38.367021" lon="-1.713634">
        <ele>324.7</ele>
        <time>2023-02-26T11:22:04Z</time>
      </trkpt>
      <trkpt lat="38.367087" lon="-1.713649">
        <ele>324.7</ele>
        <time>2023-02-26T11:22:09Z</time>
      </trkpt>
      <trkpt lat="38.367156" lon="-1.713654">
        <ele>323.8</ele>
        <time>2023-02-26T11:22:14Z</time>
      </trkpt>
      <trkpt lat="38.367225" lon="-1.713658">
        <ele>324.7</ele>
        <time>2023-02-26T11:22:20Z</time>
      </trkpt>
      <trkpt lat="38.367292" lon="-1.713651">
        <ele>325.7</ele>
        <time>2023-02-26T11:22:24Z</time>
      </trkpt>
      <trkpt lat="38.367356" lon="-1.713641">
        <ele>325.7</ele>
        <time>2023-02-26T11:22:29Z</time>
      </trkpt>
      <trkpt lat="38.367417" lon="-1.713624">
        <ele>324.7</ele>
        <time>2023-02-26T11:22:34Z</time>
      </trkpt>
      <trkpt lat="38.367483" lon="-1.713628">
        <ele>323.8</ele>
        <time>2023-02-26T11:22:40Z</time>
      </trkpt>
      <trkpt lat="38.367547" lon="-1.713614">
        <ele>323.7</ele>
        <time>2023-02-26T11:22:46Z</time>
      </trkpt>
      <trkpt lat="38.367612" lon="-1.713615">
        <ele>322.7</ele>
        <time>2023-02-26T11:23:00Z</time>
      </trkpt>
      <trkpt lat="38.367678" lon="-1.713598">
        <ele>321.8</ele>
        <time>2023-02-26T11:23:05Z</time>
      </trkpt>
      <trkpt lat="38.367738" lon="-1.713563">
        <ele>321.7</ele>
        <time>2023-02-26T11:23:10Z</time>
      </trkpt>
      <trkpt lat="38.367798" lon="-1.713535">
        <ele>322.7</ele>
        <time>2023-02-26T11:23:14Z</time>
      </trkpt>
      <trkpt lat="38.367862" lon="-1.713523">
        <ele>321.7</ele>
        <time>2023-02-26T11:23:19Z</time>
      </trkpt>
      <trkpt lat="38.367914" lon="-1.713517">
        <ele>323.7</ele>
        <time>2023-02-26T11:23:24Z</time>
      </trkpt>
      <trkpt lat="38.367945" lon="-1.713526">
        <ele>324.8</ele>
        <time>2023-02-26T11:23:37Z</time>
      </trkpt>
      <trkpt lat="38.367979" lon="-1.713502">
        <ele>323.7</ele>
        <time>2023-02-26T11:24:19Z</time>
      </trkpt>
      <trkpt lat="38.368052" lon="-1.713464">
        <ele>325.7</ele>
        <time>2023-02-26T11:24:23Z</time>
      </trkpt>
      <trkpt lat="38.368118" lon="-1.713454">
        <ele>325.5</ele>
        <time>2023-02-26T11:24:26Z</time>
      </trkpt>
      <trkpt lat="38.368167" lon="-1.713434">
        <ele>326.5</ele>
        <time>2023-02-26T11:24:32Z</time>
      </trkpt>
      <trkpt lat="38.368235" lon="-1.713411">
        <ele>325.7</ele>
        <time>2023-02-26T11:24:36Z</time>
      </trkpt>
      <trkpt lat="38.368303" lon="-1.713391">
        <ele>324.7</ele>
        <time>2023-02-26T11:24:41Z</time>
      </trkpt>
      <trkpt lat="38.368366" lon="-1.713356">
        <ele>324.7</ele>
        <time>2023-02-26T11:24:45Z</time>
      </trkpt>
      <trkpt lat="38.368434" lon="-1.713332">
        <ele>325.7</ele>
        <time>2023-02-26T11:24:50Z</time>
      </trkpt>
      <trkpt lat="38.368502" lon="-1.713318">
        <ele>326.7</ele>
        <time>2023-02-26T11:24:55Z</time>
      </trkpt>
      <trkpt lat="38.368572" lon="-1.713298">
        <ele>326.7</ele>
        <time>2023-02-26T11:25:00Z</time>
      </trkpt>
      <trkpt lat="38.368639" lon="-1.713302">
        <ele>325.8</ele>
        <time>2023-02-26T11:25:06Z</time>
      </trkpt>
      <trkpt lat="38.368710" lon="-1.713277">
        <ele>324.7</ele>
        <time>2023-02-26T11:25:27Z</time>
      </trkpt>
      <trkpt lat="38.368776" lon="-1.713268">
        <ele>324.7</ele>
        <time>2023-02-26T11:25:30Z</time>
      </trkpt>
      <trkpt lat="38.368845" lon="-1.713264">
        <ele>324.7</ele>
        <time>2023-02-26T11:25:34Z</time>
      </trkpt>
      <trkpt lat="38.368911" lon="-1.713257">
        <ele>324.8</ele>
        <time>2023-02-26T11:25:40Z</time>
      </trkpt>
      <trkpt lat="38.368974" lon="-1.713283">
        <ele>323.7</ele>
        <time>2023-02-26T11:25:45Z</time>
      </trkpt>
      <trkpt lat="38.369047" lon="-1.713274">
        <ele>323.7</ele>
        <time>2023-02-26T11:25:50Z</time>
      </trkpt>
      <trkpt lat="38.369114" lon="-1.713261">
        <ele>324.7</ele>
        <time>2023-02-26T11:25:56Z</time>
      </trkpt>
      <trkpt lat="38.369178" lon="-1.713234">
        <ele>324.8</ele>
        <time>2023-02-26T11:26:01Z</time>
      </trkpt>
      <trkpt lat="38.369242" lon="-1.713223">
        <ele>323.0</ele>
        <time>2023-02-26T11:26:07Z</time>
      </trkpt>
      <trkpt lat="38.369306" lon="-1.713241">
        <ele>324.7</ele>
        <time>2023-02-26T11:26:11Z</time>
      </trkpt>
      <trkpt lat="38.369369" lon="-1.713258">
        <ele>324.7</ele>
        <time>2023-02-26T11:26:15Z</time>
      </trkpt>
      <trkpt lat="38.369435" lon="-1.713258">
        <ele>324.7</ele>
        <time>2023-02-26T11:26:20Z</time>
      </trkpt>
      <trkpt lat="38.369496" lon="-1.713217">
        <ele>323.8</ele>
        <time>2023-02-26T11:26:26Z</time>
      </trkpt>
      <trkpt lat="38.369562" lon="-1.713222">
        <ele>322.0</ele>
        <time>2023-02-26T11:26:31Z</time>
      </trkpt>
      <trkpt lat="38.369625" lon="-1.713238">
        <ele>322.7</ele>
        <time>2023-02-26T11:26:35Z</time>
      </trkpt>
      <trkpt lat="38.369691" lon="-1.713252">
        <ele>322.8</ele>
        <time>2023-02-26T11:26:40Z</time>
      </trkpt>
      <trkpt lat="38.369760" lon="-1.713241">
        <ele>323.7</ele>
        <time>2023-02-26T11:26:46Z</time>
      </trkpt>
      <trkpt lat="38.369833" lon="-1.713240">
        <ele>323.7</ele>
        <time>2023-02-26T11:26:51Z</time>
      </trkpt>
      <trkpt lat="38.369899" lon="-1.713246">
        <ele>322.8</ele>
        <time>2023-02-26T11:26:55Z</time>
      </trkpt>
      <trkpt lat="38.369965" lon="-1.713260">
        <ele>323.7</ele>
        <time>2023-02-26T11:26:59Z</time>
      </trkpt>
      <trkpt lat="38.370032" lon="-1.713255">
        <ele>323.7</ele>
        <time>2023-02-26T11:27:05Z</time>
      </trkpt>
      <trkpt lat="38.370100" lon="-1.713266">
        <ele>323.7</ele>
        <time>2023-02-26T11:27:10Z</time>
      </trkpt>
      <trkpt lat="38.370170" lon="-1.713260">
        <ele>322.7</ele>
        <time>2023-02-26T11:27:15Z</time>
      </trkpt>
      <trkpt lat="38.370237" lon="-1.713263">
        <ele>323.7</ele>
        <time>2023-02-26T11:27:19Z</time>
      </trkpt>
      <trkpt lat="38.370303" lon="-1.713261">
        <ele>322.7</ele>
        <time>2023-02-26T11:27:25Z</time>
      </trkpt>
      <trkpt lat="38.370369" lon="-1.713257">
        <ele>322.7</ele>
        <time>2023-02-26T11:27:29Z</time>
      </trkpt>
      <trkpt lat="38.370446" lon="-1.713238">
        <ele>323.7</ele>
        <time>2023-02-26T11:27:32Z</time>
      </trkpt>
      <trkpt lat="38.370516" lon="-1.713233">
        <ele>323.7</ele>
        <time>2023-02-26T11:27:38Z</time>
      </trkpt>
      <trkpt lat="38.370582" lon="-1.713237">
        <ele>324.7</ele>
        <time>2023-02-26T11:27:42Z</time>
      </trkpt>
      <trkpt lat="38.370625" lon="-1.713272">
        <ele>324.7</ele>
        <time>2023-02-26T11:27:47Z</time>
      </trkpt>
      <trkpt lat="38.370693" lon="-1.713302">
        <ele>325.7</ele>
        <time>2023-02-26T11:27:52Z</time>
      </trkpt>
      <trkpt lat="38.370759" lon="-1.713302">
        <ele>325.7</ele>
        <time>2023-02-26T11:27:58Z</time>
      </trkpt>
      <trkpt lat="38.370821" lon="-1.713310">
        <ele>325.0</ele>
        <time>2023-02-26T11:28:02Z</time>
      </trkpt>
      <trkpt lat="38.370887" lon="-1.713331">
        <ele>324.7</ele>
        <time>2023-02-26T11:28:06Z</time>
      </trkpt>
      <trkpt lat="38.370955" lon="-1.713331">
        <ele>325.7</ele>
        <time>2023-02-26T11:28:10Z</time>
      </trkpt>
      <trkpt lat="38.371018" lon="-1.713348">
        <ele>325.7</ele>
        <time>2023-02-26T11:28:14Z</time>
      </trkpt>
      <trkpt lat="38.371080" lon="-1.713372">
        <ele>326.7</ele>
        <time>2023-02-26T11:28:19Z</time>
      </trkpt>
      <trkpt lat="38.371178" lon="-1.713397">
        <ele>327.7</ele>
        <time>2023-02-26T11:28:24Z</time>
      </trkpt>
      <trkpt lat="38.371234" lon="-1.713410">
        <ele>327.7</ele>
        <time>2023-02-26T11:28:29Z</time>
      </trkpt>
      <trkpt lat="38.371297" lon="-1.713407">
        <ele>327.7</ele>
        <time>2023-02-26T11:28:34Z</time>
      </trkpt>
      <trkpt lat="38.371362" lon="-1.713420">
        <ele>326.7</ele>
        <time>2023-02-26T11:28:38Z</time>
      </trkpt>
      <trkpt lat="38.371435" lon="-1.713428">
        <ele>323.8</ele>
        <time>2023-02-26T11:28:44Z</time>
      </trkpt>
      <trkpt lat="38.371503" lon="-1.713431">
        <ele>322.7</ele>
        <time>2023-02-26T11:28:48Z</time>
      </trkpt>
      <trkpt lat="38.371573" lon="-1.713444">
        <ele>321.7</ele>
        <time>2023-02-26T11:28:52Z</time>
      </trkpt>
      <trkpt lat="38.371649" lon="-1.713463">
        <ele>321.0</ele>
        <time>2023-02-26T11:28:57Z</time>
      </trkpt>
      <trkpt lat="38.371713" lon="-1.713461">
        <ele>320.8</ele>
        <time>2023-02-26T11:29:02Z</time>
      </trkpt>
      <trkpt lat="38.371776" lon="-1.713448">
        <ele>320.7</ele>
        <time>2023-02-26T11:29:06Z</time>
      </trkpt>
      <trkpt lat="38.371851" lon="-1.713439">
        <ele>319.7</ele>
        <time>2023-02-26T11:29:11Z</time>
      </trkpt>
      <trkpt lat="38.371918" lon="-1.713452">
        <ele>318.7</ele>
        <time>2023-02-26T11:29:16Z</time>
      </trkpt>
      <trkpt lat="38.371985" lon="-1.713424">
        <ele>317.7</ele>
        <time>2023-02-26T11:29:21Z</time>
      </trkpt>
      <trkpt lat="38.372050" lon="-1.713423">
        <ele>317.8</ele>
        <time>2023-02-26T11:29:25Z</time>
      </trkpt>
      <trkpt lat="38.372115" lon="-1.713421">
        <ele>317.7</ele>
        <time>2023-02-26T11:29:30Z</time>
      </trkpt>
      <trkpt lat="38.372179" lon="-1.713396">
        <ele>316.7</ele>
        <time>2023-02-26T11:29:34Z</time>
      </trkpt>
      <trkpt lat="38.372272" lon="-1.713362">
        <ele>321.4</ele>
        <time>2023-02-26T11:29:42Z</time>
      </trkpt>
      <trkpt lat="38.372332" lon="-1.713329">
        <ele>320.8</ele>
        <time>2023-02-26T11:29:52Z</time>
      </trkpt>
      <trkpt lat="38.372309" lon="-1.713245">
        <ele>317.7</ele>
        <time>2023-02-26T11:30:17Z</time>
      </trkpt>
      <trkpt lat="38.372348" lon="-1.713172">
        <ele>318.7</ele>
        <time>2023-02-26T11:30:22Z</time>
      </trkpt>
      <trkpt lat="38.372344" lon="-1.713091">
        <ele>316.8</ele>
        <time>2023-02-26T11:30:27Z</time>
      </trkpt>
      <trkpt lat="38.372345" lon="-1.713001">
        <ele>315.7</ele>
        <time>2023-02-26T11:30:32Z</time>
      </trkpt>
      <trkpt lat="38.372356" lon="-1.712904">
        <ele>316.7</ele>
        <time>2023-02-26T11:30:37Z</time>
      </trkpt>
      <trkpt lat="38.372342" lon="-1.712822">
        <ele>317.7</ele>
        <time>2023-02-26T11:30:41Z</time>
      </trkpt>
      <trkpt lat="38.372314" lon="-1.712746">
        <ele>317.7</ele>
        <time>2023-02-26T11:30:46Z</time>
      </trkpt>
      <trkpt lat="38.372293" lon="-1.712657">
        <ele>318.7</ele>
        <time>2023-02-26T11:30:51Z</time>
      </trkpt>
      <trkpt lat="38.372287" lon="-1.712576">
        <ele>319.8</ele>
        <time>2023-02-26T11:30:55Z</time>
      </trkpt>
      <trkpt lat="38.372277" lon="-1.712489">
        <ele>319.7</ele>
        <time>2023-02-26T11:31:00Z</time>
      </trkpt>
      <trkpt lat="38.372256" lon="-1.712410">
        <ele>319.7</ele>
        <time>2023-02-26T11:31:05Z</time>
      </trkpt>
      <trkpt lat="38.372237" lon="-1.712327">
        <ele>319.7</ele>
        <time>2023-02-26T11:31:10Z</time>
      </trkpt>
      <trkpt lat="38.372222" lon="-1.712238">
        <ele>322.5</ele>
        <time>2023-02-26T11:31:18Z</time>
      </trkpt>
      <trkpt lat="38.372227" lon="-1.712147">
        <ele>322.7</ele>
        <time>2023-02-26T11:31:23Z</time>
      </trkpt>
      <trkpt lat="38.372220" lon="-1.712064">
        <ele>321.7</ele>
        <time>2023-02-26T11:31:28Z</time>
      </trkpt>
      <trkpt lat="38.372201" lon="-1.711965">
        <ele>321.7</ele>
        <time>2023-02-26T11:31:33Z</time>
      </trkpt>
      <trkpt lat="38.372197" lon="-1.711880">
        <ele>321.7</ele>
        <time>2023-02-26T11:31:38Z</time>
      </trkpt>
      <trkpt lat="38.372215" lon="-1.711801">
        <ele>321.7</ele>
        <time>2023-02-26T11:31:43Z</time>
      </trkpt>
      <trkpt lat="38.372231" lon="-1.711720">
        <ele>318.8</ele>
        <time>2023-02-26T11:31:48Z</time>
      </trkpt>
      <trkpt lat="38.372227" lon="-1.711634">
        <ele>317.8</ele>
        <time>2023-02-26T11:31:53Z</time>
      </trkpt>
      <trkpt lat="38.372226" lon="-1.711550">
        <ele>316.7</ele>
        <time>2023-02-26T11:31:58Z</time>
      </trkpt>
      <trkpt lat="38.372212" lon="-1.711466">
        <ele>317.7</ele>
        <time>2023-02-26T11:32:03Z</time>
      </trkpt>
      <trkpt lat="38.372204" lon="-1.711378">
        <ele>317.7</ele>
        <time>2023-02-26T11:32:08Z</time>
      </trkpt>
      <trkpt lat="38.372200" lon="-1.711292">
        <ele>317.7</ele>
        <time>2023-02-26T11:32:12Z</time>
      </trkpt>
      <trkpt lat="38.372181" lon="-1.711208">
        <ele>319.7</ele>
        <time>2023-02-26T11:32:17Z</time>
      </trkpt>
      <trkpt lat="38.372168" lon="-1.711127">
        <ele>317.8</ele>
        <time>2023-02-26T11:32:21Z</time>
      </trkpt>
      <trkpt lat="38.372194" lon="-1.711052">
        <ele>317.0</ele>
        <time>2023-02-26T11:32:27Z</time>
      </trkpt>
      <trkpt lat="38.372220" lon="-1.710970">
        <ele>316.7</ele>
        <time>2023-02-26T11:32:31Z</time>
      </trkpt>
      <trkpt lat="38.372248" lon="-1.710896">
        <ele>314.7</ele>
        <time>2023-02-26T11:32:36Z</time>
      </trkpt>
      <trkpt lat="38.372276" lon="-1.710824">
        <ele>313.7</ele>
        <time>2023-02-26T11:32:41Z</time>
      </trkpt>
      <trkpt lat="38.372305" lon="-1.710752">
        <ele>313.7</ele>
        <time>2023-02-26T11:32:46Z</time>
      </trkpt>
      <trkpt lat="38.372333" lon="-1.710670">
        <ele>310.7</ele>
        <time>2023-02-26T11:32:51Z</time>
      </trkpt>
      <trkpt lat="38.372350" lon="-1.710590">
        <ele>308.7</ele>
        <time>2023-02-26T11:32:57Z</time>
      </trkpt>
      <trkpt lat="38.372356" lon="-1.710508">
        <ele>308.7</ele>
        <time>2023-02-26T11:33:02Z</time>
      </trkpt>
      <trkpt lat="38.372344" lon="-1.710427">
        <ele>309.7</ele>
        <time>2023-02-26T11:33:06Z</time>
      </trkpt>
      <trkpt lat="38.372325" lon="-1.710348">
        <ele>310.7</ele>
        <time>2023-02-26T11:33:11Z</time>
      </trkpt>
      <trkpt lat="38.372307" lon="-1.710264">
        <ele>312.7</ele>
        <time>2023-02-26T11:33:15Z</time>
      </trkpt>
      <trkpt lat="38.372275" lon="-1.710191">
        <ele>314.5</ele>
        <time>2023-02-26T11:33:20Z</time>
      </trkpt>
      <trkpt lat="38.372241" lon="-1.710115">
        <ele>315.5</ele>
        <time>2023-02-26T11:33:25Z</time>
      </trkpt>
      <trkpt lat="38.372199" lon="-1.710036">
        <ele>317.7</ele>
        <time>2023-02-26T11:33:30Z</time>
      </trkpt>
      <trkpt lat="38.372164" lon="-1.709962">
        <ele>319.5</ele>
        <time>2023-02-26T11:33:36Z</time>
      </trkpt>
      <trkpt lat="38.372135" lon="-1.709890">
        <ele>320.7</ele>
        <time>2023-02-26T11:33:41Z</time>
      </trkpt>
      <trkpt lat="38.372098" lon="-1.709825">
        <ele>321.7</ele>
        <time>2023-02-26T11:33:45Z</time>
      </trkpt>
      <trkpt lat="38.372051" lon="-1.709762">
        <ele>323.7</ele>
        <time>2023-02-26T11:33:50Z</time>
      </trkpt>
      <trkpt lat="38.372000" lon="-1.709708">
        <ele>326.7</ele>
        <time>2023-02-26T11:33:55Z</time>
      </trkpt>
      <trkpt lat="38.371975" lon="-1.709628">
        <ele>327.7</ele>
        <time>2023-02-26T11:34:00Z</time>
      </trkpt>
      <trkpt lat="38.371940" lon="-1.709558">
        <ele>326.7</ele>
        <time>2023-02-26T11:34:05Z</time>
      </trkpt>
      <trkpt lat="38.371898" lon="-1.709489">
        <ele>327.7</ele>
        <time>2023-02-26T11:34:10Z</time>
      </trkpt>
      <trkpt lat="38.371858" lon="-1.709419">
        <ele>325.8</ele>
        <time>2023-02-26T11:34:14Z</time>
      </trkpt>
      <trkpt lat="38.371823" lon="-1.709347">
        <ele>327.7</ele>
        <time>2023-02-26T11:34:19Z</time>
      </trkpt>
      <trkpt lat="38.371786" lon="-1.709280">
        <ele>326.8</ele>
        <time>2023-02-26T11:34:24Z</time>
      </trkpt>
      <trkpt lat="38.371757" lon="-1.709199">
        <ele>326.7</ele>
        <time>2023-02-26T11:34:28Z</time>
      </trkpt>
      <trkpt lat="38.371720" lon="-1.709130">
        <ele>325.7</ele>
        <time>2023-02-26T11:34:32Z</time>
      </trkpt>
      <trkpt lat="38.371672" lon="-1.709077">
        <ele>326.7</ele>
        <time>2023-02-26T11:34:47Z</time>
      </trkpt>
      <trkpt lat="38.371609" lon="-1.709021">
        <ele>327.7</ele>
        <time>2023-02-26T11:34:53Z</time>
      </trkpt>
      <trkpt lat="38.371578" lon="-1.708850">
        <ele>327.7</ele>
        <time>2023-02-26T11:34:53Z</time>
      </trkpt>
      <trkpt lat="38.371535" lon="-1.708776">
        <ele>327.7</ele>
        <time>2023-02-26T11:34:58Z</time>
      </trkpt>
      <trkpt lat="38.371486" lon="-1.708721">
        <ele>327.7</ele>
        <time>2023-02-26T11:35:03Z</time>
      </trkpt>
      <trkpt lat="38.371446" lon="-1.708653">
        <ele>328.7</ele>
        <time>2023-02-26T11:35:09Z</time>
      </trkpt>
      <trkpt lat="38.371402" lon="-1.708585">
        <ele>329.0</ele>
        <time>2023-02-26T11:35:14Z</time>
      </trkpt>
      <trkpt lat="38.371363" lon="-1.708505">
        <ele>329.7</ele>
        <time>2023-02-26T11:35:19Z</time>
      </trkpt>
      <trkpt lat="38.371331" lon="-1.708436">
        <ele>328.7</ele>
        <time>2023-02-26T11:35:23Z</time>
      </trkpt>
      <trkpt lat="38.371288" lon="-1.708351">
        <ele>329.0</ele>
        <time>2023-02-26T11:35:29Z</time>
      </trkpt>
      <trkpt lat="38.371258" lon="-1.708266">
        <ele>328.7</ele>
        <time>2023-02-26T11:35:34Z</time>
      </trkpt>
      <trkpt lat="38.371222" lon="-1.708192">
        <ele>327.7</ele>
        <time>2023-02-26T11:35:39Z</time>
      </trkpt>
      <trkpt lat="38.371205" lon="-1.708114">
        <ele>327.7</ele>
        <time>2023-02-26T11:35:44Z</time>
      </trkpt>
      <trkpt lat="38.371179" lon="-1.708038">
        <ele>326.8</ele>
        <time>2023-02-26T11:35:49Z</time>
      </trkpt>
      <trkpt lat="38.371147" lon="-1.707968">
        <ele>325.0</ele>
        <time>2023-02-26T11:35:54Z</time>
      </trkpt>
      <trkpt lat="38.371126" lon="-1.707890">
        <ele>322.1</ele>
        <time>2023-02-26T11:35:58Z</time>
      </trkpt>
      <trkpt lat="38.371117" lon="-1.707800">
        <ele>317.8</ele>
        <time>2023-02-26T11:36:03Z</time>
      </trkpt>
      <trkpt lat="38.371132" lon="-1.707719">
        <ele>315.8</ele>
        <time>2023-02-26T11:36:07Z</time>
      </trkpt>
      <trkpt lat="38.371144" lon="-1.707637">
        <ele>314.8</ele>
        <time>2023-02-26T11:36:12Z</time>
      </trkpt>
      <trkpt lat="38.371140" lon="-1.707555">
        <ele>311.8</ele>
        <time>2023-02-26T11:36:17Z</time>
      </trkpt>
      <trkpt lat="38.371146" lon="-1.707473">
        <ele>309.8</ele>
        <time>2023-02-26T11:36:21Z</time>
      </trkpt>
      <trkpt lat="38.371146" lon="-1.707377">
        <ele>308.8</ele>
        <time>2023-02-26T11:36:26Z</time>
      </trkpt>
      <trkpt lat="38.371151" lon="-1.707293">
        <ele>308.8</ele>
        <time>2023-02-26T11:36:31Z</time>
      </trkpt>
      <trkpt lat="38.371152" lon="-1.707212">
        <ele>308.8</ele>
        <time>2023-02-26T11:36:36Z</time>
      </trkpt>
      <trkpt lat="38.371164" lon="-1.707125">
        <ele>307.8</ele>
        <time>2023-02-26T11:36:41Z</time>
      </trkpt>
      <trkpt lat="38.371172" lon="-1.707041">
        <ele>305.8</ele>
        <time>2023-02-26T11:36:46Z</time>
      </trkpt>
      <trkpt lat="38.371210" lon="-1.706965">
        <ele>304.8</ele>
        <time>2023-02-26T11:36:51Z</time>
      </trkpt>
      <trkpt lat="38.371250" lon="-1.706883">
        <ele>304.0</ele>
        <time>2023-02-26T11:36:56Z</time>
      </trkpt>
      <trkpt lat="38.371266" lon="-1.706800">
        <ele>304.0</ele>
        <time>2023-02-26T11:37:01Z</time>
      </trkpt>
      <trkpt lat="38.371266" lon="-1.706717">
        <ele>304.0</ele>
        <time>2023-02-26T11:37:06Z</time>
      </trkpt>
      <trkpt lat="38.371283" lon="-1.706633">
        <ele>304.0</ele>
        <time>2023-02-26T11:37:10Z</time>
      </trkpt>
      <trkpt lat="38.371300" lon="-1.706567">
        <ele>304.0</ele>
        <time>2023-02-26T11:37:15Z</time>
      </trkpt>
      <trkpt lat="38.371333" lon="-1.706483">
        <ele>304.0</ele>
        <time>2023-02-26T11:37:20Z</time>
      </trkpt>
      <trkpt lat="38.371366" lon="-1.706416">
        <ele>304.0</ele>
        <time>2023-02-26T11:37:24Z</time>
      </trkpt>
      <trkpt lat="38.371394" lon="-1.706332">
        <ele>303.7</ele>
        <time>2023-02-26T11:37:29Z</time>
      </trkpt>
      <trkpt lat="38.371418" lon="-1.706251">
        <ele>303.8</ele>
        <time>2023-02-26T11:37:33Z</time>
      </trkpt>
      <trkpt lat="38.371451" lon="-1.706179">
        <ele>303.8</ele>
        <time>2023-02-26T11:37:38Z</time>
      </trkpt>
      <trkpt lat="38.371502" lon="-1.706120">
        <ele>307.5</ele>
        <time>2023-02-26T11:37:43Z</time>
      </trkpt>
      <trkpt lat="38.371546" lon="-1.706059">
        <ele>309.8</ele>
        <time>2023-02-26T11:37:48Z</time>
      </trkpt>
      <trkpt lat="38.371579" lon="-1.705971">
        <ele>310.8</ele>
        <time>2023-02-26T11:37:53Z</time>
      </trkpt>
      <trkpt lat="38.371615" lon="-1.705904">
        <ele>308.8</ele>
        <time>2023-02-26T11:37:58Z</time>
      </trkpt>
      <trkpt lat="38.371674" lon="-1.705867">
        <ele>309.8</ele>
        <time>2023-02-26T11:38:03Z</time>
      </trkpt>
      <trkpt lat="38.371734" lon="-1.705837">
        <ele>310.8</ele>
        <time>2023-02-26T11:38:09Z</time>
      </trkpt>
      <trkpt lat="38.371785" lon="-1.705778">
        <ele>311.7</ele>
        <time>2023-02-26T11:38:14Z</time>
      </trkpt>
      <trkpt lat="38.371834" lon="-1.705719">
        <ele>313.7</ele>
        <time>2023-02-26T11:38:19Z</time>
      </trkpt>
      <trkpt lat="38.371882" lon="-1.705649">
        <ele>316.7</ele>
        <time>2023-02-26T11:38:24Z</time>
      </trkpt>
      <trkpt lat="38.371937" lon="-1.705594">
        <ele>315.8</ele>
        <time>2023-02-26T11:38:30Z</time>
      </trkpt>
      <trkpt lat="38.371981" lon="-1.705522">
        <ele>314.8</ele>
        <time>2023-02-26T11:38:35Z</time>
      </trkpt>
      <trkpt lat="38.372026" lon="-1.705464">
        <ele>315.8</ele>
        <time>2023-02-26T11:38:39Z</time>
      </trkpt>
      <trkpt lat="38.372072" lon="-1.705408">
        <ele>314.8</ele>
        <time>2023-02-26T11:38:44Z</time>
      </trkpt>
      <trkpt lat="38.372126" lon="-1.705359">
        <ele>314.8</ele>
        <time>2023-02-26T11:38:49Z</time>
      </trkpt>
      <trkpt lat="38.372170" lon="-1.705294">
        <ele>313.8</ele>
        <time>2023-02-26T11:38:55Z</time>
      </trkpt>
      <trkpt lat="38.372207" lon="-1.705229">
        <ele>314.7</ele>
        <time>2023-02-26T11:39:00Z</time>
      </trkpt>
      <trkpt lat="38.372245" lon="-1.705163">
        <ele>315.8</ele>
        <time>2023-02-26T11:39:04Z</time>
      </trkpt>
      <trkpt lat="38.372307" lon="-1.705124">
        <ele>317.5</ele>
        <time>2023-02-26T11:39:10Z</time>
      </trkpt>
      <trkpt lat="38.372368" lon="-1.705084">
        <ele>318.8</ele>
        <time>2023-02-26T11:39:15Z</time>
      </trkpt>
      <trkpt lat="38.372431" lon="-1.705051">
        <ele>317.8</ele>
        <time>2023-02-26T11:39:20Z</time>
      </trkpt>
      <trkpt lat="38.372496" lon="-1.705020">
        <ele>316.8</ele>
        <time>2023-02-26T11:39:25Z</time>
      </trkpt>
      <trkpt lat="38.372554" lon="-1.704976">
        <ele>316.8</ele>
        <time>2023-02-26T11:39:30Z</time>
      </trkpt>
      <trkpt lat="38.372601" lon="-1.704922">
        <ele>316.5</ele>
        <time>2023-02-26T11:39:37Z</time>
      </trkpt>
      <trkpt lat="38.372569" lon="-1.704833">
        <ele>316.8</ele>
        <time>2023-02-26T11:39:43Z</time>
      </trkpt>
      <trkpt lat="38.372552" lon="-1.704778">
        <ele>316.7</ele>
        <time>2023-02-26T11:39:49Z</time>
      </trkpt>
      <trkpt lat="38.372553" lon="-1.704720">
        <ele>322.5</ele>
        <time>2023-02-26T11:41:37Z</time>
      </trkpt>
      <trkpt lat="38.372539" lon="-1.704704">
        <ele>320.2</ele>
        <time>2023-02-26T11:43:50Z</time>
      </trkpt>
      <trkpt lat="38.372530" lon="-1.704621">
        <ele>317.0</ele>
        <time>2023-02-26T11:44:40Z</time>
      </trkpt>
      <trkpt lat="38.372469" lon="-1.704648">
        <ele>318.5</ele>
        <time>2023-02-26T11:44:51Z</time>
      </trkpt>
      <trkpt lat="38.372529" lon="-1.704608">
        <ele>315.8</ele>
        <time>2023-02-26T11:46:22Z</time>
      </trkpt>
      <trkpt lat="38.372562" lon="-1.704686">
        <ele>318.8</ele>
        <time>2023-02-26T11:46:38Z</time>
      </trkpt>
      <trkpt lat="38.372568" lon="-1.704766">
        <ele>318.7</ele>
        <time>2023-02-26T11:46:43Z</time>
      </trkpt>
      <trkpt lat="38.372600" lon="-1.704834">
        <ele>317.5</ele>
        <time>2023-02-26T11:46:48Z</time>
      </trkpt>
      <trkpt lat="38.372642" lon="-1.704905">
        <ele>317.8</ele>
        <time>2023-02-26T11:46:53Z</time>
      </trkpt>
      <trkpt lat="38.372708" lon="-1.704906">
        <ele>316.8</ele>
        <time>2023-02-26T11:46:57Z</time>
      </trkpt>
      <trkpt lat="38.372777" lon="-1.704880">
        <ele>316.8</ele>
        <time>2023-02-26T11:47:02Z</time>
      </trkpt>
      <trkpt lat="38.372842" lon="-1.704860">
        <ele>316.8</ele>
        <time>2023-02-26T11:47:06Z</time>
      </trkpt>
      <trkpt lat="38.372905" lon="-1.704874">
        <ele>316.7</ele>
        <time>2023-02-26T11:47:10Z</time>
      </trkpt>
      <trkpt lat="38.372960" lon="-1.704922">
        <ele>315.8</ele>
        <time>2023-02-26T11:47:14Z</time>
      </trkpt>
      <trkpt lat="38.373010" lon="-1.704985">
        <ele>317.7</ele>
        <time>2023-02-26T11:47:18Z</time>
      </trkpt>
      <trkpt lat="38.373066" lon="-1.705042">
        <ele>319.7</ele>
        <time>2023-02-26T11:47:22Z</time>
      </trkpt>
      <trkpt lat="38.373124" lon="-1.705088">
        <ele>318.8</ele>
        <time>2023-02-26T11:47:27Z</time>
      </trkpt>
      <trkpt lat="38.373194" lon="-1.705114">
        <ele>318.8</ele>
        <time>2023-02-26T11:47:32Z</time>
      </trkpt>
      <trkpt lat="38.373265" lon="-1.705115">
        <ele>318.8</ele>
        <time>2023-02-26T11:47:37Z</time>
      </trkpt>
      <trkpt lat="38.373329" lon="-1.705092">
        <ele>318.8</ele>
        <time>2023-02-26T11:47:43Z</time>
      </trkpt>
      <trkpt lat="38.373394" lon="-1.705074">
        <ele>317.7</ele>
        <time>2023-02-26T11:47:46Z</time>
      </trkpt>
      <trkpt lat="38.373461" lon="-1.705046">
        <ele>318.7</ele>
        <time>2023-02-26T11:47:51Z</time>
      </trkpt>
      <trkpt lat="38.373522" lon="-1.705024">
        <ele>318.0</ele>
        <time>2023-02-26T11:47:56Z</time>
      </trkpt>
      <trkpt lat="38.373592" lon="-1.705012">
        <ele>317.8</ele>
        <time>2023-02-26T11:48:01Z</time>
      </trkpt>
      <trkpt lat="38.373652" lon="-1.704969">
        <ele>316.8</ele>
        <time>2023-02-26T11:48:06Z</time>
      </trkpt>
      <trkpt lat="38.373717" lon="-1.704942">
        <ele>316.7</ele>
        <time>2023-02-26T11:48:11Z</time>
      </trkpt>
      <trkpt lat="38.373782" lon="-1.704931">
        <ele>316.8</ele>
        <time>2023-02-26T11:48:17Z</time>
      </trkpt>
      <trkpt lat="38.373848" lon="-1.704930">
        <ele>317.7</ele>
        <time>2023-02-26T11:48:23Z</time>
      </trkpt>
      <trkpt lat="38.373912" lon="-1.704917">
        <ele>318.8</ele>
        <time>2023-02-26T11:48:28Z</time>
      </trkpt>
      <trkpt lat="38.373978" lon="-1.704901">
        <ele>319.8</ele>
        <time>2023-02-26T11:48:34Z</time>
      </trkpt>
      <trkpt lat="38.374044" lon="-1.704872">
        <ele>319.8</ele>
        <time>2023-02-26T11:48:40Z</time>
      </trkpt>
      <trkpt lat="38.374108" lon="-1.704856">
        <ele>318.8</ele>
        <time>2023-02-26T11:48:45Z</time>
      </trkpt>
      <trkpt lat="38.374171" lon="-1.704844">
        <ele>318.8</ele>
        <time>2023-02-26T11:48:52Z</time>
      </trkpt>
      <trkpt lat="38.374239" lon="-1.704805">
        <ele>317.8</ele>
        <time>2023-02-26T11:48:59Z</time>
      </trkpt>
      <trkpt lat="38.374303" lon="-1.704778">
        <ele>318.8</ele>
        <time>2023-02-26T11:49:04Z</time>
      </trkpt>
      <trkpt lat="38.374369" lon="-1.704734">
        <ele>319.7</ele>
        <time>2023-02-26T11:49:11Z</time>
      </trkpt>
      <trkpt lat="38.374425" lon="-1.704686">
        <ele>321.7</ele>
        <time>2023-02-26T11:49:16Z</time>
      </trkpt>
      <trkpt lat="38.374470" lon="-1.704627">
        <ele>322.7</ele>
        <time>2023-02-26T11:49:22Z</time>
      </trkpt>
      <trkpt lat="38.374540" lon="-1.704595">
        <ele>323.7</ele>
        <time>2023-02-26T11:49:26Z</time>
      </trkpt>
      <trkpt lat="38.374593" lon="-1.704547">
        <ele>323.8</ele>
        <time>2023-02-26T11:49:32Z</time>
      </trkpt>
      <trkpt lat="38.374651" lon="-1.704498">
        <ele>325.8</ele>
        <time>2023-02-26T11:49:39Z</time>
      </trkpt>
      <trkpt lat="38.374698" lon="-1.704443">
        <ele>326.7</ele>
        <time>2023-02-26T11:49:46Z</time>
      </trkpt>
      <trkpt lat="38.374740" lon="-1.704376">
        <ele>327.7</ele>
        <time>2023-02-26T11:49:57Z</time>
      </trkpt>
      <trkpt lat="38.374797" lon="-1.704334">
        <ele>329.8</ele>
        <time>2023-02-26T11:50:03Z</time>
      </trkpt>
      <trkpt lat="38.374854" lon="-1.704294">
        <ele>330.5</ele>
        <time>2023-02-26T11:50:10Z</time>
      </trkpt>
      <trkpt lat="38.374903" lon="-1.704238">
        <ele>329.8</ele>
        <time>2023-02-26T11:50:16Z</time>
      </trkpt>
      <trkpt lat="38.374945" lon="-1.704174">
        <ele>330.0</ele>
        <time>2023-02-26T11:50:32Z</time>
      </trkpt>
      <trkpt lat="38.374996" lon="-1.704119">
        <ele>328.8</ele>
        <time>2023-02-26T11:50:36Z</time>
      </trkpt>
      <trkpt lat="38.375045" lon="-1.704069">
        <ele>326.8</ele>
        <time>2023-02-26T11:50:41Z</time>
      </trkpt>
      <trkpt lat="38.375103" lon="-1.704022">
        <ele>325.8</ele>
        <time>2023-02-26T11:50:46Z</time>
      </trkpt>
      <trkpt lat="38.375150" lon="-1.703962">
        <ele>322.8</ele>
        <time>2023-02-26T11:50:52Z</time>
      </trkpt>
      <trkpt lat="38.375174" lon="-1.703888">
        <ele>323.8</ele>
        <time>2023-02-26T11:50:59Z</time>
      </trkpt>
      <trkpt lat="38.375166" lon="-1.703805">
        <ele>325.7</ele>
        <time>2023-02-26T11:51:06Z</time>
      </trkpt>
      <trkpt lat="38.375151" lon="-1.703726">
        <ele>325.8</ele>
        <time>2023-02-26T11:51:12Z</time>
      </trkpt>
      <trkpt lat="38.375148" lon="-1.703630">
        <ele>330.8</ele>
        <time>2023-02-26T11:51:33Z</time>
      </trkpt>
      <trkpt lat="38.375132" lon="-1.703547">
        <ele>332.5</ele>
        <time>2023-02-26T11:51:38Z</time>
      </trkpt>
      <trkpt lat="38.375120" lon="-1.703467">
        <ele>332.8</ele>
        <time>2023-02-26T11:51:42Z</time>
      </trkpt>
      <trkpt lat="38.375097" lon="-1.703390">
        <ele>332.8</ele>
        <time>2023-02-26T11:52:02Z</time>
      </trkpt>
      <trkpt lat="38.375096" lon="-1.703306">
        <ele>331.8</ele>
        <time>2023-02-26T11:52:06Z</time>
      </trkpt>
      <trkpt lat="38.375082" lon="-1.703223">
        <ele>332.7</ele>
        <time>2023-02-26T11:52:11Z</time>
      </trkpt>
      <trkpt lat="38.375069" lon="-1.703139">
        <ele>331.8</ele>
        <time>2023-02-26T11:52:16Z</time>
      </trkpt>
      <trkpt lat="38.375069" lon="-1.703059">
        <ele>332.7</ele>
        <time>2023-02-26T11:52:21Z</time>
      </trkpt>
      <trkpt lat="38.375112" lon="-1.702987">
        <ele>333.7</ele>
        <time>2023-02-26T11:52:27Z</time>
      </trkpt>
      <trkpt lat="38.375181" lon="-1.702979">
        <ele>331.8</ele>
        <time>2023-02-26T11:52:33Z</time>
      </trkpt>
      <trkpt lat="38.375230" lon="-1.702917">
        <ele>331.8</ele>
        <time>2023-02-26T11:52:37Z</time>
      </trkpt>
      <trkpt lat="38.375281" lon="-1.702866">
        <ele>330.8</ele>
        <time>2023-02-26T11:52:42Z</time>
      </trkpt>
      <trkpt lat="38.375310" lon="-1.702793">
        <ele>328.8</ele>
        <time>2023-02-26T11:52:47Z</time>
      </trkpt>
      <trkpt lat="38.375346" lon="-1.702720">
        <ele>327.8</ele>
        <time>2023-02-26T11:52:54Z</time>
      </trkpt>
      <trkpt lat="38.375404" lon="-1.702663">
        <ele>325.0</ele>
        <time>2023-02-26T11:53:00Z</time>
      </trkpt>
      <trkpt lat="38.375452" lon="-1.702606">
        <ele>326.5</ele>
        <time>2023-02-26T11:53:06Z</time>
      </trkpt>
      <trkpt lat="38.375494" lon="-1.702539">
        <ele>325.8</ele>
        <time>2023-02-26T11:53:10Z</time>
      </trkpt>
      <trkpt lat="38.375488" lon="-1.702456">
        <ele>326.8</ele>
        <time>2023-02-26T11:53:14Z</time>
      </trkpt>
      <trkpt lat="38.375457" lon="-1.702367">
        <ele>328.7</ele>
        <time>2023-02-26T11:53:18Z</time>
      </trkpt>
      <trkpt lat="38.375413" lon="-1.702305">
        <ele>327.8</ele>
        <time>2023-02-26T11:53:23Z</time>
      </trkpt>
      <trkpt lat="38.375364" lon="-1.702252">
        <ele>328.5</ele>
        <time>2023-02-26T11:53:28Z</time>
      </trkpt>
      <trkpt lat="38.375308" lon="-1.702200">
        <ele>329.8</ele>
        <time>2023-02-26T11:53:33Z</time>
      </trkpt>
      <trkpt lat="38.375261" lon="-1.702125">
        <ele>330.8</ele>
        <time>2023-02-26T11:53:38Z</time>
      </trkpt>
      <trkpt lat="38.375277" lon="-1.702039">
        <ele>329.8</ele>
        <time>2023-02-26T11:53:44Z</time>
      </trkpt>
      <trkpt lat="38.375330" lon="-1.701995">
        <ele>328.8</ele>
        <time>2023-02-26T11:53:48Z</time>
      </trkpt>
      <trkpt lat="38.375388" lon="-1.701955">
        <ele>326.8</ele>
        <time>2023-02-26T11:53:54Z</time>
      </trkpt>
      <trkpt lat="38.375452" lon="-1.701951">
        <ele>324.8</ele>
        <time>2023-02-26T11:54:00Z</time>
      </trkpt>
      <trkpt lat="38.375513" lon="-1.701983">
        <ele>322.8</ele>
        <time>2023-02-26T11:54:33Z</time>
      </trkpt>
      <trkpt lat="38.375574" lon="-1.702019">
        <ele>320.8</ele>
        <time>2023-02-26T11:54:37Z</time>
      </trkpt>
      <trkpt lat="38.375648" lon="-1.702078">
        <ele>319.8</ele>
        <time>2023-02-26T11:54:42Z</time>
      </trkpt>
      <trkpt lat="38.375685" lon="-1.702154">
        <ele>318.8</ele>
        <time>2023-02-26T11:54:47Z</time>
      </trkpt>
      <trkpt lat="38.375743" lon="-1.702202">
        <ele>318.8</ele>
        <time>2023-02-26T11:54:51Z</time>
      </trkpt>
      <trkpt lat="38.375812" lon="-1.702220">
        <ele>318.0</ele>
        <time>2023-02-26T11:54:55Z</time>
      </trkpt>
      <trkpt lat="38.375880" lon="-1.702248">
        <ele>317.8</ele>
        <time>2023-02-26T11:55:00Z</time>
      </trkpt>
      <trkpt lat="38.375940" lon="-1.702281">
        <ele>317.8</ele>
        <time>2023-02-26T11:55:04Z</time>
      </trkpt>
      <trkpt lat="38.376009" lon="-1.702270">
        <ele>317.7</ele>
        <time>2023-02-26T11:55:09Z</time>
      </trkpt>
      <trkpt lat="38.376069" lon="-1.702235">
        <ele>318.8</ele>
        <time>2023-02-26T11:55:14Z</time>
      </trkpt>
      <trkpt lat="38.376112" lon="-1.702166">
        <ele>319.5</ele>
        <time>2023-02-26T11:55:19Z</time>
      </trkpt>
      <trkpt lat="38.376134" lon="-1.702087">
        <ele>320.8</ele>
        <time>2023-02-26T11:55:23Z</time>
      </trkpt>
      <trkpt lat="38.376110" lon="-1.702010">
        <ele>320.0</ele>
        <time>2023-02-26T11:55:28Z</time>
      </trkpt>
      <trkpt lat="38.376059" lon="-1.701941">
        <ele>319.7</ele>
        <time>2023-02-26T11:55:35Z</time>
      </trkpt>
      <trkpt lat="38.376009" lon="-1.701869">
        <ele>318.8</ele>
        <time>2023-02-26T11:55:39Z</time>
      </trkpt>
      <trkpt lat="38.375970" lon="-1.701805">
        <ele>320.7</ele>
        <time>2023-02-26T11:57:25Z</time>
      </trkpt>
      <trkpt lat="38.375931" lon="-1.701737">
        <ele>321.8</ele>
        <time>2023-02-26T11:57:29Z</time>
      </trkpt>
      <trkpt lat="38.375877" lon="-1.701682">
        <ele>322.5</ele>
        <time>2023-02-26T11:57:34Z</time>
      </trkpt>
      <trkpt lat="38.375817" lon="-1.701648">
        <ele>324.5</ele>
        <time>2023-02-26T11:57:38Z</time>
      </trkpt>
      <trkpt lat="38.375753" lon="-1.701625">
        <ele>324.5</ele>
        <time>2023-02-26T11:57:44Z</time>
      </trkpt>
      <trkpt lat="38.375689" lon="-1.701602">
        <ele>325.7</ele>
        <time>2023-02-26T11:57:48Z</time>
      </trkpt>
      <trkpt lat="38.375626" lon="-1.701582">
        <ele>325.8</ele>
        <time>2023-02-26T11:57:52Z</time>
      </trkpt>
      <trkpt lat="38.375557" lon="-1.701593">
        <ele>323.8</ele>
        <time>2023-02-26T11:57:58Z</time>
      </trkpt>
      <trkpt lat="38.375492" lon="-1.701582">
        <ele>322.8</ele>
        <time>2023-02-26T11:58:03Z</time>
      </trkpt>
      <trkpt lat="38.375426" lon="-1.701567">
        <ele>322.0</ele>
        <time>2023-02-26T11:58:08Z</time>
      </trkpt>
      <trkpt lat="38.375360" lon="-1.701564">
        <ele>319.8</ele>
        <time>2023-02-26T11:58:14Z</time>
      </trkpt>
      <trkpt lat="38.375291" lon="-1.701553">
        <ele>318.8</ele>
        <time>2023-02-26T11:58:19Z</time>
      </trkpt>
      <trkpt lat="38.375226" lon="-1.701537">
        <ele>317.8</ele>
        <time>2023-02-26T11:58:25Z</time>
      </trkpt>
      <trkpt lat="38.375162" lon="-1.701504">
        <ele>317.8</ele>
        <time>2023-02-26T11:58:31Z</time>
      </trkpt>
      <trkpt lat="38.375100" lon="-1.701450">
        <ele>316.8</ele>
        <time>2023-02-26T11:58:35Z</time>
      </trkpt>
      <trkpt lat="38.375055" lon="-1.701376">
        <ele>315.8</ele>
        <time>2023-02-26T11:58:40Z</time>
      </trkpt>
      <trkpt lat="38.374996" lon="-1.701328">
        <ele>314.8</ele>
        <time>2023-02-26T11:58:45Z</time>
      </trkpt>
      <trkpt lat="38.374952" lon="-1.701268">
        <ele>314.7</ele>
        <time>2023-02-26T11:58:50Z</time>
      </trkpt>
      <trkpt lat="38.374906" lon="-1.701212">
        <ele>314.0</ele>
        <time>2023-02-26T11:58:55Z</time>
      </trkpt>
      <trkpt lat="38.374863" lon="-1.701150">
        <ele>313.8</ele>
        <time>2023-02-26T11:58:58Z</time>
      </trkpt>
      <trkpt lat="38.374831" lon="-1.701079">
        <ele>312.8</ele>
        <time>2023-02-26T11:59:03Z</time>
      </trkpt>
      <trkpt lat="38.374796" lon="-1.701010">
        <ele>313.8</ele>
        <time>2023-02-26T11:59:07Z</time>
      </trkpt>
      <trkpt lat="38.374756" lon="-1.700933">
        <ele>315.7</ele>
        <time>2023-02-26T11:59:12Z</time>
      </trkpt>
      <trkpt lat="38.374720" lon="-1.700861">
        <ele>316.8</ele>
        <time>2023-02-26T11:59:17Z</time>
      </trkpt>
      <trkpt lat="38.374681" lon="-1.700793">
        <ele>316.8</ele>
        <time>2023-02-26T11:59:21Z</time>
      </trkpt>
      <trkpt lat="38.374639" lon="-1.700725">
        <ele>317.8</ele>
        <time>2023-02-26T11:59:26Z</time>
      </trkpt>
      <trkpt lat="38.374604" lon="-1.700656">
        <ele>318.8</ele>
        <time>2023-02-26T11:59:30Z</time>
      </trkpt>
      <trkpt lat="38.374562" lon="-1.700580">
        <ele>319.8</ele>
        <time>2023-02-26T11:59:35Z</time>
      </trkpt>
      <trkpt lat="38.374512" lon="-1.700510">
        <ele>319.8</ele>
        <time>2023-02-26T11:59:40Z</time>
      </trkpt>
      <trkpt lat="38.374471" lon="-1.700447">
        <ele>319.8</ele>
        <time>2023-02-26T11:59:45Z</time>
      </trkpt>
      <trkpt lat="38.374431" lon="-1.700381">
        <ele>320.5</ele>
        <time>2023-02-26T11:59:50Z</time>
      </trkpt>
      <trkpt lat="38.374406" lon="-1.700294">
        <ele>319.8</ele>
        <time>2023-02-26T11:59:55Z</time>
      </trkpt>
      <trkpt lat="38.374394" lon="-1.700206">
        <ele>320.7</ele>
        <time>2023-02-26T12:00:00Z</time>
      </trkpt>
      <trkpt lat="38.374390" lon="-1.700120">
        <ele>319.8</ele>
        <time>2023-02-26T12:00:05Z</time>
      </trkpt>
      <trkpt lat="38.374383" lon="-1.700040">
        <ele>316.8</ele>
        <time>2023-02-26T12:00:11Z</time>
      </trkpt>
      <trkpt lat="38.374382" lon="-1.699960">
        <ele>315.8</ele>
        <time>2023-02-26T12:00:15Z</time>
      </trkpt>
      <trkpt lat="38.374385" lon="-1.699869">
        <ele>314.8</ele>
        <time>2023-02-26T12:00:19Z</time>
      </trkpt>
      <trkpt lat="38.374382" lon="-1.699780">
        <ele>315.8</ele>
        <time>2023-02-26T12:00:24Z</time>
      </trkpt>
      <trkpt lat="38.374368" lon="-1.699697">
        <ele>316.7</ele>
        <time>2023-02-26T12:00:29Z</time>
      </trkpt>
      <trkpt lat="38.374372" lon="-1.699610">
        <ele>316.8</ele>
        <time>2023-02-26T12:00:33Z</time>
      </trkpt>
      <trkpt lat="38.374377" lon="-1.699528">
        <ele>316.8</ele>
        <time>2023-02-26T12:00:38Z</time>
      </trkpt>
      <trkpt lat="38.374375" lon="-1.699440">
        <ele>316.8</ele>
        <time>2023-02-26T12:00:42Z</time>
      </trkpt>
      <trkpt lat="38.374365" lon="-1.699356">
        <ele>316.8</ele>
        <time>2023-02-26T12:00:47Z</time>
      </trkpt>
      <trkpt lat="38.374360" lon="-1.699262">
        <ele>315.8</ele>
        <time>2023-02-26T12:00:52Z</time>
      </trkpt>
      <trkpt lat="38.374340" lon="-1.699177">
        <ele>315.8</ele>
        <time>2023-02-26T12:00:57Z</time>
      </trkpt>
      <trkpt lat="38.374321" lon="-1.699097">
        <ele>314.8</ele>
        <time>2023-02-26T12:01:01Z</time>
      </trkpt>
      <trkpt lat="38.374292" lon="-1.699006">
        <ele>316.5</ele>
        <time>2023-02-26T12:01:05Z</time>
      </trkpt>
      <trkpt lat="38.374270" lon="-1.698931">
        <ele>316.8</ele>
        <time>2023-02-26T12:01:10Z</time>
      </trkpt>
      <trkpt lat="38.374253" lon="-1.698846">
        <ele>315.0</ele>
        <time>2023-02-26T12:01:14Z</time>
      </trkpt>
      <trkpt lat="38.374228" lon="-1.698763">
        <ele>315.8</ele>
        <time>2023-02-26T12:01:19Z</time>
      </trkpt>
      <trkpt lat="38.374200" lon="-1.698687">
        <ele>315.8</ele>
        <time>2023-02-26T12:01:24Z</time>
      </trkpt>
      <trkpt lat="38.374174" lon="-1.698612">
        <ele>316.8</ele>
        <time>2023-02-26T12:01:28Z</time>
      </trkpt>
      <trkpt lat="38.374151" lon="-1.698531">
        <ele>316.8</ele>
        <time>2023-02-26T12:01:32Z</time>
      </trkpt>
      <trkpt lat="38.374133" lon="-1.698454">
        <ele>316.8</ele>
        <time>2023-02-26T12:01:37Z</time>
      </trkpt>
      <trkpt lat="38.374112" lon="-1.698373">
        <ele>317.8</ele>
        <time>2023-02-26T12:01:42Z</time>
      </trkpt>
      <trkpt lat="38.374088" lon="-1.698295">
        <ele>316.8</ele>
        <time>2023-02-26T12:01:46Z</time>
      </trkpt>
      <trkpt lat="38.374066" lon="-1.698207">
        <ele>316.8</ele>
        <time>2023-02-26T12:01:51Z</time>
      </trkpt>
      <trkpt lat="38.374032" lon="-1.698129">
        <ele>316.8</ele>
        <time>2023-02-26T12:01:56Z</time>
      </trkpt>
      <trkpt lat="38.374007" lon="-1.698050">
        <ele>316.8</ele>
        <time>2023-02-26T12:02:00Z</time>
      </trkpt>
      <trkpt lat="38.373983" lon="-1.697968">
        <ele>316.8</ele>
        <time>2023-02-26T12:02:05Z</time>
      </trkpt>
      <trkpt lat="38.373967" lon="-1.697882">
        <ele>316.8</ele>
        <time>2023-02-26T12:02:10Z</time>
      </trkpt>
      <trkpt lat="38.373939" lon="-1.697797">
        <ele>316.8</ele>
        <time>2023-02-26T12:02:16Z</time>
      </trkpt>
      <trkpt lat="38.373916" lon="-1.697714">
        <ele>316.8</ele>
        <time>2023-02-26T12:02:20Z</time>
      </trkpt>
      <trkpt lat="38.373893" lon="-1.697631">
        <ele>317.8</ele>
        <time>2023-02-26T12:02:24Z</time>
      </trkpt>
      <trkpt lat="38.373866" lon="-1.697554">
        <ele>317.8</ele>
        <time>2023-02-26T12:02:29Z</time>
      </trkpt>
      <trkpt lat="38.373822" lon="-1.697477">
        <ele>317.8</ele>
        <time>2023-02-26T12:02:34Z</time>
      </trkpt>
      <trkpt lat="38.373790" lon="-1.697398">
        <ele>316.8</ele>
        <time>2023-02-26T12:02:39Z</time>
      </trkpt>
      <trkpt lat="38.373752" lon="-1.697317">
        <ele>315.8</ele>
        <time>2023-02-26T12:02:43Z</time>
      </trkpt>
      <trkpt lat="38.373720" lon="-1.697245">
        <ele>316.8</ele>
        <time>2023-02-26T12:02:48Z</time>
      </trkpt>
      <trkpt lat="38.373671" lon="-1.697190">
        <ele>316.8</ele>
        <time>2023-02-26T12:02:53Z</time>
      </trkpt>
      <trkpt lat="38.373621" lon="-1.697124">
        <ele>317.8</ele>
        <time>2023-02-26T12:02:57Z</time>
      </trkpt>
      <trkpt lat="38.373566" lon="-1.697068">
        <ele>317.8</ele>
        <time>2023-02-26T12:03:02Z</time>
      </trkpt>
      <trkpt lat="38.373504" lon="-1.697015">
        <ele>318.7</ele>
        <time>2023-02-26T12:03:07Z</time>
      </trkpt>
      <trkpt lat="38.373461" lon="-1.696954">
        <ele>317.8</ele>
        <time>2023-02-26T12:03:12Z</time>
      </trkpt>
      <trkpt lat="38.373418" lon="-1.696890">
        <ele>319.8</ele>
        <time>2023-02-26T12:03:16Z</time>
      </trkpt>
      <trkpt lat="38.373368" lon="-1.696828">
        <ele>322.8</ele>
        <time>2023-02-26T12:03:25Z</time>
      </trkpt>
      <trkpt lat="38.373320" lon="-1.696763">
        <ele>323.8</ele>
        <time>2023-02-26T12:03:29Z</time>
      </trkpt>
      <trkpt lat="38.373266" lon="-1.696711">
        <ele>323.8</ele>
        <time>2023-02-26T12:03:34Z</time>
      </trkpt>
      <trkpt lat="38.373212" lon="-1.696655">
        <ele>323.8</ele>
        <time>2023-02-26T12:03:38Z</time>
      </trkpt>
      <trkpt lat="38.373166" lon="-1.696602">
        <ele>325.8</ele>
        <time>2023-02-26T12:03:43Z</time>
      </trkpt>
      <trkpt lat="38.373116" lon="-1.696546">
        <ele>325.8</ele>
        <time>2023-02-26T12:03:48Z</time>
      </trkpt>
      <trkpt lat="38.373065" lon="-1.696487">
        <ele>327.7</ele>
        <time>2023-02-26T12:03:53Z</time>
      </trkpt>
      <trkpt lat="38.373017" lon="-1.696433">
        <ele>328.0</ele>
        <time>2023-02-26T12:03:57Z</time>
      </trkpt>
      <trkpt lat="38.372958" lon="-1.696385">
        <ele>328.8</ele>
        <time>2023-02-26T12:04:01Z</time>
      </trkpt>
      <trkpt lat="38.372904" lon="-1.696336">
        <ele>329.8</ele>
        <time>2023-02-26T12:04:07Z</time>
      </trkpt>
      <trkpt lat="38.372904" lon="-1.696253">
        <ele>326.8</ele>
        <time>2023-02-26T12:04:24Z</time>
      </trkpt>
      <trkpt lat="38.372855" lon="-1.696197">
        <ele>326.8</ele>
        <time>2023-02-26T12:04:30Z</time>
      </trkpt>
      <trkpt lat="38.372784" lon="-1.696170">
        <ele>325.8</ele>
        <time>2023-02-26T12:04:34Z</time>
      </trkpt>
      <trkpt lat="38.372724" lon="-1.696144">
        <ele>325.5</ele>
        <time>2023-02-26T12:04:40Z</time>
      </trkpt>
      <trkpt lat="38.372670" lon="-1.696102">
        <ele>325.8</ele>
        <time>2023-02-26T12:04:44Z</time>
      </trkpt>
      <trkpt lat="38.372624" lon="-1.696045">
        <ele>326.8</ele>
        <time>2023-02-26T12:04:49Z</time>
      </trkpt>
      <trkpt lat="38.372569" lon="-1.696002">
        <ele>327.8</ele>
        <time>2023-02-26T12:04:53Z</time>
      </trkpt>
      <trkpt lat="38.372513" lon="-1.695956">
        <ele>327.8</ele>
        <time>2023-02-26T12:04:57Z</time>
      </trkpt>
      <trkpt lat="38.372451" lon="-1.695914">
        <ele>329.7</ele>
        <time>2023-02-26T12:05:02Z</time>
      </trkpt>
      <trkpt lat="38.372382" lon="-1.695858">
        <ele>329.8</ele>
        <time>2023-02-26T12:05:07Z</time>
      </trkpt>
      <trkpt lat="38.372330" lon="-1.695808">
        <ele>329.8</ele>
        <time>2023-02-26T12:05:13Z</time>
      </trkpt>
      <trkpt lat="38.372277" lon="-1.695762">
        <ele>328.8</ele>
        <time>2023-02-26T12:05:16Z</time>
      </trkpt>
      <trkpt lat="38.372215" lon="-1.695717">
        <ele>329.8</ele>
        <time>2023-02-26T12:05:22Z</time>
      </trkpt>
      <trkpt lat="38.372161" lon="-1.695664">
        <ele>329.8</ele>
        <time>2023-02-26T12:05:27Z</time>
      </trkpt>
      <trkpt lat="38.372107" lon="-1.695607">
        <ele>328.8</ele>
        <time>2023-02-26T12:05:32Z</time>
      </trkpt>
      <trkpt lat="38.372052" lon="-1.695561">
        <ele>329.8</ele>
        <time>2023-02-26T12:05:36Z</time>
      </trkpt>
      <trkpt lat="38.372001" lon="-1.695504">
        <ele>329.8</ele>
        <time>2023-02-26T12:05:41Z</time>
      </trkpt>
      <trkpt lat="38.371950" lon="-1.695452">
        <ele>330.8</ele>
        <time>2023-02-26T12:05:46Z</time>
      </trkpt>
      <trkpt lat="38.371884" lon="-1.695481">
        <ele>330.0</ele>
        <time>2023-02-26T12:05:55Z</time>
      </trkpt>
      <trkpt lat="38.371818" lon="-1.695499">
        <ele>328.8</ele>
        <time>2023-02-26T12:06:00Z</time>
      </trkpt>
      <trkpt lat="38.371740" lon="-1.695493">
        <ele>327.8</ele>
        <time>2023-02-26T12:06:05Z</time>
      </trkpt>
      <trkpt lat="38.371683" lon="-1.695537">
        <ele>325.8</ele>
        <time>2023-02-26T12:06:10Z</time>
      </trkpt>
      <trkpt lat="38.371618" lon="-1.695530">
        <ele>324.8</ele>
        <time>2023-02-26T12:06:15Z</time>
      </trkpt>
      <trkpt lat="38.371555" lon="-1.695534">
        <ele>323.8</ele>
        <time>2023-02-26T12:06:21Z</time>
      </trkpt>
      <trkpt lat="38.371494" lon="-1.695510">
        <ele>320.8</ele>
        <time>2023-02-26T12:06:29Z</time>
      </trkpt>
      <trkpt lat="38.371429" lon="-1.695516">
        <ele>319.8</ele>
        <time>2023-02-26T12:06:34Z</time>
      </trkpt>
      <trkpt lat="38.371362" lon="-1.695497">
        <ele>319.8</ele>
        <time>2023-02-26T12:06:38Z</time>
      </trkpt>
      <trkpt lat="38.371298" lon="-1.695476">
        <ele>318.8</ele>
        <time>2023-02-26T12:06:43Z</time>
      </trkpt>
      <trkpt lat="38.371233" lon="-1.695472">
        <ele>318.8</ele>
        <time>2023-02-26T12:06:48Z</time>
      </trkpt>
      <trkpt lat="38.371170" lon="-1.695486">
        <ele>318.7</ele>
        <time>2023-02-26T12:06:52Z</time>
      </trkpt>
      <trkpt lat="38.371103" lon="-1.695490">
        <ele>319.7</ele>
        <time>2023-02-26T12:06:57Z</time>
      </trkpt>
      <trkpt lat="38.371030" lon="-1.695514">
        <ele>319.8</ele>
        <time>2023-02-26T12:07:01Z</time>
      </trkpt>
      <trkpt lat="38.370959" lon="-1.695531">
        <ele>320.6</ele>
        <time>2023-02-26T12:07:06Z</time>
      </trkpt>
      <trkpt lat="38.370895" lon="-1.695553">
        <ele>321.8</ele>
        <time>2023-02-26T12:07:12Z</time>
      </trkpt>
      <trkpt lat="38.370826" lon="-1.695560">
        <ele>321.8</ele>
        <time>2023-02-26T12:07:18Z</time>
      </trkpt>
      <trkpt lat="38.370747" lon="-1.695556">
        <ele>320.8</ele>
        <time>2023-02-26T12:07:23Z</time>
      </trkpt>
      <trkpt lat="38.370678" lon="-1.695563">
        <ele>319.8</ele>
        <time>2023-02-26T12:07:29Z</time>
      </trkpt>
      <trkpt lat="38.370617" lon="-1.695586">
        <ele>319.8</ele>
        <time>2023-02-26T12:07:33Z</time>
      </trkpt>
      <trkpt lat="38.370550" lon="-1.695589">
        <ele>320.0</ele>
        <time>2023-02-26T12:07:38Z</time>
      </trkpt>
      <trkpt lat="38.370483" lon="-1.695582">
        <ele>320.8</ele>
        <time>2023-02-26T12:07:43Z</time>
      </trkpt>
      <trkpt lat="38.370418" lon="-1.695577">
        <ele>321.8</ele>
        <time>2023-02-26T12:07:47Z</time>
      </trkpt>
      <trkpt lat="38.370355" lon="-1.695574">
        <ele>323.8</ele>
        <time>2023-02-26T12:07:58Z</time>
      </trkpt>
      <trkpt lat="38.370291" lon="-1.695551">
        <ele>323.8</ele>
        <time>2023-02-26T12:08:03Z</time>
      </trkpt>
      <trkpt lat="38.370221" lon="-1.695553">
        <ele>322.8</ele>
        <time>2023-02-26T12:08:08Z</time>
      </trkpt>
      <trkpt lat="38.370160" lon="-1.695575">
        <ele>322.8</ele>
        <time>2023-02-26T12:08:14Z</time>
      </trkpt>
      <trkpt lat="38.370099" lon="-1.695556">
        <ele>326.0</ele>
        <time>2023-02-26T12:09:18Z</time>
      </trkpt>
      <trkpt lat="38.370061" lon="-1.695541">
        <ele>328.8</ele>
        <time>2023-02-26T12:10:03Z</time>
      </trkpt>
      <trkpt lat="38.369993" lon="-1.695572">
        <ele>326.9</ele>
        <time>2023-02-26T12:10:06Z</time>
      </trkpt>
      <trkpt lat="38.369930" lon="-1.695535">
        <ele>327.8</ele>
        <time>2023-02-26T12:10:12Z</time>
      </trkpt>
      <trkpt lat="38.369871" lon="-1.695573">
        <ele>326.0</ele>
        <time>2023-02-26T12:10:16Z</time>
      </trkpt>
      <trkpt lat="38.369822" lon="-1.695631">
        <ele>325.8</ele>
        <time>2023-02-26T12:10:20Z</time>
      </trkpt>
      <trkpt lat="38.369766" lon="-1.695674">
        <ele>324.8</ele>
        <time>2023-02-26T12:10:25Z</time>
      </trkpt>
      <trkpt lat="38.369710" lon="-1.695722">
        <ele>325.8</ele>
        <time>2023-02-26T12:10:30Z</time>
      </trkpt>
      <trkpt lat="38.369649" lon="-1.695750">
        <ele>324.8</ele>
        <time>2023-02-26T12:10:36Z</time>
      </trkpt>
      <trkpt lat="38.369590" lon="-1.695722">
        <ele>321.8</ele>
        <time>2023-02-26T12:10:41Z</time>
      </trkpt>
      <trkpt lat="38.369538" lon="-1.695667">
        <ele>321.8</ele>
        <time>2023-02-26T12:10:46Z</time>
      </trkpt>
      <trkpt lat="38.369479" lon="-1.695635">
        <ele>318.8</ele>
        <time>2023-02-26T12:10:59Z</time>
      </trkpt>
      <trkpt lat="38.369415" lon="-1.695630">
        <ele>319.7</ele>
        <time>2023-02-26T12:11:05Z</time>
      </trkpt>
      <trkpt lat="38.369357" lon="-1.695596">
        <ele>318.0</ele>
        <time>2023-02-26T12:11:12Z</time>
      </trkpt>
      <trkpt lat="38.369296" lon="-1.695570">
        <ele>314.8</ele>
        <time>2023-02-26T12:11:20Z</time>
      </trkpt>
      <trkpt lat="38.369240" lon="-1.695518">
        <ele>315.8</ele>
        <time>2023-02-26T12:11:53Z</time>
      </trkpt>
      <trkpt lat="38.369201" lon="-1.695455">
        <ele>314.8</ele>
        <time>2023-02-26T12:11:57Z</time>
      </trkpt>
      <trkpt lat="38.369156" lon="-1.695398">
        <ele>313.8</ele>
        <time>2023-02-26T12:12:04Z</time>
      </trkpt>
      <trkpt lat="38.369126" lon="-1.695322">
        <ele>313.8</ele>
        <time>2023-02-26T12:12:10Z</time>
      </trkpt>
      <trkpt lat="38.369119" lon="-1.695235">
        <ele>312.8</ele>
        <time>2023-02-26T12:12:15Z</time>
      </trkpt>
      <trkpt lat="38.369069" lon="-1.695184">
        <ele>310.8</ele>
        <time>2023-02-26T12:12:22Z</time>
      </trkpt>
      <trkpt lat="38.369038" lon="-1.695262">
        <ele>311.5</ele>
        <time>2023-02-26T12:12:27Z</time>
      </trkpt>
      <trkpt lat="38.369010" lon="-1.695343">
        <ele>311.8</ele>
        <time>2023-02-26T12:12:31Z</time>
      </trkpt>
      <trkpt lat="38.368976" lon="-1.695411">
        <ele>312.8</ele>
        <time>2023-02-26T12:12:36Z</time>
      </trkpt>
      <trkpt lat="38.368942" lon="-1.695479">
        <ele>313.8</ele>
        <time>2023-02-26T12:12:45Z</time>
      </trkpt>
      <trkpt lat="38.368901" lon="-1.695552">
        <ele>313.0</ele>
        <time>2023-02-26T12:12:51Z</time>
      </trkpt>
      <trkpt lat="38.368882" lon="-1.695629">
        <ele>313.6</ele>
        <time>2023-02-26T12:12:55Z</time>
      </trkpt>
      <trkpt lat="38.368838" lon="-1.695690">
        <ele>313.8</ele>
        <time>2023-02-26T12:13:03Z</time>
      </trkpt>
      <trkpt lat="38.368808" lon="-1.695766">
        <ele>313.5</ele>
        <time>2023-02-26T12:13:09Z</time>
      </trkpt>
      <trkpt lat="38.368800" lon="-1.695859">
        <ele>311.8</ele>
        <time>2023-02-26T12:13:27Z</time>
      </trkpt>
      <trkpt lat="38.368798" lon="-1.695948">
        <ele>312.8</ele>
        <time>2023-02-26T12:13:35Z</time>
      </trkpt>
      <trkpt lat="38.368784" lon="-1.696032">
        <ele>312.8</ele>
        <time>2023-02-26T12:13:45Z</time>
      </trkpt>
      <trkpt lat="38.368782" lon="-1.696116">
        <ele>313.0</ele>
        <time>2023-02-26T12:15:29Z</time>
      </trkpt>
      <trkpt lat="38.368731" lon="-1.696182">
        <ele>315.5</ele>
        <time>2023-02-26T12:18:01Z</time>
      </trkpt>
      <trkpt lat="38.368771" lon="-1.696112">
        <ele>312.8</ele>
        <time>2023-02-26T12:18:24Z</time>
      </trkpt>
      <trkpt lat="38.368771" lon="-1.696022">
        <ele>316.7</ele>
        <time>2023-02-26T12:18:31Z</time>
      </trkpt>
      <trkpt lat="38.368790" lon="-1.695944">
        <ele>316.8</ele>
        <time>2023-02-26T12:18:41Z</time>
      </trkpt>
      <trkpt lat="38.368798" lon="-1.695863">
        <ele>315.8</ele>
        <time>2023-02-26T12:19:20Z</time>
      </trkpt>
      <trkpt lat="38.368765" lon="-1.695790">
        <ele>314.8</ele>
        <time>2023-02-26T12:19:24Z</time>
      </trkpt>
      <trkpt lat="38.368797" lon="-1.695720">
        <ele>313.8</ele>
        <time>2023-02-26T12:19:28Z</time>
      </trkpt>
      <trkpt lat="38.368829" lon="-1.695644">
        <ele>313.8</ele>
        <time>2023-02-26T12:19:34Z</time>
      </trkpt>
      <trkpt lat="38.368870" lon="-1.695583">
        <ele>313.8</ele>
        <time>2023-02-26T12:19:39Z</time>
      </trkpt>
      <trkpt lat="38.368899" lon="-1.695507">
        <ele>313.5</ele>
        <time>2023-02-26T12:19:44Z</time>
      </trkpt>
      <trkpt lat="38.368961" lon="-1.695487">
        <ele>313.0</ele>
        <time>2023-02-26T12:20:07Z</time>
      </trkpt>
      <trkpt lat="38.368990" lon="-1.695411">
        <ele>314.7</ele>
        <time>2023-02-26T12:20:11Z</time>
      </trkpt>
      <trkpt lat="38.369014" lon="-1.695329">
        <ele>313.0</ele>
        <time>2023-02-26T12:20:15Z</time>
      </trkpt>
      <trkpt lat="38.369042" lon="-1.695250">
        <ele>310.8</ele>
        <time>2023-02-26T12:20:19Z</time>
      </trkpt>
      <trkpt lat="38.369105" lon="-1.695231">
        <ele>310.8</ele>
        <time>2023-02-26T12:20:24Z</time>
      </trkpt>
      <trkpt lat="38.369140" lon="-1.695301">
        <ele>311.8</ele>
        <time>2023-02-26T12:20:28Z</time>
      </trkpt>
      <trkpt lat="38.369175" lon="-1.695379">
        <ele>314.7</ele>
        <time>2023-02-26T12:20:35Z</time>
      </trkpt>
      <trkpt lat="38.369202" lon="-1.695455">
        <ele>315.8</ele>
        <time>2023-02-26T12:20:40Z</time>
      </trkpt>
      <trkpt lat="38.369234" lon="-1.695526">
        <ele>316.7</ele>
        <time>2023-02-26T12:20:46Z</time>
      </trkpt>
      <trkpt lat="38.369290" lon="-1.695572">
        <ele>317.8</ele>
        <time>2023-02-26T12:20:51Z</time>
      </trkpt>
      <trkpt lat="38.369352" lon="-1.695602">
        <ele>318.8</ele>
        <time>2023-02-26T12:20:55Z</time>
      </trkpt>
      <trkpt lat="38.369414" lon="-1.695638">
        <ele>318.8</ele>
        <time>2023-02-26T12:21:00Z</time>
      </trkpt>
      <trkpt lat="38.369494" lon="-1.695647">
        <ele>319.8</ele>
        <time>2023-02-26T12:21:06Z</time>
      </trkpt>
      <trkpt lat="38.369549" lon="-1.695688">
        <ele>318.8</ele>
        <time>2023-02-26T12:21:14Z</time>
      </trkpt>
      <trkpt lat="38.369596" lon="-1.695692">
        <ele>320.7</ele>
        <time>2023-02-26T12:21:29Z</time>
      </trkpt>
      <trkpt lat="38.369637" lon="-1.695705">
        <ele>320.8</ele>
        <time>2023-02-26T12:21:33Z</time>
      </trkpt>
      <trkpt lat="38.369676" lon="-1.695692">
        <ele>319.0</ele>
        <time>2023-02-26T12:21:39Z</time>
      </trkpt>
      <trkpt lat="38.369709" lon="-1.695686">
        <ele>321.8</ele>
        <time>2023-02-26T12:21:48Z</time>
      </trkpt>
      <trkpt lat="38.369768" lon="-1.695630">
        <ele>320.8</ele>
        <time>2023-02-26T12:21:53Z</time>
      </trkpt>
      <trkpt lat="38.369824" lon="-1.695581">
        <ele>321.8</ele>
        <time>2023-02-26T12:21:58Z</time>
      </trkpt>
      <trkpt lat="38.369878" lon="-1.695534">
        <ele>321.8</ele>
        <time>2023-02-26T12:22:04Z</time>
      </trkpt>
      <trkpt lat="38.369959" lon="-1.695530">
        <ele>321.0</ele>
        <time>2023-02-26T12:22:14Z</time>
      </trkpt>
      <trkpt lat="38.370028" lon="-1.695518">
        <ele>320.8</ele>
        <time>2023-02-26T12:22:19Z</time>
      </trkpt>
      <trkpt lat="38.370090" lon="-1.695537">
        <ele>320.0</ele>
        <time>2023-02-26T12:22:25Z</time>
      </trkpt>
      <trkpt lat="38.370154" lon="-1.695560">
        <ele>323.5</ele>
        <time>2023-02-26T12:22:40Z</time>
      </trkpt>
      <trkpt lat="38.370222" lon="-1.695537">
        <ele>323.8</ele>
        <time>2023-02-26T12:22:45Z</time>
      </trkpt>
      <trkpt lat="38.370278" lon="-1.695579">
        <ele>324.8</ele>
        <time>2023-02-26T12:22:49Z</time>
      </trkpt>
      <trkpt lat="38.370343" lon="-1.695566">
        <ele>324.8</ele>
        <time>2023-02-26T12:22:56Z</time>
      </trkpt>
      <trkpt lat="38.370406" lon="-1.695576">
        <ele>324.8</ele>
        <time>2023-02-26T12:23:00Z</time>
      </trkpt>
      <trkpt lat="38.370471" lon="-1.695581">
        <ele>323.8</ele>
        <time>2023-02-26T12:23:04Z</time>
      </trkpt>
      <trkpt lat="38.370535" lon="-1.695598">
        <ele>323.8</ele>
        <time>2023-02-26T12:23:11Z</time>
      </trkpt>
      <trkpt lat="38.370599" lon="-1.695570">
        <ele>323.8</ele>
        <time>2023-02-26T12:23:16Z</time>
      </trkpt>
      <trkpt lat="38.370667" lon="-1.695549">
        <ele>323.8</ele>
        <time>2023-02-26T12:23:22Z</time>
      </trkpt>
      <trkpt lat="38.370730" lon="-1.695526">
        <ele>323.0</ele>
        <time>2023-02-26T12:23:27Z</time>
      </trkpt>
      <trkpt lat="38.370797" lon="-1.695538">
        <ele>322.8</ele>
        <time>2023-02-26T12:23:32Z</time>
      </trkpt>
      <trkpt lat="38.370860" lon="-1.695516">
        <ele>320.8</ele>
        <time>2023-02-26T12:23:38Z</time>
      </trkpt>
      <trkpt lat="38.370926" lon="-1.695497">
        <ele>320.8</ele>
        <time>2023-02-26T12:23:43Z</time>
      </trkpt>
      <trkpt lat="38.370986" lon="-1.695465">
        <ele>320.8</ele>
        <time>2023-02-26T12:23:47Z</time>
      </trkpt>
      <trkpt lat="38.371053" lon="-1.695467">
        <ele>320.8</ele>
        <time>2023-02-26T12:23:53Z</time>
      </trkpt>
      <trkpt lat="38.371116" lon="-1.695472">
        <ele>320.8</ele>
        <time>2023-02-26T12:23:57Z</time>
      </trkpt>
      <trkpt lat="38.371181" lon="-1.695455">
        <ele>320.8</ele>
        <time>2023-02-26T12:24:02Z</time>
      </trkpt>
      <trkpt lat="38.371245" lon="-1.695453">
        <ele>321.8</ele>
        <time>2023-02-26T12:24:07Z</time>
      </trkpt>
      <trkpt lat="38.371308" lon="-1.695444">
        <ele>322.8</ele>
        <time>2023-02-26T12:24:12Z</time>
      </trkpt>
      <trkpt lat="38.371372" lon="-1.695455">
        <ele>321.8</ele>
        <time>2023-02-26T12:24:17Z</time>
      </trkpt>
      <trkpt lat="38.371439" lon="-1.695466">
        <ele>321.8</ele>
        <time>2023-02-26T12:24:21Z</time>
      </trkpt>
      <trkpt lat="38.371503" lon="-1.695498">
        <ele>322.0</ele>
        <time>2023-02-26T12:24:26Z</time>
      </trkpt>
      <trkpt lat="38.371572" lon="-1.695505">
        <ele>322.7</ele>
        <time>2023-02-26T12:24:30Z</time>
      </trkpt>
      <trkpt lat="38.371643" lon="-1.695504">
        <ele>322.8</ele>
        <time>2023-02-26T12:24:35Z</time>
      </trkpt>
      <trkpt lat="38.371711" lon="-1.695504">
        <ele>321.8</ele>
        <time>2023-02-26T12:24:42Z</time>
      </trkpt>
      <trkpt lat="38.371776" lon="-1.695478">
        <ele>322.7</ele>
        <time>2023-02-26T12:24:48Z</time>
      </trkpt>
      <trkpt lat="38.371845" lon="-1.695471">
        <ele>320.8</ele>
        <time>2023-02-26T12:24:55Z</time>
      </trkpt>
      <trkpt lat="38.371931" lon="-1.695447">
        <ele>320.8</ele>
        <time>2023-02-26T12:25:30Z</time>
      </trkpt>
      <trkpt lat="38.371897" lon="-1.695374">
        <ele>326.8</ele>
        <time>2023-02-26T12:25:53Z</time>
      </trkpt>
      <trkpt lat="38.371865" lon="-1.695299">
        <ele>327.5</ele>
        <time>2023-02-26T12:26:02Z</time>
      </trkpt>
      <trkpt lat="38.371841" lon="-1.695219">
        <ele>327.0</ele>
        <time>2023-02-26T12:26:07Z</time>
      </trkpt>
      <trkpt lat="38.371836" lon="-1.695122">
        <ele>327.7</ele>
        <time>2023-02-26T12:26:51Z</time>
      </trkpt>
      <trkpt lat="38.371811" lon="-1.695048">
        <ele>327.8</ele>
        <time>2023-02-26T12:26:56Z</time>
      </trkpt>
      <trkpt lat="38.371792" lon="-1.694969">
        <ele>327.8</ele>
        <time>2023-02-26T12:27:00Z</time>
      </trkpt>
      <trkpt lat="38.371770" lon="-1.694887">
        <ele>326.8</ele>
        <time>2023-02-26T12:27:05Z</time>
      </trkpt>
      <trkpt lat="38.371762" lon="-1.694806">
        <ele>326.8</ele>
        <time>2023-02-26T12:27:09Z</time>
      </trkpt>
      <trkpt lat="38.371746" lon="-1.694719">
        <ele>325.8</ele>
        <time>2023-02-26T12:27:13Z</time>
      </trkpt>
      <trkpt lat="38.371730" lon="-1.694631">
        <ele>326.7</ele>
        <time>2023-02-26T12:27:18Z</time>
      </trkpt>
      <trkpt lat="38.371714" lon="-1.694552">
        <ele>327.8</ele>
        <time>2023-02-26T12:27:23Z</time>
      </trkpt>
      <trkpt lat="38.371688" lon="-1.694465">
        <ele>328.0</ele>
        <time>2023-02-26T12:27:27Z</time>
      </trkpt>
      <trkpt lat="38.371671" lon="-1.694384">
        <ele>327.8</ele>
        <time>2023-02-26T12:27:32Z</time>
      </trkpt>
      <trkpt lat="38.371656" lon="-1.694306">
        <ele>328.5</ele>
        <time>2023-02-26T12:27:36Z</time>
      </trkpt>
      <trkpt lat="38.371641" lon="-1.694220">
        <ele>328.8</ele>
        <time>2023-02-26T12:27:39Z</time>
      </trkpt>
      <trkpt lat="38.371619" lon="-1.694144">
        <ele>328.8</ele>
        <time>2023-02-26T12:27:44Z</time>
      </trkpt>
      <trkpt lat="38.371600" lon="-1.694062">
        <ele>329.5</ele>
        <time>2023-02-26T12:27:49Z</time>
      </trkpt>
      <trkpt lat="38.371579" lon="-1.693981">
        <ele>329.8</ele>
        <time>2023-02-26T12:27:53Z</time>
      </trkpt>
      <trkpt lat="38.371562" lon="-1.693902">
        <ele>329.0</ele>
        <time>2023-02-26T12:27:58Z</time>
      </trkpt>
      <trkpt lat="38.371539" lon="-1.693825">
        <ele>328.6</ele>
        <time>2023-02-26T12:28:02Z</time>
      </trkpt>
      <trkpt lat="38.371492" lon="-1.693754">
        <ele>329.8</ele>
        <time>2023-02-26T12:28:07Z</time>
      </trkpt>
      <trkpt lat="38.371439" lon="-1.693683">
        <ele>329.0</ele>
        <time>2023-02-26T12:28:13Z</time>
      </trkpt>
      <trkpt lat="38.371395" lon="-1.693625">
        <ele>328.8</ele>
        <time>2023-02-26T12:28:17Z</time>
      </trkpt>
      <trkpt lat="38.371335" lon="-1.693570">
        <ele>327.8</ele>
        <time>2023-02-26T12:28:22Z</time>
      </trkpt>
      <trkpt lat="38.371275" lon="-1.693538">
        <ele>327.8</ele>
        <time>2023-02-26T12:28:27Z</time>
      </trkpt>
      <trkpt lat="38.371229" lon="-1.693471">
        <ele>328.5</ele>
        <time>2023-02-26T12:28:31Z</time>
      </trkpt>
      <trkpt lat="38.371186" lon="-1.693409">
        <ele>328.8</ele>
        <time>2023-02-26T12:28:35Z</time>
      </trkpt>
      <trkpt lat="38.371138" lon="-1.693356">
        <ele>327.8</ele>
        <time>2023-02-26T12:28:40Z</time>
      </trkpt>
      <trkpt lat="38.371096" lon="-1.693294">
        <ele>327.8</ele>
        <time>2023-02-26T12:28:45Z</time>
      </trkpt>
      <trkpt lat="38.371053" lon="-1.693228">
        <ele>327.8</ele>
        <time>2023-02-26T12:28:50Z</time>
      </trkpt>
      <trkpt lat="38.370997" lon="-1.693175">
        <ele>327.8</ele>
        <time>2023-02-26T12:28:55Z</time>
      </trkpt>
      <trkpt lat="38.370956" lon="-1.693100">
        <ele>327.8</ele>
        <time>2023-02-26T12:29:00Z</time>
      </trkpt>
      <trkpt lat="38.370915" lon="-1.693028">
        <ele>327.0</ele>
        <time>2023-02-26T12:29:05Z</time>
      </trkpt>
      <trkpt lat="38.370869" lon="-1.692950">
        <ele>327.0</ele>
        <time>2023-02-26T12:29:10Z</time>
      </trkpt>
      <trkpt lat="38.370821" lon="-1.692888">
        <ele>327.7</ele>
        <time>2023-02-26T12:29:15Z</time>
      </trkpt>
      <trkpt lat="38.370770" lon="-1.692831">
        <ele>327.8</ele>
        <time>2023-02-26T12:29:20Z</time>
      </trkpt>
      <trkpt lat="38.370720" lon="-1.692779">
        <ele>327.8</ele>
        <time>2023-02-26T12:29:25Z</time>
      </trkpt>
      <trkpt lat="38.370666" lon="-1.692720">
        <ele>327.8</ele>
        <time>2023-02-26T12:29:29Z</time>
      </trkpt>
      <trkpt lat="38.370616" lon="-1.692666">
        <ele>326.8</ele>
        <time>2023-02-26T12:29:34Z</time>
      </trkpt>
      <trkpt lat="38.370562" lon="-1.692598">
        <ele>326.0</ele>
        <time>2023-02-26T12:29:39Z</time>
      </trkpt>
      <trkpt lat="38.370514" lon="-1.692532">
        <ele>325.0</ele>
        <time>2023-02-26T12:29:44Z</time>
      </trkpt>
      <trkpt lat="38.370470" lon="-1.692469">
        <ele>324.8</ele>
        <time>2023-02-26T12:29:49Z</time>
      </trkpt>
      <trkpt lat="38.370428" lon="-1.692408">
        <ele>324.7</ele>
        <time>2023-02-26T12:29:53Z</time>
      </trkpt>
      <trkpt lat="38.370325" lon="-1.692311">
        <ele>324.8</ele>
        <time>2023-02-26T12:30:04Z</time>
      </trkpt>
      <trkpt lat="38.370272" lon="-1.692256">
        <ele>322.8</ele>
        <time>2023-02-26T12:30:10Z</time>
      </trkpt>
      <trkpt lat="38.370216" lon="-1.692204">
        <ele>320.8</ele>
        <time>2023-02-26T12:30:15Z</time>
      </trkpt>
      <trkpt lat="38.370154" lon="-1.692167">
        <ele>321.8</ele>
        <time>2023-02-26T12:30:19Z</time>
      </trkpt>
      <trkpt lat="38.370089" lon="-1.692133">
        <ele>321.8</ele>
        <time>2023-02-26T12:30:24Z</time>
      </trkpt>
      <trkpt lat="38.370043" lon="-1.692074">
        <ele>321.8</ele>
        <time>2023-02-26T12:30:28Z</time>
      </trkpt>
      <trkpt lat="38.370003" lon="-1.692000">
        <ele>320.8</ele>
        <time>2023-02-26T12:30:38Z</time>
      </trkpt>
      <trkpt lat="38.369945" lon="-1.691952">
        <ele>321.8</ele>
        <time>2023-02-26T12:30:43Z</time>
      </trkpt>
      <trkpt lat="38.369877" lon="-1.691922">
        <ele>319.8</ele>
        <time>2023-02-26T12:30:48Z</time>
      </trkpt>
      <trkpt lat="38.369822" lon="-1.691869">
        <ele>319.8</ele>
        <time>2023-02-26T12:30:53Z</time>
      </trkpt>
      <trkpt lat="38.369768" lon="-1.691814">
        <ele>319.8</ele>
        <time>2023-02-26T12:30:58Z</time>
      </trkpt>
      <trkpt lat="38.369715" lon="-1.691762">
        <ele>320.8</ele>
        <time>2023-02-26T12:31:02Z</time>
      </trkpt>
      <trkpt lat="38.369658" lon="-1.691725">
        <ele>319.8</ele>
        <time>2023-02-26T12:31:07Z</time>
      </trkpt>
      <trkpt lat="38.369592" lon="-1.691688">
        <ele>318.8</ele>
        <time>2023-02-26T12:31:13Z</time>
      </trkpt>
      <trkpt lat="38.369541" lon="-1.691628">
        <ele>317.8</ele>
        <time>2023-02-26T12:31:18Z</time>
      </trkpt>
      <trkpt lat="38.369492" lon="-1.691565">
        <ele>317.5</ele>
        <time>2023-02-26T12:31:24Z</time>
      </trkpt>
      <trkpt lat="38.369422" lon="-1.691564">
        <ele>317.0</ele>
        <time>2023-02-26T12:31:29Z</time>
      </trkpt>
      <trkpt lat="38.369361" lon="-1.691519">
        <ele>316.0</ele>
        <time>2023-02-26T12:31:35Z</time>
      </trkpt>
      <trkpt lat="38.369312" lon="-1.691470">
        <ele>315.8</ele>
        <time>2023-02-26T12:31:40Z</time>
      </trkpt>
      <trkpt lat="38.369273" lon="-1.691406">
        <ele>316.5</ele>
        <time>2023-02-26T12:31:45Z</time>
      </trkpt>
      <trkpt lat="38.369230" lon="-1.691341">
        <ele>316.8</ele>
        <time>2023-02-26T12:31:49Z</time>
      </trkpt>
      <trkpt lat="38.369196" lon="-1.691270">
        <ele>317.8</ele>
        <time>2023-02-26T12:31:54Z</time>
      </trkpt>
      <trkpt lat="38.369163" lon="-1.691194">
        <ele>317.0</ele>
        <time>2023-02-26T12:32:00Z</time>
      </trkpt>
      <trkpt lat="38.369126" lon="-1.691119">
        <ele>316.8</ele>
        <time>2023-02-26T12:32:04Z</time>
      </trkpt>
      <trkpt lat="38.369089" lon="-1.691049">
        <ele>316.8</ele>
        <time>2023-02-26T12:32:09Z</time>
      </trkpt>
      <trkpt lat="38.369050" lon="-1.690980">
        <ele>315.8</ele>
        <time>2023-02-26T12:32:14Z</time>
      </trkpt>
      <trkpt lat="38.369002" lon="-1.690920">
        <ele>316.0</ele>
        <time>2023-02-26T12:32:19Z</time>
      </trkpt>
      <trkpt lat="38.368954" lon="-1.690860">
        <ele>315.8</ele>
        <time>2023-02-26T12:32:23Z</time>
      </trkpt>
      <trkpt lat="38.368905" lon="-1.690802">
        <ele>314.8</ele>
        <time>2023-02-26T12:32:28Z</time>
      </trkpt>
      <trkpt lat="38.368859" lon="-1.690739">
        <ele>313.0</ele>
        <time>2023-02-26T12:32:33Z</time>
      </trkpt>
      <trkpt lat="38.368808" lon="-1.690692">
        <ele>313.8</ele>
        <time>2023-02-26T12:32:37Z</time>
      </trkpt>
      <trkpt lat="38.368753" lon="-1.690632">
        <ele>314.8</ele>
        <time>2023-02-26T12:32:42Z</time>
      </trkpt>
      <trkpt lat="38.368705" lon="-1.690575">
        <ele>312.8</ele>
        <time>2023-02-26T12:32:48Z</time>
      </trkpt>
      <trkpt lat="38.368654" lon="-1.690521">
        <ele>312.8</ele>
        <time>2023-02-26T12:32:52Z</time>
      </trkpt>
      <trkpt lat="38.368613" lon="-1.690457">
        <ele>311.8</ele>
        <time>2023-02-26T12:32:57Z</time>
      </trkpt>
      <trkpt lat="38.368551" lon="-1.690435">
        <ele>311.8</ele>
        <time>2023-02-26T12:33:02Z</time>
      </trkpt>
      <trkpt lat="38.368496" lon="-1.690384">
        <ele>311.8</ele>
        <time>2023-02-26T12:33:07Z</time>
      </trkpt>
      <trkpt lat="38.368454" lon="-1.690313">
        <ele>311.8</ele>
        <time>2023-02-26T12:33:12Z</time>
      </trkpt>
      <trkpt lat="38.368423" lon="-1.690235">
        <ele>313.5</ele>
        <time>2023-02-26T12:33:18Z</time>
      </trkpt>
      <trkpt lat="38.368346" lon="-1.690156">
        <ele>314.8</ele>
        <time>2023-02-26T12:33:35Z</time>
      </trkpt>
      <trkpt lat="38.368303" lon="-1.690084">
        <ele>313.8</ele>
        <time>2023-02-26T12:33:41Z</time>
      </trkpt>
      <trkpt lat="38.368268" lon="-1.690013">
        <ele>313.8</ele>
        <time>2023-02-26T12:33:45Z</time>
      </trkpt>
      <trkpt lat="38.368220" lon="-1.689938">
        <ele>313.8</ele>
        <time>2023-02-26T12:33:50Z</time>
      </trkpt>
      <trkpt lat="38.368190" lon="-1.689854">
        <ele>313.8</ele>
        <time>2023-02-26T12:33:55Z</time>
      </trkpt>
      <trkpt lat="38.368152" lon="-1.689790">
        <ele>314.8</ele>
        <time>2023-02-26T12:33:59Z</time>
      </trkpt>
      <trkpt lat="38.368122" lon="-1.689709">
        <ele>313.9</ele>
        <time>2023-02-26T12:34:04Z</time>
      </trkpt>
      <trkpt lat="38.368102" lon="-1.689627">
        <ele>312.8</ele>
        <time>2023-02-26T12:34:11Z</time>
      </trkpt>
      <trkpt lat="38.368053" lon="-1.689570">
        <ele>312.8</ele>
        <time>2023-02-26T12:34:17Z</time>
      </trkpt>
      <trkpt lat="38.368009" lon="-1.689500">
        <ele>313.8</ele>
        <time>2023-02-26T12:34:21Z</time>
      </trkpt>
      <trkpt lat="38.367984" lon="-1.689424">
        <ele>312.8</ele>
        <time>2023-02-26T12:34:26Z</time>
      </trkpt>
      <trkpt lat="38.367957" lon="-1.689346">
        <ele>312.8</ele>
        <time>2023-02-26T12:34:30Z</time>
      </trkpt>
      <trkpt lat="38.367926" lon="-1.689264">
        <ele>311.8</ele>
        <time>2023-02-26T12:34:35Z</time>
      </trkpt>
      <trkpt lat="38.367892" lon="-1.689187">
        <ele>312.7</ele>
        <time>2023-02-26T12:34:40Z</time>
      </trkpt>
      <trkpt lat="38.367857" lon="-1.689109">
        <ele>313.8</ele>
        <time>2023-02-26T12:34:44Z</time>
      </trkpt>
      <trkpt lat="38.367842" lon="-1.689027">
        <ele>313.8</ele>
        <time>2023-02-26T12:34:49Z</time>
      </trkpt>
      <trkpt lat="38.367826" lon="-1.688946">
        <ele>313.8</ele>
        <time>2023-02-26T12:34:53Z</time>
      </trkpt>
      <trkpt lat="38.367789" lon="-1.688880">
        <ele>311.8</ele>
        <time>2023-02-26T12:35:01Z</time>
      </trkpt>
      <trkpt lat="38.367810" lon="-1.688799">
        <ele>311.8</ele>
        <time>2023-02-26T12:35:05Z</time>
      </trkpt>
      <trkpt lat="38.367806" lon="-1.688708">
        <ele>313.8</ele>
        <time>2023-02-26T12:35:11Z</time>
      </trkpt>
      <trkpt lat="38.367773" lon="-1.688637">
        <ele>314.5</ele>
        <time>2023-02-26T12:35:16Z</time>
      </trkpt>
      <trkpt lat="38.367729" lon="-1.688574">
        <ele>313.0</ele>
        <time>2023-02-26T12:35:23Z</time>
      </trkpt>
      <trkpt lat="38.367689" lon="-1.688510">
        <ele>312.8</ele>
        <time>2023-02-26T12:35:27Z</time>
      </trkpt>
      <trkpt lat="38.367662" lon="-1.688428">
        <ele>312.9</ele>
        <time>2023-02-26T12:35:32Z</time>
      </trkpt>
      <trkpt lat="38.367624" lon="-1.688352">
        <ele>312.5</ele>
        <time>2023-02-26T12:35:38Z</time>
      </trkpt>
      <trkpt lat="38.367580" lon="-1.688284">
        <ele>312.8</ele>
        <time>2023-02-26T12:35:43Z</time>
      </trkpt>
      <trkpt lat="38.367548" lon="-1.688213">
        <ele>312.8</ele>
        <time>2023-02-26T12:35:47Z</time>
      </trkpt>
      <trkpt lat="38.367505" lon="-1.688153">
        <ele>315.8</ele>
        <time>2023-02-26T12:35:53Z</time>
      </trkpt>
      <trkpt lat="38.367486" lon="-1.688076">
        <ele>314.9</ele>
        <time>2023-02-26T12:35:57Z</time>
      </trkpt>
      <trkpt lat="38.367440" lon="-1.688014">
        <ele>314.8</ele>
        <time>2023-02-26T12:36:02Z</time>
      </trkpt>
      <trkpt lat="38.367402" lon="-1.687948">
        <ele>315.8</ele>
        <time>2023-02-26T12:36:08Z</time>
      </trkpt>
      <trkpt lat="38.367366" lon="-1.687876">
        <ele>315.9</ele>
        <time>2023-02-26T12:36:13Z</time>
      </trkpt>
      <trkpt lat="38.367326" lon="-1.687808">
        <ele>315.8</ele>
        <time>2023-02-26T12:36:19Z</time>
      </trkpt>
      <trkpt lat="38.367275" lon="-1.687752">
        <ele>317.5</ele>
        <time>2023-02-26T12:36:24Z</time>
      </trkpt>
      <trkpt lat="38.367228" lon="-1.687698">
        <ele>317.6</ele>
        <time>2023-02-26T12:36:29Z</time>
      </trkpt>
      <trkpt lat="38.367188" lon="-1.687628">
        <ele>316.8</ele>
        <time>2023-02-26T12:36:34Z</time>
      </trkpt>
      <trkpt lat="38.367148" lon="-1.687558">
        <ele>316.8</ele>
        <time>2023-02-26T12:36:40Z</time>
      </trkpt>
      <trkpt lat="38.367094" lon="-1.687490">
        <ele>315.0</ele>
        <time>2023-02-26T12:36:46Z</time>
      </trkpt>
      <trkpt lat="38.367041" lon="-1.687443">
        <ele>313.9</ele>
        <time>2023-02-26T12:36:52Z</time>
      </trkpt>
      <trkpt lat="38.367003" lon="-1.687375">
        <ele>313.8</ele>
        <time>2023-02-26T12:36:57Z</time>
      </trkpt>
      <trkpt lat="38.366958" lon="-1.687310">
        <ele>313.0</ele>
        <time>2023-02-26T12:37:02Z</time>
      </trkpt>
      <trkpt lat="38.366904" lon="-1.687267">
        <ele>312.8</ele>
        <time>2023-02-26T12:37:07Z</time>
      </trkpt>
      <trkpt lat="38.366844" lon="-1.687227">
        <ele>313.0</ele>
        <time>2023-02-26T12:37:13Z</time>
      </trkpt>
      <trkpt lat="38.366785" lon="-1.687196">
        <ele>312.8</ele>
        <time>2023-02-26T12:37:17Z</time>
      </trkpt>
      <trkpt lat="38.366722" lon="-1.687160">
        <ele>311.8</ele>
        <time>2023-02-26T12:37:22Z</time>
      </trkpt>
      <trkpt lat="38.366656" lon="-1.687164">
        <ele>310.8</ele>
        <time>2023-02-26T12:37:28Z</time>
      </trkpt>
      <trkpt lat="38.366598" lon="-1.687127">
        <ele>309.8</ele>
        <time>2023-02-26T12:37:32Z</time>
      </trkpt>
      <trkpt lat="38.366544" lon="-1.687072">
        <ele>309.7</ele>
        <time>2023-02-26T12:37:40Z</time>
      </trkpt>
      <trkpt lat="38.366477" lon="-1.687067">
        <ele>308.8</ele>
        <time>2023-02-26T12:37:44Z</time>
      </trkpt>
      <trkpt lat="38.366419" lon="-1.687027">
        <ele>308.8</ele>
        <time>2023-02-26T12:37:49Z</time>
      </trkpt>
      <trkpt lat="38.366355" lon="-1.687018">
        <ele>307.9</ele>
        <time>2023-02-26T12:37:54Z</time>
      </trkpt>
      <trkpt lat="38.366290" lon="-1.686997">
        <ele>308.8</ele>
        <time>2023-02-26T12:37:59Z</time>
      </trkpt>
      <trkpt lat="38.366226" lon="-1.686980">
        <ele>309.8</ele>
        <time>2023-02-26T12:38:04Z</time>
      </trkpt>
      <trkpt lat="38.366160" lon="-1.686982">
        <ele>310.8</ele>
        <time>2023-02-26T12:38:09Z</time>
      </trkpt>
      <trkpt lat="38.366089" lon="-1.686983">
        <ele>310.8</ele>
        <time>2023-02-26T12:38:15Z</time>
      </trkpt>
      <trkpt lat="38.366019" lon="-1.686994">
        <ele>310.8</ele>
        <time>2023-02-26T12:38:20Z</time>
      </trkpt>
      <trkpt lat="38.365951" lon="-1.687022">
        <ele>310.8</ele>
        <time>2023-02-26T12:38:25Z</time>
      </trkpt>
      <trkpt lat="38.365888" lon="-1.687030">
        <ele>310.8</ele>
        <time>2023-02-26T12:38:31Z</time>
      </trkpt>
      <trkpt lat="38.365824" lon="-1.687052">
        <ele>310.8</ele>
        <time>2023-02-26T12:38:36Z</time>
      </trkpt>
      <trkpt lat="38.365761" lon="-1.687067">
        <ele>310.8</ele>
        <time>2023-02-26T12:38:41Z</time>
      </trkpt>
      <trkpt lat="38.365696" lon="-1.687066">
        <ele>311.8</ele>
        <time>2023-02-26T12:38:47Z</time>
      </trkpt>
      <trkpt lat="38.365633" lon="-1.687069">
        <ele>313.8</ele>
        <time>2023-02-26T12:38:54Z</time>
      </trkpt>
      <trkpt lat="38.365567" lon="-1.687072">
        <ele>312.9</ele>
        <time>2023-02-26T12:39:00Z</time>
      </trkpt>
      <trkpt lat="38.365506" lon="-1.687050">
        <ele>313.8</ele>
        <time>2023-02-26T12:39:05Z</time>
      </trkpt>
      <trkpt lat="38.365441" lon="-1.687040">
        <ele>314.8</ele>
        <time>2023-02-26T12:39:12Z</time>
      </trkpt>
      <trkpt lat="38.365371" lon="-1.687048">
        <ele>315.8</ele>
        <time>2023-02-26T12:39:18Z</time>
      </trkpt>
      <trkpt lat="38.365306" lon="-1.687048">
        <ele>315.8</ele>
        <time>2023-02-26T12:39:24Z</time>
      </trkpt>
      <trkpt lat="38.365240" lon="-1.687059">
        <ele>317.5</ele>
        <time>2023-02-26T12:39:30Z</time>
      </trkpt>
      <trkpt lat="38.365167" lon="-1.687078">
        <ele>317.8</ele>
        <time>2023-02-26T12:39:35Z</time>
      </trkpt>
      <trkpt lat="38.365103" lon="-1.687071">
        <ele>318.8</ele>
        <time>2023-02-26T12:39:41Z</time>
      </trkpt>
      <trkpt lat="38.365034" lon="-1.687057">
        <ele>321.8</ele>
        <time>2023-02-26T12:39:49Z</time>
      </trkpt>
      <trkpt lat="38.364957" lon="-1.687038">
        <ele>321.8</ele>
        <time>2023-02-26T12:39:55Z</time>
      </trkpt>
      <trkpt lat="38.364904" lon="-1.686990">
        <ele>322.5</ele>
        <time>2023-02-26T12:40:02Z</time>
      </trkpt>
      <trkpt lat="38.364869" lon="-1.686912">
        <ele>322.8</ele>
        <time>2023-02-26T12:40:08Z</time>
      </trkpt>
      <trkpt lat="38.364841" lon="-1.686831">
        <ele>322.8</ele>
        <time>2023-02-26T12:40:13Z</time>
      </trkpt>
      <trkpt lat="38.364809" lon="-1.686752">
        <ele>322.8</ele>
        <time>2023-02-26T12:40:19Z</time>
      </trkpt>
      <trkpt lat="38.364775" lon="-1.686684">
        <ele>322.0</ele>
        <time>2023-02-26T12:40:25Z</time>
      </trkpt>
      <trkpt lat="38.364735" lon="-1.686609">
        <ele>320.9</ele>
        <time>2023-02-26T12:40:30Z</time>
      </trkpt>
      <trkpt lat="38.364703" lon="-1.686539">
        <ele>320.8</ele>
        <time>2023-02-26T12:40:37Z</time>
      </trkpt>
      <trkpt lat="38.364697" lon="-1.686456">
        <ele>320.8</ele>
        <time>2023-02-26T12:40:43Z</time>
      </trkpt>
      <trkpt lat="38.364671" lon="-1.686372">
        <ele>321.8</ele>
        <time>2023-02-26T12:40:50Z</time>
      </trkpt>
      <trkpt lat="38.364684" lon="-1.686272">
        <ele>321.8</ele>
        <time>2023-02-26T12:40:55Z</time>
      </trkpt>
      <trkpt lat="38.364644" lon="-1.686200">
        <ele>323.8</ele>
        <time>2023-02-26T12:41:20Z</time>
      </trkpt>
      <trkpt lat="38.364623" lon="-1.686121">
        <ele>324.0</ele>
        <time>2023-02-26T12:41:32Z</time>
      </trkpt>
      <trkpt lat="38.364560" lon="-1.686088">
        <ele>324.8</ele>
        <time>2023-02-26T12:41:38Z</time>
      </trkpt>
      <trkpt lat="38.364512" lon="-1.686032">
        <ele>324.8</ele>
        <time>2023-02-26T12:41:45Z</time>
      </trkpt>
      <trkpt lat="38.364460" lon="-1.685978">
        <ele>325.8</ele>
        <time>2023-02-26T12:41:50Z</time>
      </trkpt>
      <trkpt lat="38.364403" lon="-1.685942">
        <ele>324.8</ele>
        <time>2023-02-26T12:41:55Z</time>
      </trkpt>
      <trkpt lat="38.364348" lon="-1.685895">
        <ele>324.8</ele>
        <time>2023-02-26T12:42:03Z</time>
      </trkpt>
      <trkpt lat="38.364302" lon="-1.685831">
        <ele>323.8</ele>
        <time>2023-02-26T12:42:10Z</time>
      </trkpt>
      <trkpt lat="38.364229" lon="-1.685800">
        <ele>326.5</ele>
        <time>2023-02-26T12:42:16Z</time>
      </trkpt>
      <trkpt lat="38.364174" lon="-1.685759">
        <ele>327.0</ele>
        <time>2023-02-26T12:42:21Z</time>
      </trkpt>
      <trkpt lat="38.364119" lon="-1.685706">
        <ele>325.8</ele>
        <time>2023-02-26T12:42:27Z</time>
      </trkpt>
      <trkpt lat="38.364063" lon="-1.685653">
        <ele>325.8</ele>
        <time>2023-02-26T12:42:33Z</time>
      </trkpt>
      <trkpt lat="38.364023" lon="-1.685589">
        <ele>326.8</ele>
        <time>2023-02-26T12:42:38Z</time>
      </trkpt>
      <trkpt lat="38.363975" lon="-1.685526">
        <ele>325.7</ele>
        <time>2023-02-26T12:42:44Z</time>
      </trkpt>
      <trkpt lat="38.363925" lon="-1.685476">
        <ele>324.8</ele>
        <time>2023-02-26T12:42:50Z</time>
      </trkpt>
      <trkpt lat="38.363880" lon="-1.685415">
        <ele>323.8</ele>
        <time>2023-02-26T12:42:55Z</time>
      </trkpt>
      <trkpt lat="38.363846" lon="-1.685343">
        <ele>323.8</ele>
        <time>2023-02-26T12:43:00Z</time>
      </trkpt>
      <trkpt lat="38.363794" lon="-1.685296">
        <ele>324.8</ele>
        <time>2023-02-26T12:43:06Z</time>
      </trkpt>
      <trkpt lat="38.363744" lon="-1.685242">
        <ele>322.8</ele>
        <time>2023-02-26T12:43:11Z</time>
      </trkpt>
      <trkpt lat="38.363684" lon="-1.685210">
        <ele>323.8</ele>
        <time>2023-02-26T12:43:16Z</time>
      </trkpt>
      <trkpt lat="38.363621" lon="-1.685187">
        <ele>322.8</ele>
        <time>2023-02-26T12:43:21Z</time>
      </trkpt>
      <trkpt lat="38.363558" lon="-1.685208">
        <ele>320.9</ele>
        <time>2023-02-26T12:43:27Z</time>
      </trkpt>
      <trkpt lat="38.363492" lon="-1.685220">
        <ele>320.0</ele>
        <time>2023-02-26T12:43:33Z</time>
      </trkpt>
      <trkpt lat="38.363428" lon="-1.685225">
        <ele>319.0</ele>
        <time>2023-02-26T12:43:38Z</time>
      </trkpt>
      <trkpt lat="38.363353" lon="-1.685213">
        <ele>317.8</ele>
        <time>2023-02-26T12:43:43Z</time>
      </trkpt>
      <trkpt lat="38.363287" lon="-1.685205">
        <ele>317.8</ele>
        <time>2023-02-26T12:43:50Z</time>
      </trkpt>
      <trkpt lat="38.363223" lon="-1.685201">
        <ele>317.8</ele>
        <time>2023-02-26T12:43:55Z</time>
      </trkpt>
      <trkpt lat="38.363158" lon="-1.685200">
        <ele>317.8</ele>
        <time>2023-02-26T12:44:02Z</time>
      </trkpt>
      <trkpt lat="38.363091" lon="-1.685176">
        <ele>317.8</ele>
        <time>2023-02-26T12:44:08Z</time>
      </trkpt>
      <trkpt lat="38.363029" lon="-1.685163">
        <ele>315.8</ele>
        <time>2023-02-26T12:44:16Z</time>
      </trkpt>
      <trkpt lat="38.362972" lon="-1.685128">
        <ele>315.8</ele>
        <time>2023-02-26T12:44:22Z</time>
      </trkpt>
      <trkpt lat="38.362907" lon="-1.685086">
        <ele>315.8</ele>
        <time>2023-02-26T12:44:28Z</time>
      </trkpt>
      <trkpt lat="38.362861" lon="-1.685029">
        <ele>315.8</ele>
        <time>2023-02-26T12:44:34Z</time>
      </trkpt>
      <trkpt lat="38.362824" lon="-1.684962">
        <ele>317.7</ele>
        <time>2023-02-26T12:44:40Z</time>
      </trkpt>
      <trkpt lat="38.362785" lon="-1.684896">
        <ele>318.8</ele>
        <time>2023-02-26T12:44:45Z</time>
      </trkpt>
      <trkpt lat="38.362750" lon="-1.684819">
        <ele>317.6</ele>
        <time>2023-02-26T12:44:51Z</time>
      </trkpt>
      <trkpt lat="38.362711" lon="-1.684753">
        <ele>317.8</ele>
        <time>2023-02-26T12:44:56Z</time>
      </trkpt>
      <trkpt lat="38.362677" lon="-1.684683">
        <ele>317.8</ele>
        <time>2023-02-26T12:45:03Z</time>
      </trkpt>
      <trkpt lat="38.362632" lon="-1.684625">
        <ele>315.8</ele>
        <time>2023-02-26T12:45:08Z</time>
      </trkpt>
      <trkpt lat="38.362590" lon="-1.684560">
        <ele>316.8</ele>
        <time>2023-02-26T12:45:14Z</time>
      </trkpt>
      <trkpt lat="38.362544" lon="-1.684496">
        <ele>317.8</ele>
        <time>2023-02-26T12:45:20Z</time>
      </trkpt>
      <trkpt lat="38.362510" lon="-1.684425">
        <ele>316.8</ele>
        <time>2023-02-26T12:45:26Z</time>
      </trkpt>
      <trkpt lat="38.362467" lon="-1.684359">
        <ele>316.8</ele>
        <time>2023-02-26T12:45:32Z</time>
      </trkpt>
      <trkpt lat="38.362424" lon="-1.684300">
        <ele>315.8</ele>
        <time>2023-02-26T12:45:37Z</time>
      </trkpt>
      <trkpt lat="38.362386" lon="-1.684236">
        <ele>315.8</ele>
        <time>2023-02-26T12:45:43Z</time>
      </trkpt>
      <trkpt lat="38.362346" lon="-1.684172">
        <ele>316.8</ele>
        <time>2023-02-26T12:45:48Z</time>
      </trkpt>
      <trkpt lat="38.362302" lon="-1.684102">
        <ele>316.8</ele>
        <time>2023-02-26T12:45:54Z</time>
      </trkpt>
      <trkpt lat="38.362272" lon="-1.684029">
        <ele>316.8</ele>
        <time>2023-02-26T12:46:01Z</time>
      </trkpt>
      <trkpt lat="38.362243" lon="-1.683958">
        <ele>315.8</ele>
        <time>2023-02-26T12:46:07Z</time>
      </trkpt>
      <trkpt lat="38.362198" lon="-1.683900">
        <ele>314.8</ele>
        <time>2023-02-26T12:46:12Z</time>
      </trkpt>
      <trkpt lat="38.362152" lon="-1.683833">
        <ele>315.8</ele>
        <time>2023-02-26T12:46:18Z</time>
      </trkpt>
      <trkpt lat="38.362116" lon="-1.683751">
        <ele>315.6</ele>
        <time>2023-02-26T12:46:24Z</time>
      </trkpt>
      <trkpt lat="38.362086" lon="-1.683674">
        <ele>317.6</ele>
        <time>2023-02-26T12:46:31Z</time>
      </trkpt>
      <trkpt lat="38.362051" lon="-1.683603">
        <ele>317.7</ele>
        <time>2023-02-26T12:46:36Z</time>
      </trkpt>
      <trkpt lat="38.362015" lon="-1.683533">
        <ele>319.7</ele>
        <time>2023-02-26T12:46:42Z</time>
      </trkpt>
      <trkpt lat="38.361990" lon="-1.683453">
        <ele>319.8</ele>
        <time>2023-02-26T12:46:47Z</time>
      </trkpt>
      <trkpt lat="38.361965" lon="-1.683378">
        <ele>320.8</ele>
        <time>2023-02-26T12:46:52Z</time>
      </trkpt>
      <trkpt lat="38.361928" lon="-1.683307">
        <ele>320.8</ele>
        <time>2023-02-26T12:46:59Z</time>
      </trkpt>
      <trkpt lat="38.361877" lon="-1.683256">
        <ele>319.8</ele>
        <time>2023-02-26T12:47:05Z</time>
      </trkpt>
      <trkpt lat="38.361855" lon="-1.683180">
        <ele>319.8</ele>
        <time>2023-02-26T12:47:10Z</time>
      </trkpt>
      <trkpt lat="38.361823" lon="-1.683104">
        <ele>320.8</ele>
        <time>2023-02-26T12:47:16Z</time>
      </trkpt>
      <trkpt lat="38.361768" lon="-1.683065">
        <ele>319.1</ele>
        <time>2023-02-26T12:47:27Z</time>
      </trkpt>
      <trkpt lat="38.361750" lon="-1.682979">
        <ele>319.1</ele>
        <time>2023-02-26T12:47:32Z</time>
      </trkpt>
      <trkpt lat="38.361729" lon="-1.682902">
        <ele>317.8</ele>
        <time>2023-02-26T12:47:37Z</time>
      </trkpt>
      <trkpt lat="38.361692" lon="-1.682827">
        <ele>316.9</ele>
        <time>2023-02-26T12:47:42Z</time>
      </trkpt>
      <trkpt lat="38.361642" lon="-1.682769">
        <ele>316.8</ele>
        <time>2023-02-26T12:47:46Z</time>
      </trkpt>
      <trkpt lat="38.361588" lon="-1.682713">
        <ele>318.8</ele>
        <time>2023-02-26T12:47:54Z</time>
      </trkpt>
      <trkpt lat="38.361538" lon="-1.682659">
        <ele>318.8</ele>
        <time>2023-02-26T12:47:59Z</time>
      </trkpt>
      <trkpt lat="38.361482" lon="-1.682621">
        <ele>316.8</ele>
        <time>2023-02-26T12:48:06Z</time>
      </trkpt>
      <trkpt lat="38.361425" lon="-1.682560">
        <ele>316.8</ele>
        <time>2023-02-26T12:48:12Z</time>
      </trkpt>
      <trkpt lat="38.361366" lon="-1.682517">
        <ele>315.8</ele>
        <time>2023-02-26T12:48:18Z</time>
      </trkpt>
      <trkpt lat="38.361309" lon="-1.682464">
        <ele>315.8</ele>
        <time>2023-02-26T12:48:23Z</time>
      </trkpt>
      <trkpt lat="38.361255" lon="-1.682422">
        <ele>315.8</ele>
        <time>2023-02-26T12:48:29Z</time>
      </trkpt>
      <trkpt lat="38.361192" lon="-1.682394">
        <ele>314.8</ele>
        <time>2023-02-26T12:48:35Z</time>
      </trkpt>
      <trkpt lat="38.361133" lon="-1.682356">
        <ele>315.8</ele>
        <time>2023-02-26T12:48:41Z</time>
      </trkpt>
      <trkpt lat="38.361076" lon="-1.682309">
        <ele>316.6</ele>
        <time>2023-02-26T12:48:46Z</time>
      </trkpt>
      <trkpt lat="38.361019" lon="-1.682268">
        <ele>316.8</ele>
        <time>2023-02-26T12:48:51Z</time>
      </trkpt>
      <trkpt lat="38.360962" lon="-1.682224">
        <ele>315.8</ele>
        <time>2023-02-26T12:48:57Z</time>
      </trkpt>
      <trkpt lat="38.360908" lon="-1.682175">
        <ele>315.8</ele>
        <time>2023-02-26T12:49:02Z</time>
      </trkpt>
      <trkpt lat="38.360849" lon="-1.682120">
        <ele>315.8</ele>
        <time>2023-02-26T12:49:07Z</time>
      </trkpt>
      <trkpt lat="38.360793" lon="-1.682075">
        <ele>315.8</ele>
        <time>2023-02-26T12:49:12Z</time>
      </trkpt>
      <trkpt lat="38.360745" lon="-1.682022">
        <ele>315.8</ele>
        <time>2023-02-26T12:49:18Z</time>
      </trkpt>
      <trkpt lat="38.360707" lon="-1.681957">
        <ele>316.8</ele>
        <time>2023-02-26T12:49:24Z</time>
      </trkpt>
      <trkpt lat="38.360676" lon="-1.681887">
        <ele>315.8</ele>
        <time>2023-02-26T12:49:29Z</time>
      </trkpt>
      <trkpt lat="38.360624" lon="-1.681839">
        <ele>314.8</ele>
        <time>2023-02-26T12:49:34Z</time>
      </trkpt>
      <trkpt lat="38.360570" lon="-1.681795">
        <ele>314.8</ele>
        <time>2023-02-26T12:49:40Z</time>
      </trkpt>
      <trkpt lat="38.360510" lon="-1.681755">
        <ele>313.9</ele>
        <time>2023-02-26T12:49:45Z</time>
      </trkpt>
      <trkpt lat="38.360445" lon="-1.681734">
        <ele>313.1</ele>
        <time>2023-02-26T12:49:51Z</time>
      </trkpt>
      <trkpt lat="38.360383" lon="-1.681720">
        <ele>312.8</ele>
        <time>2023-02-26T12:49:56Z</time>
      </trkpt>
      <trkpt lat="38.360318" lon="-1.681691">
        <ele>312.8</ele>
        <time>2023-02-26T12:50:01Z</time>
      </trkpt>
      <trkpt lat="38.360246" lon="-1.681651">
        <ele>312.8</ele>
        <time>2023-02-26T12:50:07Z</time>
      </trkpt>
      <trkpt lat="38.360184" lon="-1.681625">
        <ele>312.9</ele>
        <time>2023-02-26T12:50:15Z</time>
      </trkpt>
      <trkpt lat="38.360127" lon="-1.681586">
        <ele>314.6</ele>
        <time>2023-02-26T12:50:20Z</time>
      </trkpt>
      <trkpt lat="38.360074" lon="-1.681544">
        <ele>314.8</ele>
        <time>2023-02-26T12:50:24Z</time>
      </trkpt>
      <trkpt lat="38.360014" lon="-1.681514">
        <ele>312.8</ele>
        <time>2023-02-26T12:50:33Z</time>
      </trkpt>
      <trkpt lat="38.359976" lon="-1.681446">
        <ele>313.8</ele>
        <time>2023-02-26T12:50:38Z</time>
      </trkpt>
      <trkpt lat="38.359929" lon="-1.681389">
        <ele>312.9</ele>
        <time>2023-02-26T12:50:42Z</time>
      </trkpt>
      <trkpt lat="38.359878" lon="-1.681335">
        <ele>312.8</ele>
        <time>2023-02-26T12:50:47Z</time>
      </trkpt>
      <trkpt lat="38.359828" lon="-1.681283">
        <ele>312.8</ele>
        <time>2023-02-26T12:50:53Z</time>
      </trkpt>
      <trkpt lat="38.359769" lon="-1.681256">
        <ele>312.8</ele>
        <time>2023-02-26T12:50:58Z</time>
      </trkpt>
      <trkpt lat="38.359705" lon="-1.681232">
        <ele>312.8</ele>
        <time>2023-02-26T12:51:04Z</time>
      </trkpt>
      <trkpt lat="38.359642" lon="-1.681218">
        <ele>313.8</ele>
        <time>2023-02-26T12:51:09Z</time>
      </trkpt>
      <trkpt lat="38.359574" lon="-1.681224">
        <ele>312.8</ele>
        <time>2023-02-26T12:51:15Z</time>
      </trkpt>
      <trkpt lat="38.359508" lon="-1.681221">
        <ele>313.8</ele>
        <time>2023-02-26T12:51:20Z</time>
      </trkpt>
      <trkpt lat="38.359441" lon="-1.681209">
        <ele>313.8</ele>
        <time>2023-02-26T12:51:26Z</time>
      </trkpt>
      <trkpt lat="38.359385" lon="-1.681161">
        <ele>314.8</ele>
        <time>2023-02-26T12:51:31Z</time>
      </trkpt>
      <trkpt lat="38.359324" lon="-1.681137">
        <ele>315.8</ele>
        <time>2023-02-26T12:51:37Z</time>
      </trkpt>
      <trkpt lat="38.359265" lon="-1.681107">
        <ele>317.8</ele>
        <time>2023-02-26T12:51:47Z</time>
      </trkpt>
      <trkpt lat="38.359208" lon="-1.681063">
        <ele>317.8</ele>
        <time>2023-02-26T12:51:52Z</time>
      </trkpt>
      <trkpt lat="38.359154" lon="-1.681016">
        <ele>317.8</ele>
        <time>2023-02-26T12:51:57Z</time>
      </trkpt>
      <trkpt lat="38.359089" lon="-1.680980">
        <ele>317.1</ele>
        <time>2023-02-26T12:52:02Z</time>
      </trkpt>
      <trkpt lat="38.359043" lon="-1.680923">
        <ele>315.8</ele>
        <time>2023-02-26T12:52:07Z</time>
      </trkpt>
      <trkpt lat="38.358988" lon="-1.680871">
        <ele>317.6</ele>
        <time>2023-02-26T12:52:11Z</time>
      </trkpt>
      <trkpt lat="38.358932" lon="-1.680822">
        <ele>316.8</ele>
        <time>2023-02-26T12:52:16Z</time>
      </trkpt>
      <trkpt lat="38.358878" lon="-1.680766">
        <ele>316.8</ele>
        <time>2023-02-26T12:52:21Z</time>
      </trkpt>
      <trkpt lat="38.358822" lon="-1.680719">
        <ele>317.8</ele>
        <time>2023-02-26T12:52:26Z</time>
      </trkpt>
      <trkpt lat="38.358766" lon="-1.680673">
        <ele>317.8</ele>
        <time>2023-02-26T12:52:31Z</time>
      </trkpt>
      <trkpt lat="38.358707" lon="-1.680628">
        <ele>316.9</ele>
        <time>2023-02-26T12:52:37Z</time>
      </trkpt>
      <trkpt lat="38.358653" lon="-1.680583">
        <ele>317.1</ele>
        <time>2023-02-26T12:52:42Z</time>
      </trkpt>
      <trkpt lat="38.358604" lon="-1.680523">
        <ele>316.8</ele>
        <time>2023-02-26T12:52:48Z</time>
      </trkpt>
      <trkpt lat="38.358559" lon="-1.680452">
        <ele>316.8</ele>
        <time>2023-02-26T12:52:53Z</time>
      </trkpt>
      <trkpt lat="38.358507" lon="-1.680397">
        <ele>318.8</ele>
        <time>2023-02-26T12:52:58Z</time>
      </trkpt>
      <trkpt lat="38.358449" lon="-1.680354">
        <ele>318.8</ele>
        <time>2023-02-26T12:53:03Z</time>
      </trkpt>
      <trkpt lat="38.358388" lon="-1.680324">
        <ele>318.8</ele>
        <time>2023-02-26T12:53:08Z</time>
      </trkpt>
      <trkpt lat="38.358328" lon="-1.680290">
        <ele>320.8</ele>
        <time>2023-02-26T12:53:13Z</time>
      </trkpt>
      <trkpt lat="38.358265" lon="-1.680265">
        <ele>319.8</ele>
        <time>2023-02-26T12:53:19Z</time>
      </trkpt>
      <trkpt lat="38.358200" lon="-1.680242">
        <ele>319.8</ele>
        <time>2023-02-26T12:53:24Z</time>
      </trkpt>
      <trkpt lat="38.358143" lon="-1.680202">
        <ele>318.1</ele>
        <time>2023-02-26T12:53:30Z</time>
      </trkpt>
      <trkpt lat="38.358089" lon="-1.680159">
        <ele>317.8</ele>
        <time>2023-02-26T12:53:35Z</time>
      </trkpt>
      <trkpt lat="38.358030" lon="-1.680125">
        <ele>316.8</ele>
        <time>2023-02-26T12:53:40Z</time>
      </trkpt>
      <trkpt lat="38.357977" lon="-1.680069">
        <ele>316.8</ele>
        <time>2023-02-26T12:53:45Z</time>
      </trkpt>
      <trkpt lat="38.357926" lon="-1.680017">
        <ele>317.8</ele>
        <time>2023-02-26T12:53:50Z</time>
      </trkpt>
      <trkpt lat="38.357875" lon="-1.679962">
        <ele>319.8</ele>
        <time>2023-02-26T12:53:56Z</time>
      </trkpt>
      <trkpt lat="38.357835" lon="-1.679897">
        <ele>318.8</ele>
        <time>2023-02-26T12:54:01Z</time>
      </trkpt>
      <trkpt lat="38.357788" lon="-1.679831">
        <ele>319.8</ele>
        <time>2023-02-26T12:54:06Z</time>
      </trkpt>
      <trkpt lat="38.357728" lon="-1.679785">
        <ele>319.8</ele>
        <time>2023-02-26T12:54:11Z</time>
      </trkpt>
      <trkpt lat="38.357667" lon="-1.679737">
        <ele>318.8</ele>
        <time>2023-02-26T12:54:16Z</time>
      </trkpt>
      <trkpt lat="38.357599" lon="-1.679697">
        <ele>317.8</ele>
        <time>2023-02-26T12:54:22Z</time>
      </trkpt>
      <trkpt lat="38.357529" lon="-1.679679">
        <ele>317.8</ele>
        <time>2023-02-26T12:54:27Z</time>
      </trkpt>
      <trkpt lat="38.357463" lon="-1.679667">
        <ele>318.8</ele>
        <time>2023-02-26T12:54:33Z</time>
      </trkpt>
      <trkpt lat="38.357397" lon="-1.679687">
        <ele>317.8</ele>
        <time>2023-02-26T12:54:38Z</time>
      </trkpt>
      <trkpt lat="38.357333" lon="-1.679678">
        <ele>317.8</ele>
        <time>2023-02-26T12:54:42Z</time>
      </trkpt>
      <trkpt lat="38.357254" lon="-1.679686">
        <ele>317.8</ele>
        <time>2023-02-26T12:54:49Z</time>
      </trkpt>
      <trkpt lat="38.357182" lon="-1.679696">
        <ele>318.8</ele>
        <time>2023-02-26T12:54:54Z</time>
      </trkpt>
      <trkpt lat="38.357115" lon="-1.679712">
        <ele>318.8</ele>
        <time>2023-02-26T12:55:00Z</time>
      </trkpt>
      <trkpt lat="38.357044" lon="-1.679728">
        <ele>319.8</ele>
        <time>2023-02-26T12:55:05Z</time>
      </trkpt>
      <trkpt lat="38.356978" lon="-1.679735">
        <ele>318.8</ele>
        <time>2023-02-26T12:55:10Z</time>
      </trkpt>
      <trkpt lat="38.356916" lon="-1.679764">
        <ele>318.8</ele>
        <time>2023-02-26T12:55:14Z</time>
      </trkpt>
      <trkpt lat="38.356842" lon="-1.679792">
        <ele>319.8</ele>
        <time>2023-02-26T12:55:19Z</time>
      </trkpt>
      <trkpt lat="38.356778" lon="-1.679815">
        <ele>318.8</ele>
        <time>2023-02-26T12:55:25Z</time>
      </trkpt>
      <trkpt lat="38.356713" lon="-1.679843">
        <ele>319.1</ele>
        <time>2023-02-26T12:55:31Z</time>
      </trkpt>
      <trkpt lat="38.356648" lon="-1.679859">
        <ele>318.8</ele>
        <time>2023-02-26T12:55:37Z</time>
      </trkpt>
      <trkpt lat="38.356582" lon="-1.679866">
        <ele>317.8</ele>
        <time>2023-02-26T12:55:42Z</time>
      </trkpt>
      <trkpt lat="38.356513" lon="-1.679864">
        <ele>316.8</ele>
        <time>2023-02-26T12:55:47Z</time>
      </trkpt>
      <trkpt lat="38.356459" lon="-1.679923">
        <ele>315.8</ele>
        <time>2023-02-26T12:55:58Z</time>
      </trkpt>
      <trkpt lat="38.356386" lon="-1.679940">
        <ele>316.8</ele>
        <time>2023-02-26T12:56:04Z</time>
      </trkpt>
      <trkpt lat="38.356321" lon="-1.679926">
        <ele>315.8</ele>
        <time>2023-02-26T12:56:08Z</time>
      </trkpt>
      <trkpt lat="38.356259" lon="-1.679953">
        <ele>315.8</ele>
        <time>2023-02-26T12:56:13Z</time>
      </trkpt>
      <trkpt lat="38.356204" lon="-1.679910">
        <ele>313.8</ele>
        <time>2023-02-26T12:56:39Z</time>
      </trkpt>
      <trkpt lat="38.356133" lon="-1.679915">
        <ele>313.8</ele>
        <time>2023-02-26T12:56:45Z</time>
      </trkpt>
      <trkpt lat="38.356071" lon="-1.679902">
        <ele>314.8</ele>
        <time>2023-02-26T12:56:50Z</time>
      </trkpt>
      <trkpt lat="38.356007" lon="-1.679879">
        <ele>314.8</ele>
        <time>2023-02-26T12:56:56Z</time>
      </trkpt>
      <trkpt lat="38.355934" lon="-1.679866">
        <ele>313.8</ele>
        <time>2023-02-26T12:57:01Z</time>
      </trkpt>
      <trkpt lat="38.355864" lon="-1.679853">
        <ele>313.8</ele>
        <time>2023-02-26T12:57:06Z</time>
      </trkpt>
      <trkpt lat="38.355796" lon="-1.679834">
        <ele>314.8</ele>
        <time>2023-02-26T12:57:11Z</time>
      </trkpt>
      <trkpt lat="38.355727" lon="-1.679841">
        <ele>315.8</ele>
        <time>2023-02-26T12:57:15Z</time>
      </trkpt>
      <trkpt lat="38.355661" lon="-1.679859">
        <ele>315.8</ele>
        <time>2023-02-26T12:57:20Z</time>
      </trkpt>
      <trkpt lat="38.355590" lon="-1.679878">
        <ele>315.8</ele>
        <time>2023-02-26T12:57:25Z</time>
      </trkpt>
      <trkpt lat="38.355521" lon="-1.679902">
        <ele>315.8</ele>
        <time>2023-02-26T12:57:29Z</time>
      </trkpt>
      <trkpt lat="38.355452" lon="-1.679916">
        <ele>317.1</ele>
        <time>2023-02-26T12:57:35Z</time>
      </trkpt>
      <trkpt lat="38.355376" lon="-1.679932">
        <ele>318.8</ele>
        <time>2023-02-26T12:57:41Z</time>
      </trkpt>
      <trkpt lat="38.355313" lon="-1.679959">
        <ele>318.8</ele>
        <time>2023-02-26T12:57:47Z</time>
      </trkpt>
      <trkpt lat="38.355247" lon="-1.679964">
        <ele>318.8</ele>
        <time>2023-02-26T12:57:52Z</time>
      </trkpt>
      <trkpt lat="38.355184" lon="-1.679976">
        <ele>318.8</ele>
        <time>2023-02-26T12:57:56Z</time>
      </trkpt>
      <trkpt lat="38.355116" lon="-1.679998">
        <ele>319.8</ele>
        <time>2023-02-26T12:58:01Z</time>
      </trkpt>
      <trkpt lat="38.355051" lon="-1.680021">
        <ele>319.9</ele>
        <time>2023-02-26T12:58:06Z</time>
      </trkpt>
      <trkpt lat="38.354993" lon="-1.680060">
        <ele>320.6</ele>
        <time>2023-02-26T12:58:10Z</time>
      </trkpt>
      <trkpt lat="38.354940" lon="-1.680104">
        <ele>320.8</ele>
        <time>2023-02-26T12:58:15Z</time>
      </trkpt>
      <trkpt lat="38.354884" lon="-1.680140">
        <ele>319.9</ele>
        <time>2023-02-26T12:58:19Z</time>
      </trkpt>
      <trkpt lat="38.354820" lon="-1.680182">
        <ele>320.8</ele>
        <time>2023-02-26T12:58:24Z</time>
      </trkpt>
      <trkpt lat="38.354758" lon="-1.680212">
        <ele>320.8</ele>
        <time>2023-02-26T12:58:29Z</time>
      </trkpt>
      <trkpt lat="38.354687" lon="-1.680236">
        <ele>321.8</ele>
        <time>2023-02-26T12:58:35Z</time>
      </trkpt>
      <trkpt lat="38.354626" lon="-1.680263">
        <ele>321.8</ele>
        <time>2023-02-26T12:58:40Z</time>
      </trkpt>
      <trkpt lat="38.354556" lon="-1.680278">
        <ele>321.9</ele>
        <time>2023-02-26T12:58:45Z</time>
      </trkpt>
      <trkpt lat="38.354491" lon="-1.680288">
        <ele>320.8</ele>
        <time>2023-02-26T12:58:49Z</time>
      </trkpt>
      <trkpt lat="38.354425" lon="-1.680305">
        <ele>318.9</ele>
        <time>2023-02-26T12:58:55Z</time>
      </trkpt>
      <trkpt lat="38.354362" lon="-1.680338">
        <ele>318.8</ele>
        <time>2023-02-26T12:59:01Z</time>
      </trkpt>
      <trkpt lat="38.354312" lon="-1.680287">
        <ele>317.8</ele>
        <time>2023-02-26T12:59:13Z</time>
      </trkpt>
      <trkpt lat="38.354285" lon="-1.680213">
        <ele>315.8</ele>
        <time>2023-02-26T12:59:17Z</time>
      </trkpt>
      <trkpt lat="38.354225" lon="-1.680160">
        <ele>315.8</ele>
        <time>2023-02-26T12:59:21Z</time>
      </trkpt>
      <trkpt lat="38.354161" lon="-1.680144">
        <ele>315.8</ele>
        <time>2023-02-26T12:59:26Z</time>
      </trkpt>
      <trkpt lat="38.354091" lon="-1.680108">
        <ele>316.8</ele>
        <time>2023-02-26T12:59:30Z</time>
      </trkpt>
      <trkpt lat="38.354027" lon="-1.680091">
        <ele>317.8</ele>
        <time>2023-02-26T12:59:35Z</time>
      </trkpt>
      <trkpt lat="38.353965" lon="-1.680070">
        <ele>318.8</ele>
        <time>2023-02-26T12:59:39Z</time>
      </trkpt>
      <trkpt lat="38.353909" lon="-1.680010">
        <ele>319.8</ele>
        <time>2023-02-26T12:59:43Z</time>
      </trkpt>
      <trkpt lat="38.353854" lon="-1.679961">
        <ele>319.8</ele>
        <time>2023-02-26T12:59:48Z</time>
      </trkpt>
      <trkpt lat="38.353815" lon="-1.679897">
        <ele>320.8</ele>
        <time>2023-02-26T12:59:51Z</time>
      </trkpt>
      <trkpt lat="38.353778" lon="-1.679822">
        <ele>320.8</ele>
        <time>2023-02-26T12:59:57Z</time>
      </trkpt>
      <trkpt lat="38.353755" lon="-1.679744">
        <ele>319.9</ele>
        <time>2023-02-26T13:00:01Z</time>
      </trkpt>
      <trkpt lat="38.353729" lon="-1.679666">
        <ele>318.8</ele>
        <time>2023-02-26T13:00:06Z</time>
      </trkpt>
      <trkpt lat="38.353693" lon="-1.679594">
        <ele>318.8</ele>
        <time>2023-02-26T13:00:11Z</time>
      </trkpt>
      <trkpt lat="38.353664" lon="-1.679516">
        <ele>318.8</ele>
        <time>2023-02-26T13:00:16Z</time>
      </trkpt>
      <trkpt lat="38.353636" lon="-1.679439">
        <ele>318.8</ele>
        <time>2023-02-26T13:00:22Z</time>
      </trkpt>
      <trkpt lat="38.353611" lon="-1.679366">
        <ele>319.8</ele>
        <time>2023-02-26T13:00:31Z</time>
      </trkpt>
      <trkpt lat="38.353554" lon="-1.679328">
        <ele>319.8</ele>
        <time>2023-02-26T13:00:41Z</time>
      </trkpt>
      <trkpt lat="38.353535" lon="-1.679321">
        <ele>316.8</ele>
        <time>2023-02-26T13:01:47Z</time>
      </trkpt>
      <trkpt lat="38.353515" lon="-1.679291">
        <ele>314.9</ele>
        <time>2023-02-26T13:02:54Z</time>
      </trkpt>
      <trkpt lat="38.353496" lon="-1.679215">
        <ele>317.8</ele>
        <time>2023-02-26T13:03:01Z</time>
      </trkpt>
      <trkpt lat="38.353422" lon="-1.679209">
        <ele>319.8</ele>
        <time>2023-02-26T13:03:09Z</time>
      </trkpt>
      <trkpt lat="38.353369" lon="-1.679214">
        <ele>319.9</ele>
        <time>2023-02-26T13:03:17Z</time>
      </trkpt>
      <trkpt lat="38.353312" lon="-1.679215">
        <ele>319.8</ele>
        <time>2023-02-26T13:03:23Z</time>
      </trkpt>
      <trkpt lat="38.353247" lon="-1.679212">
        <ele>319.8</ele>
        <time>2023-02-26T13:03:29Z</time>
      </trkpt>
      <trkpt lat="38.353181" lon="-1.679187">
        <ele>320.8</ele>
        <time>2023-02-26T13:03:40Z</time>
      </trkpt>
      <trkpt lat="38.353124" lon="-1.679223">
        <ele>321.8</ele>
        <time>2023-02-26T13:03:44Z</time>
      </trkpt>
      <trkpt lat="38.353070" lon="-1.679282">
        <ele>320.8</ele>
        <time>2023-02-26T13:03:49Z</time>
      </trkpt>
      <trkpt lat="38.353038" lon="-1.679354">
        <ele>319.8</ele>
        <time>2023-02-26T13:03:54Z</time>
      </trkpt>
      <trkpt lat="38.353059" lon="-1.679437">
        <ele>318.9</ele>
        <time>2023-02-26T13:03:58Z</time>
      </trkpt>
      <trkpt lat="38.353060" lon="-1.679517">
        <ele>316.9</ele>
        <time>2023-02-26T13:04:03Z</time>
      </trkpt>
      <trkpt lat="38.353065" lon="-1.679614">
        <ele>313.8</ele>
        <time>2023-02-26T13:04:10Z</time>
      </trkpt>
      <trkpt lat="38.353052" lon="-1.679693">
        <ele>312.8</ele>
        <time>2023-02-26T13:04:14Z</time>
      </trkpt>
      <trkpt lat="38.353008" lon="-1.679758">
        <ele>314.8</ele>
        <time>2023-02-26T13:04:21Z</time>
      </trkpt>
      <trkpt lat="38.352956" lon="-1.679813">
        <ele>314.8</ele>
        <time>2023-02-26T13:04:29Z</time>
      </trkpt>
      <trkpt lat="38.352922" lon="-1.679894">
        <ele>313.9</ele>
        <time>2023-02-26T13:04:38Z</time>
      </trkpt>
      <trkpt lat="38.352866" lon="-1.679936">
        <ele>313.8</ele>
        <time>2023-02-26T13:04:42Z</time>
      </trkpt>
      <trkpt lat="38.352801" lon="-1.679962">
        <ele>313.8</ele>
        <time>2023-02-26T13:04:46Z</time>
      </trkpt>
      <trkpt lat="38.352738" lon="-1.679974">
        <ele>314.8</ele>
        <time>2023-02-26T13:04:52Z</time>
      </trkpt>
      <trkpt lat="38.352711" lon="-1.680051">
        <ele>313.8</ele>
        <time>2023-02-26T13:05:33Z</time>
      </trkpt>
      <trkpt lat="38.352650" lon="-1.680105">
        <ele>315.6</ele>
        <time>2023-02-26T13:05:39Z</time>
      </trkpt>
      <trkpt lat="38.352589" lon="-1.680144">
        <ele>316.8</ele>
        <time>2023-02-26T13:05:47Z</time>
      </trkpt>
      <trkpt lat="38.352534" lon="-1.680186">
        <ele>316.8</ele>
        <time>2023-02-26T13:05:52Z</time>
      </trkpt>
      <trkpt lat="38.352471" lon="-1.680204">
        <ele>317.8</ele>
        <time>2023-02-26T13:06:00Z</time>
      </trkpt>
      <trkpt lat="38.352406" lon="-1.680218">
        <ele>317.8</ele>
        <time>2023-02-26T13:06:04Z</time>
      </trkpt>
      <trkpt lat="38.352350" lon="-1.680257">
        <ele>317.8</ele>
        <time>2023-02-26T13:06:09Z</time>
      </trkpt>
      <trkpt lat="38.352289" lon="-1.680282">
        <ele>318.8</ele>
        <time>2023-02-26T13:06:14Z</time>
      </trkpt>
      <trkpt lat="38.352222" lon="-1.680304">
        <ele>319.8</ele>
        <time>2023-02-26T13:06:19Z</time>
      </trkpt>
      <trkpt lat="38.352160" lon="-1.680321">
        <ele>320.8</ele>
        <time>2023-02-26T13:06:25Z</time>
      </trkpt>
      <trkpt lat="38.352094" lon="-1.680353">
        <ele>320.8</ele>
        <time>2023-02-26T13:06:31Z</time>
      </trkpt>
      <trkpt lat="38.352032" lon="-1.680385">
        <ele>319.8</ele>
        <time>2023-02-26T13:06:36Z</time>
      </trkpt>
      <trkpt lat="38.351976" lon="-1.680431">
        <ele>319.8</ele>
        <time>2023-02-26T13:06:40Z</time>
      </trkpt>
      <trkpt lat="38.351910" lon="-1.680474">
        <ele>319.8</ele>
        <time>2023-02-26T13:06:45Z</time>
      </trkpt>
      <trkpt lat="38.351853" lon="-1.680530">
        <ele>318.8</ele>
        <time>2023-02-26T13:06:50Z</time>
      </trkpt>
      <trkpt lat="38.351800" lon="-1.680580">
        <ele>317.8</ele>
        <time>2023-02-26T13:06:55Z</time>
      </trkpt>
      <trkpt lat="38.351742" lon="-1.680615">
        <ele>316.8</ele>
        <time>2023-02-26T13:07:02Z</time>
      </trkpt>
      <trkpt lat="38.351684" lon="-1.680648">
        <ele>316.8</ele>
        <time>2023-02-26T13:07:07Z</time>
      </trkpt>
      <trkpt lat="38.351622" lon="-1.680673">
        <ele>317.6</ele>
        <time>2023-02-26T13:07:12Z</time>
      </trkpt>
      <trkpt lat="38.351562" lon="-1.680700">
        <ele>317.8</ele>
        <time>2023-02-26T13:07:17Z</time>
      </trkpt>
      <trkpt lat="38.351494" lon="-1.680718">
        <ele>317.8</ele>
        <time>2023-02-26T13:07:22Z</time>
      </trkpt>
      <trkpt lat="38.351429" lon="-1.680716">
        <ele>318.8</ele>
        <time>2023-02-26T13:07:27Z</time>
      </trkpt>
      <trkpt lat="38.351370" lon="-1.680743">
        <ele>319.8</ele>
        <time>2023-02-26T13:07:32Z</time>
      </trkpt>
      <trkpt lat="38.351305" lon="-1.680771">
        <ele>320.8</ele>
        <time>2023-02-26T13:07:37Z</time>
      </trkpt>
      <trkpt lat="38.351238" lon="-1.680777">
        <ele>321.8</ele>
        <time>2023-02-26T13:07:42Z</time>
      </trkpt>
      <trkpt lat="38.351176" lon="-1.680797">
        <ele>318.9</ele>
        <time>2023-02-26T13:07:49Z</time>
      </trkpt>
      <trkpt lat="38.351086" lon="-1.680829">
        <ele>315.8</ele>
        <time>2023-02-26T13:08:12Z</time>
      </trkpt>
      <trkpt lat="38.351018" lon="-1.680828">
        <ele>315.8</ele>
        <time>2023-02-26T13:08:17Z</time>
      </trkpt>
      <trkpt lat="38.350948" lon="-1.680848">
        <ele>315.9</ele>
        <time>2023-02-26T13:08:22Z</time>
      </trkpt>
      <trkpt lat="38.350881" lon="-1.680869">
        <ele>315.8</ele>
        <time>2023-02-26T13:08:28Z</time>
      </trkpt>
      <trkpt lat="38.350822" lon="-1.680905">
        <ele>316.8</ele>
        <time>2023-02-26T13:08:32Z</time>
      </trkpt>
      <trkpt lat="38.350752" lon="-1.680913">
        <ele>317.8</ele>
        <time>2023-02-26T13:08:37Z</time>
      </trkpt>
      <trkpt lat="38.350692" lon="-1.680882">
        <ele>317.8</ele>
        <time>2023-02-26T13:08:42Z</time>
      </trkpt>
      <trkpt lat="38.350628" lon="-1.680878">
        <ele>316.8</ele>
        <time>2023-02-26T13:08:46Z</time>
      </trkpt>
      <trkpt lat="38.350558" lon="-1.680877">
        <ele>317.8</ele>
        <time>2023-02-26T13:08:51Z</time>
      </trkpt>
      <trkpt lat="38.350493" lon="-1.680882">
        <ele>317.9</ele>
        <time>2023-02-26T13:08:57Z</time>
      </trkpt>
      <trkpt lat="38.350430" lon="-1.680897">
        <ele>318.8</ele>
        <time>2023-02-26T13:09:02Z</time>
      </trkpt>
      <trkpt lat="38.350360" lon="-1.680892">
        <ele>319.8</ele>
        <time>2023-02-26T13:09:07Z</time>
      </trkpt>
      <trkpt lat="38.350293" lon="-1.680883">
        <ele>319.8</ele>
        <time>2023-02-26T13:09:12Z</time>
      </trkpt>
      <trkpt lat="38.350230" lon="-1.680872">
        <ele>320.8</ele>
        <time>2023-02-26T13:09:17Z</time>
      </trkpt>
      <trkpt lat="38.350163" lon="-1.680851">
        <ele>320.8</ele>
        <time>2023-02-26T13:09:23Z</time>
      </trkpt>
      <trkpt lat="38.350098" lon="-1.680825">
        <ele>320.8</ele>
        <time>2023-02-26T13:09:28Z</time>
      </trkpt>
      <trkpt lat="38.350033" lon="-1.680835">
        <ele>320.1</ele>
        <time>2023-02-26T13:09:33Z</time>
      </trkpt>
      <trkpt lat="38.349963" lon="-1.680826">
        <ele>320.8</ele>
        <time>2023-02-26T13:09:38Z</time>
      </trkpt>
      <trkpt lat="38.349898" lon="-1.680842">
        <ele>320.8</ele>
        <time>2023-02-26T13:09:44Z</time>
      </trkpt>
      <trkpt lat="38.349834" lon="-1.680861">
        <ele>320.8</ele>
        <time>2023-02-26T13:09:49Z</time>
      </trkpt>
      <trkpt lat="38.349767" lon="-1.680879">
        <ele>321.6</ele>
        <time>2023-02-26T13:09:57Z</time>
      </trkpt>
      <trkpt lat="38.349711" lon="-1.680922">
        <ele>322.1</ele>
        <time>2023-02-26T13:10:02Z</time>
      </trkpt>
      <trkpt lat="38.349657" lon="-1.680972">
        <ele>321.8</ele>
        <time>2023-02-26T13:10:07Z</time>
      </trkpt>
      <trkpt lat="38.349597" lon="-1.681024">
        <ele>321.8</ele>
        <time>2023-02-26T13:10:12Z</time>
      </trkpt>
      <trkpt lat="38.349546" lon="-1.681077">
        <ele>321.8</ele>
        <time>2023-02-26T13:10:17Z</time>
      </trkpt>
      <trkpt lat="38.349481" lon="-1.681101">
        <ele>323.6</ele>
        <time>2023-02-26T13:10:23Z</time>
      </trkpt>
      <trkpt lat="38.349422" lon="-1.681140">
        <ele>323.8</ele>
        <time>2023-02-26T13:10:28Z</time>
      </trkpt>
      <trkpt lat="38.349359" lon="-1.681168">
        <ele>323.8</ele>
        <time>2023-02-26T13:10:33Z</time>
      </trkpt>
      <trkpt lat="38.349300" lon="-1.681205">
        <ele>323.8</ele>
        <time>2023-02-26T13:10:38Z</time>
      </trkpt>
      <trkpt lat="38.349234" lon="-1.681230">
        <ele>323.9</ele>
        <time>2023-02-26T13:10:43Z</time>
      </trkpt>
      <trkpt lat="38.349173" lon="-1.681259">
        <ele>323.1</ele>
        <time>2023-02-26T13:10:49Z</time>
      </trkpt>
      <trkpt lat="38.349112" lon="-1.681282">
        <ele>322.8</ele>
        <time>2023-02-26T13:10:54Z</time>
      </trkpt>
      <trkpt lat="38.349051" lon="-1.681316">
        <ele>322.8</ele>
        <time>2023-02-26T13:10:59Z</time>
      </trkpt>
      <trkpt lat="38.348995" lon="-1.681364">
        <ele>322.8</ele>
        <time>2023-02-26T13:11:04Z</time>
      </trkpt>
      <trkpt lat="38.348929" lon="-1.681398">
        <ele>321.8</ele>
        <time>2023-02-26T13:11:09Z</time>
      </trkpt>
      <trkpt lat="38.348873" lon="-1.681436">
        <ele>320.8</ele>
        <time>2023-02-26T13:11:13Z</time>
      </trkpt>
      <trkpt lat="38.348830" lon="-1.681497">
        <ele>320.8</ele>
        <time>2023-02-26T13:11:19Z</time>
      </trkpt>
      <trkpt lat="38.348789" lon="-1.681568">
        <ele>320.8</ele>
        <time>2023-02-26T13:11:24Z</time>
      </trkpt>
      <trkpt lat="38.348744" lon="-1.681634">
        <ele>319.9</ele>
        <time>2023-02-26T13:11:29Z</time>
      </trkpt>
      <trkpt lat="38.348692" lon="-1.681706">
        <ele>319.8</ele>
        <time>2023-02-26T13:11:34Z</time>
      </trkpt>
      <trkpt lat="38.348632" lon="-1.681751">
        <ele>319.8</ele>
        <time>2023-02-26T13:11:40Z</time>
      </trkpt>
      <trkpt lat="38.348581" lon="-1.681799">
        <ele>318.8</ele>
        <time>2023-02-26T13:11:45Z</time>
      </trkpt>
      <trkpt lat="38.348529" lon="-1.681851">
        <ele>316.9</ele>
        <time>2023-02-26T13:11:49Z</time>
      </trkpt>
      <trkpt lat="38.348470" lon="-1.681907">
        <ele>316.8</ele>
        <time>2023-02-26T13:11:54Z</time>
      </trkpt>
      <trkpt lat="38.348420" lon="-1.681962">
        <ele>317.8</ele>
        <time>2023-02-26T13:12:00Z</time>
      </trkpt>
      <trkpt lat="38.348356" lon="-1.682011">
        <ele>316.8</ele>
        <time>2023-02-26T13:12:05Z</time>
      </trkpt>
      <trkpt lat="38.348310" lon="-1.682069">
        <ele>316.6</ele>
        <time>2023-02-26T13:12:11Z</time>
      </trkpt>
      <trkpt lat="38.348256" lon="-1.682123">
        <ele>318.8</ele>
        <time>2023-02-26T13:12:16Z</time>
      </trkpt>
      <trkpt lat="38.348206" lon="-1.682175">
        <ele>318.8</ele>
        <time>2023-02-26T13:12:22Z</time>
      </trkpt>
      <trkpt lat="38.348155" lon="-1.682226">
        <ele>318.8</ele>
        <time>2023-02-26T13:12:27Z</time>
      </trkpt>
      <trkpt lat="38.348103" lon="-1.682282">
        <ele>318.8</ele>
        <time>2023-02-26T13:12:32Z</time>
      </trkpt>
      <trkpt lat="38.348053" lon="-1.682338">
        <ele>318.8</ele>
        <time>2023-02-26T13:12:37Z</time>
      </trkpt>
      <trkpt lat="38.348004" lon="-1.682390">
        <ele>318.8</ele>
        <time>2023-02-26T13:12:42Z</time>
      </trkpt>
      <trkpt lat="38.347947" lon="-1.682432">
        <ele>319.8</ele>
        <time>2023-02-26T13:12:47Z</time>
      </trkpt>
      <trkpt lat="38.347887" lon="-1.682466">
        <ele>319.8</ele>
        <time>2023-02-26T13:12:51Z</time>
      </trkpt>
      <trkpt lat="38.347828" lon="-1.682514">
        <ele>319.8</ele>
        <time>2023-02-26T13:12:56Z</time>
      </trkpt>
      <trkpt lat="38.347771" lon="-1.682556">
        <ele>320.8</ele>
        <time>2023-02-26T13:13:01Z</time>
      </trkpt>
      <trkpt lat="38.347712" lon="-1.682602">
        <ele>321.8</ele>
        <time>2023-02-26T13:13:06Z</time>
      </trkpt>
      <trkpt lat="38.347656" lon="-1.682642">
        <ele>321.8</ele>
        <time>2023-02-26T13:13:11Z</time>
      </trkpt>
      <trkpt lat="38.347604" lon="-1.682697">
        <ele>320.8</ele>
        <time>2023-02-26T13:13:16Z</time>
      </trkpt>
      <trkpt lat="38.347542" lon="-1.682735">
        <ele>321.8</ele>
        <time>2023-02-26T13:13:21Z</time>
      </trkpt>
      <trkpt lat="38.347486" lon="-1.682781">
        <ele>321.8</ele>
        <time>2023-02-26T13:13:27Z</time>
      </trkpt>
      <trkpt lat="38.347435" lon="-1.682844">
        <ele>320.9</ele>
        <time>2023-02-26T13:13:32Z</time>
      </trkpt>
      <trkpt lat="38.347370" lon="-1.682872">
        <ele>319.8</ele>
        <time>2023-02-26T13:13:37Z</time>
      </trkpt>
      <trkpt lat="38.347310" lon="-1.682907">
        <ele>320.8</ele>
        <time>2023-02-26T13:13:43Z</time>
      </trkpt>
      <trkpt lat="38.347264" lon="-1.682970">
        <ele>321.8</ele>
        <time>2023-02-26T13:13:49Z</time>
      </trkpt>
      <trkpt lat="38.347230" lon="-1.683044">
        <ele>320.6</ele>
        <time>2023-02-26T13:13:54Z</time>
      </trkpt>
      <trkpt lat="38.347204" lon="-1.683117">
        <ele>320.8</ele>
        <time>2023-02-26T13:13:59Z</time>
      </trkpt>
      <trkpt lat="38.347174" lon="-1.683190">
        <ele>319.9</ele>
        <time>2023-02-26T13:14:09Z</time>
      </trkpt>
      <trkpt lat="38.347139" lon="-1.683269">
        <ele>318.8</ele>
        <time>2023-02-26T13:14:15Z</time>
      </trkpt>
      <trkpt lat="38.347100" lon="-1.683334">
        <ele>317.8</ele>
        <time>2023-02-26T13:14:20Z</time>
      </trkpt>
      <trkpt lat="38.347054" lon="-1.683402">
        <ele>314.9</ele>
        <time>2023-02-26T13:14:26Z</time>
      </trkpt>
      <trkpt lat="38.347003" lon="-1.683464">
        <ele>314.8</ele>
        <time>2023-02-26T13:14:32Z</time>
      </trkpt>
      <trkpt lat="38.346962" lon="-1.683530">
        <ele>316.8</ele>
        <time>2023-02-26T13:14:37Z</time>
      </trkpt>
      <trkpt lat="38.346915" lon="-1.683594">
        <ele>316.8</ele>
        <time>2023-02-26T13:14:42Z</time>
      </trkpt>
      <trkpt lat="38.346852" lon="-1.683656">
        <ele>316.8</ele>
        <time>2023-02-26T13:14:48Z</time>
      </trkpt>
      <trkpt lat="38.346803" lon="-1.683717">
        <ele>317.8</ele>
        <time>2023-02-26T13:14:53Z</time>
      </trkpt>
      <trkpt lat="38.346750" lon="-1.683768">
        <ele>318.8</ele>
        <time>2023-02-26T13:14:59Z</time>
      </trkpt>
      <trkpt lat="38.346705" lon="-1.683832">
        <ele>318.8</ele>
        <time>2023-02-26T13:15:03Z</time>
      </trkpt>
      <trkpt lat="38.346655" lon="-1.683894">
        <ele>318.6</ele>
        <time>2023-02-26T13:15:08Z</time>
      </trkpt>
      <trkpt lat="38.346605" lon="-1.683951">
        <ele>318.8</ele>
        <time>2023-02-26T13:15:13Z</time>
      </trkpt>
      <trkpt lat="38.346558" lon="-1.684014">
        <ele>318.8</ele>
        <time>2023-02-26T13:15:18Z</time>
      </trkpt>
      <trkpt lat="38.346493" lon="-1.684047">
        <ele>319.8</ele>
        <time>2023-02-26T13:15:23Z</time>
      </trkpt>
      <trkpt lat="38.346431" lon="-1.684075">
        <ele>320.8</ele>
        <time>2023-02-26T13:15:28Z</time>
      </trkpt>
      <trkpt lat="38.346364" lon="-1.684094">
        <ele>321.8</ele>
        <time>2023-02-26T13:15:33Z</time>
      </trkpt>
      <trkpt lat="38.346299" lon="-1.684103">
        <ele>320.8</ele>
        <time>2023-02-26T13:15:38Z</time>
      </trkpt>
      <trkpt lat="38.346237" lon="-1.684132">
        <ele>320.8</ele>
        <time>2023-02-26T13:15:43Z</time>
      </trkpt>
      <trkpt lat="38.346176" lon="-1.684172">
        <ele>320.8</ele>
        <time>2023-02-26T13:15:48Z</time>
      </trkpt>
      <trkpt lat="38.346106" lon="-1.684188">
        <ele>320.8</ele>
        <time>2023-02-26T13:15:53Z</time>
      </trkpt>
      <trkpt lat="38.346041" lon="-1.684210">
        <ele>321.8</ele>
        <time>2023-02-26T13:15:58Z</time>
      </trkpt>
      <trkpt lat="38.345978" lon="-1.684257">
        <ele>322.8</ele>
        <time>2023-02-26T13:16:03Z</time>
      </trkpt>
      <trkpt lat="38.345926" lon="-1.684305">
        <ele>322.8</ele>
        <time>2023-02-26T13:16:08Z</time>
      </trkpt>
      <trkpt lat="38.345874" lon="-1.684353">
        <ele>322.8</ele>
        <time>2023-02-26T13:16:13Z</time>
      </trkpt>
      <trkpt lat="38.345812" lon="-1.684379">
        <ele>321.8</ele>
        <time>2023-02-26T13:16:19Z</time>
      </trkpt>
      <trkpt lat="38.345757" lon="-1.684420">
        <ele>320.8</ele>
        <time>2023-02-26T13:16:24Z</time>
      </trkpt>
      <trkpt lat="38.345704" lon="-1.684466">
        <ele>321.8</ele>
        <time>2023-02-26T13:16:29Z</time>
      </trkpt>
      <trkpt lat="38.345649" lon="-1.684516">
        <ele>322.8</ele>
        <time>2023-02-26T13:16:33Z</time>
      </trkpt>
      <trkpt lat="38.345587" lon="-1.684569">
        <ele>321.9</ele>
        <time>2023-02-26T13:16:38Z</time>
      </trkpt>
      <trkpt lat="38.345523" lon="-1.684603">
        <ele>320.8</ele>
        <time>2023-02-26T13:16:43Z</time>
      </trkpt>
      <trkpt lat="38.345457" lon="-1.684629">
        <ele>321.1</ele>
        <time>2023-02-26T13:16:50Z</time>
      </trkpt>
      <trkpt lat="38.345397" lon="-1.684667">
        <ele>321.8</ele>
        <time>2023-02-26T13:16:55Z</time>
      </trkpt>
      <trkpt lat="38.345338" lon="-1.684698">
        <ele>321.8</ele>
        <time>2023-02-26T13:16:59Z</time>
      </trkpt>
      <trkpt lat="38.345280" lon="-1.684734">
        <ele>319.9</ele>
        <time>2023-02-26T13:17:05Z</time>
      </trkpt>
      <trkpt lat="38.345226" lon="-1.684779">
        <ele>319.1</ele>
        <time>2023-02-26T13:17:12Z</time>
      </trkpt>
      <trkpt lat="38.345169" lon="-1.684818">
        <ele>318.8</ele>
        <time>2023-02-26T13:17:20Z</time>
      </trkpt>
      <trkpt lat="38.345157" lon="-1.684900">
        <ele>318.8</ele>
        <time>2023-02-26T13:17:24Z</time>
      </trkpt>
      <trkpt lat="38.345126" lon="-1.684974">
        <ele>316.8</ele>
        <time>2023-02-26T13:17:28Z</time>
      </trkpt>
      <trkpt lat="38.345094" lon="-1.685052">
        <ele>315.8</ele>
        <time>2023-02-26T13:17:33Z</time>
      </trkpt>
      <trkpt lat="38.345088" lon="-1.685141">
        <ele>315.8</ele>
        <time>2023-02-26T13:17:39Z</time>
      </trkpt>
      <trkpt lat="38.345047" lon="-1.685212">
        <ele>314.8</ele>
        <time>2023-02-26T13:17:43Z</time>
      </trkpt>
      <trkpt lat="38.344997" lon="-1.685272">
        <ele>315.8</ele>
        <time>2023-02-26T13:17:49Z</time>
      </trkpt>
      <trkpt lat="38.344952" lon="-1.685340">
        <ele>314.8</ele>
        <time>2023-02-26T13:17:55Z</time>
      </trkpt>
      <trkpt lat="38.344897" lon="-1.685379">
        <ele>314.1</ele>
        <time>2023-02-26T13:18:00Z</time>
      </trkpt>
      <trkpt lat="38.344853" lon="-1.685443">
        <ele>315.8</ele>
        <time>2023-02-26T13:18:05Z</time>
      </trkpt>
      <trkpt lat="38.344814" lon="-1.685512">
        <ele>315.8</ele>
        <time>2023-02-26T13:18:10Z</time>
      </trkpt>
      <trkpt lat="38.344785" lon="-1.685594">
        <ele>315.6</ele>
        <time>2023-02-26T13:18:17Z</time>
      </trkpt>
      <trkpt lat="38.344760" lon="-1.685669">
        <ele>315.0</ele>
        <time>2023-02-26T13:18:24Z</time>
      </trkpt>
      <trkpt lat="38.344718" lon="-1.685731">
        <ele>313.8</ele>
        <time>2023-02-26T13:18:28Z</time>
      </trkpt>
      <trkpt lat="38.344674" lon="-1.685792">
        <ele>312.8</ele>
        <time>2023-02-26T13:18:34Z</time>
      </trkpt>
      <trkpt lat="38.344653" lon="-1.685876">
        <ele>314.9</ele>
        <time>2023-02-26T13:18:40Z</time>
      </trkpt>
      <trkpt lat="38.344601" lon="-1.685945">
        <ele>314.8</ele>
        <time>2023-02-26T13:18:45Z</time>
      </trkpt>
      <trkpt lat="38.344557" lon="-1.686003">
        <ele>315.8</ele>
        <time>2023-02-26T13:18:50Z</time>
      </trkpt>
      <trkpt lat="38.344522" lon="-1.686075">
        <ele>315.8</ele>
        <time>2023-02-26T13:18:56Z</time>
      </trkpt>
      <trkpt lat="38.344498" lon="-1.686153">
        <ele>315.8</ele>
        <time>2023-02-26T13:19:01Z</time>
      </trkpt>
      <trkpt lat="38.344451" lon="-1.686207">
        <ele>314.8</ele>
        <time>2023-02-26T13:19:07Z</time>
      </trkpt>
      <trkpt lat="38.344415" lon="-1.686280">
        <ele>314.8</ele>
        <time>2023-02-26T13:19:12Z</time>
      </trkpt>
      <trkpt lat="38.344381" lon="-1.686350">
        <ele>314.8</ele>
        <time>2023-02-26T13:19:16Z</time>
      </trkpt>
      <trkpt lat="38.344346" lon="-1.686420">
        <ele>313.8</ele>
        <time>2023-02-26T13:19:20Z</time>
      </trkpt>
      <trkpt lat="38.344307" lon="-1.686484">
        <ele>313.8</ele>
        <time>2023-02-26T13:19:26Z</time>
      </trkpt>
      <trkpt lat="38.344296" lon="-1.686567">
        <ele>313.8</ele>
        <time>2023-02-26T13:19:30Z</time>
      </trkpt>
      <trkpt lat="38.344272" lon="-1.686645">
        <ele>313.9</ele>
        <time>2023-02-26T13:19:36Z</time>
      </trkpt>
      <trkpt lat="38.344233" lon="-1.686714">
        <ele>314.6</ele>
        <time>2023-02-26T13:19:41Z</time>
      </trkpt>
      <trkpt lat="38.344206" lon="-1.686788">
        <ele>314.8</ele>
        <time>2023-02-26T13:19:48Z</time>
      </trkpt>
      <trkpt lat="38.344153" lon="-1.686840">
        <ele>316.8</ele>
        <time>2023-02-26T13:19:53Z</time>
      </trkpt>
      <trkpt lat="38.344137" lon="-1.686920">
        <ele>317.6</ele>
        <time>2023-02-26T13:19:59Z</time>
      </trkpt>
      <trkpt lat="38.344091" lon="-1.686978">
        <ele>318.8</ele>
        <time>2023-02-26T13:20:03Z</time>
      </trkpt>
      <trkpt lat="38.344039" lon="-1.687040">
        <ele>321.8</ele>
        <time>2023-02-26T13:20:12Z</time>
      </trkpt>
      <trkpt lat="38.343986" lon="-1.687086">
        <ele>321.8</ele>
        <time>2023-02-26T13:20:14Z</time>
      </trkpt>
      <trkpt lat="38.343974" lon="-1.687165">
        <ele>323.8</ele>
        <time>2023-02-26T13:20:31Z</time>
      </trkpt>
      <trkpt lat="38.343922" lon="-1.687224">
        <ele>323.8</ele>
        <time>2023-02-26T13:20:40Z</time>
      </trkpt>
      <trkpt lat="38.343872" lon="-1.687277">
        <ele>323.9</ele>
        <time>2023-02-26T13:20:45Z</time>
      </trkpt>
      <trkpt lat="38.343830" lon="-1.687340">
        <ele>323.8</ele>
        <time>2023-02-26T13:20:50Z</time>
      </trkpt>
      <trkpt lat="38.343775" lon="-1.687404">
        <ele>323.1</ele>
        <time>2023-02-26T13:20:56Z</time>
      </trkpt>
      <trkpt lat="38.343724" lon="-1.687465">
        <ele>322.8</ele>
        <time>2023-02-26T13:21:01Z</time>
      </trkpt>
      <trkpt lat="38.343668" lon="-1.687506">
        <ele>323.8</ele>
        <time>2023-02-26T13:21:06Z</time>
      </trkpt>
      <trkpt lat="38.343612" lon="-1.687550">
        <ele>324.8</ele>
        <time>2023-02-26T13:21:10Z</time>
      </trkpt>
      <trkpt lat="38.343556" lon="-1.687603">
        <ele>326.8</ele>
        <time>2023-02-26T13:21:17Z</time>
      </trkpt>
      <trkpt lat="38.343497" lon="-1.687635">
        <ele>326.8</ele>
        <time>2023-02-26T13:21:23Z</time>
      </trkpt>
      <trkpt lat="38.343452" lon="-1.687694">
        <ele>326.9</ele>
        <time>2023-02-26T13:21:28Z</time>
      </trkpt>
      <trkpt lat="38.343391" lon="-1.687723">
        <ele>327.8</ele>
        <time>2023-02-26T13:21:34Z</time>
      </trkpt>
      <trkpt lat="38.343334" lon="-1.687783">
        <ele>328.8</ele>
        <time>2023-02-26T13:21:41Z</time>
      </trkpt>
      <trkpt lat="38.343275" lon="-1.687828">
        <ele>329.8</ele>
        <time>2023-02-26T13:21:46Z</time>
      </trkpt>
      <trkpt lat="38.343222" lon="-1.687882">
        <ele>329.1</ele>
        <time>2023-02-26T13:21:51Z</time>
      </trkpt>
      <trkpt lat="38.343177" lon="-1.687956">
        <ele>328.8</ele>
        <time>2023-02-26T13:21:56Z</time>
      </trkpt>
      <trkpt lat="38.343157" lon="-1.688034">
        <ele>326.8</ele>
        <time>2023-02-26T13:22:03Z</time>
      </trkpt>
      <trkpt lat="38.343120" lon="-1.688102">
        <ele>325.8</ele>
        <time>2023-02-26T13:22:08Z</time>
      </trkpt>
      <trkpt lat="38.343111" lon="-1.688184">
        <ele>325.8</ele>
        <time>2023-02-26T13:22:16Z</time>
      </trkpt>
      <trkpt lat="38.343104" lon="-1.688266">
        <ele>326.8</ele>
        <time>2023-02-26T13:22:20Z</time>
      </trkpt>
      <trkpt lat="38.343073" lon="-1.688342">
        <ele>326.8</ele>
        <time>2023-02-26T13:22:25Z</time>
      </trkpt>
      <trkpt lat="38.343096" lon="-1.688420">
        <ele>325.8</ele>
        <time>2023-02-26T13:22:31Z</time>
      </trkpt>
      <trkpt lat="38.343065" lon="-1.688495">
        <ele>324.8</ele>
        <time>2023-02-26T13:22:37Z</time>
      </trkpt>
      <trkpt lat="38.343033" lon="-1.688578">
        <ele>324.8</ele>
        <time>2023-02-26T13:22:45Z</time>
      </trkpt>
      <trkpt lat="38.343001" lon="-1.688650">
        <ele>324.8</ele>
        <time>2023-02-26T13:22:49Z</time>
      </trkpt>
      <trkpt lat="38.342969" lon="-1.688722">
        <ele>325.8</ele>
        <time>2023-02-26T13:22:54Z</time>
      </trkpt>
      <trkpt lat="38.342932" lon="-1.688796">
        <ele>325.8</ele>
        <time>2023-02-26T13:23:00Z</time>
      </trkpt>
      <trkpt lat="38.342889" lon="-1.688859">
        <ele>324.8</ele>
        <time>2023-02-26T13:23:06Z</time>
      </trkpt>
      <trkpt lat="38.342839" lon="-1.688914">
        <ele>325.8</ele>
        <time>2023-02-26T13:23:15Z</time>
      </trkpt>
      <trkpt lat="38.342802" lon="-1.688986">
        <ele>325.8</ele>
        <time>2023-02-26T13:23:20Z</time>
      </trkpt>
      <trkpt lat="38.342745" lon="-1.689028">
        <ele>323.9</ele>
        <time>2023-02-26T13:23:26Z</time>
      </trkpt>
      <trkpt lat="38.342694" lon="-1.689111">
        <ele>323.8</ele>
        <time>2023-02-26T13:23:32Z</time>
      </trkpt>
      <trkpt lat="38.342673" lon="-1.689190">
        <ele>322.1</ele>
        <time>2023-02-26T13:23:38Z</time>
      </trkpt>
      <trkpt lat="38.342636" lon="-1.689259">
        <ele>320.8</ele>
        <time>2023-02-26T13:23:42Z</time>
      </trkpt>
      <trkpt lat="38.342578" lon="-1.689306">
        <ele>319.8</ele>
        <time>2023-02-26T13:23:47Z</time>
      </trkpt>
      <trkpt lat="38.342532" lon="-1.689369">
        <ele>318.8</ele>
        <time>2023-02-26T13:23:53Z</time>
      </trkpt>
      <trkpt lat="38.342479" lon="-1.689418">
        <ele>318.8</ele>
        <time>2023-02-26T13:23:58Z</time>
      </trkpt>
      <trkpt lat="38.342458" lon="-1.689342">
        <ele>317.8</ele>
        <time>2023-02-26T13:24:06Z</time>
      </trkpt>
      <trkpt lat="38.342445" lon="-1.689433">
        <ele>314.6</ele>
        <time>2023-02-26T13:24:55Z</time>
      </trkpt>
      <trkpt lat="38.342407" lon="-1.689497">
        <ele>315.8</ele>
        <time>2023-02-26T13:24:58Z</time>
      </trkpt>
      <trkpt lat="38.342353" lon="-1.689566">
        <ele>314.9</ele>
        <time>2023-02-26T13:25:03Z</time>
      </trkpt>
      <trkpt lat="38.342308" lon="-1.689628">
        <ele>314.8</ele>
        <time>2023-02-26T13:25:07Z</time>
      </trkpt>
      <trkpt lat="38.342259" lon="-1.689686">
        <ele>314.8</ele>
        <time>2023-02-26T13:25:12Z</time>
      </trkpt>
      <trkpt lat="38.342225" lon="-1.689764">
        <ele>313.8</ele>
        <time>2023-02-26T13:25:17Z</time>
      </trkpt>
      <trkpt lat="38.342182" lon="-1.689825">
        <ele>312.8</ele>
        <time>2023-02-26T13:25:21Z</time>
      </trkpt>
      <trkpt lat="38.342140" lon="-1.689895">
        <ele>312.8</ele>
        <time>2023-02-26T13:25:26Z</time>
      </trkpt>
      <trkpt lat="38.342091" lon="-1.689954">
        <ele>312.8</ele>
        <time>2023-02-26T13:25:30Z</time>
      </trkpt>
      <trkpt lat="38.342040" lon="-1.690002">
        <ele>312.8</ele>
        <time>2023-02-26T13:25:34Z</time>
      </trkpt>
      <trkpt lat="38.341991" lon="-1.690068">
        <ele>313.8</ele>
        <time>2023-02-26T13:25:38Z</time>
      </trkpt>
      <trkpt lat="38.341944" lon="-1.690134">
        <ele>314.6</ele>
        <time>2023-02-26T13:25:43Z</time>
      </trkpt>
      <trkpt lat="38.341899" lon="-1.690198">
        <ele>315.8</ele>
        <time>2023-02-26T13:25:47Z</time>
      </trkpt>
      <trkpt lat="38.341851" lon="-1.690259">
        <ele>315.8</ele>
        <time>2023-02-26T13:25:52Z</time>
      </trkpt>
      <trkpt lat="38.341791" lon="-1.690298">
        <ele>315.8</ele>
        <time>2023-02-26T13:25:58Z</time>
      </trkpt>
      <trkpt lat="38.341720" lon="-1.690300">
        <ele>316.8</ele>
        <time>2023-02-26T13:26:03Z</time>
      </trkpt>
      <trkpt lat="38.341658" lon="-1.690271">
        <ele>316.8</ele>
        <time>2023-02-26T13:26:07Z</time>
      </trkpt>
      <trkpt lat="38.341607" lon="-1.690216">
        <ele>316.8</ele>
        <time>2023-02-26T13:26:11Z</time>
      </trkpt>
      <trkpt lat="38.341556" lon="-1.690156">
        <ele>316.8</ele>
        <time>2023-02-26T13:26:21Z</time>
      </trkpt>
      <trkpt lat="38.341512" lon="-1.690096">
        <ele>316.8</ele>
        <time>2023-02-26T13:26:25Z</time>
      </trkpt>
      <trkpt lat="38.341485" lon="-1.690009">
        <ele>316.8</ele>
        <time>2023-02-26T13:26:31Z</time>
      </trkpt>
      <trkpt lat="38.341431" lon="-1.689960">
        <ele>316.8</ele>
        <time>2023-02-26T13:26:35Z</time>
      </trkpt>
      <trkpt lat="38.341372" lon="-1.689923">
        <ele>316.8</ele>
        <time>2023-02-26T13:26:40Z</time>
      </trkpt>
      <trkpt lat="38.341310" lon="-1.689894">
        <ele>317.8</ele>
        <time>2023-02-26T13:26:45Z</time>
      </trkpt>
      <trkpt lat="38.341244" lon="-1.689892">
        <ele>316.8</ele>
        <time>2023-02-26T13:26:49Z</time>
      </trkpt>
      <trkpt lat="38.341177" lon="-1.689923">
        <ele>318.6</ele>
        <time>2023-02-26T13:26:53Z</time>
      </trkpt>
      <trkpt lat="38.341105" lon="-1.689932">
        <ele>320.8</ele>
        <time>2023-02-26T13:26:57Z</time>
      </trkpt>
      <trkpt lat="38.341038" lon="-1.689917">
        <ele>320.8</ele>
        <time>2023-02-26T13:27:01Z</time>
      </trkpt>
      <trkpt lat="38.340969" lon="-1.689903">
        <ele>322.8</ele>
        <time>2023-02-26T13:27:05Z</time>
      </trkpt>
      <trkpt lat="38.340901" lon="-1.689898">
        <ele>322.8</ele>
        <time>2023-02-26T13:27:10Z</time>
      </trkpt>
      <trkpt lat="38.340831" lon="-1.689892">
        <ele>322.8</ele>
        <time>2023-02-26T13:27:14Z</time>
      </trkpt>
      <trkpt lat="38.340759" lon="-1.689898">
        <ele>322.1</ele>
        <time>2023-02-26T13:27:19Z</time>
      </trkpt>
      <trkpt lat="38.340694" lon="-1.689888">
        <ele>321.8</ele>
        <time>2023-02-26T13:27:24Z</time>
      </trkpt>
      <trkpt lat="38.340627" lon="-1.689841">
        <ele>321.8</ele>
        <time>2023-02-26T13:27:28Z</time>
      </trkpt>
      <trkpt lat="38.340589" lon="-1.689762">
        <ele>321.8</ele>
        <time>2023-02-26T13:27:33Z</time>
      </trkpt>
      <trkpt lat="38.340565" lon="-1.689682">
        <ele>320.8</ele>
        <time>2023-02-26T13:27:36Z</time>
      </trkpt>
      <trkpt lat="38.340526" lon="-1.689615">
        <ele>320.8</ele>
        <time>2023-02-26T13:27:41Z</time>
      </trkpt>
      <trkpt lat="38.340481" lon="-1.689553">
        <ele>321.8</ele>
        <time>2023-02-26T13:27:45Z</time>
      </trkpt>
      <trkpt lat="38.340436" lon="-1.689489">
        <ele>320.9</ele>
        <time>2023-02-26T13:27:49Z</time>
      </trkpt>
      <trkpt lat="38.340387" lon="-1.689435">
        <ele>320.8</ele>
        <time>2023-02-26T13:27:54Z</time>
      </trkpt>
      <trkpt lat="38.340324" lon="-1.689392">
        <ele>319.8</ele>
        <time>2023-02-26T13:27:58Z</time>
      </trkpt>
      <trkpt lat="38.340259" lon="-1.689368">
        <ele>320.8</ele>
        <time>2023-02-26T13:28:03Z</time>
      </trkpt>
      <trkpt lat="38.340207" lon="-1.689312">
        <ele>320.8</ele>
        <time>2023-02-26T13:28:08Z</time>
      </trkpt>
      <trkpt lat="38.340140" lon="-1.689254">
        <ele>320.8</ele>
        <time>2023-02-26T13:28:12Z</time>
      </trkpt>
      <trkpt lat="38.340085" lon="-1.689198">
        <ele>321.8</ele>
        <time>2023-02-26T13:28:17Z</time>
      </trkpt>
      <trkpt lat="38.340032" lon="-1.689142">
        <ele>320.8</ele>
        <time>2023-02-26T13:28:22Z</time>
      </trkpt>
      <trkpt lat="38.339985" lon="-1.689082">
        <ele>319.8</ele>
        <time>2023-02-26T13:28:26Z</time>
      </trkpt>
      <trkpt lat="38.339947" lon="-1.689017">
        <ele>319.9</ele>
        <time>2023-02-26T13:28:30Z</time>
      </trkpt>
      <trkpt lat="38.339907" lon="-1.688952">
        <ele>319.8</ele>
        <time>2023-02-26T13:28:35Z</time>
      </trkpt>
      <trkpt lat="38.339854" lon="-1.688898">
        <ele>319.8</ele>
        <time>2023-02-26T13:28:39Z</time>
      </trkpt>
      <trkpt lat="38.339783" lon="-1.688885">
        <ele>319.8</ele>
        <time>2023-02-26T13:28:44Z</time>
      </trkpt>
      <trkpt lat="38.339714" lon="-1.688878">
        <ele>320.8</ele>
        <time>2023-02-26T13:28:49Z</time>
      </trkpt>
      <trkpt lat="38.339648" lon="-1.688878">
        <ele>320.8</ele>
        <time>2023-02-26T13:28:55Z</time>
      </trkpt>
      <trkpt lat="38.339586" lon="-1.688842">
        <ele>321.8</ele>
        <time>2023-02-26T13:29:00Z</time>
      </trkpt>
      <trkpt lat="38.339520" lon="-1.688790">
        <ele>322.8</ele>
        <time>2023-02-26T13:29:05Z</time>
      </trkpt>
      <trkpt lat="38.339472" lon="-1.688731">
        <ele>322.8</ele>
        <time>2023-02-26T13:29:10Z</time>
      </trkpt>
      <trkpt lat="38.339448" lon="-1.688647">
        <ele>322.8</ele>
        <time>2023-02-26T13:29:15Z</time>
      </trkpt>
      <trkpt lat="38.339426" lon="-1.688562">
        <ele>322.8</ele>
        <time>2023-02-26T13:29:20Z</time>
      </trkpt>
      <trkpt lat="38.339411" lon="-1.688480">
        <ele>321.8</ele>
        <time>2023-02-26T13:29:27Z</time>
      </trkpt>
      <trkpt lat="38.339393" lon="-1.688402">
        <ele>321.8</ele>
        <time>2023-02-26T13:29:32Z</time>
      </trkpt>
      <trkpt lat="38.339393" lon="-1.688321">
        <ele>321.1</ele>
        <time>2023-02-26T13:29:38Z</time>
      </trkpt>
      <trkpt lat="38.339398" lon="-1.688238">
        <ele>319.9</ele>
        <time>2023-02-26T13:29:43Z</time>
      </trkpt>
      <trkpt lat="38.339408" lon="-1.688135">
        <ele>318.8</ele>
        <time>2023-02-26T13:29:56Z</time>
      </trkpt>
      <trkpt lat="38.339368" lon="-1.688072">
        <ele>317.8</ele>
        <time>2023-02-26T13:30:03Z</time>
      </trkpt>
      <trkpt lat="38.339334" lon="-1.687998">
        <ele>318.8</ele>
        <time>2023-02-26T13:30:07Z</time>
      </trkpt>
      <trkpt lat="38.339260" lon="-1.687980">
        <ele>319.6</ele>
        <time>2023-02-26T13:30:11Z</time>
      </trkpt>
      <trkpt lat="38.339198" lon="-1.687968">
        <ele>319.8</ele>
        <time>2023-02-26T13:30:16Z</time>
      </trkpt>
      <trkpt lat="38.339132" lon="-1.687976">
        <ele>321.8</ele>
        <time>2023-02-26T13:30:21Z</time>
      </trkpt>
      <trkpt lat="38.339065" lon="-1.687999">
        <ele>322.8</ele>
        <time>2023-02-26T13:30:28Z</time>
      </trkpt>
      <trkpt lat="38.339001" lon="-1.688018">
        <ele>321.8</ele>
        <time>2023-02-26T13:30:33Z</time>
      </trkpt>
      <trkpt lat="38.338933" lon="-1.688030">
        <ele>321.9</ele>
        <time>2023-02-26T13:30:39Z</time>
      </trkpt>
      <trkpt lat="38.338867" lon="-1.688010">
        <ele>321.8</ele>
        <time>2023-02-26T13:30:44Z</time>
      </trkpt>
      <trkpt lat="38.338803" lon="-1.687988">
        <ele>321.8</ele>
        <time>2023-02-26T13:30:50Z</time>
      </trkpt>
      <trkpt lat="38.338752" lon="-1.687938">
        <ele>321.8</ele>
        <time>2023-02-26T13:30:57Z</time>
      </trkpt>
      <trkpt lat="38.338692" lon="-1.687905">
        <ele>320.1</ele>
        <time>2023-02-26T13:31:03Z</time>
      </trkpt>
      <trkpt lat="38.338628" lon="-1.687894">
        <ele>315.9</ele>
        <time>2023-02-26T13:31:14Z</time>
      </trkpt>
      <trkpt lat="38.338572" lon="-1.687846">
        <ele>316.6</ele>
        <time>2023-02-26T13:31:18Z</time>
      </trkpt>
      <trkpt lat="38.338513" lon="-1.687807">
        <ele>314.9</ele>
        <time>2023-02-26T13:31:22Z</time>
      </trkpt>
      <trkpt lat="38.338449" lon="-1.687775">
        <ele>314.1</ele>
        <time>2023-02-26T13:31:28Z</time>
      </trkpt>
      <trkpt lat="38.338395" lon="-1.687722">
        <ele>312.8</ele>
        <time>2023-02-26T13:31:34Z</time>
      </trkpt>
      <trkpt lat="38.338336" lon="-1.687680">
        <ele>312.8</ele>
        <time>2023-02-26T13:31:40Z</time>
      </trkpt>
      <trkpt lat="38.338275" lon="-1.687652">
        <ele>311.8</ele>
        <time>2023-02-26T13:31:46Z</time>
      </trkpt>
      <trkpt lat="38.338225" lon="-1.687596">
        <ele>312.6</ele>
        <time>2023-02-26T13:31:52Z</time>
      </trkpt>
      <trkpt lat="38.338182" lon="-1.687531">
        <ele>312.8</ele>
        <time>2023-02-26T13:31:57Z</time>
      </trkpt>
      <trkpt lat="38.338164" lon="-1.687446">
        <ele>313.1</ele>
        <time>2023-02-26T13:32:02Z</time>
      </trkpt>
      <trkpt lat="38.338154" lon="-1.687359">
        <ele>313.8</ele>
        <time>2023-02-26T13:32:07Z</time>
      </trkpt>
      <trkpt lat="38.338137" lon="-1.687278">
        <ele>313.8</ele>
        <time>2023-02-26T13:32:12Z</time>
      </trkpt>
      <trkpt lat="38.338131" lon="-1.687194">
        <ele>312.8</ele>
        <time>2023-02-26T13:32:18Z</time>
      </trkpt>
      <trkpt lat="38.338098" lon="-1.687123">
        <ele>311.9</ele>
        <time>2023-02-26T13:32:23Z</time>
      </trkpt>
      <trkpt lat="38.338042" lon="-1.687073">
        <ele>310.9</ele>
        <time>2023-02-26T13:32:28Z</time>
      </trkpt>
      <trkpt lat="38.337976" lon="-1.687055">
        <ele>309.8</ele>
        <time>2023-02-26T13:32:33Z</time>
      </trkpt>
      <trkpt lat="38.337920" lon="-1.687100">
        <ele>309.8</ele>
        <time>2023-02-26T13:32:38Z</time>
      </trkpt>
      <trkpt lat="38.337869" lon="-1.687156">
        <ele>311.8</ele>
        <time>2023-02-26T13:32:42Z</time>
      </trkpt>
      <trkpt lat="38.337811" lon="-1.687204">
        <ele>311.8</ele>
        <time>2023-02-26T13:32:47Z</time>
      </trkpt>
      <trkpt lat="38.337743" lon="-1.687202">
        <ele>312.8</ele>
        <time>2023-02-26T13:32:51Z</time>
      </trkpt>
      <trkpt lat="38.337686" lon="-1.687160">
        <ele>313.8</ele>
        <time>2023-02-26T13:32:56Z</time>
      </trkpt>
      <trkpt lat="38.337630" lon="-1.687122">
        <ele>314.8</ele>
        <time>2023-02-26T13:33:01Z</time>
      </trkpt>
      <trkpt lat="38.337563" lon="-1.687108">
        <ele>315.8</ele>
        <time>2023-02-26T13:33:06Z</time>
      </trkpt>
      <trkpt lat="38.337495" lon="-1.687070">
        <ele>316.8</ele>
        <time>2023-02-26T13:33:11Z</time>
      </trkpt>
      <trkpt lat="38.337431" lon="-1.687041">
        <ele>317.8</ele>
        <time>2023-02-26T13:33:15Z</time>
      </trkpt>
      <trkpt lat="38.337356" lon="-1.687037">
        <ele>319.8</ele>
        <time>2023-02-26T13:33:20Z</time>
      </trkpt>
      <trkpt lat="38.337285" lon="-1.687012">
        <ele>320.8</ele>
        <time>2023-02-26T13:33:25Z</time>
      </trkpt>
      <trkpt lat="38.337224" lon="-1.686979">
        <ele>322.8</ele>
        <time>2023-02-26T13:33:30Z</time>
      </trkpt>
      <trkpt lat="38.337161" lon="-1.686963">
        <ele>324.6</ele>
        <time>2023-02-26T13:33:34Z</time>
      </trkpt>
      <trkpt lat="38.337092" lon="-1.686952">
        <ele>325.8</ele>
        <time>2023-02-26T13:33:39Z</time>
      </trkpt>
      <trkpt lat="38.337028" lon="-1.686933">
        <ele>325.8</ele>
        <time>2023-02-26T13:33:44Z</time>
      </trkpt>
      <trkpt lat="38.336971" lon="-1.686891">
        <ele>324.9</ele>
        <time>2023-02-26T13:33:50Z</time>
      </trkpt>
      <trkpt lat="38.336908" lon="-1.686871">
        <ele>322.2</ele>
        <time>2023-02-26T13:33:57Z</time>
      </trkpt>
      <trkpt lat="38.336878" lon="-1.686800">
        <ele>320.9</ele>
        <time>2023-02-26T13:33:59Z</time>
      </trkpt>
      <trkpt lat="38.336831" lon="-1.686745">
        <ele>319.8</ele>
        <time>2023-02-26T13:34:04Z</time>
      </trkpt>
      <trkpt lat="38.336759" lon="-1.686728">
        <ele>317.9</ele>
        <time>2023-02-26T13:34:11Z</time>
      </trkpt>
      <trkpt lat="38.336693" lon="-1.686706">
        <ele>315.8</ele>
        <time>2023-02-26T13:34:17Z</time>
      </trkpt>
      <trkpt lat="38.336628" lon="-1.686688">
        <ele>314.8</ele>
        <time>2023-02-26T13:34:25Z</time>
      </trkpt>
      <trkpt lat="38.336562" lon="-1.686702">
        <ele>314.8</ele>
        <time>2023-02-26T13:34:30Z</time>
      </trkpt>
      <trkpt lat="38.336493" lon="-1.686704">
        <ele>314.8</ele>
        <time>2023-02-26T13:34:36Z</time>
      </trkpt>
      <trkpt lat="38.336430" lon="-1.686686">
        <ele>317.8</ele>
        <time>2023-02-26T13:34:41Z</time>
      </trkpt>
      <trkpt lat="38.336369" lon="-1.686661">
        <ele>314.9</ele>
        <time>2023-02-26T13:34:50Z</time>
      </trkpt>
      <trkpt lat="38.336311" lon="-1.686648">
        <ele>312.8</ele>
        <time>2023-02-26T13:34:58Z</time>
      </trkpt>
      <trkpt lat="38.336383" lon="-1.686612">
        <ele>311.8</ele>
        <time>2023-02-26T13:35:16Z</time>
      </trkpt>
      <trkpt lat="38.336358" lon="-1.686562">
        <ele>311.8</ele>
        <time>2023-02-26T13:35:26Z</time>
      </trkpt>
      <trkpt lat="38.336306" lon="-1.686598">
        <ele>310.8</ele>
        <time>2023-02-26T13:36:41Z</time>
      </trkpt>
      <trkpt lat="38.336201" lon="-1.686584">
        <ele>311.6</ele>
        <time>2023-02-26T13:36:46Z</time>
      </trkpt>
      <trkpt lat="38.336144" lon="-1.686525">
        <ele>311.8</ele>
        <time>2023-02-26T13:36:47Z</time>
      </trkpt>
      <trkpt lat="38.336100" lon="-1.686492">
        <ele>311.8</ele>
        <time>2023-02-26T13:36:49Z</time>
      </trkpt>
      <trkpt lat="38.336050" lon="-1.686436">
        <ele>312.8</ele>
        <time>2023-02-26T13:36:54Z</time>
      </trkpt>
      <trkpt lat="38.336026" lon="-1.686355">
        <ele>311.8</ele>
        <time>2023-02-26T13:36:59Z</time>
      </trkpt>
      <trkpt lat="38.335998" lon="-1.686282">
        <ele>311.9</ele>
        <time>2023-02-26T13:37:04Z</time>
      </trkpt>
      <trkpt lat="38.335967" lon="-1.686210">
        <ele>312.8</ele>
        <time>2023-02-26T13:37:09Z</time>
      </trkpt>
      <trkpt lat="38.335910" lon="-1.686171">
        <ele>313.8</ele>
        <time>2023-02-26T13:37:14Z</time>
      </trkpt>
      <trkpt lat="38.335855" lon="-1.686120">
        <ele>313.8</ele>
        <time>2023-02-26T13:37:18Z</time>
      </trkpt>
      <trkpt lat="38.335799" lon="-1.686112">
        <ele>314.8</ele>
        <time>2023-02-26T13:37:25Z</time>
      </trkpt>
      <trkpt lat="38.335761" lon="-1.686098">
        <ele>315.8</ele>
        <time>2023-02-26T13:37:30Z</time>
      </trkpt>
      <trkpt lat="38.335733" lon="-1.686101">
        <ele>315.1</ele>
        <time>2023-02-26T13:37:37Z</time>
      </trkpt>
      <trkpt lat="38.335693" lon="-1.686101">
        <ele>315.8</ele>
        <time>2023-02-26T13:37:44Z</time>
      </trkpt>
      <trkpt lat="38.335670" lon="-1.686107">
        <ele>314.9</ele>
        <time>2023-02-26T13:37:58Z</time>
      </trkpt>
      <trkpt lat="38.335647" lon="-1.686124">
        <ele>315.8</ele>
        <time>2023-02-26T13:38:03Z</time>
      </trkpt>
      <trkpt lat="38.335634" lon="-1.686180">
        <ele>309.8</ele>
        <time>2023-02-26T13:42:13Z</time>
      </trkpt>
      <trkpt lat="38.335624" lon="-1.686206">
        <ele>315.7</ele>
        <time>2023-03-26T06:39:17Z</time>
      </trkpt>
      <trkpt lat="38.335632" lon="-1.686251">
        <ele>315.9</ele>
        <time>2023-03-26T06:39:35Z</time>
      </trkpt>
      <trkpt lat="38.335639" lon="-1.686278">
        <ele>312.8</ele>
        <time>2023-03-26T06:39:57Z</time>
      </trkpt>
      <trkpt lat="38.335646" lon="-1.686315">
        <ele>313.8</ele>
        <time>2023-03-26T06:40:01Z</time>
      </trkpt>
      <trkpt lat="38.335642" lon="-1.686362">
        <ele>314.8</ele>
        <time>2023-03-26T06:40:07Z</time>
      </trkpt>
      <trkpt lat="38.335644" lon="-1.686434">
        <ele>314.8</ele>
        <time>2023-03-26T06:40:14Z</time>
      </trkpt>
      <trkpt lat="38.335626" lon="-1.686519">
        <ele>313.9</ele>
        <time>2023-03-26T06:40:19Z</time>
      </trkpt>
      <trkpt lat="38.335630" lon="-1.686611">
        <ele>311.1</ele>
        <time>2023-03-26T06:40:26Z</time>
      </trkpt>
      <trkpt lat="38.335616" lon="-1.686690">
        <ele>309.9</ele>
        <time>2023-03-26T06:40:31Z</time>
      </trkpt>
      <trkpt lat="38.335607" lon="-1.686762">
        <ele>310.1</ele>
        <time>2023-03-26T06:40:37Z</time>
      </trkpt>
      <trkpt lat="38.335602" lon="-1.686843">
        <ele>309.8</ele>
        <time>2023-03-26T06:40:43Z</time>
      </trkpt>
      <trkpt lat="38.335595" lon="-1.686910">
        <ele>309.8</ele>
        <time>2023-03-26T06:40:48Z</time>
      </trkpt>
      <trkpt lat="38.335605" lon="-1.686995">
        <ele>309.8</ele>
        <time>2023-03-26T06:41:01Z</time>
      </trkpt>
      <trkpt lat="38.335592" lon="-1.687079">
        <ele>309.8</ele>
        <time>2023-03-26T06:41:13Z</time>
      </trkpt>
      <trkpt lat="38.335569" lon="-1.687162">
        <ele>310.6</ele>
        <time>2023-03-26T06:41:19Z</time>
      </trkpt>
      <trkpt lat="38.335545" lon="-1.687242">
        <ele>311.8</ele>
        <time>2023-03-26T06:41:26Z</time>
      </trkpt>
      <trkpt lat="38.335533" lon="-1.687321">
        <ele>312.1</ele>
        <time>2023-03-26T06:41:49Z</time>
      </trkpt>
      <trkpt lat="38.335518" lon="-1.687402">
        <ele>313.6</ele>
        <time>2023-03-26T06:42:03Z</time>
      </trkpt>
      <trkpt lat="38.335520" lon="-1.687492">
        <ele>313.8</ele>
        <time>2023-03-26T06:42:10Z</time>
      </trkpt>
      <trkpt lat="38.335495" lon="-1.687570">
        <ele>313.8</ele>
        <time>2023-03-26T06:42:15Z</time>
      </trkpt>
      <trkpt lat="38.335474" lon="-1.687651">
        <ele>315.6</ele>
        <time>2023-03-26T06:42:22Z</time>
      </trkpt>
      <trkpt lat="38.335476" lon="-1.687734">
        <ele>316.8</ele>
        <time>2023-03-26T06:42:29Z</time>
      </trkpt>
      <trkpt lat="38.335483" lon="-1.687820">
        <ele>314.8</ele>
        <time>2023-03-26T06:42:40Z</time>
      </trkpt>
      <trkpt lat="38.335479" lon="-1.687905">
        <ele>311.9</ele>
        <time>2023-03-26T06:43:12Z</time>
      </trkpt>
      <trkpt lat="38.335494" lon="-1.687988">
        <ele>311.9</ele>
        <time>2023-03-26T06:43:19Z</time>
      </trkpt>
      <trkpt lat="38.335528" lon="-1.688055">
        <ele>311.8</ele>
        <time>2023-03-26T06:43:24Z</time>
      </trkpt>
      <trkpt lat="38.335563" lon="-1.688129">
        <ele>312.8</ele>
        <time>2023-03-26T06:43:29Z</time>
      </trkpt>
      <trkpt lat="38.335600" lon="-1.688205">
        <ele>312.8</ele>
        <time>2023-03-26T06:43:35Z</time>
      </trkpt>
      <trkpt lat="38.335624" lon="-1.688280">
        <ele>311.8</ele>
        <time>2023-03-26T06:43:41Z</time>
      </trkpt>
      <trkpt lat="38.335653" lon="-1.688355">
        <ele>312.8</ele>
        <time>2023-03-26T06:43:48Z</time>
      </trkpt>
      <trkpt lat="38.335678" lon="-1.688439">
        <ele>312.8</ele>
        <time>2023-03-26T06:43:55Z</time>
      </trkpt>
      <trkpt lat="38.335710" lon="-1.688509">
        <ele>312.8</ele>
        <time>2023-03-26T06:44:00Z</time>
      </trkpt>
      <trkpt lat="38.335748" lon="-1.688587">
        <ele>311.9</ele>
        <time>2023-03-26T06:44:06Z</time>
      </trkpt>
      <trkpt lat="38.335768" lon="-1.688664">
        <ele>310.9</ele>
        <time>2023-03-26T06:44:12Z</time>
      </trkpt>
      <trkpt lat="38.335803" lon="-1.688738">
        <ele>310.8</ele>
        <time>2023-03-26T06:44:19Z</time>
      </trkpt>
      <trkpt lat="38.335846" lon="-1.688804">
        <ele>310.9</ele>
        <time>2023-03-26T06:44:22Z</time>
      </trkpt>
      <trkpt lat="38.335876" lon="-1.688885">
        <ele>310.6</ele>
        <time>2023-03-26T06:44:28Z</time>
      </trkpt>
      <trkpt lat="38.335910" lon="-1.688959">
        <ele>310.8</ele>
        <time>2023-03-26T06:44:33Z</time>
      </trkpt>
      <trkpt lat="38.335941" lon="-1.689030">
        <ele>312.6</ele>
        <time>2023-03-26T06:44:38Z</time>
      </trkpt>
      <trkpt lat="38.335969" lon="-1.689105">
        <ele>311.8</ele>
        <time>2023-03-26T06:44:45Z</time>
      </trkpt>
      <trkpt lat="38.335988" lon="-1.689189">
        <ele>309.8</ele>
        <time>2023-03-26T06:44:52Z</time>
      </trkpt>
      <trkpt lat="38.336034" lon="-1.689245">
        <ele>308.8</ele>
        <time>2023-03-26T06:44:57Z</time>
      </trkpt>
      <trkpt lat="38.336082" lon="-1.689300">
        <ele>310.8</ele>
        <time>2023-03-26T06:45:03Z</time>
      </trkpt>
      <trkpt lat="38.336095" lon="-1.689390">
        <ele>308.1</ele>
        <time>2023-03-26T06:45:21Z</time>
      </trkpt>
      <trkpt lat="38.336093" lon="-1.689477">
        <ele>306.8</ele>
        <time>2023-03-26T06:45:26Z</time>
      </trkpt>
      <trkpt lat="38.336113" lon="-1.689555">
        <ele>307.8</ele>
        <time>2023-03-26T06:45:32Z</time>
      </trkpt>
      <trkpt lat="38.336145" lon="-1.689629">
        <ele>308.8</ele>
        <time>2023-03-26T06:45:37Z</time>
      </trkpt>
      <trkpt lat="38.336163" lon="-1.689714">
        <ele>310.8</ele>
        <time>2023-03-26T06:45:42Z</time>
      </trkpt>
      <trkpt lat="38.336162" lon="-1.689798">
        <ele>312.8</ele>
        <time>2023-03-26T06:45:47Z</time>
      </trkpt>
      <trkpt lat="38.336164" lon="-1.689879">
        <ele>313.8</ele>
        <time>2023-03-26T06:45:52Z</time>
      </trkpt>
      <trkpt lat="38.336174" lon="-1.689960">
        <ele>313.8</ele>
        <time>2023-03-26T06:45:57Z</time>
      </trkpt>
      <trkpt lat="38.336196" lon="-1.690042">
        <ele>313.1</ele>
        <time>2023-03-26T06:46:02Z</time>
      </trkpt>
      <trkpt lat="38.336214" lon="-1.690125">
        <ele>312.8</ele>
        <time>2023-03-26T06:46:07Z</time>
      </trkpt>
      <trkpt lat="38.336227" lon="-1.690206">
        <ele>312.8</ele>
        <time>2023-03-26T06:46:12Z</time>
      </trkpt>
      <trkpt lat="38.336228" lon="-1.690296">
        <ele>312.8</ele>
        <time>2023-03-26T06:46:17Z</time>
      </trkpt>
      <trkpt lat="38.336234" lon="-1.690382">
        <ele>312.8</ele>
        <time>2023-03-26T06:46:22Z</time>
      </trkpt>
      <trkpt lat="38.336242" lon="-1.690467">
        <ele>311.8</ele>
        <time>2023-03-26T06:46:27Z</time>
      </trkpt>
      <trkpt lat="38.336250" lon="-1.690554">
        <ele>311.8</ele>
        <time>2023-03-26T06:46:32Z</time>
      </trkpt>
      <trkpt lat="38.336256" lon="-1.690640">
        <ele>310.9</ele>
        <time>2023-03-26T06:46:37Z</time>
      </trkpt>
      <trkpt lat="38.336266" lon="-1.690722">
        <ele>311.8</ele>
        <time>2023-03-26T06:46:42Z</time>
      </trkpt>
      <trkpt lat="38.336274" lon="-1.690809">
        <ele>310.8</ele>
        <time>2023-03-26T06:46:48Z</time>
      </trkpt>
      <trkpt lat="38.336296" lon="-1.690886">
        <ele>311.9</ele>
        <time>2023-03-26T06:46:54Z</time>
      </trkpt>
      <trkpt lat="38.336321" lon="-1.690968">
        <ele>308.9</ele>
        <time>2023-03-26T06:46:59Z</time>
      </trkpt>
      <trkpt lat="38.336337" lon="-1.691049">
        <ele>308.8</ele>
        <time>2023-03-26T06:47:04Z</time>
      </trkpt>
      <trkpt lat="38.336354" lon="-1.691135">
        <ele>309.6</ele>
        <time>2023-03-26T06:47:09Z</time>
      </trkpt>
      <trkpt lat="38.336381" lon="-1.691214">
        <ele>310.8</ele>
        <time>2023-03-26T06:47:13Z</time>
      </trkpt>
      <trkpt lat="38.336394" lon="-1.691302">
        <ele>311.8</ele>
        <time>2023-03-26T06:47:18Z</time>
      </trkpt>
      <trkpt lat="38.336420" lon="-1.691377">
        <ele>311.8</ele>
        <time>2023-03-26T06:47:23Z</time>
      </trkpt>
      <trkpt lat="38.336447" lon="-1.691454">
        <ele>311.8</ele>
        <time>2023-03-26T06:47:27Z</time>
      </trkpt>
      <trkpt lat="38.336459" lon="-1.691539">
        <ele>312.8</ele>
        <time>2023-03-26T06:47:32Z</time>
      </trkpt>
      <trkpt lat="38.336472" lon="-1.691622">
        <ele>312.8</ele>
        <time>2023-03-26T06:47:36Z</time>
      </trkpt>
      <trkpt lat="38.336490" lon="-1.691703">
        <ele>312.8</ele>
        <time>2023-03-26T06:47:41Z</time>
      </trkpt>
      <trkpt lat="38.336511" lon="-1.691779">
        <ele>313.8</ele>
        <time>2023-03-26T06:47:45Z</time>
      </trkpt>
      <trkpt lat="38.336530" lon="-1.691859">
        <ele>312.8</ele>
        <time>2023-03-26T06:47:50Z</time>
      </trkpt>
      <trkpt lat="38.336555" lon="-1.691941">
        <ele>312.8</ele>
        <time>2023-03-26T06:47:56Z</time>
      </trkpt>
      <trkpt lat="38.336575" lon="-1.692020">
        <ele>312.8</ele>
        <time>2023-03-26T06:48:01Z</time>
      </trkpt>
      <trkpt lat="38.336576" lon="-1.692100">
        <ele>312.8</ele>
        <time>2023-03-26T06:48:05Z</time>
      </trkpt>
      <trkpt lat="38.336573" lon="-1.692183">
        <ele>313.6</ele>
        <time>2023-03-26T06:48:10Z</time>
      </trkpt>
      <trkpt lat="38.336577" lon="-1.692265">
        <ele>314.8</ele>
        <time>2023-03-26T06:48:15Z</time>
      </trkpt>
      <trkpt lat="38.336569" lon="-1.692348">
        <ele>314.8</ele>
        <time>2023-03-26T06:48:19Z</time>
      </trkpt>
      <trkpt lat="38.336549" lon="-1.692428">
        <ele>313.8</ele>
        <time>2023-03-26T06:48:24Z</time>
      </trkpt>
      <trkpt lat="38.336516" lon="-1.692514">
        <ele>314.6</ele>
        <time>2023-03-26T06:48:29Z</time>
      </trkpt>
      <trkpt lat="38.336483" lon="-1.692591">
        <ele>314.8</ele>
        <time>2023-03-26T06:48:34Z</time>
      </trkpt>
      <trkpt lat="38.336431" lon="-1.692647">
        <ele>313.8</ele>
        <time>2023-03-26T06:48:39Z</time>
      </trkpt>
      <trkpt lat="38.336367" lon="-1.692670">
        <ele>311.8</ele>
        <time>2023-03-26T06:48:45Z</time>
      </trkpt>
      <trkpt lat="38.336300" lon="-1.692696">
        <ele>313.8</ele>
        <time>2023-03-26T06:48:50Z</time>
      </trkpt>
      <trkpt lat="38.336236" lon="-1.692698">
        <ele>312.8</ele>
        <time>2023-03-26T06:48:53Z</time>
      </trkpt>
      <trkpt lat="38.336167" lon="-1.692715">
        <ele>313.8</ele>
        <time>2023-03-26T06:48:58Z</time>
      </trkpt>
      <trkpt lat="38.336098" lon="-1.692730">
        <ele>314.8</ele>
        <time>2023-03-26T06:49:03Z</time>
      </trkpt>
      <trkpt lat="38.336034" lon="-1.692742">
        <ele>314.1</ele>
        <time>2023-03-26T06:49:08Z</time>
      </trkpt>
      <trkpt lat="38.335971" lon="-1.692749">
        <ele>314.8</ele>
        <time>2023-03-26T06:49:13Z</time>
      </trkpt>
      <trkpt lat="38.335907" lon="-1.692759">
        <ele>313.6</ele>
        <time>2023-03-26T06:49:17Z</time>
      </trkpt>
      <trkpt lat="38.335841" lon="-1.692777">
        <ele>312.9</ele>
        <time>2023-03-26T06:49:22Z</time>
      </trkpt>
      <trkpt lat="38.335776" lon="-1.692769">
        <ele>312.8</ele>
        <time>2023-03-26T06:49:27Z</time>
      </trkpt>
      <trkpt lat="38.335713" lon="-1.692796">
        <ele>312.8</ele>
        <time>2023-03-26T06:49:32Z</time>
      </trkpt>
      <trkpt lat="38.335648" lon="-1.692807">
        <ele>312.1</ele>
        <time>2023-03-26T06:49:38Z</time>
      </trkpt>
      <trkpt lat="38.335584" lon="-1.692796">
        <ele>311.9</ele>
        <time>2023-03-26T06:49:42Z</time>
      </trkpt>
      <trkpt lat="38.335514" lon="-1.692803">
        <ele>312.8</ele>
        <time>2023-03-26T06:49:47Z</time>
      </trkpt>
      <trkpt lat="38.335450" lon="-1.692831">
        <ele>312.8</ele>
        <time>2023-03-26T06:49:52Z</time>
      </trkpt>
      <trkpt lat="38.335389" lon="-1.692853">
        <ele>312.8</ele>
        <time>2023-03-26T06:49:56Z</time>
      </trkpt>
      <trkpt lat="38.335322" lon="-1.692871">
        <ele>312.6</ele>
        <time>2023-03-26T06:50:02Z</time>
      </trkpt>
      <trkpt lat="38.335259" lon="-1.692896">
        <ele>314.8</ele>
        <time>2023-03-26T06:50:09Z</time>
      </trkpt>
      <trkpt lat="38.335191" lon="-1.692874">
        <ele>317.8</ele>
        <time>2023-03-26T06:50:14Z</time>
      </trkpt>
      <trkpt lat="38.334995" lon="-1.692813">
        <ele>316.9</ele>
        <time>2023-03-26T06:50:33Z</time>
      </trkpt>
      <trkpt lat="38.334929" lon="-1.692798">
        <ele>317.9</ele>
        <time>2023-03-26T06:50:38Z</time>
      </trkpt>
      <trkpt lat="38.334856" lon="-1.692796">
        <ele>317.8</ele>
        <time>2023-03-26T06:50:43Z</time>
      </trkpt>
      <trkpt lat="38.334792" lon="-1.692798">
        <ele>318.8</ele>
        <time>2023-03-26T06:50:46Z</time>
      </trkpt>
      <trkpt lat="38.334618" lon="-1.692910">
        <ele>319.0</ele>
        <time>2023-03-26T06:50:59Z</time>
      </trkpt>
      <trkpt lat="38.334486" lon="-1.692946">
        <ele>319.0</ele>
        <time>2023-03-26T06:51:10Z</time>
      </trkpt>
      <trkpt lat="38.334370" lon="-1.692965">
        <ele>319.0</ele>
        <time>2023-03-26T06:51:40Z</time>
      </trkpt>
      <trkpt lat="38.334240" lon="-1.692898">
        <ele>319.0</ele>
        <time>2023-03-26T06:51:50Z</time>
      </trkpt>
      <trkpt lat="38.334119" lon="-1.692848">
        <ele>319.0</ele>
        <time>2023-03-26T06:52:03Z</time>
      </trkpt>
      <trkpt lat="38.333999" lon="-1.692733">
        <ele>319.0</ele>
        <time>2023-03-26T06:52:18Z</time>
      </trkpt>
      <trkpt lat="38.333941" lon="-1.692687">
        <ele>317.9</ele>
        <time>2023-03-26T06:52:23Z</time>
      </trkpt>
      <trkpt lat="38.333908" lon="-1.692613">
        <ele>317.1</ele>
        <time>2023-03-26T06:52:29Z</time>
      </trkpt>
      <trkpt lat="38.333859" lon="-1.692563">
        <ele>316.8</ele>
        <time>2023-03-26T06:52:34Z</time>
      </trkpt>
      <trkpt lat="38.333790" lon="-1.692541">
        <ele>316.1</ele>
        <time>2023-03-26T06:52:38Z</time>
      </trkpt>
      <trkpt lat="38.333726" lon="-1.692519">
        <ele>315.8</ele>
        <time>2023-03-26T06:52:41Z</time>
      </trkpt>
      <trkpt lat="38.333672" lon="-1.692467">
        <ele>315.8</ele>
        <time>2023-03-26T06:52:46Z</time>
      </trkpt>
      <trkpt lat="38.333540" lon="-1.692475">
        <ele>319.0</ele>
        <time>2023-03-26T06:53:02Z</time>
      </trkpt>
      <trkpt lat="38.333414" lon="-1.692506">
        <ele>319.0</ele>
        <time>2023-03-26T06:53:10Z</time>
      </trkpt>
      <trkpt lat="38.333286" lon="-1.692445">
        <ele>319.0</ele>
        <time>2023-03-26T06:53:16Z</time>
      </trkpt>
      <trkpt lat="38.333161" lon="-1.692385">
        <ele>319.0</ele>
        <time>2023-03-26T06:53:26Z</time>
      </trkpt>
      <trkpt lat="38.333037" lon="-1.692425">
        <ele>319.0</ele>
        <time>2023-03-26T06:53:39Z</time>
      </trkpt>
      <trkpt lat="38.332901" lon="-1.692385">
        <ele>319.0</ele>
        <time>2023-03-26T06:53:49Z</time>
      </trkpt>
      <trkpt lat="38.332779" lon="-1.692346">
        <ele>314.1</ele>
        <time>2023-03-26T06:53:56Z</time>
      </trkpt>
      <trkpt lat="38.332714" lon="-1.692342">
        <ele>314.8</ele>
        <time>2023-03-26T06:54:00Z</time>
      </trkpt>
      <trkpt lat="38.332644" lon="-1.692313">
        <ele>315.8</ele>
        <time>2023-03-26T06:54:04Z</time>
      </trkpt>
      <trkpt lat="38.332583" lon="-1.692292">
        <ele>315.1</ele>
        <time>2023-03-26T06:54:10Z</time>
      </trkpt>
      <trkpt lat="38.332516" lon="-1.692260">
        <ele>313.9</ele>
        <time>2023-03-26T06:54:14Z</time>
      </trkpt>
      <trkpt lat="38.332455" lon="-1.692232">
        <ele>313.8</ele>
        <time>2023-03-26T06:54:19Z</time>
      </trkpt>
      <trkpt lat="38.332390" lon="-1.692210">
        <ele>314.8</ele>
        <time>2023-03-26T06:54:24Z</time>
      </trkpt>
      <trkpt lat="38.332324" lon="-1.692183">
        <ele>315.6</ele>
        <time>2023-03-26T06:54:28Z</time>
      </trkpt>
      <trkpt lat="38.332260" lon="-1.692169">
        <ele>314.8</ele>
        <time>2023-03-26T06:54:32Z</time>
      </trkpt>
      <trkpt lat="38.332191" lon="-1.692171">
        <ele>315.8</ele>
        <time>2023-03-26T06:54:36Z</time>
      </trkpt>
      <trkpt lat="38.332119" lon="-1.692165">
        <ele>315.8</ele>
        <time>2023-03-26T06:54:41Z</time>
      </trkpt>
      <trkpt lat="38.332051" lon="-1.692159">
        <ele>315.8</ele>
        <time>2023-03-26T06:54:46Z</time>
      </trkpt>
      <trkpt lat="38.331982" lon="-1.692143">
        <ele>315.8</ele>
        <time>2023-03-26T06:54:50Z</time>
      </trkpt>
      <trkpt lat="38.331915" lon="-1.692118">
        <ele>314.8</ele>
        <time>2023-03-26T06:54:56Z</time>
      </trkpt>
      <trkpt lat="38.331855" lon="-1.692092">
        <ele>315.8</ele>
        <time>2023-03-26T06:55:00Z</time>
      </trkpt>
      <trkpt lat="38.331791" lon="-1.692066">
        <ele>315.8</ele>
        <time>2023-03-26T06:55:04Z</time>
      </trkpt>
      <trkpt lat="38.331729" lon="-1.692029">
        <ele>316.8</ele>
        <time>2023-03-26T06:55:09Z</time>
      </trkpt>
      <trkpt lat="38.331674" lon="-1.691986">
        <ele>315.8</ele>
        <time>2023-03-26T06:55:14Z</time>
      </trkpt>
      <trkpt lat="38.331613" lon="-1.691962">
        <ele>315.8</ele>
        <time>2023-03-26T06:55:19Z</time>
      </trkpt>
      <trkpt lat="38.331547" lon="-1.691943">
        <ele>314.8</ele>
        <time>2023-03-26T06:55:23Z</time>
      </trkpt>
      <trkpt lat="38.331481" lon="-1.691930">
        <ele>315.6</ele>
        <time>2023-03-26T06:55:30Z</time>
      </trkpt>
      <trkpt lat="38.331419" lon="-1.691913">
        <ele>314.9</ele>
        <time>2023-03-26T06:55:34Z</time>
      </trkpt>
      <trkpt lat="38.331356" lon="-1.691894">
        <ele>316.8</ele>
        <time>2023-03-26T06:55:39Z</time>
      </trkpt>
      <trkpt lat="38.331297" lon="-1.691863">
        <ele>316.8</ele>
        <time>2023-03-26T06:55:45Z</time>
      </trkpt>
      <trkpt lat="38.331249" lon="-1.691802">
        <ele>314.8</ele>
        <time>2023-03-26T06:55:57Z</time>
      </trkpt>
      <trkpt lat="38.331181" lon="-1.691771">
        <ele>314.8</ele>
        <time>2023-03-26T06:56:01Z</time>
      </trkpt>
      <trkpt lat="38.331117" lon="-1.691757">
        <ele>314.8</ele>
        <time>2023-03-26T06:56:05Z</time>
      </trkpt>
      <trkpt lat="38.331051" lon="-1.691744">
        <ele>314.8</ele>
        <time>2023-03-26T06:56:10Z</time>
      </trkpt>
      <trkpt lat="38.330990" lon="-1.691720">
        <ele>314.8</ele>
        <time>2023-03-26T06:56:14Z</time>
      </trkpt>
      <trkpt lat="38.330925" lon="-1.691697">
        <ele>313.9</ele>
        <time>2023-03-26T06:56:20Z</time>
      </trkpt>
      <trkpt lat="38.330856" lon="-1.691689">
        <ele>313.9</ele>
        <time>2023-03-26T06:56:27Z</time>
      </trkpt>
      <trkpt lat="38.330791" lon="-1.691676">
        <ele>313.8</ele>
        <time>2023-03-26T06:56:32Z</time>
      </trkpt>
      <trkpt lat="38.330728" lon="-1.691664">
        <ele>313.8</ele>
        <time>2023-03-26T06:56:37Z</time>
      </trkpt>
      <trkpt lat="38.330664" lon="-1.691642">
        <ele>313.8</ele>
        <time>2023-03-26T06:56:42Z</time>
      </trkpt>
      <trkpt lat="38.330605" lon="-1.691617">
        <ele>314.6</ele>
        <time>2023-03-26T06:56:47Z</time>
      </trkpt>
      <trkpt lat="38.330539" lon="-1.691596">
        <ele>315.8</ele>
        <time>2023-03-26T06:56:52Z</time>
      </trkpt>
      <trkpt lat="38.330475" lon="-1.691585">
        <ele>316.8</ele>
        <time>2023-03-26T06:56:56Z</time>
      </trkpt>
      <trkpt lat="38.330409" lon="-1.691573">
        <ele>316.6</ele>
        <time>2023-03-26T06:57:02Z</time>
      </trkpt>
      <trkpt lat="38.330345" lon="-1.691563">
        <ele>315.8</ele>
        <time>2023-03-26T06:57:07Z</time>
      </trkpt>
      <trkpt lat="38.330280" lon="-1.691551">
        <ele>315.8</ele>
        <time>2023-03-26T06:57:12Z</time>
      </trkpt>
      <trkpt lat="38.330215" lon="-1.691538">
        <ele>316.8</ele>
        <time>2023-03-26T06:57:18Z</time>
      </trkpt>
      <trkpt lat="38.330153" lon="-1.691519">
        <ele>317.8</ele>
        <time>2023-03-26T06:57:22Z</time>
      </trkpt>
      <trkpt lat="38.330099" lon="-1.691477">
        <ele>319.8</ele>
        <time>2023-03-26T06:57:27Z</time>
      </trkpt>
      <trkpt lat="38.330032" lon="-1.691464">
        <ele>320.1</ele>
        <time>2023-03-26T06:57:33Z</time>
      </trkpt>
      <trkpt lat="38.329965" lon="-1.691461">
        <ele>319.8</ele>
        <time>2023-03-26T06:57:37Z</time>
      </trkpt>
      <trkpt lat="38.329902" lon="-1.691446">
        <ele>318.6</ele>
        <time>2023-03-26T06:57:51Z</time>
      </trkpt>
      <trkpt lat="38.329832" lon="-1.691445">
        <ele>317.9</ele>
        <time>2023-03-26T06:57:59Z</time>
      </trkpt>
      <trkpt lat="38.329637" lon="-1.691457">
        <ele>319.0</ele>
        <time>2023-03-26T06:58:12Z</time>
      </trkpt>
      <trkpt lat="38.329511" lon="-1.691403">
        <ele>320.1</ele>
        <time>2023-03-26T06:58:21Z</time>
      </trkpt>
      <trkpt lat="38.329452" lon="-1.691358">
        <ele>318.9</ele>
        <time>2023-03-26T06:58:25Z</time>
      </trkpt>
      <trkpt lat="38.329393" lon="-1.691321">
        <ele>317.8</ele>
        <time>2023-03-26T06:58:32Z</time>
      </trkpt>
      <trkpt lat="38.329328" lon="-1.691297">
        <ele>316.9</ele>
        <time>2023-03-26T06:58:36Z</time>
      </trkpt>
      <trkpt lat="38.329264" lon="-1.691263">
        <ele>316.9</ele>
        <time>2023-03-26T06:58:41Z</time>
      </trkpt>
      <trkpt lat="38.329197" lon="-1.691228">
        <ele>315.9</ele>
        <time>2023-03-26T06:58:46Z</time>
      </trkpt>
      <trkpt lat="38.329136" lon="-1.691202">
        <ele>314.9</ele>
        <time>2023-03-26T06:58:51Z</time>
      </trkpt>
      <trkpt lat="38.329074" lon="-1.691169">
        <ele>313.9</ele>
        <time>2023-03-26T06:58:56Z</time>
      </trkpt>
      <trkpt lat="38.329007" lon="-1.691162">
        <ele>312.9</ele>
        <time>2023-03-26T06:59:01Z</time>
      </trkpt>
      <trkpt lat="38.328941" lon="-1.691138">
        <ele>312.9</ele>
        <time>2023-03-26T06:59:06Z</time>
      </trkpt>
      <trkpt lat="38.328897" lon="-1.691072">
        <ele>313.9</ele>
        <time>2023-03-26T06:59:11Z</time>
      </trkpt>
      <trkpt lat="38.328831" lon="-1.691029">
        <ele>314.9</ele>
        <time>2023-03-26T06:59:15Z</time>
      </trkpt>
      <trkpt lat="38.328770" lon="-1.690986">
        <ele>316.8</ele>
        <time>2023-03-26T06:59:20Z</time>
      </trkpt>
      <trkpt lat="38.328711" lon="-1.690952">
        <ele>316.9</ele>
        <time>2023-03-26T06:59:25Z</time>
      </trkpt>
      <trkpt lat="38.328649" lon="-1.690939">
        <ele>316.1</ele>
        <time>2023-03-26T06:59:29Z</time>
      </trkpt>
      <trkpt lat="38.328584" lon="-1.690925">
        <ele>317.9</ele>
        <time>2023-03-26T06:59:33Z</time>
      </trkpt>
      <trkpt lat="38.328521" lon="-1.690896">
        <ele>318.9</ele>
        <time>2023-03-26T06:59:39Z</time>
      </trkpt>
      <trkpt lat="38.328452" lon="-1.690874">
        <ele>318.9</ele>
        <time>2023-03-26T06:59:44Z</time>
      </trkpt>
      <trkpt lat="38.328383" lon="-1.690853">
        <ele>318.9</ele>
        <time>2023-03-26T06:59:49Z</time>
      </trkpt>
      <trkpt lat="38.328315" lon="-1.690830">
        <ele>318.9</ele>
        <time>2023-03-26T06:59:54Z</time>
      </trkpt>
      <trkpt lat="38.328251" lon="-1.690801">
        <ele>319.8</ele>
        <time>2023-03-26T06:59:59Z</time>
      </trkpt>
      <trkpt lat="38.328192" lon="-1.690770">
        <ele>320.9</ele>
        <time>2023-03-26T07:00:03Z</time>
      </trkpt>
      <trkpt lat="38.328128" lon="-1.690754">
        <ele>319.2</ele>
        <time>2023-03-26T07:00:29Z</time>
      </trkpt>
      <trkpt lat="38.328069" lon="-1.690708">
        <ele>318.9</ele>
        <time>2023-03-26T07:00:36Z</time>
      </trkpt>
      <trkpt lat="38.328008" lon="-1.690668">
        <ele>320.8</ele>
        <time>2023-03-26T07:00:40Z</time>
      </trkpt>
      <trkpt lat="38.327957" lon="-1.690616">
        <ele>320.9</ele>
        <time>2023-03-26T07:00:44Z</time>
      </trkpt>
      <trkpt lat="38.327901" lon="-1.690571">
        <ele>320.9</ele>
        <time>2023-03-26T07:00:49Z</time>
      </trkpt>
      <trkpt lat="38.327845" lon="-1.690519">
        <ele>319.9</ele>
        <time>2023-03-26T07:00:55Z</time>
      </trkpt>
      <trkpt lat="38.327776" lon="-1.690499">
        <ele>320.9</ele>
        <time>2023-03-26T07:01:00Z</time>
      </trkpt>
      <trkpt lat="38.327711" lon="-1.690483">
        <ele>319.9</ele>
        <time>2023-03-26T07:01:05Z</time>
      </trkpt>
      <trkpt lat="38.327644" lon="-1.690467">
        <ele>318.9</ele>
        <time>2023-03-26T07:01:10Z</time>
      </trkpt>
      <trkpt lat="38.327590" lon="-1.690413">
        <ele>318.9</ele>
        <time>2023-03-26T07:01:16Z</time>
      </trkpt>
      <trkpt lat="38.327528" lon="-1.690377">
        <ele>318.9</ele>
        <time>2023-03-26T07:01:21Z</time>
      </trkpt>
      <trkpt lat="38.327460" lon="-1.690364">
        <ele>319.9</ele>
        <time>2023-03-26T07:01:26Z</time>
      </trkpt>
      <trkpt lat="38.327393" lon="-1.690354">
        <ele>317.9</ele>
        <time>2023-03-26T07:01:31Z</time>
      </trkpt>
      <trkpt lat="38.327332" lon="-1.690333">
        <ele>317.9</ele>
        <time>2023-03-26T07:01:36Z</time>
      </trkpt>
      <trkpt lat="38.327267" lon="-1.690321">
        <ele>319.8</ele>
        <time>2023-03-26T07:01:41Z</time>
      </trkpt>
      <trkpt lat="38.327202" lon="-1.690314">
        <ele>319.9</ele>
        <time>2023-03-26T07:01:46Z</time>
      </trkpt>
      <trkpt lat="38.327137" lon="-1.690289">
        <ele>320.9</ele>
        <time>2023-03-26T07:01:51Z</time>
      </trkpt>
      <trkpt lat="38.327074" lon="-1.690254">
        <ele>320.8</ele>
        <time>2023-03-26T07:01:56Z</time>
      </trkpt>
      <trkpt lat="38.327019" lon="-1.690211">
        <ele>319.9</ele>
        <time>2023-03-26T07:02:01Z</time>
      </trkpt>
      <trkpt lat="38.326960" lon="-1.690174">
        <ele>319.9</ele>
        <time>2023-03-26T07:02:05Z</time>
      </trkpt>
      <trkpt lat="38.326896" lon="-1.690135">
        <ele>319.9</ele>
        <time>2023-03-26T07:02:10Z</time>
      </trkpt>
      <trkpt lat="38.326836" lon="-1.690090">
        <ele>320.9</ele>
        <time>2023-03-26T07:02:15Z</time>
      </trkpt>
      <trkpt lat="38.326778" lon="-1.690046">
        <ele>319.9</ele>
        <time>2023-03-26T07:02:20Z</time>
      </trkpt>
      <trkpt lat="38.326721" lon="-1.690009">
        <ele>320.9</ele>
        <time>2023-03-26T07:02:24Z</time>
      </trkpt>
      <trkpt lat="38.326658" lon="-1.689968">
        <ele>321.9</ele>
        <time>2023-03-26T07:02:30Z</time>
      </trkpt>
      <trkpt lat="38.326595" lon="-1.689941">
        <ele>321.9</ele>
        <time>2023-03-26T07:02:35Z</time>
      </trkpt>
      <trkpt lat="38.326535" lon="-1.689910">
        <ele>321.9</ele>
        <time>2023-03-26T07:02:39Z</time>
      </trkpt>
      <trkpt lat="38.326465" lon="-1.689873">
        <ele>321.8</ele>
        <time>2023-03-26T07:02:45Z</time>
      </trkpt>
      <trkpt lat="38.326406" lon="-1.689825">
        <ele>321.9</ele>
        <time>2023-03-26T07:02:50Z</time>
      </trkpt>
      <trkpt lat="38.326353" lon="-1.689778">
        <ele>320.9</ele>
        <time>2023-03-26T07:02:55Z</time>
      </trkpt>
      <trkpt lat="38.326297" lon="-1.689722">
        <ele>319.9</ele>
        <time>2023-03-26T07:03:00Z</time>
      </trkpt>
      <trkpt lat="38.326245" lon="-1.689676">
        <ele>318.9</ele>
        <time>2023-03-26T07:03:04Z</time>
      </trkpt>
      <trkpt lat="38.326190" lon="-1.689634">
        <ele>317.9</ele>
        <time>2023-03-26T07:03:09Z</time>
      </trkpt>
      <trkpt lat="38.326139" lon="-1.689580">
        <ele>317.9</ele>
        <time>2023-03-26T07:03:14Z</time>
      </trkpt>
      <trkpt lat="38.326094" lon="-1.689521">
        <ele>318.6</ele>
        <time>2023-03-26T07:03:18Z</time>
      </trkpt>
      <trkpt lat="38.326048" lon="-1.689455">
        <ele>319.9</ele>
        <time>2023-03-26T07:03:23Z</time>
      </trkpt>
      <trkpt lat="38.326011" lon="-1.689388">
        <ele>320.6</ele>
        <time>2023-03-26T07:03:27Z</time>
      </trkpt>
      <trkpt lat="38.325968" lon="-1.689323">
        <ele>321.9</ele>
        <time>2023-03-26T07:03:32Z</time>
      </trkpt>
      <trkpt lat="38.325926" lon="-1.689251">
        <ele>320.9</ele>
        <time>2023-03-26T07:03:38Z</time>
      </trkpt>
      <trkpt lat="38.325894" lon="-1.689178">
        <ele>320.7</ele>
        <time>2023-03-26T07:03:42Z</time>
      </trkpt>
      <trkpt lat="38.325854" lon="-1.689111">
        <ele>320.9</ele>
        <time>2023-03-26T07:03:48Z</time>
      </trkpt>
      <trkpt lat="38.325834" lon="-1.689030">
        <ele>320.6</ele>
        <time>2023-03-26T07:03:52Z</time>
      </trkpt>
      <trkpt lat="38.325801" lon="-1.688951">
        <ele>320.9</ele>
        <time>2023-03-26T07:03:56Z</time>
      </trkpt>
      <trkpt lat="38.325775" lon="-1.688876">
        <ele>319.9</ele>
        <time>2023-03-26T07:04:01Z</time>
      </trkpt>
      <trkpt lat="38.325739" lon="-1.688798">
        <ele>319.9</ele>
        <time>2023-03-26T07:04:05Z</time>
      </trkpt>
      <trkpt lat="38.325691" lon="-1.688733">
        <ele>319.9</ele>
        <time>2023-03-26T07:04:10Z</time>
      </trkpt>
      <trkpt lat="38.325653" lon="-1.688667">
        <ele>319.9</ele>
        <time>2023-03-26T07:04:15Z</time>
      </trkpt>
      <trkpt lat="38.325610" lon="-1.688595">
        <ele>320.9</ele>
        <time>2023-03-26T07:04:20Z</time>
      </trkpt>
      <trkpt lat="38.325573" lon="-1.688524">
        <ele>319.9</ele>
        <time>2023-03-26T07:04:25Z</time>
      </trkpt>
      <trkpt lat="38.325529" lon="-1.688465">
        <ele>320.9</ele>
        <time>2023-03-26T07:04:29Z</time>
      </trkpt>
      <trkpt lat="38.325492" lon="-1.688389">
        <ele>320.6</ele>
        <time>2023-03-26T07:04:34Z</time>
      </trkpt>
      <trkpt lat="38.325464" lon="-1.688311">
        <ele>320.6</ele>
        <time>2023-03-26T07:04:39Z</time>
      </trkpt>
      <trkpt lat="38.325437" lon="-1.688225">
        <ele>320.9</ele>
        <time>2023-03-26T07:04:44Z</time>
      </trkpt>
      <trkpt lat="38.325424" lon="-1.688137">
        <ele>320.9</ele>
        <time>2023-03-26T07:04:49Z</time>
      </trkpt>
      <trkpt lat="38.325410" lon="-1.688058">
        <ele>321.6</ele>
        <time>2023-03-26T07:04:54Z</time>
      </trkpt>
      <trkpt lat="38.325385" lon="-1.687977">
        <ele>321.8</ele>
        <time>2023-03-26T07:04:59Z</time>
      </trkpt>
      <trkpt lat="38.325330" lon="-1.687917">
        <ele>321.9</ele>
        <time>2023-03-26T07:05:04Z</time>
      </trkpt>
      <trkpt lat="38.325278" lon="-1.687856">
        <ele>322.8</ele>
        <time>2023-03-26T07:05:09Z</time>
      </trkpt>
      <trkpt lat="38.325227" lon="-1.687799">
        <ele>321.9</ele>
        <time>2023-03-26T07:05:14Z</time>
      </trkpt>
      <trkpt lat="38.325183" lon="-1.687739">
        <ele>321.9</ele>
        <time>2023-03-26T07:05:20Z</time>
      </trkpt>
      <trkpt lat="38.325127" lon="-1.687687">
        <ele>321.0</ele>
        <time>2023-03-26T07:05:25Z</time>
      </trkpt>
      <trkpt lat="38.325074" lon="-1.687637">
        <ele>319.9</ele>
        <time>2023-03-26T07:05:29Z</time>
      </trkpt>
      <trkpt lat="38.325018" lon="-1.687597">
        <ele>319.9</ele>
        <time>2023-03-26T07:05:34Z</time>
      </trkpt>
      <trkpt lat="38.324959" lon="-1.687565">
        <ele>320.8</ele>
        <time>2023-03-26T07:05:38Z</time>
      </trkpt>
      <trkpt lat="38.324894" lon="-1.687542">
        <ele>319.9</ele>
        <time>2023-03-26T07:05:43Z</time>
      </trkpt>
      <trkpt lat="38.324835" lon="-1.687508">
        <ele>318.9</ele>
        <time>2023-03-26T07:05:48Z</time>
      </trkpt>
      <trkpt lat="38.324777" lon="-1.687471">
        <ele>317.9</ele>
        <time>2023-03-26T07:05:54Z</time>
      </trkpt>
      <trkpt lat="38.324721" lon="-1.687429">
        <ele>317.1</ele>
        <time>2023-03-26T07:05:59Z</time>
      </trkpt>
      <trkpt lat="38.324672" lon="-1.687374">
        <ele>314.9</ele>
        <time>2023-03-26T07:06:44Z</time>
      </trkpt>
      <trkpt lat="38.324612" lon="-1.687332">
        <ele>315.9</ele>
        <time>2023-03-26T07:06:48Z</time>
      </trkpt>
      <trkpt lat="38.324561" lon="-1.687284">
        <ele>315.9</ele>
        <time>2023-03-26T07:06:52Z</time>
      </trkpt>
      <trkpt lat="38.324499" lon="-1.687246">
        <ele>314.9</ele>
        <time>2023-03-26T07:06:55Z</time>
      </trkpt>
      <trkpt lat="38.324449" lon="-1.687194">
        <ele>314.9</ele>
        <time>2023-03-26T07:06:59Z</time>
      </trkpt>
      <trkpt lat="38.324398" lon="-1.687145">
        <ele>314.9</ele>
        <time>2023-03-26T07:07:03Z</time>
      </trkpt>
      <trkpt lat="38.324346" lon="-1.687093">
        <ele>313.9</ele>
        <time>2023-03-26T07:07:08Z</time>
      </trkpt>
      <trkpt lat="38.324288" lon="-1.687044">
        <ele>313.9</ele>
        <time>2023-03-26T07:07:14Z</time>
      </trkpt>
      <trkpt lat="38.324232" lon="-1.687007">
        <ele>314.9</ele>
        <time>2023-03-26T07:07:18Z</time>
      </trkpt>
      <trkpt lat="38.324167" lon="-1.686975">
        <ele>314.9</ele>
        <time>2023-03-26T07:07:23Z</time>
      </trkpt>
      <trkpt lat="38.324109" lon="-1.686932">
        <ele>314.9</ele>
        <time>2023-03-26T07:07:28Z</time>
      </trkpt>
      <trkpt lat="38.324069" lon="-1.686856">
        <ele>314.9</ele>
        <time>2023-03-26T07:07:32Z</time>
      </trkpt>
      <trkpt lat="38.324031" lon="-1.686788">
        <ele>314.9</ele>
        <time>2023-03-26T07:07:36Z</time>
      </trkpt>
      <trkpt lat="38.323988" lon="-1.686716">
        <ele>314.9</ele>
        <time>2023-03-26T07:07:41Z</time>
      </trkpt>
      <trkpt lat="38.323942" lon="-1.686656">
        <ele>315.9</ele>
        <time>2023-03-26T07:07:45Z</time>
      </trkpt>
      <trkpt lat="38.323892" lon="-1.686594">
        <ele>316.6</ele>
        <time>2023-03-26T07:07:49Z</time>
      </trkpt>
      <trkpt lat="38.323847" lon="-1.686534">
        <ele>315.9</ele>
        <time>2023-03-26T07:07:53Z</time>
      </trkpt>
      <trkpt lat="38.323803" lon="-1.686467">
        <ele>317.9</ele>
        <time>2023-03-26T07:07:58Z</time>
      </trkpt>
      <trkpt lat="38.323760" lon="-1.686405">
        <ele>317.9</ele>
        <time>2023-03-26T07:08:02Z</time>
      </trkpt>
      <trkpt lat="38.323715" lon="-1.686346">
        <ele>317.9</ele>
        <time>2023-03-26T07:08:06Z</time>
      </trkpt>
      <trkpt lat="38.323667" lon="-1.686293">
        <ele>317.9</ele>
        <time>2023-03-26T07:08:11Z</time>
      </trkpt>
      <trkpt lat="38.323619" lon="-1.686232">
        <ele>318.8</ele>
        <time>2023-03-26T07:08:15Z</time>
      </trkpt>
      <trkpt lat="38.323556" lon="-1.686191">
        <ele>318.9</ele>
        <time>2023-03-26T07:08:19Z</time>
      </trkpt>
      <trkpt lat="38.323497" lon="-1.686161">
        <ele>318.9</ele>
        <time>2023-03-26T07:08:24Z</time>
      </trkpt>
      <trkpt lat="38.323426" lon="-1.686127">
        <ele>318.1</ele>
        <time>2023-03-26T07:08:28Z</time>
      </trkpt>
      <trkpt lat="38.323370" lon="-1.686078">
        <ele>317.9</ele>
        <time>2023-03-26T07:08:33Z</time>
      </trkpt>
      <trkpt lat="38.323323" lon="-1.686008">
        <ele>318.9</ele>
        <time>2023-03-26T07:08:38Z</time>
      </trkpt>
      <trkpt lat="38.323282" lon="-1.685943">
        <ele>316.9</ele>
        <time>2023-03-26T07:08:42Z</time>
      </trkpt>
      <trkpt lat="38.323243" lon="-1.685877">
        <ele>317.9</ele>
        <time>2023-03-26T07:08:46Z</time>
      </trkpt>
      <trkpt lat="38.323202" lon="-1.685809">
        <ele>318.9</ele>
        <time>2023-03-26T07:08:51Z</time>
      </trkpt>
      <trkpt lat="38.323151" lon="-1.685751">
        <ele>318.9</ele>
        <time>2023-03-26T07:08:55Z</time>
      </trkpt>
      <trkpt lat="38.323107" lon="-1.685686">
        <ele>317.9</ele>
        <time>2023-03-26T07:09:00Z</time>
      </trkpt>
      <trkpt lat="38.323073" lon="-1.685613">
        <ele>317.9</ele>
        <time>2023-03-26T07:09:04Z</time>
      </trkpt>
      <trkpt lat="38.323044" lon="-1.685539">
        <ele>318.9</ele>
        <time>2023-03-26T07:09:08Z</time>
      </trkpt>
      <trkpt lat="38.323020" lon="-1.685455">
        <ele>318.9</ele>
        <time>2023-03-26T07:09:13Z</time>
      </trkpt>
      <trkpt lat="38.322986" lon="-1.685380">
        <ele>319.9</ele>
        <time>2023-03-26T07:09:19Z</time>
      </trkpt>
      <trkpt lat="38.322952" lon="-1.685304">
        <ele>321.6</ele>
        <time>2023-03-26T07:09:24Z</time>
      </trkpt>
      <trkpt lat="38.322903" lon="-1.685252">
        <ele>321.9</ele>
        <time>2023-03-26T07:09:28Z</time>
      </trkpt>
      <trkpt lat="38.322857" lon="-1.685193">
        <ele>322.9</ele>
        <time>2023-03-26T07:09:33Z</time>
      </trkpt>
      <trkpt lat="38.322800" lon="-1.685142">
        <ele>322.9</ele>
        <time>2023-03-26T07:09:38Z</time>
      </trkpt>
      <trkpt lat="38.322749" lon="-1.685090">
        <ele>322.9</ele>
        <time>2023-03-26T07:09:42Z</time>
      </trkpt>
      <trkpt lat="38.322695" lon="-1.685046">
        <ele>321.9</ele>
        <time>2023-03-26T07:09:47Z</time>
      </trkpt>
      <trkpt lat="38.322642" lon="-1.684997">
        <ele>320.9</ele>
        <time>2023-03-26T07:09:52Z</time>
      </trkpt>
      <trkpt lat="38.322591" lon="-1.684939">
        <ele>320.9</ele>
        <time>2023-03-26T07:09:57Z</time>
      </trkpt>
      <trkpt lat="38.322546" lon="-1.684880">
        <ele>320.9</ele>
        <time>2023-03-26T07:10:01Z</time>
      </trkpt>
      <trkpt lat="38.322497" lon="-1.684819">
        <ele>320.9</ele>
        <time>2023-03-26T07:10:06Z</time>
      </trkpt>
      <trkpt lat="38.322449" lon="-1.684753">
        <ele>318.9</ele>
        <time>2023-03-26T07:10:11Z</time>
      </trkpt>
      <trkpt lat="38.322399" lon="-1.684694">
        <ele>318.9</ele>
        <time>2023-03-26T07:10:16Z</time>
      </trkpt>
      <trkpt lat="38.322352" lon="-1.684638">
        <ele>319.9</ele>
        <time>2023-03-26T07:10:21Z</time>
      </trkpt>
      <trkpt lat="38.322294" lon="-1.684587">
        <ele>319.9</ele>
        <time>2023-03-26T07:10:26Z</time>
      </trkpt>
      <trkpt lat="38.322238" lon="-1.684549">
        <ele>319.9</ele>
        <time>2023-03-26T07:10:31Z</time>
      </trkpt>
      <trkpt lat="38.322175" lon="-1.684522">
        <ele>318.9</ele>
        <time>2023-03-26T07:10:35Z</time>
      </trkpt>
      <trkpt lat="38.322112" lon="-1.684493">
        <ele>318.9</ele>
        <time>2023-03-26T07:10:41Z</time>
      </trkpt>
      <trkpt lat="38.322052" lon="-1.684470">
        <ele>319.9</ele>
        <time>2023-03-26T07:10:46Z</time>
      </trkpt>
      <trkpt lat="38.321993" lon="-1.684426">
        <ele>320.9</ele>
        <time>2023-03-26T07:10:51Z</time>
      </trkpt>
      <trkpt lat="38.321935" lon="-1.684389">
        <ele>319.9</ele>
        <time>2023-03-26T07:10:56Z</time>
      </trkpt>
      <trkpt lat="38.321905" lon="-1.684313">
        <ele>317.9</ele>
        <time>2023-03-26T07:11:02Z</time>
      </trkpt>
      <trkpt lat="38.321920" lon="-1.684232">
        <ele>315.9</ele>
        <time>2023-03-26T07:11:06Z</time>
      </trkpt>
      <trkpt lat="38.321951" lon="-1.684159">
        <ele>313.9</ele>
        <time>2023-03-26T07:11:10Z</time>
      </trkpt>
      <trkpt lat="38.321973" lon="-1.684081">
        <ele>313.9</ele>
        <time>2023-03-26T07:11:14Z</time>
      </trkpt>
      <trkpt lat="38.321999" lon="-1.684004">
        <ele>314.9</ele>
        <time>2023-03-26T07:11:19Z</time>
      </trkpt>
      <trkpt lat="38.321949" lon="-1.683938">
        <ele>311.9</ele>
        <time>2023-03-26T07:11:43Z</time>
      </trkpt>
      <trkpt lat="38.321911" lon="-1.683868">
        <ele>313.9</ele>
        <time>2023-03-26T07:11:48Z</time>
      </trkpt>
      <trkpt lat="38.321854" lon="-1.683816">
        <ele>315.6</ele>
        <time>2023-03-26T07:11:52Z</time>
      </trkpt>
      <trkpt lat="38.321794" lon="-1.683789">
        <ele>314.8</ele>
        <time>2023-03-26T07:12:06Z</time>
      </trkpt>
      <trkpt lat="38.321734" lon="-1.683753">
        <ele>316.9</ele>
        <time>2023-03-26T07:12:11Z</time>
      </trkpt>
      <trkpt lat="38.321676" lon="-1.683724">
        <ele>315.9</ele>
        <time>2023-03-26T07:12:16Z</time>
      </trkpt>
      <trkpt lat="38.321616" lon="-1.683691">
        <ele>313.9</ele>
        <time>2023-03-26T07:12:19Z</time>
      </trkpt>
      <trkpt lat="38.321561" lon="-1.683652">
        <ele>314.9</ele>
        <time>2023-03-26T07:12:25Z</time>
      </trkpt>
      <trkpt lat="38.321496" lon="-1.683641">
        <ele>316.8</ele>
        <time>2023-03-26T07:12:39Z</time>
      </trkpt>
      <trkpt lat="38.321432" lon="-1.683605">
        <ele>315.2</ele>
        <time>2023-03-26T07:12:43Z</time>
      </trkpt>
      <trkpt lat="38.321374" lon="-1.683551">
        <ele>314.1</ele>
        <time>2023-03-26T07:12:46Z</time>
      </trkpt>
      <trkpt lat="38.321319" lon="-1.683506">
        <ele>314.6</ele>
        <time>2023-03-26T07:12:51Z</time>
      </trkpt>
      <trkpt lat="38.321264" lon="-1.683468">
        <ele>313.9</ele>
        <time>2023-03-26T07:12:56Z</time>
      </trkpt>
      <trkpt lat="38.321197" lon="-1.683428">
        <ele>313.9</ele>
        <time>2023-03-26T07:13:00Z</time>
      </trkpt>
      <trkpt lat="38.321148" lon="-1.683367">
        <ele>311.9</ele>
        <time>2023-03-26T07:13:07Z</time>
      </trkpt>
      <trkpt lat="38.321098" lon="-1.683302">
        <ele>311.9</ele>
        <time>2023-03-26T07:13:11Z</time>
      </trkpt>
      <trkpt lat="38.321056" lon="-1.683240">
        <ele>312.9</ele>
        <time>2023-03-26T07:13:16Z</time>
      </trkpt>
      <trkpt lat="38.321006" lon="-1.683173">
        <ele>313.9</ele>
        <time>2023-03-26T07:13:20Z</time>
      </trkpt>
      <trkpt lat="38.320956" lon="-1.683120">
        <ele>313.9</ele>
        <time>2023-03-26T07:13:25Z</time>
      </trkpt>
      <trkpt lat="38.320903" lon="-1.683076">
        <ele>313.9</ele>
        <time>2023-03-26T07:13:29Z</time>
      </trkpt>
      <trkpt lat="38.320853" lon="-1.683019">
        <ele>312.9</ele>
        <time>2023-03-26T07:13:33Z</time>
      </trkpt>
      <trkpt lat="38.320797" lon="-1.682972">
        <ele>312.1</ele>
        <time>2023-03-26T07:13:38Z</time>
      </trkpt>
      <trkpt lat="38.320739" lon="-1.682924">
        <ele>312.6</ele>
        <time>2023-03-26T07:13:42Z</time>
      </trkpt>
      <trkpt lat="38.320685" lon="-1.682878">
        <ele>310.9</ele>
        <time>2023-03-26T07:13:46Z</time>
      </trkpt>
      <trkpt lat="38.320624" lon="-1.682828">
        <ele>310.9</ele>
        <time>2023-03-26T07:13:51Z</time>
      </trkpt>
      <trkpt lat="38.320572" lon="-1.682782">
        <ele>309.9</ele>
        <time>2023-03-26T07:13:56Z</time>
      </trkpt>
      <trkpt lat="38.320518" lon="-1.682737">
        <ele>309.9</ele>
        <time>2023-03-26T07:14:00Z</time>
      </trkpt>
      <trkpt lat="38.320462" lon="-1.682685">
        <ele>308.9</ele>
        <time>2023-03-26T07:14:04Z</time>
      </trkpt>
      <trkpt lat="38.320444" lon="-1.682606">
        <ele>310.9</ele>
        <time>2023-03-26T07:14:55Z</time>
      </trkpt>
      <trkpt lat="38.320396" lon="-1.682551">
        <ele>309.9</ele>
        <time>2023-03-26T07:14:58Z</time>
      </trkpt>
      <trkpt lat="38.320355" lon="-1.682485">
        <ele>308.9</ele>
        <time>2023-03-26T07:15:02Z</time>
      </trkpt>
      <trkpt lat="38.320311" lon="-1.682415">
        <ele>308.9</ele>
        <time>2023-03-26T07:15:08Z</time>
      </trkpt>
      <trkpt lat="38.320257" lon="-1.682364">
        <ele>310.9</ele>
        <time>2023-03-26T07:15:11Z</time>
      </trkpt>
      <trkpt lat="38.320199" lon="-1.682320">
        <ele>310.9</ele>
        <time>2023-03-26T07:15:16Z</time>
      </trkpt>
      <trkpt lat="38.320147" lon="-1.682254">
        <ele>311.9</ele>
        <time>2023-03-26T07:15:20Z</time>
      </trkpt>
      <trkpt lat="38.320107" lon="-1.682186">
        <ele>311.9</ele>
        <time>2023-03-26T07:15:25Z</time>
      </trkpt>
      <trkpt lat="38.320051" lon="-1.682132">
        <ele>312.9</ele>
        <time>2023-03-26T07:15:29Z</time>
      </trkpt>
      <trkpt lat="38.319987" lon="-1.682090">
        <ele>312.9</ele>
        <time>2023-03-26T07:15:34Z</time>
      </trkpt>
      <trkpt lat="38.319927" lon="-1.682047">
        <ele>312.9</ele>
        <time>2023-03-26T07:15:39Z</time>
      </trkpt>
      <trkpt lat="38.319897" lon="-1.681974">
        <ele>312.1</ele>
        <time>2023-03-26T07:15:43Z</time>
      </trkpt>
      <trkpt lat="38.319871" lon="-1.681891">
        <ele>312.9</ele>
        <time>2023-03-26T07:15:48Z</time>
      </trkpt>
      <trkpt lat="38.319830" lon="-1.681824">
        <ele>311.9</ele>
        <time>2023-03-26T07:15:52Z</time>
      </trkpt>
      <trkpt lat="38.319800" lon="-1.681748">
        <ele>311.9</ele>
        <time>2023-03-26T07:15:57Z</time>
      </trkpt>
      <trkpt lat="38.319764" lon="-1.681682">
        <ele>312.9</ele>
        <time>2023-03-26T07:16:00Z</time>
      </trkpt>
      <trkpt lat="38.319723" lon="-1.681613">
        <ele>312.9</ele>
        <time>2023-03-26T07:16:05Z</time>
      </trkpt>
      <trkpt lat="38.319685" lon="-1.681547">
        <ele>311.9</ele>
        <time>2023-03-26T07:16:10Z</time>
      </trkpt>
      <trkpt lat="38.319646" lon="-1.681471">
        <ele>311.9</ele>
        <time>2023-03-26T07:16:14Z</time>
      </trkpt>
      <trkpt lat="38.319609" lon="-1.681401">
        <ele>311.8</ele>
        <time>2023-03-26T07:16:18Z</time>
      </trkpt>
      <trkpt lat="38.319583" lon="-1.681327">
        <ele>312.9</ele>
        <time>2023-03-26T07:16:22Z</time>
      </trkpt>
      <trkpt lat="38.319560" lon="-1.681250">
        <ele>311.9</ele>
        <time>2023-03-26T07:16:25Z</time>
      </trkpt>
      <trkpt lat="38.319526" lon="-1.681178">
        <ele>312.9</ele>
        <time>2023-03-26T07:16:30Z</time>
      </trkpt>
      <trkpt lat="38.319489" lon="-1.681106">
        <ele>312.9</ele>
        <time>2023-03-26T07:16:34Z</time>
      </trkpt>
      <trkpt lat="38.319460" lon="-1.681029">
        <ele>314.8</ele>
        <time>2023-03-26T07:16:38Z</time>
      </trkpt>
      <trkpt lat="38.319415" lon="-1.680963">
        <ele>313.1</ele>
        <time>2023-03-26T07:16:43Z</time>
      </trkpt>
      <trkpt lat="38.319372" lon="-1.680896">
        <ele>312.9</ele>
        <time>2023-03-26T07:16:47Z</time>
      </trkpt>
      <trkpt lat="38.319334" lon="-1.680826">
        <ele>311.9</ele>
        <time>2023-03-26T07:16:52Z</time>
      </trkpt>
      <trkpt lat="38.319294" lon="-1.680758">
        <ele>311.9</ele>
        <time>2023-03-26T07:16:57Z</time>
      </trkpt>
      <trkpt lat="38.319235" lon="-1.680685">
        <ele>312.9</ele>
        <time>2023-03-26T07:17:02Z</time>
      </trkpt>
      <trkpt lat="38.319174" lon="-1.680645">
        <ele>312.9</ele>
        <time>2023-03-26T07:17:07Z</time>
      </trkpt>
      <trkpt lat="38.319141" lon="-1.680571">
        <ele>311.9</ele>
        <time>2023-03-26T07:17:13Z</time>
      </trkpt>
      <trkpt lat="38.319117" lon="-1.680491">
        <ele>315.9</ele>
        <time>2023-03-26T07:17:26Z</time>
      </trkpt>
      <trkpt lat="38.319071" lon="-1.680427">
        <ele>314.0</ele>
        <time>2023-03-26T07:17:30Z</time>
      </trkpt>
      <trkpt lat="38.319035" lon="-1.680360">
        <ele>313.1</ele>
        <time>2023-03-26T07:17:34Z</time>
      </trkpt>
      <trkpt lat="38.319000" lon="-1.680292">
        <ele>311.9</ele>
        <time>2023-03-26T07:17:38Z</time>
      </trkpt>
      <trkpt lat="38.318980" lon="-1.680216">
        <ele>312.9</ele>
        <time>2023-03-26T07:17:45Z</time>
      </trkpt>
      <trkpt lat="38.318931" lon="-1.680153">
        <ele>312.9</ele>
        <time>2023-03-26T07:17:50Z</time>
      </trkpt>
      <trkpt lat="38.318896" lon="-1.680071">
        <ele>312.9</ele>
        <time>2023-03-26T07:17:55Z</time>
      </trkpt>
      <trkpt lat="38.318860" lon="-1.679983">
        <ele>314.9</ele>
        <time>2023-03-26T07:17:59Z</time>
      </trkpt>
      <trkpt lat="38.318825" lon="-1.679910">
        <ele>313.9</ele>
        <time>2023-03-26T07:18:03Z</time>
      </trkpt>
      <trkpt lat="38.318816" lon="-1.679819">
        <ele>314.8</ele>
        <time>2023-03-26T07:18:07Z</time>
      </trkpt>
      <trkpt lat="38.318817" lon="-1.679733">
        <ele>315.9</ele>
        <time>2023-03-26T07:18:12Z</time>
      </trkpt>
      <trkpt lat="38.318809" lon="-1.679652">
        <ele>316.9</ele>
        <time>2023-03-26T07:18:23Z</time>
      </trkpt>
      <trkpt lat="38.318735" lon="-1.679629">
        <ele>315.9</ele>
        <time>2023-03-26T07:19:36Z</time>
      </trkpt>
      <trkpt lat="38.318736" lon="-1.679548">
        <ele>314.0</ele>
        <time>2023-03-26T07:19:40Z</time>
      </trkpt>
      <trkpt lat="38.318740" lon="-1.679461">
        <ele>314.6</ele>
        <time>2023-03-26T07:19:44Z</time>
      </trkpt>
      <trkpt lat="38.318728" lon="-1.679368">
        <ele>313.9</ele>
        <time>2023-03-26T07:19:48Z</time>
      </trkpt>
      <trkpt lat="38.318683" lon="-1.679310">
        <ele>314.9</ele>
        <time>2023-03-26T07:19:53Z</time>
      </trkpt>
      <trkpt lat="38.318639" lon="-1.679247">
        <ele>315.9</ele>
        <time>2023-03-26T07:19:58Z</time>
      </trkpt>
      <trkpt lat="38.318597" lon="-1.679186">
        <ele>317.1</ele>
        <time>2023-03-26T07:20:07Z</time>
      </trkpt>
      <trkpt lat="38.318560" lon="-1.679117">
        <ele>315.9</ele>
        <time>2023-03-26T07:20:24Z</time>
      </trkpt>
      <trkpt lat="38.318520" lon="-1.679055">
        <ele>313.9</ele>
        <time>2023-03-26T07:20:54Z</time>
      </trkpt>
      <trkpt lat="38.318485" lon="-1.678982">
        <ele>313.9</ele>
        <time>2023-03-26T07:21:03Z</time>
      </trkpt>
      <trkpt lat="38.318450" lon="-1.678910">
        <ele>313.9</ele>
        <time>2023-03-26T07:21:07Z</time>
      </trkpt>
      <trkpt lat="38.318415" lon="-1.678841">
        <ele>313.9</ele>
        <time>2023-03-26T07:21:13Z</time>
      </trkpt>
      <trkpt lat="38.318397" lon="-1.678760">
        <ele>315.9</ele>
        <time>2023-03-26T07:21:21Z</time>
      </trkpt>
      <trkpt lat="38.318348" lon="-1.678705">
        <ele>316.8</ele>
        <time>2023-03-26T07:21:26Z</time>
      </trkpt>
      <trkpt lat="38.318300" lon="-1.678640">
        <ele>318.9</ele>
        <time>2023-03-26T07:21:32Z</time>
      </trkpt>
      <trkpt lat="38.318276" lon="-1.678566">
        <ele>320.9</ele>
        <time>2023-03-26T07:21:37Z</time>
      </trkpt>
      <trkpt lat="38.318229" lon="-1.678508">
        <ele>324.9</ele>
        <time>2023-03-26T07:21:51Z</time>
      </trkpt>
      <trkpt lat="38.318210" lon="-1.678425">
        <ele>323.9</ele>
        <time>2023-03-26T07:21:56Z</time>
      </trkpt>
      <trkpt lat="38.318191" lon="-1.678344">
        <ele>322.9</ele>
        <time>2023-03-26T07:22:01Z</time>
      </trkpt>
      <trkpt lat="38.318169" lon="-1.678261">
        <ele>322.9</ele>
        <time>2023-03-26T07:22:07Z</time>
      </trkpt>
      <trkpt lat="38.318158" lon="-1.678176">
        <ele>325.6</ele>
        <time>2023-03-26T07:22:13Z</time>
      </trkpt>
      <trkpt lat="38.318146" lon="-1.678089">
        <ele>325.8</ele>
        <time>2023-03-26T07:22:19Z</time>
      </trkpt>
      <trkpt lat="38.318173" lon="-1.678012">
        <ele>324.9</ele>
        <time>2023-03-26T07:22:26Z</time>
      </trkpt>
      <trkpt lat="38.318148" lon="-1.677926">
        <ele>325.1</ele>
        <time>2023-03-26T07:22:30Z</time>
      </trkpt>
      <trkpt lat="38.318117" lon="-1.677837">
        <ele>325.9</ele>
        <time>2023-03-26T07:22:36Z</time>
      </trkpt>
      <trkpt lat="38.318100" lon="-1.677752">
        <ele>326.9</ele>
        <time>2023-03-26T07:22:40Z</time>
      </trkpt>
      <trkpt lat="38.318083" lon="-1.677674">
        <ele>326.9</ele>
        <time>2023-03-26T07:22:44Z</time>
      </trkpt>
      <trkpt lat="38.318049" lon="-1.677598">
        <ele>328.8</ele>
        <time>2023-03-26T07:22:49Z</time>
      </trkpt>
      <trkpt lat="38.318040" lon="-1.677512">
        <ele>329.8</ele>
        <time>2023-03-26T07:22:55Z</time>
      </trkpt>
      <trkpt lat="38.318029" lon="-1.677426">
        <ele>329.9</ele>
        <time>2023-03-26T07:23:01Z</time>
      </trkpt>
      <trkpt lat="38.318022" lon="-1.677337">
        <ele>328.0</ele>
        <time>2023-03-26T07:23:06Z</time>
      </trkpt>
      <trkpt lat="38.318010" lon="-1.677251">
        <ele>327.0</ele>
        <time>2023-03-26T07:23:11Z</time>
      </trkpt>
      <trkpt lat="38.318001" lon="-1.677167">
        <ele>325.9</ele>
        <time>2023-03-26T07:23:16Z</time>
      </trkpt>
      <trkpt lat="38.318000" lon="-1.677082">
        <ele>324.9</ele>
        <time>2023-03-26T07:23:21Z</time>
      </trkpt>
      <trkpt lat="38.318005" lon="-1.676997">
        <ele>323.9</ele>
        <time>2023-03-26T07:23:25Z</time>
      </trkpt>
      <trkpt lat="38.318014" lon="-1.676911">
        <ele>323.9</ele>
        <time>2023-03-26T07:23:30Z</time>
      </trkpt>
      <trkpt lat="38.318027" lon="-1.676828">
        <ele>322.9</ele>
        <time>2023-03-26T07:23:35Z</time>
      </trkpt>
      <trkpt lat="38.318056" lon="-1.676757">
        <ele>321.1</ele>
        <time>2023-03-26T07:23:40Z</time>
      </trkpt>
      <trkpt lat="38.318051" lon="-1.676668">
        <ele>320.9</ele>
        <time>2023-03-26T07:23:45Z</time>
      </trkpt>
      <trkpt lat="38.318071" lon="-1.676585">
        <ele>319.9</ele>
        <time>2023-03-26T07:23:50Z</time>
      </trkpt>
      <trkpt lat="38.318089" lon="-1.676505">
        <ele>318.9</ele>
        <time>2023-03-26T07:23:56Z</time>
      </trkpt>
      <trkpt lat="38.318115" lon="-1.676423">
        <ele>318.9</ele>
        <time>2023-03-26T07:24:01Z</time>
      </trkpt>
      <trkpt lat="38.318119" lon="-1.676334">
        <ele>318.9</ele>
        <time>2023-03-26T07:24:06Z</time>
      </trkpt>
      <trkpt lat="38.318123" lon="-1.676254">
        <ele>317.9</ele>
        <time>2023-03-26T07:24:10Z</time>
      </trkpt>
      <trkpt lat="38.318130" lon="-1.676169">
        <ele>316.9</ele>
        <time>2023-03-26T07:24:15Z</time>
      </trkpt>
      <trkpt lat="38.318138" lon="-1.676084">
        <ele>318.9</ele>
        <time>2023-03-26T07:24:19Z</time>
      </trkpt>
      <trkpt lat="38.318137" lon="-1.676000">
        <ele>319.9</ele>
        <time>2023-03-26T07:24:24Z</time>
      </trkpt>
      <trkpt lat="38.318142" lon="-1.675920">
        <ele>319.9</ele>
        <time>2023-03-26T07:24:28Z</time>
      </trkpt>
      <trkpt lat="38.318143" lon="-1.675837">
        <ele>318.9</ele>
        <time>2023-03-26T07:24:33Z</time>
      </trkpt>
      <trkpt lat="38.318169" lon="-1.675759">
        <ele>317.1</ele>
        <time>2023-03-26T07:24:39Z</time>
      </trkpt>
      <trkpt lat="38.318198" lon="-1.675681">
        <ele>315.9</ele>
        <time>2023-03-26T07:24:45Z</time>
      </trkpt>
      <trkpt lat="38.318205" lon="-1.675591">
        <ele>314.9</ele>
        <time>2023-03-26T07:24:49Z</time>
      </trkpt>
      <trkpt lat="38.318231" lon="-1.675511">
        <ele>315.6</ele>
        <time>2023-03-26T07:24:54Z</time>
      </trkpt>
      <trkpt lat="38.318264" lon="-1.675432">
        <ele>316.1</ele>
        <time>2023-03-26T07:24:59Z</time>
      </trkpt>
      <trkpt lat="38.318300" lon="-1.675359">
        <ele>314.9</ele>
        <time>2023-03-26T07:25:04Z</time>
      </trkpt>
      <trkpt lat="38.318288" lon="-1.675277">
        <ele>313.0</ele>
        <time>2023-03-26T07:25:09Z</time>
      </trkpt>
      <trkpt lat="38.318306" lon="-1.675194">
        <ele>312.9</ele>
        <time>2023-03-26T07:25:14Z</time>
      </trkpt>
      <trkpt lat="38.318327" lon="-1.675116">
        <ele>311.9</ele>
        <time>2023-03-26T07:25:19Z</time>
      </trkpt>
      <trkpt lat="38.318343" lon="-1.675032">
        <ele>311.9</ele>
        <time>2023-03-26T07:25:24Z</time>
      </trkpt>
      <trkpt lat="38.318361" lon="-1.674952">
        <ele>311.9</ele>
        <time>2023-03-26T07:25:28Z</time>
      </trkpt>
      <trkpt lat="38.318381" lon="-1.674872">
        <ele>312.9</ele>
        <time>2023-03-26T07:25:33Z</time>
      </trkpt>
      <trkpt lat="38.318408" lon="-1.674797">
        <ele>313.9</ele>
        <time>2023-03-26T07:25:37Z</time>
      </trkpt>
      <trkpt lat="38.318438" lon="-1.674724">
        <ele>312.8</ele>
        <time>2023-03-26T07:25:42Z</time>
      </trkpt>
      <trkpt lat="38.318482" lon="-1.674661">
        <ele>311.9</ele>
        <time>2023-03-26T07:25:46Z</time>
      </trkpt>
      <trkpt lat="38.318491" lon="-1.674576">
        <ele>310.8</ele>
        <time>2023-03-26T07:25:52Z</time>
      </trkpt>
      <trkpt lat="38.318497" lon="-1.674492">
        <ele>310.9</ele>
        <time>2023-03-26T07:25:57Z</time>
      </trkpt>
      <trkpt lat="38.318496" lon="-1.674411">
        <ele>311.9</ele>
        <time>2023-03-26T07:26:03Z</time>
      </trkpt>
      <trkpt lat="38.318500" lon="-1.674330">
        <ele>313.8</ele>
        <time>2023-03-26T07:26:07Z</time>
      </trkpt>
      <trkpt lat="38.318493" lon="-1.674247">
        <ele>315.9</ele>
        <time>2023-03-26T07:26:12Z</time>
      </trkpt>
      <trkpt lat="38.318491" lon="-1.674164">
        <ele>316.9</ele>
        <time>2023-03-26T07:26:17Z</time>
      </trkpt>
      <trkpt lat="38.318486" lon="-1.674080">
        <ele>317.6</ele>
        <time>2023-03-26T07:26:22Z</time>
      </trkpt>
      <trkpt lat="38.318466" lon="-1.673994">
        <ele>317.9</ele>
        <time>2023-03-26T07:26:27Z</time>
      </trkpt>
      <trkpt lat="38.318452" lon="-1.673908">
        <ele>318.9</ele>
        <time>2023-03-26T07:26:32Z</time>
      </trkpt>
      <trkpt lat="38.318459" lon="-1.673827">
        <ele>319.9</ele>
        <time>2023-03-26T07:26:37Z</time>
      </trkpt>
      <trkpt lat="38.318454" lon="-1.673740">
        <ele>321.9</ele>
        <time>2023-03-26T07:26:42Z</time>
      </trkpt>
      <trkpt lat="38.318454" lon="-1.673653">
        <ele>323.6</ele>
        <time>2023-03-26T07:26:47Z</time>
      </trkpt>
      <trkpt lat="38.318453" lon="-1.673566">
        <ele>323.1</ele>
        <time>2023-03-26T07:26:52Z</time>
      </trkpt>
      <trkpt lat="38.318443" lon="-1.673483">
        <ele>321.9</ele>
        <time>2023-03-26T07:26:57Z</time>
      </trkpt>
      <trkpt lat="38.318423" lon="-1.673405">
        <ele>321.9</ele>
        <time>2023-03-26T07:27:02Z</time>
      </trkpt>
      <trkpt lat="38.318403" lon="-1.673322">
        <ele>323.9</ele>
        <time>2023-03-26T07:27:08Z</time>
      </trkpt>
      <trkpt lat="38.318392" lon="-1.673242">
        <ele>322.9</ele>
        <time>2023-03-26T07:27:12Z</time>
      </trkpt>
      <trkpt lat="38.318387" lon="-1.673159">
        <ele>323.9</ele>
        <time>2023-03-26T07:27:17Z</time>
      </trkpt>
      <trkpt lat="38.318365" lon="-1.673078">
        <ele>325.9</ele>
        <time>2023-03-26T07:27:22Z</time>
      </trkpt>
      <trkpt lat="38.318350" lon="-1.672997">
        <ele>324.9</ele>
        <time>2023-03-26T07:27:26Z</time>
      </trkpt>
      <trkpt lat="38.318317" lon="-1.672926">
        <ele>323.9</ele>
        <time>2023-03-26T07:27:33Z</time>
      </trkpt>
      <trkpt lat="38.318298" lon="-1.672845">
        <ele>324.9</ele>
        <time>2023-03-26T07:27:38Z</time>
      </trkpt>
      <trkpt lat="38.318260" lon="-1.672777">
        <ele>323.1</ele>
        <time>2023-03-26T07:27:43Z</time>
      </trkpt>
      <trkpt lat="38.318218" lon="-1.672710">
        <ele>322.9</ele>
        <time>2023-03-26T07:27:47Z</time>
      </trkpt>
      <trkpt lat="38.318171" lon="-1.672649">
        <ele>321.9</ele>
        <time>2023-03-26T07:27:52Z</time>
      </trkpt>
      <trkpt lat="38.318117" lon="-1.672603">
        <ele>320.9</ele>
        <time>2023-03-26T07:27:56Z</time>
      </trkpt>
      <trkpt lat="38.318064" lon="-1.672556">
        <ele>319.9</ele>
        <time>2023-03-26T07:28:01Z</time>
      </trkpt>
      <trkpt lat="38.318037" lon="-1.672483">
        <ele>319.9</ele>
        <time>2023-03-26T07:28:09Z</time>
      </trkpt>
      <trkpt lat="38.317980" lon="-1.672439">
        <ele>318.9</ele>
        <time>2023-03-26T07:28:14Z</time>
      </trkpt>
      <trkpt lat="38.317920" lon="-1.672401">
        <ele>317.0</ele>
        <time>2023-03-26T07:28:20Z</time>
      </trkpt>
      <trkpt lat="38.317923" lon="-1.672317">
        <ele>316.9</ele>
        <time>2023-03-26T07:28:30Z</time>
      </trkpt>
      <trkpt lat="38.317869" lon="-1.672264">
        <ele>317.9</ele>
        <time>2023-03-26T07:28:34Z</time>
      </trkpt>
      <trkpt lat="38.317802" lon="-1.672225">
        <ele>317.9</ele>
        <time>2023-03-26T07:28:38Z</time>
      </trkpt>
      <trkpt lat="38.317743" lon="-1.672187">
        <ele>317.9</ele>
        <time>2023-03-26T07:28:42Z</time>
      </trkpt>
      <trkpt lat="38.317687" lon="-1.672136">
        <ele>317.9</ele>
        <time>2023-03-26T07:28:46Z</time>
      </trkpt>
      <trkpt lat="38.317637" lon="-1.672084">
        <ele>318.6</ele>
        <time>2023-03-26T07:28:51Z</time>
      </trkpt>
      <trkpt lat="38.317590" lon="-1.672022">
        <ele>318.9</ele>
        <time>2023-03-26T07:28:56Z</time>
      </trkpt>
      <trkpt lat="38.317536" lon="-1.671972">
        <ele>317.9</ele>
        <time>2023-03-26T07:29:01Z</time>
      </trkpt>
      <trkpt lat="38.317474" lon="-1.671943">
        <ele>316.9</ele>
        <time>2023-03-26T07:29:06Z</time>
      </trkpt>
      <trkpt lat="38.317418" lon="-1.671895">
        <ele>316.9</ele>
        <time>2023-03-26T07:29:10Z</time>
      </trkpt>
      <trkpt lat="38.317357" lon="-1.671838">
        <ele>315.9</ele>
        <time>2023-03-26T07:29:16Z</time>
      </trkpt>
      <trkpt lat="38.317302" lon="-1.671796">
        <ele>315.9</ele>
        <time>2023-03-26T07:29:21Z</time>
      </trkpt>
      <trkpt lat="38.317243" lon="-1.671749">
        <ele>315.9</ele>
        <time>2023-03-26T07:29:26Z</time>
      </trkpt>
      <trkpt lat="38.317181" lon="-1.671705">
        <ele>317.9</ele>
        <time>2023-03-26T07:29:30Z</time>
      </trkpt>
      <trkpt lat="38.317121" lon="-1.671679">
        <ele>317.9</ele>
        <time>2023-03-26T07:29:35Z</time>
      </trkpt>
      <trkpt lat="38.317052" lon="-1.671656">
        <ele>318.9</ele>
        <time>2023-03-26T07:29:40Z</time>
      </trkpt>
      <trkpt lat="38.316990" lon="-1.671624">
        <ele>317.9</ele>
        <time>2023-03-26T07:29:45Z</time>
      </trkpt>
      <trkpt lat="38.316931" lon="-1.671572">
        <ele>316.9</ele>
        <time>2023-03-26T07:29:50Z</time>
      </trkpt>
      <trkpt lat="38.316885" lon="-1.671516">
        <ele>316.9</ele>
        <time>2023-03-26T07:29:54Z</time>
      </trkpt>
      <trkpt lat="38.316828" lon="-1.671466">
        <ele>316.9</ele>
        <time>2023-03-26T07:29:59Z</time>
      </trkpt>
      <trkpt lat="38.316768" lon="-1.671439">
        <ele>318.9</ele>
        <time>2023-03-26T07:30:04Z</time>
      </trkpt>
      <trkpt lat="38.316706" lon="-1.671404">
        <ele>319.1</ele>
        <time>2023-03-26T07:30:09Z</time>
      </trkpt>
      <trkpt lat="38.316645" lon="-1.671362">
        <ele>317.9</ele>
        <time>2023-03-26T07:30:14Z</time>
      </trkpt>
      <trkpt lat="38.316589" lon="-1.671311">
        <ele>316.9</ele>
        <time>2023-03-26T07:30:19Z</time>
      </trkpt>
      <trkpt lat="38.316539" lon="-1.671260">
        <ele>316.9</ele>
        <time>2023-03-26T07:30:23Z</time>
      </trkpt>
      <trkpt lat="38.316502" lon="-1.671192">
        <ele>316.9</ele>
        <time>2023-03-26T07:30:28Z</time>
      </trkpt>
      <trkpt lat="38.316460" lon="-1.671130">
        <ele>315.9</ele>
        <time>2023-03-26T07:30:34Z</time>
      </trkpt>
      <trkpt lat="38.316406" lon="-1.671074">
        <ele>315.9</ele>
        <time>2023-03-26T07:30:40Z</time>
      </trkpt>
      <trkpt lat="38.316354" lon="-1.671008">
        <ele>315.9</ele>
        <time>2023-03-26T07:30:46Z</time>
      </trkpt>
      <trkpt lat="38.316304" lon="-1.670944">
        <ele>317.9</ele>
        <time>2023-03-26T07:30:51Z</time>
      </trkpt>
      <trkpt lat="38.316276" lon="-1.670871">
        <ele>317.9</ele>
        <time>2023-03-26T07:30:57Z</time>
      </trkpt>
      <trkpt lat="38.316226" lon="-1.670809">
        <ele>317.9</ele>
        <time>2023-03-26T07:31:02Z</time>
      </trkpt>
      <trkpt lat="38.316180" lon="-1.670754">
        <ele>318.9</ele>
        <time>2023-03-26T07:31:06Z</time>
      </trkpt>
      <trkpt lat="38.316127" lon="-1.670703">
        <ele>318.9</ele>
        <time>2023-03-26T07:31:11Z</time>
      </trkpt>
      <trkpt lat="38.316090" lon="-1.670632">
        <ele>319.7</ele>
        <time>2023-03-26T07:31:17Z</time>
      </trkpt>
      <trkpt lat="38.316037" lon="-1.670576">
        <ele>318.9</ele>
        <time>2023-03-26T07:31:21Z</time>
      </trkpt>
      <trkpt lat="38.315977" lon="-1.670531">
        <ele>319.9</ele>
        <time>2023-03-26T07:31:26Z</time>
      </trkpt>
      <trkpt lat="38.315926" lon="-1.670478">
        <ele>320.9</ele>
        <time>2023-03-26T07:31:32Z</time>
      </trkpt>
      <trkpt lat="38.315888" lon="-1.670410">
        <ele>320.9</ele>
        <time>2023-03-26T07:31:37Z</time>
      </trkpt>
      <trkpt lat="38.315834" lon="-1.670362">
        <ele>320.9</ele>
        <time>2023-03-26T07:31:42Z</time>
      </trkpt>
      <trkpt lat="38.315771" lon="-1.670323">
        <ele>320.7</ele>
        <time>2023-03-26T07:31:46Z</time>
      </trkpt>
      <trkpt lat="38.315715" lon="-1.670285">
        <ele>320.9</ele>
        <time>2023-03-26T07:31:51Z</time>
      </trkpt>
      <trkpt lat="38.315646" lon="-1.670260">
        <ele>319.9</ele>
        <time>2023-03-26T07:31:56Z</time>
      </trkpt>
      <trkpt lat="38.315580" lon="-1.670250">
        <ele>320.9</ele>
        <time>2023-03-26T07:32:01Z</time>
      </trkpt>
      <trkpt lat="38.315508" lon="-1.670244">
        <ele>321.7</ele>
        <time>2023-03-26T07:32:08Z</time>
      </trkpt>
      <trkpt lat="38.315444" lon="-1.670243">
        <ele>322.9</ele>
        <time>2023-03-26T07:32:13Z</time>
      </trkpt>
      <trkpt lat="38.315380" lon="-1.670252">
        <ele>322.9</ele>
        <time>2023-03-26T07:32:17Z</time>
      </trkpt>
      <trkpt lat="38.315311" lon="-1.670251">
        <ele>321.9</ele>
        <time>2023-03-26T07:32:22Z</time>
      </trkpt>
      <trkpt lat="38.315244" lon="-1.670276">
        <ele>321.9</ele>
        <time>2023-03-26T07:32:28Z</time>
      </trkpt>
      <trkpt lat="38.315183" lon="-1.670304">
        <ele>320.0</ele>
        <time>2023-03-26T07:32:33Z</time>
      </trkpt>
      <trkpt lat="38.315124" lon="-1.670341">
        <ele>318.9</ele>
        <time>2023-03-26T07:32:36Z</time>
      </trkpt>
      <trkpt lat="38.315065" lon="-1.670392">
        <ele>316.9</ele>
        <time>2023-03-26T07:32:40Z</time>
      </trkpt>
      <trkpt lat="38.315012" lon="-1.670440">
        <ele>316.9</ele>
        <time>2023-03-26T07:32:44Z</time>
      </trkpt>
      <trkpt lat="38.314955" lon="-1.670482">
        <ele>316.7</ele>
        <time>2023-03-26T07:32:50Z</time>
      </trkpt>
      <trkpt lat="38.314892" lon="-1.670518">
        <ele>316.9</ele>
        <time>2023-03-26T07:32:56Z</time>
      </trkpt>
      <trkpt lat="38.314826" lon="-1.670549">
        <ele>316.9</ele>
        <time>2023-03-26T07:33:02Z</time>
      </trkpt>
      <trkpt lat="38.314767" lon="-1.670585">
        <ele>314.9</ele>
        <time>2023-03-26T07:33:08Z</time>
      </trkpt>
      <trkpt lat="38.314706" lon="-1.670617">
        <ele>314.9</ele>
        <time>2023-03-26T07:33:16Z</time>
      </trkpt>
      <trkpt lat="38.314656" lon="-1.670675">
        <ele>316.9</ele>
        <time>2023-03-26T07:33:30Z</time>
      </trkpt>
      <trkpt lat="38.314588" lon="-1.670697">
        <ele>317.9</ele>
        <time>2023-03-26T07:33:34Z</time>
      </trkpt>
      <trkpt lat="38.314552" lon="-1.670629">
        <ele>316.9</ele>
        <time>2023-03-26T07:33:37Z</time>
      </trkpt>
      <trkpt lat="38.314513" lon="-1.670559">
        <ele>315.9</ele>
        <time>2023-03-26T07:33:41Z</time>
      </trkpt>
      <trkpt lat="38.314445" lon="-1.670533">
        <ele>315.9</ele>
        <time>2023-03-26T07:33:46Z</time>
      </trkpt>
      <trkpt lat="38.314383" lon="-1.670493">
        <ele>316.0</ele>
        <time>2023-03-26T07:33:51Z</time>
      </trkpt>
      <trkpt lat="38.314333" lon="-1.670439">
        <ele>316.9</ele>
        <time>2023-03-26T07:33:56Z</time>
      </trkpt>
      <trkpt lat="38.314285" lon="-1.670386">
        <ele>315.9</ele>
        <time>2023-03-26T07:34:01Z</time>
      </trkpt>
      <trkpt lat="38.314235" lon="-1.670327">
        <ele>315.0</ele>
        <time>2023-03-26T07:34:07Z</time>
      </trkpt>
      <trkpt lat="38.314194" lon="-1.670263">
        <ele>313.9</ele>
        <time>2023-03-26T07:34:13Z</time>
      </trkpt>
      <trkpt lat="38.314187" lon="-1.670180">
        <ele>311.9</ele>
        <time>2023-03-26T07:34:24Z</time>
      </trkpt>
      <trkpt lat="38.314180" lon="-1.670098">
        <ele>310.9</ele>
        <time>2023-03-26T07:34:29Z</time>
      </trkpt>
      <trkpt lat="38.314225" lon="-1.670039">
        <ele>308.0</ele>
        <time>2023-03-26T07:34:39Z</time>
      </trkpt>
      <trkpt lat="38.314278" lon="-1.670036">
        <ele>306.9</ele>
        <time>2023-03-26T07:34:44Z</time>
      </trkpt>
      <trkpt lat="38.314310" lon="-1.670020">
        <ele>308.9</ele>
        <time>2023-03-26T07:34:55Z</time>
      </trkpt>
      <trkpt lat="38.314337" lon="-1.670004">
        <ele>307.9</ele>
        <time>2023-03-26T07:35:26Z</time>
      </trkpt>
      <trkpt lat="38.314357" lon="-1.669985">
        <ele>308.9</ele>
        <time>2023-03-26T07:35:32Z</time>
      </trkpt>
      <trkpt lat="38.314407" lon="-1.669934">
        <ele>308.9</ele>
        <time>2023-03-26T07:35:37Z</time>
      </trkpt>
      <trkpt lat="38.314466" lon="-1.669881">
        <ele>308.9</ele>
        <time>2023-03-26T07:35:40Z</time>
      </trkpt>
      <trkpt lat="38.314511" lon="-1.669824">
        <ele>308.9</ele>
        <time>2023-03-26T07:35:45Z</time>
      </trkpt>
      <trkpt lat="38.314560" lon="-1.669774">
        <ele>308.9</ele>
        <time>2023-03-26T07:35:49Z</time>
      </trkpt>
      <trkpt lat="38.314605" lon="-1.669707">
        <ele>309.9</ele>
        <time>2023-03-26T07:35:55Z</time>
      </trkpt>
      <trkpt lat="38.314646" lon="-1.669636">
        <ele>309.0</ele>
        <time>2023-03-26T07:35:59Z</time>
      </trkpt>
      <trkpt lat="38.314696" lon="-1.669564">
        <ele>309.9</ele>
        <time>2023-03-26T07:36:05Z</time>
      </trkpt>
      <trkpt lat="38.314722" lon="-1.669490">
        <ele>310.9</ele>
        <time>2023-03-26T07:36:13Z</time>
      </trkpt>
      <trkpt lat="38.314776" lon="-1.669447">
        <ele>310.9</ele>
        <time>2023-03-26T07:36:27Z</time>
      </trkpt>
      <trkpt lat="38.314842" lon="-1.669434">
        <ele>310.9</ele>
        <time>2023-03-26T07:36:37Z</time>
      </trkpt>
      <trkpt lat="38.314882" lon="-1.669409">
        <ele>310.9</ele>
        <time>2023-03-26T07:36:42Z</time>
      </trkpt>
      <trkpt lat="38.314900" lon="-1.669333">
        <ele>312.0</ele>
        <time>2023-03-26T07:37:19Z</time>
      </trkpt>
      <trkpt lat="38.314932" lon="-1.669326">
        <ele>314.9</ele>
        <time>2023-03-26T07:39:23Z</time>
      </trkpt>
      <trkpt lat="38.314928" lon="-1.669406">
        <ele>314.1</ele>
        <time>2023-03-26T07:39:30Z</time>
      </trkpt>
      <trkpt lat="38.314878" lon="-1.669460">
        <ele>310.9</ele>
        <time>2023-03-26T07:39:56Z</time>
      </trkpt>
      <trkpt lat="38.314816" lon="-1.669494">
        <ele>311.0</ele>
        <time>2023-03-26T07:40:02Z</time>
      </trkpt>
      <trkpt lat="38.314765" lon="-1.669543">
        <ele>309.9</ele>
        <time>2023-03-26T07:40:10Z</time>
      </trkpt>
      <trkpt lat="38.314730" lon="-1.669619">
        <ele>309.9</ele>
        <time>2023-03-26T07:40:15Z</time>
      </trkpt>
      <trkpt lat="38.314677" lon="-1.669679">
        <ele>309.9</ele>
        <time>2023-03-26T07:40:20Z</time>
      </trkpt>
      <trkpt lat="38.314639" lon="-1.669749">
        <ele>309.9</ele>
        <time>2023-03-26T07:40:26Z</time>
      </trkpt>
      <trkpt lat="38.314596" lon="-1.669810">
        <ele>310.9</ele>
        <time>2023-03-26T07:40:32Z</time>
      </trkpt>
      <trkpt lat="38.314548" lon="-1.669873">
        <ele>309.2</ele>
        <time>2023-03-26T07:40:39Z</time>
      </trkpt>
      <trkpt lat="38.314492" lon="-1.669924">
        <ele>310.7</ele>
        <time>2023-03-26T07:40:50Z</time>
      </trkpt>
      <trkpt lat="38.314426" lon="-1.669949">
        <ele>312.9</ele>
        <time>2023-03-26T07:41:03Z</time>
      </trkpt>
      <trkpt lat="38.314381" lon="-1.670003">
        <ele>312.9</ele>
        <time>2023-03-26T07:41:08Z</time>
      </trkpt>
      <trkpt lat="38.314320" lon="-1.670049">
        <ele>314.7</ele>
        <time>2023-03-26T07:41:13Z</time>
      </trkpt>
      <trkpt lat="38.314259" lon="-1.670097">
        <ele>313.9</ele>
        <time>2023-03-26T07:41:19Z</time>
      </trkpt>
      <trkpt lat="38.314217" lon="-1.670168">
        <ele>313.9</ele>
        <time>2023-03-26T07:41:26Z</time>
      </trkpt>
      <trkpt lat="38.314226" lon="-1.670253">
        <ele>309.9</ele>
        <time>2023-03-26T07:41:35Z</time>
      </trkpt>
      <trkpt lat="38.314194" lon="-1.670324">
        <ele>309.9</ele>
        <time>2023-03-26T07:42:20Z</time>
      </trkpt>
      <trkpt lat="38.314134" lon="-1.670290">
        <ele>309.9</ele>
        <time>2023-03-26T07:42:26Z</time>
      </trkpt>
      <trkpt lat="38.314070" lon="-1.670276">
        <ele>312.0</ele>
        <time>2023-03-26T07:43:24Z</time>
      </trkpt>
      <trkpt lat="38.314044" lon="-1.670350">
        <ele>313.9</ele>
        <time>2023-03-26T07:44:03Z</time>
      </trkpt>
      <trkpt lat="38.314012" lon="-1.670421">
        <ele>312.9</ele>
        <time>2023-03-26T07:44:15Z</time>
      </trkpt>
      <trkpt lat="38.313971" lon="-1.670483">
        <ele>311.9</ele>
        <time>2023-03-26T07:44:23Z</time>
      </trkpt>
      <trkpt lat="38.313970" lon="-1.670564">
        <ele>312.0</ele>
        <time>2023-03-26T07:44:31Z</time>
      </trkpt>
      <trkpt lat="38.313948" lon="-1.670642">
        <ele>311.9</ele>
        <time>2023-03-26T07:44:38Z</time>
      </trkpt>
      <trkpt lat="38.313954" lon="-1.670737">
        <ele>311.9</ele>
        <time>2023-03-26T07:44:52Z</time>
      </trkpt>
      <trkpt lat="38.313968" lon="-1.670824">
        <ele>314.9</ele>
        <time>2023-03-26T07:45:12Z</time>
      </trkpt>
      <trkpt lat="38.313953" lon="-1.670906">
        <ele>315.9</ele>
        <time>2023-03-26T07:45:19Z</time>
      </trkpt>
      <trkpt lat="38.313926" lon="-1.670986">
        <ele>317.7</ele>
        <time>2023-03-26T07:45:25Z</time>
      </trkpt>
      <trkpt lat="38.313875" lon="-1.671043">
        <ele>319.9</ele>
        <time>2023-03-26T07:45:50Z</time>
      </trkpt>
      <trkpt lat="38.313836" lon="-1.671111">
        <ele>321.9</ele>
        <time>2023-03-26T07:46:03Z</time>
      </trkpt>
      <trkpt lat="38.313772" lon="-1.671154">
        <ele>321.9</ele>
        <time>2023-03-26T07:46:06Z</time>
      </trkpt>
      <trkpt lat="38.313719" lon="-1.671226">
        <ele>322.9</ele>
        <time>2023-03-26T07:46:12Z</time>
      </trkpt>
      <trkpt lat="38.313682" lon="-1.671292">
        <ele>322.9</ele>
        <time>2023-03-26T07:46:17Z</time>
      </trkpt>
      <trkpt lat="38.313632" lon="-1.671343">
        <ele>321.9</ele>
        <time>2023-03-26T07:46:23Z</time>
      </trkpt>
      <trkpt lat="38.313603" lon="-1.671424">
        <ele>321.9</ele>
        <time>2023-03-26T07:46:27Z</time>
      </trkpt>
      <trkpt lat="38.313559" lon="-1.671491">
        <ele>322.9</ele>
        <time>2023-03-26T07:46:32Z</time>
      </trkpt>
      <trkpt lat="38.313508" lon="-1.671544">
        <ele>322.9</ele>
        <time>2023-03-26T07:46:37Z</time>
      </trkpt>
      <trkpt lat="38.313457" lon="-1.671600">
        <ele>323.9</ele>
        <time>2023-03-26T07:46:42Z</time>
      </trkpt>
      <trkpt lat="38.313426" lon="-1.671675">
        <ele>324.9</ele>
        <time>2023-03-26T07:46:47Z</time>
      </trkpt>
      <trkpt lat="38.313380" lon="-1.671733">
        <ele>324.0</ele>
        <time>2023-03-26T07:46:54Z</time>
      </trkpt>
      <trkpt lat="38.313350" lon="-1.671809">
        <ele>324.9</ele>
        <time>2023-03-26T07:47:00Z</time>
      </trkpt>
      <trkpt lat="38.313321" lon="-1.671884">
        <ele>323.9</ele>
        <time>2023-03-26T07:47:05Z</time>
      </trkpt>
      <trkpt lat="38.313291" lon="-1.671964">
        <ele>324.9</ele>
        <time>2023-03-26T07:47:11Z</time>
      </trkpt>
      <trkpt lat="38.313251" lon="-1.672033">
        <ele>323.9</ele>
        <time>2023-03-26T07:47:17Z</time>
      </trkpt>
      <trkpt lat="38.313210" lon="-1.672104">
        <ele>323.9</ele>
        <time>2023-03-26T07:47:23Z</time>
      </trkpt>
      <trkpt lat="38.313191" lon="-1.672189">
        <ele>324.9</ele>
        <time>2023-03-26T07:47:28Z</time>
      </trkpt>
      <trkpt lat="38.313170" lon="-1.672268">
        <ele>325.9</ele>
        <time>2023-03-26T07:47:34Z</time>
      </trkpt>
      <trkpt lat="38.313163" lon="-1.672354">
        <ele>326.9</ele>
        <time>2023-03-26T07:47:39Z</time>
      </trkpt>
      <trkpt lat="38.313144" lon="-1.672434">
        <ele>327.9</ele>
        <time>2023-03-26T07:47:43Z</time>
      </trkpt>
      <trkpt lat="38.313127" lon="-1.672511">
        <ele>328.9</ele>
        <time>2023-03-26T07:47:48Z</time>
      </trkpt>
      <trkpt lat="38.313112" lon="-1.672597">
        <ele>332.6</ele>
        <time>2023-03-26T07:47:53Z</time>
      </trkpt>
      <trkpt lat="38.313083" lon="-1.672674">
        <ele>331.9</ele>
        <time>2023-03-26T07:47:57Z</time>
      </trkpt>
      <trkpt lat="38.313051" lon="-1.672749">
        <ele>332.9</ele>
        <time>2023-03-26T07:48:02Z</time>
      </trkpt>
      <trkpt lat="38.313009" lon="-1.672822">
        <ele>333.9</ele>
        <time>2023-03-26T07:48:06Z</time>
      </trkpt>
      <trkpt lat="38.312947" lon="-1.672842">
        <ele>333.9</ele>
        <time>2023-03-26T07:48:11Z</time>
      </trkpt>
      <trkpt lat="38.312881" lon="-1.672810">
        <ele>334.9</ele>
        <time>2023-03-26T07:48:16Z</time>
      </trkpt>
      <trkpt lat="38.312822" lon="-1.672769">
        <ele>334.9</ele>
        <time>2023-03-26T07:48:20Z</time>
      </trkpt>
      <trkpt lat="38.312753" lon="-1.672764">
        <ele>335.2</ele>
        <time>2023-03-26T07:48:25Z</time>
      </trkpt>
      <trkpt lat="38.312689" lon="-1.672772">
        <ele>335.9</ele>
        <time>2023-03-26T07:48:30Z</time>
      </trkpt>
      <trkpt lat="38.312620" lon="-1.672754">
        <ele>336.9</ele>
        <time>2023-03-26T07:48:35Z</time>
      </trkpt>
      <trkpt lat="38.312566" lon="-1.672702">
        <ele>338.9</ele>
        <time>2023-03-26T07:48:40Z</time>
      </trkpt>
      <trkpt lat="38.312527" lon="-1.672633">
        <ele>338.9</ele>
        <time>2023-03-26T07:48:45Z</time>
      </trkpt>
      <trkpt lat="38.312496" lon="-1.672556">
        <ele>339.7</ele>
        <time>2023-03-26T07:48:49Z</time>
      </trkpt>
      <trkpt lat="38.312471" lon="-1.672475">
        <ele>339.2</ele>
        <time>2023-03-26T07:48:54Z</time>
      </trkpt>
      <trkpt lat="38.312449" lon="-1.672391">
        <ele>337.9</ele>
        <time>2023-03-26T07:48:59Z</time>
      </trkpt>
      <trkpt lat="38.312417" lon="-1.672323">
        <ele>339.9</ele>
        <time>2023-03-26T07:49:05Z</time>
      </trkpt>
      <trkpt lat="38.312363" lon="-1.672271">
        <ele>339.9</ele>
        <time>2023-03-26T07:49:11Z</time>
      </trkpt>
      <trkpt lat="38.312300" lon="-1.672255">
        <ele>342.9</ele>
        <time>2023-03-26T07:49:17Z</time>
      </trkpt>
      <trkpt lat="38.312300" lon="-1.672265">
        <ele>340.9</ele>
        <time>2023-03-26T07:51:28Z</time>
      </trkpt>
      <trkpt lat="38.312232" lon="-1.672266">
        <ele>341.9</ele>
        <time>2023-03-26T07:51:56Z</time>
      </trkpt>
      <trkpt lat="38.312165" lon="-1.672260">
        <ele>341.9</ele>
        <time>2023-03-26T07:52:01Z</time>
      </trkpt>
      <trkpt lat="38.312100" lon="-1.672276">
        <ele>341.2</ele>
        <time>2023-03-26T07:52:07Z</time>
      </trkpt>
      <trkpt lat="38.312034" lon="-1.672278">
        <ele>340.2</ele>
        <time>2023-03-26T07:52:13Z</time>
      </trkpt>
      <trkpt lat="38.311966" lon="-1.672301">
        <ele>341.7</ele>
        <time>2023-03-26T07:52:33Z</time>
      </trkpt>
      <trkpt lat="38.311896" lon="-1.672303">
        <ele>343.9</ele>
        <time>2023-03-26T07:52:37Z</time>
      </trkpt>
      <trkpt lat="38.311833" lon="-1.672309">
        <ele>343.9</ele>
        <time>2023-03-26T07:52:42Z</time>
      </trkpt>
      <trkpt lat="38.311767" lon="-1.672331">
        <ele>344.9</ele>
        <time>2023-03-26T07:52:48Z</time>
      </trkpt>
      <trkpt lat="38.311703" lon="-1.672347">
        <ele>345.9</ele>
        <time>2023-03-26T07:52:53Z</time>
      </trkpt>
      <trkpt lat="38.311638" lon="-1.672336">
        <ele>345.9</ele>
        <time>2023-03-26T07:52:58Z</time>
      </trkpt>
      <trkpt lat="38.311579" lon="-1.672302">
        <ele>345.9</ele>
        <time>2023-03-26T07:53:03Z</time>
      </trkpt>
      <trkpt lat="38.311520" lon="-1.672266">
        <ele>347.9</ele>
        <time>2023-03-26T07:53:07Z</time>
      </trkpt>
      <trkpt lat="38.311462" lon="-1.672231">
        <ele>345.9</ele>
        <time>2023-03-26T07:53:11Z</time>
      </trkpt>
      <trkpt lat="38.311417" lon="-1.672172">
        <ele>345.9</ele>
        <time>2023-03-26T07:53:16Z</time>
      </trkpt>
      <trkpt lat="38.311379" lon="-1.672102">
        <ele>346.0</ele>
        <time>2023-03-26T07:53:21Z</time>
      </trkpt>
      <trkpt lat="38.311343" lon="-1.672025">
        <ele>345.9</ele>
        <time>2023-03-26T07:53:27Z</time>
      </trkpt>
      <trkpt lat="38.311302" lon="-1.671958">
        <ele>344.9</ele>
        <time>2023-03-26T07:53:32Z</time>
      </trkpt>
      <trkpt lat="38.311276" lon="-1.671877">
        <ele>342.2</ele>
        <time>2023-03-26T07:53:39Z</time>
      </trkpt>
      <trkpt lat="38.311231" lon="-1.671798">
        <ele>343.9</ele>
        <time>2023-03-26T07:53:45Z</time>
      </trkpt>
      <trkpt lat="38.311210" lon="-1.671720">
        <ele>342.0</ele>
        <time>2023-03-26T07:53:50Z</time>
      </trkpt>
      <trkpt lat="38.311206" lon="-1.671636">
        <ele>340.9</ele>
        <time>2023-03-26T07:53:56Z</time>
      </trkpt>
      <trkpt lat="38.311190" lon="-1.671553">
        <ele>338.1</ele>
        <time>2023-03-26T07:54:02Z</time>
      </trkpt>
      <trkpt lat="38.311162" lon="-1.671480">
        <ele>336.9</ele>
        <time>2023-03-26T07:54:06Z</time>
      </trkpt>
      <trkpt lat="38.311128" lon="-1.671411">
        <ele>334.9</ele>
        <time>2023-03-26T07:54:11Z</time>
      </trkpt>
      <trkpt lat="38.311094" lon="-1.671326">
        <ele>334.9</ele>
        <time>2023-03-26T07:54:15Z</time>
      </trkpt>
      <trkpt lat="38.311065" lon="-1.671254">
        <ele>333.9</ele>
        <time>2023-03-26T07:54:20Z</time>
      </trkpt>
      <trkpt lat="38.311039" lon="-1.671176">
        <ele>332.9</ele>
        <time>2023-03-26T07:54:24Z</time>
      </trkpt>
      <trkpt lat="38.311004" lon="-1.671099">
        <ele>332.9</ele>
        <time>2023-03-26T07:54:29Z</time>
      </trkpt>
      <trkpt lat="38.310979" lon="-1.671022">
        <ele>331.9</ele>
        <time>2023-03-26T07:54:33Z</time>
      </trkpt>
      <trkpt lat="38.310946" lon="-1.670945">
        <ele>331.9</ele>
        <time>2023-03-26T07:54:38Z</time>
      </trkpt>
      <trkpt lat="38.310898" lon="-1.670891">
        <ele>331.9</ele>
        <time>2023-03-26T07:54:43Z</time>
      </trkpt>
      <trkpt lat="38.310833" lon="-1.670851">
        <ele>331.2</ele>
        <time>2023-03-26T07:54:48Z</time>
      </trkpt>
      <trkpt lat="38.310771" lon="-1.670818">
        <ele>331.9</ele>
        <time>2023-03-26T07:54:52Z</time>
      </trkpt>
      <trkpt lat="38.310705" lon="-1.670816">
        <ele>330.0</ele>
        <time>2023-03-26T07:54:57Z</time>
      </trkpt>
      <trkpt lat="38.310638" lon="-1.670810">
        <ele>329.9</ele>
        <time>2023-03-26T07:55:02Z</time>
      </trkpt>
      <trkpt lat="38.310571" lon="-1.670796">
        <ele>329.9</ele>
        <time>2023-03-26T07:55:07Z</time>
      </trkpt>
      <trkpt lat="38.310502" lon="-1.670800">
        <ele>328.9</ele>
        <time>2023-03-26T07:55:12Z</time>
      </trkpt>
      <trkpt lat="38.310435" lon="-1.670783">
        <ele>327.2</ele>
        <time>2023-03-26T07:55:17Z</time>
      </trkpt>
      <trkpt lat="38.310374" lon="-1.670756">
        <ele>326.1</ele>
        <time>2023-03-26T07:55:22Z</time>
      </trkpt>
      <trkpt lat="38.310314" lon="-1.670713">
        <ele>325.9</ele>
        <time>2023-03-26T07:55:27Z</time>
      </trkpt>
      <trkpt lat="38.310244" lon="-1.670702">
        <ele>325.0</ele>
        <time>2023-03-26T07:55:32Z</time>
      </trkpt>
      <trkpt lat="38.310182" lon="-1.670667">
        <ele>324.9</ele>
        <time>2023-03-26T07:55:38Z</time>
      </trkpt>
      <trkpt lat="38.310129" lon="-1.670615">
        <ele>323.2</ele>
        <time>2023-03-26T07:55:44Z</time>
      </trkpt>
      <trkpt lat="38.310084" lon="-1.670555">
        <ele>323.9</ele>
        <time>2023-03-26T07:55:48Z</time>
      </trkpt>
      <trkpt lat="38.310039" lon="-1.670497">
        <ele>323.0</ele>
        <time>2023-03-26T07:55:52Z</time>
      </trkpt>
      <trkpt lat="38.309994" lon="-1.670429">
        <ele>322.9</ele>
        <time>2023-03-26T07:55:57Z</time>
      </trkpt>
      <trkpt lat="38.309952" lon="-1.670367">
        <ele>322.2</ele>
        <time>2023-03-26T07:56:02Z</time>
      </trkpt>
      <trkpt lat="38.309921" lon="-1.670353">
        <ele>322.9</ele>
        <time>2023-03-26T07:56:10Z</time>
      </trkpt>
      <trkpt lat="38.309903" lon="-1.670359">
        <ele>322.2</ele>
        <time>2023-03-26T07:56:15Z</time>
      </trkpt>
      <trkpt lat="38.309877" lon="-1.670359">
        <ele>322.0</ele>
        <time>2023-03-26T07:56:54Z</time>
      </trkpt>
      <trkpt lat="38.309828" lon="-1.670349">
        <ele>321.2</ele>
        <time>2023-03-26T07:57:00Z</time>
      </trkpt>
      <trkpt lat="38.309767" lon="-1.670369">
        <ele>319.2</ele>
        <time>2023-03-26T07:57:06Z</time>
      </trkpt>
      <trkpt lat="38.309728" lon="-1.670440">
        <ele>316.9</ele>
        <time>2023-03-26T07:57:11Z</time>
      </trkpt>
      <trkpt lat="38.309692" lon="-1.670508">
        <ele>316.9</ele>
        <time>2023-03-26T07:57:18Z</time>
      </trkpt>
      <trkpt lat="38.309646" lon="-1.670580">
        <ele>315.9</ele>
        <time>2023-03-26T07:57:23Z</time>
      </trkpt>
      <trkpt lat="38.309603" lon="-1.670641">
        <ele>315.9</ele>
        <time>2023-03-26T07:57:28Z</time>
      </trkpt>
      <trkpt lat="38.309538" lon="-1.670667">
        <ele>316.2</ele>
        <time>2023-03-26T07:57:51Z</time>
      </trkpt>
      <trkpt lat="38.309477" lon="-1.670695">
        <ele>315.0</ele>
        <time>2023-03-26T07:57:55Z</time>
      </trkpt>
      <trkpt lat="38.309412" lon="-1.670726">
        <ele>313.9</ele>
        <time>2023-03-26T07:58:01Z</time>
      </trkpt>
      <trkpt lat="38.309352" lon="-1.670752">
        <ele>314.9</ele>
        <time>2023-03-26T07:58:06Z</time>
      </trkpt>
      <trkpt lat="38.309283" lon="-1.670773">
        <ele>313.9</ele>
        <time>2023-03-26T07:58:11Z</time>
      </trkpt>
      <trkpt lat="38.309212" lon="-1.670800">
        <ele>312.0</ele>
        <time>2023-03-26T07:58:16Z</time>
      </trkpt>
      <trkpt lat="38.309148" lon="-1.670827">
        <ele>312.2</ele>
        <time>2023-03-26T07:58:21Z</time>
      </trkpt>
      <trkpt lat="38.309089" lon="-1.670858">
        <ele>311.9</ele>
        <time>2023-03-26T07:58:25Z</time>
      </trkpt>
      <trkpt lat="38.309035" lon="-1.670899">
        <ele>311.9</ele>
        <time>2023-03-26T07:58:29Z</time>
      </trkpt>
      <trkpt lat="38.308970" lon="-1.670939">
        <ele>310.9</ele>
        <time>2023-03-26T07:58:33Z</time>
      </trkpt>
      <trkpt lat="38.308913" lon="-1.670981">
        <ele>311.9</ele>
        <time>2023-03-26T07:58:37Z</time>
      </trkpt>
      <trkpt lat="38.308852" lon="-1.671013">
        <ele>312.9</ele>
        <time>2023-03-26T07:58:42Z</time>
      </trkpt>
      <trkpt lat="38.308786" lon="-1.671043">
        <ele>313.9</ele>
        <time>2023-03-26T07:58:46Z</time>
      </trkpt>
      <trkpt lat="38.308729" lon="-1.671087">
        <ele>312.9</ele>
        <time>2023-03-26T07:58:51Z</time>
      </trkpt>
      <trkpt lat="38.308675" lon="-1.671146">
        <ele>312.9</ele>
        <time>2023-03-26T07:58:55Z</time>
      </trkpt>
      <trkpt lat="38.308644" lon="-1.671215">
        <ele>312.7</ele>
        <time>2023-03-26T07:59:00Z</time>
      </trkpt>
      <trkpt lat="38.308620" lon="-1.671298">
        <ele>311.9</ele>
        <time>2023-03-26T07:59:04Z</time>
      </trkpt>
      <trkpt lat="38.308605" lon="-1.671377">
        <ele>312.7</ele>
        <time>2023-03-26T07:59:09Z</time>
      </trkpt>
      <trkpt lat="38.308600" lon="-1.671465">
        <ele>313.9</ele>
        <time>2023-03-26T07:59:12Z</time>
      </trkpt>
      <trkpt lat="38.308600" lon="-1.671553">
        <ele>314.9</ele>
        <time>2023-03-26T07:59:16Z</time>
      </trkpt>
      <trkpt lat="38.308595" lon="-1.671636">
        <ele>315.2</ele>
        <time>2023-03-26T07:59:21Z</time>
      </trkpt>
      <trkpt lat="38.308563" lon="-1.671708">
        <ele>315.9</ele>
        <time>2023-03-26T07:59:25Z</time>
      </trkpt>
      <trkpt lat="38.308512" lon="-1.671758">
        <ele>314.9</ele>
        <time>2023-03-26T07:59:30Z</time>
      </trkpt>
      <trkpt lat="38.308451" lon="-1.671781">
        <ele>314.9</ele>
        <time>2023-03-26T07:59:34Z</time>
      </trkpt>
      <trkpt lat="38.308388" lon="-1.671805">
        <ele>315.9</ele>
        <time>2023-03-26T07:59:39Z</time>
      </trkpt>
      <trkpt lat="38.308317" lon="-1.671820">
        <ele>315.9</ele>
        <time>2023-03-26T08:00:20Z</time>
      </trkpt>
      <trkpt lat="38.308253" lon="-1.671827">
        <ele>316.9</ele>
        <time>2023-03-26T08:00:59Z</time>
      </trkpt>
      <trkpt lat="38.308192" lon="-1.671852">
        <ele>316.9</ele>
        <time>2023-03-26T08:01:04Z</time>
      </trkpt>
      <trkpt lat="38.308121" lon="-1.671859">
        <ele>315.9</ele>
        <time>2023-03-26T08:01:10Z</time>
      </trkpt>
      <trkpt lat="38.308046" lon="-1.671861">
        <ele>315.9</ele>
        <time>2023-03-26T08:01:16Z</time>
      </trkpt>
      <trkpt lat="38.307976" lon="-1.671864">
        <ele>314.9</ele>
        <time>2023-03-26T08:01:20Z</time>
      </trkpt>
      <trkpt lat="38.307908" lon="-1.671877">
        <ele>314.9</ele>
        <time>2023-03-26T08:01:25Z</time>
      </trkpt>
      <trkpt lat="38.307836" lon="-1.671895">
        <ele>313.9</ele>
        <time>2023-03-26T08:01:29Z</time>
      </trkpt>
      <trkpt lat="38.307772" lon="-1.671935">
        <ele>313.0</ele>
        <time>2023-03-26T08:01:34Z</time>
      </trkpt>
      <trkpt lat="38.307710" lon="-1.671975">
        <ele>312.9</ele>
        <time>2023-03-26T08:01:39Z</time>
      </trkpt>
      <trkpt lat="38.307664" lon="-1.672033">
        <ele>313.9</ele>
        <time>2023-03-26T08:01:42Z</time>
      </trkpt>
      <trkpt lat="38.307622" lon="-1.672096">
        <ele>313.0</ele>
        <time>2023-03-26T08:01:47Z</time>
      </trkpt>
      <trkpt lat="38.307574" lon="-1.672164">
        <ele>312.9</ele>
        <time>2023-03-26T08:01:51Z</time>
      </trkpt>
      <trkpt lat="38.307528" lon="-1.672227">
        <ele>314.9</ele>
        <time>2023-03-26T08:01:56Z</time>
      </trkpt>
      <trkpt lat="38.307492" lon="-1.672296">
        <ele>314.9</ele>
        <time>2023-03-26T08:02:00Z</time>
      </trkpt>
      <trkpt lat="38.307451" lon="-1.672366">
        <ele>315.9</ele>
        <time>2023-03-26T08:02:04Z</time>
      </trkpt>
      <trkpt lat="38.307411" lon="-1.672434">
        <ele>314.9</ele>
        <time>2023-03-26T08:02:09Z</time>
      </trkpt>
      <trkpt lat="38.307351" lon="-1.672473">
        <ele>316.9</ele>
        <time>2023-03-26T08:02:14Z</time>
      </trkpt>
      <trkpt lat="38.307289" lon="-1.672490">
        <ele>317.9</ele>
        <time>2023-03-26T08:02:18Z</time>
      </trkpt>
      <trkpt lat="38.307225" lon="-1.672513">
        <ele>317.0</ele>
        <time>2023-03-26T08:02:23Z</time>
      </trkpt>
      <trkpt lat="38.307153" lon="-1.672531">
        <ele>315.9</ele>
        <time>2023-03-26T08:02:28Z</time>
      </trkpt>
      <trkpt lat="38.307082" lon="-1.672535">
        <ele>314.2</ele>
        <time>2023-03-26T08:02:33Z</time>
      </trkpt>
      <trkpt lat="38.307019" lon="-1.672539">
        <ele>313.9</ele>
        <time>2023-03-26T08:02:38Z</time>
      </trkpt>
      <trkpt lat="38.306952" lon="-1.672540">
        <ele>314.9</ele>
        <time>2023-03-26T08:02:42Z</time>
      </trkpt>
      <trkpt lat="38.306887" lon="-1.672537">
        <ele>313.9</ele>
        <time>2023-03-26T08:02:46Z</time>
      </trkpt>
      <trkpt lat="38.306816" lon="-1.672539">
        <ele>314.9</ele>
        <time>2023-03-26T08:02:50Z</time>
      </trkpt>
      <trkpt lat="38.306756" lon="-1.672571">
        <ele>314.0</ele>
        <time>2023-03-26T08:02:54Z</time>
      </trkpt>
      <trkpt lat="38.306696" lon="-1.672595">
        <ele>312.9</ele>
        <time>2023-03-26T08:02:59Z</time>
      </trkpt>
      <trkpt lat="38.306632" lon="-1.672614">
        <ele>312.9</ele>
        <time>2023-03-26T08:03:03Z</time>
      </trkpt>
      <trkpt lat="38.306561" lon="-1.672619">
        <ele>312.9</ele>
        <time>2023-03-26T08:03:08Z</time>
      </trkpt>
      <trkpt lat="38.306490" lon="-1.672633">
        <ele>312.9</ele>
        <time>2023-03-26T08:03:13Z</time>
      </trkpt>
      <trkpt lat="38.306421" lon="-1.672628">
        <ele>313.0</ele>
        <time>2023-03-26T08:03:17Z</time>
      </trkpt>
      <trkpt lat="38.306354" lon="-1.672631">
        <ele>313.9</ele>
        <time>2023-03-26T08:03:22Z</time>
      </trkpt>
      <trkpt lat="38.306286" lon="-1.672618">
        <ele>315.9</ele>
        <time>2023-03-26T08:03:27Z</time>
      </trkpt>
      <trkpt lat="38.306221" lon="-1.672615">
        <ele>317.9</ele>
        <time>2023-03-26T08:03:32Z</time>
      </trkpt>
      <trkpt lat="38.306157" lon="-1.672614">
        <ele>318.9</ele>
        <time>2023-03-26T08:03:36Z</time>
      </trkpt>
      <trkpt lat="38.306087" lon="-1.672625">
        <ele>318.2</ele>
        <time>2023-03-26T08:03:41Z</time>
      </trkpt>
      <trkpt lat="38.306021" lon="-1.672622">
        <ele>317.9</ele>
        <time>2023-03-26T08:03:46Z</time>
      </trkpt>
      <trkpt lat="38.305947" lon="-1.672611">
        <ele>317.2</ele>
        <time>2023-03-26T08:03:51Z</time>
      </trkpt>
      <trkpt lat="38.305887" lon="-1.672580">
        <ele>316.9</ele>
        <time>2023-03-26T08:03:55Z</time>
      </trkpt>
      <trkpt lat="38.305823" lon="-1.672544">
        <ele>317.9</ele>
        <time>2023-03-26T08:03:58Z</time>
      </trkpt>
      <trkpt lat="38.305761" lon="-1.672514">
        <ele>317.9</ele>
        <time>2023-03-26T08:04:03Z</time>
      </trkpt>
      <trkpt lat="38.305701" lon="-1.672487">
        <ele>317.9</ele>
        <time>2023-03-26T08:04:07Z</time>
      </trkpt>
      <trkpt lat="38.305630" lon="-1.672459">
        <ele>318.9</ele>
        <time>2023-03-26T08:04:11Z</time>
      </trkpt>
      <trkpt lat="38.305559" lon="-1.672445">
        <ele>318.9</ele>
        <time>2023-03-26T08:04:16Z</time>
      </trkpt>
      <trkpt lat="38.305495" lon="-1.672434">
        <ele>318.9</ele>
        <time>2023-03-26T08:04:20Z</time>
      </trkpt>
      <trkpt lat="38.305425" lon="-1.672431">
        <ele>318.9</ele>
        <time>2023-03-26T08:04:24Z</time>
      </trkpt>
      <trkpt lat="38.305356" lon="-1.672441">
        <ele>317.9</ele>
        <time>2023-03-26T08:04:29Z</time>
      </trkpt>
      <trkpt lat="38.305293" lon="-1.672446">
        <ele>317.7</ele>
        <time>2023-03-26T08:04:34Z</time>
      </trkpt>
      <trkpt lat="38.305229" lon="-1.672433">
        <ele>317.9</ele>
        <time>2023-03-26T08:04:38Z</time>
      </trkpt>
      <trkpt lat="38.305170" lon="-1.672399">
        <ele>317.2</ele>
        <time>2023-03-26T08:04:43Z</time>
      </trkpt>
      <trkpt lat="38.305103" lon="-1.672373">
        <ele>317.9</ele>
        <time>2023-03-26T08:04:46Z</time>
      </trkpt>
      <trkpt lat="38.305039" lon="-1.672353">
        <ele>317.9</ele>
        <time>2023-03-26T08:04:50Z</time>
      </trkpt>
      <trkpt lat="38.304969" lon="-1.672336">
        <ele>316.9</ele>
        <time>2023-03-26T08:04:55Z</time>
      </trkpt>
      <trkpt lat="38.304901" lon="-1.672333">
        <ele>317.9</ele>
        <time>2023-03-26T08:05:00Z</time>
      </trkpt>
      <trkpt lat="38.304827" lon="-1.672328">
        <ele>317.9</ele>
        <time>2023-03-26T08:05:05Z</time>
      </trkpt>
      <trkpt lat="38.304762" lon="-1.672315">
        <ele>317.9</ele>
        <time>2023-03-26T08:05:10Z</time>
      </trkpt>
      <trkpt lat="38.304694" lon="-1.672307">
        <ele>316.9</ele>
        <time>2023-03-26T08:05:14Z</time>
      </trkpt>
      <trkpt lat="38.304630" lon="-1.672295">
        <ele>315.9</ele>
        <time>2023-03-26T08:05:19Z</time>
      </trkpt>
      <trkpt lat="38.304565" lon="-1.672293">
        <ele>315.2</ele>
        <time>2023-03-26T08:05:24Z</time>
      </trkpt>
      <trkpt lat="38.304500" lon="-1.672284">
        <ele>314.9</ele>
        <time>2023-03-26T08:05:28Z</time>
      </trkpt>
      <trkpt lat="38.304432" lon="-1.672264">
        <ele>313.9</ele>
        <time>2023-03-26T08:05:33Z</time>
      </trkpt>
      <trkpt lat="38.304365" lon="-1.672244">
        <ele>312.9</ele>
        <time>2023-03-26T08:05:38Z</time>
      </trkpt>
      <trkpt lat="38.304300" lon="-1.672226">
        <ele>312.9</ele>
        <time>2023-03-26T08:05:43Z</time>
      </trkpt>
      <trkpt lat="38.304236" lon="-1.672201">
        <ele>311.9</ele>
        <time>2023-03-26T08:05:47Z</time>
      </trkpt>
      <trkpt lat="38.304170" lon="-1.672165">
        <ele>310.9</ele>
        <time>2023-03-26T08:05:52Z</time>
      </trkpt>
      <trkpt lat="38.304105" lon="-1.672154">
        <ele>308.9</ele>
        <time>2023-03-26T08:05:57Z</time>
      </trkpt>
      <trkpt lat="38.304042" lon="-1.672121">
        <ele>307.0</ele>
        <time>2023-03-26T08:06:05Z</time>
      </trkpt>
      <trkpt lat="38.303979" lon="-1.672106">
        <ele>305.9</ele>
        <time>2023-03-26T08:06:11Z</time>
      </trkpt>
      <trkpt lat="38.303910" lon="-1.672091">
        <ele>304.9</ele>
        <time>2023-03-26T08:06:16Z</time>
      </trkpt>
      <trkpt lat="38.303844" lon="-1.672092">
        <ele>305.9</ele>
        <time>2023-03-26T08:06:22Z</time>
      </trkpt>
      <trkpt lat="38.303777" lon="-1.672094">
        <ele>307.9</ele>
        <time>2023-03-26T08:06:27Z</time>
      </trkpt>
      <trkpt lat="38.303710" lon="-1.672091">
        <ele>307.9</ele>
        <time>2023-03-26T08:06:32Z</time>
      </trkpt>
      <trkpt lat="38.303647" lon="-1.672105">
        <ele>308.9</ele>
        <time>2023-03-26T08:06:37Z</time>
      </trkpt>
      <trkpt lat="38.303577" lon="-1.672107">
        <ele>309.9</ele>
        <time>2023-03-26T08:06:42Z</time>
      </trkpt>
      <trkpt lat="38.303513" lon="-1.672122">
        <ele>309.9</ele>
        <time>2023-03-26T08:06:47Z</time>
      </trkpt>
      <trkpt lat="38.303446" lon="-1.672151">
        <ele>310.9</ele>
        <time>2023-03-26T08:06:52Z</time>
      </trkpt>
      <trkpt lat="38.303385" lon="-1.672170">
        <ele>311.9</ele>
        <time>2023-03-26T08:06:57Z</time>
      </trkpt>
      <trkpt lat="38.303320" lon="-1.672189">
        <ele>313.9</ele>
        <time>2023-03-26T08:07:02Z</time>
      </trkpt>
      <trkpt lat="38.303259" lon="-1.672211">
        <ele>313.9</ele>
        <time>2023-03-26T08:07:09Z</time>
      </trkpt>
      <trkpt lat="38.303196" lon="-1.672246">
        <ele>313.9</ele>
        <time>2023-03-26T08:07:14Z</time>
      </trkpt>
      <trkpt lat="38.303131" lon="-1.672285">
        <ele>313.9</ele>
        <time>2023-03-26T08:07:19Z</time>
      </trkpt>
      <trkpt lat="38.303068" lon="-1.672309">
        <ele>314.9</ele>
        <time>2023-03-26T08:07:24Z</time>
      </trkpt>
      <trkpt lat="38.303011" lon="-1.672345">
        <ele>313.9</ele>
        <time>2023-03-26T08:07:30Z</time>
      </trkpt>
      <trkpt lat="38.302949" lon="-1.672385">
        <ele>312.9</ele>
        <time>2023-03-26T08:07:35Z</time>
      </trkpt>
      <trkpt lat="38.302886" lon="-1.672410">
        <ele>313.7</ele>
        <time>2023-03-26T08:07:40Z</time>
      </trkpt>
      <trkpt lat="38.302824" lon="-1.672456">
        <ele>313.9</ele>
        <time>2023-03-26T08:07:45Z</time>
      </trkpt>
      <trkpt lat="38.302758" lon="-1.672483">
        <ele>314.1</ele>
        <time>2023-03-26T08:07:50Z</time>
      </trkpt>
      <trkpt lat="38.302700" lon="-1.672513">
        <ele>312.9</ele>
        <time>2023-03-26T08:07:55Z</time>
      </trkpt>
      <trkpt lat="38.302635" lon="-1.672542">
        <ele>313.7</ele>
        <time>2023-03-26T08:08:00Z</time>
      </trkpt>
      <trkpt lat="38.302570" lon="-1.672567">
        <ele>314.9</ele>
        <time>2023-03-26T08:08:05Z</time>
      </trkpt>
      <trkpt lat="38.302507" lon="-1.672592">
        <ele>313.9</ele>
        <time>2023-03-26T08:08:10Z</time>
      </trkpt>
      <trkpt lat="38.302442" lon="-1.672613">
        <ele>315.9</ele>
        <time>2023-03-26T08:08:14Z</time>
      </trkpt>
      <trkpt lat="38.302374" lon="-1.672635">
        <ele>315.2</ele>
        <time>2023-03-26T08:08:19Z</time>
      </trkpt>
      <trkpt lat="38.302311" lon="-1.672647">
        <ele>314.2</ele>
        <time>2023-03-26T08:08:25Z</time>
      </trkpt>
      <trkpt lat="38.302250" lon="-1.672670">
        <ele>313.9</ele>
        <time>2023-03-26T08:08:29Z</time>
      </trkpt>
      <trkpt lat="38.302188" lon="-1.672702">
        <ele>313.9</ele>
        <time>2023-03-26T08:08:34Z</time>
      </trkpt>
      <trkpt lat="38.302130" lon="-1.672738">
        <ele>313.9</ele>
        <time>2023-03-26T08:08:39Z</time>
      </trkpt>
      <trkpt lat="38.302076" lon="-1.672783">
        <ele>314.9</ele>
        <time>2023-03-26T08:08:43Z</time>
      </trkpt>
      <trkpt lat="38.302018" lon="-1.672823">
        <ele>315.9</ele>
        <time>2023-03-26T08:08:48Z</time>
      </trkpt>
      <trkpt lat="38.301958" lon="-1.672847">
        <ele>315.9</ele>
        <time>2023-03-26T08:08:52Z</time>
      </trkpt>
      <trkpt lat="38.301909" lon="-1.672900">
        <ele>315.9</ele>
        <time>2023-03-26T08:08:57Z</time>
      </trkpt>
      <trkpt lat="38.301847" lon="-1.672938">
        <ele>315.9</ele>
        <time>2023-03-26T08:09:02Z</time>
      </trkpt>
      <trkpt lat="38.301787" lon="-1.672958">
        <ele>316.0</ele>
        <time>2023-03-26T08:09:07Z</time>
      </trkpt>
      <trkpt lat="38.301724" lon="-1.672969">
        <ele>317.9</ele>
        <time>2023-03-26T08:09:13Z</time>
      </trkpt>
      <trkpt lat="38.301664" lon="-1.672996">
        <ele>317.9</ele>
        <time>2023-03-26T08:09:18Z</time>
      </trkpt>
      <trkpt lat="38.301605" lon="-1.673040">
        <ele>316.2</ele>
        <time>2023-03-26T08:09:23Z</time>
      </trkpt>
      <trkpt lat="38.301547" lon="-1.673088">
        <ele>315.9</ele>
        <time>2023-03-26T08:09:28Z</time>
      </trkpt>
      <trkpt lat="38.301489" lon="-1.673145">
        <ele>316.9</ele>
        <time>2023-03-26T08:09:33Z</time>
      </trkpt>
      <trkpt lat="38.301436" lon="-1.673194">
        <ele>316.9</ele>
        <time>2023-03-26T08:09:38Z</time>
      </trkpt>
      <trkpt lat="38.301392" lon="-1.673259">
        <ele>316.9</ele>
        <time>2023-03-26T08:09:43Z</time>
      </trkpt>
      <trkpt lat="38.301359" lon="-1.673333">
        <ele>316.9</ele>
        <time>2023-03-26T08:09:48Z</time>
      </trkpt>
      <trkpt lat="38.301329" lon="-1.673407">
        <ele>314.9</ele>
        <time>2023-03-26T08:09:53Z</time>
      </trkpt>
      <trkpt lat="38.301287" lon="-1.673475">
        <ele>315.0</ele>
        <time>2023-03-26T08:09:57Z</time>
      </trkpt>
      <trkpt lat="38.301230" lon="-1.673522">
        <ele>315.9</ele>
        <time>2023-03-26T08:10:02Z</time>
      </trkpt>
      <trkpt lat="38.301174" lon="-1.673563">
        <ele>317.7</ele>
        <time>2023-03-26T08:10:06Z</time>
      </trkpt>
      <trkpt lat="38.301113" lon="-1.673605">
        <ele>316.9</ele>
        <time>2023-03-26T08:10:11Z</time>
      </trkpt>
      <trkpt lat="38.301058" lon="-1.673651">
        <ele>315.9</ele>
        <time>2023-03-26T08:10:16Z</time>
      </trkpt>
      <trkpt lat="38.300998" lon="-1.673695">
        <ele>315.9</ele>
        <time>2023-03-26T08:10:22Z</time>
      </trkpt>
      <trkpt lat="38.300943" lon="-1.673748">
        <ele>315.9</ele>
        <time>2023-03-26T08:10:27Z</time>
      </trkpt>
      <trkpt lat="38.300892" lon="-1.673808">
        <ele>317.9</ele>
        <time>2023-03-26T08:10:32Z</time>
      </trkpt>
      <trkpt lat="38.300841" lon="-1.673869">
        <ele>316.9</ele>
        <time>2023-03-26T08:10:37Z</time>
      </trkpt>
      <trkpt lat="38.300798" lon="-1.673940">
        <ele>315.9</ele>
        <time>2023-03-26T08:10:42Z</time>
      </trkpt>
      <trkpt lat="38.300757" lon="-1.674005">
        <ele>315.0</ele>
        <time>2023-03-26T08:10:47Z</time>
      </trkpt>
      <trkpt lat="38.300714" lon="-1.674063">
        <ele>314.9</ele>
        <time>2023-03-26T08:10:52Z</time>
      </trkpt>
      <trkpt lat="38.300661" lon="-1.674110">
        <ele>314.9</ele>
        <time>2023-03-26T08:10:56Z</time>
      </trkpt>
      <trkpt lat="38.300621" lon="-1.674173">
        <ele>314.9</ele>
        <time>2023-03-26T08:11:01Z</time>
      </trkpt>
      <trkpt lat="38.300570" lon="-1.674230">
        <ele>314.7</ele>
        <time>2023-03-26T08:11:06Z</time>
      </trkpt>
      <trkpt lat="38.300526" lon="-1.674288">
        <ele>313.9</ele>
        <time>2023-03-26T08:11:11Z</time>
      </trkpt>
      <trkpt lat="38.300480" lon="-1.674351">
        <ele>315.9</ele>
        <time>2023-03-26T08:11:15Z</time>
      </trkpt>
      <trkpt lat="38.300437" lon="-1.674410">
        <ele>315.7</ele>
        <time>2023-03-26T08:11:20Z</time>
      </trkpt>
      <trkpt lat="38.300393" lon="-1.674478">
        <ele>314.9</ele>
        <time>2023-03-26T08:11:25Z</time>
      </trkpt>
      <trkpt lat="38.300371" lon="-1.674558">
        <ele>315.7</ele>
        <time>2023-03-26T08:11:30Z</time>
      </trkpt>
      <trkpt lat="38.300343" lon="-1.674635">
        <ele>315.9</ele>
        <time>2023-03-26T08:11:34Z</time>
      </trkpt>
      <trkpt lat="38.300320" lon="-1.674712">
        <ele>314.9</ele>
        <time>2023-03-26T08:11:38Z</time>
      </trkpt>
      <trkpt lat="38.300278" lon="-1.674779">
        <ele>314.9</ele>
        <time>2023-03-26T08:11:43Z</time>
      </trkpt>
      <trkpt lat="38.300223" lon="-1.674818">
        <ele>314.9</ele>
        <time>2023-03-26T08:11:47Z</time>
      </trkpt>
      <trkpt lat="38.300161" lon="-1.674847">
        <ele>314.9</ele>
        <time>2023-03-26T08:11:52Z</time>
      </trkpt>
      <trkpt lat="38.300096" lon="-1.674888">
        <ele>315.9</ele>
        <time>2023-03-26T08:11:58Z</time>
      </trkpt>
      <trkpt lat="38.300041" lon="-1.674933">
        <ele>315.9</ele>
        <time>2023-03-26T08:12:02Z</time>
      </trkpt>
      <trkpt lat="38.299993" lon="-1.674996">
        <ele>314.9</ele>
        <time>2023-03-26T08:12:07Z</time>
      </trkpt>
      <trkpt lat="38.299944" lon="-1.675059">
        <ele>315.9</ele>
        <time>2023-03-26T08:12:12Z</time>
      </trkpt>
      <trkpt lat="38.299899" lon="-1.675129">
        <ele>315.9</ele>
        <time>2023-03-26T08:12:17Z</time>
      </trkpt>
      <trkpt lat="38.299862" lon="-1.675203">
        <ele>315.9</ele>
        <time>2023-03-26T08:12:22Z</time>
      </trkpt>
      <trkpt lat="38.299831" lon="-1.675277">
        <ele>315.2</ele>
        <time>2023-03-26T08:12:27Z</time>
      </trkpt>
      <trkpt lat="38.299812" lon="-1.675354">
        <ele>314.9</ele>
        <time>2023-03-26T08:12:31Z</time>
      </trkpt>
      <trkpt lat="38.299796" lon="-1.675434">
        <ele>314.1</ele>
        <time>2023-03-26T08:12:36Z</time>
      </trkpt>
      <trkpt lat="38.299781" lon="-1.675519">
        <ele>313.9</ele>
        <time>2023-03-26T08:12:41Z</time>
      </trkpt>
      <trkpt lat="38.299756" lon="-1.675604">
        <ele>313.9</ele>
        <time>2023-03-26T08:12:45Z</time>
      </trkpt>
      <trkpt lat="38.299733" lon="-1.675685">
        <ele>312.9</ele>
        <time>2023-03-26T08:12:50Z</time>
      </trkpt>
      <trkpt lat="38.299709" lon="-1.675769">
        <ele>312.7</ele>
        <time>2023-03-26T08:12:55Z</time>
      </trkpt>
      <trkpt lat="38.299697" lon="-1.675848">
        <ele>312.0</ele>
        <time>2023-03-26T08:13:00Z</time>
      </trkpt>
      <trkpt lat="38.299686" lon="-1.675928">
        <ele>312.9</ele>
        <time>2023-03-26T08:13:05Z</time>
      </trkpt>
      <trkpt lat="38.299685" lon="-1.676013">
        <ele>312.9</ele>
        <time>2023-03-26T08:13:10Z</time>
      </trkpt>
      <trkpt lat="38.299673" lon="-1.676092">
        <ele>312.9</ele>
        <time>2023-03-26T08:13:15Z</time>
      </trkpt>
      <trkpt lat="38.299649" lon="-1.676173">
        <ele>313.0</ele>
        <time>2023-03-26T08:13:19Z</time>
      </trkpt>
      <trkpt lat="38.299600" lon="-1.676232">
        <ele>312.9</ele>
        <time>2023-03-26T08:13:24Z</time>
      </trkpt>
      <trkpt lat="38.299552" lon="-1.676287">
        <ele>312.9</ele>
        <time>2023-03-26T08:13:29Z</time>
      </trkpt>
      <trkpt lat="38.299514" lon="-1.676353">
        <ele>312.9</ele>
        <time>2023-03-26T08:13:34Z</time>
      </trkpt>
      <trkpt lat="38.299476" lon="-1.676423">
        <ele>311.9</ele>
        <time>2023-03-26T08:13:39Z</time>
      </trkpt>
      <trkpt lat="38.299442" lon="-1.676498">
        <ele>313.9</ele>
        <time>2023-03-26T08:13:44Z</time>
      </trkpt>
      <trkpt lat="38.299425" lon="-1.676576">
        <ele>314.2</ele>
        <time>2023-03-26T08:13:49Z</time>
      </trkpt>
      <trkpt lat="38.299409" lon="-1.676657">
        <ele>314.9</ele>
        <time>2023-03-26T08:13:53Z</time>
      </trkpt>
      <trkpt lat="38.299394" lon="-1.676736">
        <ele>315.9</ele>
        <time>2023-03-26T08:13:58Z</time>
      </trkpt>
      <trkpt lat="38.299379" lon="-1.676815">
        <ele>314.9</ele>
        <time>2023-03-26T08:14:02Z</time>
      </trkpt>
      <trkpt lat="38.299386" lon="-1.676899">
        <ele>316.9</ele>
        <time>2023-03-26T08:14:09Z</time>
      </trkpt>
      <trkpt lat="38.299379" lon="-1.676987">
        <ele>316.9</ele>
        <time>2023-03-26T08:14:15Z</time>
      </trkpt>
      <trkpt lat="38.299359" lon="-1.677072">
        <ele>316.2</ele>
        <time>2023-03-26T08:14:20Z</time>
      </trkpt>
      <trkpt lat="38.299341" lon="-1.677152">
        <ele>315.7</ele>
        <time>2023-03-26T08:14:25Z</time>
      </trkpt>
      <trkpt lat="38.299341" lon="-1.677234">
        <ele>312.9</ele>
        <time>2023-03-26T08:14:41Z</time>
      </trkpt>
      <trkpt lat="38.299315" lon="-1.677309">
        <ele>313.9</ele>
        <time>2023-03-26T08:14:45Z</time>
      </trkpt>
      <trkpt lat="38.299306" lon="-1.677394">
        <ele>313.0</ele>
        <time>2023-03-26T08:14:49Z</time>
      </trkpt>
      <trkpt lat="38.299302" lon="-1.677484">
        <ele>312.9</ele>
        <time>2023-03-26T08:14:54Z</time>
      </trkpt>
      <trkpt lat="38.299289" lon="-1.677569">
        <ele>313.9</ele>
        <time>2023-03-26T08:15:00Z</time>
      </trkpt>
      <trkpt lat="38.299287" lon="-1.677649">
        <ele>312.9</ele>
        <time>2023-03-26T08:15:05Z</time>
      </trkpt>
      <trkpt lat="38.299284" lon="-1.677731">
        <ele>312.9</ele>
        <time>2023-03-26T08:15:10Z</time>
      </trkpt>
      <trkpt lat="38.299284" lon="-1.677816">
        <ele>312.2</ele>
        <time>2023-03-26T08:15:15Z</time>
      </trkpt>
      <trkpt lat="38.299276" lon="-1.677905">
        <ele>312.9</ele>
        <time>2023-03-26T08:15:20Z</time>
      </trkpt>
      <trkpt lat="38.299276" lon="-1.677987">
        <ele>312.9</ele>
        <time>2023-03-26T08:15:24Z</time>
      </trkpt>
      <trkpt lat="38.299257" lon="-1.678074">
        <ele>311.9</ele>
        <time>2023-03-26T08:15:29Z</time>
      </trkpt>
      <trkpt lat="38.299238" lon="-1.678159">
        <ele>311.9</ele>
        <time>2023-03-26T08:15:34Z</time>
      </trkpt>
      <trkpt lat="38.299231" lon="-1.678243">
        <ele>311.9</ele>
        <time>2023-03-26T08:15:39Z</time>
      </trkpt>
      <trkpt lat="38.299232" lon="-1.678331">
        <ele>312.9</ele>
        <time>2023-03-26T08:15:44Z</time>
      </trkpt>
      <trkpt lat="38.299227" lon="-1.678414">
        <ele>312.9</ele>
        <time>2023-03-26T08:15:49Z</time>
      </trkpt>
      <trkpt lat="38.299225" lon="-1.678498">
        <ele>312.9</ele>
        <time>2023-03-26T08:15:54Z</time>
      </trkpt>
      <trkpt lat="38.299222" lon="-1.678581">
        <ele>311.0</ele>
        <time>2023-03-26T08:15:59Z</time>
      </trkpt>
      <trkpt lat="38.299224" lon="-1.678663">
        <ele>310.9</ele>
        <time>2023-03-26T08:16:04Z</time>
      </trkpt>
      <trkpt lat="38.299222" lon="-1.678749">
        <ele>311.9</ele>
        <time>2023-03-26T08:16:09Z</time>
      </trkpt>
      <trkpt lat="38.299222" lon="-1.678830">
        <ele>311.9</ele>
        <time>2023-03-26T08:16:13Z</time>
      </trkpt>
      <trkpt lat="38.299229" lon="-1.678918">
        <ele>311.9</ele>
        <time>2023-03-26T08:16:18Z</time>
      </trkpt>
      <trkpt lat="38.299252" lon="-1.678998">
        <ele>311.9</ele>
        <time>2023-03-26T08:16:23Z</time>
      </trkpt>
      <trkpt lat="38.299289" lon="-1.679066">
        <ele>311.9</ele>
        <time>2023-03-26T08:16:27Z</time>
      </trkpt>
      <trkpt lat="38.299324" lon="-1.679136">
        <ele>313.9</ele>
        <time>2023-03-26T08:16:32Z</time>
      </trkpt>
      <trkpt lat="38.299359" lon="-1.679220">
        <ele>313.9</ele>
        <time>2023-03-26T08:16:37Z</time>
      </trkpt>
      <trkpt lat="38.299391" lon="-1.679294">
        <ele>313.9</ele>
        <time>2023-03-26T08:16:41Z</time>
      </trkpt>
      <trkpt lat="38.299424" lon="-1.679368">
        <ele>313.9</ele>
        <time>2023-03-26T08:16:46Z</time>
      </trkpt>
      <trkpt lat="38.299455" lon="-1.679444">
        <ele>313.9</ele>
        <time>2023-03-26T08:16:51Z</time>
      </trkpt>
      <trkpt lat="38.299466" lon="-1.679526">
        <ele>312.0</ele>
        <time>2023-03-26T08:16:56Z</time>
      </trkpt>
      <trkpt lat="38.299481" lon="-1.679606">
        <ele>311.9</ele>
        <time>2023-03-26T08:17:01Z</time>
      </trkpt>
      <trkpt lat="38.299499" lon="-1.679684">
        <ele>310.9</ele>
        <time>2023-03-26T08:17:06Z</time>
      </trkpt>
      <trkpt lat="38.299509" lon="-1.679770">
        <ele>312.7</ele>
        <time>2023-03-26T08:17:11Z</time>
      </trkpt>
      <trkpt lat="38.299518" lon="-1.679851">
        <ele>312.9</ele>
        <time>2023-03-26T08:17:15Z</time>
      </trkpt>
      <trkpt lat="38.299502" lon="-1.679939">
        <ele>310.9</ele>
        <time>2023-03-26T08:17:20Z</time>
      </trkpt>
      <trkpt lat="38.299465" lon="-1.680007">
        <ele>309.9</ele>
        <time>2023-03-26T08:17:25Z</time>
      </trkpt>
      <trkpt lat="38.299431" lon="-1.680078">
        <ele>309.9</ele>
        <time>2023-03-26T08:17:30Z</time>
      </trkpt>
      <trkpt lat="38.299399" lon="-1.680154">
        <ele>308.9</ele>
        <time>2023-03-26T08:17:35Z</time>
      </trkpt>
      <trkpt lat="38.299367" lon="-1.680224">
        <ele>309.9</ele>
        <time>2023-03-26T08:17:39Z</time>
      </trkpt>
      <trkpt lat="38.299332" lon="-1.680295">
        <ele>309.9</ele>
        <time>2023-03-26T08:17:44Z</time>
      </trkpt>
      <trkpt lat="38.299284" lon="-1.680350">
        <ele>310.2</ele>
        <time>2023-03-26T08:17:49Z</time>
      </trkpt>
      <trkpt lat="38.299238" lon="-1.680422">
        <ele>309.9</ele>
        <time>2023-03-26T08:17:55Z</time>
      </trkpt>
      <trkpt lat="38.299197" lon="-1.680493">
        <ele>309.9</ele>
        <time>2023-03-26T08:18:00Z</time>
      </trkpt>
      <trkpt lat="38.299156" lon="-1.680557">
        <ele>309.9</ele>
        <time>2023-03-26T08:18:05Z</time>
      </trkpt>
      <trkpt lat="38.299117" lon="-1.680621">
        <ele>308.9</ele>
        <time>2023-03-26T08:18:10Z</time>
      </trkpt>
      <trkpt lat="38.299132" lon="-1.680704">
        <ele>311.9</ele>
        <time>2023-03-26T08:18:21Z</time>
      </trkpt>
      <trkpt lat="38.299096" lon="-1.680782">
        <ele>310.9</ele>
        <time>2023-03-26T08:18:25Z</time>
      </trkpt>
      <trkpt lat="38.299067" lon="-1.680862">
        <ele>312.2</ele>
        <time>2023-03-26T08:18:30Z</time>
      </trkpt>
      <trkpt lat="38.299047" lon="-1.680945">
        <ele>308.9</ele>
        <time>2023-03-26T08:19:19Z</time>
      </trkpt>
      <trkpt lat="38.299006" lon="-1.681016">
        <ele>310.9</ele>
        <time>2023-03-26T08:19:26Z</time>
      </trkpt>
      <trkpt lat="38.299003" lon="-1.681097">
        <ele>310.9</ele>
        <time>2023-03-26T08:19:29Z</time>
      </trkpt>
      <trkpt lat="38.298997" lon="-1.681178">
        <ele>310.0</ele>
        <time>2023-03-26T08:19:33Z</time>
      </trkpt>
      <trkpt lat="38.298984" lon="-1.681263">
        <ele>309.9</ele>
        <time>2023-03-26T08:19:38Z</time>
      </trkpt>
      <trkpt lat="38.298978" lon="-1.681343">
        <ele>309.9</ele>
        <time>2023-03-26T08:19:42Z</time>
      </trkpt>
      <trkpt lat="38.298963" lon="-1.681421">
        <ele>309.9</ele>
        <time>2023-03-26T08:19:48Z</time>
      </trkpt>
      <trkpt lat="38.298986" lon="-1.681500">
        <ele>310.9</ele>
        <time>2023-03-26T08:19:52Z</time>
      </trkpt>
      <trkpt lat="38.298980" lon="-1.681583">
        <ele>309.0</ele>
        <time>2023-03-26T08:19:57Z</time>
      </trkpt>
      <trkpt lat="38.298976" lon="-1.681676">
        <ele>309.9</ele>
        <time>2023-03-26T08:20:01Z</time>
      </trkpt>
      <trkpt lat="38.298985" lon="-1.681768">
        <ele>310.9</ele>
        <time>2023-03-26T08:20:06Z</time>
      </trkpt>
      <trkpt lat="38.298983" lon="-1.681856">
        <ele>310.9</ele>
        <time>2023-03-26T08:20:11Z</time>
      </trkpt>
      <trkpt lat="38.298987" lon="-1.681942">
        <ele>312.7</ele>
        <time>2023-03-26T08:20:16Z</time>
      </trkpt>
      <trkpt lat="38.298986" lon="-1.682030">
        <ele>311.9</ele>
        <time>2023-03-26T08:20:21Z</time>
      </trkpt>
      <trkpt lat="38.298974" lon="-1.682115">
        <ele>311.9</ele>
        <time>2023-03-26T08:20:25Z</time>
      </trkpt>
      <trkpt lat="38.298971" lon="-1.682200">
        <ele>312.9</ele>
        <time>2023-03-26T08:20:31Z</time>
      </trkpt>
      <trkpt lat="38.298977" lon="-1.682283">
        <ele>311.9</ele>
        <time>2023-03-26T08:20:37Z</time>
      </trkpt>
      <trkpt lat="38.298971" lon="-1.682365">
        <ele>311.0</ele>
        <time>2023-03-26T08:20:41Z</time>
      </trkpt>
      <trkpt lat="38.298973" lon="-1.682453">
        <ele>311.9</ele>
        <time>2023-03-26T08:20:46Z</time>
      </trkpt>
      <trkpt lat="38.298960" lon="-1.682534">
        <ele>310.9</ele>
        <time>2023-03-26T08:20:51Z</time>
      </trkpt>
      <trkpt lat="38.298953" lon="-1.682615">
        <ele>311.0</ele>
        <time>2023-03-26T08:20:55Z</time>
      </trkpt>
      <trkpt lat="38.298937" lon="-1.682695">
        <ele>309.9</ele>
        <time>2023-03-26T08:21:00Z</time>
      </trkpt>
      <trkpt lat="38.298917" lon="-1.682789">
        <ele>308.9</ele>
        <time>2023-03-26T08:21:06Z</time>
      </trkpt>
      <trkpt lat="38.298898" lon="-1.682867">
        <ele>308.9</ele>
        <time>2023-03-26T08:21:10Z</time>
      </trkpt>
      <trkpt lat="38.298888" lon="-1.682948">
        <ele>308.2</ele>
        <time>2023-03-26T08:21:15Z</time>
      </trkpt>
      <trkpt lat="38.298881" lon="-1.683032">
        <ele>308.9</ele>
        <time>2023-03-26T08:21:20Z</time>
      </trkpt>
      <trkpt lat="38.298888" lon="-1.683114">
        <ele>306.9</ele>
        <time>2023-03-26T08:21:25Z</time>
      </trkpt>
      <trkpt lat="38.298903" lon="-1.683198">
        <ele>305.9</ele>
        <time>2023-03-26T08:21:31Z</time>
      </trkpt>
      <trkpt lat="38.298920" lon="-1.683279">
        <ele>304.9</ele>
        <time>2023-03-26T08:21:37Z</time>
      </trkpt>
      <trkpt lat="38.298925" lon="-1.683369">
        <ele>305.7</ele>
        <time>2023-03-26T08:21:43Z</time>
      </trkpt>
      <trkpt lat="38.298937" lon="-1.683452">
        <ele>306.7</ele>
        <time>2023-03-26T08:21:48Z</time>
      </trkpt>
      <trkpt lat="38.298956" lon="-1.683536">
        <ele>306.9</ele>
        <time>2023-03-26T08:21:52Z</time>
      </trkpt>
      <trkpt lat="38.298966" lon="-1.683626">
        <ele>307.9</ele>
        <time>2023-03-26T08:21:57Z</time>
      </trkpt>
      <trkpt lat="38.298963" lon="-1.683711">
        <ele>307.9</ele>
        <time>2023-03-26T08:22:02Z</time>
      </trkpt>
      <trkpt lat="38.298958" lon="-1.683798">
        <ele>307.9</ele>
        <time>2023-03-26T08:22:07Z</time>
      </trkpt>
      <trkpt lat="38.298940" lon="-1.683881">
        <ele>307.9</ele>
        <time>2023-03-26T08:22:12Z</time>
      </trkpt>
      <trkpt lat="38.298917" lon="-1.683956">
        <ele>306.9</ele>
        <time>2023-03-26T08:22:17Z</time>
      </trkpt>
      <trkpt lat="38.298903" lon="-1.684035">
        <ele>306.9</ele>
        <time>2023-03-26T08:22:21Z</time>
      </trkpt>
      <trkpt lat="38.298876" lon="-1.684113">
        <ele>308.9</ele>
        <time>2023-03-26T08:22:28Z</time>
      </trkpt>
      <trkpt lat="38.298864" lon="-1.684196">
        <ele>308.9</ele>
        <time>2023-03-26T08:22:33Z</time>
      </trkpt>
      <trkpt lat="38.298833" lon="-1.684272">
        <ele>308.9</ele>
        <time>2023-03-26T08:22:38Z</time>
      </trkpt>
      <trkpt lat="38.298796" lon="-1.684349">
        <ele>309.9</ele>
        <time>2023-03-26T08:22:44Z</time>
      </trkpt>
      <trkpt lat="38.298760" lon="-1.684420">
        <ele>308.9</ele>
        <time>2023-03-26T08:22:49Z</time>
      </trkpt>
      <trkpt lat="38.298729" lon="-1.684492">
        <ele>308.9</ele>
        <time>2023-03-26T08:22:53Z</time>
      </trkpt>
      <trkpt lat="38.298697" lon="-1.684563">
        <ele>307.9</ele>
        <time>2023-03-26T08:22:58Z</time>
      </trkpt>
      <trkpt lat="38.298664" lon="-1.684637">
        <ele>308.9</ele>
        <time>2023-03-26T08:23:03Z</time>
      </trkpt>
      <trkpt lat="38.298626" lon="-1.684711">
        <ele>308.9</ele>
        <time>2023-03-26T08:23:09Z</time>
      </trkpt>
      <trkpt lat="38.298582" lon="-1.684771">
        <ele>308.9</ele>
        <time>2023-03-26T08:23:14Z</time>
      </trkpt>
      <trkpt lat="38.298537" lon="-1.684836">
        <ele>307.9</ele>
        <time>2023-03-26T08:23:20Z</time>
      </trkpt>
      <trkpt lat="38.298496" lon="-1.684904">
        <ele>308.9</ele>
        <time>2023-03-26T08:23:26Z</time>
      </trkpt>
      <trkpt lat="38.298450" lon="-1.684960">
        <ele>308.9</ele>
        <time>2023-03-26T08:23:30Z</time>
      </trkpt>
      <trkpt lat="38.298397" lon="-1.685013">
        <ele>310.9</ele>
        <time>2023-03-26T08:23:35Z</time>
      </trkpt>
      <trkpt lat="38.298344" lon="-1.685059">
        <ele>310.9</ele>
        <time>2023-03-26T08:23:40Z</time>
      </trkpt>
      <trkpt lat="38.298291" lon="-1.685115">
        <ele>310.9</ele>
        <time>2023-03-26T08:23:46Z</time>
      </trkpt>
      <trkpt lat="38.298274" lon="-1.685200">
        <ele>310.9</ele>
        <time>2023-03-26T08:23:52Z</time>
      </trkpt>
      <trkpt lat="38.298213" lon="-1.685228">
        <ele>310.9</ele>
        <time>2023-03-26T08:23:57Z</time>
      </trkpt>
      <trkpt lat="38.298196" lon="-1.685310">
        <ele>311.9</ele>
        <time>2023-03-26T08:24:33Z</time>
      </trkpt>
      <trkpt lat="38.298185" lon="-1.685394">
        <ele>311.0</ele>
        <time>2023-03-26T08:24:37Z</time>
      </trkpt>
      <trkpt lat="38.298157" lon="-1.685474">
        <ele>310.9</ele>
        <time>2023-03-26T08:24:42Z</time>
      </trkpt>
      <trkpt lat="38.298109" lon="-1.685530">
        <ele>310.9</ele>
        <time>2023-03-26T08:24:49Z</time>
      </trkpt>
      <trkpt lat="38.298085" lon="-1.685606">
        <ele>312.9</ele>
        <time>2023-03-26T08:25:06Z</time>
      </trkpt>
      <trkpt lat="38.298059" lon="-1.685680">
        <ele>312.8</ele>
        <time>2023-03-26T08:25:10Z</time>
      </trkpt>
      <trkpt lat="38.298015" lon="-1.685746">
        <ele>312.9</ele>
        <time>2023-03-26T08:25:15Z</time>
      </trkpt>
      <trkpt lat="38.297970" lon="-1.685814">
        <ele>312.9</ele>
        <time>2023-03-26T08:25:21Z</time>
      </trkpt>
      <trkpt lat="38.297922" lon="-1.685875">
        <ele>313.8</ele>
        <time>2023-03-26T08:25:26Z</time>
      </trkpt>
      <trkpt lat="38.297878" lon="-1.685937">
        <ele>313.0</ele>
        <time>2023-03-26T08:25:31Z</time>
      </trkpt>
      <trkpt lat="38.297832" lon="-1.685996">
        <ele>311.9</ele>
        <time>2023-03-26T08:25:37Z</time>
      </trkpt>
      <trkpt lat="38.297783" lon="-1.686068">
        <ele>311.9</ele>
        <time>2023-03-26T08:25:44Z</time>
      </trkpt>
      <trkpt lat="38.297756" lon="-1.686152">
        <ele>312.0</ele>
        <time>2023-03-26T08:25:49Z</time>
      </trkpt>
      <trkpt lat="38.297722" lon="-1.686228">
        <ele>310.9</ele>
        <time>2023-03-26T08:25:54Z</time>
      </trkpt>
      <trkpt lat="38.297689" lon="-1.686295">
        <ele>309.9</ele>
        <time>2023-03-26T08:25:58Z</time>
      </trkpt>
      <trkpt lat="38.297656" lon="-1.686375">
        <ele>310.9</ele>
        <time>2023-03-26T08:26:03Z</time>
      </trkpt>
      <trkpt lat="38.297625" lon="-1.686445">
        <ele>310.7</ele>
        <time>2023-03-26T08:26:09Z</time>
      </trkpt>
      <trkpt lat="38.297595" lon="-1.686519">
        <ele>310.0</ele>
        <time>2023-03-26T08:26:17Z</time>
      </trkpt>
      <trkpt lat="38.297589" lon="-1.686602">
        <ele>309.2</ele>
        <time>2023-03-26T08:26:23Z</time>
      </trkpt>
      <trkpt lat="38.297563" lon="-1.686678">
        <ele>307.9</ele>
        <time>2023-03-26T08:26:40Z</time>
      </trkpt>
      <trkpt lat="38.297533" lon="-1.686757">
        <ele>307.9</ele>
        <time>2023-03-26T08:26:56Z</time>
      </trkpt>
      <trkpt lat="38.297507" lon="-1.686835">
        <ele>306.9</ele>
        <time>2023-03-26T08:27:00Z</time>
      </trkpt>
      <trkpt lat="38.297484" lon="-1.686917">
        <ele>306.9</ele>
        <time>2023-03-26T08:27:04Z</time>
      </trkpt>
      <trkpt lat="38.297456" lon="-1.686999">
        <ele>307.8</ele>
        <time>2023-03-26T08:27:08Z</time>
      </trkpt>
      <trkpt lat="38.297406" lon="-1.687056">
        <ele>307.9</ele>
        <time>2023-03-26T08:27:13Z</time>
      </trkpt>
      <trkpt lat="38.297345" lon="-1.687103">
        <ele>308.9</ele>
        <time>2023-03-26T08:27:18Z</time>
      </trkpt>
      <trkpt lat="38.297296" lon="-1.687157">
        <ele>308.9</ele>
        <time>2023-03-26T08:27:24Z</time>
      </trkpt>
      <trkpt lat="38.297251" lon="-1.687222">
        <ele>309.7</ele>
        <time>2023-03-26T08:27:31Z</time>
      </trkpt>
      <trkpt lat="38.297242" lon="-1.687304">
        <ele>308.2</ele>
        <time>2023-03-26T08:27:35Z</time>
      </trkpt>
      <trkpt lat="38.297240" lon="-1.687385">
        <ele>307.9</ele>
        <time>2023-03-26T08:27:39Z</time>
      </trkpt>
      <trkpt lat="38.297221" lon="-1.687467">
        <ele>307.9</ele>
        <time>2023-03-26T08:27:44Z</time>
      </trkpt>
      <trkpt lat="38.297185" lon="-1.687534">
        <ele>306.2</ele>
        <time>2023-03-26T08:27:49Z</time>
      </trkpt>
      <trkpt lat="38.297183" lon="-1.687615">
        <ele>304.9</ele>
        <time>2023-03-26T08:27:54Z</time>
      </trkpt>
      <trkpt lat="38.297167" lon="-1.687694">
        <ele>304.9</ele>
        <time>2023-03-26T08:27:59Z</time>
      </trkpt>
      <trkpt lat="38.297149" lon="-1.687775">
        <ele>303.9</ele>
        <time>2023-03-26T08:28:03Z</time>
      </trkpt>
      <trkpt lat="38.297126" lon="-1.687858">
        <ele>303.9</ele>
        <time>2023-03-26T08:28:08Z</time>
      </trkpt>
      <trkpt lat="38.297107" lon="-1.687939">
        <ele>303.9</ele>
        <time>2023-03-26T08:28:13Z</time>
      </trkpt>
      <trkpt lat="38.297090" lon="-1.688019">
        <ele>303.1</ele>
        <time>2023-03-26T08:28:18Z</time>
      </trkpt>
      <trkpt lat="38.297068" lon="-1.688094">
        <ele>303.6</ele>
        <time>2023-03-26T08:28:23Z</time>
      </trkpt>
      <trkpt lat="38.297042" lon="-1.688171">
        <ele>304.6</ele>
        <time>2023-03-26T08:28:27Z</time>
      </trkpt>
      <trkpt lat="38.297031" lon="-1.688250">
        <ele>305.9</ele>
        <time>2023-03-26T08:28:31Z</time>
      </trkpt>
      <trkpt lat="38.297023" lon="-1.688331">
        <ele>305.9</ele>
        <time>2023-03-26T08:28:36Z</time>
      </trkpt>
      <trkpt lat="38.297002" lon="-1.688416">
        <ele>304.9</ele>
        <time>2023-03-26T08:28:41Z</time>
      </trkpt>
      <trkpt lat="38.296969" lon="-1.688487">
        <ele>305.9</ele>
        <time>2023-03-26T08:28:45Z</time>
      </trkpt>
      <trkpt lat="38.296941" lon="-1.688568">
        <ele>306.6</ele>
        <time>2023-03-26T08:28:50Z</time>
      </trkpt>
      <trkpt lat="38.296919" lon="-1.688649">
        <ele>306.9</ele>
        <time>2023-03-26T08:28:55Z</time>
      </trkpt>
      <trkpt lat="38.296894" lon="-1.688727">
        <ele>307.1</ele>
        <time>2023-03-26T08:29:00Z</time>
      </trkpt>
      <trkpt lat="38.296860" lon="-1.688799">
        <ele>306.9</ele>
        <time>2023-03-26T08:29:06Z</time>
      </trkpt>
      <trkpt lat="38.296846" lon="-1.688878">
        <ele>307.8</ele>
        <time>2023-03-26T08:29:11Z</time>
      </trkpt>
      <trkpt lat="38.296820" lon="-1.688952">
        <ele>308.6</ele>
        <time>2023-03-26T08:29:15Z</time>
      </trkpt>
      <trkpt lat="38.296804" lon="-1.689030">
        <ele>308.9</ele>
        <time>2023-03-26T08:29:20Z</time>
      </trkpt>
      <trkpt lat="38.296780" lon="-1.689106">
        <ele>309.6</ele>
        <time>2023-03-26T08:29:24Z</time>
      </trkpt>
      <trkpt lat="38.296743" lon="-1.689172">
        <ele>308.9</ele>
        <time>2023-03-26T08:29:29Z</time>
      </trkpt>
      <trkpt lat="38.296716" lon="-1.689248">
        <ele>308.9</ele>
        <time>2023-03-26T08:29:35Z</time>
      </trkpt>
      <trkpt lat="38.296685" lon="-1.689327">
        <ele>308.1</ele>
        <time>2023-03-26T08:29:40Z</time>
      </trkpt>
      <trkpt lat="38.296662" lon="-1.689402">
        <ele>307.9</ele>
        <time>2023-03-26T08:29:45Z</time>
      </trkpt>
      <trkpt lat="38.296629" lon="-1.689470">
        <ele>308.7</ele>
        <time>2023-03-26T08:29:50Z</time>
      </trkpt>
      <trkpt lat="38.296580" lon="-1.689531">
        <ele>308.9</ele>
        <time>2023-03-26T08:29:55Z</time>
      </trkpt>
      <trkpt lat="38.296525" lon="-1.689585">
        <ele>309.9</ele>
        <time>2023-03-26T08:30:02Z</time>
      </trkpt>
      <trkpt lat="38.296464" lon="-1.689625">
        <ele>311.8</ele>
        <time>2023-03-26T08:30:08Z</time>
      </trkpt>
      <trkpt lat="38.296409" lon="-1.689670">
        <ele>312.6</ele>
        <time>2023-03-26T08:30:14Z</time>
      </trkpt>
      <trkpt lat="38.296359" lon="-1.689721">
        <ele>312.9</ele>
        <time>2023-03-26T08:30:19Z</time>
      </trkpt>
      <trkpt lat="38.296312" lon="-1.689781">
        <ele>311.9</ele>
        <time>2023-03-26T08:30:26Z</time>
      </trkpt>
      <trkpt lat="38.296266" lon="-1.689843">
        <ele>311.9</ele>
        <time>2023-03-26T08:30:33Z</time>
      </trkpt>
      <trkpt lat="38.296229" lon="-1.689915">
        <ele>311.9</ele>
        <time>2023-03-26T08:30:38Z</time>
      </trkpt>
      <trkpt lat="38.296183" lon="-1.689986">
        <ele>311.9</ele>
        <time>2023-03-26T08:30:44Z</time>
      </trkpt>
      <trkpt lat="38.296134" lon="-1.690040">
        <ele>310.9</ele>
        <time>2023-03-26T08:30:49Z</time>
      </trkpt>
      <trkpt lat="38.296101" lon="-1.690110">
        <ele>309.0</ele>
        <time>2023-03-26T08:30:55Z</time>
      </trkpt>
      <trkpt lat="38.296076" lon="-1.690189">
        <ele>307.9</ele>
        <time>2023-03-26T08:31:01Z</time>
      </trkpt>
      <trkpt lat="38.296049" lon="-1.690262">
        <ele>306.9</ele>
        <time>2023-03-26T08:31:05Z</time>
      </trkpt>
      <trkpt lat="38.295995" lon="-1.690321">
        <ele>306.9</ele>
        <time>2023-03-26T08:31:10Z</time>
      </trkpt>
      <trkpt lat="38.295944" lon="-1.690377">
        <ele>306.9</ele>
        <time>2023-03-26T08:31:15Z</time>
      </trkpt>
      <trkpt lat="38.295891" lon="-1.690431">
        <ele>306.0</ele>
        <time>2023-03-26T08:31:21Z</time>
      </trkpt>
      <trkpt lat="38.295842" lon="-1.690490">
        <ele>306.9</ele>
        <time>2023-03-26T08:31:26Z</time>
      </trkpt>
      <trkpt lat="38.295793" lon="-1.690541">
        <ele>307.9</ele>
        <time>2023-03-26T08:31:31Z</time>
      </trkpt>
      <trkpt lat="38.295749" lon="-1.690607">
        <ele>307.0</ele>
        <time>2023-03-26T08:31:36Z</time>
      </trkpt>
      <trkpt lat="38.295698" lon="-1.690670">
        <ele>307.9</ele>
        <time>2023-03-26T08:31:41Z</time>
      </trkpt>
      <trkpt lat="38.295652" lon="-1.690727">
        <ele>307.9</ele>
        <time>2023-03-26T08:31:46Z</time>
      </trkpt>
      <trkpt lat="38.295598" lon="-1.690779">
        <ele>309.9</ele>
        <time>2023-03-26T08:31:52Z</time>
      </trkpt>
      <trkpt lat="38.295550" lon="-1.690837">
        <ele>309.9</ele>
        <time>2023-03-26T08:31:57Z</time>
      </trkpt>
      <trkpt lat="38.295497" lon="-1.690892">
        <ele>310.1</ele>
        <time>2023-03-26T08:32:02Z</time>
      </trkpt>
      <trkpt lat="38.295447" lon="-1.690954">
        <ele>310.8</ele>
        <time>2023-03-26T08:32:07Z</time>
      </trkpt>
      <trkpt lat="38.295405" lon="-1.691013">
        <ele>310.9</ele>
        <time>2023-03-26T08:32:12Z</time>
      </trkpt>
      <trkpt lat="38.295349" lon="-1.691069">
        <ele>309.9</ele>
        <time>2023-03-26T08:32:18Z</time>
      </trkpt>
      <trkpt lat="38.295291" lon="-1.691107">
        <ele>309.9</ele>
        <time>2023-03-26T08:32:23Z</time>
      </trkpt>
      <trkpt lat="38.295234" lon="-1.691145">
        <ele>309.9</ele>
        <time>2023-03-26T08:32:29Z</time>
      </trkpt>
      <trkpt lat="38.295175" lon="-1.691187">
        <ele>308.9</ele>
        <time>2023-03-26T08:32:35Z</time>
      </trkpt>
      <trkpt lat="38.295120" lon="-1.691238">
        <ele>309.6</ele>
        <time>2023-03-26T08:32:40Z</time>
      </trkpt>
      <trkpt lat="38.295066" lon="-1.691283">
        <ele>309.9</ele>
        <time>2023-03-26T08:32:45Z</time>
      </trkpt>
      <trkpt lat="38.295014" lon="-1.691333">
        <ele>309.9</ele>
        <time>2023-03-26T08:32:50Z</time>
      </trkpt>
      <trkpt lat="38.294963" lon="-1.691389">
        <ele>309.9</ele>
        <time>2023-03-26T08:32:55Z</time>
      </trkpt>
      <trkpt lat="38.294911" lon="-1.691440">
        <ele>309.1</ele>
        <time>2023-03-26T08:33:00Z</time>
      </trkpt>
      <trkpt lat="38.294861" lon="-1.691502">
        <ele>309.9</ele>
        <time>2023-03-26T08:33:05Z</time>
      </trkpt>
      <trkpt lat="38.294810" lon="-1.691558">
        <ele>309.9</ele>
        <time>2023-03-26T08:33:10Z</time>
      </trkpt>
      <trkpt lat="38.294760" lon="-1.691610">
        <ele>309.9</ele>
        <time>2023-03-26T08:33:15Z</time>
      </trkpt>
      <trkpt lat="38.294706" lon="-1.691656">
        <ele>308.9</ele>
        <time>2023-03-26T08:33:20Z</time>
      </trkpt>
      <trkpt lat="38.294652" lon="-1.691704">
        <ele>306.9</ele>
        <time>2023-03-26T08:33:25Z</time>
      </trkpt>
      <trkpt lat="38.294599" lon="-1.691754">
        <ele>306.9</ele>
        <time>2023-03-26T08:33:30Z</time>
      </trkpt>
      <trkpt lat="38.294547" lon="-1.691800">
        <ele>306.9</ele>
        <time>2023-03-26T08:33:35Z</time>
      </trkpt>
      <trkpt lat="38.294493" lon="-1.691845">
        <ele>307.9</ele>
        <time>2023-03-26T08:33:40Z</time>
      </trkpt>
      <trkpt lat="38.294435" lon="-1.691881">
        <ele>308.9</ele>
        <time>2023-03-26T08:33:45Z</time>
      </trkpt>
      <trkpt lat="38.294374" lon="-1.691925">
        <ele>309.9</ele>
        <time>2023-03-26T08:33:52Z</time>
      </trkpt>
      <trkpt lat="38.294318" lon="-1.691973">
        <ele>308.9</ele>
        <time>2023-03-26T08:33:58Z</time>
      </trkpt>
      <trkpt lat="38.294259" lon="-1.692022">
        <ele>307.9</ele>
        <time>2023-03-26T08:34:03Z</time>
      </trkpt>
      <trkpt lat="38.294205" lon="-1.692068">
        <ele>308.9</ele>
        <time>2023-03-26T08:34:08Z</time>
      </trkpt>
      <trkpt lat="38.294149" lon="-1.692107">
        <ele>310.6</ele>
        <time>2023-03-26T08:34:12Z</time>
      </trkpt>
      <trkpt lat="38.294090" lon="-1.692154">
        <ele>310.9</ele>
        <time>2023-03-26T08:34:17Z</time>
      </trkpt>
      <trkpt lat="38.294041" lon="-1.692211">
        <ele>308.9</ele>
        <time>2023-03-26T08:34:22Z</time>
      </trkpt>
      <trkpt lat="38.293977" lon="-1.692253">
        <ele>309.9</ele>
        <time>2023-03-26T08:34:28Z</time>
      </trkpt>
      <trkpt lat="38.293913" lon="-1.692254">
        <ele>310.8</ele>
        <time>2023-03-26T08:34:33Z</time>
      </trkpt>
      <trkpt lat="38.293855" lon="-1.692300">
        <ele>310.9</ele>
        <time>2023-03-26T08:34:37Z</time>
      </trkpt>
      <trkpt lat="38.293807" lon="-1.692356">
        <ele>310.9</ele>
        <time>2023-03-26T08:34:42Z</time>
      </trkpt>
      <trkpt lat="38.293745" lon="-1.692385">
        <ele>310.0</ele>
        <time>2023-03-26T08:34:48Z</time>
      </trkpt>
      <trkpt lat="38.293680" lon="-1.692421">
        <ele>310.9</ele>
        <time>2023-03-26T08:34:53Z</time>
      </trkpt>
      <trkpt lat="38.293628" lon="-1.692468">
        <ele>312.9</ele>
        <time>2023-03-26T08:34:58Z</time>
      </trkpt>
      <trkpt lat="38.293570" lon="-1.692510">
        <ele>311.9</ele>
        <time>2023-03-26T08:35:03Z</time>
      </trkpt>
      <trkpt lat="38.293508" lon="-1.692534">
        <ele>312.9</ele>
        <time>2023-03-26T08:35:08Z</time>
      </trkpt>
      <trkpt lat="38.293441" lon="-1.692548">
        <ele>313.6</ele>
        <time>2023-03-26T08:35:13Z</time>
      </trkpt>
      <trkpt lat="38.293378" lon="-1.692575">
        <ele>312.9</ele>
        <time>2023-03-26T08:35:18Z</time>
      </trkpt>
      <trkpt lat="38.293317" lon="-1.692615">
        <ele>312.9</ele>
        <time>2023-03-26T08:35:24Z</time>
      </trkpt>
      <trkpt lat="38.293258" lon="-1.692659">
        <ele>312.8</ele>
        <time>2023-03-26T08:35:29Z</time>
      </trkpt>
      <trkpt lat="38.293203" lon="-1.692700">
        <ele>311.9</ele>
        <time>2023-03-26T08:35:34Z</time>
      </trkpt>
      <trkpt lat="38.293144" lon="-1.692737">
        <ele>310.9</ele>
        <time>2023-03-26T08:35:40Z</time>
      </trkpt>
      <trkpt lat="38.293078" lon="-1.692768">
        <ele>311.8</ele>
        <time>2023-03-26T08:35:45Z</time>
      </trkpt>
      <trkpt lat="38.293019" lon="-1.692796">
        <ele>311.9</ele>
        <time>2023-03-26T08:35:50Z</time>
      </trkpt>
      <trkpt lat="38.292953" lon="-1.692829">
        <ele>312.9</ele>
        <time>2023-03-26T08:35:56Z</time>
      </trkpt>
      <trkpt lat="38.292889" lon="-1.692867">
        <ele>312.9</ele>
        <time>2023-03-26T08:36:01Z</time>
      </trkpt>
      <trkpt lat="38.292825" lon="-1.692895">
        <ele>312.9</ele>
        <time>2023-03-26T08:36:06Z</time>
      </trkpt>
      <trkpt lat="38.292762" lon="-1.692913">
        <ele>312.8</ele>
        <time>2023-03-26T08:36:11Z</time>
      </trkpt>
      <trkpt lat="38.292694" lon="-1.692935">
        <ele>311.9</ele>
        <time>2023-03-26T08:36:17Z</time>
      </trkpt>
      <trkpt lat="38.292628" lon="-1.692963">
        <ele>311.9</ele>
        <time>2023-03-26T08:36:22Z</time>
      </trkpt>
      <trkpt lat="38.292565" lon="-1.692976">
        <ele>310.9</ele>
        <time>2023-03-26T08:36:26Z</time>
      </trkpt>
      <trkpt lat="38.292500" lon="-1.692985">
        <ele>310.9</ele>
        <time>2023-03-26T08:36:30Z</time>
      </trkpt>
      <trkpt lat="38.292435" lon="-1.692978">
        <ele>309.9</ele>
        <time>2023-03-26T08:36:35Z</time>
      </trkpt>
      <trkpt lat="38.292366" lon="-1.692979">
        <ele>308.9</ele>
        <time>2023-03-26T08:36:41Z</time>
      </trkpt>
      <trkpt lat="38.292300" lon="-1.692993">
        <ele>307.9</ele>
        <time>2023-03-26T08:36:46Z</time>
      </trkpt>
      <trkpt lat="38.292232" lon="-1.693011">
        <ele>307.9</ele>
        <time>2023-03-26T08:36:51Z</time>
      </trkpt>
      <trkpt lat="38.292166" lon="-1.693019">
        <ele>309.6</ele>
        <time>2023-03-26T08:36:56Z</time>
      </trkpt>
      <trkpt lat="38.292095" lon="-1.693038">
        <ele>309.9</ele>
        <time>2023-03-26T08:37:01Z</time>
      </trkpt>
      <trkpt lat="38.292029" lon="-1.693048">
        <ele>310.9</ele>
        <time>2023-03-26T08:37:06Z</time>
      </trkpt>
      <trkpt lat="38.291967" lon="-1.693084">
        <ele>310.9</ele>
        <time>2023-03-26T08:37:11Z</time>
      </trkpt>
      <trkpt lat="38.291901" lon="-1.693113">
        <ele>309.9</ele>
        <time>2023-03-26T08:37:16Z</time>
      </trkpt>
      <trkpt lat="38.291846" lon="-1.693154">
        <ele>309.9</ele>
        <time>2023-03-26T08:37:21Z</time>
      </trkpt>
      <trkpt lat="38.291785" lon="-1.693192">
        <ele>310.9</ele>
        <time>2023-03-26T08:37:26Z</time>
      </trkpt>
      <trkpt lat="38.291728" lon="-1.693228">
        <ele>310.9</ele>
        <time>2023-03-26T08:37:31Z</time>
      </trkpt>
      <trkpt lat="38.291666" lon="-1.693284">
        <ele>310.9</ele>
        <time>2023-03-26T08:37:37Z</time>
      </trkpt>
      <trkpt lat="38.291625" lon="-1.693352">
        <ele>309.9</ele>
        <time>2023-03-26T08:37:43Z</time>
      </trkpt>
      <trkpt lat="38.291589" lon="-1.693421">
        <ele>308.9</ele>
        <time>2023-03-26T08:37:48Z</time>
      </trkpt>
      <trkpt lat="38.291537" lon="-1.693478">
        <ele>309.9</ele>
        <time>2023-03-26T08:37:55Z</time>
      </trkpt>
      <trkpt lat="38.291485" lon="-1.693525">
        <ele>310.9</ele>
        <time>2023-03-26T08:38:06Z</time>
      </trkpt>
      <trkpt lat="38.291452" lon="-1.693595">
        <ele>310.9</ele>
        <time>2023-03-26T08:38:13Z</time>
      </trkpt>
      <trkpt lat="38.291411" lon="-1.693662">
        <ele>310.9</ele>
        <time>2023-03-26T08:38:18Z</time>
      </trkpt>
      <trkpt lat="38.291351" lon="-1.693708">
        <ele>311.8</ele>
        <time>2023-03-26T08:38:24Z</time>
      </trkpt>
      <trkpt lat="38.291295" lon="-1.693750">
        <ele>311.9</ele>
        <time>2023-03-26T08:38:30Z</time>
      </trkpt>
      <trkpt lat="38.291257" lon="-1.693815">
        <ele>310.9</ele>
        <time>2023-03-26T08:38:36Z</time>
      </trkpt>
      <trkpt lat="38.291215" lon="-1.693882">
        <ele>309.9</ele>
        <time>2023-03-26T08:38:44Z</time>
      </trkpt>
      <trkpt lat="38.291190" lon="-1.693962">
        <ele>309.9</ele>
        <time>2023-03-26T08:38:49Z</time>
      </trkpt>
      <trkpt lat="38.291190" lon="-1.694045">
        <ele>311.9</ele>
        <time>2023-03-26T08:39:03Z</time>
      </trkpt>
      <trkpt lat="38.291136" lon="-1.694095">
        <ele>312.6</ele>
        <time>2023-03-26T08:39:07Z</time>
      </trkpt>
      <trkpt lat="38.291074" lon="-1.694122">
        <ele>312.9</ele>
        <time>2023-03-26T08:39:11Z</time>
      </trkpt>
      <trkpt lat="38.291014" lon="-1.694155">
        <ele>314.9</ele>
        <time>2023-03-26T08:39:16Z</time>
      </trkpt>
      <trkpt lat="38.290955" lon="-1.694201">
        <ele>314.9</ele>
        <time>2023-03-26T08:39:20Z</time>
      </trkpt>
      <trkpt lat="38.290893" lon="-1.694223">
        <ele>314.9</ele>
        <time>2023-03-26T08:39:26Z</time>
      </trkpt>
      <trkpt lat="38.290843" lon="-1.694170">
        <ele>314.9</ele>
        <time>2023-03-26T08:39:35Z</time>
      </trkpt>
      <trkpt lat="38.290792" lon="-1.694119">
        <ele>313.9</ele>
        <time>2023-03-26T08:39:41Z</time>
      </trkpt>
      <trkpt lat="38.290724" lon="-1.694105">
        <ele>312.9</ele>
        <time>2023-03-26T08:39:47Z</time>
      </trkpt>
      <trkpt lat="38.290672" lon="-1.694055">
        <ele>312.9</ele>
        <time>2023-03-26T08:39:51Z</time>
      </trkpt>
      <trkpt lat="38.290616" lon="-1.693996">
        <ele>313.9</ele>
        <time>2023-03-26T08:39:56Z</time>
      </trkpt>
      <trkpt lat="38.290561" lon="-1.693947">
        <ele>313.9</ele>
        <time>2023-03-26T08:40:01Z</time>
      </trkpt>
      <trkpt lat="38.290496" lon="-1.693925">
        <ele>313.9</ele>
        <time>2023-03-26T08:40:06Z</time>
      </trkpt>
      <trkpt lat="38.290432" lon="-1.693894">
        <ele>312.9</ele>
        <time>2023-03-26T08:40:11Z</time>
      </trkpt>
      <trkpt lat="38.290366" lon="-1.693868">
        <ele>313.8</ele>
        <time>2023-03-26T08:40:16Z</time>
      </trkpt>
      <trkpt lat="38.290300" lon="-1.693834">
        <ele>313.9</ele>
        <time>2023-03-26T08:40:20Z</time>
      </trkpt>
      <trkpt lat="38.290233" lon="-1.693802">
        <ele>312.9</ele>
        <time>2023-03-26T08:40:25Z</time>
      </trkpt>
      <trkpt lat="38.290172" lon="-1.693777">
        <ele>311.9</ele>
        <time>2023-03-26T08:40:31Z</time>
      </trkpt>
      <trkpt lat="38.290115" lon="-1.693742">
        <ele>312.8</ele>
        <time>2023-03-26T08:40:35Z</time>
      </trkpt>
      <trkpt lat="38.290048" lon="-1.693718">
        <ele>311.9</ele>
        <time>2023-03-26T08:40:41Z</time>
      </trkpt>
      <trkpt lat="38.289981" lon="-1.693692">
        <ele>312.0</ele>
        <time>2023-03-26T08:40:46Z</time>
      </trkpt>
      <trkpt lat="38.289922" lon="-1.693664">
        <ele>311.9</ele>
        <time>2023-03-26T08:40:50Z</time>
      </trkpt>
      <trkpt lat="38.289860" lon="-1.693634">
        <ele>311.9</ele>
        <time>2023-03-26T08:40:54Z</time>
      </trkpt>
      <trkpt lat="38.289794" lon="-1.693596">
        <ele>312.9</ele>
        <time>2023-03-26T08:40:59Z</time>
      </trkpt>
      <trkpt lat="38.289725" lon="-1.693567">
        <ele>313.0</ele>
        <time>2023-03-26T08:41:04Z</time>
      </trkpt>
      <trkpt lat="38.289669" lon="-1.693524">
        <ele>312.9</ele>
        <time>2023-03-26T08:41:11Z</time>
      </trkpt>
      <trkpt lat="38.289615" lon="-1.693483">
        <ele>311.9</ele>
        <time>2023-03-26T08:41:15Z</time>
      </trkpt>
      <trkpt lat="38.289559" lon="-1.693444">
        <ele>311.9</ele>
        <time>2023-03-26T08:41:20Z</time>
      </trkpt>
      <trkpt lat="38.289507" lon="-1.693396">
        <ele>312.9</ele>
        <time>2023-03-26T08:41:24Z</time>
      </trkpt>
      <trkpt lat="38.289448" lon="-1.693356">
        <ele>312.0</ele>
        <time>2023-03-26T08:41:31Z</time>
      </trkpt>
      <trkpt lat="38.289395" lon="-1.693308">
        <ele>311.9</ele>
        <time>2023-03-26T08:41:36Z</time>
      </trkpt>
      <trkpt lat="38.289342" lon="-1.693263">
        <ele>311.9</ele>
        <time>2023-03-26T08:41:42Z</time>
      </trkpt>
      <trkpt lat="38.289290" lon="-1.693215">
        <ele>310.9</ele>
        <time>2023-03-26T08:41:47Z</time>
      </trkpt>
      <trkpt lat="38.289237" lon="-1.693169">
        <ele>309.9</ele>
        <time>2023-03-26T08:41:52Z</time>
      </trkpt>
      <trkpt lat="38.289178" lon="-1.693136">
        <ele>308.9</ele>
        <time>2023-03-26T08:41:56Z</time>
      </trkpt>
      <trkpt lat="38.289125" lon="-1.693086">
        <ele>307.9</ele>
        <time>2023-03-26T08:42:01Z</time>
      </trkpt>
      <trkpt lat="38.289092" lon="-1.693015">
        <ele>306.9</ele>
        <time>2023-03-26T08:42:06Z</time>
      </trkpt>
      <trkpt lat="38.289035" lon="-1.692958">
        <ele>306.9</ele>
        <time>2023-03-26T08:42:11Z</time>
      </trkpt>
      <trkpt lat="38.288988" lon="-1.692901">
        <ele>308.0</ele>
        <time>2023-03-26T08:42:16Z</time>
      </trkpt>
      <trkpt lat="38.288951" lon="-1.692834">
        <ele>306.9</ele>
        <time>2023-03-26T08:42:22Z</time>
      </trkpt>
      <trkpt lat="38.288911" lon="-1.692765">
        <ele>308.1</ele>
        <time>2023-03-26T08:42:29Z</time>
      </trkpt>
      <trkpt lat="38.288862" lon="-1.692710">
        <ele>306.9</ele>
        <time>2023-03-26T08:42:34Z</time>
      </trkpt>
      <trkpt lat="38.288807" lon="-1.692661">
        <ele>306.0</ele>
        <time>2023-03-26T08:42:40Z</time>
      </trkpt>
      <trkpt lat="38.288744" lon="-1.692637">
        <ele>305.9</ele>
        <time>2023-03-26T08:42:45Z</time>
      </trkpt>
      <trkpt lat="38.288681" lon="-1.692619">
        <ele>304.9</ele>
        <time>2023-03-26T08:42:51Z</time>
      </trkpt>
      <trkpt lat="38.288618" lon="-1.692586">
        <ele>304.9</ele>
        <time>2023-03-26T08:42:56Z</time>
      </trkpt>
      <trkpt lat="38.288558" lon="-1.692561">
        <ele>304.9</ele>
        <time>2023-03-26T08:43:01Z</time>
      </trkpt>
      <trkpt lat="38.288498" lon="-1.692530">
        <ele>307.7</ele>
        <time>2023-03-26T08:43:05Z</time>
      </trkpt>
      <trkpt lat="38.288432" lon="-1.692504">
        <ele>309.9</ele>
        <time>2023-03-26T08:43:10Z</time>
      </trkpt>
      <trkpt lat="38.288366" lon="-1.692491">
        <ele>311.9</ele>
        <time>2023-03-26T08:43:14Z</time>
      </trkpt>
      <trkpt lat="38.288297" lon="-1.692475">
        <ele>310.9</ele>
        <time>2023-03-26T08:43:19Z</time>
      </trkpt>
      <trkpt lat="38.288230" lon="-1.692460">
        <ele>311.9</ele>
        <time>2023-03-26T08:43:24Z</time>
      </trkpt>
      <trkpt lat="38.288161" lon="-1.692453">
        <ele>312.7</ele>
        <time>2023-03-26T08:43:30Z</time>
      </trkpt>
      <trkpt lat="38.288097" lon="-1.692461">
        <ele>312.9</ele>
        <time>2023-03-26T08:43:34Z</time>
      </trkpt>
      <trkpt lat="38.288043" lon="-1.692505">
        <ele>310.0</ele>
        <time>2023-03-26T08:43:40Z</time>
      </trkpt>
      <trkpt lat="38.288020" lon="-1.692581">
        <ele>308.2</ele>
        <time>2023-03-26T08:43:49Z</time>
      </trkpt>
      <trkpt lat="38.287957" lon="-1.692597">
        <ele>308.9</ele>
        <time>2023-03-26T08:44:05Z</time>
      </trkpt>
      <trkpt lat="38.287893" lon="-1.692625">
        <ele>310.9</ele>
        <time>2023-03-26T08:44:09Z</time>
      </trkpt>
      <trkpt lat="38.287828" lon="-1.692649">
        <ele>309.9</ele>
        <time>2023-03-26T08:44:15Z</time>
      </trkpt>
      <trkpt lat="38.287761" lon="-1.692653">
        <ele>309.9</ele>
        <time>2023-03-26T08:44:19Z</time>
      </trkpt>
      <trkpt lat="38.287688" lon="-1.692649">
        <ele>309.9</ele>
        <time>2023-03-26T08:44:24Z</time>
      </trkpt>
      <trkpt lat="38.287624" lon="-1.692631">
        <ele>311.9</ele>
        <time>2023-03-26T08:44:29Z</time>
      </trkpt>
      <trkpt lat="38.287564" lon="-1.692607">
        <ele>310.9</ele>
        <time>2023-03-26T08:44:45Z</time>
      </trkpt>
      <trkpt lat="38.287501" lon="-1.692578">
        <ele>310.9</ele>
        <time>2023-03-26T08:44:49Z</time>
      </trkpt>
      <trkpt lat="38.287438" lon="-1.692566">
        <ele>311.9</ele>
        <time>2023-03-26T08:44:57Z</time>
      </trkpt>
      <trkpt lat="38.287373" lon="-1.692593">
        <ele>311.9</ele>
        <time>2023-03-26T08:45:10Z</time>
      </trkpt>
      <trkpt lat="38.287301" lon="-1.692595">
        <ele>306.9</ele>
        <time>2023-03-26T08:46:40Z</time>
      </trkpt>
      <trkpt lat="38.287235" lon="-1.692589">
        <ele>307.9</ele>
        <time>2023-03-26T08:46:45Z</time>
      </trkpt>
      <trkpt lat="38.287185" lon="-1.692540">
        <ele>308.0</ele>
        <time>2023-03-26T08:46:51Z</time>
      </trkpt>
      <trkpt lat="38.287122" lon="-1.692552">
        <ele>308.9</ele>
        <time>2023-03-26T08:46:55Z</time>
      </trkpt>
      <trkpt lat="38.287058" lon="-1.692555">
        <ele>308.9</ele>
        <time>2023-03-26T08:47:00Z</time>
      </trkpt>
      <trkpt lat="38.286995" lon="-1.692547">
        <ele>308.9</ele>
        <time>2023-03-26T08:47:05Z</time>
      </trkpt>
      <trkpt lat="38.286927" lon="-1.692547">
        <ele>307.9</ele>
        <time>2023-03-26T08:47:10Z</time>
      </trkpt>
      <trkpt lat="38.286875" lon="-1.692494">
        <ele>303.0</ele>
        <time>2023-03-26T08:47:27Z</time>
      </trkpt>
      <trkpt lat="38.286809" lon="-1.692489">
        <ele>302.9</ele>
        <time>2023-03-26T08:47:32Z</time>
      </trkpt>
      <trkpt lat="38.286744" lon="-1.692468">
        <ele>302.9</ele>
        <time>2023-03-26T08:47:37Z</time>
      </trkpt>
      <trkpt lat="38.286674" lon="-1.692448">
        <ele>301.9</ele>
        <time>2023-03-26T08:47:44Z</time>
      </trkpt>
      <trkpt lat="38.286613" lon="-1.692416">
        <ele>302.9</ele>
        <time>2023-03-26T08:47:49Z</time>
      </trkpt>
      <trkpt lat="38.286557" lon="-1.692374">
        <ele>305.7</ele>
        <time>2023-03-26T08:47:52Z</time>
      </trkpt>
      <trkpt lat="38.286490" lon="-1.692350">
        <ele>305.9</ele>
        <time>2023-03-26T08:47:57Z</time>
      </trkpt>
      <trkpt lat="38.286423" lon="-1.692320">
        <ele>306.9</ele>
        <time>2023-03-26T08:48:02Z</time>
      </trkpt>
      <trkpt lat="38.286361" lon="-1.692289">
        <ele>307.9</ele>
        <time>2023-03-26T08:48:06Z</time>
      </trkpt>
      <trkpt lat="38.286299" lon="-1.692270">
        <ele>307.9</ele>
        <time>2023-03-26T08:48:11Z</time>
      </trkpt>
      <trkpt lat="38.286234" lon="-1.692247">
        <ele>308.0</ele>
        <time>2023-03-26T08:48:15Z</time>
      </trkpt>
      <trkpt lat="38.286172" lon="-1.692211">
        <ele>306.9</ele>
        <time>2023-03-26T08:48:21Z</time>
      </trkpt>
      <trkpt lat="38.286111" lon="-1.692174">
        <ele>305.9</ele>
        <time>2023-03-26T08:48:27Z</time>
      </trkpt>
      <trkpt lat="38.286047" lon="-1.692148">
        <ele>306.9</ele>
        <time>2023-03-26T08:48:32Z</time>
      </trkpt>
      <trkpt lat="38.285988" lon="-1.692117">
        <ele>307.9</ele>
        <time>2023-03-26T08:48:37Z</time>
      </trkpt>
      <trkpt lat="38.285933" lon="-1.692068">
        <ele>305.9</ele>
        <time>2023-03-26T08:48:43Z</time>
      </trkpt>
      <trkpt lat="38.285882" lon="-1.692015">
        <ele>305.9</ele>
        <time>2023-03-26T08:48:48Z</time>
      </trkpt>
      <trkpt lat="38.285822" lon="-1.691973">
        <ele>304.9</ele>
        <time>2023-03-26T08:48:54Z</time>
      </trkpt>
      <trkpt lat="38.285761" lon="-1.691952">
        <ele>304.0</ele>
        <time>2023-03-26T08:48:58Z</time>
      </trkpt>
      <trkpt lat="38.285705" lon="-1.691900">
        <ele>304.9</ele>
        <time>2023-03-26T08:49:36Z</time>
      </trkpt>
      <trkpt lat="38.285643" lon="-1.691871">
        <ele>304.9</ele>
        <time>2023-03-26T08:49:40Z</time>
      </trkpt>
      <trkpt lat="38.285584" lon="-1.691833">
        <ele>304.9</ele>
        <time>2023-03-26T08:49:45Z</time>
      </trkpt>
      <trkpt lat="38.285544" lon="-1.691767">
        <ele>302.9</ele>
        <time>2023-03-26T08:49:57Z</time>
      </trkpt>
      <trkpt lat="38.285526" lon="-1.691689">
        <ele>305.2</ele>
        <time>2023-03-26T08:50:12Z</time>
      </trkpt>
      <trkpt lat="38.285524" lon="-1.691597">
        <ele>303.9</ele>
        <time>2023-03-26T08:50:19Z</time>
      </trkpt>
      <trkpt lat="38.285503" lon="-1.691510">
        <ele>302.9</ele>
        <time>2023-03-26T08:50:24Z</time>
      </trkpt>
      <trkpt lat="38.285470" lon="-1.691431">
        <ele>300.0</ele>
        <time>2023-03-26T08:50:30Z</time>
      </trkpt>
      <trkpt lat="38.285444" lon="-1.691351">
        <ele>299.9</ele>
        <time>2023-03-26T08:50:36Z</time>
      </trkpt>
      <trkpt lat="38.285414" lon="-1.691272">
        <ele>298.9</ele>
        <time>2023-03-26T08:50:43Z</time>
      </trkpt>
      <trkpt lat="38.285399" lon="-1.691186">
        <ele>297.9</ele>
        <time>2023-03-26T08:50:48Z</time>
      </trkpt>
      <trkpt lat="38.285399" lon="-1.691102">
        <ele>298.9</ele>
        <time>2023-03-26T08:50:53Z</time>
      </trkpt>
      <trkpt lat="38.285388" lon="-1.691015">
        <ele>298.9</ele>
        <time>2023-03-26T08:50:59Z</time>
      </trkpt>
      <trkpt lat="38.285383" lon="-1.690925">
        <ele>298.9</ele>
        <time>2023-03-26T08:51:04Z</time>
      </trkpt>
      <trkpt lat="38.285382" lon="-1.690837">
        <ele>297.9</ele>
        <time>2023-03-26T08:51:09Z</time>
      </trkpt>
      <trkpt lat="38.285362" lon="-1.690748">
        <ele>296.0</ele>
        <time>2023-03-26T08:51:14Z</time>
      </trkpt>
      <trkpt lat="38.285357" lon="-1.690664">
        <ele>293.9</ele>
        <time>2023-03-26T08:51:19Z</time>
      </trkpt>
      <trkpt lat="38.285364" lon="-1.690580">
        <ele>295.9</ele>
        <time>2023-03-26T08:51:26Z</time>
      </trkpt>
      <trkpt lat="38.285299" lon="-1.690617">
        <ele>297.9</ele>
        <time>2023-03-26T08:51:42Z</time>
      </trkpt>
      <trkpt lat="38.285335" lon="-1.690546">
        <ele>299.9</ele>
        <time>2023-03-26T08:51:57Z</time>
      </trkpt>
      <trkpt lat="38.285392" lon="-1.690499">
        <ele>298.9</ele>
        <time>2023-03-26T08:52:02Z</time>
      </trkpt>
      <trkpt lat="38.285452" lon="-1.690445">
        <ele>295.2</ele>
        <time>2023-03-26T08:52:08Z</time>
      </trkpt>
      <trkpt lat="38.285473" lon="-1.690363">
        <ele>294.9</ele>
        <time>2023-03-26T08:52:12Z</time>
      </trkpt>
      <trkpt lat="38.285529" lon="-1.690317">
        <ele>294.9</ele>
        <time>2023-03-26T08:52:15Z</time>
      </trkpt>
      <trkpt lat="38.285574" lon="-1.690252">
        <ele>294.2</ele>
        <time>2023-03-26T08:52:20Z</time>
      </trkpt>
      <trkpt lat="38.285610" lon="-1.690174">
        <ele>294.9</ele>
        <time>2023-03-26T08:52:57Z</time>
      </trkpt>
      <trkpt lat="38.285621" lon="-1.690091">
        <ele>294.0</ele>
        <time>2023-03-26T08:53:02Z</time>
      </trkpt>
      <trkpt lat="38.285610" lon="-1.690012">
        <ele>294.9</ele>
        <time>2023-03-26T08:53:06Z</time>
      </trkpt>
      <trkpt lat="38.285594" lon="-1.689934">
        <ele>293.9</ele>
        <time>2023-03-26T08:53:11Z</time>
      </trkpt>
      <trkpt lat="38.285562" lon="-1.689861">
        <ele>294.0</ele>
        <time>2023-03-26T08:53:16Z</time>
      </trkpt>
      <trkpt lat="38.285538" lon="-1.689783">
        <ele>295.9</ele>
        <time>2023-03-26T08:53:22Z</time>
      </trkpt>
      <trkpt lat="38.285544" lon="-1.689702">
        <ele>297.9</ele>
        <time>2023-03-26T08:54:09Z</time>
      </trkpt>
      <trkpt lat="38.285493" lon="-1.689644">
        <ele>297.9</ele>
        <time>2023-03-26T08:54:14Z</time>
      </trkpt>
      <trkpt lat="38.285455" lon="-1.689580">
        <ele>297.9</ele>
        <time>2023-03-26T08:54:35Z</time>
      </trkpt>
      <trkpt lat="38.285473" lon="-1.689502">
        <ele>297.9</ele>
        <time>2023-03-26T08:54:42Z</time>
      </trkpt>
      <trkpt lat="38.285477" lon="-1.689414">
        <ele>297.9</ele>
        <time>2023-03-26T08:55:02Z</time>
      </trkpt>
      <trkpt lat="38.285431" lon="-1.689482">
        <ele>301.9</ele>
        <time>2023-03-26T08:55:18Z</time>
      </trkpt>
      <trkpt lat="38.285417" lon="-1.689564">
        <ele>301.9</ele>
        <time>2023-03-26T08:55:40Z</time>
      </trkpt>
      <trkpt lat="38.285357" lon="-1.689615">
        <ele>299.0</ele>
        <time>2023-03-26T08:55:53Z</time>
      </trkpt>
      <trkpt lat="38.285290" lon="-1.689636">
        <ele>298.9</ele>
        <time>2023-03-26T08:55:57Z</time>
      </trkpt>
      <trkpt lat="38.285226" lon="-1.689609">
        <ele>298.9</ele>
        <time>2023-03-26T08:56:04Z</time>
      </trkpt>
      <trkpt lat="38.285167" lon="-1.689653">
        <ele>298.9</ele>
        <time>2023-03-26T08:56:07Z</time>
      </trkpt>
      <trkpt lat="38.285109" lon="-1.689687">
        <ele>300.9</ele>
        <time>2023-03-26T08:56:11Z</time>
      </trkpt>
      <trkpt lat="38.285052" lon="-1.689722">
        <ele>299.9</ele>
        <time>2023-03-26T08:56:16Z</time>
      </trkpt>
      <trkpt lat="38.284990" lon="-1.689751">
        <ele>298.9</ele>
        <time>2023-03-26T08:56:21Z</time>
      </trkpt>
      <trkpt lat="38.284936" lon="-1.689801">
        <ele>298.9</ele>
        <time>2023-03-26T08:56:26Z</time>
      </trkpt>
      <trkpt lat="38.284881" lon="-1.689856">
        <ele>298.9</ele>
        <time>2023-03-26T08:56:31Z</time>
      </trkpt>
      <trkpt lat="38.284825" lon="-1.689902">
        <ele>297.9</ele>
        <time>2023-03-26T08:56:36Z</time>
      </trkpt>
      <trkpt lat="38.284771" lon="-1.689944">
        <ele>296.0</ele>
        <time>2023-03-26T08:56:40Z</time>
      </trkpt>
      <trkpt lat="38.284711" lon="-1.689969">
        <ele>296.9</ele>
        <time>2023-03-26T08:56:45Z</time>
      </trkpt>
      <trkpt lat="38.284659" lon="-1.690016">
        <ele>295.9</ele>
        <time>2023-03-26T08:56:50Z</time>
      </trkpt>
      <trkpt lat="38.284626" lon="-1.690086">
        <ele>296.9</ele>
        <time>2023-03-26T08:56:56Z</time>
      </trkpt>
      <trkpt lat="38.284573" lon="-1.690134">
        <ele>297.9</ele>
        <time>2023-03-26T08:57:17Z</time>
      </trkpt>
      <trkpt lat="38.284503" lon="-1.690138">
        <ele>298.2</ele>
        <time>2023-03-26T08:57:22Z</time>
      </trkpt>
      <trkpt lat="38.284442" lon="-1.690183">
        <ele>296.9</ele>
        <time>2023-03-26T08:57:26Z</time>
      </trkpt>
      <trkpt lat="38.284403" lon="-1.690257">
        <ele>298.9</ele>
        <time>2023-03-26T08:57:31Z</time>
      </trkpt>
      <trkpt lat="38.284355" lon="-1.690311">
        <ele>298.9</ele>
        <time>2023-03-26T08:57:36Z</time>
      </trkpt>
      <trkpt lat="38.284299" lon="-1.690358">
        <ele>299.2</ele>
        <time>2023-03-26T08:57:40Z</time>
      </trkpt>
      <trkpt lat="38.284259" lon="-1.690420">
        <ele>297.9</ele>
        <time>2023-03-26T08:58:05Z</time>
      </trkpt>
      <trkpt lat="38.284212" lon="-1.690482">
        <ele>298.9</ele>
        <time>2023-03-26T08:58:09Z</time>
      </trkpt>
      <trkpt lat="38.284158" lon="-1.690524">
        <ele>298.9</ele>
        <time>2023-03-26T08:58:14Z</time>
      </trkpt>
      <trkpt lat="38.284108" lon="-1.690582">
        <ele>298.9</ele>
        <time>2023-03-26T08:58:19Z</time>
      </trkpt>
      <trkpt lat="38.284056" lon="-1.690629">
        <ele>299.0</ele>
        <time>2023-03-26T08:58:23Z</time>
      </trkpt>
      <trkpt lat="38.283999" lon="-1.690678">
        <ele>297.9</ele>
        <time>2023-03-26T08:58:28Z</time>
      </trkpt>
      <trkpt lat="38.283940" lon="-1.690738">
        <ele>298.9</ele>
        <time>2023-03-26T08:58:34Z</time>
      </trkpt>
      <trkpt lat="38.283884" lon="-1.690785">
        <ele>300.7</ele>
        <time>2023-03-26T08:58:38Z</time>
      </trkpt>
      <trkpt lat="38.283829" lon="-1.690828">
        <ele>301.9</ele>
        <time>2023-03-26T08:58:43Z</time>
      </trkpt>
      <trkpt lat="38.283776" lon="-1.690878">
        <ele>301.0</ele>
        <time>2023-03-26T08:58:47Z</time>
      </trkpt>
      <trkpt lat="38.283724" lon="-1.690937">
        <ele>300.9</ele>
        <time>2023-03-26T08:58:52Z</time>
      </trkpt>
      <trkpt lat="38.283663" lon="-1.690972">
        <ele>299.9</ele>
        <time>2023-03-26T08:59:00Z</time>
      </trkpt>
      <trkpt lat="38.283621" lon="-1.691034">
        <ele>299.9</ele>
        <time>2023-03-26T08:59:03Z</time>
      </trkpt>
      <trkpt lat="38.283569" lon="-1.691082">
        <ele>299.9</ele>
        <time>2023-03-26T08:59:07Z</time>
      </trkpt>
      <trkpt lat="38.283530" lon="-1.691155">
        <ele>298.9</ele>
        <time>2023-03-26T08:59:13Z</time>
      </trkpt>
      <trkpt lat="38.283469" lon="-1.691179">
        <ele>297.0</ele>
        <time>2023-03-26T08:59:18Z</time>
      </trkpt>
      <trkpt lat="38.283416" lon="-1.691227">
        <ele>296.9</ele>
        <time>2023-03-26T08:59:23Z</time>
      </trkpt>
      <trkpt lat="38.283368" lon="-1.691281">
        <ele>296.9</ele>
        <time>2023-03-26T08:59:27Z</time>
      </trkpt>
      <trkpt lat="38.283309" lon="-1.691326">
        <ele>297.9</ele>
        <time>2023-03-26T08:59:32Z</time>
      </trkpt>
      <trkpt lat="38.283250" lon="-1.691367">
        <ele>297.0</ele>
        <time>2023-03-26T08:59:37Z</time>
      </trkpt>
      <trkpt lat="38.283201" lon="-1.691419">
        <ele>297.9</ele>
        <time>2023-03-26T08:59:42Z</time>
      </trkpt>
      <trkpt lat="38.283151" lon="-1.691469">
        <ele>298.9</ele>
        <time>2023-03-26T08:59:46Z</time>
      </trkpt>
      <trkpt lat="38.283096" lon="-1.691521">
        <ele>299.2</ele>
        <time>2023-03-26T08:59:52Z</time>
      </trkpt>
      <trkpt lat="38.283053" lon="-1.691582">
        <ele>298.9</ele>
        <time>2023-03-26T08:59:56Z</time>
      </trkpt>
      <trkpt lat="38.283012" lon="-1.691646">
        <ele>298.9</ele>
        <time>2023-03-26T09:00:01Z</time>
      </trkpt>
      <trkpt lat="38.282958" lon="-1.691694">
        <ele>297.9</ele>
        <time>2023-03-26T09:00:06Z</time>
      </trkpt>
      <trkpt lat="38.282899" lon="-1.691739">
        <ele>296.9</ele>
        <time>2023-03-26T09:00:10Z</time>
      </trkpt>
      <trkpt lat="38.282844" lon="-1.691799">
        <ele>295.9</ele>
        <time>2023-03-26T09:00:16Z</time>
      </trkpt>
      <trkpt lat="38.282800" lon="-1.691860">
        <ele>294.9</ele>
        <time>2023-03-26T09:00:21Z</time>
      </trkpt>
      <trkpt lat="38.282764" lon="-1.691931">
        <ele>294.2</ele>
        <time>2023-03-26T09:00:28Z</time>
      </trkpt>
      <trkpt lat="38.282707" lon="-1.691975">
        <ele>294.9</ele>
        <time>2023-03-26T09:00:34Z</time>
      </trkpt>
      <trkpt lat="38.282658" lon="-1.692033">
        <ele>294.9</ele>
        <time>2023-03-26T09:00:39Z</time>
      </trkpt>
      <trkpt lat="38.282610" lon="-1.692085">
        <ele>294.9</ele>
        <time>2023-03-26T09:00:44Z</time>
      </trkpt>
      <trkpt lat="38.282563" lon="-1.692140">
        <ele>293.9</ele>
        <time>2023-03-26T09:00:49Z</time>
      </trkpt>
      <trkpt lat="38.282513" lon="-1.692192">
        <ele>293.0</ele>
        <time>2023-03-26T09:00:55Z</time>
      </trkpt>
      <trkpt lat="38.282463" lon="-1.692255">
        <ele>292.9</ele>
        <time>2023-03-26T09:01:00Z</time>
      </trkpt>
      <trkpt lat="38.282414" lon="-1.692308">
        <ele>293.9</ele>
        <time>2023-03-26T09:01:05Z</time>
      </trkpt>
      <trkpt lat="38.282360" lon="-1.692363">
        <ele>295.9</ele>
        <time>2023-03-26T09:01:18Z</time>
      </trkpt>
      <trkpt lat="38.282323" lon="-1.692430">
        <ele>295.9</ele>
        <time>2023-03-26T09:01:23Z</time>
      </trkpt>
      <trkpt lat="38.282282" lon="-1.692494">
        <ele>296.9</ele>
        <time>2023-03-26T09:01:28Z</time>
      </trkpt>
      <trkpt lat="38.282239" lon="-1.692556">
        <ele>296.9</ele>
        <time>2023-03-26T09:01:33Z</time>
      </trkpt>
      <trkpt lat="38.282199" lon="-1.692622">
        <ele>297.9</ele>
        <time>2023-03-26T09:01:37Z</time>
      </trkpt>
      <trkpt lat="38.282153" lon="-1.692686">
        <ele>298.9</ele>
        <time>2023-03-26T09:01:42Z</time>
      </trkpt>
      <trkpt lat="38.282116" lon="-1.692760">
        <ele>297.9</ele>
        <time>2023-03-26T09:01:48Z</time>
      </trkpt>
      <trkpt lat="38.282060" lon="-1.692811">
        <ele>297.9</ele>
        <time>2023-03-26T09:01:54Z</time>
      </trkpt>
      <trkpt lat="38.282016" lon="-1.692873">
        <ele>296.9</ele>
        <time>2023-03-26T09:01:59Z</time>
      </trkpt>
      <trkpt lat="38.281974" lon="-1.692942">
        <ele>296.9</ele>
        <time>2023-03-26T09:02:04Z</time>
      </trkpt>
      <trkpt lat="38.281922" lon="-1.692999">
        <ele>298.0</ele>
        <time>2023-03-26T09:02:25Z</time>
      </trkpt>
      <trkpt lat="38.281858" lon="-1.693021">
        <ele>297.9</ele>
        <time>2023-03-26T09:02:31Z</time>
      </trkpt>
      <trkpt lat="38.281795" lon="-1.693006">
        <ele>297.9</ele>
        <time>2023-03-26T09:02:40Z</time>
      </trkpt>
      <trkpt lat="38.281734" lon="-1.692979">
        <ele>297.9</ele>
        <time>2023-03-26T09:02:46Z</time>
      </trkpt>
      <trkpt lat="38.281675" lon="-1.692936">
        <ele>297.9</ele>
        <time>2023-03-26T09:02:50Z</time>
      </trkpt>
      <trkpt lat="38.281610" lon="-1.692911">
        <ele>297.9</ele>
        <time>2023-03-26T09:02:55Z</time>
      </trkpt>
      <trkpt lat="38.281545" lon="-1.692899">
        <ele>298.9</ele>
        <time>2023-03-26T09:03:01Z</time>
      </trkpt>
      <trkpt lat="38.281478" lon="-1.692906">
        <ele>299.9</ele>
        <time>2023-03-26T09:03:07Z</time>
      </trkpt>
      <trkpt lat="38.281411" lon="-1.692912">
        <ele>298.9</ele>
        <time>2023-03-26T09:03:12Z</time>
      </trkpt>
      <trkpt lat="38.281348" lon="-1.692927">
        <ele>299.1</ele>
        <time>2023-03-26T09:03:17Z</time>
      </trkpt>
      <trkpt lat="38.281283" lon="-1.692908">
        <ele>299.9</ele>
        <time>2023-03-26T09:03:22Z</time>
      </trkpt>
      <trkpt lat="38.281232" lon="-1.692859">
        <ele>299.9</ele>
        <time>2023-03-26T09:03:27Z</time>
      </trkpt>
      <trkpt lat="38.281175" lon="-1.692815">
        <ele>299.9</ele>
        <time>2023-03-26T09:03:33Z</time>
      </trkpt>
      <trkpt lat="38.281126" lon="-1.692761">
        <ele>299.7</ele>
        <time>2023-03-26T09:03:38Z</time>
      </trkpt>
      <trkpt lat="38.281089" lon="-1.692693">
        <ele>298.9</ele>
        <time>2023-03-26T09:03:42Z</time>
      </trkpt>
      <trkpt lat="38.281061" lon="-1.692612">
        <ele>298.9</ele>
        <time>2023-03-26T09:03:47Z</time>
      </trkpt>
      <trkpt lat="38.281030" lon="-1.692539">
        <ele>297.9</ele>
        <time>2023-03-26T09:03:52Z</time>
      </trkpt>
      <trkpt lat="38.280990" lon="-1.692468">
        <ele>296.9</ele>
        <time>2023-03-26T09:03:57Z</time>
      </trkpt>
      <trkpt lat="38.280943" lon="-1.692412">
        <ele>297.9</ele>
        <time>2023-03-26T09:04:02Z</time>
      </trkpt>
      <trkpt lat="38.280883" lon="-1.692361">
        <ele>298.0</ele>
        <time>2023-03-26T09:04:07Z</time>
      </trkpt>
      <trkpt lat="38.280820" lon="-1.692350">
        <ele>296.9</ele>
        <time>2023-03-26T09:04:26Z</time>
      </trkpt>
      <trkpt lat="38.280809" lon="-1.692434">
        <ele>297.9</ele>
        <time>2023-03-26T09:04:37Z</time>
      </trkpt>
      <trkpt lat="38.280825" lon="-1.692522">
        <ele>298.9</ele>
        <time>2023-03-26T09:04:43Z</time>
      </trkpt>
      <trkpt lat="38.280809" lon="-1.692600">
        <ele>298.9</ele>
        <time>2023-03-26T09:04:48Z</time>
      </trkpt>
      <trkpt lat="38.280743" lon="-1.692594">
        <ele>302.4</ele>
        <time>2023-03-26T09:04:55Z</time>
      </trkpt>
      <trkpt lat="38.280675" lon="-1.692613">
        <ele>301.9</ele>
        <time>2023-03-26T09:05:10Z</time>
      </trkpt>
      <trkpt lat="38.280701" lon="-1.692607">
        <ele>299.2</ele>
        <time>2023-03-26T09:08:42Z</time>
      </trkpt>
      <trkpt lat="38.280722" lon="-1.692615">
        <ele>299.9</ele>
        <time>2023-03-26T09:24:07Z</time>
      </trkpt>
      <trkpt lat="38.280702" lon="-1.692578">
        <ele>297.4</ele>
        <time>2023-03-26T09:26:34Z</time>
      </trkpt>
      <trkpt lat="38.280700" lon="-1.692489">
        <ele>299.2</ele>
        <time>2023-03-26T09:27:24Z</time>
      </trkpt>
      <trkpt lat="38.280763" lon="-1.692467">
        <ele>298.2</ele>
        <time>2023-03-26T09:27:27Z</time>
      </trkpt>
      <trkpt lat="38.280797" lon="-1.692536">
        <ele>297.9</ele>
        <time>2023-03-26T09:27:31Z</time>
      </trkpt>
      <trkpt lat="38.280833" lon="-1.692609">
        <ele>298.9</ele>
        <time>2023-03-26T09:27:37Z</time>
      </trkpt>
      <trkpt lat="38.280863" lon="-1.692679">
        <ele>298.7</ele>
        <time>2023-03-26T09:27:43Z</time>
      </trkpt>
      <trkpt lat="38.280901" lon="-1.692744">
        <ele>298.9</ele>
        <time>2023-03-26T09:27:50Z</time>
      </trkpt>
      <trkpt lat="38.280940" lon="-1.692813">
        <ele>298.9</ele>
        <time>2023-03-26T09:27:57Z</time>
      </trkpt>
      <trkpt lat="38.280976" lon="-1.692888">
        <ele>299.9</ele>
        <time>2023-03-26T09:28:03Z</time>
      </trkpt>
      <trkpt lat="38.281030" lon="-1.692938">
        <ele>300.9</ele>
        <time>2023-03-26T09:28:10Z</time>
      </trkpt>
      <trkpt lat="38.281082" lon="-1.692991">
        <ele>301.9</ele>
        <time>2023-03-26T09:28:18Z</time>
      </trkpt>
      <trkpt lat="38.281142" lon="-1.693021">
        <ele>303.9</ele>
        <time>2023-03-26T09:28:27Z</time>
      </trkpt>
      <trkpt lat="38.281208" lon="-1.693036">
        <ele>305.9</ele>
        <time>2023-03-26T09:28:36Z</time>
      </trkpt>
      <trkpt lat="38.281273" lon="-1.693069">
        <ele>305.9</ele>
        <time>2023-03-26T09:28:43Z</time>
      </trkpt>
      <trkpt lat="38.281339" lon="-1.693075">
        <ele>305.9</ele>
        <time>2023-03-26T09:28:51Z</time>
      </trkpt>
      <trkpt lat="38.281404" lon="-1.693074">
        <ele>306.9</ele>
        <time>2023-03-26T09:29:00Z</time>
      </trkpt>
      <trkpt lat="38.281469" lon="-1.693084">
        <ele>306.9</ele>
        <time>2023-03-26T09:29:13Z</time>
      </trkpt>
      <trkpt lat="38.281531" lon="-1.693121">
        <ele>306.9</ele>
        <time>2023-03-26T09:29:19Z</time>
      </trkpt>
      <trkpt lat="38.281597" lon="-1.693147">
        <ele>305.9</ele>
        <time>2023-03-26T09:29:24Z</time>
      </trkpt>
      <trkpt lat="38.281660" lon="-1.693170">
        <ele>307.9</ele>
        <time>2023-03-26T09:29:30Z</time>
      </trkpt>
      <trkpt lat="38.281720" lon="-1.693204">
        <ele>307.7</ele>
        <time>2023-03-26T09:29:36Z</time>
      </trkpt>
      <trkpt lat="38.281782" lon="-1.693232">
        <ele>307.9</ele>
        <time>2023-03-26T09:29:41Z</time>
      </trkpt>
      <trkpt lat="38.281836" lon="-1.693274">
        <ele>307.9</ele>
        <time>2023-03-26T09:29:46Z</time>
      </trkpt>
      <trkpt lat="38.281888" lon="-1.693326">
        <ele>306.9</ele>
        <time>2023-03-26T09:30:17Z</time>
      </trkpt>
      <trkpt lat="38.281915" lon="-1.693410">
        <ele>306.9</ele>
        <time>2023-03-26T09:30:21Z</time>
      </trkpt>
      <trkpt lat="38.281912" lon="-1.693501">
        <ele>305.0</ele>
        <time>2023-03-26T09:30:27Z</time>
      </trkpt>
      <trkpt lat="38.281953" lon="-1.693569">
        <ele>303.9</ele>
        <time>2023-03-26T09:30:31Z</time>
      </trkpt>
      <trkpt lat="38.281998" lon="-1.693629">
        <ele>304.7</ele>
        <time>2023-03-26T09:30:36Z</time>
      </trkpt>
      <trkpt lat="38.282022" lon="-1.693706">
        <ele>304.9</ele>
        <time>2023-03-26T09:30:41Z</time>
      </trkpt>
      <trkpt lat="38.282056" lon="-1.693781">
        <ele>304.9</ele>
        <time>2023-03-26T09:30:47Z</time>
      </trkpt>
      <trkpt lat="38.282082" lon="-1.693859">
        <ele>302.2</ele>
        <time>2023-03-26T09:31:00Z</time>
      </trkpt>
      <trkpt lat="38.282117" lon="-1.693927">
        <ele>302.7</ele>
        <time>2023-03-26T09:31:04Z</time>
      </trkpt>
      <trkpt lat="38.282135" lon="-1.694008">
        <ele>304.7</ele>
        <time>2023-03-26T09:31:09Z</time>
      </trkpt>
      <trkpt lat="38.282183" lon="-1.694066">
        <ele>305.7</ele>
        <time>2023-03-26T09:31:14Z</time>
      </trkpt>
      <trkpt lat="38.282247" lon="-1.694092">
        <ele>306.7</ele>
        <time>2023-03-26T09:31:18Z</time>
      </trkpt>
      <trkpt lat="38.282313" lon="-1.694106">
        <ele>304.9</ele>
        <time>2023-03-26T09:31:23Z</time>
      </trkpt>
      <trkpt lat="38.282364" lon="-1.694158">
        <ele>304.9</ele>
        <time>2023-03-26T09:31:28Z</time>
      </trkpt>
      <trkpt lat="38.282395" lon="-1.694230">
        <ele>303.7</ele>
        <time>2023-03-26T09:31:31Z</time>
      </trkpt>
      <trkpt lat="38.282427" lon="-1.694303">
        <ele>302.9</ele>
        <time>2023-03-26T09:31:36Z</time>
      </trkpt>
      <trkpt lat="38.282470" lon="-1.694366">
        <ele>303.9</ele>
        <time>2023-03-26T09:31:40Z</time>
      </trkpt>
      <trkpt lat="38.282514" lon="-1.694430">
        <ele>302.9</ele>
        <time>2023-03-26T09:31:44Z</time>
      </trkpt>
      <trkpt lat="38.282558" lon="-1.694500">
        <ele>301.9</ele>
        <time>2023-03-26T09:31:49Z</time>
      </trkpt>
      <trkpt lat="38.282567" lon="-1.694592">
        <ele>301.9</ele>
        <time>2023-03-26T09:31:54Z</time>
      </trkpt>
      <trkpt lat="38.282604" lon="-1.694669">
        <ele>301.9</ele>
        <time>2023-03-26T09:32:01Z</time>
      </trkpt>
      <trkpt lat="38.282646" lon="-1.694743">
        <ele>300.9</ele>
        <time>2023-03-26T09:32:05Z</time>
      </trkpt>
      <trkpt lat="38.282662" lon="-1.694828">
        <ele>300.9</ele>
        <time>2023-03-26T09:32:09Z</time>
      </trkpt>
      <trkpt lat="38.282687" lon="-1.694903">
        <ele>300.9</ele>
        <time>2023-03-26T09:32:14Z</time>
      </trkpt>
      <trkpt lat="38.282722" lon="-1.694987">
        <ele>299.9</ele>
        <time>2023-03-26T09:32:19Z</time>
      </trkpt>
      <trkpt lat="38.282736" lon="-1.695069">
        <ele>298.9</ele>
        <time>2023-03-26T09:32:24Z</time>
      </trkpt>
      <trkpt lat="38.282760" lon="-1.695145">
        <ele>297.9</ele>
        <time>2023-03-26T09:32:29Z</time>
      </trkpt>
      <trkpt lat="38.282772" lon="-1.695224">
        <ele>295.0</ele>
        <time>2023-03-26T09:32:34Z</time>
      </trkpt>
      <trkpt lat="38.282761" lon="-1.695304">
        <ele>296.7</ele>
        <time>2023-03-26T09:32:40Z</time>
      </trkpt>
      <trkpt lat="38.282771" lon="-1.695385">
        <ele>296.9</ele>
        <time>2023-03-26T09:32:44Z</time>
      </trkpt>
      <trkpt lat="38.282796" lon="-1.695463">
        <ele>298.7</ele>
        <time>2023-03-26T09:32:49Z</time>
      </trkpt>
      <trkpt lat="38.282805" lon="-1.695547">
        <ele>299.9</ele>
        <time>2023-03-26T09:32:54Z</time>
      </trkpt>
      <trkpt lat="38.282822" lon="-1.695629">
        <ele>299.9</ele>
        <time>2023-03-26T09:33:00Z</time>
      </trkpt>
      <trkpt lat="38.282840" lon="-1.695709">
        <ele>300.9</ele>
        <time>2023-03-26T09:33:05Z</time>
      </trkpt>
      <trkpt lat="38.282874" lon="-1.695777">
        <ele>300.9</ele>
        <time>2023-03-26T09:33:09Z</time>
      </trkpt>
      <trkpt lat="38.282907" lon="-1.695852">
        <ele>301.9</ele>
        <time>2023-03-26T09:33:14Z</time>
      </trkpt>
      <trkpt lat="38.282936" lon="-1.695930">
        <ele>301.9</ele>
        <time>2023-03-26T09:33:19Z</time>
      </trkpt>
      <trkpt lat="38.282953" lon="-1.696022">
        <ele>301.9</ele>
        <time>2023-03-26T09:33:25Z</time>
      </trkpt>
      <trkpt lat="38.282964" lon="-1.696102">
        <ele>301.9</ele>
        <time>2023-03-26T09:33:29Z</time>
      </trkpt>
      <trkpt lat="38.282957" lon="-1.696182">
        <ele>302.0</ele>
        <time>2023-03-26T09:33:33Z</time>
      </trkpt>
      <trkpt lat="38.282960" lon="-1.696263">
        <ele>301.9</ele>
        <time>2023-03-26T09:33:38Z</time>
      </trkpt>
      <trkpt lat="38.282952" lon="-1.696344">
        <ele>300.9</ele>
        <time>2023-03-26T09:33:44Z</time>
      </trkpt>
      <trkpt lat="38.282977" lon="-1.696431">
        <ele>299.9</ele>
        <time>2023-03-26T09:33:48Z</time>
      </trkpt>
      <trkpt lat="38.282981" lon="-1.696513">
        <ele>299.9</ele>
        <time>2023-03-26T09:33:52Z</time>
      </trkpt>
      <trkpt lat="38.282981" lon="-1.696603">
        <ele>300.9</ele>
        <time>2023-03-26T09:33:57Z</time>
      </trkpt>
      <trkpt lat="38.282982" lon="-1.696684">
        <ele>299.9</ele>
        <time>2023-03-26T09:34:01Z</time>
      </trkpt>
      <trkpt lat="38.283008" lon="-1.696760">
        <ele>300.9</ele>
        <time>2023-03-26T09:34:07Z</time>
      </trkpt>
      <trkpt lat="38.283008" lon="-1.696843">
        <ele>300.9</ele>
        <time>2023-03-26T09:34:12Z</time>
      </trkpt>
      <trkpt lat="38.282997" lon="-1.696923">
        <ele>301.9</ele>
        <time>2023-03-26T09:34:16Z</time>
      </trkpt>
      <trkpt lat="38.283002" lon="-1.697006">
        <ele>300.9</ele>
        <time>2023-03-26T09:34:21Z</time>
      </trkpt>
      <trkpt lat="38.283005" lon="-1.697086">
        <ele>299.9</ele>
        <time>2023-03-26T09:34:25Z</time>
      </trkpt>
      <trkpt lat="38.283018" lon="-1.697166">
        <ele>299.2</ele>
        <time>2023-03-26T09:34:30Z</time>
      </trkpt>
      <trkpt lat="38.283023" lon="-1.697255">
        <ele>298.9</ele>
        <time>2023-03-26T09:34:36Z</time>
      </trkpt>
      <trkpt lat="38.283039" lon="-1.697341">
        <ele>298.9</ele>
        <time>2023-03-26T09:34:41Z</time>
      </trkpt>
      <trkpt lat="38.283058" lon="-1.697425">
        <ele>297.9</ele>
        <time>2023-03-26T09:34:46Z</time>
      </trkpt>
      <trkpt lat="38.283077" lon="-1.697508">
        <ele>296.7</ele>
        <time>2023-03-26T09:34:51Z</time>
      </trkpt>
      <trkpt lat="38.283098" lon="-1.697588">
        <ele>295.9</ele>
        <time>2023-03-26T09:34:56Z</time>
      </trkpt>
      <trkpt lat="38.283104" lon="-1.697681">
        <ele>294.9</ele>
        <time>2023-03-26T09:35:02Z</time>
      </trkpt>
      <trkpt lat="38.283118" lon="-1.697764">
        <ele>296.9</ele>
        <time>2023-03-26T09:35:07Z</time>
      </trkpt>
      <trkpt lat="38.283130" lon="-1.697851">
        <ele>295.9</ele>
        <time>2023-03-26T09:35:12Z</time>
      </trkpt>
      <trkpt lat="38.283147" lon="-1.697938">
        <ele>294.9</ele>
        <time>2023-03-26T09:35:17Z</time>
      </trkpt>
      <trkpt lat="38.283187" lon="-1.698001">
        <ele>293.9</ele>
        <time>2023-03-26T09:35:22Z</time>
      </trkpt>
      <trkpt lat="38.283238" lon="-1.698048">
        <ele>293.9</ele>
        <time>2023-03-26T09:35:27Z</time>
      </trkpt>
      <trkpt lat="38.283302" lon="-1.698051">
        <ele>291.9</ele>
        <time>2023-03-26T09:35:32Z</time>
      </trkpt>
      <trkpt lat="38.283367" lon="-1.698058">
        <ele>291.7</ele>
        <time>2023-03-26T09:35:37Z</time>
      </trkpt>
      <trkpt lat="38.283429" lon="-1.698094">
        <ele>293.9</ele>
        <time>2023-03-26T09:35:43Z</time>
      </trkpt>
      <trkpt lat="38.283494" lon="-1.698093">
        <ele>293.9</ele>
        <time>2023-03-26T09:35:48Z</time>
      </trkpt>
      <trkpt lat="38.283563" lon="-1.698111">
        <ele>292.9</ele>
        <time>2023-03-26T09:35:53Z</time>
      </trkpt>
      <trkpt lat="38.283624" lon="-1.698148">
        <ele>292.9</ele>
        <time>2023-03-26T09:35:58Z</time>
      </trkpt>
      <trkpt lat="38.283688" lon="-1.698166">
        <ele>293.9</ele>
        <time>2023-03-26T09:36:03Z</time>
      </trkpt>
      <trkpt lat="38.283752" lon="-1.698166">
        <ele>293.9</ele>
        <time>2023-03-26T09:36:08Z</time>
      </trkpt>
      <trkpt lat="38.283816" lon="-1.698182">
        <ele>293.9</ele>
        <time>2023-03-26T09:36:14Z</time>
      </trkpt>
      <trkpt lat="38.283887" lon="-1.698205">
        <ele>293.9</ele>
        <time>2023-03-26T09:36:19Z</time>
      </trkpt>
      <trkpt lat="38.283945" lon="-1.698257">
        <ele>293.7</ele>
        <time>2023-03-26T09:36:24Z</time>
      </trkpt>
      <trkpt lat="38.283992" lon="-1.698322">
        <ele>292.9</ele>
        <time>2023-03-26T09:36:29Z</time>
      </trkpt>
      <trkpt lat="38.284047" lon="-1.698372">
        <ele>293.7</ele>
        <time>2023-03-26T09:36:35Z</time>
      </trkpt>
      <trkpt lat="38.284111" lon="-1.698400">
        <ele>293.9</ele>
        <time>2023-03-26T09:36:41Z</time>
      </trkpt>
      <trkpt lat="38.284176" lon="-1.698430">
        <ele>296.6</ele>
        <time>2023-03-26T09:36:48Z</time>
      </trkpt>
      <trkpt lat="38.284233" lon="-1.698465">
        <ele>298.9</ele>
        <time>2023-03-26T09:36:54Z</time>
      </trkpt>
      <trkpt lat="38.284278" lon="-1.698526">
        <ele>298.9</ele>
        <time>2023-03-26T09:36:59Z</time>
      </trkpt>
      <trkpt lat="38.284309" lon="-1.698599">
        <ele>299.9</ele>
        <time>2023-03-26T09:37:06Z</time>
      </trkpt>
      <trkpt lat="38.284335" lon="-1.698677">
        <ele>299.9</ele>
        <time>2023-03-26T09:37:15Z</time>
      </trkpt>
      <trkpt lat="38.284365" lon="-1.698752">
        <ele>300.9</ele>
        <time>2023-03-26T09:37:22Z</time>
      </trkpt>
      <trkpt lat="38.284404" lon="-1.698818">
        <ele>300.9</ele>
        <time>2023-03-26T09:37:29Z</time>
      </trkpt>
      <trkpt lat="38.284430" lon="-1.698900">
        <ele>301.9</ele>
        <time>2023-03-26T09:37:36Z</time>
      </trkpt>
      <trkpt lat="38.284450" lon="-1.698977">
        <ele>303.9</ele>
        <time>2023-03-26T09:37:44Z</time>
      </trkpt>
      <trkpt lat="38.284469" lon="-1.699053">
        <ele>303.9</ele>
        <time>2023-03-26T09:37:50Z</time>
      </trkpt>
      <trkpt lat="38.284485" lon="-1.699139">
        <ele>305.9</ele>
        <time>2023-03-26T09:37:56Z</time>
      </trkpt>
      <trkpt lat="38.284517" lon="-1.699219">
        <ele>308.6</ele>
        <time>2023-03-26T09:38:02Z</time>
      </trkpt>
      <trkpt lat="38.284561" lon="-1.699280">
        <ele>310.6</ele>
        <time>2023-03-26T09:38:08Z</time>
      </trkpt>
      <trkpt lat="38.284624" lon="-1.699310">
        <ele>310.9</ele>
        <time>2023-03-26T09:38:13Z</time>
      </trkpt>
      <trkpt lat="38.284686" lon="-1.699325">
        <ele>312.9</ele>
        <time>2023-03-26T09:38:20Z</time>
      </trkpt>
      <trkpt lat="38.284749" lon="-1.699337">
        <ele>313.9</ele>
        <time>2023-03-26T09:38:27Z</time>
      </trkpt>
      <trkpt lat="38.284817" lon="-1.699315">
        <ele>314.9</ele>
        <time>2023-03-26T09:38:33Z</time>
      </trkpt>
      <trkpt lat="38.284884" lon="-1.699315">
        <ele>315.8</ele>
        <time>2023-03-26T09:38:40Z</time>
      </trkpt>
      <trkpt lat="38.284949" lon="-1.699332">
        <ele>315.9</ele>
        <time>2023-03-26T09:38:46Z</time>
      </trkpt>
      <trkpt lat="38.285017" lon="-1.699338">
        <ele>317.9</ele>
        <time>2023-03-26T09:38:53Z</time>
      </trkpt>
      <trkpt lat="38.285080" lon="-1.699343">
        <ele>317.9</ele>
        <time>2023-03-26T09:38:59Z</time>
      </trkpt>
      <trkpt lat="38.285145" lon="-1.699360">
        <ele>316.9</ele>
        <time>2023-03-26T09:39:05Z</time>
      </trkpt>
      <trkpt lat="38.285207" lon="-1.699388">
        <ele>317.6</ele>
        <time>2023-03-26T09:39:13Z</time>
      </trkpt>
      <trkpt lat="38.285271" lon="-1.699401">
        <ele>315.9</ele>
        <time>2023-03-26T09:39:26Z</time>
      </trkpt>
      <trkpt lat="38.285329" lon="-1.699440">
        <ele>313.9</ele>
        <time>2023-03-26T09:39:31Z</time>
      </trkpt>
      <trkpt lat="38.285363" lon="-1.699508">
        <ele>315.9</ele>
        <time>2023-03-26T09:39:37Z</time>
      </trkpt>
      <trkpt lat="38.285408" lon="-1.699569">
        <ele>316.9</ele>
        <time>2023-03-26T09:39:43Z</time>
      </trkpt>
      <trkpt lat="38.285456" lon="-1.699623">
        <ele>317.9</ele>
        <time>2023-03-26T09:39:50Z</time>
      </trkpt>
      <trkpt lat="38.285504" lon="-1.699683">
        <ele>318.9</ele>
        <time>2023-03-26T09:39:56Z</time>
      </trkpt>
      <trkpt lat="38.285531" lon="-1.699757">
        <ele>317.9</ele>
        <time>2023-03-26T09:40:02Z</time>
      </trkpt>
      <trkpt lat="38.285564" lon="-1.699829">
        <ele>317.9</ele>
        <time>2023-03-26T09:40:07Z</time>
      </trkpt>
      <trkpt lat="38.285605" lon="-1.699895">
        <ele>317.9</ele>
        <time>2023-03-26T09:40:13Z</time>
      </trkpt>
      <trkpt lat="38.285651" lon="-1.699954">
        <ele>319.9</ele>
        <time>2023-03-26T09:40:20Z</time>
      </trkpt>
      <trkpt lat="38.285691" lon="-1.700025">
        <ele>319.9</ele>
        <time>2023-03-26T09:40:25Z</time>
      </trkpt>
      <trkpt lat="38.285737" lon="-1.700085">
        <ele>322.9</ele>
        <time>2023-03-26T09:40:31Z</time>
      </trkpt>
      <trkpt lat="38.285782" lon="-1.700151">
        <ele>322.9</ele>
        <time>2023-03-26T09:40:37Z</time>
      </trkpt>
      <trkpt lat="38.285808" lon="-1.700224">
        <ele>321.9</ele>
        <time>2023-03-26T09:40:43Z</time>
      </trkpt>
      <trkpt lat="38.285839" lon="-1.700301">
        <ele>322.6</ele>
        <time>2023-03-26T09:40:48Z</time>
      </trkpt>
      <trkpt lat="38.285867" lon="-1.700373">
        <ele>321.9</ele>
        <time>2023-03-26T09:40:53Z</time>
      </trkpt>
      <trkpt lat="38.285901" lon="-1.700442">
        <ele>322.1</ele>
        <time>2023-03-26T09:41:06Z</time>
      </trkpt>
      <trkpt lat="38.285923" lon="-1.700517">
        <ele>321.8</ele>
        <time>2023-03-26T09:41:14Z</time>
      </trkpt>
      <trkpt lat="38.285945" lon="-1.700593">
        <ele>322.9</ele>
        <time>2023-03-26T09:41:18Z</time>
      </trkpt>
      <trkpt lat="38.285966" lon="-1.700682">
        <ele>322.9</ele>
        <time>2023-03-26T09:41:26Z</time>
      </trkpt>
      <trkpt lat="38.285990" lon="-1.700766">
        <ele>323.9</ele>
        <time>2023-03-26T09:41:31Z</time>
      </trkpt>
      <trkpt lat="38.285989" lon="-1.700850">
        <ele>323.9</ele>
        <time>2023-03-26T09:41:40Z</time>
      </trkpt>
      <trkpt lat="38.286030" lon="-1.700915">
        <ele>322.1</ele>
        <time>2023-03-26T09:41:44Z</time>
      </trkpt>
      <trkpt lat="38.286058" lon="-1.700995">
        <ele>321.9</ele>
        <time>2023-03-26T09:41:50Z</time>
      </trkpt>
      <trkpt lat="38.286093" lon="-1.701064">
        <ele>320.9</ele>
        <time>2023-03-26T09:41:55Z</time>
      </trkpt>
      <trkpt lat="38.286143" lon="-1.701124">
        <ele>320.9</ele>
        <time>2023-03-26T09:42:00Z</time>
      </trkpt>
      <trkpt lat="38.286168" lon="-1.701203">
        <ele>320.9</ele>
        <time>2023-03-26T09:42:07Z</time>
      </trkpt>
      <trkpt lat="38.286172" lon="-1.701294">
        <ele>321.6</ele>
        <time>2023-03-26T09:42:15Z</time>
      </trkpt>
      <trkpt lat="38.286144" lon="-1.701371">
        <ele>320.0</ele>
        <time>2023-03-26T09:42:25Z</time>
      </trkpt>
      <trkpt lat="38.286129" lon="-1.701456">
        <ele>318.9</ele>
        <time>2023-03-26T09:42:30Z</time>
      </trkpt>
      <trkpt lat="38.286112" lon="-1.701535">
        <ele>317.9</ele>
        <time>2023-03-26T09:42:34Z</time>
      </trkpt>
      <trkpt lat="38.286099" lon="-1.701621">
        <ele>318.9</ele>
        <time>2023-03-26T09:42:38Z</time>
      </trkpt>
      <trkpt lat="38.286085" lon="-1.701701">
        <ele>319.9</ele>
        <time>2023-03-26T09:42:43Z</time>
      </trkpt>
      <trkpt lat="38.286080" lon="-1.701781">
        <ele>319.9</ele>
        <time>2023-03-26T09:42:49Z</time>
      </trkpt>
      <trkpt lat="38.286074" lon="-1.701863">
        <ele>320.1</ele>
        <time>2023-03-26T09:42:55Z</time>
      </trkpt>
      <trkpt lat="38.286074" lon="-1.701947">
        <ele>320.9</ele>
        <time>2023-03-26T09:43:00Z</time>
      </trkpt>
      <trkpt lat="38.286077" lon="-1.702031">
        <ele>319.9</ele>
        <time>2023-03-26T09:43:06Z</time>
      </trkpt>
      <trkpt lat="38.286065" lon="-1.702116">
        <ele>320.8</ele>
        <time>2023-03-26T09:43:11Z</time>
      </trkpt>
      <trkpt lat="38.286045" lon="-1.702195">
        <ele>321.9</ele>
        <time>2023-03-26T09:43:17Z</time>
      </trkpt>
      <trkpt lat="38.286031" lon="-1.702273">
        <ele>321.9</ele>
        <time>2023-03-26T09:43:22Z</time>
      </trkpt>
      <trkpt lat="38.286026" lon="-1.702357">
        <ele>323.8</ele>
        <time>2023-03-26T09:43:28Z</time>
      </trkpt>
      <trkpt lat="38.286026" lon="-1.702442">
        <ele>324.9</ele>
        <time>2023-03-26T09:43:34Z</time>
      </trkpt>
      <trkpt lat="38.286036" lon="-1.702527">
        <ele>322.1</ele>
        <time>2023-03-26T09:43:42Z</time>
      </trkpt>
      <trkpt lat="38.286050" lon="-1.702610">
        <ele>321.9</ele>
        <time>2023-03-26T09:43:49Z</time>
      </trkpt>
      <trkpt lat="38.286074" lon="-1.702685">
        <ele>320.9</ele>
        <time>2023-03-26T09:43:55Z</time>
      </trkpt>
      <trkpt lat="38.286133" lon="-1.702721">
        <ele>318.9</ele>
        <time>2023-03-26T09:44:01Z</time>
      </trkpt>
      <trkpt lat="38.286196" lon="-1.702728">
        <ele>316.9</ele>
        <time>2023-03-26T09:44:07Z</time>
      </trkpt>
      <trkpt lat="38.286262" lon="-1.702746">
        <ele>315.0</ele>
        <time>2023-03-26T09:44:12Z</time>
      </trkpt>
      <trkpt lat="38.286321" lon="-1.702778">
        <ele>316.6</ele>
        <time>2023-03-26T09:44:18Z</time>
      </trkpt>
      <trkpt lat="38.286390" lon="-1.702787">
        <ele>314.1</ele>
        <time>2023-03-26T09:44:24Z</time>
      </trkpt>
      <trkpt lat="38.286446" lon="-1.702835">
        <ele>314.9</ele>
        <time>2023-03-26T09:44:29Z</time>
      </trkpt>
      <trkpt lat="38.286505" lon="-1.702879">
        <ele>314.9</ele>
        <time>2023-03-26T09:44:35Z</time>
      </trkpt>
      <trkpt lat="38.286565" lon="-1.702918">
        <ele>311.9</ele>
        <time>2023-03-26T09:44:41Z</time>
      </trkpt>
      <trkpt lat="38.286606" lon="-1.702983">
        <ele>311.8</ele>
        <time>2023-03-26T09:44:47Z</time>
      </trkpt>
      <trkpt lat="38.286626" lon="-1.703064">
        <ele>311.9</ele>
        <time>2023-03-26T09:44:55Z</time>
      </trkpt>
      <trkpt lat="38.286634" lon="-1.703151">
        <ele>310.9</ele>
        <time>2023-03-26T09:45:07Z</time>
      </trkpt>
      <trkpt lat="38.286653" lon="-1.703232">
        <ele>310.6</ele>
        <time>2023-03-26T09:45:12Z</time>
      </trkpt>
      <trkpt lat="38.286685" lon="-1.703308">
        <ele>310.8</ele>
        <time>2023-03-26T09:45:18Z</time>
      </trkpt>
      <trkpt lat="38.286686" lon="-1.703388">
        <ele>309.9</ele>
        <time>2023-03-26T09:45:25Z</time>
      </trkpt>
      <trkpt lat="38.286705" lon="-1.703472">
        <ele>309.9</ele>
        <time>2023-03-26T09:45:33Z</time>
      </trkpt>
      <trkpt lat="38.286724" lon="-1.703557">
        <ele>309.9</ele>
        <time>2023-03-26T09:45:44Z</time>
      </trkpt>
      <trkpt lat="38.286729" lon="-1.703638">
        <ele>308.9</ele>
        <time>2023-03-26T09:45:49Z</time>
      </trkpt>
      <trkpt lat="38.286712" lon="-1.703717">
        <ele>308.9</ele>
        <time>2023-03-26T09:45:53Z</time>
      </trkpt>
      <trkpt lat="38.286704" lon="-1.703803">
        <ele>307.9</ele>
        <time>2023-03-26T09:45:58Z</time>
      </trkpt>
      <trkpt lat="38.286686" lon="-1.703885">
        <ele>306.9</ele>
        <time>2023-03-26T09:46:04Z</time>
      </trkpt>
      <trkpt lat="38.286666" lon="-1.703968">
        <ele>306.9</ele>
        <time>2023-03-26T09:46:09Z</time>
      </trkpt>
      <trkpt lat="38.286666" lon="-1.704050">
        <ele>305.9</ele>
        <time>2023-03-26T09:46:15Z</time>
      </trkpt>
      <trkpt lat="38.286656" lon="-1.704133">
        <ele>304.9</ele>
        <time>2023-03-26T09:46:20Z</time>
      </trkpt>
      <trkpt lat="38.286636" lon="-1.704215">
        <ele>304.8</ele>
        <time>2023-03-26T09:46:26Z</time>
      </trkpt>
      <trkpt lat="38.286629" lon="-1.704301">
        <ele>302.9</ele>
        <time>2023-03-26T09:46:32Z</time>
      </trkpt>
      <trkpt lat="38.286622" lon="-1.704389">
        <ele>302.9</ele>
        <time>2023-03-26T09:46:38Z</time>
      </trkpt>
      <trkpt lat="38.286627" lon="-1.704470">
        <ele>302.9</ele>
        <time>2023-03-26T09:46:43Z</time>
      </trkpt>
      <trkpt lat="38.286611" lon="-1.704548">
        <ele>302.9</ele>
        <time>2023-03-26T09:46:49Z</time>
      </trkpt>
      <trkpt lat="38.286617" lon="-1.704631">
        <ele>303.0</ele>
        <time>2023-03-26T09:46:53Z</time>
      </trkpt>
      <trkpt lat="38.286605" lon="-1.704713">
        <ele>302.9</ele>
        <time>2023-03-26T09:46:59Z</time>
      </trkpt>
      <trkpt lat="38.286636" lon="-1.704785">
        <ele>302.0</ele>
        <time>2023-03-26T09:47:03Z</time>
      </trkpt>
      <trkpt lat="38.286634" lon="-1.704868">
        <ele>300.9</ele>
        <time>2023-03-26T09:47:09Z</time>
      </trkpt>
      <trkpt lat="38.286629" lon="-1.704950">
        <ele>300.6</ele>
        <time>2023-03-26T09:47:15Z</time>
      </trkpt>
      <trkpt lat="38.286602" lon="-1.705030">
        <ele>300.9</ele>
        <time>2023-03-26T09:47:30Z</time>
      </trkpt>
      <trkpt lat="38.286544" lon="-1.705066">
        <ele>301.6</ele>
        <time>2023-03-26T09:47:35Z</time>
      </trkpt>
      <trkpt lat="38.286483" lon="-1.705115">
        <ele>301.9</ele>
        <time>2023-03-26T09:47:40Z</time>
      </trkpt>
      <trkpt lat="38.286424" lon="-1.705162">
        <ele>302.9</ele>
        <time>2023-03-26T09:47:45Z</time>
      </trkpt>
      <trkpt lat="38.286368" lon="-1.705203">
        <ele>301.9</ele>
        <time>2023-03-26T09:47:51Z</time>
      </trkpt>
      <trkpt lat="38.286302" lon="-1.705221">
        <ele>300.9</ele>
        <time>2023-03-26T09:47:59Z</time>
      </trkpt>
      <trkpt lat="38.286245" lon="-1.705267">
        <ele>301.9</ele>
        <time>2023-03-26T09:48:03Z</time>
      </trkpt>
      <trkpt lat="38.286218" lon="-1.705342">
        <ele>298.9</ele>
        <time>2023-03-26T09:48:16Z</time>
      </trkpt>
      <trkpt lat="38.286151" lon="-1.705360">
        <ele>300.0</ele>
        <time>2023-03-26T09:48:22Z</time>
      </trkpt>
      <trkpt lat="38.286096" lon="-1.705412">
        <ele>299.6</ele>
        <time>2023-03-26T09:48:27Z</time>
      </trkpt>
      <trkpt lat="38.286039" lon="-1.705456">
        <ele>299.8</ele>
        <time>2023-03-26T09:48:32Z</time>
      </trkpt>
      <trkpt lat="38.285982" lon="-1.705506">
        <ele>300.9</ele>
        <time>2023-03-26T09:48:39Z</time>
      </trkpt>
      <trkpt lat="38.285926" lon="-1.705548">
        <ele>300.9</ele>
        <time>2023-03-26T09:48:45Z</time>
      </trkpt>
      <trkpt lat="38.285865" lon="-1.705586">
        <ele>299.9</ele>
        <time>2023-03-26T09:48:51Z</time>
      </trkpt>
      <trkpt lat="38.285814" lon="-1.705640">
        <ele>299.9</ele>
        <time>2023-03-26T09:48:58Z</time>
      </trkpt>
      <trkpt lat="38.285746" lon="-1.705653">
        <ele>298.9</ele>
        <time>2023-03-26T09:49:02Z</time>
      </trkpt>
      <trkpt lat="38.285703" lon="-1.705715">
        <ele>298.9</ele>
        <time>2023-03-26T09:49:07Z</time>
      </trkpt>
      <trkpt lat="38.285678" lon="-1.705799">
        <ele>297.9</ele>
        <time>2023-03-26T09:49:17Z</time>
      </trkpt>
      <trkpt lat="38.285648" lon="-1.705878">
        <ele>296.9</ele>
        <time>2023-03-26T09:49:21Z</time>
      </trkpt>
      <trkpt lat="38.285634" lon="-1.705956">
        <ele>296.9</ele>
        <time>2023-03-26T09:49:26Z</time>
      </trkpt>
      <trkpt lat="38.285610" lon="-1.706042">
        <ele>296.9</ele>
        <time>2023-03-26T09:49:30Z</time>
      </trkpt>
      <trkpt lat="38.285569" lon="-1.706109">
        <ele>297.9</ele>
        <time>2023-03-26T09:49:35Z</time>
      </trkpt>
      <trkpt lat="38.285512" lon="-1.706157">
        <ele>297.9</ele>
        <time>2023-03-26T09:49:40Z</time>
      </trkpt>
      <trkpt lat="38.285453" lon="-1.706194">
        <ele>298.9</ele>
        <time>2023-03-26T09:49:45Z</time>
      </trkpt>
      <trkpt lat="38.285389" lon="-1.706230">
        <ele>297.9</ele>
        <time>2023-03-26T09:49:51Z</time>
      </trkpt>
      <trkpt lat="38.285323" lon="-1.706258">
        <ele>298.9</ele>
        <time>2023-03-26T09:49:57Z</time>
      </trkpt>
      <trkpt lat="38.285261" lon="-1.706290">
        <ele>297.9</ele>
        <time>2023-03-26T09:50:02Z</time>
      </trkpt>
      <trkpt lat="38.285199" lon="-1.706313">
        <ele>296.9</ele>
        <time>2023-03-26T09:50:07Z</time>
      </trkpt>
      <trkpt lat="38.285130" lon="-1.706333">
        <ele>296.9</ele>
        <time>2023-03-26T09:50:13Z</time>
      </trkpt>
      <trkpt lat="38.285069" lon="-1.706365">
        <ele>297.6</ele>
        <time>2023-03-26T09:50:18Z</time>
      </trkpt>
      <trkpt lat="38.285008" lon="-1.706399">
        <ele>296.9</ele>
        <time>2023-03-26T09:50:23Z</time>
      </trkpt>
      <trkpt lat="38.284956" lon="-1.706452">
        <ele>297.9</ele>
        <time>2023-03-26T09:50:30Z</time>
      </trkpt>
      <trkpt lat="38.284920" lon="-1.706525">
        <ele>298.9</ele>
        <time>2023-03-26T09:50:36Z</time>
      </trkpt>
      <trkpt lat="38.284881" lon="-1.706594">
        <ele>298.0</ele>
        <time>2023-03-26T09:50:41Z</time>
      </trkpt>
      <trkpt lat="38.284852" lon="-1.706668">
        <ele>298.9</ele>
        <time>2023-03-26T09:50:46Z</time>
      </trkpt>
      <trkpt lat="38.284824" lon="-1.706743">
        <ele>298.9</ele>
        <time>2023-03-26T09:50:52Z</time>
      </trkpt>
      <trkpt lat="38.284785" lon="-1.706812">
        <ele>298.8</ele>
        <time>2023-03-26T09:50:57Z</time>
      </trkpt>
      <trkpt lat="38.284776" lon="-1.706896">
        <ele>299.9</ele>
        <time>2023-03-26T09:51:04Z</time>
      </trkpt>
      <trkpt lat="38.284764" lon="-1.706982">
        <ele>298.9</ele>
        <time>2023-03-26T09:51:09Z</time>
      </trkpt>
      <trkpt lat="38.284751" lon="-1.707066">
        <ele>297.9</ele>
        <time>2023-03-26T09:51:15Z</time>
      </trkpt>
      <trkpt lat="38.284737" lon="-1.707148">
        <ele>296.9</ele>
        <time>2023-03-26T09:51:20Z</time>
      </trkpt>
      <trkpt lat="38.284717" lon="-1.707228">
        <ele>298.9</ele>
        <time>2023-03-26T09:51:26Z</time>
      </trkpt>
      <trkpt lat="38.284703" lon="-1.707315">
        <ele>298.0</ele>
        <time>2023-03-26T09:51:32Z</time>
      </trkpt>
      <trkpt lat="38.284698" lon="-1.707405">
        <ele>297.9</ele>
        <time>2023-03-26T09:51:38Z</time>
      </trkpt>
      <trkpt lat="38.284686" lon="-1.707487">
        <ele>295.1</ele>
        <time>2023-03-26T09:51:44Z</time>
      </trkpt>
      <trkpt lat="38.284672" lon="-1.707573">
        <ele>295.9</ele>
        <time>2023-03-26T09:51:50Z</time>
      </trkpt>
      <trkpt lat="38.284656" lon="-1.707650">
        <ele>296.9</ele>
        <time>2023-03-26T09:51:55Z</time>
      </trkpt>
      <trkpt lat="38.284638" lon="-1.707730">
        <ele>296.9</ele>
        <time>2023-03-26T09:52:01Z</time>
      </trkpt>
      <trkpt lat="38.284622" lon="-1.707810">
        <ele>294.0</ele>
        <time>2023-03-26T09:52:07Z</time>
      </trkpt>
      <trkpt lat="38.284598" lon="-1.707893">
        <ele>292.9</ele>
        <time>2023-03-26T09:52:13Z</time>
      </trkpt>
      <trkpt lat="38.284549" lon="-1.707961">
        <ele>291.9</ele>
        <time>2023-03-26T09:52:18Z</time>
      </trkpt>
      <trkpt lat="38.284490" lon="-1.707991">
        <ele>291.9</ele>
        <time>2023-03-26T09:52:23Z</time>
      </trkpt>
      <trkpt lat="38.284438" lon="-1.708040">
        <ele>290.1</ele>
        <time>2023-03-26T09:52:28Z</time>
      </trkpt>
      <trkpt lat="38.284396" lon="-1.708109">
        <ele>289.9</ele>
        <time>2023-03-26T09:52:34Z</time>
      </trkpt>
      <trkpt lat="38.284362" lon="-1.708177">
        <ele>287.9</ele>
        <time>2023-03-26T09:52:39Z</time>
      </trkpt>
      <trkpt lat="38.284314" lon="-1.708239">
        <ele>288.9</ele>
        <time>2023-03-26T09:52:44Z</time>
      </trkpt>
      <trkpt lat="38.284253" lon="-1.708268">
        <ele>288.9</ele>
        <time>2023-03-26T09:52:50Z</time>
      </trkpt>
      <trkpt lat="38.284191" lon="-1.708277">
        <ele>288.9</ele>
        <time>2023-03-26T09:52:55Z</time>
      </trkpt>
      <trkpt lat="38.284137" lon="-1.708324">
        <ele>287.9</ele>
        <time>2023-03-26T09:53:01Z</time>
      </trkpt>
      <trkpt lat="38.284084" lon="-1.708370">
        <ele>287.8</ele>
        <time>2023-03-26T09:53:08Z</time>
      </trkpt>
      <trkpt lat="38.284048" lon="-1.708440">
        <ele>287.8</ele>
        <time>2023-03-26T09:53:15Z</time>
      </trkpt>
      <trkpt lat="38.284005" lon="-1.708500">
        <ele>287.9</ele>
        <time>2023-03-26T09:53:21Z</time>
      </trkpt>
      <trkpt lat="38.283946" lon="-1.708535">
        <ele>285.9</ele>
        <time>2023-03-26T09:53:27Z</time>
      </trkpt>
      <trkpt lat="38.283884" lon="-1.708568">
        <ele>283.9</ele>
        <time>2023-03-26T09:53:32Z</time>
      </trkpt>
      <trkpt lat="38.283828" lon="-1.708612">
        <ele>282.1</ele>
        <time>2023-03-26T09:53:38Z</time>
      </trkpt>
      <trkpt lat="38.283870" lon="-1.708680">
        <ele>282.9</ele>
        <time>2023-03-26T09:54:12Z</time>
      </trkpt>
      <trkpt lat="38.283806" lon="-1.708666">
        <ele>284.6</ele>
        <time>2023-03-26T09:55:02Z</time>
      </trkpt>
      <trkpt lat="38.283756" lon="-1.708715">
        <ele>285.8</ele>
        <time>2023-03-26T09:55:07Z</time>
      </trkpt>
      <trkpt lat="38.283703" lon="-1.708763">
        <ele>285.9</ele>
        <time>2023-03-26T09:55:20Z</time>
      </trkpt>
      <trkpt lat="38.283642" lon="-1.708795">
        <ele>286.9</ele>
        <time>2023-03-26T09:55:41Z</time>
      </trkpt>
      <trkpt lat="38.283619" lon="-1.708869">
        <ele>288.8</ele>
        <time>2023-03-26T09:56:17Z</time>
      </trkpt>
      <trkpt lat="38.283558" lon="-1.708900">
        <ele>286.9</ele>
        <time>2023-03-26T09:56:29Z</time>
      </trkpt>
      <trkpt lat="38.283495" lon="-1.708900">
        <ele>287.9</ele>
        <time>2023-03-26T09:56:38Z</time>
      </trkpt>
      <trkpt lat="38.283428" lon="-1.708866">
        <ele>285.0</ele>
        <time>2023-03-26T09:56:43Z</time>
      </trkpt>
      <trkpt lat="38.283365" lon="-1.708876">
        <ele>286.8</ele>
        <time>2023-03-26T09:56:51Z</time>
      </trkpt>
      <trkpt lat="38.283341" lon="-1.708954">
        <ele>283.9</ele>
        <time>2023-03-26T09:57:02Z</time>
      </trkpt>
      <trkpt lat="38.283273" lon="-1.708973">
        <ele>284.6</ele>
        <time>2023-03-26T09:57:35Z</time>
      </trkpt>
      <trkpt lat="38.283210" lon="-1.708996">
        <ele>285.6</ele>
        <time>2023-03-26T09:58:27Z</time>
      </trkpt>
      <trkpt lat="38.283144" lon="-1.708993">
        <ele>285.1</ele>
        <time>2023-03-26T09:58:53Z</time>
      </trkpt>
      <trkpt lat="38.283084" lon="-1.709024">
        <ele>282.9</ele>
        <time>2023-03-26T09:59:17Z</time>
      </trkpt>
      <trkpt lat="38.283020" lon="-1.709023">
        <ele>280.9</ele>
        <time>2023-03-26T09:59:47Z</time>
      </trkpt>
      <trkpt lat="38.282959" lon="-1.708985">
        <ele>276.9</ele>
        <time>2023-03-26T10:00:29Z</time>
      </trkpt>
      <trkpt lat="38.282893" lon="-1.708956">
        <ele>281.9</ele>
        <time>2023-03-26T10:00:46Z</time>
      </trkpt>
      <trkpt lat="38.282820" lon="-1.708952">
        <ele>284.8</ele>
        <time>2023-03-26T10:00:51Z</time>
      </trkpt>
      <trkpt lat="38.282764" lon="-1.708908">
        <ele>285.9</ele>
        <time>2023-03-26T10:00:58Z</time>
      </trkpt>
      <trkpt lat="38.282707" lon="-1.708945">
        <ele>285.1</ele>
        <time>2023-03-26T10:01:06Z</time>
      </trkpt>
      <trkpt lat="38.282645" lon="-1.708972">
        <ele>286.8</ele>
        <time>2023-03-26T10:01:12Z</time>
      </trkpt>
      <trkpt lat="38.282581" lon="-1.708992">
        <ele>287.9</ele>
        <time>2023-03-26T10:01:21Z</time>
      </trkpt>
      <trkpt lat="38.282514" lon="-1.709002">
        <ele>285.9</ele>
        <time>2023-03-26T10:01:48Z</time>
      </trkpt>
      <trkpt lat="38.282467" lon="-1.709068">
        <ele>288.9</ele>
        <time>2023-03-26T10:02:01Z</time>
      </trkpt>
      <trkpt lat="38.282417" lon="-1.709118">
        <ele>291.8</ele>
        <time>2023-03-26T10:02:19Z</time>
      </trkpt>
      <trkpt lat="38.282349" lon="-1.709092">
        <ele>293.6</ele>
        <time>2023-03-26T10:02:33Z</time>
      </trkpt>
      <trkpt lat="38.282287" lon="-1.709077">
        <ele>293.0</ele>
        <time>2023-03-26T10:02:54Z</time>
      </trkpt>
      <trkpt lat="38.282228" lon="-1.709112">
        <ele>293.6</ele>
        <time>2023-03-26T10:03:01Z</time>
      </trkpt>
      <trkpt lat="38.282169" lon="-1.709152">
        <ele>293.9</ele>
        <time>2023-03-26T10:03:07Z</time>
      </trkpt>
      <trkpt lat="38.282113" lon="-1.709195">
        <ele>293.9</ele>
        <time>2023-03-26T10:03:14Z</time>
      </trkpt>
      <trkpt lat="38.282052" lon="-1.709220">
        <ele>294.9</ele>
        <time>2023-03-26T10:03:30Z</time>
      </trkpt>
      <trkpt lat="38.281995" lon="-1.709260">
        <ele>291.9</ele>
        <time>2023-03-26T10:03:45Z</time>
      </trkpt>
      <trkpt lat="38.281932" lon="-1.709290">
        <ele>290.9</ele>
        <time>2023-03-26T10:03:57Z</time>
      </trkpt>
      <trkpt lat="38.281883" lon="-1.709345">
        <ele>288.7</ele>
        <time>2023-03-26T10:04:06Z</time>
      </trkpt>
      <trkpt lat="38.281822" lon="-1.709439">
        <ele>283.0</ele>
        <time>2023-03-26T10:04:26Z</time>
      </trkpt>
      <trkpt lat="38.281770" lon="-1.709488">
        <ele>280.9</ele>
        <time>2023-03-26T10:04:49Z</time>
      </trkpt>
      <trkpt lat="38.281707" lon="-1.709507">
        <ele>281.9</ele>
        <time>2023-03-26T10:05:02Z</time>
      </trkpt>
      <trkpt lat="38.281644" lon="-1.709535">
        <ele>283.9</ele>
        <time>2023-03-26T10:05:12Z</time>
      </trkpt>
      <trkpt lat="38.281575" lon="-1.709571">
        <ele>287.8</ele>
        <time>2023-03-26T10:05:27Z</time>
      </trkpt>
      <trkpt lat="38.281509" lon="-1.709572">
        <ele>285.9</ele>
        <time>2023-03-26T10:05:34Z</time>
      </trkpt>
      <trkpt lat="38.281468" lon="-1.709643">
        <ele>286.0</ele>
        <time>2023-03-26T10:05:44Z</time>
      </trkpt>
      <trkpt lat="38.281411" lon="-1.709681">
        <ele>286.9</ele>
        <time>2023-03-26T10:05:50Z</time>
      </trkpt>
      <trkpt lat="38.281359" lon="-1.709731">
        <ele>291.6</ele>
        <time>2023-03-26T10:06:17Z</time>
      </trkpt>
      <trkpt lat="38.281322" lon="-1.709799">
        <ele>294.9</ele>
        <time>2023-03-26T10:06:36Z</time>
      </trkpt>
      <trkpt lat="38.281258" lon="-1.709788">
        <ele>294.9</ele>
        <time>2023-03-26T10:06:44Z</time>
      </trkpt>
      <trkpt lat="38.281209" lon="-1.709842">
        <ele>293.9</ele>
        <time>2023-03-26T10:06:49Z</time>
      </trkpt>
      <trkpt lat="38.281173" lon="-1.709911">
        <ele>296.9</ele>
        <time>2023-03-26T10:07:39Z</time>
      </trkpt>
      <trkpt lat="38.281106" lon="-1.709941">
        <ele>295.9</ele>
        <time>2023-03-26T10:07:45Z</time>
      </trkpt>
      <trkpt lat="38.281042" lon="-1.709955">
        <ele>296.0</ele>
        <time>2023-03-26T10:08:08Z</time>
      </trkpt>
      <trkpt lat="38.280972" lon="-1.709940">
        <ele>293.9</ele>
        <time>2023-03-26T10:08:31Z</time>
      </trkpt>
      <trkpt lat="38.280907" lon="-1.709962">
        <ele>293.9</ele>
        <time>2023-03-26T10:08:56Z</time>
      </trkpt>
      <trkpt lat="38.280895" lon="-1.710044">
        <ele>293.0</ele>
        <time>2023-03-26T10:09:24Z</time>
      </trkpt>
      <trkpt lat="38.280829" lon="-1.710053">
        <ele>294.9</ele>
        <time>2023-03-26T10:09:32Z</time>
      </trkpt>
      <trkpt lat="38.280767" lon="-1.710081">
        <ele>293.9</ele>
        <time>2023-03-26T10:09:42Z</time>
      </trkpt>
      <trkpt lat="38.280708" lon="-1.710112">
        <ele>292.0</ele>
        <time>2023-03-26T10:09:46Z</time>
      </trkpt>
      <trkpt lat="38.280676" lon="-1.710182">
        <ele>289.9</ele>
        <time>2023-03-26T10:09:55Z</time>
      </trkpt>
      <trkpt lat="38.280627" lon="-1.710235">
        <ele>285.9</ele>
        <time>2023-03-26T10:10:21Z</time>
      </trkpt>
      <trkpt lat="38.280598" lon="-1.710318">
        <ele>287.9</ele>
        <time>2023-03-26T10:10:35Z</time>
      </trkpt>
      <trkpt lat="38.280546" lon="-1.710365">
        <ele>288.9</ele>
        <time>2023-03-26T10:10:42Z</time>
      </trkpt>
      <trkpt lat="38.280499" lon="-1.710425">
        <ele>286.9</ele>
        <time>2023-03-26T10:10:51Z</time>
      </trkpt>
      <trkpt lat="38.280445" lon="-1.710470">
        <ele>286.9</ele>
        <time>2023-03-26T10:11:00Z</time>
      </trkpt>
      <trkpt lat="38.280409" lon="-1.710539">
        <ele>287.9</ele>
        <time>2023-03-26T10:11:06Z</time>
      </trkpt>
      <trkpt lat="38.280355" lon="-1.710593">
        <ele>288.9</ele>
        <time>2023-03-26T10:11:11Z</time>
      </trkpt>
      <trkpt lat="38.280294" lon="-1.710622">
        <ele>291.9</ele>
        <time>2023-03-26T10:11:34Z</time>
      </trkpt>
      <trkpt lat="38.280260" lon="-1.710695">
        <ele>291.9</ele>
        <time>2023-03-26T10:11:54Z</time>
      </trkpt>
      <trkpt lat="38.280201" lon="-1.710728">
        <ele>291.9</ele>
        <time>2023-03-26T10:12:02Z</time>
      </trkpt>
      <trkpt lat="38.280156" lon="-1.710795">
        <ele>291.6</ele>
        <time>2023-03-26T10:12:07Z</time>
      </trkpt>
      <trkpt lat="38.280104" lon="-1.710850">
        <ele>293.0</ele>
        <time>2023-03-26T10:12:14Z</time>
      </trkpt>
      <trkpt lat="38.280039" lon="-1.710879">
        <ele>293.8</ele>
        <time>2023-03-26T10:12:20Z</time>
      </trkpt>
      <trkpt lat="38.279975" lon="-1.710907">
        <ele>295.9</ele>
        <time>2023-03-26T10:12:27Z</time>
      </trkpt>
      <trkpt lat="38.279910" lon="-1.710919">
        <ele>297.9</ele>
        <time>2023-03-26T10:12:35Z</time>
      </trkpt>
      <trkpt lat="38.279903" lon="-1.711001">
        <ele>301.9</ele>
        <time>2023-03-26T10:12:50Z</time>
      </trkpt>
      <trkpt lat="38.279868" lon="-1.711076">
        <ele>302.0</ele>
        <time>2023-03-26T10:13:03Z</time>
      </trkpt>
      <trkpt lat="38.279847" lon="-1.711162">
        <ele>308.9</ele>
        <time>2023-03-26T10:14:25Z</time>
      </trkpt>
      <trkpt lat="38.279870" lon="-1.711239">
        <ele>309.9</ele>
        <time>2023-03-26T10:14:29Z</time>
      </trkpt>
      <trkpt lat="38.279895" lon="-1.711312">
        <ele>309.9</ele>
        <time>2023-03-26T10:14:33Z</time>
      </trkpt>
      <trkpt lat="38.279884" lon="-1.711393">
        <ele>303.9</ele>
        <time>2023-03-26T10:16:17Z</time>
      </trkpt>
      <trkpt lat="38.279859" lon="-1.711469">
        <ele>300.9</ele>
        <time>2023-03-26T10:16:33Z</time>
      </trkpt>
      <trkpt lat="38.279857" lon="-1.711551">
        <ele>300.9</ele>
        <time>2023-03-26T10:16:40Z</time>
      </trkpt>
      <trkpt lat="38.279884" lon="-1.711630">
        <ele>299.9</ele>
        <time>2023-03-26T10:16:48Z</time>
      </trkpt>
      <trkpt lat="38.279915" lon="-1.711700">
        <ele>300.9</ele>
        <time>2023-03-26T10:16:53Z</time>
      </trkpt>
      <trkpt lat="38.279953" lon="-1.711769">
        <ele>299.1</ele>
        <time>2023-03-26T10:16:59Z</time>
      </trkpt>
      <trkpt lat="38.279949" lon="-1.711851">
        <ele>297.0</ele>
        <time>2023-03-26T10:17:05Z</time>
      </trkpt>
      <trkpt lat="38.279973" lon="-1.711935">
        <ele>296.9</ele>
        <time>2023-03-26T10:17:11Z</time>
      </trkpt>
      <trkpt lat="38.280005" lon="-1.712008">
        <ele>297.9</ele>
        <time>2023-03-26T10:17:18Z</time>
      </trkpt>
      <trkpt lat="38.280023" lon="-1.712087">
        <ele>299.8</ele>
        <time>2023-03-26T10:17:23Z</time>
      </trkpt>
      <trkpt lat="38.280038" lon="-1.712168">
        <ele>300.9</ele>
        <time>2023-03-26T10:17:30Z</time>
      </trkpt>
      <trkpt lat="38.280062" lon="-1.712243">
        <ele>300.9</ele>
        <time>2023-03-26T10:17:36Z</time>
      </trkpt>
      <trkpt lat="38.280087" lon="-1.712318">
        <ele>302.6</ele>
        <time>2023-03-26T10:17:42Z</time>
      </trkpt>
      <trkpt lat="38.280086" lon="-1.712404">
        <ele>303.9</ele>
        <time>2023-03-26T10:17:48Z</time>
      </trkpt>
      <trkpt lat="38.280088" lon="-1.712488">
        <ele>305.6</ele>
        <time>2023-03-26T10:17:54Z</time>
      </trkpt>
      <trkpt lat="38.280102" lon="-1.712571">
        <ele>304.9</ele>
        <time>2023-03-26T10:17:59Z</time>
      </trkpt>
      <trkpt lat="38.280110" lon="-1.712655">
        <ele>304.9</ele>
        <time>2023-03-26T10:18:04Z</time>
      </trkpt>
      <trkpt lat="38.280110" lon="-1.712739">
        <ele>305.9</ele>
        <time>2023-03-26T10:18:10Z</time>
      </trkpt>
      <trkpt lat="38.280093" lon="-1.712827">
        <ele>305.0</ele>
        <time>2023-03-26T10:18:18Z</time>
      </trkpt>
      <trkpt lat="38.280069" lon="-1.712907">
        <ele>304.6</ele>
        <time>2023-03-26T10:18:23Z</time>
      </trkpt>
      <trkpt lat="38.280070" lon="-1.712989">
        <ele>304.9</ele>
        <time>2023-03-26T10:18:29Z</time>
      </trkpt>
      <trkpt lat="38.280072" lon="-1.713075">
        <ele>302.9</ele>
        <time>2023-03-26T10:18:36Z</time>
      </trkpt>
      <trkpt lat="38.280067" lon="-1.713155">
        <ele>303.6</ele>
        <time>2023-03-26T10:18:43Z</time>
      </trkpt>
      <trkpt lat="38.280066" lon="-1.713241">
        <ele>303.9</ele>
        <time>2023-03-26T10:18:51Z</time>
      </trkpt>
      <trkpt lat="38.280066" lon="-1.713321">
        <ele>305.9</ele>
        <time>2023-03-26T10:18:58Z</time>
      </trkpt>
      <trkpt lat="38.280074" lon="-1.713405">
        <ele>306.9</ele>
        <time>2023-03-26T10:19:04Z</time>
      </trkpt>
      <trkpt lat="38.280076" lon="-1.713487">
        <ele>306.8</ele>
        <time>2023-03-26T10:19:13Z</time>
      </trkpt>
      <trkpt lat="38.280086" lon="-1.713570">
        <ele>307.9</ele>
        <time>2023-03-26T10:19:21Z</time>
      </trkpt>
      <trkpt lat="38.280089" lon="-1.713654">
        <ele>308.6</ele>
        <time>2023-03-26T10:19:27Z</time>
      </trkpt>
      <trkpt lat="38.280096" lon="-1.713735">
        <ele>307.9</ele>
        <time>2023-03-26T10:19:41Z</time>
      </trkpt>
      <trkpt lat="38.280081" lon="-1.713816">
        <ele>306.9</ele>
        <time>2023-03-26T10:19:48Z</time>
      </trkpt>
      <trkpt lat="38.280108" lon="-1.713896">
        <ele>306.9</ele>
        <time>2023-03-26T10:19:54Z</time>
      </trkpt>
      <trkpt lat="38.280108" lon="-1.713982">
        <ele>305.9</ele>
        <time>2023-03-26T10:20:01Z</time>
      </trkpt>
      <trkpt lat="38.280104" lon="-1.714064">
        <ele>305.1</ele>
        <time>2023-03-26T10:20:08Z</time>
      </trkpt>
      <trkpt lat="38.280125" lon="-1.714153">
        <ele>304.9</ele>
        <time>2023-03-26T10:20:17Z</time>
      </trkpt>
      <trkpt lat="38.280123" lon="-1.714239">
        <ele>304.9</ele>
        <time>2023-03-26T10:20:23Z</time>
      </trkpt>
      <trkpt lat="38.280115" lon="-1.714328">
        <ele>302.9</ele>
        <time>2023-03-26T10:20:29Z</time>
      </trkpt>
      <trkpt lat="38.280112" lon="-1.714411">
        <ele>302.9</ele>
        <time>2023-03-26T10:20:35Z</time>
      </trkpt>
      <trkpt lat="38.280120" lon="-1.714492">
        <ele>302.9</ele>
        <time>2023-03-26T10:20:40Z</time>
      </trkpt>
      <trkpt lat="38.280117" lon="-1.714578">
        <ele>304.1</ele>
        <time>2023-03-26T10:20:46Z</time>
      </trkpt>
      <trkpt lat="38.280118" lon="-1.714663">
        <ele>304.9</ele>
        <time>2023-03-26T10:20:51Z</time>
      </trkpt>
      <trkpt lat="38.280115" lon="-1.714744">
        <ele>305.9</ele>
        <time>2023-03-26T10:20:58Z</time>
      </trkpt>
      <trkpt lat="38.280115" lon="-1.714824">
        <ele>305.9</ele>
        <time>2023-03-26T10:21:04Z</time>
      </trkpt>
      <trkpt lat="38.280116" lon="-1.714910">
        <ele>306.1</ele>
        <time>2023-03-26T10:21:09Z</time>
      </trkpt>
      <trkpt lat="38.280126" lon="-1.714990">
        <ele>304.9</ele>
        <time>2023-03-26T10:21:15Z</time>
      </trkpt>
      <trkpt lat="38.280123" lon="-1.715070">
        <ele>304.6</ele>
        <time>2023-03-26T10:21:21Z</time>
      </trkpt>
      <trkpt lat="38.280108" lon="-1.715148">
        <ele>304.9</ele>
        <time>2023-03-26T10:21:28Z</time>
      </trkpt>
      <trkpt lat="38.280120" lon="-1.715228">
        <ele>304.1</ele>
        <time>2023-03-26T10:21:33Z</time>
      </trkpt>
      <trkpt lat="38.280121" lon="-1.715315">
        <ele>303.9</ele>
        <time>2023-03-26T10:21:39Z</time>
      </trkpt>
      <trkpt lat="38.280111" lon="-1.715398">
        <ele>302.9</ele>
        <time>2023-03-26T10:21:47Z</time>
      </trkpt>
      <trkpt lat="38.280120" lon="-1.715481">
        <ele>301.9</ele>
        <time>2023-03-26T10:21:52Z</time>
      </trkpt>
      <trkpt lat="38.280135" lon="-1.715564">
        <ele>300.9</ele>
        <time>2023-03-26T10:21:57Z</time>
      </trkpt>
      <trkpt lat="38.280144" lon="-1.715644">
        <ele>299.9</ele>
        <time>2023-03-26T10:22:03Z</time>
      </trkpt>
      <trkpt lat="38.280130" lon="-1.715723">
        <ele>297.9</ele>
        <time>2023-03-26T10:22:08Z</time>
      </trkpt>
      <trkpt lat="38.280123" lon="-1.715808">
        <ele>296.9</ele>
        <time>2023-03-26T10:22:13Z</time>
      </trkpt>
      <trkpt lat="38.280111" lon="-1.715890">
        <ele>295.9</ele>
        <time>2023-03-26T10:22:19Z</time>
      </trkpt>
      <trkpt lat="38.280074" lon="-1.715967">
        <ele>297.8</ele>
        <time>2023-03-26T10:22:24Z</time>
      </trkpt>
      <trkpt lat="38.280020" lon="-1.716019">
        <ele>296.9</ele>
        <time>2023-03-26T10:22:30Z</time>
      </trkpt>
      <trkpt lat="38.279955" lon="-1.716038">
        <ele>297.9</ele>
        <time>2023-03-26T10:22:36Z</time>
      </trkpt>
      <trkpt lat="38.279890" lon="-1.716054">
        <ele>298.9</ele>
        <time>2023-03-26T10:22:42Z</time>
      </trkpt>
      <trkpt lat="38.279831" lon="-1.716086">
        <ele>300.6</ele>
        <time>2023-03-26T10:22:49Z</time>
      </trkpt>
      <trkpt lat="38.279772" lon="-1.716123">
        <ele>299.9</ele>
        <time>2023-03-26T10:22:55Z</time>
      </trkpt>
      <trkpt lat="38.279719" lon="-1.716174">
        <ele>301.9</ele>
        <time>2023-03-26T10:23:00Z</time>
      </trkpt>
      <trkpt lat="38.279671" lon="-1.716229">
        <ele>303.8</ele>
        <time>2023-03-26T10:23:06Z</time>
      </trkpt>
      <trkpt lat="38.279641" lon="-1.716304">
        <ele>303.6</ele>
        <time>2023-03-26T10:23:14Z</time>
      </trkpt>
      <trkpt lat="38.279639" lon="-1.716390">
        <ele>305.9</ele>
        <time>2023-03-26T10:23:27Z</time>
      </trkpt>
      <trkpt lat="38.279622" lon="-1.716469">
        <ele>305.9</ele>
        <time>2023-03-26T10:23:33Z</time>
      </trkpt>
      <trkpt lat="38.279626" lon="-1.716554">
        <ele>303.9</ele>
        <time>2023-03-26T10:23:40Z</time>
      </trkpt>
      <trkpt lat="38.279623" lon="-1.716635">
        <ele>302.9</ele>
        <time>2023-03-26T10:23:44Z</time>
      </trkpt>
      <trkpt lat="38.279634" lon="-1.716720">
        <ele>303.9</ele>
        <time>2023-03-26T10:23:50Z</time>
      </trkpt>
      <trkpt lat="38.279656" lon="-1.716804">
        <ele>303.9</ele>
        <time>2023-03-26T10:23:57Z</time>
      </trkpt>
      <trkpt lat="38.279696" lon="-1.716869">
        <ele>303.9</ele>
        <time>2023-03-26T10:24:02Z</time>
      </trkpt>
      <trkpt lat="38.279738" lon="-1.716937">
        <ele>302.9</ele>
        <time>2023-03-26T10:24:07Z</time>
      </trkpt>
      <trkpt lat="38.279736" lon="-1.717023">
        <ele>300.9</ele>
        <time>2023-03-26T10:24:13Z</time>
      </trkpt>
      <trkpt lat="38.279744" lon="-1.717103">
        <ele>299.9</ele>
        <time>2023-03-26T10:24:18Z</time>
      </trkpt>
      <trkpt lat="38.279717" lon="-1.717177">
        <ele>299.1</ele>
        <time>2023-03-26T10:24:24Z</time>
      </trkpt>
      <trkpt lat="38.279663" lon="-1.717231">
        <ele>299.9</ele>
        <time>2023-03-26T10:24:30Z</time>
      </trkpt>
      <trkpt lat="38.279605" lon="-1.717278">
        <ele>300.8</ele>
        <time>2023-03-26T10:24:35Z</time>
      </trkpt>
      <trkpt lat="38.279550" lon="-1.717325">
        <ele>300.9</ele>
        <time>2023-03-26T10:24:41Z</time>
      </trkpt>
      <trkpt lat="38.279519" lon="-1.717401">
        <ele>299.9</ele>
        <time>2023-03-26T10:24:47Z</time>
      </trkpt>
      <trkpt lat="38.279488" lon="-1.717472">
        <ele>300.9</ele>
        <time>2023-03-26T10:24:53Z</time>
      </trkpt>
      <trkpt lat="38.279428" lon="-1.717498">
        <ele>300.9</ele>
        <time>2023-03-26T10:25:06Z</time>
      </trkpt>
      <trkpt lat="38.279496" lon="-1.717509">
        <ele>296.9</ele>
        <time>2023-03-26T10:26:38Z</time>
      </trkpt>
      <trkpt lat="38.279550" lon="-1.717561">
        <ele>296.9</ele>
        <time>2023-03-26T10:26:41Z</time>
      </trkpt>
      <trkpt lat="38.279588" lon="-1.717626">
        <ele>297.6</ele>
        <time>2023-03-26T10:26:46Z</time>
      </trkpt>
      <trkpt lat="38.279641" lon="-1.717682">
        <ele>298.9</ele>
        <time>2023-03-26T10:26:51Z</time>
      </trkpt>
      <trkpt lat="38.279684" lon="-1.717745">
        <ele>299.9</ele>
        <time>2023-03-26T10:26:56Z</time>
      </trkpt>
      <trkpt lat="38.279697" lon="-1.717826">
        <ele>298.9</ele>
        <time>2023-03-26T10:27:01Z</time>
      </trkpt>
      <trkpt lat="38.279711" lon="-1.717909">
        <ele>297.9</ele>
        <time>2023-03-26T10:27:06Z</time>
      </trkpt>
      <trkpt lat="38.279738" lon="-1.717996">
        <ele>297.9</ele>
        <time>2023-03-26T10:27:12Z</time>
      </trkpt>
      <trkpt lat="38.279747" lon="-1.718080">
        <ele>296.9</ele>
        <time>2023-03-26T10:27:17Z</time>
      </trkpt>
      <trkpt lat="38.279726" lon="-1.718157">
        <ele>296.1</ele>
        <time>2023-03-26T10:27:21Z</time>
      </trkpt>
      <trkpt lat="38.279732" lon="-1.718246">
        <ele>296.9</ele>
        <time>2023-03-26T10:27:26Z</time>
      </trkpt>
      <trkpt lat="38.279728" lon="-1.718327">
        <ele>295.9</ele>
        <time>2023-03-26T10:27:31Z</time>
      </trkpt>
      <trkpt lat="38.279738" lon="-1.718419">
        <ele>295.9</ele>
        <time>2023-03-26T10:27:37Z</time>
      </trkpt>
      <trkpt lat="38.279743" lon="-1.718513">
        <ele>296.9</ele>
        <time>2023-03-26T10:27:42Z</time>
      </trkpt>
      <trkpt lat="38.279748" lon="-1.718594">
        <ele>295.9</ele>
        <time>2023-03-26T10:27:46Z</time>
      </trkpt>
      <trkpt lat="38.279746" lon="-1.718689">
        <ele>295.9</ele>
        <time>2023-03-26T10:27:52Z</time>
      </trkpt>
      <trkpt lat="38.279746" lon="-1.718779">
        <ele>294.9</ele>
        <time>2023-03-26T10:27:57Z</time>
      </trkpt>
      <trkpt lat="38.279753" lon="-1.718865">
        <ele>293.9</ele>
        <time>2023-03-26T10:28:02Z</time>
      </trkpt>
      <trkpt lat="38.279764" lon="-1.718950">
        <ele>294.9</ele>
        <time>2023-03-26T10:28:07Z</time>
      </trkpt>
      <trkpt lat="38.279777" lon="-1.719049">
        <ele>295.1</ele>
        <time>2023-03-26T10:28:13Z</time>
      </trkpt>
      <trkpt lat="38.279772" lon="-1.719131">
        <ele>294.9</ele>
        <time>2023-03-26T10:28:17Z</time>
      </trkpt>
      <trkpt lat="38.279764" lon="-1.719216">
        <ele>294.9</ele>
        <time>2023-03-26T10:28:22Z</time>
      </trkpt>
      <trkpt lat="38.279753" lon="-1.719295">
        <ele>293.9</ele>
        <time>2023-03-26T10:28:27Z</time>
      </trkpt>
      <trkpt lat="38.279741" lon="-1.719377">
        <ele>291.9</ele>
        <time>2023-03-26T10:28:31Z</time>
      </trkpt>
      <trkpt lat="38.279732" lon="-1.719458">
        <ele>291.1</ele>
        <time>2023-03-26T10:28:37Z</time>
      </trkpt>
      <trkpt lat="38.279712" lon="-1.719535">
        <ele>289.9</ele>
        <time>2023-03-26T10:28:42Z</time>
      </trkpt>
      <trkpt lat="38.279672" lon="-1.719608">
        <ele>286.9</ele>
        <time>2023-03-26T10:28:49Z</time>
      </trkpt>
      <trkpt lat="38.279658" lon="-1.719688">
        <ele>285.9</ele>
        <time>2023-03-26T10:28:54Z</time>
      </trkpt>
      <trkpt lat="38.279657" lon="-1.719776">
        <ele>285.9</ele>
        <time>2023-03-26T10:28:59Z</time>
      </trkpt>
      <trkpt lat="38.279658" lon="-1.719860">
        <ele>284.9</ele>
        <time>2023-03-26T10:29:04Z</time>
      </trkpt>
      <trkpt lat="38.279640" lon="-1.719938">
        <ele>283.9</ele>
        <time>2023-03-26T10:29:08Z</time>
      </trkpt>
      <trkpt lat="38.279624" lon="-1.720023">
        <ele>284.9</ele>
        <time>2023-03-26T10:29:13Z</time>
      </trkpt>
      <trkpt lat="38.279596" lon="-1.720100">
        <ele>285.9</ele>
        <time>2023-03-26T10:29:19Z</time>
      </trkpt>
      <trkpt lat="38.279584" lon="-1.720187">
        <ele>285.9</ele>
        <time>2023-03-26T10:29:24Z</time>
      </trkpt>
      <trkpt lat="38.279551" lon="-1.720263">
        <ele>285.1</ele>
        <time>2023-03-26T10:29:29Z</time>
      </trkpt>
      <trkpt lat="38.279545" lon="-1.720347">
        <ele>284.9</ele>
        <time>2023-03-26T10:29:35Z</time>
      </trkpt>
      <trkpt lat="38.279523" lon="-1.720433">
        <ele>286.6</ele>
        <time>2023-03-26T10:29:40Z</time>
      </trkpt>
      <trkpt lat="38.279491" lon="-1.720504">
        <ele>286.9</ele>
        <time>2023-03-26T10:29:43Z</time>
      </trkpt>
      <trkpt lat="38.279442" lon="-1.720567">
        <ele>287.9</ele>
        <time>2023-03-26T10:29:47Z</time>
      </trkpt>
      <trkpt lat="38.279402" lon="-1.720633">
        <ele>287.9</ele>
        <time>2023-03-26T10:29:52Z</time>
      </trkpt>
      <trkpt lat="38.279377" lon="-1.720711">
        <ele>288.8</ele>
        <time>2023-03-26T10:29:58Z</time>
      </trkpt>
      <trkpt lat="38.279347" lon="-1.720791">
        <ele>288.9</ele>
        <time>2023-03-26T10:30:03Z</time>
      </trkpt>
      <trkpt lat="38.279319" lon="-1.720874">
        <ele>287.9</ele>
        <time>2023-03-26T10:30:07Z</time>
      </trkpt>
      <trkpt lat="38.279306" lon="-1.720952">
        <ele>287.9</ele>
        <time>2023-03-26T10:30:11Z</time>
      </trkpt>
      <trkpt lat="38.279281" lon="-1.721031">
        <ele>288.9</ele>
        <time>2023-03-26T10:30:16Z</time>
      </trkpt>
      <trkpt lat="38.279259" lon="-1.721107">
        <ele>287.9</ele>
        <time>2023-03-26T10:30:21Z</time>
      </trkpt>
      <trkpt lat="38.279243" lon="-1.721193">
        <ele>286.9</ele>
        <time>2023-03-26T10:30:27Z</time>
      </trkpt>
      <trkpt lat="38.279232" lon="-1.721276">
        <ele>287.6</ele>
        <time>2023-03-26T10:30:32Z</time>
      </trkpt>
      <trkpt lat="38.279227" lon="-1.721365">
        <ele>286.9</ele>
        <time>2023-03-26T10:30:36Z</time>
      </trkpt>
      <trkpt lat="38.279218" lon="-1.721453">
        <ele>285.9</ele>
        <time>2023-03-26T10:30:41Z</time>
      </trkpt>
      <trkpt lat="38.279227" lon="-1.721539">
        <ele>284.9</ele>
        <time>2023-03-26T10:30:47Z</time>
      </trkpt>
      <trkpt lat="38.279237" lon="-1.721627">
        <ele>284.9</ele>
        <time>2023-03-26T10:30:52Z</time>
      </trkpt>
      <trkpt lat="38.279240" lon="-1.721713">
        <ele>284.9</ele>
        <time>2023-03-26T10:30:56Z</time>
      </trkpt>
      <trkpt lat="38.279245" lon="-1.721797">
        <ele>284.9</ele>
        <time>2023-03-26T10:31:01Z</time>
      </trkpt>
      <trkpt lat="38.279230" lon="-1.721875">
        <ele>283.9</ele>
        <time>2023-03-26T10:31:05Z</time>
      </trkpt>
      <trkpt lat="38.279209" lon="-1.721953">
        <ele>283.9</ele>
        <time>2023-03-26T10:31:10Z</time>
      </trkpt>
      <trkpt lat="38.279202" lon="-1.722036">
        <ele>282.9</ele>
        <time>2023-03-26T10:31:14Z</time>
      </trkpt>
      <trkpt lat="38.279203" lon="-1.722132">
        <ele>282.9</ele>
        <time>2023-03-26T10:31:19Z</time>
      </trkpt>
      <trkpt lat="38.279193" lon="-1.722217">
        <ele>281.9</ele>
        <time>2023-03-26T10:31:24Z</time>
      </trkpt>
      <trkpt lat="38.279196" lon="-1.722304">
        <ele>281.9</ele>
        <time>2023-03-26T10:31:29Z</time>
      </trkpt>
      <trkpt lat="38.279190" lon="-1.722390">
        <ele>280.9</ele>
        <time>2023-03-26T10:31:37Z</time>
      </trkpt>
      <trkpt lat="38.279214" lon="-1.722470">
        <ele>278.9</ele>
        <time>2023-03-26T10:31:47Z</time>
      </trkpt>
      <trkpt lat="38.279223" lon="-1.722554">
        <ele>277.9</ele>
        <time>2023-03-26T10:31:51Z</time>
      </trkpt>
      <trkpt lat="38.279194" lon="-1.722627">
        <ele>278.9</ele>
        <time>2023-03-26T10:31:55Z</time>
      </trkpt>
      <trkpt lat="38.279173" lon="-1.722706">
        <ele>279.9</ele>
        <time>2023-03-26T10:31:59Z</time>
      </trkpt>
      <trkpt lat="38.279156" lon="-1.722789">
        <ele>278.9</ele>
        <time>2023-03-26T10:32:04Z</time>
      </trkpt>
      <trkpt lat="38.279164" lon="-1.722871">
        <ele>279.6</ele>
        <time>2023-03-26T10:32:09Z</time>
      </trkpt>
      <trkpt lat="38.279171" lon="-1.722958">
        <ele>280.9</ele>
        <time>2023-03-26T10:32:14Z</time>
      </trkpt>
      <trkpt lat="38.279159" lon="-1.723041">
        <ele>280.9</ele>
        <time>2023-03-26T10:32:19Z</time>
      </trkpt>
      <trkpt lat="38.279152" lon="-1.723121">
        <ele>280.9</ele>
        <time>2023-03-26T10:32:23Z</time>
      </trkpt>
      <trkpt lat="38.279135" lon="-1.723207">
        <ele>280.1</ele>
        <time>2023-03-26T10:32:28Z</time>
      </trkpt>
      <trkpt lat="38.279120" lon="-1.723288">
        <ele>279.6</ele>
        <time>2023-03-26T10:32:33Z</time>
      </trkpt>
      <trkpt lat="38.279104" lon="-1.723367">
        <ele>279.1</ele>
        <time>2023-03-26T10:32:38Z</time>
      </trkpt>
      <trkpt lat="38.279104" lon="-1.723449">
        <ele>277.9</ele>
        <time>2023-03-26T10:32:43Z</time>
      </trkpt>
      <trkpt lat="38.279093" lon="-1.723535">
        <ele>280.8</ele>
        <time>2023-03-26T10:32:48Z</time>
      </trkpt>
      <trkpt lat="38.279096" lon="-1.723624">
        <ele>281.8</ele>
        <time>2023-03-26T10:32:53Z</time>
      </trkpt>
      <trkpt lat="38.279103" lon="-1.723705">
        <ele>282.9</ele>
        <time>2023-03-26T10:32:58Z</time>
      </trkpt>
      <trkpt lat="38.279101" lon="-1.723785">
        <ele>283.9</ele>
        <time>2023-03-26T10:33:03Z</time>
      </trkpt>
      <trkpt lat="38.279118" lon="-1.723866">
        <ele>281.9</ele>
        <time>2023-03-26T10:33:11Z</time>
      </trkpt>
      <trkpt lat="38.279136" lon="-1.723953">
        <ele>284.6</ele>
        <time>2023-03-26T10:33:18Z</time>
      </trkpt>
      <trkpt lat="38.279174" lon="-1.724025">
        <ele>284.1</ele>
        <time>2023-03-26T10:33:28Z</time>
      </trkpt>
      <trkpt lat="38.279198" lon="-1.724102">
        <ele>283.9</ele>
        <time>2023-03-26T10:33:32Z</time>
      </trkpt>
      <trkpt lat="38.279211" lon="-1.724186">
        <ele>284.9</ele>
        <time>2023-03-26T10:33:37Z</time>
      </trkpt>
      <trkpt lat="38.279235" lon="-1.724267">
        <ele>284.9</ele>
        <time>2023-03-26T10:33:42Z</time>
      </trkpt>
      <trkpt lat="38.279255" lon="-1.724346">
        <ele>283.9</ele>
        <time>2023-03-26T10:33:47Z</time>
      </trkpt>
      <trkpt lat="38.279279" lon="-1.724424">
        <ele>282.7</ele>
        <time>2023-03-26T10:33:53Z</time>
      </trkpt>
      <trkpt lat="38.279303" lon="-1.724499">
        <ele>281.9</ele>
        <time>2023-03-26T10:33:58Z</time>
      </trkpt>
      <trkpt lat="38.279321" lon="-1.724588">
        <ele>282.9</ele>
        <time>2023-03-26T10:34:03Z</time>
      </trkpt>
      <trkpt lat="38.279318" lon="-1.724671">
        <ele>281.9</ele>
        <time>2023-03-26T10:34:10Z</time>
      </trkpt>
      <trkpt lat="38.279326" lon="-1.724758">
        <ele>281.9</ele>
        <time>2023-03-26T10:34:16Z</time>
      </trkpt>
      <trkpt lat="38.279372" lon="-1.724819">
        <ele>281.9</ele>
        <time>2023-03-26T10:34:20Z</time>
      </trkpt>
      <trkpt lat="38.279386" lon="-1.724907">
        <ele>279.9</ele>
        <time>2023-03-26T10:34:25Z</time>
      </trkpt>
      <trkpt lat="38.279393" lon="-1.724992">
        <ele>279.8</ele>
        <time>2023-03-26T10:34:30Z</time>
      </trkpt>
      <trkpt lat="38.279422" lon="-1.725073">
        <ele>279.9</ele>
        <time>2023-03-26T10:34:36Z</time>
      </trkpt>
      <trkpt lat="38.279435" lon="-1.725156">
        <ele>279.9</ele>
        <time>2023-03-26T10:34:41Z</time>
      </trkpt>
      <trkpt lat="38.279450" lon="-1.725242">
        <ele>279.9</ele>
        <time>2023-03-26T10:34:45Z</time>
      </trkpt>
      <trkpt lat="38.279466" lon="-1.725330">
        <ele>279.9</ele>
        <time>2023-03-26T10:34:50Z</time>
      </trkpt>
      <trkpt lat="38.279472" lon="-1.725418">
        <ele>279.9</ele>
        <time>2023-03-26T10:34:55Z</time>
      </trkpt>
      <trkpt lat="38.279491" lon="-1.725501">
        <ele>280.9</ele>
        <time>2023-03-26T10:35:00Z</time>
      </trkpt>
      <trkpt lat="38.279499" lon="-1.725583">
        <ele>279.9</ele>
        <time>2023-03-26T10:35:04Z</time>
      </trkpt>
      <trkpt lat="38.279531" lon="-1.725656">
        <ele>279.1</ele>
        <time>2023-03-26T10:35:09Z</time>
      </trkpt>
      <trkpt lat="38.279528" lon="-1.725740">
        <ele>278.1</ele>
        <time>2023-03-26T10:35:15Z</time>
      </trkpt>
      <trkpt lat="38.279505" lon="-1.725819">
        <ele>277.9</ele>
        <time>2023-03-26T10:35:19Z</time>
      </trkpt>
      <trkpt lat="38.279531" lon="-1.725892">
        <ele>276.1</ele>
        <time>2023-03-26T10:35:47Z</time>
      </trkpt>
      <trkpt lat="38.279554" lon="-1.725977">
        <ele>274.9</ele>
        <time>2023-03-26T10:35:52Z</time>
      </trkpt>
      <trkpt lat="38.279558" lon="-1.726059">
        <ele>272.9</ele>
        <time>2023-03-26T10:35:58Z</time>
      </trkpt>
      <trkpt lat="38.279556" lon="-1.726156">
        <ele>271.9</ele>
        <time>2023-03-26T10:36:07Z</time>
      </trkpt>
      <trkpt lat="38.279557" lon="-1.726241">
        <ele>270.9</ele>
        <time>2023-03-26T10:36:11Z</time>
      </trkpt>
      <trkpt lat="38.279550" lon="-1.726324">
        <ele>267.9</ele>
        <time>2023-03-26T10:36:17Z</time>
      </trkpt>
      <trkpt lat="38.279548" lon="-1.726410">
        <ele>268.9</ele>
        <time>2023-03-26T10:36:25Z</time>
      </trkpt>
      <trkpt lat="38.279519" lon="-1.726486">
        <ele>267.9</ele>
        <time>2023-03-26T10:36:39Z</time>
      </trkpt>
      <trkpt lat="38.279548" lon="-1.726566">
        <ele>267.9</ele>
        <time>2023-03-26T10:36:44Z</time>
      </trkpt>
      <trkpt lat="38.279543" lon="-1.726659">
        <ele>268.9</ele>
        <time>2023-03-26T10:36:48Z</time>
      </trkpt>
      <trkpt lat="38.279564" lon="-1.726740">
        <ele>271.8</ele>
        <time>2023-03-26T10:37:02Z</time>
      </trkpt>
      <trkpt lat="38.279572" lon="-1.726820">
        <ele>274.1</ele>
        <time>2023-03-26T10:37:29Z</time>
      </trkpt>
      <trkpt lat="38.279573" lon="-1.726905">
        <ele>273.9</ele>
        <time>2023-03-26T10:37:43Z</time>
      </trkpt>
      <trkpt lat="38.279560" lon="-1.726983">
        <ele>273.8</ele>
        <time>2023-03-26T10:37:48Z</time>
      </trkpt>
      <trkpt lat="38.279564" lon="-1.727071">
        <ele>272.9</ele>
        <time>2023-03-26T10:37:53Z</time>
      </trkpt>
      <trkpt lat="38.279577" lon="-1.727150">
        <ele>273.6</ele>
        <time>2023-03-26T10:37:58Z</time>
      </trkpt>
      <trkpt lat="38.279574" lon="-1.727232">
        <ele>272.9</ele>
        <time>2023-03-26T10:38:03Z</time>
      </trkpt>
      <trkpt lat="38.279570" lon="-1.727320">
        <ele>273.9</ele>
        <time>2023-03-26T10:38:09Z</time>
      </trkpt>
      <trkpt lat="38.279558" lon="-1.727402">
        <ele>274.9</ele>
        <time>2023-03-26T10:38:16Z</time>
      </trkpt>
      <trkpt lat="38.279558" lon="-1.727486">
        <ele>274.9</ele>
        <time>2023-03-26T10:38:23Z</time>
      </trkpt>
      <trkpt lat="38.279517" lon="-1.727550">
        <ele>275.8</ele>
        <time>2023-03-26T10:38:30Z</time>
      </trkpt>
      <trkpt lat="38.279532" lon="-1.727616">
        <ele>281.9</ele>
        <time>2023-03-26T10:40:40Z</time>
      </trkpt>
      <trkpt lat="38.279504" lon="-1.727695">
        <ele>279.9</ele>
        <time>2023-03-26T10:40:52Z</time>
      </trkpt>
      <trkpt lat="38.279484" lon="-1.727778">
        <ele>278.9</ele>
        <time>2023-03-26T10:40:57Z</time>
      </trkpt>
      <trkpt lat="38.279472" lon="-1.727861">
        <ele>277.9</ele>
        <time>2023-03-26T10:41:04Z</time>
      </trkpt>
      <trkpt lat="38.279499" lon="-1.727938">
        <ele>274.9</ele>
        <time>2023-03-26T10:41:10Z</time>
      </trkpt>
      <trkpt lat="38.279510" lon="-1.728017">
        <ele>273.1</ele>
        <time>2023-03-26T10:41:17Z</time>
      </trkpt>
      <trkpt lat="38.279536" lon="-1.728091">
        <ele>269.9</ele>
        <time>2023-03-26T10:41:26Z</time>
      </trkpt>
      <trkpt lat="38.279535" lon="-1.728174">
        <ele>268.9</ele>
        <time>2023-03-26T10:41:35Z</time>
      </trkpt>
      <trkpt lat="38.279542" lon="-1.728257">
        <ele>267.1</ele>
        <time>2023-03-26T10:41:41Z</time>
      </trkpt>
      <trkpt lat="38.279569" lon="-1.728336">
        <ele>265.9</ele>
        <time>2023-03-26T10:41:46Z</time>
      </trkpt>
      <trkpt lat="38.279582" lon="-1.728414">
        <ele>266.8</ele>
        <time>2023-03-26T10:41:51Z</time>
      </trkpt>
      <trkpt lat="38.279569" lon="-1.728494">
        <ele>265.9</ele>
        <time>2023-03-26T10:41:56Z</time>
      </trkpt>
      <trkpt lat="38.279555" lon="-1.728578">
        <ele>265.9</ele>
        <time>2023-03-26T10:42:01Z</time>
      </trkpt>
      <trkpt lat="38.279555" lon="-1.728668">
        <ele>266.8</ele>
        <time>2023-03-26T10:42:07Z</time>
      </trkpt>
      <trkpt lat="38.279570" lon="-1.728761">
        <ele>266.9</ele>
        <time>2023-03-26T10:42:15Z</time>
      </trkpt>
      <trkpt lat="38.279587" lon="-1.728839">
        <ele>266.9</ele>
        <time>2023-03-26T10:42:20Z</time>
      </trkpt>
      <trkpt lat="38.279598" lon="-1.728920">
        <ele>267.9</ele>
        <time>2023-03-26T10:42:26Z</time>
      </trkpt>
      <trkpt lat="38.279605" lon="-1.729006">
        <ele>267.9</ele>
        <time>2023-03-26T10:42:32Z</time>
      </trkpt>
      <trkpt lat="38.279606" lon="-1.729086">
        <ele>267.9</ele>
        <time>2023-03-26T10:42:38Z</time>
      </trkpt>
      <trkpt lat="38.279617" lon="-1.729173">
        <ele>269.8</ele>
        <time>2023-03-26T10:42:43Z</time>
      </trkpt>
      <trkpt lat="38.279602" lon="-1.729261">
        <ele>271.9</ele>
        <time>2023-03-26T10:42:59Z</time>
      </trkpt>
      <trkpt lat="38.279609" lon="-1.729346">
        <ele>272.8</ele>
        <time>2023-03-26T10:43:03Z</time>
      </trkpt>
      <trkpt lat="38.279612" lon="-1.729434">
        <ele>274.9</ele>
        <time>2023-03-26T10:43:10Z</time>
      </trkpt>
      <trkpt lat="38.279624" lon="-1.729519">
        <ele>273.9</ele>
        <time>2023-03-26T10:43:14Z</time>
      </trkpt>
      <trkpt lat="38.279634" lon="-1.729606">
        <ele>272.9</ele>
        <time>2023-03-26T10:43:19Z</time>
      </trkpt>
      <trkpt lat="38.279631" lon="-1.729689">
        <ele>271.9</ele>
        <time>2023-03-26T10:43:23Z</time>
      </trkpt>
      <trkpt lat="38.279631" lon="-1.729771">
        <ele>271.1</ele>
        <time>2023-03-26T10:43:28Z</time>
      </trkpt>
      <trkpt lat="38.279638" lon="-1.729857">
        <ele>270.9</ele>
        <time>2023-03-26T10:43:33Z</time>
      </trkpt>
      <trkpt lat="38.279616" lon="-1.729937">
        <ele>269.9</ele>
        <time>2023-03-26T10:43:39Z</time>
      </trkpt>
      <trkpt lat="38.279594" lon="-1.730013">
        <ele>269.9</ele>
        <time>2023-03-26T10:43:44Z</time>
      </trkpt>
      <trkpt lat="38.279555" lon="-1.730083">
        <ele>269.9</ele>
        <time>2023-03-26T10:43:49Z</time>
      </trkpt>
      <trkpt lat="38.279536" lon="-1.730168">
        <ele>269.9</ele>
        <time>2023-03-26T10:43:54Z</time>
      </trkpt>
      <trkpt lat="38.279543" lon="-1.730248">
        <ele>271.8</ele>
        <time>2023-03-26T10:44:35Z</time>
      </trkpt>
      <trkpt lat="38.279552" lon="-1.730335">
        <ele>272.8</ele>
        <time>2023-03-26T10:44:39Z</time>
      </trkpt>
      <trkpt lat="38.279546" lon="-1.730419">
        <ele>273.8</ele>
        <time>2023-03-26T10:44:44Z</time>
      </trkpt>
      <trkpt lat="38.279495" lon="-1.730472">
        <ele>272.9</ele>
        <time>2023-03-26T10:44:49Z</time>
      </trkpt>
      <trkpt lat="38.279470" lon="-1.730558">
        <ele>272.9</ele>
        <time>2023-03-26T10:44:53Z</time>
      </trkpt>
      <trkpt lat="38.279455" lon="-1.730646">
        <ele>273.9</ele>
        <time>2023-03-26T10:44:57Z</time>
      </trkpt>
      <trkpt lat="38.279441" lon="-1.730733">
        <ele>273.8</ele>
        <time>2023-03-26T10:45:02Z</time>
      </trkpt>
      <trkpt lat="38.279467" lon="-1.730808">
        <ele>271.9</ele>
        <time>2023-03-26T10:45:26Z</time>
      </trkpt>
      <trkpt lat="38.279473" lon="-1.730893">
        <ele>270.9</ele>
        <time>2023-03-26T10:45:31Z</time>
      </trkpt>
      <trkpt lat="38.279449" lon="-1.730980">
        <ele>270.9</ele>
        <time>2023-03-26T10:45:35Z</time>
      </trkpt>
      <trkpt lat="38.279455" lon="-1.731066">
        <ele>271.9</ele>
        <time>2023-03-26T10:45:39Z</time>
      </trkpt>
      <trkpt lat="38.279416" lon="-1.731144">
        <ele>272.9</ele>
        <time>2023-03-26T10:45:43Z</time>
      </trkpt>
      <trkpt lat="38.279374" lon="-1.731214">
        <ele>272.9</ele>
        <time>2023-03-26T10:45:48Z</time>
      </trkpt>
      <trkpt lat="38.279346" lon="-1.731292">
        <ele>273.9</ele>
        <time>2023-03-26T10:45:53Z</time>
      </trkpt>
      <trkpt lat="38.279326" lon="-1.731372">
        <ele>273.9</ele>
        <time>2023-03-26T10:45:57Z</time>
      </trkpt>
      <trkpt lat="38.279299" lon="-1.731451">
        <ele>273.9</ele>
        <time>2023-03-26T10:46:02Z</time>
      </trkpt>
      <trkpt lat="38.279286" lon="-1.731531">
        <ele>273.9</ele>
        <time>2023-03-26T10:46:06Z</time>
      </trkpt>
      <trkpt lat="38.279261" lon="-1.731605">
        <ele>273.9</ele>
        <time>2023-03-26T10:46:11Z</time>
      </trkpt>
      <trkpt lat="38.279234" lon="-1.731681">
        <ele>273.9</ele>
        <time>2023-03-26T10:46:16Z</time>
      </trkpt>
      <trkpt lat="38.279203" lon="-1.731758">
        <ele>271.9</ele>
        <time>2023-03-26T10:46:22Z</time>
      </trkpt>
      <trkpt lat="38.279157" lon="-1.731824">
        <ele>272.8</ele>
        <time>2023-03-26T10:46:28Z</time>
      </trkpt>
      <trkpt lat="38.279137" lon="-1.731904">
        <ele>274.8</ele>
        <time>2023-03-26T10:46:32Z</time>
      </trkpt>
      <trkpt lat="38.279107" lon="-1.731981">
        <ele>275.9</ele>
        <time>2023-03-26T10:46:37Z</time>
      </trkpt>
      <trkpt lat="38.279080" lon="-1.732056">
        <ele>274.1</ele>
        <time>2023-03-26T10:46:55Z</time>
      </trkpt>
      <trkpt lat="38.279101" lon="-1.732135">
        <ele>273.8</ele>
        <time>2023-03-26T10:47:02Z</time>
      </trkpt>
      <trkpt lat="38.279103" lon="-1.732219">
        <ele>272.9</ele>
        <time>2023-03-26T10:47:08Z</time>
      </trkpt>
      <trkpt lat="38.279116" lon="-1.732298">
        <ele>273.6</ele>
        <time>2023-03-26T10:47:19Z</time>
      </trkpt>
      <trkpt lat="38.279109" lon="-1.732389">
        <ele>272.9</ele>
        <time>2023-03-26T10:47:34Z</time>
      </trkpt>
      <trkpt lat="38.279103" lon="-1.732474">
        <ele>270.9</ele>
        <time>2023-03-26T10:47:38Z</time>
      </trkpt>
      <trkpt lat="38.279076" lon="-1.732551">
        <ele>274.8</ele>
        <time>2023-03-26T10:47:43Z</time>
      </trkpt>
      <trkpt lat="38.279032" lon="-1.732614">
        <ele>275.9</ele>
        <time>2023-03-26T10:49:19Z</time>
      </trkpt>
      <trkpt lat="38.279014" lon="-1.732702">
        <ele>275.7</ele>
        <time>2023-03-26T10:49:23Z</time>
      </trkpt>
      <trkpt lat="38.279016" lon="-1.732815">
        <ele>277.9</ele>
        <time>2023-03-26T10:50:34Z</time>
      </trkpt>
      <trkpt lat="38.279027" lon="-1.732897">
        <ele>279.9</ele>
        <time>2023-03-26T10:51:57Z</time>
      </trkpt>
      <trkpt lat="38.279034" lon="-1.732984">
        <ele>280.9</ele>
        <time>2023-03-26T10:52:07Z</time>
      </trkpt>
      <trkpt lat="38.279025" lon="-1.733071">
        <ele>283.9</ele>
        <time>2023-03-26T10:52:32Z</time>
      </trkpt>
      <trkpt lat="38.279073" lon="-1.733122">
        <ele>284.9</ele>
        <time>2023-03-26T10:52:37Z</time>
      </trkpt>
      <trkpt lat="38.279130" lon="-1.733162">
        <ele>284.9</ele>
        <time>2023-03-26T10:52:45Z</time>
      </trkpt>
      <trkpt lat="38.279081" lon="-1.733108">
        <ele>280.9</ele>
        <time>2023-03-26T10:53:05Z</time>
      </trkpt>
      <trkpt lat="38.279022" lon="-1.733070">
        <ele>281.8</ele>
        <time>2023-03-26T10:53:09Z</time>
      </trkpt>
      <trkpt lat="38.278976" lon="-1.733004">
        <ele>281.9</ele>
        <time>2023-03-26T10:53:35Z</time>
      </trkpt>
      <trkpt lat="38.278916" lon="-1.732962">
        <ele>279.9</ele>
        <time>2023-03-26T10:53:40Z</time>
      </trkpt>
      <trkpt lat="38.278874" lon="-1.732898">
        <ele>279.9</ele>
        <time>2023-03-26T10:53:43Z</time>
      </trkpt>
      <trkpt lat="38.278807" lon="-1.732864">
        <ele>280.9</ele>
        <time>2023-03-26T10:53:48Z</time>
      </trkpt>
      <trkpt lat="38.278739" lon="-1.732874">
        <ele>280.9</ele>
        <time>2023-03-26T10:53:53Z</time>
      </trkpt>
      <trkpt lat="38.278673" lon="-1.732869">
        <ele>279.9</ele>
        <time>2023-03-26T10:53:58Z</time>
      </trkpt>
      <trkpt lat="38.278609" lon="-1.732852">
        <ele>280.9</ele>
        <time>2023-03-26T10:54:03Z</time>
      </trkpt>
      <trkpt lat="38.278544" lon="-1.732851">
        <ele>280.8</ele>
        <time>2023-03-26T10:54:07Z</time>
      </trkpt>
      <trkpt lat="38.278474" lon="-1.732859">
        <ele>281.8</ele>
        <time>2023-03-26T10:54:12Z</time>
      </trkpt>
      <trkpt lat="38.278409" lon="-1.732841">
        <ele>282.8</ele>
        <time>2023-03-26T10:54:17Z</time>
      </trkpt>
      <trkpt lat="38.278352" lon="-1.732808">
        <ele>282.1</ele>
        <time>2023-03-26T10:54:22Z</time>
      </trkpt>
      <trkpt lat="38.278288" lon="-1.732778">
        <ele>281.9</ele>
        <time>2023-03-26T10:54:27Z</time>
      </trkpt>
      <trkpt lat="38.278228" lon="-1.732735">
        <ele>281.9</ele>
        <time>2023-03-26T10:54:32Z</time>
      </trkpt>
      <trkpt lat="38.278167" lon="-1.732705">
        <ele>280.9</ele>
        <time>2023-03-26T10:54:38Z</time>
      </trkpt>
      <trkpt lat="38.278109" lon="-1.732665">
        <ele>279.9</ele>
        <time>2023-03-26T10:54:43Z</time>
      </trkpt>
      <trkpt lat="38.278047" lon="-1.732627">
        <ele>280.8</ele>
        <time>2023-03-26T10:54:48Z</time>
      </trkpt>
      <trkpt lat="38.277986" lon="-1.732598">
        <ele>279.9</ele>
        <time>2023-03-26T10:54:53Z</time>
      </trkpt>
      <trkpt lat="38.277926" lon="-1.732544">
        <ele>278.1</ele>
        <time>2023-03-26T10:54:58Z</time>
      </trkpt>
      <trkpt lat="38.277888" lon="-1.732476">
        <ele>277.9</ele>
        <time>2023-03-26T10:55:05Z</time>
      </trkpt>
      <trkpt lat="38.277824" lon="-1.732439">
        <ele>277.9</ele>
        <time>2023-03-26T10:55:12Z</time>
      </trkpt>
      <trkpt lat="38.277775" lon="-1.732387">
        <ele>276.9</ele>
        <time>2023-03-26T10:55:17Z</time>
      </trkpt>
      <trkpt lat="38.277718" lon="-1.732335">
        <ele>276.9</ele>
        <time>2023-03-26T10:55:21Z</time>
      </trkpt>
      <trkpt lat="38.277665" lon="-1.732279">
        <ele>278.8</ele>
        <time>2023-03-26T10:55:26Z</time>
      </trkpt>
      <trkpt lat="38.277608" lon="-1.732209">
        <ele>280.8</ele>
        <time>2023-03-26T10:55:47Z</time>
      </trkpt>
      <trkpt lat="38.277562" lon="-1.732151">
        <ele>279.9</ele>
        <time>2023-03-26T10:55:51Z</time>
      </trkpt>
      <trkpt lat="38.277507" lon="-1.732101">
        <ele>278.9</ele>
        <time>2023-03-26T10:55:57Z</time>
      </trkpt>
      <trkpt lat="38.277448" lon="-1.732060">
        <ele>278.1</ele>
        <time>2023-03-26T10:56:18Z</time>
      </trkpt>
      <trkpt lat="38.277393" lon="-1.732015">
        <ele>277.9</ele>
        <time>2023-03-26T10:56:22Z</time>
      </trkpt>
      <trkpt lat="38.277391" lon="-1.731933">
        <ele>277.6</ele>
        <time>2023-03-26T10:56:26Z</time>
      </trkpt>
      <trkpt lat="38.277396" lon="-1.731845">
        <ele>276.9</ele>
        <time>2023-03-26T10:56:29Z</time>
      </trkpt>
      <trkpt lat="38.277389" lon="-1.731763">
        <ele>275.9</ele>
        <time>2023-03-26T10:56:33Z</time>
      </trkpt>
      <trkpt lat="38.277394" lon="-1.731683">
        <ele>276.9</ele>
        <time>2023-03-26T10:56:37Z</time>
      </trkpt>
      <trkpt lat="38.277416" lon="-1.731607">
        <ele>276.9</ele>
        <time>2023-03-26T10:56:41Z</time>
      </trkpt>
      <trkpt lat="38.277388" lon="-1.731531">
        <ele>278.8</ele>
        <time>2023-03-26T10:57:03Z</time>
      </trkpt>
      <trkpt lat="38.277323" lon="-1.731507">
        <ele>279.8</ele>
        <time>2023-03-26T10:57:07Z</time>
      </trkpt>
      <trkpt lat="38.277279" lon="-1.731443">
        <ele>279.9</ele>
        <time>2023-03-26T10:57:16Z</time>
      </trkpt>
      <trkpt lat="38.277211" lon="-1.731453">
        <ele>280.9</ele>
        <time>2023-03-26T10:57:20Z</time>
      </trkpt>
      <trkpt lat="38.277147" lon="-1.731447">
        <ele>281.8</ele>
        <time>2023-03-26T10:57:27Z</time>
      </trkpt>
      <trkpt lat="38.277083" lon="-1.731451">
        <ele>281.9</ele>
        <time>2023-03-26T10:57:34Z</time>
      </trkpt>
      <trkpt lat="38.277019" lon="-1.731470">
        <ele>285.9</ele>
        <time>2023-03-26T10:58:06Z</time>
      </trkpt>
      <trkpt lat="38.276954" lon="-1.731494">
        <ele>288.8</ele>
        <time>2023-03-26T10:58:56Z</time>
      </trkpt>
      <trkpt lat="38.276865" lon="-1.731439">
        <ele>288.8</ele>
        <time>2023-03-26T10:59:25Z</time>
      </trkpt>
      <trkpt lat="38.276797" lon="-1.731381">
        <ele>288.9</ele>
        <time>2023-03-26T11:00:41Z</time>
      </trkpt>
      <trkpt lat="38.276682" lon="-1.731323">
        <ele>286.9</ele>
        <time>2023-03-26T11:01:45Z</time>
      </trkpt>
      <trkpt lat="38.276637" lon="-1.731262">
        <ele>287.9</ele>
        <time>2023-03-26T11:02:10Z</time>
      </trkpt>
      <trkpt lat="38.276572" lon="-1.731253">
        <ele>289.8</ele>
        <time>2023-03-26T11:02:20Z</time>
      </trkpt>
      <trkpt lat="38.276535" lon="-1.731142">
        <ele>292.9</ele>
        <time>2023-03-26T11:02:52Z</time>
      </trkpt>
      <trkpt lat="38.276477" lon="-1.731101">
        <ele>297.8</ele>
        <time>2023-03-26T11:03:05Z</time>
      </trkpt>
      <trkpt lat="38.276406" lon="-1.731081">
        <ele>295.9</ele>
        <time>2023-03-26T11:03:17Z</time>
      </trkpt>
      <trkpt lat="38.276349" lon="-1.731044">
        <ele>296.9</ele>
        <time>2023-03-26T11:03:28Z</time>
      </trkpt>
      <trkpt lat="38.276296" lon="-1.730996">
        <ele>296.9</ele>
        <time>2023-03-26T11:03:35Z</time>
      </trkpt>
      <trkpt lat="38.276230" lon="-1.730991">
        <ele>301.8</ele>
        <time>2023-03-26T11:03:48Z</time>
      </trkpt>
      <trkpt lat="38.276169" lon="-1.730969">
        <ele>302.9</ele>
        <time>2023-03-26T11:03:58Z</time>
      </trkpt>
      <trkpt lat="38.276104" lon="-1.730998">
        <ele>302.9</ele>
        <time>2023-03-26T11:04:09Z</time>
      </trkpt>
      <trkpt lat="38.276029" lon="-1.730956">
        <ele>303.9</ele>
        <time>2023-03-26T11:04:18Z</time>
      </trkpt>
      <trkpt lat="38.275963" lon="-1.730985">
        <ele>302.1</ele>
        <time>2023-03-26T11:04:23Z</time>
      </trkpt>
      <trkpt lat="38.275893" lon="-1.731043">
        <ele>302.8</ele>
        <time>2023-03-26T11:04:28Z</time>
      </trkpt>
      <trkpt lat="38.275851" lon="-1.731059">
        <ele>302.9</ele>
        <time>2023-03-26T11:04:34Z</time>
      </trkpt>
      <trkpt lat="38.275797" lon="-1.731089">
        <ele>304.9</ele>
        <time>2023-03-26T11:04:43Z</time>
      </trkpt>
      <trkpt lat="38.275756" lon="-1.731136">
        <ele>306.1</ele>
        <time>2023-03-26T11:05:01Z</time>
      </trkpt>
      <trkpt lat="38.275714" lon="-1.731183">
        <ele>305.8</ele>
        <time>2023-03-26T11:05:08Z</time>
      </trkpt>
      <trkpt lat="38.275661" lon="-1.731235">
        <ele>306.8</ele>
        <time>2023-03-26T11:05:13Z</time>
      </trkpt>
      <trkpt lat="38.275631" lon="-1.731272">
        <ele>306.0</ele>
        <time>2023-03-26T11:05:21Z</time>
      </trkpt>
      <trkpt lat="38.275608" lon="-1.731294">
        <ele>304.9</ele>
        <time>2023-03-26T11:05:37Z</time>
      </trkpt>
      <trkpt lat="38.275582" lon="-1.731323">
        <ele>303.9</ele>
        <time>2023-03-26T11:05:44Z</time>
      </trkpt>
      <trkpt lat="38.275562" lon="-1.731350">
        <ele>305.9</ele>
        <time>2023-03-26T11:05:51Z</time>
      </trkpt>
      <trkpt lat="38.275536" lon="-1.731376">
        <ele>306.6</ele>
        <time>2023-03-26T11:06:13Z</time>
      </trkpt>
      <trkpt lat="38.275508" lon="-1.731410">
        <ele>304.9</ele>
        <time>2023-03-26T11:06:21Z</time>
      </trkpt>
      <trkpt lat="38.275475" lon="-1.731437">
        <ele>304.9</ele>
        <time>2023-03-26T11:06:57Z</time>
      </trkpt>
      <trkpt lat="38.275482" lon="-1.731510">
        <ele>307.9</ele>
        <time>2023-03-26T11:07:38Z</time>
      </trkpt>
      <trkpt lat="38.275456" lon="-1.731534">
        <ele>311.6</ele>
        <time>2023-03-26T11:07:45Z</time>
      </trkpt>
      <trkpt lat="38.275423" lon="-1.731574">
        <ele>312.8</ele>
        <time>2023-03-26T11:07:57Z</time>
      </trkpt>
      <trkpt lat="38.275406" lon="-1.731610">
        <ele>312.9</ele>
        <time>2023-03-26T11:08:09Z</time>
      </trkpt>
      <trkpt lat="38.275364" lon="-1.731659">
        <ele>312.9</ele>
        <time>2023-03-26T11:08:15Z</time>
      </trkpt>
      <trkpt lat="38.275327" lon="-1.731713">
        <ele>311.9</ele>
        <time>2023-03-26T11:08:21Z</time>
      </trkpt>
      <trkpt lat="38.275283" lon="-1.731759">
        <ele>311.1</ele>
        <time>2023-03-26T11:08:26Z</time>
      </trkpt>
      <trkpt lat="38.275264" lon="-1.731810">
        <ele>310.9</ele>
        <time>2023-03-26T11:08:32Z</time>
      </trkpt>
      <trkpt lat="38.275221" lon="-1.731834">
        <ele>313.6</ele>
        <time>2023-03-26T11:08:56Z</time>
      </trkpt>
      <trkpt lat="38.275195" lon="-1.731885">
        <ele>314.6</ele>
        <time>2023-03-26T11:09:04Z</time>
      </trkpt>
      <trkpt lat="38.275159" lon="-1.731931">
        <ele>312.9</ele>
        <time>2023-03-26T11:09:21Z</time>
      </trkpt>
      <trkpt lat="38.275135" lon="-1.731967">
        <ele>316.1</ele>
        <time>2023-03-26T11:09:33Z</time>
      </trkpt>
      <trkpt lat="38.275112" lon="-1.732006">
        <ele>319.8</ele>
        <time>2023-03-26T11:09:55Z</time>
      </trkpt>
      <trkpt lat="38.275090" lon="-1.732037">
        <ele>319.8</ele>
        <time>2023-03-26T11:10:01Z</time>
      </trkpt>
      <trkpt lat="38.275076" lon="-1.732067">
        <ele>321.1</ele>
        <time>2023-03-26T11:10:09Z</time>
      </trkpt>
      <trkpt lat="38.275048" lon="-1.732106">
        <ele>319.9</ele>
        <time>2023-03-26T11:10:20Z</time>
      </trkpt>
      <trkpt lat="38.275015" lon="-1.732148">
        <ele>319.9</ele>
        <time>2023-03-26T11:10:28Z</time>
      </trkpt>
      <trkpt lat="38.275015" lon="-1.732192">
        <ele>323.9</ele>
        <time>2023-03-26T11:12:35Z</time>
      </trkpt>
      <trkpt lat="38.275020" lon="-1.732250">
        <ele>321.9</ele>
        <time>2023-03-26T11:12:40Z</time>
      </trkpt>
      <trkpt lat="38.275027" lon="-1.732318">
        <ele>320.9</ele>
        <time>2023-03-26T11:12:45Z</time>
      </trkpt>
      <trkpt lat="38.275025" lon="-1.732403">
        <ele>321.9</ele>
        <time>2023-03-26T11:12:56Z</time>
      </trkpt>
      <trkpt lat="38.275056" lon="-1.732565">
        <ele>321.1</ele>
        <time>2023-03-26T11:13:01Z</time>
      </trkpt>
      <trkpt lat="38.275061" lon="-1.732641">
        <ele>319.9</ele>
        <time>2023-03-26T11:13:09Z</time>
      </trkpt>
      <trkpt lat="38.275005" lon="-1.732649">
        <ele>319.9</ele>
        <time>2023-03-26T11:13:13Z</time>
      </trkpt>
      <trkpt lat="38.274936" lon="-1.732658">
        <ele>320.9</ele>
        <time>2023-03-26T11:13:18Z</time>
      </trkpt>
      <trkpt lat="38.274870" lon="-1.732654">
        <ele>319.9</ele>
        <time>2023-03-26T11:13:24Z</time>
      </trkpt>
      <trkpt lat="38.274804" lon="-1.732639">
        <ele>318.9</ele>
        <time>2023-03-26T11:13:33Z</time>
      </trkpt>
      <trkpt lat="38.274740" lon="-1.732625">
        <ele>318.9</ele>
        <time>2023-03-26T11:13:38Z</time>
      </trkpt>
      <trkpt lat="38.274675" lon="-1.732609">
        <ele>319.9</ele>
        <time>2023-03-26T11:13:42Z</time>
      </trkpt>
      <trkpt lat="38.274609" lon="-1.732597">
        <ele>319.9</ele>
        <time>2023-03-26T11:13:47Z</time>
      </trkpt>
      <trkpt lat="38.274502" lon="-1.732572">
        <ele>318.9</ele>
        <time>2023-03-26T11:13:52Z</time>
      </trkpt>
      <trkpt lat="38.274473" lon="-1.732566">
        <ele>318.9</ele>
        <time>2023-03-26T11:13:57Z</time>
      </trkpt>
      <trkpt lat="38.274406" lon="-1.732545">
        <ele>317.9</ele>
        <time>2023-03-26T11:14:02Z</time>
      </trkpt>
      <trkpt lat="38.274345" lon="-1.732505">
        <ele>316.9</ele>
        <time>2023-03-26T11:14:07Z</time>
      </trkpt>
      <trkpt lat="38.274301" lon="-1.732436">
        <ele>315.9</ele>
        <time>2023-03-26T11:14:13Z</time>
      </trkpt>
      <trkpt lat="38.274282" lon="-1.732359">
        <ele>313.9</ele>
        <time>2023-03-26T11:14:18Z</time>
      </trkpt>
      <trkpt lat="38.274266" lon="-1.732281">
        <ele>313.1</ele>
        <time>2023-03-26T11:14:23Z</time>
      </trkpt>
      <trkpt lat="38.274247" lon="-1.732201">
        <ele>313.8</ele>
        <time>2023-03-26T11:14:28Z</time>
      </trkpt>
      <trkpt lat="38.274205" lon="-1.732140">
        <ele>312.9</ele>
        <time>2023-03-26T11:14:33Z</time>
      </trkpt>
      <trkpt lat="38.274151" lon="-1.732088">
        <ele>311.9</ele>
        <time>2023-03-26T11:14:38Z</time>
      </trkpt>
      <trkpt lat="38.274095" lon="-1.732049">
        <ele>310.9</ele>
        <time>2023-03-26T11:14:42Z</time>
      </trkpt>
      <trkpt lat="38.274041" lon="-1.732001">
        <ele>309.9</ele>
        <time>2023-03-26T11:14:47Z</time>
      </trkpt>
      <trkpt lat="38.273988" lon="-1.731945">
        <ele>308.9</ele>
        <time>2023-03-26T11:14:53Z</time>
      </trkpt>
      <trkpt lat="38.273926" lon="-1.731903">
        <ele>307.9</ele>
        <time>2023-03-26T11:14:58Z</time>
      </trkpt>
      <trkpt lat="38.273877" lon="-1.731845">
        <ele>306.9</ele>
        <time>2023-03-26T11:15:04Z</time>
      </trkpt>
      <trkpt lat="38.273815" lon="-1.731806">
        <ele>306.9</ele>
        <time>2023-03-26T11:15:09Z</time>
      </trkpt>
      <trkpt lat="38.273757" lon="-1.731771">
        <ele>306.9</ele>
        <time>2023-03-26T11:15:15Z</time>
      </trkpt>
      <trkpt lat="38.273714" lon="-1.731700">
        <ele>304.9</ele>
        <time>2023-03-26T11:15:20Z</time>
      </trkpt>
      <trkpt lat="38.273655" lon="-1.731649">
        <ele>303.9</ele>
        <time>2023-03-26T11:15:26Z</time>
      </trkpt>
      <trkpt lat="38.273589" lon="-1.731629">
        <ele>303.9</ele>
        <time>2023-03-26T11:15:31Z</time>
      </trkpt>
      <trkpt lat="38.273520" lon="-1.731604">
        <ele>302.9</ele>
        <time>2023-03-26T11:15:37Z</time>
      </trkpt>
      <trkpt lat="38.273462" lon="-1.731638">
        <ele>302.0</ele>
        <time>2023-03-26T11:15:42Z</time>
      </trkpt>
      <trkpt lat="38.273404" lon="-1.731682">
        <ele>300.9</ele>
        <time>2023-03-26T11:15:47Z</time>
      </trkpt>
      <trkpt lat="38.273341" lon="-1.731693">
        <ele>301.6</ele>
        <time>2023-03-26T11:15:52Z</time>
      </trkpt>
      <trkpt lat="38.273279" lon="-1.731716">
        <ele>302.8</ele>
        <time>2023-03-26T11:15:57Z</time>
      </trkpt>
      <trkpt lat="38.273219" lon="-1.731759">
        <ele>301.9</ele>
        <time>2023-03-26T11:16:03Z</time>
      </trkpt>
      <trkpt lat="38.273195" lon="-1.731841">
        <ele>302.9</ele>
        <time>2023-03-26T11:16:07Z</time>
      </trkpt>
      <trkpt lat="38.273160" lon="-1.731908">
        <ele>301.9</ele>
        <time>2023-03-26T11:16:13Z</time>
      </trkpt>
      <trkpt lat="38.273153" lon="-1.731989">
        <ele>301.1</ele>
        <time>2023-03-26T11:16:21Z</time>
      </trkpt>
      <trkpt lat="38.273176" lon="-1.732068">
        <ele>299.1</ele>
        <time>2023-03-26T11:16:27Z</time>
      </trkpt>
      <trkpt lat="38.273173" lon="-1.732155">
        <ele>299.1</ele>
        <time>2023-03-26T11:16:32Z</time>
      </trkpt>
      <trkpt lat="38.273170" lon="-1.732236">
        <ele>297.9</ele>
        <time>2023-03-26T11:16:36Z</time>
      </trkpt>
      <trkpt lat="38.273144" lon="-1.732314">
        <ele>296.9</ele>
        <time>2023-03-26T11:16:41Z</time>
      </trkpt>
      <trkpt lat="38.273112" lon="-1.732392">
        <ele>295.9</ele>
        <time>2023-03-26T11:16:46Z</time>
      </trkpt>
      <trkpt lat="38.273068" lon="-1.732463">
        <ele>293.9</ele>
        <time>2023-03-26T11:16:52Z</time>
      </trkpt>
      <trkpt lat="38.273026" lon="-1.732527">
        <ele>292.9</ele>
        <time>2023-03-26T11:16:59Z</time>
      </trkpt>
      <trkpt lat="38.272984" lon="-1.732591">
        <ele>291.8</ele>
        <time>2023-03-26T11:17:09Z</time>
      </trkpt>
      <trkpt lat="38.272938" lon="-1.732659">
        <ele>288.9</ele>
        <time>2023-03-26T11:17:15Z</time>
      </trkpt>
      <trkpt lat="38.272892" lon="-1.732718">
        <ele>286.9</ele>
        <time>2023-03-26T11:17:22Z</time>
      </trkpt>
      <trkpt lat="38.272848" lon="-1.732776">
        <ele>284.9</ele>
        <time>2023-03-26T11:17:31Z</time>
      </trkpt>
      <trkpt lat="38.272792" lon="-1.732819">
        <ele>283.9</ele>
        <time>2023-03-26T11:17:38Z</time>
      </trkpt>
      <trkpt lat="38.272736" lon="-1.732865">
        <ele>282.9</ele>
        <time>2023-03-26T11:17:44Z</time>
      </trkpt>
      <trkpt lat="38.272697" lon="-1.732933">
        <ele>279.9</ele>
        <time>2023-03-26T11:17:53Z</time>
      </trkpt>
      <trkpt lat="38.272633" lon="-1.732950">
        <ele>278.9</ele>
        <time>2023-03-26T11:18:01Z</time>
      </trkpt>
      <trkpt lat="38.272572" lon="-1.732984">
        <ele>278.9</ele>
        <time>2023-03-26T11:18:07Z</time>
      </trkpt>
      <trkpt lat="38.272511" lon="-1.733005">
        <ele>280.8</ele>
        <time>2023-03-26T11:18:16Z</time>
      </trkpt>
      <trkpt lat="38.272460" lon="-1.733060">
        <ele>279.9</ele>
        <time>2023-03-26T11:18:22Z</time>
      </trkpt>
      <trkpt lat="38.272406" lon="-1.733111">
        <ele>277.9</ele>
        <time>2023-03-26T11:18:29Z</time>
      </trkpt>
      <trkpt lat="38.272342" lon="-1.733100">
        <ele>277.9</ele>
        <time>2023-03-26T11:18:34Z</time>
      </trkpt>
      <trkpt lat="38.272318" lon="-1.733023">
        <ele>276.9</ele>
        <time>2023-03-26T11:18:39Z</time>
      </trkpt>
      <trkpt lat="38.272288" lon="-1.732943">
        <ele>275.9</ele>
        <time>2023-03-26T11:18:46Z</time>
      </trkpt>
      <trkpt lat="38.272259" lon="-1.732867">
        <ele>274.9</ele>
        <time>2023-03-26T11:18:51Z</time>
      </trkpt>
      <trkpt lat="38.272237" lon="-1.732774">
        <ele>273.9</ele>
        <time>2023-03-26T11:18:57Z</time>
      </trkpt>
      <trkpt lat="38.272195" lon="-1.732703">
        <ele>273.9</ele>
        <time>2023-03-26T11:19:03Z</time>
      </trkpt>
      <trkpt lat="38.272184" lon="-1.732622">
        <ele>272.9</ele>
        <time>2023-03-26T11:19:28Z</time>
      </trkpt>
      <trkpt lat="38.272150" lon="-1.732547">
        <ele>273.8</ele>
        <time>2023-03-26T11:19:35Z</time>
      </trkpt>
      <trkpt lat="38.272121" lon="-1.732474">
        <ele>273.7</ele>
        <time>2023-03-26T11:19:42Z</time>
      </trkpt>
      <trkpt lat="38.272090" lon="-1.732400">
        <ele>273.9</ele>
        <time>2023-03-26T11:19:49Z</time>
      </trkpt>
      <trkpt lat="38.272063" lon="-1.732324">
        <ele>273.9</ele>
        <time>2023-03-26T11:19:55Z</time>
      </trkpt>
      <trkpt lat="38.272023" lon="-1.732258">
        <ele>272.9</ele>
        <time>2023-03-26T11:20:02Z</time>
      </trkpt>
      <trkpt lat="38.271997" lon="-1.732164">
        <ele>272.9</ele>
        <time>2023-03-26T11:20:37Z</time>
      </trkpt>
      <trkpt lat="38.271937" lon="-1.732199">
        <ele>272.9</ele>
        <time>2023-03-26T11:20:48Z</time>
      </trkpt>
      <trkpt lat="38.271880" lon="-1.732163">
        <ele>272.9</ele>
        <time>2023-03-26T11:20:55Z</time>
      </trkpt>
      <trkpt lat="38.271826" lon="-1.732113">
        <ele>269.8</ele>
        <time>2023-03-26T11:21:51Z</time>
      </trkpt>
      <trkpt lat="38.271789" lon="-1.732043">
        <ele>262.9</ele>
        <time>2023-03-26T11:23:30Z</time>
      </trkpt>
      <trkpt lat="38.271750" lon="-1.732114">
        <ele>264.9</ele>
        <time>2023-03-26T11:24:19Z</time>
      </trkpt>
      <trkpt lat="38.271733" lon="-1.732194">
        <ele>268.1</ele>
        <time>2023-03-26T11:25:02Z</time>
      </trkpt>
      <trkpt lat="38.271667" lon="-1.732178">
        <ele>268.8</ele>
        <time>2023-03-26T11:25:15Z</time>
      </trkpt>
      <trkpt lat="38.271613" lon="-1.732134">
        <ele>267.9</ele>
        <time>2023-03-26T11:25:27Z</time>
      </trkpt>
      <trkpt lat="38.271562" lon="-1.732077">
        <ele>265.9</ele>
        <time>2023-03-26T11:25:33Z</time>
      </trkpt>
      <trkpt lat="38.271529" lon="-1.732007">
        <ele>266.9</ele>
        <time>2023-03-26T11:25:38Z</time>
      </trkpt>
      <trkpt lat="38.271515" lon="-1.731925">
        <ele>266.9</ele>
        <time>2023-03-26T11:25:44Z</time>
      </trkpt>
      <trkpt lat="38.271471" lon="-1.731864">
        <ele>267.9</ele>
        <time>2023-03-26T11:25:49Z</time>
      </trkpt>
      <trkpt lat="38.271422" lon="-1.731804">
        <ele>267.9</ele>
        <time>2023-03-26T11:25:54Z</time>
      </trkpt>
      <trkpt lat="38.271366" lon="-1.731753">
        <ele>267.9</ele>
        <time>2023-03-26T11:25:59Z</time>
      </trkpt>
      <trkpt lat="38.271324" lon="-1.731689">
        <ele>267.8</ele>
        <time>2023-03-26T11:26:06Z</time>
      </trkpt>
      <trkpt lat="38.271265" lon="-1.731623">
        <ele>273.9</ele>
        <time>2023-03-26T11:28:03Z</time>
      </trkpt>
      <trkpt lat="38.271287" lon="-1.731678">
        <ele>278.6</ele>
        <time>2023-03-26T11:30:50Z</time>
      </trkpt>
      <trkpt lat="38.271247" lon="-1.731605">
        <ele>273.9</ele>
        <time>2023-03-26T11:31:16Z</time>
      </trkpt>
      <trkpt lat="38.271186" lon="-1.731581">
        <ele>270.1</ele>
        <time>2023-03-26T11:31:31Z</time>
      </trkpt>
      <trkpt lat="38.271120" lon="-1.731592">
        <ele>269.9</ele>
        <time>2023-03-26T11:31:37Z</time>
      </trkpt>
      <trkpt lat="38.271086" lon="-1.731659">
        <ele>271.6</ele>
        <time>2023-03-26T11:31:43Z</time>
      </trkpt>
      <trkpt lat="38.271051" lon="-1.731727">
        <ele>274.9</ele>
        <time>2023-03-26T11:31:56Z</time>
      </trkpt>
      <trkpt lat="38.270997" lon="-1.731776">
        <ele>274.9</ele>
        <time>2023-03-26T11:32:05Z</time>
      </trkpt>
      <trkpt lat="38.270935" lon="-1.731761">
        <ele>275.9</ele>
        <time>2023-03-26T11:32:11Z</time>
      </trkpt>
      <trkpt lat="38.270870" lon="-1.731728">
        <ele>277.5</ele>
        <time>2023-03-26T11:32:17Z</time>
      </trkpt>
      <trkpt lat="38.270821" lon="-1.731673">
        <ele>277.8</ele>
        <time>2023-03-26T11:32:26Z</time>
      </trkpt>
      <trkpt lat="38.270755" lon="-1.731700">
        <ele>278.8</ele>
        <time>2023-03-26T11:32:31Z</time>
      </trkpt>
      <trkpt lat="38.270685" lon="-1.731689">
        <ele>279.9</ele>
        <time>2023-03-26T11:32:37Z</time>
      </trkpt>
      <trkpt lat="38.270619" lon="-1.731666">
        <ele>278.9</ele>
        <time>2023-03-26T11:32:44Z</time>
      </trkpt>
      <trkpt lat="38.270555" lon="-1.731671">
        <ele>279.9</ele>
        <time>2023-03-26T11:32:50Z</time>
      </trkpt>
      <trkpt lat="38.270489" lon="-1.731685">
        <ele>280.9</ele>
        <time>2023-03-26T11:32:56Z</time>
      </trkpt>
      <trkpt lat="38.270422" lon="-1.731683">
        <ele>279.9</ele>
        <time>2023-03-26T11:33:02Z</time>
      </trkpt>
      <trkpt lat="38.270359" lon="-1.731675">
        <ele>279.9</ele>
        <time>2023-03-26T11:33:07Z</time>
      </trkpt>
      <trkpt lat="38.270296" lon="-1.731713">
        <ele>279.9</ele>
        <time>2023-03-26T11:33:13Z</time>
      </trkpt>
      <trkpt lat="38.270225" lon="-1.731718">
        <ele>277.9</ele>
        <time>2023-03-26T11:33:19Z</time>
      </trkpt>
      <trkpt lat="38.270160" lon="-1.731712">
        <ele>278.6</ele>
        <time>2023-03-26T11:33:25Z</time>
      </trkpt>
      <trkpt lat="38.270099" lon="-1.731670">
        <ele>278.9</ele>
        <time>2023-03-26T11:33:31Z</time>
      </trkpt>
      <trkpt lat="38.270042" lon="-1.731633">
        <ele>277.9</ele>
        <time>2023-03-26T11:33:36Z</time>
      </trkpt>
      <trkpt lat="38.269973" lon="-1.731647">
        <ele>279.9</ele>
        <time>2023-03-26T11:33:47Z</time>
      </trkpt>
      <trkpt lat="38.269902" lon="-1.731630">
        <ele>279.9</ele>
        <time>2023-03-26T11:33:53Z</time>
      </trkpt>
      <trkpt lat="38.269839" lon="-1.731599">
        <ele>280.9</ele>
        <time>2023-03-26T11:33:58Z</time>
      </trkpt>
      <trkpt lat="38.269774" lon="-1.731566">
        <ele>279.1</ele>
        <time>2023-03-26T11:34:04Z</time>
      </trkpt>
      <trkpt lat="38.269709" lon="-1.731552">
        <ele>278.9</ele>
        <time>2023-03-26T11:34:18Z</time>
      </trkpt>
      <trkpt lat="38.269644" lon="-1.731520">
        <ele>279.9</ele>
        <time>2023-03-26T11:34:24Z</time>
      </trkpt>
      <trkpt lat="38.269581" lon="-1.731494">
        <ele>281.9</ele>
        <time>2023-03-26T11:34:38Z</time>
      </trkpt>
      <trkpt lat="38.269518" lon="-1.731493">
        <ele>280.9</ele>
        <time>2023-03-26T11:34:43Z</time>
      </trkpt>
      <trkpt lat="38.269451" lon="-1.731465">
        <ele>279.9</ele>
        <time>2023-03-26T11:34:50Z</time>
      </trkpt>
      <trkpt lat="38.269394" lon="-1.731425">
        <ele>277.9</ele>
        <time>2023-03-26T11:34:59Z</time>
      </trkpt>
      <trkpt lat="38.269352" lon="-1.731490">
        <ele>278.1</ele>
        <time>2023-03-26T11:35:15Z</time>
      </trkpt>
      <trkpt lat="38.269299" lon="-1.731534">
        <ele>275.9</ele>
        <time>2023-03-26T11:35:22Z</time>
      </trkpt>
      <trkpt lat="38.269242" lon="-1.731571">
        <ele>272.9</ele>
        <time>2023-03-26T11:35:30Z</time>
      </trkpt>
      <trkpt lat="38.269214" lon="-1.731644">
        <ele>271.9</ele>
        <time>2023-03-26T11:35:39Z</time>
      </trkpt>
      <trkpt lat="38.269165" lon="-1.731705">
        <ele>271.9</ele>
        <time>2023-03-26T11:35:51Z</time>
      </trkpt>
      <trkpt lat="38.269106" lon="-1.731679">
        <ele>271.6</ele>
        <time>2023-03-26T11:36:06Z</time>
      </trkpt>
      <trkpt lat="38.269058" lon="-1.731625">
        <ele>271.9</ele>
        <time>2023-03-26T11:36:18Z</time>
      </trkpt>
      <trkpt lat="38.269023" lon="-1.731544">
        <ele>271.9</ele>
        <time>2023-03-26T11:36:28Z</time>
      </trkpt>
      <trkpt lat="38.268979" lon="-1.731461">
        <ele>273.6</ele>
        <time>2023-03-26T11:36:51Z</time>
      </trkpt>
      <trkpt lat="38.268942" lon="-1.731390">
        <ele>274.9</ele>
        <time>2023-03-26T11:37:03Z</time>
      </trkpt>
      <trkpt lat="38.268899" lon="-1.731323">
        <ele>274.6</ele>
        <time>2023-03-26T11:37:12Z</time>
      </trkpt>
      <trkpt lat="38.268869" lon="-1.731251">
        <ele>275.9</ele>
        <time>2023-03-26T11:37:21Z</time>
      </trkpt>
      <trkpt lat="38.268812" lon="-1.731210">
        <ele>278.9</ele>
        <time>2023-03-26T11:37:31Z</time>
      </trkpt>
      <trkpt lat="38.268751" lon="-1.731175">
        <ele>279.9</ele>
        <time>2023-03-26T11:37:40Z</time>
      </trkpt>
      <trkpt lat="38.268695" lon="-1.731135">
        <ele>282.6</ele>
        <time>2023-03-26T11:37:49Z</time>
      </trkpt>
      <trkpt lat="38.268632" lon="-1.731110">
        <ele>286.9</ele>
        <time>2023-03-26T11:38:06Z</time>
      </trkpt>
      <trkpt lat="38.268579" lon="-1.731061">
        <ele>286.8</ele>
        <time>2023-03-26T11:38:43Z</time>
      </trkpt>
      <trkpt lat="38.268520" lon="-1.731019">
        <ele>287.9</ele>
        <time>2023-03-26T11:38:56Z</time>
      </trkpt>
      <trkpt lat="38.268456" lon="-1.731001">
        <ele>288.9</ele>
        <time>2023-03-26T11:39:03Z</time>
      </trkpt>
      <trkpt lat="38.268399" lon="-1.730960">
        <ele>288.9</ele>
        <time>2023-03-26T11:39:12Z</time>
      </trkpt>
      <trkpt lat="38.268346" lon="-1.730903">
        <ele>289.9</ele>
        <time>2023-03-26T11:39:18Z</time>
      </trkpt>
      <trkpt lat="38.268296" lon="-1.730847">
        <ele>290.9</ele>
        <time>2023-03-26T11:39:24Z</time>
      </trkpt>
      <trkpt lat="38.268253" lon="-1.730783">
        <ele>291.6</ele>
        <time>2023-03-26T11:39:31Z</time>
      </trkpt>
      <trkpt lat="38.268204" lon="-1.730727">
        <ele>291.9</ele>
        <time>2023-03-26T11:39:39Z</time>
      </trkpt>
      <trkpt lat="38.268126" lon="-1.730676">
        <ele>298.9</ele>
        <time>2023-03-26T11:40:46Z</time>
      </trkpt>
      <trkpt lat="38.268090" lon="-1.730600">
        <ele>298.9</ele>
        <time>2023-03-26T11:40:54Z</time>
      </trkpt>
      <trkpt lat="38.268054" lon="-1.730535">
        <ele>300.9</ele>
        <time>2023-03-26T11:41:33Z</time>
      </trkpt>
      <trkpt lat="38.267986" lon="-1.730542">
        <ele>294.9</ele>
        <time>2023-03-26T11:43:04Z</time>
      </trkpt>
      <trkpt lat="38.267922" lon="-1.730576">
        <ele>294.9</ele>
        <time>2023-03-26T11:43:40Z</time>
      </trkpt>
      <trkpt lat="38.267911" lon="-1.730495">
        <ele>293.9</ele>
        <time>2023-03-26T11:44:45Z</time>
      </trkpt>
      <trkpt lat="38.267937" lon="-1.730421">
        <ele>291.1</ele>
        <time>2023-03-26T11:46:44Z</time>
      </trkpt>
      <trkpt lat="38.267914" lon="-1.730342">
        <ele>287.9</ele>
        <time>2023-03-26T11:48:05Z</time>
      </trkpt>
      <trkpt lat="38.267964" lon="-1.730282">
        <ele>284.9</ele>
        <time>2023-03-26T11:48:56Z</time>
      </trkpt>
      <trkpt lat="38.267921" lon="-1.730216">
        <ele>280.9</ele>
        <time>2023-03-26T11:49:45Z</time>
      </trkpt>
      <trkpt lat="38.267920" lon="-1.730134">
        <ele>279.9</ele>
        <time>2023-03-26T11:49:52Z</time>
      </trkpt>
      <trkpt lat="38.267964" lon="-1.730069">
        <ele>278.1</ele>
        <time>2023-03-26T11:49:57Z</time>
      </trkpt>
      <trkpt lat="38.267966" lon="-1.729983">
        <ele>276.9</ele>
        <time>2023-03-26T11:50:04Z</time>
      </trkpt>
      <trkpt lat="38.267963" lon="-1.729901">
        <ele>276.9</ele>
        <time>2023-03-26T11:50:15Z</time>
      </trkpt>
      <trkpt lat="38.267944" lon="-1.729824">
        <ele>276.8</ele>
        <time>2023-03-26T11:50:22Z</time>
      </trkpt>
      <trkpt lat="38.267920" lon="-1.729746">
        <ele>276.9</ele>
        <time>2023-03-26T11:50:29Z</time>
      </trkpt>
      <trkpt lat="38.267881" lon="-1.729680">
        <ele>278.9</ele>
        <time>2023-03-26T11:50:38Z</time>
      </trkpt>
      <trkpt lat="38.267891" lon="-1.729601">
        <ele>278.9</ele>
        <time>2023-03-26T11:50:45Z</time>
      </trkpt>
      <trkpt lat="38.267864" lon="-1.729496">
        <ele>283.9</ele>
        <time>2023-03-26T11:51:17Z</time>
      </trkpt>
      <trkpt lat="38.267854" lon="-1.729409">
        <ele>282.9</ele>
        <time>2023-03-26T11:51:23Z</time>
      </trkpt>
      <trkpt lat="38.267817" lon="-1.729310">
        <ele>277.9</ele>
        <time>2023-03-26T11:52:08Z</time>
      </trkpt>
      <trkpt lat="38.267821" lon="-1.729229">
        <ele>274.9</ele>
        <time>2023-03-26T11:52:25Z</time>
      </trkpt>
      <trkpt lat="38.267833" lon="-1.729150">
        <ele>271.9</ele>
        <time>2023-03-26T11:52:36Z</time>
      </trkpt>
      <trkpt lat="38.267844" lon="-1.729062">
        <ele>266.9</ele>
        <time>2023-03-26T11:52:48Z</time>
      </trkpt>
      <trkpt lat="38.267835" lon="-1.728979">
        <ele>268.9</ele>
        <time>2023-03-26T11:53:17Z</time>
      </trkpt>
      <trkpt lat="38.267911" lon="-1.728971">
        <ele>266.9</ele>
        <time>2023-03-26T11:53:23Z</time>
      </trkpt>
      <trkpt lat="38.267964" lon="-1.728926">
        <ele>265.9</ele>
        <time>2023-03-26T11:53:28Z</time>
      </trkpt>
      <trkpt lat="38.267989" lon="-1.728847">
        <ele>265.1</ele>
        <time>2023-03-26T11:53:37Z</time>
      </trkpt>
      <trkpt lat="38.267992" lon="-1.728759">
        <ele>268.6</ele>
        <time>2023-03-26T11:55:23Z</time>
      </trkpt>
      <trkpt lat="38.267957" lon="-1.728686">
        <ele>270.9</ele>
        <time>2023-03-26T11:57:20Z</time>
      </trkpt>
      <trkpt lat="38.267954" lon="-1.728601">
        <ele>270.9</ele>
        <time>2023-03-26T11:57:24Z</time>
      </trkpt>
      <trkpt lat="38.267974" lon="-1.728523">
        <ele>270.9</ele>
        <time>2023-03-26T11:57:29Z</time>
      </trkpt>
      <trkpt lat="38.267997" lon="-1.728440">
        <ele>270.9</ele>
        <time>2023-03-26T11:57:35Z</time>
      </trkpt>
      <trkpt lat="38.267997" lon="-1.728355">
        <ele>268.9</ele>
        <time>2023-03-26T11:57:41Z</time>
      </trkpt>
      <trkpt lat="38.268006" lon="-1.728273">
        <ele>267.9</ele>
        <time>2023-03-26T11:57:46Z</time>
      </trkpt>
      <trkpt lat="38.268027" lon="-1.728196">
        <ele>268.1</ele>
        <time>2023-03-26T11:57:54Z</time>
      </trkpt>
      <trkpt lat="38.268001" lon="-1.728123">
        <ele>268.6</ele>
        <time>2023-03-26T11:57:58Z</time>
      </trkpt>
      <trkpt lat="38.267974" lon="-1.728044">
        <ele>267.9</ele>
        <time>2023-03-26T11:58:03Z</time>
      </trkpt>
      <trkpt lat="38.267957" lon="-1.727960">
        <ele>268.9</ele>
        <time>2023-03-26T11:58:08Z</time>
      </trkpt>
      <trkpt lat="38.267948" lon="-1.727873">
        <ele>268.9</ele>
        <time>2023-03-26T11:58:13Z</time>
      </trkpt>
      <trkpt lat="38.267935" lon="-1.727791">
        <ele>269.9</ele>
        <time>2023-03-26T11:58:18Z</time>
      </trkpt>
      <trkpt lat="38.267913" lon="-1.727708">
        <ele>269.9</ele>
        <time>2023-03-26T11:58:23Z</time>
      </trkpt>
      <trkpt lat="38.267882" lon="-1.727638">
        <ele>271.9</ele>
        <time>2023-03-26T11:58:28Z</time>
      </trkpt>
      <trkpt lat="38.267848" lon="-1.727561">
        <ele>272.9</ele>
        <time>2023-03-26T11:58:33Z</time>
      </trkpt>
      <trkpt lat="38.267814" lon="-1.727487">
        <ele>272.9</ele>
        <time>2023-03-26T11:58:42Z</time>
      </trkpt>
      <trkpt lat="38.267801" lon="-1.727399">
        <ele>274.9</ele>
        <time>2023-03-26T11:58:47Z</time>
      </trkpt>
      <trkpt lat="38.267793" lon="-1.727313">
        <ele>275.9</ele>
        <time>2023-03-26T11:58:53Z</time>
      </trkpt>
      <trkpt lat="38.267796" lon="-1.727230">
        <ele>275.9</ele>
        <time>2023-03-26T11:58:58Z</time>
      </trkpt>
      <trkpt lat="38.267795" lon="-1.727140">
        <ele>275.9</ele>
        <time>2023-03-26T11:59:04Z</time>
      </trkpt>
      <trkpt lat="38.267796" lon="-1.727054">
        <ele>276.9</ele>
        <time>2023-03-26T11:59:10Z</time>
      </trkpt>
      <trkpt lat="38.267800" lon="-1.726974">
        <ele>276.9</ele>
        <time>2023-03-26T11:59:15Z</time>
      </trkpt>
      <trkpt lat="38.267802" lon="-1.726888">
        <ele>277.9</ele>
        <time>2023-03-26T11:59:22Z</time>
      </trkpt>
      <trkpt lat="38.267786" lon="-1.726804">
        <ele>277.1</ele>
        <time>2023-03-26T11:59:29Z</time>
      </trkpt>
      <trkpt lat="38.267781" lon="-1.726721">
        <ele>277.6</ele>
        <time>2023-03-26T11:59:34Z</time>
      </trkpt>
      <trkpt lat="38.267774" lon="-1.726637">
        <ele>277.9</ele>
        <time>2023-03-26T11:59:40Z</time>
      </trkpt>
      <trkpt lat="38.267763" lon="-1.726554">
        <ele>276.1</ele>
        <time>2023-03-26T11:59:46Z</time>
      </trkpt>
      <trkpt lat="38.267755" lon="-1.726470">
        <ele>276.9</ele>
        <time>2023-03-26T11:59:52Z</time>
      </trkpt>
      <trkpt lat="38.267742" lon="-1.726389">
        <ele>277.9</ele>
        <time>2023-03-26T11:59:57Z</time>
      </trkpt>
      <trkpt lat="38.267733" lon="-1.726308">
        <ele>277.9</ele>
        <time>2023-03-26T12:00:02Z</time>
      </trkpt>
      <trkpt lat="38.267730" lon="-1.726228">
        <ele>278.8</ele>
        <time>2023-03-26T12:00:08Z</time>
      </trkpt>
      <trkpt lat="38.267732" lon="-1.726146">
        <ele>278.6</ele>
        <time>2023-03-26T12:00:13Z</time>
      </trkpt>
      <trkpt lat="38.267725" lon="-1.726063">
        <ele>278.9</ele>
        <time>2023-03-26T12:00:19Z</time>
      </trkpt>
      <trkpt lat="38.267722" lon="-1.725981">
        <ele>279.8</ele>
        <time>2023-03-26T12:00:25Z</time>
      </trkpt>
      <trkpt lat="38.267710" lon="-1.725900">
        <ele>280.9</ele>
        <time>2023-03-26T12:00:31Z</time>
      </trkpt>
      <trkpt lat="38.267696" lon="-1.725821">
        <ele>279.6</ele>
        <time>2023-03-26T12:00:37Z</time>
      </trkpt>
      <trkpt lat="38.267688" lon="-1.725735">
        <ele>278.9</ele>
        <time>2023-03-26T12:00:43Z</time>
      </trkpt>
      <trkpt lat="38.267666" lon="-1.725652">
        <ele>278.9</ele>
        <time>2023-03-26T12:00:49Z</time>
      </trkpt>
      <trkpt lat="38.267637" lon="-1.725577">
        <ele>278.9</ele>
        <time>2023-03-26T12:00:54Z</time>
      </trkpt>
      <trkpt lat="38.267610" lon="-1.725500">
        <ele>278.6</ele>
        <time>2023-03-26T12:01:00Z</time>
      </trkpt>
      <trkpt lat="38.267593" lon="-1.725413">
        <ele>279.9</ele>
        <time>2023-03-26T12:01:06Z</time>
      </trkpt>
      <trkpt lat="38.267571" lon="-1.725333">
        <ele>279.9</ele>
        <time>2023-03-26T12:01:13Z</time>
      </trkpt>
      <trkpt lat="38.267560" lon="-1.725249">
        <ele>279.9</ele>
        <time>2023-03-26T12:01:19Z</time>
      </trkpt>
      <trkpt lat="38.267558" lon="-1.725163">
        <ele>277.9</ele>
        <time>2023-03-26T12:01:26Z</time>
      </trkpt>
      <trkpt lat="38.267544" lon="-1.725082">
        <ele>277.9</ele>
        <time>2023-03-26T12:01:31Z</time>
      </trkpt>
      <trkpt lat="38.267524" lon="-1.725003">
        <ele>278.9</ele>
        <time>2023-03-26T12:01:36Z</time>
      </trkpt>
      <trkpt lat="38.267505" lon="-1.724923">
        <ele>278.9</ele>
        <time>2023-03-26T12:01:42Z</time>
      </trkpt>
      <trkpt lat="38.267483" lon="-1.724846">
        <ele>277.9</ele>
        <time>2023-03-26T12:01:47Z</time>
      </trkpt>
      <trkpt lat="38.267463" lon="-1.724767">
        <ele>275.9</ele>
        <time>2023-03-26T12:01:53Z</time>
      </trkpt>
      <trkpt lat="38.267427" lon="-1.724695">
        <ele>276.9</ele>
        <time>2023-03-26T12:01:58Z</time>
      </trkpt>
      <trkpt lat="38.267389" lon="-1.724627">
        <ele>277.9</ele>
        <time>2023-03-26T12:02:05Z</time>
      </trkpt>
      <trkpt lat="38.267375" lon="-1.724545">
        <ele>276.9</ele>
        <time>2023-03-26T12:02:11Z</time>
      </trkpt>
      <trkpt lat="38.267353" lon="-1.724464">
        <ele>276.9</ele>
        <time>2023-03-26T12:02:16Z</time>
      </trkpt>
      <trkpt lat="38.267312" lon="-1.724400">
        <ele>277.9</ele>
        <time>2023-03-26T12:02:22Z</time>
      </trkpt>
      <trkpt lat="38.267269" lon="-1.724333">
        <ele>276.9</ele>
        <time>2023-03-26T12:02:29Z</time>
      </trkpt>
      <trkpt lat="38.267234" lon="-1.724261">
        <ele>276.9</ele>
        <time>2023-03-26T12:02:35Z</time>
      </trkpt>
      <trkpt lat="38.267215" lon="-1.724180">
        <ele>276.9</ele>
        <time>2023-03-26T12:02:41Z</time>
      </trkpt>
      <trkpt lat="38.267183" lon="-1.724110">
        <ele>275.9</ele>
        <time>2023-03-26T12:02:46Z</time>
      </trkpt>
      <trkpt lat="38.267137" lon="-1.724053">
        <ele>276.9</ele>
        <time>2023-03-26T12:02:51Z</time>
      </trkpt>
      <trkpt lat="38.267082" lon="-1.724009">
        <ele>277.9</ele>
        <time>2023-03-26T12:02:56Z</time>
      </trkpt>
      <trkpt lat="38.267031" lon="-1.723957">
        <ele>277.9</ele>
        <time>2023-03-26T12:03:02Z</time>
      </trkpt>
      <trkpt lat="38.266978" lon="-1.723905">
        <ele>279.8</ele>
        <time>2023-03-26T12:03:07Z</time>
      </trkpt>
      <trkpt lat="38.266919" lon="-1.723860">
        <ele>279.9</ele>
        <time>2023-03-26T12:03:13Z</time>
      </trkpt>
      <trkpt lat="38.266862" lon="-1.723823">
        <ele>279.9</ele>
        <time>2023-03-26T12:03:19Z</time>
      </trkpt>
      <trkpt lat="38.266805" lon="-1.723776">
        <ele>279.9</ele>
        <time>2023-03-26T12:03:25Z</time>
      </trkpt>
      <trkpt lat="38.266742" lon="-1.723743">
        <ele>278.9</ele>
        <time>2023-03-26T12:03:30Z</time>
      </trkpt>
      <trkpt lat="38.266684" lon="-1.723700">
        <ele>279.1</ele>
        <time>2023-03-26T12:03:36Z</time>
      </trkpt>
      <trkpt lat="38.266624" lon="-1.723675">
        <ele>278.1</ele>
        <time>2023-03-26T12:03:41Z</time>
      </trkpt>
      <trkpt lat="38.266580" lon="-1.723609">
        <ele>275.9</ele>
        <time>2023-03-26T12:03:47Z</time>
      </trkpt>
      <trkpt lat="38.266512" lon="-1.723587">
        <ele>274.9</ele>
        <time>2023-03-26T12:03:52Z</time>
      </trkpt>
      <trkpt lat="38.266448" lon="-1.723602">
        <ele>273.0</ele>
        <time>2023-03-26T12:03:57Z</time>
      </trkpt>
      <trkpt lat="38.266382" lon="-1.723592">
        <ele>274.9</ele>
        <time>2023-03-26T12:04:02Z</time>
      </trkpt>
      <trkpt lat="38.266321" lon="-1.723561">
        <ele>274.9</ele>
        <time>2023-03-26T12:04:09Z</time>
      </trkpt>
      <trkpt lat="38.266257" lon="-1.723551">
        <ele>274.9</ele>
        <time>2023-03-26T12:04:14Z</time>
      </trkpt>
      <trkpt lat="38.266194" lon="-1.723539">
        <ele>274.1</ele>
        <time>2023-03-26T12:04:19Z</time>
      </trkpt>
      <trkpt lat="38.266131" lon="-1.723543">
        <ele>273.9</ele>
        <time>2023-03-26T12:04:24Z</time>
      </trkpt>
      <trkpt lat="38.266070" lon="-1.723574">
        <ele>271.9</ele>
        <time>2023-03-26T12:04:31Z</time>
      </trkpt>
      <trkpt lat="38.266006" lon="-1.723584">
        <ele>268.9</ele>
        <time>2023-03-26T12:04:38Z</time>
      </trkpt>
      <trkpt lat="38.265946" lon="-1.723645">
        <ele>269.8</ele>
        <time>2023-03-26T12:04:44Z</time>
      </trkpt>
      <trkpt lat="38.265916" lon="-1.723718">
        <ele>271.9</ele>
        <time>2023-03-26T12:04:49Z</time>
      </trkpt>
      <trkpt lat="38.265879" lon="-1.723650">
        <ele>272.1</ele>
        <time>2023-03-26T12:05:26Z</time>
      </trkpt>
      <trkpt lat="38.265808" lon="-1.723664">
        <ele>276.9</ele>
        <time>2023-03-26T12:06:01Z</time>
      </trkpt>
      <trkpt lat="38.265758" lon="-1.723608">
        <ele>275.0</ele>
        <time>2023-03-26T12:06:05Z</time>
      </trkpt>
      <trkpt lat="38.265700" lon="-1.723570">
        <ele>272.8</ele>
        <time>2023-03-26T12:06:11Z</time>
      </trkpt>
      <trkpt lat="38.265633" lon="-1.723583">
        <ele>273.1</ele>
        <time>2023-03-26T12:06:17Z</time>
      </trkpt>
      <trkpt lat="38.265565" lon="-1.723593">
        <ele>273.9</ele>
        <time>2023-03-26T12:06:24Z</time>
      </trkpt>
      <trkpt lat="38.265502" lon="-1.723612">
        <ele>275.9</ele>
        <time>2023-03-26T12:06:29Z</time>
      </trkpt>
      <trkpt lat="38.265432" lon="-1.723642">
        <ele>275.9</ele>
        <time>2023-03-26T12:06:35Z</time>
      </trkpt>
      <trkpt lat="38.265366" lon="-1.723655">
        <ele>276.9</ele>
        <time>2023-03-26T12:06:40Z</time>
      </trkpt>
      <trkpt lat="38.265304" lon="-1.723631">
        <ele>273.9</ele>
        <time>2023-03-26T12:06:48Z</time>
      </trkpt>
      <trkpt lat="38.265239" lon="-1.723630">
        <ele>272.9</ele>
        <time>2023-03-26T12:06:52Z</time>
      </trkpt>
      <trkpt lat="38.265172" lon="-1.723625">
        <ele>272.9</ele>
        <time>2023-03-26T12:06:57Z</time>
      </trkpt>
      <trkpt lat="38.265106" lon="-1.723629">
        <ele>271.9</ele>
        <time>2023-03-26T12:07:04Z</time>
      </trkpt>
      <trkpt lat="38.265040" lon="-1.723646">
        <ele>271.9</ele>
        <time>2023-03-26T12:07:42Z</time>
      </trkpt>
      <trkpt lat="38.264976" lon="-1.723660">
        <ele>271.8</ele>
        <time>2023-03-26T12:07:47Z</time>
      </trkpt>
      <trkpt lat="38.264918" lon="-1.723624">
        <ele>272.0</ele>
        <time>2023-03-26T12:07:52Z</time>
      </trkpt>
      <trkpt lat="38.264851" lon="-1.723626">
        <ele>271.1</ele>
        <time>2023-03-26T12:07:58Z</time>
      </trkpt>
      <trkpt lat="38.264780" lon="-1.723622">
        <ele>270.9</ele>
        <time>2023-03-26T12:08:02Z</time>
      </trkpt>
      <trkpt lat="38.264712" lon="-1.723611">
        <ele>272.8</ele>
        <time>2023-03-26T12:08:07Z</time>
      </trkpt>
      <trkpt lat="38.264646" lon="-1.723595">
        <ele>275.8</ele>
        <time>2023-03-26T12:08:12Z</time>
      </trkpt>
      <trkpt lat="38.264585" lon="-1.723619">
        <ele>274.9</ele>
        <time>2023-03-26T12:08:17Z</time>
      </trkpt>
      <trkpt lat="38.264517" lon="-1.723594">
        <ele>274.9</ele>
        <time>2023-03-26T12:08:23Z</time>
      </trkpt>
      <trkpt lat="38.264451" lon="-1.723564">
        <ele>275.9</ele>
        <time>2023-03-26T12:08:28Z</time>
      </trkpt>
      <trkpt lat="38.264391" lon="-1.723526">
        <ele>277.9</ele>
        <time>2023-03-26T12:08:33Z</time>
      </trkpt>
      <trkpt lat="38.264334" lon="-1.723477">
        <ele>277.1</ele>
        <time>2023-03-26T12:08:38Z</time>
      </trkpt>
      <trkpt lat="38.264267" lon="-1.723451">
        <ele>276.9</ele>
        <time>2023-03-26T12:08:44Z</time>
      </trkpt>
      <trkpt lat="38.264203" lon="-1.723417">
        <ele>275.1</ele>
        <time>2023-03-26T12:08:49Z</time>
      </trkpt>
      <trkpt lat="38.264156" lon="-1.723360">
        <ele>273.1</ele>
        <time>2023-03-26T12:08:55Z</time>
      </trkpt>
      <trkpt lat="38.264094" lon="-1.723328">
        <ele>270.9</ele>
        <time>2023-03-26T12:09:01Z</time>
      </trkpt>
      <trkpt lat="38.264024" lon="-1.723271">
        <ele>272.9</ele>
        <time>2023-03-26T12:09:14Z</time>
      </trkpt>
      <trkpt lat="38.263977" lon="-1.723211">
        <ele>272.0</ele>
        <time>2023-03-26T12:09:20Z</time>
      </trkpt>
      <trkpt lat="38.263932" lon="-1.723150">
        <ele>270.9</ele>
        <time>2023-03-26T12:09:28Z</time>
      </trkpt>
      <trkpt lat="38.263884" lon="-1.723091">
        <ele>270.2</ele>
        <time>2023-03-26T12:09:36Z</time>
      </trkpt>
      <trkpt lat="38.263821" lon="-1.723076">
        <ele>268.9</ele>
        <time>2023-03-26T12:09:44Z</time>
      </trkpt>
      <trkpt lat="38.263789" lon="-1.723007">
        <ele>267.9</ele>
        <time>2023-03-26T12:09:54Z</time>
      </trkpt>
      <trkpt lat="38.263770" lon="-1.722929">
        <ele>266.9</ele>
        <time>2023-03-26T12:10:01Z</time>
      </trkpt>
      <trkpt lat="38.263730" lon="-1.722858">
        <ele>274.6</ele>
        <time>2023-03-26T12:10:22Z</time>
      </trkpt>
      <trkpt lat="38.263772" lon="-1.722797">
        <ele>269.9</ele>
        <time>2023-03-26T12:11:17Z</time>
      </trkpt>
      <trkpt lat="38.263836" lon="-1.722803">
        <ele>268.9</ele>
        <time>2023-03-26T12:11:34Z</time>
      </trkpt>
      <trkpt lat="38.263793" lon="-1.722825">
        <ele>273.9</ele>
        <time>2023-03-26T12:14:27Z</time>
      </trkpt>
      <trkpt lat="38.263842" lon="-1.722760">
        <ele>277.0</ele>
        <time>2023-03-26T12:15:11Z</time>
      </trkpt>
      <trkpt lat="38.263788" lon="-1.722811">
        <ele>277.9</ele>
        <time>2023-03-26T12:15:28Z</time>
      </trkpt>
      <trkpt lat="38.263727" lon="-1.722838">
        <ele>277.9</ele>
        <time>2023-03-26T12:15:34Z</time>
      </trkpt>
      <trkpt lat="38.263672" lon="-1.722795">
        <ele>278.1</ele>
        <time>2023-03-26T12:15:41Z</time>
      </trkpt>
      <trkpt lat="38.263646" lon="-1.722706">
        <ele>273.0</ele>
        <time>2023-03-26T12:15:49Z</time>
      </trkpt>
      <trkpt lat="38.263598" lon="-1.722648">
        <ele>271.9</ele>
        <time>2023-03-26T12:15:55Z</time>
      </trkpt>
      <trkpt lat="38.263539" lon="-1.722608">
        <ele>269.9</ele>
        <time>2023-03-26T12:16:02Z</time>
      </trkpt>
      <trkpt lat="38.263481" lon="-1.722557">
        <ele>271.8</ele>
        <time>2023-03-26T12:16:11Z</time>
      </trkpt>
      <trkpt lat="38.263426" lon="-1.722499">
        <ele>270.0</ele>
        <time>2023-03-26T12:16:18Z</time>
      </trkpt>
      <trkpt lat="38.263379" lon="-1.722428">
        <ele>268.9</ele>
        <time>2023-03-26T12:16:23Z</time>
      </trkpt>
      <trkpt lat="38.263327" lon="-1.722366">
        <ele>269.9</ele>
        <time>2023-03-26T12:16:29Z</time>
      </trkpt>
      <trkpt lat="38.263272" lon="-1.722323">
        <ele>268.9</ele>
        <time>2023-03-26T12:16:35Z</time>
      </trkpt>
      <trkpt lat="38.263221" lon="-1.722271">
        <ele>269.9</ele>
        <time>2023-03-26T12:16:41Z</time>
      </trkpt>
      <trkpt lat="38.263181" lon="-1.722203">
        <ele>269.0</ele>
        <time>2023-03-26T12:16:47Z</time>
      </trkpt>
      <trkpt lat="38.263135" lon="-1.722133">
        <ele>267.0</ele>
        <time>2023-03-26T12:16:53Z</time>
      </trkpt>
      <trkpt lat="38.263079" lon="-1.722082">
        <ele>267.8</ele>
        <time>2023-03-26T12:16:59Z</time>
      </trkpt>
      <trkpt lat="38.263028" lon="-1.722027">
        <ele>267.9</ele>
        <time>2023-03-26T12:17:05Z</time>
      </trkpt>
      <trkpt lat="38.262994" lon="-1.721956">
        <ele>268.9</ele>
        <time>2023-03-26T12:17:11Z</time>
      </trkpt>
      <trkpt lat="38.262958" lon="-1.721883">
        <ele>270.9</ele>
        <time>2023-03-26T12:17:20Z</time>
      </trkpt>
      <trkpt lat="38.262940" lon="-1.721801">
        <ele>270.0</ele>
        <time>2023-03-26T12:17:25Z</time>
      </trkpt>
      <trkpt lat="38.262915" lon="-1.721724">
        <ele>269.9</ele>
        <time>2023-03-26T12:17:29Z</time>
      </trkpt>
      <trkpt lat="38.262884" lon="-1.721650">
        <ele>271.9</ele>
        <time>2023-03-26T12:17:34Z</time>
      </trkpt>
      <trkpt lat="38.262833" lon="-1.721596">
        <ele>272.9</ele>
        <time>2023-03-26T12:17:43Z</time>
      </trkpt>
      <trkpt lat="38.262781" lon="-1.721545">
        <ele>272.1</ele>
        <time>2023-03-26T12:17:51Z</time>
      </trkpt>
      <trkpt lat="38.262736" lon="-1.721478">
        <ele>272.1</ele>
        <time>2023-03-26T12:17:56Z</time>
      </trkpt>
      <trkpt lat="38.262695" lon="-1.721414">
        <ele>272.0</ele>
        <time>2023-03-26T12:18:01Z</time>
      </trkpt>
      <trkpt lat="38.262667" lon="-1.721342">
        <ele>272.9</ele>
        <time>2023-03-26T12:18:06Z</time>
      </trkpt>
      <trkpt lat="38.262633" lon="-1.721272">
        <ele>273.0</ele>
        <time>2023-03-26T12:18:12Z</time>
      </trkpt>
      <trkpt lat="38.262604" lon="-1.721200">
        <ele>270.9</ele>
        <time>2023-03-26T12:18:17Z</time>
      </trkpt>
      <trkpt lat="38.262580" lon="-1.721117">
        <ele>269.9</ele>
        <time>2023-03-26T12:18:22Z</time>
      </trkpt>
      <trkpt lat="38.262566" lon="-1.721039">
        <ele>270.9</ele>
        <time>2023-03-26T12:18:28Z</time>
      </trkpt>
      <trkpt lat="38.262550" lon="-1.720961">
        <ele>270.6</ele>
        <time>2023-03-26T12:18:35Z</time>
      </trkpt>
      <trkpt lat="38.262543" lon="-1.720879">
        <ele>270.0</ele>
        <time>2023-03-26T12:18:41Z</time>
      </trkpt>
      <trkpt lat="38.262555" lon="-1.720794">
        <ele>269.9</ele>
        <time>2023-03-26T12:18:47Z</time>
      </trkpt>
      <trkpt lat="38.262580" lon="-1.720719">
        <ele>268.9</ele>
        <time>2023-03-26T12:18:52Z</time>
      </trkpt>
      <trkpt lat="38.262604" lon="-1.720643">
        <ele>267.9</ele>
        <time>2023-03-26T12:18:57Z</time>
      </trkpt>
      <trkpt lat="38.262617" lon="-1.720564">
        <ele>268.9</ele>
        <time>2023-03-26T12:19:02Z</time>
      </trkpt>
      <trkpt lat="38.262631" lon="-1.720485">
        <ele>266.1</ele>
        <time>2023-03-26T12:19:08Z</time>
      </trkpt>
      <trkpt lat="38.262641" lon="-1.720402">
        <ele>266.9</ele>
        <time>2023-03-26T12:19:14Z</time>
      </trkpt>
      <trkpt lat="38.262637" lon="-1.720313">
        <ele>267.9</ele>
        <time>2023-03-26T12:19:22Z</time>
      </trkpt>
      <trkpt lat="38.262628" lon="-1.720231">
        <ele>269.9</ele>
        <time>2023-03-26T12:19:28Z</time>
      </trkpt>
      <trkpt lat="38.262609" lon="-1.720148">
        <ele>269.9</ele>
        <time>2023-03-26T12:19:34Z</time>
      </trkpt>
      <trkpt lat="38.262612" lon="-1.720063">
        <ele>269.1</ele>
        <time>2023-03-26T12:19:40Z</time>
      </trkpt>
      <trkpt lat="38.262636" lon="-1.719979">
        <ele>267.9</ele>
        <time>2023-03-26T12:19:46Z</time>
      </trkpt>
      <trkpt lat="38.262645" lon="-1.719898">
        <ele>266.9</ele>
        <time>2023-03-26T12:19:52Z</time>
      </trkpt>
      <trkpt lat="38.262654" lon="-1.719815">
        <ele>267.9</ele>
        <time>2023-03-26T12:19:57Z</time>
      </trkpt>
      <trkpt lat="38.262672" lon="-1.719733">
        <ele>267.9</ele>
        <time>2023-03-26T12:20:03Z</time>
      </trkpt>
      <trkpt lat="38.262681" lon="-1.719649">
        <ele>267.9</ele>
        <time>2023-03-26T12:20:12Z</time>
      </trkpt>
      <trkpt lat="38.262694" lon="-1.719567">
        <ele>271.9</ele>
        <time>2023-03-26T12:20:22Z</time>
      </trkpt>
      <trkpt lat="38.262710" lon="-1.719484">
        <ele>273.6</ele>
        <time>2023-03-26T12:20:38Z</time>
      </trkpt>
      <trkpt lat="38.262682" lon="-1.719403">
        <ele>268.9</ele>
        <time>2023-03-26T12:21:12Z</time>
      </trkpt>
      <trkpt lat="38.262711" lon="-1.719331">
        <ele>269.9</ele>
        <time>2023-03-26T12:21:20Z</time>
      </trkpt>
      <trkpt lat="38.262722" lon="-1.719236">
        <ele>266.9</ele>
        <time>2023-03-26T12:21:46Z</time>
      </trkpt>
      <trkpt lat="38.262693" lon="-1.719160">
        <ele>265.9</ele>
        <time>2023-03-26T12:21:52Z</time>
      </trkpt>
      <trkpt lat="38.262690" lon="-1.719075">
        <ele>266.9</ele>
        <time>2023-03-26T12:21:57Z</time>
      </trkpt>
      <trkpt lat="38.262713" lon="-1.718998">
        <ele>267.9</ele>
        <time>2023-03-26T12:22:03Z</time>
      </trkpt>
      <trkpt lat="38.262759" lon="-1.718941">
        <ele>271.9</ele>
        <time>2023-03-26T12:22:29Z</time>
      </trkpt>
      <trkpt lat="38.262755" lon="-1.718855">
        <ele>273.8</ele>
        <time>2023-03-26T12:22:53Z</time>
      </trkpt>
      <trkpt lat="38.262729" lon="-1.718779">
        <ele>273.9</ele>
        <time>2023-03-26T12:22:56Z</time>
      </trkpt>
      <trkpt lat="38.262702" lon="-1.718706">
        <ele>273.9</ele>
        <time>2023-03-26T12:23:01Z</time>
      </trkpt>
      <trkpt lat="38.262684" lon="-1.718619">
        <ele>274.9</ele>
        <time>2023-03-26T12:23:05Z</time>
      </trkpt>
      <trkpt lat="38.262683" lon="-1.718535">
        <ele>275.9</ele>
        <time>2023-03-26T12:23:09Z</time>
      </trkpt>
      <trkpt lat="38.262704" lon="-1.718451">
        <ele>274.9</ele>
        <time>2023-03-26T12:23:13Z</time>
      </trkpt>
      <trkpt lat="38.262707" lon="-1.718365">
        <ele>275.1</ele>
        <time>2023-03-26T12:23:18Z</time>
      </trkpt>
      <trkpt lat="38.262715" lon="-1.718282">
        <ele>274.9</ele>
        <time>2023-03-26T12:23:23Z</time>
      </trkpt>
      <trkpt lat="38.262749" lon="-1.718214">
        <ele>275.9</ele>
        <time>2023-03-26T12:23:29Z</time>
      </trkpt>
      <trkpt lat="38.262759" lon="-1.718129">
        <ele>273.9</ele>
        <time>2023-03-26T12:23:36Z</time>
      </trkpt>
      <trkpt lat="38.262748" lon="-1.718050">
        <ele>273.9</ele>
        <time>2023-03-26T12:23:40Z</time>
      </trkpt>
      <trkpt lat="38.262743" lon="-1.717960">
        <ele>275.8</ele>
        <time>2023-03-26T12:23:45Z</time>
      </trkpt>
      <trkpt lat="38.262751" lon="-1.717880">
        <ele>277.6</ele>
        <time>2023-03-26T12:23:50Z</time>
      </trkpt>
      <trkpt lat="38.262758" lon="-1.717796">
        <ele>276.9</ele>
        <time>2023-03-26T12:23:54Z</time>
      </trkpt>
      <trkpt lat="38.262761" lon="-1.717715">
        <ele>275.9</ele>
        <time>2023-03-26T12:24:01Z</time>
      </trkpt>
      <trkpt lat="38.262775" lon="-1.717635">
        <ele>275.9</ele>
        <time>2023-03-26T12:24:05Z</time>
      </trkpt>
      <trkpt lat="38.262789" lon="-1.717556">
        <ele>273.9</ele>
        <time>2023-03-26T12:24:10Z</time>
      </trkpt>
      <trkpt lat="38.262805" lon="-1.717475">
        <ele>273.1</ele>
        <time>2023-03-26T12:24:14Z</time>
      </trkpt>
      <trkpt lat="38.262793" lon="-1.717391">
        <ele>273.0</ele>
        <time>2023-03-26T12:24:19Z</time>
      </trkpt>
      <trkpt lat="38.262785" lon="-1.717306">
        <ele>272.9</ele>
        <time>2023-03-26T12:24:24Z</time>
      </trkpt>
      <trkpt lat="38.262764" lon="-1.717230">
        <ele>274.8</ele>
        <time>2023-03-26T12:24:27Z</time>
      </trkpt>
      <trkpt lat="38.262739" lon="-1.717136">
        <ele>276.8</ele>
        <time>2023-03-26T12:24:31Z</time>
      </trkpt>
      <trkpt lat="38.262724" lon="-1.717052">
        <ele>276.9</ele>
        <time>2023-03-26T12:24:36Z</time>
      </trkpt>
      <trkpt lat="38.262703" lon="-1.716971">
        <ele>278.9</ele>
        <time>2023-03-26T12:24:42Z</time>
      </trkpt>
      <trkpt lat="38.262661" lon="-1.716906">
        <ele>277.9</ele>
        <time>2023-03-26T12:24:48Z</time>
      </trkpt>
      <trkpt lat="38.262627" lon="-1.716833">
        <ele>277.9</ele>
        <time>2023-03-26T12:24:53Z</time>
      </trkpt>
      <trkpt lat="38.262601" lon="-1.716759">
        <ele>279.8</ele>
        <time>2023-03-26T12:24:59Z</time>
      </trkpt>
      <trkpt lat="38.262564" lon="-1.716687">
        <ele>279.8</ele>
        <time>2023-03-26T12:25:13Z</time>
      </trkpt>
      <trkpt lat="38.262544" lon="-1.716610">
        <ele>278.9</ele>
        <time>2023-03-26T12:25:17Z</time>
      </trkpt>
      <trkpt lat="38.262508" lon="-1.716541">
        <ele>277.9</ele>
        <time>2023-03-26T12:25:20Z</time>
      </trkpt>
      <trkpt lat="38.262459" lon="-1.716477">
        <ele>278.9</ele>
        <time>2023-03-26T12:25:24Z</time>
      </trkpt>
      <trkpt lat="38.262409" lon="-1.716418">
        <ele>276.9</ele>
        <time>2023-03-26T12:25:29Z</time>
      </trkpt>
      <trkpt lat="38.262362" lon="-1.716351">
        <ele>275.7</ele>
        <time>2023-03-26T12:25:34Z</time>
      </trkpt>
      <trkpt lat="38.262309" lon="-1.716292">
        <ele>276.9</ele>
        <time>2023-03-26T12:25:38Z</time>
      </trkpt>
      <trkpt lat="38.262257" lon="-1.716243">
        <ele>276.9</ele>
        <time>2023-03-26T12:25:43Z</time>
      </trkpt>
      <trkpt lat="38.262199" lon="-1.716204">
        <ele>277.9</ele>
        <time>2023-03-26T12:25:49Z</time>
      </trkpt>
      <trkpt lat="38.262135" lon="-1.716180">
        <ele>279.6</ele>
        <time>2023-03-26T12:25:54Z</time>
      </trkpt>
      <trkpt lat="38.262074" lon="-1.716147">
        <ele>278.9</ele>
        <time>2023-03-26T12:25:58Z</time>
      </trkpt>
      <trkpt lat="38.262012" lon="-1.716104">
        <ele>279.9</ele>
        <time>2023-03-26T12:26:03Z</time>
      </trkpt>
      <trkpt lat="38.261949" lon="-1.716076">
        <ele>280.9</ele>
        <time>2023-03-26T12:26:07Z</time>
      </trkpt>
      <trkpt lat="38.261876" lon="-1.716063">
        <ele>281.9</ele>
        <time>2023-03-26T12:26:12Z</time>
      </trkpt>
      <trkpt lat="38.261811" lon="-1.716074">
        <ele>281.9</ele>
        <time>2023-03-26T12:26:18Z</time>
      </trkpt>
      <trkpt lat="38.261741" lon="-1.716072">
        <ele>282.9</ele>
        <time>2023-03-26T12:26:23Z</time>
      </trkpt>
      <trkpt lat="38.261672" lon="-1.716071">
        <ele>283.7</ele>
        <time>2023-03-26T12:26:28Z</time>
      </trkpt>
      <trkpt lat="38.261603" lon="-1.716066">
        <ele>284.9</ele>
        <time>2023-03-26T12:26:33Z</time>
      </trkpt>
      <trkpt lat="38.261540" lon="-1.716054">
        <ele>284.0</ele>
        <time>2023-03-26T12:26:38Z</time>
      </trkpt>
      <trkpt lat="38.261475" lon="-1.716066">
        <ele>283.7</ele>
        <time>2023-03-26T12:26:42Z</time>
      </trkpt>
      <trkpt lat="38.261410" lon="-1.716067">
        <ele>283.9</ele>
        <time>2023-03-26T12:26:47Z</time>
      </trkpt>
      <trkpt lat="38.261347" lon="-1.716058">
        <ele>282.9</ele>
        <time>2023-03-26T12:26:51Z</time>
      </trkpt>
      <trkpt lat="38.261281" lon="-1.716047">
        <ele>283.7</ele>
        <time>2023-03-26T12:26:56Z</time>
      </trkpt>
      <trkpt lat="38.261216" lon="-1.716037">
        <ele>283.9</ele>
        <time>2023-03-26T12:27:02Z</time>
      </trkpt>
      <trkpt lat="38.261149" lon="-1.716040">
        <ele>283.9</ele>
        <time>2023-03-26T12:27:06Z</time>
      </trkpt>
      <trkpt lat="38.261076" lon="-1.716042">
        <ele>283.9</ele>
        <time>2023-03-26T12:27:11Z</time>
      </trkpt>
      <trkpt lat="38.261008" lon="-1.716051">
        <ele>284.9</ele>
        <time>2023-03-26T12:27:16Z</time>
      </trkpt>
      <trkpt lat="38.260946" lon="-1.716071">
        <ele>283.9</ele>
        <time>2023-03-26T12:27:21Z</time>
      </trkpt>
      <trkpt lat="38.260907" lon="-1.716144">
        <ele>281.9</ele>
        <time>2023-03-26T12:27:26Z</time>
      </trkpt>
      <trkpt lat="38.260889" lon="-1.716221">
        <ele>280.9</ele>
        <time>2023-03-26T12:27:30Z</time>
      </trkpt>
      <trkpt lat="38.260895" lon="-1.716304">
        <ele>280.0</ele>
        <time>2023-03-26T12:27:35Z</time>
      </trkpt>
      <trkpt lat="38.260894" lon="-1.716387">
        <ele>277.9</ele>
        <time>2023-03-26T12:27:39Z</time>
      </trkpt>
      <trkpt lat="38.260885" lon="-1.716471">
        <ele>278.7</ele>
        <time>2023-03-26T12:27:44Z</time>
      </trkpt>
      <trkpt lat="38.260892" lon="-1.716563">
        <ele>279.9</ele>
        <time>2023-03-26T12:27:49Z</time>
      </trkpt>
      <trkpt lat="38.260910" lon="-1.716640">
        <ele>280.9</ele>
        <time>2023-03-26T12:27:54Z</time>
      </trkpt>
      <trkpt lat="38.260921" lon="-1.716722">
        <ele>279.9</ele>
        <time>2023-03-26T12:27:59Z</time>
      </trkpt>
      <trkpt lat="38.260923" lon="-1.716807">
        <ele>280.9</ele>
        <time>2023-03-26T12:28:05Z</time>
      </trkpt>
      <trkpt lat="38.260897" lon="-1.716887">
        <ele>278.9</ele>
        <time>2023-03-26T12:28:12Z</time>
      </trkpt>
      <trkpt lat="38.260844" lon="-1.716935">
        <ele>279.9</ele>
        <time>2023-03-26T12:28:17Z</time>
      </trkpt>
      <trkpt lat="38.260785" lon="-1.716984">
        <ele>280.9</ele>
        <time>2023-03-26T12:28:23Z</time>
      </trkpt>
      <trkpt lat="38.260721" lon="-1.717001">
        <ele>280.9</ele>
        <time>2023-03-26T12:28:28Z</time>
      </trkpt>
      <trkpt lat="38.260667" lon="-1.717051">
        <ele>279.9</ele>
        <time>2023-03-26T12:28:33Z</time>
      </trkpt>
      <trkpt lat="38.260664" lon="-1.717133">
        <ele>278.9</ele>
        <time>2023-03-26T12:28:38Z</time>
      </trkpt>
      <trkpt lat="38.260685" lon="-1.717211">
        <ele>278.2</ele>
        <time>2023-03-26T12:28:42Z</time>
      </trkpt>
      <trkpt lat="38.260709" lon="-1.717288">
        <ele>277.9</ele>
        <time>2023-03-26T12:28:47Z</time>
      </trkpt>
      <trkpt lat="38.260700" lon="-1.717368">
        <ele>275.9</ele>
        <time>2023-03-26T12:28:53Z</time>
      </trkpt>
      <trkpt lat="38.260670" lon="-1.717439">
        <ele>275.9</ele>
        <time>2023-03-26T12:29:08Z</time>
      </trkpt>
      <trkpt lat="38.260621" lon="-1.717501">
        <ele>278.7</ele>
        <time>2023-03-26T12:29:38Z</time>
      </trkpt>
      <trkpt lat="38.260558" lon="-1.717524">
        <ele>279.9</ele>
        <time>2023-03-26T12:29:43Z</time>
      </trkpt>
      <trkpt lat="38.260494" lon="-1.717499">
        <ele>280.0</ele>
        <time>2023-03-26T12:29:48Z</time>
      </trkpt>
      <trkpt lat="38.260480" lon="-1.717419">
        <ele>280.9</ele>
        <time>2023-03-26T12:29:52Z</time>
      </trkpt>
      <trkpt lat="38.260498" lon="-1.717339">
        <ele>280.9</ele>
        <time>2023-03-26T12:29:56Z</time>
      </trkpt>
      <trkpt lat="38.260497" lon="-1.717256">
        <ele>281.9</ele>
        <time>2023-03-26T12:30:01Z</time>
      </trkpt>
      <trkpt lat="38.260479" lon="-1.717169">
        <ele>283.8</ele>
        <time>2023-03-26T12:30:06Z</time>
      </trkpt>
      <trkpt lat="38.260446" lon="-1.717099">
        <ele>284.7</ele>
        <time>2023-03-26T12:30:11Z</time>
      </trkpt>
      <trkpt lat="38.260409" lon="-1.717021">
        <ele>284.9</ele>
        <time>2023-03-26T12:30:15Z</time>
      </trkpt>
      <trkpt lat="38.260373" lon="-1.716946">
        <ele>284.9</ele>
        <time>2023-03-26T12:30:20Z</time>
      </trkpt>
      <trkpt lat="38.260340" lon="-1.716872">
        <ele>285.0</ele>
        <time>2023-03-26T12:30:25Z</time>
      </trkpt>
      <trkpt lat="38.260326" lon="-1.716790">
        <ele>282.9</ele>
        <time>2023-03-26T12:30:31Z</time>
      </trkpt>
      <trkpt lat="38.260284" lon="-1.716727">
        <ele>281.0</ele>
        <time>2023-03-26T12:30:36Z</time>
      </trkpt>
      <trkpt lat="38.260255" lon="-1.716648">
        <ele>278.0</ele>
        <time>2023-03-26T12:30:40Z</time>
      </trkpt>
      <trkpt lat="38.260222" lon="-1.716574">
        <ele>276.9</ele>
        <time>2023-03-26T12:30:45Z</time>
      </trkpt>
      <trkpt lat="38.260187" lon="-1.716495">
        <ele>275.0</ele>
        <time>2023-03-26T12:30:50Z</time>
      </trkpt>
      <trkpt lat="38.260171" lon="-1.716413">
        <ele>273.9</ele>
        <time>2023-03-26T12:30:55Z</time>
      </trkpt>
      <trkpt lat="38.260140" lon="-1.716336">
        <ele>272.9</ele>
        <time>2023-03-26T12:31:00Z</time>
      </trkpt>
      <trkpt lat="38.260102" lon="-1.716266">
        <ele>272.0</ele>
        <time>2023-03-26T12:31:05Z</time>
      </trkpt>
      <trkpt lat="38.260071" lon="-1.716192">
        <ele>271.9</ele>
        <time>2023-03-26T12:31:11Z</time>
      </trkpt>
      <trkpt lat="38.260037" lon="-1.716121">
        <ele>269.9</ele>
        <time>2023-03-26T12:31:16Z</time>
      </trkpt>
      <trkpt lat="38.260015" lon="-1.716041">
        <ele>269.9</ele>
        <time>2023-03-26T12:31:20Z</time>
      </trkpt>
      <trkpt lat="38.259988" lon="-1.715968">
        <ele>269.9</ele>
        <time>2023-03-26T12:31:25Z</time>
      </trkpt>
      <trkpt lat="38.259967" lon="-1.715891">
        <ele>267.9</ele>
        <time>2023-03-26T12:31:31Z</time>
      </trkpt>
      <trkpt lat="38.259947" lon="-1.715815">
        <ele>267.9</ele>
        <time>2023-03-26T12:31:36Z</time>
      </trkpt>
      <trkpt lat="38.259922" lon="-1.715738">
        <ele>266.9</ele>
        <time>2023-03-26T12:31:40Z</time>
      </trkpt>
      <trkpt lat="38.259898" lon="-1.715662">
        <ele>266.9</ele>
        <time>2023-03-26T12:31:46Z</time>
      </trkpt>
      <trkpt lat="38.259863" lon="-1.715588">
        <ele>269.9</ele>
        <time>2023-03-26T12:31:51Z</time>
      </trkpt>
      <trkpt lat="38.259836" lon="-1.715509">
        <ele>271.6</ele>
        <time>2023-03-26T12:31:54Z</time>
      </trkpt>
      <trkpt lat="38.259797" lon="-1.715432">
        <ele>271.9</ele>
        <time>2023-03-26T12:31:58Z</time>
      </trkpt>
      <trkpt lat="38.259744" lon="-1.715381">
        <ele>271.9</ele>
        <time>2023-03-26T12:32:04Z</time>
      </trkpt>
      <trkpt lat="38.259697" lon="-1.715328">
        <ele>268.9</ele>
        <time>2023-03-26T12:32:09Z</time>
      </trkpt>
      <trkpt lat="38.259642" lon="-1.715287">
        <ele>266.9</ele>
        <time>2023-03-26T12:32:15Z</time>
      </trkpt>
      <trkpt lat="38.259584" lon="-1.715244">
        <ele>265.9</ele>
        <time>2023-03-26T12:32:20Z</time>
      </trkpt>
      <trkpt lat="38.259529" lon="-1.715191">
        <ele>265.9</ele>
        <time>2023-03-26T12:32:25Z</time>
      </trkpt>
      <trkpt lat="38.259474" lon="-1.715146">
        <ele>266.1</ele>
        <time>2023-03-26T12:32:36Z</time>
      </trkpt>
      <trkpt lat="38.259428" lon="-1.715084">
        <ele>264.9</ele>
        <time>2023-03-26T12:32:43Z</time>
      </trkpt>
      <trkpt lat="38.259372" lon="-1.715036">
        <ele>265.9</ele>
        <time>2023-03-26T12:32:49Z</time>
      </trkpt>
      <trkpt lat="38.259335" lon="-1.714967">
        <ele>266.9</ele>
        <time>2023-03-26T12:32:54Z</time>
      </trkpt>
      <trkpt lat="38.259293" lon="-1.714902">
        <ele>267.1</ele>
        <time>2023-03-26T12:32:59Z</time>
      </trkpt>
      <trkpt lat="38.259242" lon="-1.714850">
        <ele>266.7</ele>
        <time>2023-03-26T12:33:03Z</time>
      </trkpt>
      <trkpt lat="38.259181" lon="-1.714808">
        <ele>269.6</ele>
        <time>2023-03-26T12:33:08Z</time>
      </trkpt>
      <trkpt lat="38.259147" lon="-1.714736">
        <ele>269.2</ele>
        <time>2023-03-26T12:33:11Z</time>
      </trkpt>
      <trkpt lat="38.259124" lon="-1.714660">
        <ele>270.7</ele>
        <time>2023-03-26T12:33:16Z</time>
      </trkpt>
      <trkpt lat="38.259086" lon="-1.714591">
        <ele>270.7</ele>
        <time>2023-03-26T12:33:21Z</time>
      </trkpt>
      <trkpt lat="38.259047" lon="-1.714519">
        <ele>269.9</ele>
        <time>2023-03-26T12:33:28Z</time>
      </trkpt>
      <trkpt lat="38.258996" lon="-1.714464">
        <ele>270.9</ele>
        <time>2023-03-26T12:33:33Z</time>
      </trkpt>
      <trkpt lat="38.258956" lon="-1.714400">
        <ele>270.9</ele>
        <time>2023-03-26T12:33:38Z</time>
      </trkpt>
      <trkpt lat="38.258913" lon="-1.714336">
        <ele>270.0</ele>
        <time>2023-03-26T12:33:46Z</time>
      </trkpt>
      <trkpt lat="38.258880" lon="-1.714260">
        <ele>269.9</ele>
        <time>2023-03-26T12:33:50Z</time>
      </trkpt>
      <trkpt lat="38.258834" lon="-1.714205">
        <ele>269.2</ele>
        <time>2023-03-26T12:33:56Z</time>
      </trkpt>
      <trkpt lat="38.258809" lon="-1.714129">
        <ele>268.9</ele>
        <time>2023-03-26T12:34:01Z</time>
      </trkpt>
      <trkpt lat="38.258778" lon="-1.714056">
        <ele>267.9</ele>
        <time>2023-03-26T12:34:06Z</time>
      </trkpt>
      <trkpt lat="38.258743" lon="-1.713987">
        <ele>266.9</ele>
        <time>2023-03-26T12:34:12Z</time>
      </trkpt>
      <trkpt lat="38.258724" lon="-1.713904">
        <ele>266.9</ele>
        <time>2023-03-26T12:34:17Z</time>
      </trkpt>
      <trkpt lat="38.258678" lon="-1.713837">
        <ele>266.9</ele>
        <time>2023-03-26T12:34:22Z</time>
      </trkpt>
      <trkpt lat="38.258660" lon="-1.713751">
        <ele>266.9</ele>
        <time>2023-03-26T12:34:28Z</time>
      </trkpt>
      <trkpt lat="38.258631" lon="-1.713679">
        <ele>267.9</ele>
        <time>2023-03-26T12:34:34Z</time>
      </trkpt>
      <trkpt lat="38.258602" lon="-1.713607">
        <ele>265.9</ele>
        <time>2023-03-26T12:34:39Z</time>
      </trkpt>
      <trkpt lat="38.258553" lon="-1.713550">
        <ele>265.9</ele>
        <time>2023-03-26T12:34:44Z</time>
      </trkpt>
      <trkpt lat="38.258527" lon="-1.713475">
        <ele>264.9</ele>
        <time>2023-03-26T12:34:50Z</time>
      </trkpt>
      <trkpt lat="38.258510" lon="-1.713393">
        <ele>264.9</ele>
        <time>2023-03-26T12:34:55Z</time>
      </trkpt>
      <trkpt lat="38.258489" lon="-1.713316">
        <ele>264.9</ele>
        <time>2023-03-26T12:34:59Z</time>
      </trkpt>
      <trkpt lat="38.258494" lon="-1.713229">
        <ele>263.9</ele>
        <time>2023-03-26T12:35:04Z</time>
      </trkpt>
      <trkpt lat="38.258464" lon="-1.713158">
        <ele>264.9</ele>
        <time>2023-03-26T12:35:10Z</time>
      </trkpt>
      <trkpt lat="38.258444" lon="-1.713078">
        <ele>264.9</ele>
        <time>2023-03-26T12:35:15Z</time>
      </trkpt>
      <trkpt lat="38.258433" lon="-1.712998">
        <ele>265.9</ele>
        <time>2023-03-26T12:35:19Z</time>
      </trkpt>
      <trkpt lat="38.258427" lon="-1.712911">
        <ele>266.9</ele>
        <time>2023-03-26T12:35:25Z</time>
      </trkpt>
      <trkpt lat="38.258412" lon="-1.712828">
        <ele>266.7</ele>
        <time>2023-03-26T12:35:31Z</time>
      </trkpt>
      <trkpt lat="38.258402" lon="-1.712746">
        <ele>267.9</ele>
        <time>2023-03-26T12:35:35Z</time>
      </trkpt>
      <trkpt lat="38.258384" lon="-1.712661">
        <ele>267.9</ele>
        <time>2023-03-26T12:35:40Z</time>
      </trkpt>
      <trkpt lat="38.258371" lon="-1.712582">
        <ele>266.9</ele>
        <time>2023-03-26T12:35:45Z</time>
      </trkpt>
      <trkpt lat="38.258365" lon="-1.712500">
        <ele>266.9</ele>
        <time>2023-03-26T12:35:50Z</time>
      </trkpt>
      <trkpt lat="38.258344" lon="-1.712417">
        <ele>266.0</ele>
        <time>2023-03-26T12:35:56Z</time>
      </trkpt>
      <trkpt lat="38.258340" lon="-1.712334">
        <ele>265.9</ele>
        <time>2023-03-26T12:36:02Z</time>
      </trkpt>
      <trkpt lat="38.258342" lon="-1.712245">
        <ele>266.9</ele>
        <time>2023-03-26T12:36:07Z</time>
      </trkpt>
      <trkpt lat="38.258327" lon="-1.712165">
        <ele>266.9</ele>
        <time>2023-03-26T12:36:12Z</time>
      </trkpt>
      <trkpt lat="38.258327" lon="-1.712083">
        <ele>267.9</ele>
        <time>2023-03-26T12:36:16Z</time>
      </trkpt>
      <trkpt lat="38.258331" lon="-1.711999">
        <ele>267.9</ele>
        <time>2023-03-26T12:36:21Z</time>
      </trkpt>
      <trkpt lat="38.258334" lon="-1.711918">
        <ele>266.9</ele>
        <time>2023-03-26T12:36:27Z</time>
      </trkpt>
      <trkpt lat="38.258341" lon="-1.711827">
        <ele>268.9</ele>
        <time>2023-03-26T12:36:31Z</time>
      </trkpt>
      <trkpt lat="38.258352" lon="-1.711739">
        <ele>271.7</ele>
        <time>2023-03-26T12:36:36Z</time>
      </trkpt>
      <trkpt lat="38.258352" lon="-1.711656">
        <ele>272.9</ele>
        <time>2023-03-26T12:36:41Z</time>
      </trkpt>
      <trkpt lat="38.258357" lon="-1.711575">
        <ele>272.7</ele>
        <time>2023-03-26T12:36:45Z</time>
      </trkpt>
      <trkpt lat="38.258366" lon="-1.711490">
        <ele>271.9</ele>
        <time>2023-03-26T12:36:49Z</time>
      </trkpt>
      <trkpt lat="38.258386" lon="-1.711406">
        <ele>272.9</ele>
        <time>2023-03-26T12:36:54Z</time>
      </trkpt>
      <trkpt lat="38.258386" lon="-1.711325">
        <ele>274.9</ele>
        <time>2023-03-26T12:36:59Z</time>
      </trkpt>
      <trkpt lat="38.258394" lon="-1.711244">
        <ele>275.9</ele>
        <time>2023-03-26T12:37:03Z</time>
      </trkpt>
      <trkpt lat="38.258407" lon="-1.711163">
        <ele>277.7</ele>
        <time>2023-03-26T12:37:07Z</time>
      </trkpt>
      <trkpt lat="38.258430" lon="-1.711082">
        <ele>279.7</ele>
        <time>2023-03-26T12:37:12Z</time>
      </trkpt>
      <trkpt lat="38.258462" lon="-1.711012">
        <ele>279.9</ele>
        <time>2023-03-26T12:37:17Z</time>
      </trkpt>
      <trkpt lat="38.258491" lon="-1.710935">
        <ele>279.9</ele>
        <time>2023-03-26T12:37:23Z</time>
      </trkpt>
      <trkpt lat="38.258497" lon="-1.710844">
        <ele>279.9</ele>
        <time>2023-03-26T12:37:28Z</time>
      </trkpt>
      <trkpt lat="38.258499" lon="-1.710761">
        <ele>279.9</ele>
        <time>2023-03-26T12:37:32Z</time>
      </trkpt>
      <trkpt lat="38.258508" lon="-1.710675">
        <ele>279.0</ele>
        <time>2023-03-26T12:37:37Z</time>
      </trkpt>
      <trkpt lat="38.258508" lon="-1.710587">
        <ele>279.9</ele>
        <time>2023-03-26T12:37:42Z</time>
      </trkpt>
      <trkpt lat="38.258516" lon="-1.710504">
        <ele>281.9</ele>
        <time>2023-03-26T12:37:47Z</time>
      </trkpt>
      <trkpt lat="38.258519" lon="-1.710419">
        <ele>282.9</ele>
        <time>2023-03-26T12:37:53Z</time>
      </trkpt>
      <trkpt lat="38.258521" lon="-1.710336">
        <ele>283.9</ele>
        <time>2023-03-26T12:37:57Z</time>
      </trkpt>
      <trkpt lat="38.258528" lon="-1.710255">
        <ele>284.9</ele>
        <time>2023-03-26T12:38:01Z</time>
      </trkpt>
      <trkpt lat="38.258536" lon="-1.710169">
        <ele>284.9</ele>
        <time>2023-03-26T12:38:07Z</time>
      </trkpt>
      <trkpt lat="38.258532" lon="-1.710081">
        <ele>283.9</ele>
        <time>2023-03-26T12:38:12Z</time>
      </trkpt>
      <trkpt lat="38.258553" lon="-1.709997">
        <ele>284.9</ele>
        <time>2023-03-26T12:38:17Z</time>
      </trkpt>
      <trkpt lat="38.258574" lon="-1.709918">
        <ele>284.9</ele>
        <time>2023-03-26T12:38:22Z</time>
      </trkpt>
      <trkpt lat="38.258602" lon="-1.709839">
        <ele>284.9</ele>
        <time>2023-03-26T12:38:28Z</time>
      </trkpt>
      <trkpt lat="38.258629" lon="-1.709763">
        <ele>285.9</ele>
        <time>2023-03-26T12:38:33Z</time>
      </trkpt>
      <trkpt lat="38.258661" lon="-1.709691">
        <ele>286.9</ele>
        <time>2023-03-26T12:38:39Z</time>
      </trkpt>
      <trkpt lat="38.258691" lon="-1.709617">
        <ele>286.9</ele>
        <time>2023-03-26T12:38:44Z</time>
      </trkpt>
      <trkpt lat="38.258723" lon="-1.709541">
        <ele>286.9</ele>
        <time>2023-03-26T12:38:49Z</time>
      </trkpt>
      <trkpt lat="38.258768" lon="-1.709478">
        <ele>285.9</ele>
        <time>2023-03-26T12:38:54Z</time>
      </trkpt>
      <trkpt lat="38.258831" lon="-1.709448">
        <ele>286.9</ele>
        <time>2023-03-26T12:38:59Z</time>
      </trkpt>
      <trkpt lat="38.258899" lon="-1.709433">
        <ele>286.9</ele>
        <time>2023-03-26T12:39:06Z</time>
      </trkpt>
      <trkpt lat="38.258956" lon="-1.709397">
        <ele>287.9</ele>
        <time>2023-03-26T12:39:11Z</time>
      </trkpt>
      <trkpt lat="38.259013" lon="-1.709360">
        <ele>288.9</ele>
        <time>2023-03-26T12:39:16Z</time>
      </trkpt>
      <trkpt lat="38.259073" lon="-1.709329">
        <ele>287.2</ele>
        <time>2023-03-26T12:39:22Z</time>
      </trkpt>
      <trkpt lat="38.259132" lon="-1.709287">
        <ele>286.9</ele>
        <time>2023-03-26T12:39:28Z</time>
      </trkpt>
      <trkpt lat="38.259200" lon="-1.709277">
        <ele>285.9</ele>
        <time>2023-03-26T12:39:33Z</time>
      </trkpt>
      <trkpt lat="38.259270" lon="-1.709289">
        <ele>284.2</ele>
        <time>2023-03-26T12:39:40Z</time>
      </trkpt>
      <trkpt lat="38.259335" lon="-1.709311">
        <ele>284.9</ele>
        <time>2023-03-26T12:39:52Z</time>
      </trkpt>
      <trkpt lat="38.259398" lon="-1.709326">
        <ele>282.9</ele>
        <time>2023-03-26T12:40:02Z</time>
      </trkpt>
      <trkpt lat="38.259453" lon="-1.709382">
        <ele>280.0</ele>
        <time>2023-03-26T12:40:09Z</time>
      </trkpt>
      <trkpt lat="38.259609" lon="-1.709421">
        <ele>280.0</ele>
        <time>2023-03-26T12:40:29Z</time>
      </trkpt>
      <trkpt lat="38.259755" lon="-1.709376">
        <ele>280.0</ele>
        <time>2023-03-26T12:40:34Z</time>
      </trkpt>
      <trkpt lat="38.259821" lon="-1.709372">
        <ele>274.0</ele>
        <time>2023-03-26T12:40:38Z</time>
      </trkpt>
      <trkpt lat="38.259887" lon="-1.709369">
        <ele>273.9</ele>
        <time>2023-03-26T12:40:42Z</time>
      </trkpt>
      <trkpt lat="38.259954" lon="-1.709369">
        <ele>274.9</ele>
        <time>2023-03-26T12:40:48Z</time>
      </trkpt>
      <trkpt lat="38.260010" lon="-1.709408">
        <ele>276.9</ele>
        <time>2023-03-26T12:40:54Z</time>
      </trkpt>
      <trkpt lat="38.260108" lon="-1.709430">
        <ele>287.9</ele>
        <time>2023-03-26T12:42:00Z</time>
      </trkpt>
      <trkpt lat="38.260179" lon="-1.709446">
        <ele>288.9</ele>
        <time>2023-03-26T12:42:07Z</time>
      </trkpt>
      <trkpt lat="38.260240" lon="-1.709475">
        <ele>288.9</ele>
        <time>2023-03-26T12:42:16Z</time>
      </trkpt>
      <trkpt lat="38.260293" lon="-1.709535">
        <ele>284.0</ele>
        <time>2023-03-26T12:42:20Z</time>
      </trkpt>
      <trkpt lat="38.260349" lon="-1.709577">
        <ele>280.2</ele>
        <time>2023-03-26T12:42:25Z</time>
      </trkpt>
      <trkpt lat="38.260400" lon="-1.709625">
        <ele>277.0</ele>
        <time>2023-03-26T12:42:29Z</time>
      </trkpt>
      <trkpt lat="38.260461" lon="-1.709655">
        <ele>275.2</ele>
        <time>2023-03-26T12:42:37Z</time>
      </trkpt>
      <trkpt lat="38.260505" lon="-1.709725">
        <ele>273.9</ele>
        <time>2023-03-26T12:46:54Z</time>
      </trkpt>
      <trkpt lat="38.260596" lon="-1.709719">
        <ele>276.0</ele>
        <time>2023-03-26T12:49:24Z</time>
      </trkpt>
      <trkpt lat="38.260662" lon="-1.709740">
        <ele>274.0</ele>
        <time>2023-03-26T12:49:29Z</time>
      </trkpt>
      <trkpt lat="38.260709" lon="-1.709795">
        <ele>276.0</ele>
        <time>2023-03-26T12:49:34Z</time>
      </trkpt>
      <trkpt lat="38.260756" lon="-1.709856">
        <ele>274.0</ele>
        <time>2023-03-26T12:49:40Z</time>
      </trkpt>
      <trkpt lat="38.260817" lon="-1.709900">
        <ele>274.0</ele>
        <time>2023-03-26T12:49:46Z</time>
      </trkpt>
      <trkpt lat="38.260878" lon="-1.709936">
        <ele>276.0</ele>
        <time>2023-03-26T12:49:52Z</time>
      </trkpt>
      <trkpt lat="38.260913" lon="-1.710004">
        <ele>274.0</ele>
        <time>2023-03-26T12:49:58Z</time>
      </trkpt>
      <trkpt lat="38.260976" lon="-1.710021">
        <ele>274.0</ele>
        <time>2023-03-26T12:50:05Z</time>
      </trkpt>
      <trkpt lat="38.261236" lon="-1.710110">
        <ele>276.0</ele>
        <time>2023-03-26T12:50:31Z</time>
      </trkpt>
      <trkpt lat="38.261403" lon="-1.710237">
        <ele>274.0</ele>
        <time>2023-03-26T12:50:50Z</time>
      </trkpt>
      <trkpt lat="38.261519" lon="-1.710306">
        <ele>274.0</ele>
        <time>2023-03-26T12:51:10Z</time>
      </trkpt>
      <trkpt lat="38.261580" lon="-1.710344">
        <ele>275.0</ele>
        <time>2023-03-26T12:51:17Z</time>
      </trkpt>
      <trkpt lat="38.261697" lon="-1.710438">
        <ele>275.0</ele>
        <time>2023-03-26T12:51:31Z</time>
      </trkpt>
      <trkpt lat="38.261748" lon="-1.710489">
        <ele>277.0</ele>
        <time>2023-03-26T12:51:38Z</time>
      </trkpt>
      <trkpt lat="38.261796" lon="-1.710543">
        <ele>275.0</ele>
        <time>2023-03-26T12:51:45Z</time>
      </trkpt>
      <trkpt lat="38.261852" lon="-1.710585">
        <ele>275.0</ele>
        <time>2023-03-26T12:51:52Z</time>
      </trkpt>
      <trkpt lat="38.261965" lon="-1.710657">
        <ele>276.6</ele>
        <time>2023-03-26T12:52:06Z</time>
      </trkpt>
      <trkpt lat="38.262011" lon="-1.710714">
        <ele>280.8</ele>
        <time>2023-03-26T12:52:13Z</time>
      </trkpt>
      <trkpt lat="38.262075" lon="-1.710746">
        <ele>285.9</ele>
        <time>2023-03-26T12:52:22Z</time>
      </trkpt>
      <trkpt lat="38.262136" lon="-1.710772">
        <ele>288.9</ele>
        <time>2023-03-26T12:52:29Z</time>
      </trkpt>
      <trkpt lat="38.262192" lon="-1.710810">
        <ele>290.9</ele>
        <time>2023-03-26T12:52:34Z</time>
      </trkpt>
      <trkpt lat="38.262242" lon="-1.710860">
        <ele>293.9</ele>
        <time>2023-03-26T12:52:44Z</time>
      </trkpt>
      <trkpt lat="38.262305" lon="-1.710899">
        <ele>294.7</ele>
        <time>2023-03-26T12:52:51Z</time>
      </trkpt>
      <trkpt lat="38.262366" lon="-1.710935">
        <ele>295.9</ele>
        <time>2023-03-26T12:52:57Z</time>
      </trkpt>
      <trkpt lat="38.262430" lon="-1.710930">
        <ele>295.9</ele>
        <time>2023-03-26T12:53:06Z</time>
      </trkpt>
      <trkpt lat="38.262470" lon="-1.711005">
        <ele>295.9</ele>
        <time>2023-03-26T12:53:10Z</time>
      </trkpt>
      <trkpt lat="38.262494" lon="-1.711081">
        <ele>293.9</ele>
        <time>2023-03-26T12:53:16Z</time>
      </trkpt>
      <trkpt lat="38.262557" lon="-1.711098">
        <ele>294.9</ele>
        <time>2023-03-26T12:53:21Z</time>
      </trkpt>
      <trkpt lat="38.262620" lon="-1.711116">
        <ele>296.7</ele>
        <time>2023-03-26T12:53:26Z</time>
      </trkpt>
      <trkpt lat="38.262687" lon="-1.711111">
        <ele>296.9</ele>
        <time>2023-03-26T12:53:32Z</time>
      </trkpt>
      <trkpt lat="38.262742" lon="-1.711070">
        <ele>297.9</ele>
        <time>2023-03-26T12:53:37Z</time>
      </trkpt>
      <trkpt lat="38.262790" lon="-1.711007">
        <ele>297.9</ele>
        <time>2023-03-26T12:53:44Z</time>
      </trkpt>
      <trkpt lat="38.262848" lon="-1.710974">
        <ele>297.9</ele>
        <time>2023-03-26T12:53:50Z</time>
      </trkpt>
      <trkpt lat="38.262900" lon="-1.710928">
        <ele>298.9</ele>
        <time>2023-03-26T12:53:55Z</time>
      </trkpt>
      <trkpt lat="38.262950" lon="-1.710878">
        <ele>298.0</ele>
        <time>2023-03-26T12:54:01Z</time>
      </trkpt>
      <trkpt lat="38.263038" lon="-1.710842">
        <ele>297.0</ele>
        <time>2023-03-26T12:54:07Z</time>
      </trkpt>
      <trkpt lat="38.263149" lon="-1.710868">
        <ele>295.7</ele>
        <time>2023-03-26T12:54:19Z</time>
      </trkpt>
      <trkpt lat="38.263257" lon="-1.710859">
        <ele>294.9</ele>
        <time>2023-03-26T12:54:36Z</time>
      </trkpt>
      <trkpt lat="38.263355" lon="-1.710809">
        <ele>294.9</ele>
        <time>2023-04-16T06:11:15Z</time>
      </trkpt>
      <trkpt lat="38.263358" lon="-1.710733">
        <ele>294.9</ele>
        <time>2023-04-16T06:11:20Z</time>
      </trkpt>
      <trkpt lat="38.263363" lon="-1.710639">
        <ele>295.9</ele>
        <time>2023-04-16T06:11:24Z</time>
      </trkpt>
      <trkpt lat="38.263364" lon="-1.710569">
        <ele>295.0</ele>
        <time>2023-04-16T06:11:46Z</time>
      </trkpt>
      <trkpt lat="38.263351" lon="-1.710496">
        <ele>292.9</ele>
        <time>2023-04-16T06:11:56Z</time>
      </trkpt>
      <trkpt lat="38.263344" lon="-1.710426">
        <ele>290.7</ele>
        <time>2023-04-16T06:12:22Z</time>
      </trkpt>
      <trkpt lat="38.263353" lon="-1.710340">
        <ele>291.9</ele>
        <time>2023-04-16T06:12:27Z</time>
      </trkpt>
      <trkpt lat="38.263362" lon="-1.710280">
        <ele>292.7</ele>
        <time>2023-04-16T06:12:32Z</time>
      </trkpt>
      <trkpt lat="38.263372" lon="-1.710232">
        <ele>293.9</ele>
        <time>2023-04-16T06:12:53Z</time>
      </trkpt>
      <trkpt lat="38.263395" lon="-1.710194">
        <ele>293.9</ele>
        <time>2023-04-16T06:13:09Z</time>
      </trkpt>
      <trkpt lat="38.263396" lon="-1.710111">
        <ele>293.7</ele>
        <time>2023-04-16T06:13:13Z</time>
      </trkpt>
      <trkpt lat="38.263417" lon="-1.710024">
        <ele>293.9</ele>
        <time>2023-04-16T06:13:18Z</time>
      </trkpt>
      <trkpt lat="38.263442" lon="-1.709941">
        <ele>293.9</ele>
        <time>2023-04-16T06:13:23Z</time>
      </trkpt>
      <trkpt lat="38.263468" lon="-1.709867">
        <ele>293.9</ele>
        <time>2023-04-16T06:13:28Z</time>
      </trkpt>
      <trkpt lat="38.263510" lon="-1.709800">
        <ele>294.9</ele>
        <time>2023-04-16T06:13:33Z</time>
      </trkpt>
      <trkpt lat="38.263543" lon="-1.709727">
        <ele>294.9</ele>
        <time>2023-04-16T06:13:38Z</time>
      </trkpt>
      <trkpt lat="38.263580" lon="-1.709661">
        <ele>293.9</ele>
        <time>2023-04-16T06:13:42Z</time>
      </trkpt>
      <trkpt lat="38.263616" lon="-1.709594">
        <ele>292.9</ele>
        <time>2023-04-16T06:13:47Z</time>
      </trkpt>
      <trkpt lat="38.263655" lon="-1.709518">
        <ele>292.9</ele>
        <time>2023-04-16T06:13:52Z</time>
      </trkpt>
      <trkpt lat="38.263692" lon="-1.709446">
        <ele>292.9</ele>
        <time>2023-04-16T06:13:58Z</time>
      </trkpt>
      <trkpt lat="38.263732" lon="-1.709372">
        <ele>292.9</ele>
        <time>2023-04-16T06:14:03Z</time>
      </trkpt>
      <trkpt lat="38.263766" lon="-1.709300">
        <ele>291.0</ele>
        <time>2023-04-16T06:14:09Z</time>
      </trkpt>
      <trkpt lat="38.263802" lon="-1.709222">
        <ele>288.9</ele>
        <time>2023-04-16T06:14:15Z</time>
      </trkpt>
      <trkpt lat="38.263834" lon="-1.709147">
        <ele>287.9</ele>
        <time>2023-04-16T06:14:20Z</time>
      </trkpt>
      <trkpt lat="38.263877" lon="-1.709073">
        <ele>287.0</ele>
        <time>2023-04-16T06:14:26Z</time>
      </trkpt>
      <trkpt lat="38.263909" lon="-1.708988">
        <ele>285.9</ele>
        <time>2023-04-16T06:14:31Z</time>
      </trkpt>
      <trkpt lat="38.263937" lon="-1.708910">
        <ele>284.9</ele>
        <time>2023-04-16T06:14:35Z</time>
      </trkpt>
      <trkpt lat="38.263970" lon="-1.708832">
        <ele>283.9</ele>
        <time>2023-04-16T06:14:41Z</time>
      </trkpt>
      <trkpt lat="38.264001" lon="-1.708755">
        <ele>282.0</ele>
        <time>2023-04-16T06:14:47Z</time>
      </trkpt>
      <trkpt lat="38.264015" lon="-1.708666">
        <ele>282.9</ele>
        <time>2023-04-16T06:14:53Z</time>
      </trkpt>
      <trkpt lat="38.264020" lon="-1.708582">
        <ele>281.9</ele>
        <time>2023-04-16T06:14:58Z</time>
      </trkpt>
      <trkpt lat="38.264015" lon="-1.708500">
        <ele>281.0</ele>
        <time>2023-04-16T06:15:03Z</time>
      </trkpt>
      <trkpt lat="38.263999" lon="-1.708416">
        <ele>279.9</ele>
        <time>2023-04-16T06:15:08Z</time>
      </trkpt>
      <trkpt lat="38.263983" lon="-1.708334">
        <ele>279.9</ele>
        <time>2023-04-16T06:15:13Z</time>
      </trkpt>
      <trkpt lat="38.263955" lon="-1.708252">
        <ele>280.9</ele>
        <time>2023-04-16T06:15:21Z</time>
      </trkpt>
      <trkpt lat="38.263928" lon="-1.708173">
        <ele>280.9</ele>
        <time>2023-04-16T06:15:26Z</time>
      </trkpt>
      <trkpt lat="38.263905" lon="-1.708096">
        <ele>280.9</ele>
        <time>2023-04-16T06:15:30Z</time>
      </trkpt>
      <trkpt lat="38.263885" lon="-1.708017">
        <ele>281.9</ele>
        <time>2023-04-16T06:15:34Z</time>
      </trkpt>
      <trkpt lat="38.263860" lon="-1.707942">
        <ele>281.9</ele>
        <time>2023-04-16T06:15:39Z</time>
      </trkpt>
      <trkpt lat="38.263849" lon="-1.707852">
        <ele>281.9</ele>
        <time>2023-04-16T06:15:44Z</time>
      </trkpt>
      <trkpt lat="38.263837" lon="-1.707771">
        <ele>282.9</ele>
        <time>2023-04-16T06:15:48Z</time>
      </trkpt>
      <trkpt lat="38.263817" lon="-1.707678">
        <ele>283.7</ele>
        <time>2023-04-16T06:15:53Z</time>
      </trkpt>
      <trkpt lat="38.263792" lon="-1.707602">
        <ele>284.9</ele>
        <time>2023-04-16T06:15:57Z</time>
      </trkpt>
      <trkpt lat="38.263771" lon="-1.707520">
        <ele>284.9</ele>
        <time>2023-04-16T06:16:01Z</time>
      </trkpt>
      <trkpt lat="38.263752" lon="-1.707438">
        <ele>284.9</ele>
        <time>2023-04-16T06:16:06Z</time>
      </trkpt>
      <trkpt lat="38.263737" lon="-1.707350">
        <ele>285.9</ele>
        <time>2023-04-16T06:16:10Z</time>
      </trkpt>
      <trkpt lat="38.263717" lon="-1.707274">
        <ele>285.9</ele>
        <time>2023-04-16T06:16:14Z</time>
      </trkpt>
      <trkpt lat="38.263699" lon="-1.707196">
        <ele>286.2</ele>
        <time>2023-04-16T06:16:18Z</time>
      </trkpt>
      <trkpt lat="38.263671" lon="-1.707117">
        <ele>287.1</ele>
        <time>2023-04-16T06:16:22Z</time>
      </trkpt>
      <trkpt lat="38.263652" lon="-1.707034">
        <ele>285.9</ele>
        <time>2023-04-16T06:16:27Z</time>
      </trkpt>
      <trkpt lat="38.263634" lon="-1.706956">
        <ele>285.9</ele>
        <time>2023-04-16T06:16:32Z</time>
      </trkpt>
      <trkpt lat="38.263620" lon="-1.706868">
        <ele>284.9</ele>
        <time>2023-04-16T06:16:37Z</time>
      </trkpt>
      <trkpt lat="38.263604" lon="-1.706783">
        <ele>283.9</ele>
        <time>2023-04-16T06:16:42Z</time>
      </trkpt>
      <trkpt lat="38.263585" lon="-1.706699">
        <ele>283.0</ele>
        <time>2023-04-16T06:16:47Z</time>
      </trkpt>
      <trkpt lat="38.263561" lon="-1.706606">
        <ele>283.7</ele>
        <time>2023-04-16T06:16:52Z</time>
      </trkpt>
      <trkpt lat="38.263549" lon="-1.706524">
        <ele>283.9</ele>
        <time>2023-04-16T06:16:56Z</time>
      </trkpt>
      <trkpt lat="38.263541" lon="-1.706433">
        <ele>284.2</ele>
        <time>2023-04-16T06:17:01Z</time>
      </trkpt>
      <trkpt lat="38.263509" lon="-1.706357">
        <ele>282.0</ele>
        <time>2023-04-16T06:17:06Z</time>
      </trkpt>
      <trkpt lat="38.263485" lon="-1.706265">
        <ele>282.2</ele>
        <time>2023-04-16T06:17:11Z</time>
      </trkpt>
      <trkpt lat="38.263468" lon="-1.706175">
        <ele>282.9</ele>
        <time>2023-04-16T06:17:16Z</time>
      </trkpt>
      <trkpt lat="38.263468" lon="-1.706091">
        <ele>282.2</ele>
        <time>2023-04-16T06:17:21Z</time>
      </trkpt>
      <trkpt lat="38.263461" lon="-1.706007">
        <ele>281.9</ele>
        <time>2023-04-16T06:17:25Z</time>
      </trkpt>
      <trkpt lat="38.263468" lon="-1.705919">
        <ele>281.2</ele>
        <time>2023-04-16T06:17:30Z</time>
      </trkpt>
      <trkpt lat="38.263472" lon="-1.705831">
        <ele>279.9</ele>
        <time>2023-04-16T06:17:35Z</time>
      </trkpt>
      <trkpt lat="38.263472" lon="-1.705746">
        <ele>279.9</ele>
        <time>2023-04-16T06:17:40Z</time>
      </trkpt>
      <trkpt lat="38.263468" lon="-1.705662">
        <ele>279.9</ele>
        <time>2023-04-16T06:17:44Z</time>
      </trkpt>
      <trkpt lat="38.263459" lon="-1.705571">
        <ele>279.0</ele>
        <time>2023-04-16T06:17:49Z</time>
      </trkpt>
      <trkpt lat="38.263442" lon="-1.705493">
        <ele>279.7</ele>
        <time>2023-04-16T06:17:53Z</time>
      </trkpt>
      <trkpt lat="38.263417" lon="-1.705403">
        <ele>279.1</ele>
        <time>2023-04-16T06:17:58Z</time>
      </trkpt>
      <trkpt lat="38.263391" lon="-1.705316">
        <ele>279.7</ele>
        <time>2023-04-16T06:18:03Z</time>
      </trkpt>
      <trkpt lat="38.263363" lon="-1.705225">
        <ele>279.9</ele>
        <time>2023-04-16T06:18:08Z</time>
      </trkpt>
      <trkpt lat="38.263336" lon="-1.705148">
        <ele>279.9</ele>
        <time>2023-04-16T06:18:13Z</time>
      </trkpt>
      <trkpt lat="38.263312" lon="-1.705071">
        <ele>279.9</ele>
        <time>2023-04-16T06:18:17Z</time>
      </trkpt>
      <trkpt lat="38.263283" lon="-1.704990">
        <ele>278.9</ele>
        <time>2023-04-16T06:18:22Z</time>
      </trkpt>
      <trkpt lat="38.263258" lon="-1.704913">
        <ele>278.9</ele>
        <time>2023-04-16T06:18:26Z</time>
      </trkpt>
      <trkpt lat="38.263231" lon="-1.704836">
        <ele>278.9</ele>
        <time>2023-04-16T06:18:30Z</time>
      </trkpt>
      <trkpt lat="38.263206" lon="-1.704757">
        <ele>279.9</ele>
        <time>2023-04-16T06:18:34Z</time>
      </trkpt>
      <trkpt lat="38.263177" lon="-1.704672">
        <ele>279.9</ele>
        <time>2023-04-16T06:18:39Z</time>
      </trkpt>
      <trkpt lat="38.263154" lon="-1.704585">
        <ele>279.9</ele>
        <time>2023-04-16T06:18:44Z</time>
      </trkpt>
      <trkpt lat="38.263130" lon="-1.704511">
        <ele>279.9</ele>
        <time>2023-04-16T06:18:49Z</time>
      </trkpt>
      <trkpt lat="38.263106" lon="-1.704428">
        <ele>279.7</ele>
        <time>2023-04-16T06:18:54Z</time>
      </trkpt>
      <trkpt lat="38.263091" lon="-1.704345">
        <ele>280.9</ele>
        <time>2023-04-16T06:18:59Z</time>
      </trkpt>
      <trkpt lat="38.263071" lon="-1.704259">
        <ele>280.9</ele>
        <time>2023-04-16T06:19:04Z</time>
      </trkpt>
      <trkpt lat="38.263046" lon="-1.704183">
        <ele>280.9</ele>
        <time>2023-04-16T06:19:09Z</time>
      </trkpt>
      <trkpt lat="38.263019" lon="-1.704107">
        <ele>281.9</ele>
        <time>2023-04-16T06:19:14Z</time>
      </trkpt>
      <trkpt lat="38.262986" lon="-1.704026">
        <ele>281.9</ele>
        <time>2023-04-16T06:19:19Z</time>
      </trkpt>
      <trkpt lat="38.262938" lon="-1.703948">
        <ele>282.9</ele>
        <time>2023-04-16T06:19:24Z</time>
      </trkpt>
      <trkpt lat="38.262891" lon="-1.703889">
        <ele>282.9</ele>
        <time>2023-04-16T06:19:29Z</time>
      </trkpt>
      <trkpt lat="38.262839" lon="-1.703840">
        <ele>282.0</ele>
        <time>2023-04-16T06:19:33Z</time>
      </trkpt>
      <trkpt lat="38.262783" lon="-1.703794">
        <ele>281.9</ele>
        <time>2023-04-16T06:19:37Z</time>
      </trkpt>
      <trkpt lat="38.262725" lon="-1.703745">
        <ele>282.9</ele>
        <time>2023-04-16T06:19:42Z</time>
      </trkpt>
      <trkpt lat="38.262670" lon="-1.703695">
        <ele>283.2</ele>
        <time>2023-04-16T06:19:47Z</time>
      </trkpt>
      <trkpt lat="38.262613" lon="-1.703657">
        <ele>281.9</ele>
        <time>2023-04-16T06:19:52Z</time>
      </trkpt>
      <trkpt lat="38.262557" lon="-1.703618">
        <ele>281.0</ele>
        <time>2023-04-16T06:19:57Z</time>
      </trkpt>
      <trkpt lat="38.262502" lon="-1.703580">
        <ele>279.9</ele>
        <time>2023-04-16T06:20:02Z</time>
      </trkpt>
      <trkpt lat="38.262441" lon="-1.703529">
        <ele>279.9</ele>
        <time>2023-04-16T06:20:08Z</time>
      </trkpt>
      <trkpt lat="38.262379" lon="-1.703504">
        <ele>278.9</ele>
        <time>2023-04-16T06:20:12Z</time>
      </trkpt>
      <trkpt lat="38.262314" lon="-1.703480">
        <ele>280.7</ele>
        <time>2023-04-16T06:20:17Z</time>
      </trkpt>
      <trkpt lat="38.262255" lon="-1.703442">
        <ele>280.9</ele>
        <time>2023-04-16T06:20:23Z</time>
      </trkpt>
      <trkpt lat="38.262189" lon="-1.703431">
        <ele>280.0</ele>
        <time>2023-04-16T06:20:31Z</time>
      </trkpt>
      <trkpt lat="38.262113" lon="-1.703443">
        <ele>278.2</ele>
        <time>2023-04-16T06:20:37Z</time>
      </trkpt>
      <trkpt lat="38.262038" lon="-1.703442">
        <ele>277.0</ele>
        <time>2023-04-16T06:20:42Z</time>
      </trkpt>
      <trkpt lat="38.261969" lon="-1.703443">
        <ele>275.9</ele>
        <time>2023-04-16T06:20:47Z</time>
      </trkpt>
      <trkpt lat="38.261903" lon="-1.703450">
        <ele>277.9</ele>
        <time>2023-04-16T06:21:02Z</time>
      </trkpt>
      <trkpt lat="38.261836" lon="-1.703450">
        <ele>279.9</ele>
        <time>2023-04-16T06:21:07Z</time>
      </trkpt>
      <trkpt lat="38.261769" lon="-1.703467">
        <ele>279.9</ele>
        <time>2023-04-16T06:21:11Z</time>
      </trkpt>
      <trkpt lat="38.261709" lon="-1.703496">
        <ele>280.9</ele>
        <time>2023-04-16T06:21:15Z</time>
      </trkpt>
      <trkpt lat="38.261637" lon="-1.703515">
        <ele>281.7</ele>
        <time>2023-04-16T06:21:20Z</time>
      </trkpt>
      <trkpt lat="38.261573" lon="-1.703520">
        <ele>282.9</ele>
        <time>2023-04-16T06:21:24Z</time>
      </trkpt>
      <trkpt lat="38.261503" lon="-1.703533">
        <ele>283.0</ele>
        <time>2023-04-16T06:21:29Z</time>
      </trkpt>
      <trkpt lat="38.261434" lon="-1.703536">
        <ele>281.9</ele>
        <time>2023-04-16T06:21:34Z</time>
      </trkpt>
      <trkpt lat="38.261362" lon="-1.703539">
        <ele>282.7</ele>
        <time>2023-04-16T06:21:39Z</time>
      </trkpt>
      <trkpt lat="38.261292" lon="-1.703541">
        <ele>281.9</ele>
        <time>2023-04-16T06:21:44Z</time>
      </trkpt>
      <trkpt lat="38.261227" lon="-1.703542">
        <ele>282.9</ele>
        <time>2023-04-16T06:21:49Z</time>
      </trkpt>
      <trkpt lat="38.261160" lon="-1.703539">
        <ele>282.9</ele>
        <time>2023-04-16T06:21:54Z</time>
      </trkpt>
      <trkpt lat="38.261094" lon="-1.703542">
        <ele>282.9</ele>
        <time>2023-04-16T06:21:59Z</time>
      </trkpt>
      <trkpt lat="38.261033" lon="-1.703520">
        <ele>283.9</ele>
        <time>2023-04-16T06:22:05Z</time>
      </trkpt>
      <trkpt lat="38.260964" lon="-1.703526">
        <ele>280.9</ele>
        <time>2023-04-16T06:22:22Z</time>
      </trkpt>
      <trkpt lat="38.260900" lon="-1.703526">
        <ele>280.9</ele>
        <time>2023-04-16T06:22:27Z</time>
      </trkpt>
      <trkpt lat="38.260823" lon="-1.703511">
        <ele>280.9</ele>
        <time>2023-04-16T06:22:32Z</time>
      </trkpt>
      <trkpt lat="38.260754" lon="-1.703523">
        <ele>281.9</ele>
        <time>2023-04-16T06:22:37Z</time>
      </trkpt>
      <trkpt lat="38.260682" lon="-1.703523">
        <ele>280.9</ele>
        <time>2023-04-16T06:22:42Z</time>
      </trkpt>
      <trkpt lat="38.260613" lon="-1.703516">
        <ele>281.0</ele>
        <time>2023-04-16T06:22:47Z</time>
      </trkpt>
      <trkpt lat="38.260548" lon="-1.703511">
        <ele>280.0</ele>
        <time>2023-04-16T06:22:51Z</time>
      </trkpt>
      <trkpt lat="38.260495" lon="-1.703540">
        <ele>279.9</ele>
        <time>2023-04-16T06:22:56Z</time>
      </trkpt>
      <trkpt lat="38.260448" lon="-1.703548">
        <ele>279.9</ele>
        <time>2023-04-16T06:23:01Z</time>
      </trkpt>
      <trkpt lat="38.260377" lon="-1.703560">
        <ele>281.7</ele>
        <time>2023-04-16T06:23:05Z</time>
      </trkpt>
      <trkpt lat="38.260286" lon="-1.703568">
        <ele>284.9</ele>
        <time>2023-04-16T06:23:25Z</time>
      </trkpt>
      <trkpt lat="38.260223" lon="-1.703521">
        <ele>282.0</ele>
        <time>2023-04-16T06:23:32Z</time>
      </trkpt>
      <trkpt lat="38.260153" lon="-1.703533">
        <ele>280.9</ele>
        <time>2023-04-16T06:23:37Z</time>
      </trkpt>
      <trkpt lat="38.260087" lon="-1.703551">
        <ele>277.0</ele>
        <time>2023-04-16T06:23:46Z</time>
      </trkpt>
      <trkpt lat="38.260017" lon="-1.703562">
        <ele>277.9</ele>
        <time>2023-04-16T06:23:51Z</time>
      </trkpt>
      <trkpt lat="38.259954" lon="-1.703579">
        <ele>279.8</ele>
        <time>2023-04-16T06:23:55Z</time>
      </trkpt>
      <trkpt lat="38.259889" lon="-1.703587">
        <ele>280.7</ele>
        <time>2023-04-16T06:24:00Z</time>
      </trkpt>
      <trkpt lat="38.259820" lon="-1.703599">
        <ele>279.9</ele>
        <time>2023-04-16T06:24:06Z</time>
      </trkpt>
      <trkpt lat="38.259757" lon="-1.703605">
        <ele>280.0</ele>
        <time>2023-04-16T06:24:10Z</time>
      </trkpt>
      <trkpt lat="38.259694" lon="-1.703621">
        <ele>279.9</ele>
        <time>2023-04-16T06:24:14Z</time>
      </trkpt>
      <trkpt lat="38.259626" lon="-1.703633">
        <ele>280.0</ele>
        <time>2023-04-16T06:24:19Z</time>
      </trkpt>
      <trkpt lat="38.259557" lon="-1.703643">
        <ele>279.9</ele>
        <time>2023-04-16T06:24:24Z</time>
      </trkpt>
      <trkpt lat="38.259486" lon="-1.703650">
        <ele>279.9</ele>
        <time>2023-04-16T06:24:29Z</time>
      </trkpt>
      <trkpt lat="38.259415" lon="-1.703665">
        <ele>280.9</ele>
        <time>2023-04-16T06:24:34Z</time>
      </trkpt>
      <trkpt lat="38.259348" lon="-1.703668">
        <ele>281.9</ele>
        <time>2023-04-16T06:24:38Z</time>
      </trkpt>
      <trkpt lat="38.259275" lon="-1.703681">
        <ele>282.9</ele>
        <time>2023-04-16T06:24:43Z</time>
      </trkpt>
      <trkpt lat="38.259216" lon="-1.703716">
        <ele>283.7</ele>
        <time>2023-04-16T06:24:49Z</time>
      </trkpt>
      <trkpt lat="38.259151" lon="-1.703732">
        <ele>283.9</ele>
        <time>2023-04-16T06:25:00Z</time>
      </trkpt>
      <trkpt lat="38.259082" lon="-1.703733">
        <ele>283.9</ele>
        <time>2023-04-16T06:25:05Z</time>
      </trkpt>
      <trkpt lat="38.259010" lon="-1.703736">
        <ele>282.9</ele>
        <time>2023-04-16T06:25:09Z</time>
      </trkpt>
      <trkpt lat="38.258937" lon="-1.703730">
        <ele>283.9</ele>
        <time>2023-04-16T06:25:14Z</time>
      </trkpt>
      <trkpt lat="38.258867" lon="-1.703722">
        <ele>284.9</ele>
        <time>2023-04-16T06:25:19Z</time>
      </trkpt>
      <trkpt lat="38.258802" lon="-1.703737">
        <ele>285.9</ele>
        <time>2023-04-16T06:25:24Z</time>
      </trkpt>
      <trkpt lat="38.258733" lon="-1.703752">
        <ele>286.0</ele>
        <time>2023-04-16T06:25:29Z</time>
      </trkpt>
      <trkpt lat="38.258660" lon="-1.703734">
        <ele>285.0</ele>
        <time>2023-04-16T06:25:35Z</time>
      </trkpt>
      <trkpt lat="38.258595" lon="-1.703711">
        <ele>284.9</ele>
        <time>2023-04-16T06:25:39Z</time>
      </trkpt>
      <trkpt lat="38.258522" lon="-1.703686">
        <ele>285.9</ele>
        <time>2023-04-16T06:25:44Z</time>
      </trkpt>
      <trkpt lat="38.258453" lon="-1.703664">
        <ele>284.9</ele>
        <time>2023-04-16T06:25:48Z</time>
      </trkpt>
      <trkpt lat="38.258389" lon="-1.703636">
        <ele>284.9</ele>
        <time>2023-04-16T06:25:53Z</time>
      </trkpt>
      <trkpt lat="38.258327" lon="-1.703609">
        <ele>284.9</ele>
        <time>2023-04-16T06:25:58Z</time>
      </trkpt>
      <trkpt lat="38.258270" lon="-1.703574">
        <ele>283.9</ele>
        <time>2023-04-16T06:26:02Z</time>
      </trkpt>
      <trkpt lat="38.258205" lon="-1.703547">
        <ele>284.7</ele>
        <time>2023-04-16T06:26:06Z</time>
      </trkpt>
      <trkpt lat="38.258130" lon="-1.703530">
        <ele>284.0</ele>
        <time>2023-04-16T06:26:11Z</time>
      </trkpt>
      <trkpt lat="38.258057" lon="-1.703514">
        <ele>282.9</ele>
        <time>2023-04-16T06:26:16Z</time>
      </trkpt>
      <trkpt lat="38.258007" lon="-1.703489">
        <ele>285.1</ele>
        <time>2023-04-16T06:26:34Z</time>
      </trkpt>
      <trkpt lat="38.257932" lon="-1.703484">
        <ele>282.7</ele>
        <time>2023-04-16T06:26:41Z</time>
      </trkpt>
      <trkpt lat="38.257889" lon="-1.703435">
        <ele>283.9</ele>
        <time>2023-04-16T06:26:46Z</time>
      </trkpt>
      <trkpt lat="38.257824" lon="-1.703433">
        <ele>282.9</ele>
        <time>2023-04-16T06:27:19Z</time>
      </trkpt>
      <trkpt lat="38.257757" lon="-1.703396">
        <ele>282.9</ele>
        <time>2023-04-16T06:27:23Z</time>
      </trkpt>
      <trkpt lat="38.257682" lon="-1.703372">
        <ele>283.7</ele>
        <time>2023-04-16T06:27:28Z</time>
      </trkpt>
      <trkpt lat="38.257608" lon="-1.703357">
        <ele>284.9</ele>
        <time>2023-04-16T06:27:33Z</time>
      </trkpt>
      <trkpt lat="38.257543" lon="-1.703357">
        <ele>283.9</ele>
        <time>2023-04-16T06:27:37Z</time>
      </trkpt>
      <trkpt lat="38.257477" lon="-1.703348">
        <ele>282.9</ele>
        <time>2023-04-16T06:27:42Z</time>
      </trkpt>
      <trkpt lat="38.257412" lon="-1.703339">
        <ele>282.9</ele>
        <time>2023-04-16T06:27:46Z</time>
      </trkpt>
      <trkpt lat="38.257343" lon="-1.703327">
        <ele>282.9</ele>
        <time>2023-04-16T06:27:51Z</time>
      </trkpt>
      <trkpt lat="38.257273" lon="-1.703340">
        <ele>282.9</ele>
        <time>2023-04-16T06:27:55Z</time>
      </trkpt>
      <trkpt lat="38.257197" lon="-1.703337">
        <ele>282.2</ele>
        <time>2023-04-16T06:28:00Z</time>
      </trkpt>
      <trkpt lat="38.257126" lon="-1.703344">
        <ele>282.9</ele>
        <time>2023-04-16T06:28:05Z</time>
      </trkpt>
      <trkpt lat="38.257057" lon="-1.703350">
        <ele>283.0</ele>
        <time>2023-04-16T06:28:09Z</time>
      </trkpt>
      <trkpt lat="38.256983" lon="-1.703335">
        <ele>283.9</ele>
        <time>2023-04-16T06:28:14Z</time>
      </trkpt>
      <trkpt lat="38.256906" lon="-1.703323">
        <ele>283.9</ele>
        <time>2023-04-16T06:28:19Z</time>
      </trkpt>
      <trkpt lat="38.256826" lon="-1.703326">
        <ele>284.0</ele>
        <time>2023-04-16T06:28:24Z</time>
      </trkpt>
      <trkpt lat="38.256759" lon="-1.703330">
        <ele>283.9</ele>
        <time>2023-04-16T06:28:28Z</time>
      </trkpt>
      <trkpt lat="38.256679" lon="-1.703325">
        <ele>283.9</ele>
        <time>2023-04-16T06:28:33Z</time>
      </trkpt>
      <trkpt lat="38.256608" lon="-1.703317">
        <ele>283.9</ele>
        <time>2023-04-16T06:28:37Z</time>
      </trkpt>
      <trkpt lat="38.256536" lon="-1.703322">
        <ele>283.0</ele>
        <time>2023-04-16T06:28:41Z</time>
      </trkpt>
      <trkpt lat="38.256469" lon="-1.703325">
        <ele>282.9</ele>
        <time>2023-04-16T06:28:45Z</time>
      </trkpt>
      <trkpt lat="38.256399" lon="-1.703320">
        <ele>281.2</ele>
        <time>2023-04-16T06:28:49Z</time>
      </trkpt>
      <trkpt lat="38.256334" lon="-1.703329">
        <ele>279.2</ele>
        <time>2023-04-16T06:28:54Z</time>
      </trkpt>
      <trkpt lat="38.256266" lon="-1.703338">
        <ele>278.9</ele>
        <time>2023-04-16T06:28:59Z</time>
      </trkpt>
      <trkpt lat="38.256194" lon="-1.703349">
        <ele>279.9</ele>
        <time>2023-04-16T06:29:04Z</time>
      </trkpt>
      <trkpt lat="38.256127" lon="-1.703347">
        <ele>278.0</ele>
        <time>2023-04-16T06:29:08Z</time>
      </trkpt>
      <trkpt lat="38.256056" lon="-1.703339">
        <ele>278.7</ele>
        <time>2023-04-16T06:29:13Z</time>
      </trkpt>
      <trkpt lat="38.255991" lon="-1.703347">
        <ele>278.9</ele>
        <time>2023-04-16T06:29:17Z</time>
      </trkpt>
      <trkpt lat="38.255925" lon="-1.703350">
        <ele>278.2</ele>
        <time>2023-04-16T06:29:21Z</time>
      </trkpt>
      <trkpt lat="38.255875" lon="-1.703348">
        <ele>278.5</ele>
        <time>2023-04-16T06:29:28Z</time>
      </trkpt>
      <trkpt lat="38.255815" lon="-1.703330">
        <ele>281.2</ele>
        <time>2023-04-16T06:29:43Z</time>
      </trkpt>
      <trkpt lat="38.255746" lon="-1.703344">
        <ele>279.0</ele>
        <time>2023-04-16T06:29:47Z</time>
      </trkpt>
      <trkpt lat="38.255683" lon="-1.703352">
        <ele>278.9</ele>
        <time>2023-04-16T06:29:51Z</time>
      </trkpt>
      <trkpt lat="38.255618" lon="-1.703360">
        <ele>278.9</ele>
        <time>2023-04-16T06:29:55Z</time>
      </trkpt>
      <trkpt lat="38.255553" lon="-1.703371">
        <ele>278.9</ele>
        <time>2023-04-16T06:29:59Z</time>
      </trkpt>
      <trkpt lat="38.255483" lon="-1.703372">
        <ele>278.9</ele>
        <time>2023-04-16T06:30:03Z</time>
      </trkpt>
      <trkpt lat="38.255413" lon="-1.703370">
        <ele>278.2</ele>
        <time>2023-04-16T06:30:07Z</time>
      </trkpt>
      <trkpt lat="38.255350" lon="-1.703372">
        <ele>277.0</ele>
        <time>2023-04-16T06:30:11Z</time>
      </trkpt>
      <trkpt lat="38.255284" lon="-1.703370">
        <ele>277.9</ele>
        <time>2023-04-16T06:30:15Z</time>
      </trkpt>
      <trkpt lat="38.255215" lon="-1.703372">
        <ele>276.9</ele>
        <time>2023-04-16T06:30:19Z</time>
      </trkpt>
      <trkpt lat="38.255152" lon="-1.703358">
        <ele>276.9</ele>
        <time>2023-04-16T06:30:24Z</time>
      </trkpt>
      <trkpt lat="38.255087" lon="-1.703360">
        <ele>275.2</ele>
        <time>2023-04-16T06:30:28Z</time>
      </trkpt>
      <trkpt lat="38.255016" lon="-1.703356">
        <ele>275.9</ele>
        <time>2023-04-16T06:30:34Z</time>
      </trkpt>
      <trkpt lat="38.254943" lon="-1.703345">
        <ele>275.2</ele>
        <time>2023-04-16T06:30:39Z</time>
      </trkpt>
      <trkpt lat="38.254879" lon="-1.703352">
        <ele>276.9</ele>
        <time>2023-04-16T06:30:44Z</time>
      </trkpt>
      <trkpt lat="38.254810" lon="-1.703351">
        <ele>276.0</ele>
        <time>2023-04-16T06:30:49Z</time>
      </trkpt>
      <trkpt lat="38.254744" lon="-1.703337">
        <ele>275.7</ele>
        <time>2023-04-16T06:30:55Z</time>
      </trkpt>
      <trkpt lat="38.254674" lon="-1.703331">
        <ele>275.0</ele>
        <time>2023-04-16T06:31:01Z</time>
      </trkpt>
      <trkpt lat="38.254606" lon="-1.703322">
        <ele>274.9</ele>
        <time>2023-04-16T06:31:06Z</time>
      </trkpt>
      <trkpt lat="38.254547" lon="-1.703291">
        <ele>274.1</ele>
        <time>2023-04-16T06:31:11Z</time>
      </trkpt>
      <trkpt lat="38.254493" lon="-1.703249">
        <ele>273.9</ele>
        <time>2023-04-16T06:31:17Z</time>
      </trkpt>
      <trkpt lat="38.254433" lon="-1.703197">
        <ele>274.9</ele>
        <time>2023-04-16T06:31:23Z</time>
      </trkpt>
      <trkpt lat="38.254376" lon="-1.703154">
        <ele>274.0</ele>
        <time>2023-04-16T06:31:27Z</time>
      </trkpt>
      <trkpt lat="38.254316" lon="-1.703098">
        <ele>273.9</ele>
        <time>2023-04-16T06:31:32Z</time>
      </trkpt>
      <trkpt lat="38.254265" lon="-1.703049">
        <ele>274.0</ele>
        <time>2023-04-16T06:31:36Z</time>
      </trkpt>
      <trkpt lat="38.254208" lon="-1.702991">
        <ele>274.0</ele>
        <time>2023-04-16T06:31:41Z</time>
      </trkpt>
      <trkpt lat="38.254153" lon="-1.702935">
        <ele>274.0</ele>
        <time>2023-04-16T06:31:46Z</time>
      </trkpt>
      <trkpt lat="38.254099" lon="-1.702872">
        <ele>274.2</ele>
        <time>2023-04-16T06:31:51Z</time>
      </trkpt>
      <trkpt lat="38.254037" lon="-1.702851">
        <ele>275.9</ele>
        <time>2023-04-16T06:32:03Z</time>
      </trkpt>
      <trkpt lat="38.253976" lon="-1.702802">
        <ele>273.0</ele>
        <time>2023-04-16T06:32:08Z</time>
      </trkpt>
      <trkpt lat="38.253938" lon="-1.702726">
        <ele>270.2</ele>
        <time>2023-04-16T06:32:16Z</time>
      </trkpt>
      <trkpt lat="38.253897" lon="-1.702664">
        <ele>270.2</ele>
        <time>2023-04-16T06:32:21Z</time>
      </trkpt>
      <trkpt lat="38.253855" lon="-1.702605">
        <ele>269.0</ele>
        <time>2023-04-16T06:32:26Z</time>
      </trkpt>
      <trkpt lat="38.253810" lon="-1.702543">
        <ele>268.0</ele>
        <time>2023-04-16T06:32:30Z</time>
      </trkpt>
      <trkpt lat="38.253758" lon="-1.702491">
        <ele>267.0</ele>
        <time>2023-04-16T06:32:34Z</time>
      </trkpt>
      <trkpt lat="38.253699" lon="-1.702457">
        <ele>266.0</ele>
        <time>2023-04-16T06:32:39Z</time>
      </trkpt>
      <trkpt lat="38.253640" lon="-1.702419">
        <ele>266.0</ele>
        <time>2023-04-16T06:32:44Z</time>
      </trkpt>
      <trkpt lat="38.253588" lon="-1.702367">
        <ele>267.0</ele>
        <time>2023-04-16T06:32:49Z</time>
      </trkpt>
      <trkpt lat="38.253537" lon="-1.702315">
        <ele>266.2</ele>
        <time>2023-04-16T06:32:54Z</time>
      </trkpt>
      <trkpt lat="38.253482" lon="-1.702264">
        <ele>266.9</ele>
        <time>2023-04-16T06:32:59Z</time>
      </trkpt>
      <trkpt lat="38.253433" lon="-1.702212">
        <ele>267.0</ele>
        <time>2023-04-16T06:33:03Z</time>
      </trkpt>
      <trkpt lat="38.253377" lon="-1.702158">
        <ele>266.0</ele>
        <time>2023-04-16T06:33:07Z</time>
      </trkpt>
      <trkpt lat="38.253322" lon="-1.702089">
        <ele>266.0</ele>
        <time>2023-04-16T06:33:12Z</time>
      </trkpt>
      <trkpt lat="38.253264" lon="-1.702040">
        <ele>266.0</ele>
        <time>2023-04-16T06:33:16Z</time>
      </trkpt>
      <trkpt lat="38.253208" lon="-1.702000">
        <ele>265.2</ele>
        <time>2023-04-16T06:33:20Z</time>
      </trkpt>
      <trkpt lat="38.253148" lon="-1.701959">
        <ele>265.0</ele>
        <time>2023-04-16T06:33:25Z</time>
      </trkpt>
      <trkpt lat="38.253076" lon="-1.701923">
        <ele>265.0</ele>
        <time>2023-04-16T06:33:30Z</time>
      </trkpt>
      <trkpt lat="38.253007" lon="-1.701901">
        <ele>266.6</ele>
        <time>2023-04-16T06:33:34Z</time>
      </trkpt>
      <trkpt lat="38.252945" lon="-1.701877">
        <ele>266.0</ele>
        <time>2023-04-16T06:33:39Z</time>
      </trkpt>
      <trkpt lat="38.252875" lon="-1.701846">
        <ele>265.1</ele>
        <time>2023-04-16T06:33:44Z</time>
      </trkpt>
      <trkpt lat="38.252803" lon="-1.701829">
        <ele>265.0</ele>
        <time>2023-04-16T06:33:49Z</time>
      </trkpt>
      <trkpt lat="38.252743" lon="-1.701801">
        <ele>264.0</ele>
        <time>2023-04-16T06:33:53Z</time>
      </trkpt>
      <trkpt lat="38.252678" lon="-1.701775">
        <ele>264.7</ele>
        <time>2023-04-16T06:33:58Z</time>
      </trkpt>
      <trkpt lat="38.252616" lon="-1.701749">
        <ele>265.0</ele>
        <time>2023-04-16T06:34:03Z</time>
      </trkpt>
      <trkpt lat="38.252557" lon="-1.701714">
        <ele>264.0</ele>
        <time>2023-04-16T06:34:07Z</time>
      </trkpt>
      <trkpt lat="38.252488" lon="-1.701681">
        <ele>264.0</ele>
        <time>2023-04-16T06:34:12Z</time>
      </trkpt>
      <trkpt lat="38.252413" lon="-1.701662">
        <ele>264.2</ele>
        <time>2023-04-16T06:34:17Z</time>
      </trkpt>
      <trkpt lat="38.252351" lon="-1.701641">
        <ele>264.0</ele>
        <time>2023-04-16T06:34:21Z</time>
      </trkpt>
      <trkpt lat="38.252282" lon="-1.701610">
        <ele>265.0</ele>
        <time>2023-04-16T06:34:26Z</time>
      </trkpt>
      <trkpt lat="38.252226" lon="-1.701570">
        <ele>266.0</ele>
        <time>2023-04-16T06:34:30Z</time>
      </trkpt>
      <trkpt lat="38.252160" lon="-1.701542">
        <ele>266.0</ele>
        <time>2023-04-16T06:34:35Z</time>
      </trkpt>
      <trkpt lat="38.252090" lon="-1.701517">
        <ele>266.0</ele>
        <time>2023-04-16T06:34:41Z</time>
      </trkpt>
      <trkpt lat="38.252024" lon="-1.701499">
        <ele>266.0</ele>
        <time>2023-04-16T06:34:44Z</time>
      </trkpt>
      <trkpt lat="38.251958" lon="-1.701479">
        <ele>266.0</ele>
        <time>2023-04-16T06:34:49Z</time>
      </trkpt>
      <trkpt lat="38.251892" lon="-1.701452">
        <ele>267.2</ele>
        <time>2023-04-16T06:34:54Z</time>
      </trkpt>
      <trkpt lat="38.251825" lon="-1.701430">
        <ele>266.0</ele>
        <time>2023-04-16T06:35:06Z</time>
      </trkpt>
      <trkpt lat="38.251754" lon="-1.701402">
        <ele>266.0</ele>
        <time>2023-04-16T06:35:10Z</time>
      </trkpt>
      <trkpt lat="38.251689" lon="-1.701377">
        <ele>266.0</ele>
        <time>2023-04-16T06:35:14Z</time>
      </trkpt>
      <trkpt lat="38.251624" lon="-1.701364">
        <ele>266.0</ele>
        <time>2023-04-16T06:35:18Z</time>
      </trkpt>
      <trkpt lat="38.251557" lon="-1.701340">
        <ele>265.9</ele>
        <time>2023-04-16T06:35:23Z</time>
      </trkpt>
      <trkpt lat="38.251494" lon="-1.701332">
        <ele>266.0</ele>
        <time>2023-04-16T06:35:28Z</time>
      </trkpt>
      <trkpt lat="38.251422" lon="-1.701315">
        <ele>266.9</ele>
        <time>2023-04-16T06:35:33Z</time>
      </trkpt>
      <trkpt lat="38.251360" lon="-1.701297">
        <ele>267.0</ele>
        <time>2023-04-16T06:35:38Z</time>
      </trkpt>
      <trkpt lat="38.251289" lon="-1.701289">
        <ele>266.0</ele>
        <time>2023-04-16T06:35:43Z</time>
      </trkpt>
      <trkpt lat="38.251224" lon="-1.701293">
        <ele>266.0</ele>
        <time>2023-04-16T06:35:48Z</time>
      </trkpt>
      <trkpt lat="38.251150" lon="-1.701277">
        <ele>266.0</ele>
        <time>2023-04-16T06:35:53Z</time>
      </trkpt>
      <trkpt lat="38.251077" lon="-1.701248">
        <ele>265.0</ele>
        <time>2023-04-16T06:35:58Z</time>
      </trkpt>
      <trkpt lat="38.251010" lon="-1.701248">
        <ele>265.0</ele>
        <time>2023-04-16T06:36:02Z</time>
      </trkpt>
      <trkpt lat="38.250947" lon="-1.701217">
        <ele>265.7</ele>
        <time>2023-04-16T06:36:07Z</time>
      </trkpt>
      <trkpt lat="38.250883" lon="-1.701189">
        <ele>265.0</ele>
        <time>2023-04-16T06:36:12Z</time>
      </trkpt>
      <trkpt lat="38.250813" lon="-1.701173">
        <ele>264.0</ele>
        <time>2023-04-16T06:36:17Z</time>
      </trkpt>
      <trkpt lat="38.250746" lon="-1.701141">
        <ele>264.7</ele>
        <time>2023-04-16T06:36:21Z</time>
      </trkpt>
      <trkpt lat="38.250691" lon="-1.701147">
        <ele>264.0</ele>
        <time>2023-04-16T06:36:36Z</time>
      </trkpt>
      <trkpt lat="38.250631" lon="-1.701131">
        <ele>264.0</ele>
        <time>2023-04-16T06:36:39Z</time>
      </trkpt>
      <trkpt lat="38.250563" lon="-1.701124">
        <ele>265.7</ele>
        <time>2023-04-16T06:36:44Z</time>
      </trkpt>
      <trkpt lat="38.250505" lon="-1.701090">
        <ele>265.0</ele>
        <time>2023-04-16T06:36:49Z</time>
      </trkpt>
      <trkpt lat="38.250439" lon="-1.701069">
        <ele>264.6</ele>
        <time>2023-04-16T06:37:20Z</time>
      </trkpt>
      <trkpt lat="38.250371" lon="-1.701077">
        <ele>266.9</ele>
        <time>2023-04-16T06:37:30Z</time>
      </trkpt>
      <trkpt lat="38.250305" lon="-1.701068">
        <ele>266.2</ele>
        <time>2023-04-16T06:37:35Z</time>
      </trkpt>
      <trkpt lat="38.250236" lon="-1.701054">
        <ele>266.0</ele>
        <time>2023-04-16T06:37:40Z</time>
      </trkpt>
      <trkpt lat="38.250170" lon="-1.701038">
        <ele>266.0</ele>
        <time>2023-04-16T06:37:45Z</time>
      </trkpt>
      <trkpt lat="38.250105" lon="-1.701017">
        <ele>266.0</ele>
        <time>2023-04-16T06:37:50Z</time>
      </trkpt>
      <trkpt lat="38.250039" lon="-1.701006">
        <ele>266.0</ele>
        <time>2023-04-16T06:37:55Z</time>
      </trkpt>
      <trkpt lat="38.249971" lon="-1.701007">
        <ele>266.0</ele>
        <time>2023-04-16T06:38:13Z</time>
      </trkpt>
      <trkpt lat="38.249907" lon="-1.700997">
        <ele>265.0</ele>
        <time>2023-04-16T06:38:18Z</time>
      </trkpt>
      <trkpt lat="38.249833" lon="-1.700984">
        <ele>265.0</ele>
        <time>2023-04-16T06:38:23Z</time>
      </trkpt>
      <trkpt lat="38.249770" lon="-1.700990">
        <ele>265.0</ele>
        <time>2023-04-16T06:38:27Z</time>
      </trkpt>
      <trkpt lat="38.249704" lon="-1.700961">
        <ele>264.2</ele>
        <time>2023-04-16T06:38:44Z</time>
      </trkpt>
      <trkpt lat="38.249636" lon="-1.700929">
        <ele>264.0</ele>
        <time>2023-04-16T06:38:48Z</time>
      </trkpt>
      <trkpt lat="38.249573" lon="-1.700897">
        <ele>265.9</ele>
        <time>2023-04-16T06:38:53Z</time>
      </trkpt>
      <trkpt lat="38.249510" lon="-1.700868">
        <ele>266.0</ele>
        <time>2023-04-16T06:38:57Z</time>
      </trkpt>
      <trkpt lat="38.249451" lon="-1.700823">
        <ele>269.0</ele>
        <time>2023-04-16T06:39:03Z</time>
      </trkpt>
      <trkpt lat="38.249395" lon="-1.700802">
        <ele>272.0</ele>
        <time>2023-04-16T06:39:16Z</time>
      </trkpt>
      <trkpt lat="38.249345" lon="-1.700768">
        <ele>271.0</ele>
        <time>2023-04-16T06:39:32Z</time>
      </trkpt>
      <trkpt lat="38.249283" lon="-1.700724">
        <ele>271.9</ele>
        <time>2023-04-16T06:39:44Z</time>
      </trkpt>
      <trkpt lat="38.249225" lon="-1.700679">
        <ele>273.0</ele>
        <time>2023-04-16T06:39:47Z</time>
      </trkpt>
      <trkpt lat="38.249158" lon="-1.700626">
        <ele>273.9</ele>
        <time>2023-04-16T06:39:52Z</time>
      </trkpt>
      <trkpt lat="38.249106" lon="-1.700581">
        <ele>275.0</ele>
        <time>2023-04-16T06:39:56Z</time>
      </trkpt>
      <trkpt lat="38.249062" lon="-1.700523">
        <ele>276.0</ele>
        <time>2023-04-16T06:40:00Z</time>
      </trkpt>
      <trkpt lat="38.249006" lon="-1.700481">
        <ele>276.9</ele>
        <time>2023-04-16T06:40:04Z</time>
      </trkpt>
      <trkpt lat="38.248945" lon="-1.700419">
        <ele>277.0</ele>
        <time>2023-04-16T06:40:09Z</time>
      </trkpt>
      <trkpt lat="38.248888" lon="-1.700368">
        <ele>277.0</ele>
        <time>2023-04-16T06:40:13Z</time>
      </trkpt>
      <trkpt lat="38.248836" lon="-1.700316">
        <ele>277.9</ele>
        <time>2023-04-16T06:40:17Z</time>
      </trkpt>
      <trkpt lat="38.248779" lon="-1.700269">
        <ele>278.9</ele>
        <time>2023-04-16T06:40:37Z</time>
      </trkpt>
      <trkpt lat="38.248718" lon="-1.700228">
        <ele>278.2</ele>
        <time>2023-04-16T06:40:42Z</time>
      </trkpt>
      <trkpt lat="38.248653" lon="-1.700209">
        <ele>278.0</ele>
        <time>2023-04-16T06:40:46Z</time>
      </trkpt>
      <trkpt lat="38.248589" lon="-1.700191">
        <ele>274.3</ele>
        <time>2023-04-16T06:40:51Z</time>
      </trkpt>
      <trkpt lat="38.248520" lon="-1.700207">
        <ele>272.0</ele>
        <time>2023-04-16T06:41:12Z</time>
      </trkpt>
      <trkpt lat="38.248451" lon="-1.700189">
        <ele>271.0</ele>
        <time>2023-04-16T06:41:17Z</time>
      </trkpt>
      <trkpt lat="38.248381" lon="-1.700183">
        <ele>271.0</ele>
        <time>2023-04-16T06:41:21Z</time>
      </trkpt>
      <trkpt lat="38.248314" lon="-1.700155">
        <ele>271.0</ele>
        <time>2023-04-16T06:41:25Z</time>
      </trkpt>
      <trkpt lat="38.248246" lon="-1.700129">
        <ele>270.2</ele>
        <time>2023-04-16T06:41:30Z</time>
      </trkpt>
      <trkpt lat="38.248185" lon="-1.700079">
        <ele>270.0</ele>
        <time>2023-04-16T06:41:35Z</time>
      </trkpt>
      <trkpt lat="38.248127" lon="-1.700035">
        <ele>271.0</ele>
        <time>2023-04-16T06:41:41Z</time>
      </trkpt>
      <trkpt lat="38.248087" lon="-1.699973">
        <ele>271.2</ele>
        <time>2023-04-16T06:41:46Z</time>
      </trkpt>
      <trkpt lat="38.248057" lon="-1.699901">
        <ele>270.2</ele>
        <time>2023-04-16T06:41:54Z</time>
      </trkpt>
      <trkpt lat="38.248012" lon="-1.699843">
        <ele>271.9</ele>
        <time>2023-04-16T06:41:59Z</time>
      </trkpt>
      <trkpt lat="38.247981" lon="-1.699767">
        <ele>274.0</ele>
        <time>2023-04-16T06:42:04Z</time>
      </trkpt>
      <trkpt lat="38.247939" lon="-1.699700">
        <ele>274.0</ele>
        <time>2023-04-16T06:42:10Z</time>
      </trkpt>
      <trkpt lat="38.247893" lon="-1.699633">
        <ele>274.0</ele>
        <time>2023-04-16T06:42:15Z</time>
      </trkpt>
      <trkpt lat="38.247847" lon="-1.699565">
        <ele>274.0</ele>
        <time>2023-04-16T06:42:20Z</time>
      </trkpt>
      <trkpt lat="38.247802" lon="-1.699496">
        <ele>272.2</ele>
        <time>2023-04-16T06:42:24Z</time>
      </trkpt>
      <trkpt lat="38.247755" lon="-1.699419">
        <ele>271.0</ele>
        <time>2023-04-16T06:42:29Z</time>
      </trkpt>
      <trkpt lat="38.247713" lon="-1.699359">
        <ele>269.2</ele>
        <time>2023-04-16T06:42:33Z</time>
      </trkpt>
      <trkpt lat="38.247668" lon="-1.699298">
        <ele>270.0</ele>
        <time>2023-04-16T06:42:37Z</time>
      </trkpt>
      <trkpt lat="38.247626" lon="-1.699224">
        <ele>269.0</ele>
        <time>2023-04-16T06:42:42Z</time>
      </trkpt>
      <trkpt lat="38.247568" lon="-1.699175">
        <ele>268.0</ele>
        <time>2023-04-16T06:42:47Z</time>
      </trkpt>
      <trkpt lat="38.247569" lon="-1.699183">
        <ele>268.2</ele>
        <time>2023-04-16T06:44:47Z</time>
      </trkpt>
      <trkpt lat="38.247558" lon="-1.699096">
        <ele>271.9</ele>
        <time>2023-04-16T06:44:54Z</time>
      </trkpt>
      <trkpt lat="38.247543" lon="-1.699011">
        <ele>272.9</ele>
        <time>2023-04-16T06:44:59Z</time>
      </trkpt>
      <trkpt lat="38.247512" lon="-1.698928">
        <ele>272.0</ele>
        <time>2023-04-16T06:45:04Z</time>
      </trkpt>
      <trkpt lat="38.247469" lon="-1.698851">
        <ele>271.9</ele>
        <time>2023-04-16T06:45:10Z</time>
      </trkpt>
      <trkpt lat="38.247432" lon="-1.698772">
        <ele>272.1</ele>
        <time>2023-04-16T06:45:15Z</time>
      </trkpt>
      <trkpt lat="38.247390" lon="-1.698711">
        <ele>272.0</ele>
        <time>2023-04-16T06:45:19Z</time>
      </trkpt>
      <trkpt lat="38.247350" lon="-1.698639">
        <ele>271.0</ele>
        <time>2023-04-16T06:45:24Z</time>
      </trkpt>
      <trkpt lat="38.247308" lon="-1.698559">
        <ele>271.0</ele>
        <time>2023-04-16T06:45:29Z</time>
      </trkpt>
      <trkpt lat="38.247267" lon="-1.698479">
        <ele>270.2</ele>
        <time>2023-04-16T06:45:34Z</time>
      </trkpt>
      <trkpt lat="38.247240" lon="-1.698394">
        <ele>270.0</ele>
        <time>2023-04-16T06:45:39Z</time>
      </trkpt>
      <trkpt lat="38.247217" lon="-1.698317">
        <ele>270.0</ele>
        <time>2023-04-16T06:45:44Z</time>
      </trkpt>
      <trkpt lat="38.247187" lon="-1.698238">
        <ele>269.7</ele>
        <time>2023-04-16T06:45:49Z</time>
      </trkpt>
      <trkpt lat="38.247166" lon="-1.698144">
        <ele>270.7</ele>
        <time>2023-04-16T06:45:54Z</time>
      </trkpt>
      <trkpt lat="38.247148" lon="-1.698053">
        <ele>270.2</ele>
        <time>2023-04-16T06:45:58Z</time>
      </trkpt>
      <trkpt lat="38.247135" lon="-1.697968">
        <ele>269.0</ele>
        <time>2023-04-16T06:46:02Z</time>
      </trkpt>
      <trkpt lat="38.247130" lon="-1.697881">
        <ele>269.9</ele>
        <time>2023-04-16T06:46:07Z</time>
      </trkpt>
      <trkpt lat="38.247125" lon="-1.697801">
        <ele>270.0</ele>
        <time>2023-04-16T06:46:11Z</time>
      </trkpt>
      <trkpt lat="38.247114" lon="-1.697715">
        <ele>269.1</ele>
        <time>2023-04-16T06:46:16Z</time>
      </trkpt>
      <trkpt lat="38.247081" lon="-1.697630">
        <ele>269.0</ele>
        <time>2023-04-16T06:46:21Z</time>
      </trkpt>
      <trkpt lat="38.247082" lon="-1.697550">
        <ele>268.1</ele>
        <time>2023-04-16T06:46:26Z</time>
      </trkpt>
      <trkpt lat="38.247089" lon="-1.697459">
        <ele>266.2</ele>
        <time>2023-04-16T06:46:33Z</time>
      </trkpt>
      <trkpt lat="38.247072" lon="-1.697360">
        <ele>264.0</ele>
        <time>2023-04-16T06:46:38Z</time>
      </trkpt>
      <trkpt lat="38.247079" lon="-1.697264">
        <ele>264.7</ele>
        <time>2023-04-16T06:46:43Z</time>
      </trkpt>
      <trkpt lat="38.247072" lon="-1.697173">
        <ele>263.2</ele>
        <time>2023-04-16T06:46:48Z</time>
      </trkpt>
      <trkpt lat="38.247065" lon="-1.697077">
        <ele>263.0</ele>
        <time>2023-04-16T06:46:53Z</time>
      </trkpt>
      <trkpt lat="38.247068" lon="-1.696990">
        <ele>263.0</ele>
        <time>2023-04-16T06:46:58Z</time>
      </trkpt>
      <trkpt lat="38.247051" lon="-1.696902">
        <ele>262.0</ele>
        <time>2023-04-16T06:47:03Z</time>
      </trkpt>
      <trkpt lat="38.247038" lon="-1.696820">
        <ele>261.0</ele>
        <time>2023-04-16T06:47:07Z</time>
      </trkpt>
      <trkpt lat="38.247031" lon="-1.696725">
        <ele>261.0</ele>
        <time>2023-04-16T06:47:11Z</time>
      </trkpt>
      <trkpt lat="38.247028" lon="-1.696638">
        <ele>262.0</ele>
        <time>2023-04-16T06:47:16Z</time>
      </trkpt>
      <trkpt lat="38.247009" lon="-1.696542">
        <ele>264.7</ele>
        <time>2023-04-16T06:47:21Z</time>
      </trkpt>
      <trkpt lat="38.246993" lon="-1.696444">
        <ele>266.9</ele>
        <time>2023-04-16T06:47:26Z</time>
      </trkpt>
      <trkpt lat="38.246976" lon="-1.696346">
        <ele>267.2</ele>
        <time>2023-04-16T06:47:31Z</time>
      </trkpt>
      <trkpt lat="38.246962" lon="-1.696262">
        <ele>267.0</ele>
        <time>2023-04-16T06:47:35Z</time>
      </trkpt>
      <trkpt lat="38.246949" lon="-1.696180">
        <ele>266.0</ele>
        <time>2023-04-16T06:47:39Z</time>
      </trkpt>
      <trkpt lat="38.246926" lon="-1.696092">
        <ele>266.0</ele>
        <time>2023-04-16T06:47:44Z</time>
      </trkpt>
      <trkpt lat="38.246903" lon="-1.695994">
        <ele>266.7</ele>
        <time>2023-04-16T06:47:49Z</time>
      </trkpt>
      <trkpt lat="38.246887" lon="-1.695915">
        <ele>266.0</ele>
        <time>2023-04-16T06:47:53Z</time>
      </trkpt>
      <trkpt lat="38.246855" lon="-1.695831">
        <ele>267.0</ele>
        <time>2023-04-16T06:47:58Z</time>
      </trkpt>
      <trkpt lat="38.246838" lon="-1.695749">
        <ele>267.0</ele>
        <time>2023-04-16T06:48:02Z</time>
      </trkpt>
      <trkpt lat="38.246815" lon="-1.695662">
        <ele>267.7</ele>
        <time>2023-04-16T06:48:06Z</time>
      </trkpt>
      <trkpt lat="38.246791" lon="-1.695574">
        <ele>268.0</ele>
        <time>2023-04-16T06:48:11Z</time>
      </trkpt>
      <trkpt lat="38.246764" lon="-1.695490">
        <ele>269.6</ele>
        <time>2023-04-16T06:48:15Z</time>
      </trkpt>
      <trkpt lat="38.246743" lon="-1.695411">
        <ele>270.7</ele>
        <time>2023-04-16T06:48:19Z</time>
      </trkpt>
      <trkpt lat="38.246712" lon="-1.695329">
        <ele>271.0</ele>
        <time>2023-04-16T06:48:24Z</time>
      </trkpt>
      <trkpt lat="38.246679" lon="-1.695256">
        <ele>270.0</ele>
        <time>2023-04-16T06:48:28Z</time>
      </trkpt>
      <trkpt lat="38.246651" lon="-1.695170">
        <ele>269.0</ele>
        <time>2023-04-16T06:48:32Z</time>
      </trkpt>
      <trkpt lat="38.246615" lon="-1.695087">
        <ele>269.7</ele>
        <time>2023-04-16T06:48:37Z</time>
      </trkpt>
      <trkpt lat="38.246568" lon="-1.695007">
        <ele>269.0</ele>
        <time>2023-04-16T06:48:42Z</time>
      </trkpt>
      <trkpt lat="38.246536" lon="-1.694924">
        <ele>270.0</ele>
        <time>2023-04-16T06:48:47Z</time>
      </trkpt>
      <trkpt lat="38.246511" lon="-1.694845">
        <ele>270.9</ele>
        <time>2023-04-16T06:48:52Z</time>
      </trkpt>
      <trkpt lat="38.246546" lon="-1.694767">
        <ele>269.0</ele>
        <time>2023-04-16T06:48:59Z</time>
      </trkpt>
      <trkpt lat="38.246536" lon="-1.694680">
        <ele>268.0</ele>
        <time>2023-04-16T06:49:05Z</time>
      </trkpt>
      <trkpt lat="38.246511" lon="-1.694588">
        <ele>268.2</ele>
        <time>2023-04-16T06:49:11Z</time>
      </trkpt>
      <trkpt lat="38.246497" lon="-1.694508">
        <ele>267.0</ele>
        <time>2023-04-16T06:49:17Z</time>
      </trkpt>
      <trkpt lat="38.246540" lon="-1.694439">
        <ele>268.2</ele>
        <time>2023-04-16T06:49:58Z</time>
      </trkpt>
      <trkpt lat="38.246606" lon="-1.694417">
        <ele>269.0</ele>
        <time>2023-04-16T06:50:03Z</time>
      </trkpt>
      <trkpt lat="38.246664" lon="-1.694376">
        <ele>270.0</ele>
        <time>2023-04-16T06:50:28Z</time>
      </trkpt>
      <trkpt lat="38.246734" lon="-1.694351">
        <ele>266.0</ele>
        <time>2023-04-16T06:50:59Z</time>
      </trkpt>
      <trkpt lat="38.246784" lon="-1.694288">
        <ele>266.0</ele>
        <time>2023-04-16T06:51:05Z</time>
      </trkpt>
      <trkpt lat="38.246827" lon="-1.694250">
        <ele>267.0</ele>
        <time>2023-04-16T06:51:13Z</time>
      </trkpt>
      <trkpt lat="38.246916" lon="-1.694251">
        <ele>267.2</ele>
        <time>2023-04-16T06:52:30Z</time>
      </trkpt>
      <trkpt lat="38.246853" lon="-1.694180">
        <ele>264.0</ele>
        <time>2023-04-16T06:52:56Z</time>
      </trkpt>
      <trkpt lat="38.246764" lon="-1.694185">
        <ele>262.0</ele>
        <time>2023-04-16T06:53:00Z</time>
      </trkpt>
      <trkpt lat="38.246745" lon="-1.694106">
        <ele>261.0</ele>
        <time>2023-04-16T06:53:08Z</time>
      </trkpt>
      <trkpt lat="38.246754" lon="-1.694187">
        <ele>260.0</ele>
        <time>2023-04-16T06:53:16Z</time>
      </trkpt>
      <trkpt lat="38.246757" lon="-1.694268">
        <ele>259.0</ele>
        <time>2023-04-16T06:53:27Z</time>
      </trkpt>
      <trkpt lat="38.246743" lon="-1.694184">
        <ele>258.9</ele>
        <time>2023-04-16T06:54:19Z</time>
      </trkpt>
      <trkpt lat="38.246737" lon="-1.694099">
        <ele>263.0</ele>
        <time>2023-04-16T06:54:30Z</time>
      </trkpt>
      <trkpt lat="38.246705" lon="-1.694011">
        <ele>264.6</ele>
        <time>2023-04-16T06:54:35Z</time>
      </trkpt>
      <trkpt lat="38.246693" lon="-1.693918">
        <ele>264.0</ele>
        <time>2023-04-16T06:54:40Z</time>
      </trkpt>
      <trkpt lat="38.246669" lon="-1.693833">
        <ele>265.0</ele>
        <time>2023-04-16T06:54:45Z</time>
      </trkpt>
      <trkpt lat="38.246644" lon="-1.693749">
        <ele>265.0</ele>
        <time>2023-04-16T06:54:50Z</time>
      </trkpt>
      <trkpt lat="38.246612" lon="-1.693666">
        <ele>265.0</ele>
        <time>2023-04-16T06:54:55Z</time>
      </trkpt>
      <trkpt lat="38.246569" lon="-1.693581">
        <ele>264.0</ele>
        <time>2023-04-16T06:55:00Z</time>
      </trkpt>
      <trkpt lat="38.246521" lon="-1.693526">
        <ele>263.0</ele>
        <time>2023-04-16T06:55:04Z</time>
      </trkpt>
      <trkpt lat="38.246469" lon="-1.693451">
        <ele>263.7</ele>
        <time>2023-04-16T06:55:09Z</time>
      </trkpt>
      <trkpt lat="38.246426" lon="-1.693375">
        <ele>263.0</ele>
        <time>2023-04-16T06:55:14Z</time>
      </trkpt>
      <trkpt lat="38.246385" lon="-1.693313">
        <ele>261.2</ele>
        <time>2023-04-16T06:55:18Z</time>
      </trkpt>
      <trkpt lat="38.246341" lon="-1.693250">
        <ele>260.7</ele>
        <time>2023-04-16T06:55:22Z</time>
      </trkpt>
      <trkpt lat="38.246304" lon="-1.693173">
        <ele>262.2</ele>
        <time>2023-04-16T06:55:27Z</time>
      </trkpt>
      <trkpt lat="38.246254" lon="-1.693096">
        <ele>263.0</ele>
        <time>2023-04-16T06:55:32Z</time>
      </trkpt>
      <trkpt lat="38.246213" lon="-1.693030">
        <ele>262.0</ele>
        <time>2023-04-16T06:55:36Z</time>
      </trkpt>
      <trkpt lat="38.246167" lon="-1.692952">
        <ele>263.0</ele>
        <time>2023-04-16T06:55:41Z</time>
      </trkpt>
      <trkpt lat="38.246131" lon="-1.692863">
        <ele>263.7</ele>
        <time>2023-04-16T06:55:46Z</time>
      </trkpt>
      <trkpt lat="38.246084" lon="-1.692787">
        <ele>266.0</ele>
        <time>2023-04-16T06:55:51Z</time>
      </trkpt>
      <trkpt lat="38.246068" lon="-1.692714">
        <ele>267.0</ele>
        <time>2023-04-16T06:55:57Z</time>
      </trkpt>
      <trkpt lat="38.246067" lon="-1.692652">
        <ele>265.0</ele>
        <time>2023-04-16T06:56:06Z</time>
      </trkpt>
      <trkpt lat="38.246040" lon="-1.692568">
        <ele>262.2</ele>
        <time>2023-04-16T06:56:19Z</time>
      </trkpt>
      <trkpt lat="38.246001" lon="-1.692487">
        <ele>263.0</ele>
        <time>2023-04-16T06:56:38Z</time>
      </trkpt>
      <trkpt lat="38.245947" lon="-1.692437">
        <ele>260.2</ele>
        <time>2023-04-16T06:56:46Z</time>
      </trkpt>
      <trkpt lat="38.245887" lon="-1.692412">
        <ele>258.2</ele>
        <time>2023-04-16T06:56:50Z</time>
      </trkpt>
      <trkpt lat="38.245860" lon="-1.692325">
        <ele>258.3</ele>
        <time>2023-04-16T06:57:03Z</time>
      </trkpt>
      <trkpt lat="38.245832" lon="-1.692236">
        <ele>261.0</ele>
        <time>2023-04-16T06:57:18Z</time>
      </trkpt>
      <trkpt lat="38.245829" lon="-1.692150">
        <ele>261.8</ele>
        <time>2023-04-16T06:57:25Z</time>
      </trkpt>
      <trkpt lat="38.245778" lon="-1.692103">
        <ele>261.2</ele>
        <time>2023-04-16T06:57:43Z</time>
      </trkpt>
      <trkpt lat="38.245768" lon="-1.692018">
        <ele>261.2</ele>
        <time>2023-04-16T06:57:48Z</time>
      </trkpt>
      <trkpt lat="38.245747" lon="-1.691923">
        <ele>260.0</ele>
        <time>2023-04-16T06:57:53Z</time>
      </trkpt>
      <trkpt lat="38.245734" lon="-1.691837">
        <ele>262.0</ele>
        <time>2023-04-16T06:57:58Z</time>
      </trkpt>
      <trkpt lat="38.245706" lon="-1.691752">
        <ele>263.0</ele>
        <time>2023-04-16T06:58:03Z</time>
      </trkpt>
      <trkpt lat="38.245695" lon="-1.691666">
        <ele>265.0</ele>
        <time>2023-04-16T06:58:08Z</time>
      </trkpt>
      <trkpt lat="38.245671" lon="-1.691587">
        <ele>265.0</ele>
        <time>2023-04-16T06:58:12Z</time>
      </trkpt>
      <trkpt lat="38.245643" lon="-1.691505">
        <ele>264.0</ele>
        <time>2023-04-16T06:58:17Z</time>
      </trkpt>
      <trkpt lat="38.245625" lon="-1.691428">
        <ele>264.0</ele>
        <time>2023-04-16T06:58:21Z</time>
      </trkpt>
      <trkpt lat="38.245599" lon="-1.691341">
        <ele>263.0</ele>
        <time>2023-04-16T06:58:26Z</time>
      </trkpt>
      <trkpt lat="38.245578" lon="-1.691253">
        <ele>263.9</ele>
        <time>2023-04-16T06:58:31Z</time>
      </trkpt>
      <trkpt lat="38.245553" lon="-1.691166">
        <ele>262.2</ele>
        <time>2023-04-16T06:58:40Z</time>
      </trkpt>
      <trkpt lat="38.245537" lon="-1.691073">
        <ele>261.2</ele>
        <time>2023-04-16T06:58:45Z</time>
      </trkpt>
      <trkpt lat="38.245517" lon="-1.690988">
        <ele>260.8</ele>
        <time>2023-04-16T06:58:50Z</time>
      </trkpt>
      <trkpt lat="38.245512" lon="-1.690906">
        <ele>260.2</ele>
        <time>2023-04-16T06:58:54Z</time>
      </trkpt>
      <trkpt lat="38.245524" lon="-1.690820">
        <ele>259.0</ele>
        <time>2023-04-16T06:58:58Z</time>
      </trkpt>
      <trkpt lat="38.245527" lon="-1.690725">
        <ele>259.0</ele>
        <time>2023-04-16T06:59:03Z</time>
      </trkpt>
      <trkpt lat="38.245499" lon="-1.690640">
        <ele>259.9</ele>
        <time>2023-04-16T06:59:07Z</time>
      </trkpt>
      <trkpt lat="38.245485" lon="-1.690561">
        <ele>260.0</ele>
        <time>2023-04-16T06:59:11Z</time>
      </trkpt>
      <trkpt lat="38.245464" lon="-1.690483">
        <ele>260.2</ele>
        <time>2023-04-16T06:59:15Z</time>
      </trkpt>
      <trkpt lat="38.245447" lon="-1.690392">
        <ele>259.0</ele>
        <time>2023-04-16T06:59:20Z</time>
      </trkpt>
      <trkpt lat="38.245429" lon="-1.690314">
        <ele>259.0</ele>
        <time>2023-04-16T06:59:24Z</time>
      </trkpt>
      <trkpt lat="38.245407" lon="-1.690218">
        <ele>260.0</ele>
        <time>2023-04-16T06:59:29Z</time>
      </trkpt>
      <trkpt lat="38.245386" lon="-1.690141">
        <ele>260.0</ele>
        <time>2023-04-16T06:59:33Z</time>
      </trkpt>
      <trkpt lat="38.245360" lon="-1.690066">
        <ele>259.9</ele>
        <time>2023-04-16T06:59:37Z</time>
      </trkpt>
      <trkpt lat="38.245339" lon="-1.689988">
        <ele>260.0</ele>
        <time>2023-04-16T06:59:41Z</time>
      </trkpt>
      <trkpt lat="38.245318" lon="-1.689909">
        <ele>259.0</ele>
        <time>2023-04-16T06:59:45Z</time>
      </trkpt>
      <trkpt lat="38.245294" lon="-1.689834">
        <ele>260.0</ele>
        <time>2023-04-16T06:59:49Z</time>
      </trkpt>
      <trkpt lat="38.245281" lon="-1.689751">
        <ele>259.0</ele>
        <time>2023-04-16T06:59:53Z</time>
      </trkpt>
      <trkpt lat="38.245275" lon="-1.689649">
        <ele>258.9</ele>
        <time>2023-04-16T06:59:58Z</time>
      </trkpt>
      <trkpt lat="38.245275" lon="-1.689559">
        <ele>258.7</ele>
        <time>2023-04-16T07:00:02Z</time>
      </trkpt>
      <trkpt lat="38.245273" lon="-1.689478">
        <ele>259.9</ele>
        <time>2023-04-16T07:00:06Z</time>
      </trkpt>
      <trkpt lat="38.245275" lon="-1.689395">
        <ele>262.7</ele>
        <time>2023-04-16T07:00:10Z</time>
      </trkpt>
      <trkpt lat="38.245276" lon="-1.689302">
        <ele>264.7</ele>
        <time>2023-04-16T07:00:15Z</time>
      </trkpt>
      <trkpt lat="38.245275" lon="-1.689208">
        <ele>264.0</ele>
        <time>2023-04-16T07:00:30Z</time>
      </trkpt>
      <trkpt lat="38.245273" lon="-1.689119">
        <ele>264.9</ele>
        <time>2023-04-16T07:00:35Z</time>
      </trkpt>
      <trkpt lat="38.245271" lon="-1.689027">
        <ele>264.0</ele>
        <time>2023-04-16T07:00:41Z</time>
      </trkpt>
      <trkpt lat="38.245267" lon="-1.688935">
        <ele>263.0</ele>
        <time>2023-04-16T07:00:46Z</time>
      </trkpt>
      <trkpt lat="38.245278" lon="-1.688843">
        <ele>262.9</ele>
        <time>2023-04-16T07:00:51Z</time>
      </trkpt>
      <trkpt lat="38.245330" lon="-1.688777">
        <ele>262.0</ele>
        <time>2023-04-16T07:00:56Z</time>
      </trkpt>
      <trkpt lat="38.245382" lon="-1.688731">
        <ele>262.0</ele>
        <time>2023-04-16T07:01:00Z</time>
      </trkpt>
      <trkpt lat="38.245438" lon="-1.688690">
        <ele>261.2</ele>
        <time>2023-04-16T07:01:04Z</time>
      </trkpt>
      <trkpt lat="38.245494" lon="-1.688631">
        <ele>261.7</ele>
        <time>2023-04-16T07:01:08Z</time>
      </trkpt>
      <trkpt lat="38.245547" lon="-1.688577">
        <ele>261.2</ele>
        <time>2023-04-16T07:01:13Z</time>
      </trkpt>
      <trkpt lat="38.245607" lon="-1.688520">
        <ele>262.0</ele>
        <time>2023-04-16T07:01:18Z</time>
      </trkpt>
      <trkpt lat="38.245657" lon="-1.688449">
        <ele>264.0</ele>
        <time>2023-04-16T07:01:23Z</time>
      </trkpt>
      <trkpt lat="38.245701" lon="-1.688373">
        <ele>265.0</ele>
        <time>2023-04-16T07:01:28Z</time>
      </trkpt>
      <trkpt lat="38.245741" lon="-1.688311">
        <ele>265.0</ele>
        <time>2023-04-16T07:01:32Z</time>
      </trkpt>
      <trkpt lat="38.245788" lon="-1.688235">
        <ele>265.0</ele>
        <time>2023-04-16T07:01:37Z</time>
      </trkpt>
      <trkpt lat="38.245828" lon="-1.688159">
        <ele>265.0</ele>
        <time>2023-04-16T07:01:42Z</time>
      </trkpt>
      <trkpt lat="38.245888" lon="-1.688115">
        <ele>264.7</ele>
        <time>2023-04-16T07:01:47Z</time>
      </trkpt>
      <trkpt lat="38.245955" lon="-1.688075">
        <ele>264.0</ele>
        <time>2023-04-16T07:01:52Z</time>
      </trkpt>
      <trkpt lat="38.246017" lon="-1.688042">
        <ele>264.9</ele>
        <time>2023-04-16T07:01:56Z</time>
      </trkpt>
      <trkpt lat="38.246080" lon="-1.688010">
        <ele>265.0</ele>
        <time>2023-04-16T07:02:01Z</time>
      </trkpt>
      <trkpt lat="38.246151" lon="-1.687998">
        <ele>264.7</ele>
        <time>2023-04-16T07:02:09Z</time>
      </trkpt>
      <trkpt lat="38.246215" lon="-1.687981">
        <ele>265.0</ele>
        <time>2023-04-16T07:02:14Z</time>
      </trkpt>
      <trkpt lat="38.246277" lon="-1.687965">
        <ele>267.0</ele>
        <time>2023-04-16T07:02:18Z</time>
      </trkpt>
      <trkpt lat="38.246342" lon="-1.687949">
        <ele>267.0</ele>
        <time>2023-04-16T07:02:22Z</time>
      </trkpt>
      <trkpt lat="38.246407" lon="-1.687938">
        <ele>267.0</ele>
        <time>2023-04-16T07:02:26Z</time>
      </trkpt>
      <trkpt lat="38.246481" lon="-1.687934">
        <ele>265.0</ele>
        <time>2023-04-16T07:02:31Z</time>
      </trkpt>
      <trkpt lat="38.246554" lon="-1.687913">
        <ele>265.0</ele>
        <time>2023-04-16T07:02:36Z</time>
      </trkpt>
      <trkpt lat="38.246619" lon="-1.687889">
        <ele>264.2</ele>
        <time>2023-04-16T07:02:40Z</time>
      </trkpt>
      <trkpt lat="38.246685" lon="-1.687871">
        <ele>264.0</ele>
        <time>2023-04-16T07:02:45Z</time>
      </trkpt>
      <trkpt lat="38.246756" lon="-1.687854">
        <ele>263.0</ele>
        <time>2023-04-16T07:02:50Z</time>
      </trkpt>
      <trkpt lat="38.246827" lon="-1.687850">
        <ele>263.0</ele>
        <time>2023-04-16T07:02:55Z</time>
      </trkpt>
      <trkpt lat="38.246899" lon="-1.687846">
        <ele>262.0</ele>
        <time>2023-04-16T07:03:00Z</time>
      </trkpt>
      <trkpt lat="38.246971" lon="-1.687866">
        <ele>262.8</ele>
        <time>2023-04-16T07:03:05Z</time>
      </trkpt>
      <trkpt lat="38.247035" lon="-1.687890">
        <ele>263.0</ele>
        <time>2023-04-16T07:03:09Z</time>
      </trkpt>
      <trkpt lat="38.247100" lon="-1.687926">
        <ele>262.7</ele>
        <time>2023-04-16T07:03:13Z</time>
      </trkpt>
      <trkpt lat="38.247159" lon="-1.687958">
        <ele>262.0</ele>
        <time>2023-04-16T07:03:17Z</time>
      </trkpt>
      <trkpt lat="38.247221" lon="-1.687989">
        <ele>262.9</ele>
        <time>2023-04-16T07:03:21Z</time>
      </trkpt>
      <trkpt lat="38.247295" lon="-1.688020">
        <ele>263.8</ele>
        <time>2023-04-16T07:03:26Z</time>
      </trkpt>
      <trkpt lat="38.247367" lon="-1.688037">
        <ele>263.0</ele>
        <time>2023-04-16T07:03:31Z</time>
      </trkpt>
      <trkpt lat="38.247443" lon="-1.688047">
        <ele>263.0</ele>
        <time>2023-04-16T07:03:36Z</time>
      </trkpt>
      <trkpt lat="38.247519" lon="-1.688054">
        <ele>263.0</ele>
        <time>2023-04-16T07:03:41Z</time>
      </trkpt>
      <trkpt lat="38.247595" lon="-1.688063">
        <ele>264.0</ele>
        <time>2023-04-16T07:03:46Z</time>
      </trkpt>
      <trkpt lat="38.247658" lon="-1.688069">
        <ele>263.0</ele>
        <time>2023-04-16T07:03:50Z</time>
      </trkpt>
      <trkpt lat="38.247732" lon="-1.688086">
        <ele>262.0</ele>
        <time>2023-04-16T07:03:55Z</time>
      </trkpt>
      <trkpt lat="38.247801" lon="-1.688130">
        <ele>263.0</ele>
        <time>2023-04-16T07:04:00Z</time>
      </trkpt>
      <trkpt lat="38.247869" lon="-1.688173">
        <ele>265.7</ele>
        <time>2023-04-16T07:04:05Z</time>
      </trkpt>
      <trkpt lat="38.247923" lon="-1.688230">
        <ele>265.0</ele>
        <time>2023-04-16T07:04:09Z</time>
      </trkpt>
      <trkpt lat="38.247985" lon="-1.688285">
        <ele>265.7</ele>
        <time>2023-04-16T07:04:14Z</time>
      </trkpt>
      <trkpt lat="38.248055" lon="-1.688322">
        <ele>265.0</ele>
        <time>2023-04-16T07:04:19Z</time>
      </trkpt>
      <trkpt lat="38.248116" lon="-1.688367">
        <ele>266.0</ele>
        <time>2023-04-16T07:04:24Z</time>
      </trkpt>
      <trkpt lat="38.248178" lon="-1.688420">
        <ele>266.0</ele>
        <time>2023-04-16T07:04:29Z</time>
      </trkpt>
      <trkpt lat="38.248239" lon="-1.688471">
        <ele>265.0</ele>
        <time>2023-04-16T07:04:34Z</time>
      </trkpt>
      <trkpt lat="38.248290" lon="-1.688537">
        <ele>265.9</ele>
        <time>2023-04-16T07:04:39Z</time>
      </trkpt>
      <trkpt lat="38.248327" lon="-1.688603">
        <ele>265.0</ele>
        <time>2023-04-16T07:04:44Z</time>
      </trkpt>
      <trkpt lat="38.248398" lon="-1.688588">
        <ele>266.0</ele>
        <time>2023-04-16T07:04:50Z</time>
      </trkpt>
      <trkpt lat="38.248457" lon="-1.688550">
        <ele>266.0</ele>
        <time>2023-04-16T07:04:55Z</time>
      </trkpt>
      <trkpt lat="38.248519" lon="-1.688527">
        <ele>266.7</ele>
        <time>2023-04-16T07:05:02Z</time>
      </trkpt>
      <trkpt lat="38.248578" lon="-1.688494">
        <ele>267.0</ele>
        <time>2023-04-16T07:05:06Z</time>
      </trkpt>
      <trkpt lat="38.248642" lon="-1.688499">
        <ele>266.0</ele>
        <time>2023-04-16T07:05:12Z</time>
      </trkpt>
      <trkpt lat="38.248702" lon="-1.688534">
        <ele>265.0</ele>
        <time>2023-04-16T07:05:17Z</time>
      </trkpt>
      <trkpt lat="38.248764" lon="-1.688575">
        <ele>263.2</ele>
        <time>2023-04-16T07:05:23Z</time>
      </trkpt>
      <trkpt lat="38.248832" lon="-1.688556">
        <ele>262.0</ele>
        <time>2023-04-16T07:05:28Z</time>
      </trkpt>
      <trkpt lat="38.248897" lon="-1.688534">
        <ele>261.0</ele>
        <time>2023-04-16T07:05:32Z</time>
      </trkpt>
      <trkpt lat="38.248965" lon="-1.688518">
        <ele>262.0</ele>
        <time>2023-04-16T07:05:38Z</time>
      </trkpt>
      <trkpt lat="38.249024" lon="-1.688489">
        <ele>264.9</ele>
        <time>2023-04-16T07:05:50Z</time>
      </trkpt>
      <trkpt lat="38.249037" lon="-1.688409">
        <ele>267.0</ele>
        <time>2023-04-16T07:06:02Z</time>
      </trkpt>
      <trkpt lat="38.248999" lon="-1.688326">
        <ele>268.7</ele>
        <time>2023-04-16T07:06:08Z</time>
      </trkpt>
      <trkpt lat="38.248974" lon="-1.688245">
        <ele>269.9</ele>
        <time>2023-04-16T07:06:13Z</time>
      </trkpt>
      <trkpt lat="38.248964" lon="-1.688154">
        <ele>269.3</ele>
        <time>2023-04-16T07:06:19Z</time>
      </trkpt>
      <trkpt lat="38.248981" lon="-1.688068">
        <ele>267.2</ele>
        <time>2023-04-16T07:06:26Z</time>
      </trkpt>
      <trkpt lat="38.249006" lon="-1.687990">
        <ele>267.0</ele>
        <time>2023-04-16T07:06:31Z</time>
      </trkpt>
      <trkpt lat="38.249039" lon="-1.687917">
        <ele>267.0</ele>
        <time>2023-04-16T07:06:36Z</time>
      </trkpt>
      <trkpt lat="38.249073" lon="-1.687830">
        <ele>266.8</ele>
        <time>2023-04-16T07:06:42Z</time>
      </trkpt>
      <trkpt lat="38.249104" lon="-1.687758">
        <ele>266.2</ele>
        <time>2023-04-16T07:06:47Z</time>
      </trkpt>
      <trkpt lat="38.249132" lon="-1.687674">
        <ele>266.9</ele>
        <time>2023-04-16T07:06:53Z</time>
      </trkpt>
      <trkpt lat="38.249157" lon="-1.687592">
        <ele>266.0</ele>
        <time>2023-04-16T07:06:58Z</time>
      </trkpt>
      <trkpt lat="38.249183" lon="-1.687504">
        <ele>265.0</ele>
        <time>2023-04-16T07:07:03Z</time>
      </trkpt>
      <trkpt lat="38.249206" lon="-1.687421">
        <ele>265.0</ele>
        <time>2023-04-16T07:07:09Z</time>
      </trkpt>
      <trkpt lat="38.249242" lon="-1.687355">
        <ele>264.0</ele>
        <time>2023-04-16T07:07:14Z</time>
      </trkpt>
      <trkpt lat="38.249304" lon="-1.687337">
        <ele>265.7</ele>
        <time>2023-04-16T07:07:19Z</time>
      </trkpt>
      <trkpt lat="38.249372" lon="-1.687326">
        <ele>266.9</ele>
        <time>2023-04-16T07:07:24Z</time>
      </trkpt>
      <trkpt lat="38.249437" lon="-1.687309">
        <ele>267.0</ele>
        <time>2023-04-16T07:07:30Z</time>
      </trkpt>
      <trkpt lat="38.249503" lon="-1.687269">
        <ele>267.7</ele>
        <time>2023-04-16T07:07:44Z</time>
      </trkpt>
      <trkpt lat="38.249513" lon="-1.687182">
        <ele>266.8</ele>
        <time>2023-04-16T07:07:56Z</time>
      </trkpt>
      <trkpt lat="38.249520" lon="-1.687100">
        <ele>268.9</ele>
        <time>2023-04-16T07:08:02Z</time>
      </trkpt>
      <trkpt lat="38.249542" lon="-1.687015">
        <ele>269.0</ele>
        <time>2023-04-16T07:08:08Z</time>
      </trkpt>
      <trkpt lat="38.249535" lon="-1.686921">
        <ele>269.9</ele>
        <time>2023-04-16T07:08:14Z</time>
      </trkpt>
      <trkpt lat="38.249518" lon="-1.686829">
        <ele>269.0</ele>
        <time>2023-04-16T07:08:20Z</time>
      </trkpt>
      <trkpt lat="38.249512" lon="-1.686737">
        <ele>270.0</ele>
        <time>2023-04-16T07:08:26Z</time>
      </trkpt>
      <trkpt lat="38.249532" lon="-1.686647">
        <ele>269.0</ele>
        <time>2023-04-16T07:08:31Z</time>
      </trkpt>
      <trkpt lat="38.249495" lon="-1.686580">
        <ele>269.7</ele>
        <time>2023-04-16T07:08:40Z</time>
      </trkpt>
      <trkpt lat="38.249468" lon="-1.686494">
        <ele>269.9</ele>
        <time>2023-04-16T07:08:50Z</time>
      </trkpt>
      <trkpt lat="38.249437" lon="-1.686415">
        <ele>268.1</ele>
        <time>2023-04-16T07:08:55Z</time>
      </trkpt>
      <trkpt lat="38.249415" lon="-1.686338">
        <ele>267.0</ele>
        <time>2023-04-16T07:09:00Z</time>
      </trkpt>
      <trkpt lat="38.249386" lon="-1.686261">
        <ele>267.0</ele>
        <time>2023-04-16T07:09:05Z</time>
      </trkpt>
      <trkpt lat="38.249359" lon="-1.686187">
        <ele>267.7</ele>
        <time>2023-04-16T07:09:10Z</time>
      </trkpt>
      <trkpt lat="38.249328" lon="-1.686110">
        <ele>269.0</ele>
        <time>2023-04-16T07:09:15Z</time>
      </trkpt>
      <trkpt lat="38.249300" lon="-1.686021">
        <ele>268.0</ele>
        <time>2023-04-16T07:09:21Z</time>
      </trkpt>
      <trkpt lat="38.249291" lon="-1.685930">
        <ele>269.0</ele>
        <time>2023-04-16T07:09:27Z</time>
      </trkpt>
      <trkpt lat="38.249337" lon="-1.685868">
        <ele>269.7</ele>
        <time>2023-04-16T07:09:34Z</time>
      </trkpt>
      <trkpt lat="38.249392" lon="-1.685807">
        <ele>274.0</ele>
        <time>2023-04-16T07:10:03Z</time>
      </trkpt>
      <trkpt lat="38.249427" lon="-1.685737">
        <ele>275.7</ele>
        <time>2023-04-16T07:10:13Z</time>
      </trkpt>
      <trkpt lat="38.249399" lon="-1.685650">
        <ele>276.0</ele>
        <time>2023-04-16T07:10:20Z</time>
      </trkpt>
      <trkpt lat="38.249386" lon="-1.685563">
        <ele>276.0</ele>
        <time>2023-04-16T07:10:26Z</time>
      </trkpt>
      <trkpt lat="38.249385" lon="-1.685471">
        <ele>274.9</ele>
        <time>2023-04-16T07:10:32Z</time>
      </trkpt>
      <trkpt lat="38.249385" lon="-1.685388">
        <ele>276.0</ele>
        <time>2023-04-16T07:10:37Z</time>
      </trkpt>
      <trkpt lat="38.249393" lon="-1.685304">
        <ele>276.2</ele>
        <time>2023-04-16T07:10:42Z</time>
      </trkpt>
      <trkpt lat="38.249410" lon="-1.685213">
        <ele>276.0</ele>
        <time>2023-04-16T07:10:48Z</time>
      </trkpt>
      <trkpt lat="38.249428" lon="-1.685134">
        <ele>277.0</ele>
        <time>2023-04-16T07:10:53Z</time>
      </trkpt>
      <trkpt lat="38.249433" lon="-1.685044">
        <ele>279.0</ele>
        <time>2023-04-16T07:10:59Z</time>
      </trkpt>
      <trkpt lat="38.249444" lon="-1.684954">
        <ele>278.9</ele>
        <time>2023-04-16T07:11:06Z</time>
      </trkpt>
      <trkpt lat="38.249443" lon="-1.684874">
        <ele>280.0</ele>
        <time>2023-04-16T07:11:12Z</time>
      </trkpt>
      <trkpt lat="38.249442" lon="-1.684793">
        <ele>281.0</ele>
        <time>2023-04-16T07:11:18Z</time>
      </trkpt>
      <trkpt lat="38.249435" lon="-1.684705">
        <ele>281.7</ele>
        <time>2023-04-16T07:11:24Z</time>
      </trkpt>
      <trkpt lat="38.249426" lon="-1.684621">
        <ele>282.0</ele>
        <time>2023-04-16T07:11:29Z</time>
      </trkpt>
      <trkpt lat="38.249423" lon="-1.684535">
        <ele>282.2</ele>
        <time>2023-04-16T07:11:34Z</time>
      </trkpt>
      <trkpt lat="38.249422" lon="-1.684443">
        <ele>282.0</ele>
        <time>2023-04-16T07:11:39Z</time>
      </trkpt>
      <trkpt lat="38.249422" lon="-1.684357">
        <ele>283.0</ele>
        <time>2023-04-16T07:11:44Z</time>
      </trkpt>
      <trkpt lat="38.249411" lon="-1.684277">
        <ele>283.0</ele>
        <time>2023-04-16T07:11:49Z</time>
      </trkpt>
      <trkpt lat="38.249405" lon="-1.684189">
        <ele>284.0</ele>
        <time>2023-04-16T07:11:54Z</time>
      </trkpt>
      <trkpt lat="38.249405" lon="-1.684101">
        <ele>284.0</ele>
        <time>2023-04-16T07:11:59Z</time>
      </trkpt>
      <trkpt lat="38.249402" lon="-1.684014">
        <ele>285.0</ele>
        <time>2023-04-16T07:12:04Z</time>
      </trkpt>
      <trkpt lat="38.249401" lon="-1.683922">
        <ele>285.0</ele>
        <time>2023-04-16T07:12:09Z</time>
      </trkpt>
      <trkpt lat="38.249383" lon="-1.683862">
        <ele>285.0</ele>
        <time>2023-04-16T07:12:16Z</time>
      </trkpt>
      <trkpt lat="38.249366" lon="-1.683778">
        <ele>286.0</ele>
        <time>2023-04-16T07:12:37Z</time>
      </trkpt>
      <trkpt lat="38.249353" lon="-1.683752">
        <ele>285.7</ele>
        <time>2023-04-16T07:12:55Z</time>
      </trkpt>
      <trkpt lat="38.249350" lon="-1.683726">
        <ele>284.2</ele>
        <time>2023-04-16T07:13:00Z</time>
      </trkpt>
      <trkpt lat="38.249353" lon="-1.683655">
        <ele>284.0</ele>
        <time>2023-04-16T07:13:05Z</time>
      </trkpt>
      <trkpt lat="38.249342" lon="-1.683574">
        <ele>283.0</ele>
        <time>2023-04-16T07:13:12Z</time>
      </trkpt>
      <trkpt lat="38.249341" lon="-1.683549">
        <ele>284.0</ele>
        <time>2023-04-16T07:13:21Z</time>
      </trkpt>
      <trkpt lat="38.249339" lon="-1.683515">
        <ele>284.0</ele>
        <time>2023-04-16T07:13:41Z</time>
      </trkpt>
      <trkpt lat="38.249342" lon="-1.683472">
        <ele>284.0</ele>
        <time>2023-04-16T07:13:47Z</time>
      </trkpt>
      <trkpt lat="38.249329" lon="-1.683384">
        <ele>284.9</ele>
        <time>2023-04-16T07:13:52Z</time>
      </trkpt>
      <trkpt lat="38.249310" lon="-1.683294">
        <ele>283.0</ele>
        <time>2023-04-16T07:14:00Z</time>
      </trkpt>
      <trkpt lat="38.249314" lon="-1.683207">
        <ele>281.3</ele>
        <time>2023-04-16T07:14:05Z</time>
      </trkpt>
      <trkpt lat="38.249286" lon="-1.683121">
        <ele>278.3</ele>
        <time>2023-04-16T07:14:11Z</time>
      </trkpt>
      <trkpt lat="38.249273" lon="-1.683032">
        <ele>275.3</ele>
        <time>2023-04-16T07:14:16Z</time>
      </trkpt>
      <trkpt lat="38.249253" lon="-1.682939">
        <ele>273.2</ele>
        <time>2023-04-16T07:14:21Z</time>
      </trkpt>
      <trkpt lat="38.249223" lon="-1.682868">
        <ele>271.3</ele>
        <time>2023-04-16T07:14:26Z</time>
      </trkpt>
      <trkpt lat="38.249195" lon="-1.682787">
        <ele>271.0</ele>
        <time>2023-04-16T07:14:31Z</time>
      </trkpt>
      <trkpt lat="38.249161" lon="-1.682704">
        <ele>271.0</ele>
        <time>2023-04-16T07:14:36Z</time>
      </trkpt>
      <trkpt lat="38.249155" lon="-1.682622">
        <ele>271.2</ele>
        <time>2023-04-16T07:14:40Z</time>
      </trkpt>
      <trkpt lat="38.249158" lon="-1.682540">
        <ele>271.9</ele>
        <time>2023-04-16T07:14:44Z</time>
      </trkpt>
      <trkpt lat="38.249165" lon="-1.682458">
        <ele>271.2</ele>
        <time>2023-04-16T07:14:48Z</time>
      </trkpt>
      <trkpt lat="38.249165" lon="-1.682365">
        <ele>271.0</ele>
        <time>2023-04-16T07:14:52Z</time>
      </trkpt>
      <trkpt lat="38.249168" lon="-1.682283">
        <ele>270.9</ele>
        <time>2023-04-16T07:14:56Z</time>
      </trkpt>
      <trkpt lat="38.249158" lon="-1.682193">
        <ele>271.7</ele>
        <time>2023-04-16T07:15:01Z</time>
      </trkpt>
      <trkpt lat="38.249149" lon="-1.682105">
        <ele>273.0</ele>
        <time>2023-04-16T07:15:06Z</time>
      </trkpt>
      <trkpt lat="38.249143" lon="-1.682011">
        <ele>273.0</ele>
        <time>2023-04-16T07:15:11Z</time>
      </trkpt>
      <trkpt lat="38.249129" lon="-1.681914">
        <ele>273.0</ele>
        <time>2023-04-16T07:15:16Z</time>
      </trkpt>
      <trkpt lat="38.249107" lon="-1.681831">
        <ele>273.9</ele>
        <time>2023-04-16T07:15:21Z</time>
      </trkpt>
      <trkpt lat="38.249073" lon="-1.681762">
        <ele>274.0</ele>
        <time>2023-04-16T07:15:25Z</time>
      </trkpt>
      <trkpt lat="38.249046" lon="-1.681689">
        <ele>276.7</ele>
        <time>2023-04-16T07:15:31Z</time>
      </trkpt>
      <trkpt lat="38.249020" lon="-1.681613">
        <ele>277.7</ele>
        <time>2023-04-16T07:15:37Z</time>
      </trkpt>
      <trkpt lat="38.249026" lon="-1.681528">
        <ele>278.0</ele>
        <time>2023-04-16T07:15:42Z</time>
      </trkpt>
      <trkpt lat="38.249022" lon="-1.681440">
        <ele>276.2</ele>
        <time>2023-04-16T07:15:47Z</time>
      </trkpt>
      <trkpt lat="38.249034" lon="-1.681361">
        <ele>275.1</ele>
        <time>2023-04-16T07:15:51Z</time>
      </trkpt>
      <trkpt lat="38.249038" lon="-1.681276">
        <ele>273.1</ele>
        <time>2023-04-16T07:15:56Z</time>
      </trkpt>
      <trkpt lat="38.249063" lon="-1.681191">
        <ele>273.0</ele>
        <time>2023-04-16T07:16:01Z</time>
      </trkpt>
      <trkpt lat="38.249070" lon="-1.681107">
        <ele>272.8</ele>
        <time>2023-04-16T07:16:06Z</time>
      </trkpt>
      <trkpt lat="38.249034" lon="-1.681032">
        <ele>271.1</ele>
        <time>2023-04-16T07:16:11Z</time>
      </trkpt>
      <trkpt lat="38.248963" lon="-1.681001">
        <ele>270.0</ele>
        <time>2023-04-16T07:16:16Z</time>
      </trkpt>
      <trkpt lat="38.248887" lon="-1.681000">
        <ele>269.2</ele>
        <time>2023-04-16T07:16:21Z</time>
      </trkpt>
      <trkpt lat="38.248825" lon="-1.680979">
        <ele>270.0</ele>
        <time>2023-04-16T07:16:26Z</time>
      </trkpt>
      <trkpt lat="38.248762" lon="-1.680958">
        <ele>271.0</ele>
        <time>2023-04-16T07:16:32Z</time>
      </trkpt>
      <trkpt lat="38.248699" lon="-1.680946">
        <ele>270.3</ele>
        <time>2023-04-16T07:16:41Z</time>
      </trkpt>
      <trkpt lat="38.248729" lon="-1.680875">
        <ele>270.8</ele>
        <time>2023-04-16T07:16:49Z</time>
      </trkpt>
      <trkpt lat="38.248756" lon="-1.680787">
        <ele>271.0</ele>
        <time>2023-04-16T07:16:55Z</time>
      </trkpt>
      <trkpt lat="38.248773" lon="-1.680707">
        <ele>270.9</ele>
        <time>2023-04-16T07:17:00Z</time>
      </trkpt>
      <trkpt lat="38.248788" lon="-1.680623">
        <ele>270.0</ele>
        <time>2023-04-16T07:17:05Z</time>
      </trkpt>
      <trkpt lat="38.248796" lon="-1.680539">
        <ele>269.0</ele>
        <time>2023-04-16T07:17:10Z</time>
      </trkpt>
      <trkpt lat="38.248805" lon="-1.680451">
        <ele>268.0</ele>
        <time>2023-04-16T07:17:15Z</time>
      </trkpt>
      <trkpt lat="38.248818" lon="-1.680363">
        <ele>268.9</ele>
        <time>2023-04-16T07:17:20Z</time>
      </trkpt>
      <trkpt lat="38.248827" lon="-1.680276">
        <ele>269.0</ele>
        <time>2023-04-16T07:17:25Z</time>
      </trkpt>
      <trkpt lat="38.248835" lon="-1.680184">
        <ele>269.0</ele>
        <time>2023-04-16T07:17:30Z</time>
      </trkpt>
      <trkpt lat="38.248843" lon="-1.680105">
        <ele>269.0</ele>
        <time>2023-04-16T07:17:35Z</time>
      </trkpt>
      <trkpt lat="38.248847" lon="-1.680024">
        <ele>268.0</ele>
        <time>2023-04-16T07:17:39Z</time>
      </trkpt>
      <trkpt lat="38.248859" lon="-1.679938">
        <ele>267.0</ele>
        <time>2023-04-16T07:17:44Z</time>
      </trkpt>
      <trkpt lat="38.248862" lon="-1.679855">
        <ele>266.9</ele>
        <time>2023-04-16T07:17:49Z</time>
      </trkpt>
      <trkpt lat="38.248881" lon="-1.679769">
        <ele>267.0</ele>
        <time>2023-04-16T07:17:54Z</time>
      </trkpt>
      <trkpt lat="38.248896" lon="-1.679677">
        <ele>267.0</ele>
        <time>2023-04-16T07:17:59Z</time>
      </trkpt>
      <trkpt lat="38.248913" lon="-1.679588">
        <ele>267.0</ele>
        <time>2023-04-16T07:18:04Z</time>
      </trkpt>
      <trkpt lat="38.248920" lon="-1.679498">
        <ele>267.0</ele>
        <time>2023-04-16T07:18:09Z</time>
      </trkpt>
      <trkpt lat="38.248932" lon="-1.679407">
        <ele>269.0</ele>
        <time>2023-04-16T07:18:14Z</time>
      </trkpt>
      <trkpt lat="38.248943" lon="-1.679316">
        <ele>268.0</ele>
        <time>2023-04-16T07:18:19Z</time>
      </trkpt>
      <trkpt lat="38.248962" lon="-1.679224">
        <ele>268.0</ele>
        <time>2023-04-16T07:18:24Z</time>
      </trkpt>
      <trkpt lat="38.248984" lon="-1.679134">
        <ele>269.0</ele>
        <time>2023-04-16T07:18:29Z</time>
      </trkpt>
      <trkpt lat="38.249001" lon="-1.679051">
        <ele>270.0</ele>
        <time>2023-04-16T07:18:34Z</time>
      </trkpt>
      <trkpt lat="38.249030" lon="-1.678974">
        <ele>269.1</ele>
        <time>2023-04-16T07:18:38Z</time>
      </trkpt>
      <trkpt lat="38.249057" lon="-1.678893">
        <ele>269.0</ele>
        <time>2023-04-16T07:18:43Z</time>
      </trkpt>
      <trkpt lat="38.249107" lon="-1.678823">
        <ele>270.0</ele>
        <time>2023-04-16T07:18:48Z</time>
      </trkpt>
      <trkpt lat="38.249162" lon="-1.678779">
        <ele>269.0</ele>
        <time>2023-04-16T07:18:53Z</time>
      </trkpt>
      <trkpt lat="38.249219" lon="-1.678724">
        <ele>269.0</ele>
        <time>2023-04-16T07:18:58Z</time>
      </trkpt>
      <trkpt lat="38.249285" lon="-1.678692">
        <ele>269.0</ele>
        <time>2023-04-16T07:19:03Z</time>
      </trkpt>
      <trkpt lat="38.249349" lon="-1.678649">
        <ele>270.0</ele>
        <time>2023-04-16T07:19:08Z</time>
      </trkpt>
      <trkpt lat="38.249407" lon="-1.678589">
        <ele>269.3</ele>
        <time>2023-04-16T07:19:13Z</time>
      </trkpt>
      <trkpt lat="38.249461" lon="-1.678524">
        <ele>269.0</ele>
        <time>2023-04-16T07:19:18Z</time>
      </trkpt>
      <trkpt lat="38.249504" lon="-1.678464">
        <ele>269.0</ele>
        <time>2023-04-16T07:19:22Z</time>
      </trkpt>
      <trkpt lat="38.249551" lon="-1.678389">
        <ele>267.0</ele>
        <time>2023-04-16T07:19:27Z</time>
      </trkpt>
      <trkpt lat="38.249593" lon="-1.678308">
        <ele>266.1</ele>
        <time>2023-04-16T07:19:32Z</time>
      </trkpt>
      <trkpt lat="38.249625" lon="-1.678222">
        <ele>266.9</ele>
        <time>2023-04-16T07:19:37Z</time>
      </trkpt>
      <trkpt lat="38.249650" lon="-1.678136">
        <ele>267.0</ele>
        <time>2023-04-16T07:19:42Z</time>
      </trkpt>
      <trkpt lat="38.249668" lon="-1.678058">
        <ele>266.2</ele>
        <time>2023-04-16T07:19:46Z</time>
      </trkpt>
      <trkpt lat="38.249694" lon="-1.677979">
        <ele>266.0</ele>
        <time>2023-04-16T07:19:51Z</time>
      </trkpt>
      <trkpt lat="38.249715" lon="-1.677900">
        <ele>266.0</ele>
        <time>2023-04-16T07:19:55Z</time>
      </trkpt>
      <trkpt lat="38.249738" lon="-1.677825">
        <ele>267.0</ele>
        <time>2023-04-16T07:19:59Z</time>
      </trkpt>
      <trkpt lat="38.249765" lon="-1.677742">
        <ele>268.0</ele>
        <time>2023-04-16T07:20:04Z</time>
      </trkpt>
      <trkpt lat="38.249786" lon="-1.677665">
        <ele>268.0</ele>
        <time>2023-04-16T07:20:09Z</time>
      </trkpt>
      <trkpt lat="38.249823" lon="-1.677583">
        <ele>267.8</ele>
        <time>2023-04-16T07:20:14Z</time>
      </trkpt>
      <trkpt lat="38.249841" lon="-1.677488">
        <ele>268.0</ele>
        <time>2023-04-16T07:20:19Z</time>
      </trkpt>
      <trkpt lat="38.249853" lon="-1.677401">
        <ele>268.8</ele>
        <time>2023-04-16T07:20:24Z</time>
      </trkpt>
      <trkpt lat="38.249880" lon="-1.677310">
        <ele>269.0</ele>
        <time>2023-04-16T07:20:29Z</time>
      </trkpt>
      <trkpt lat="38.249896" lon="-1.677226">
        <ele>268.0</ele>
        <time>2023-04-16T07:20:35Z</time>
      </trkpt>
      <trkpt lat="38.249922" lon="-1.677151">
        <ele>269.0</ele>
        <time>2023-04-16T07:20:40Z</time>
      </trkpt>
      <trkpt lat="38.249959" lon="-1.677068">
        <ele>269.0</ele>
        <time>2023-04-16T07:20:46Z</time>
      </trkpt>
      <trkpt lat="38.249991" lon="-1.676991">
        <ele>267.3</ele>
        <time>2023-04-16T07:20:51Z</time>
      </trkpt>
      <trkpt lat="38.250037" lon="-1.676918">
        <ele>268.0</ele>
        <time>2023-04-16T07:20:56Z</time>
      </trkpt>
      <trkpt lat="38.250091" lon="-1.676874">
        <ele>269.8</ele>
        <time>2023-04-16T07:21:01Z</time>
      </trkpt>
      <trkpt lat="38.250118" lon="-1.676788">
        <ele>269.0</ele>
        <time>2023-04-16T07:21:10Z</time>
      </trkpt>
      <trkpt lat="38.250141" lon="-1.676695">
        <ele>268.0</ele>
        <time>2023-04-16T07:21:15Z</time>
      </trkpt>
      <trkpt lat="38.250170" lon="-1.676615">
        <ele>266.1</ele>
        <time>2023-04-16T07:21:20Z</time>
      </trkpt>
      <trkpt lat="38.250198" lon="-1.676526">
        <ele>265.0</ele>
        <time>2023-04-16T07:21:25Z</time>
      </trkpt>
      <trkpt lat="38.250233" lon="-1.676437">
        <ele>265.0</ele>
        <time>2023-04-16T07:21:30Z</time>
      </trkpt>
      <trkpt lat="38.250262" lon="-1.676364">
        <ele>265.0</ele>
        <time>2023-04-16T07:21:34Z</time>
      </trkpt>
      <trkpt lat="38.250298" lon="-1.676277">
        <ele>266.0</ele>
        <time>2023-04-16T07:21:39Z</time>
      </trkpt>
      <trkpt lat="38.250336" lon="-1.676191">
        <ele>266.9</ele>
        <time>2023-04-16T07:21:44Z</time>
      </trkpt>
      <trkpt lat="38.250376" lon="-1.676120">
        <ele>267.0</ele>
        <time>2023-04-16T07:21:48Z</time>
      </trkpt>
      <trkpt lat="38.250414" lon="-1.676049">
        <ele>267.0</ele>
        <time>2023-04-16T07:21:53Z</time>
      </trkpt>
      <trkpt lat="38.250465" lon="-1.675973">
        <ele>267.0</ele>
        <time>2023-04-16T07:21:58Z</time>
      </trkpt>
      <trkpt lat="38.250515" lon="-1.675910">
        <ele>267.0</ele>
        <time>2023-04-16T07:22:03Z</time>
      </trkpt>
      <trkpt lat="38.250569" lon="-1.675845">
        <ele>267.0</ele>
        <time>2023-04-16T07:22:08Z</time>
      </trkpt>
      <trkpt lat="38.250612" lon="-1.675785">
        <ele>267.0</ele>
        <time>2023-04-16T07:22:12Z</time>
      </trkpt>
      <trkpt lat="38.250663" lon="-1.675711">
        <ele>266.9</ele>
        <time>2023-04-16T07:22:17Z</time>
      </trkpt>
      <trkpt lat="38.250705" lon="-1.675630">
        <ele>268.0</ele>
        <time>2023-04-16T07:22:22Z</time>
      </trkpt>
      <trkpt lat="38.250732" lon="-1.675556">
        <ele>268.0</ele>
        <time>2023-04-16T07:22:26Z</time>
      </trkpt>
      <trkpt lat="38.250763" lon="-1.675469">
        <ele>268.0</ele>
        <time>2023-04-16T07:22:31Z</time>
      </trkpt>
      <trkpt lat="38.250772" lon="-1.675382">
        <ele>269.9</ele>
        <time>2023-04-16T07:22:36Z</time>
      </trkpt>
      <trkpt lat="38.250764" lon="-1.675285">
        <ele>269.1</ele>
        <time>2023-04-16T07:22:41Z</time>
      </trkpt>
      <trkpt lat="38.250782" lon="-1.675205">
        <ele>270.0</ele>
        <time>2023-04-16T07:22:46Z</time>
      </trkpt>
      <trkpt lat="38.250787" lon="-1.675109">
        <ele>269.3</ele>
        <time>2023-04-16T07:22:51Z</time>
      </trkpt>
      <trkpt lat="38.250770" lon="-1.675018">
        <ele>269.2</ele>
        <time>2023-04-16T07:22:56Z</time>
      </trkpt>
      <trkpt lat="38.250772" lon="-1.674920">
        <ele>269.3</ele>
        <time>2023-04-16T07:23:01Z</time>
      </trkpt>
      <trkpt lat="38.250776" lon="-1.674832">
        <ele>268.3</ele>
        <time>2023-04-16T07:23:06Z</time>
      </trkpt>
      <trkpt lat="38.250795" lon="-1.674748">
        <ele>268.0</ele>
        <time>2023-04-16T07:23:11Z</time>
      </trkpt>
      <trkpt lat="38.250818" lon="-1.674657">
        <ele>268.0</ele>
        <time>2023-04-16T07:23:16Z</time>
      </trkpt>
      <trkpt lat="38.250835" lon="-1.674578">
        <ele>268.0</ele>
        <time>2023-04-16T07:23:21Z</time>
      </trkpt>
      <trkpt lat="38.250850" lon="-1.674495">
        <ele>268.0</ele>
        <time>2023-04-16T07:23:26Z</time>
      </trkpt>
      <trkpt lat="38.250864" lon="-1.674402">
        <ele>268.0</ele>
        <time>2023-04-16T07:23:38Z</time>
      </trkpt>
      <trkpt lat="38.250898" lon="-1.674323">
        <ele>269.8</ele>
        <time>2023-04-16T07:23:43Z</time>
      </trkpt>
      <trkpt lat="38.250933" lon="-1.674252">
        <ele>270.0</ele>
        <time>2023-04-16T07:23:47Z</time>
      </trkpt>
      <trkpt lat="38.250982" lon="-1.674175">
        <ele>269.0</ele>
        <time>2023-04-16T07:23:52Z</time>
      </trkpt>
      <trkpt lat="38.251024" lon="-1.674115">
        <ele>268.0</ele>
        <time>2023-04-16T07:23:56Z</time>
      </trkpt>
      <trkpt lat="38.251078" lon="-1.674066">
        <ele>268.0</ele>
        <time>2023-04-16T07:24:00Z</time>
      </trkpt>
      <trkpt lat="38.251130" lon="-1.674017">
        <ele>268.0</ele>
        <time>2023-04-16T07:24:04Z</time>
      </trkpt>
      <trkpt lat="38.251180" lon="-1.673947">
        <ele>269.0</ele>
        <time>2023-04-16T07:24:09Z</time>
      </trkpt>
      <trkpt lat="38.251224" lon="-1.673870">
        <ele>269.0</ele>
        <time>2023-04-16T07:24:14Z</time>
      </trkpt>
      <trkpt lat="38.251262" lon="-1.673784">
        <ele>267.3</ele>
        <time>2023-04-16T07:24:19Z</time>
      </trkpt>
      <trkpt lat="38.251280" lon="-1.673693">
        <ele>266.0</ele>
        <time>2023-04-16T07:24:26Z</time>
      </trkpt>
      <trkpt lat="38.251290" lon="-1.673612">
        <ele>264.3</ele>
        <time>2023-04-16T07:24:31Z</time>
      </trkpt>
      <trkpt lat="38.251278" lon="-1.673529">
        <ele>264.0</ele>
        <time>2023-04-16T07:24:35Z</time>
      </trkpt>
      <trkpt lat="38.251274" lon="-1.673446">
        <ele>264.0</ele>
        <time>2023-04-16T07:24:39Z</time>
      </trkpt>
      <trkpt lat="38.251280" lon="-1.673351">
        <ele>264.8</ele>
        <time>2023-04-16T07:24:44Z</time>
      </trkpt>
      <trkpt lat="38.251285" lon="-1.673268">
        <ele>266.9</ele>
        <time>2023-04-16T07:24:48Z</time>
      </trkpt>
      <trkpt lat="38.251302" lon="-1.673180">
        <ele>268.1</ele>
        <time>2023-04-16T07:24:56Z</time>
      </trkpt>
      <trkpt lat="38.251325" lon="-1.673104">
        <ele>269.0</ele>
        <time>2023-04-16T07:25:01Z</time>
      </trkpt>
      <trkpt lat="38.251339" lon="-1.673026">
        <ele>267.3</ele>
        <time>2023-04-16T07:25:08Z</time>
      </trkpt>
      <trkpt lat="38.251368" lon="-1.672943">
        <ele>266.1</ele>
        <time>2023-04-16T07:25:13Z</time>
      </trkpt>
      <trkpt lat="38.251397" lon="-1.672871">
        <ele>266.0</ele>
        <time>2023-04-16T07:25:17Z</time>
      </trkpt>
      <trkpt lat="38.251431" lon="-1.672794">
        <ele>266.0</ele>
        <time>2023-04-16T07:25:21Z</time>
      </trkpt>
      <trkpt lat="38.251467" lon="-1.672711">
        <ele>265.0</ele>
        <time>2023-04-16T07:25:26Z</time>
      </trkpt>
      <trkpt lat="38.251478" lon="-1.672619">
        <ele>265.8</ele>
        <time>2023-04-16T07:25:31Z</time>
      </trkpt>
      <trkpt lat="38.251486" lon="-1.672522">
        <ele>265.8</ele>
        <time>2023-04-16T07:25:36Z</time>
      </trkpt>
      <trkpt lat="38.251488" lon="-1.672436">
        <ele>266.0</ele>
        <time>2023-04-16T07:25:40Z</time>
      </trkpt>
      <trkpt lat="38.251495" lon="-1.672346">
        <ele>266.0</ele>
        <time>2023-04-16T07:25:45Z</time>
      </trkpt>
      <trkpt lat="38.251495" lon="-1.672261">
        <ele>266.0</ele>
        <time>2023-04-16T07:25:50Z</time>
      </trkpt>
      <trkpt lat="38.251494" lon="-1.672179">
        <ele>265.8</ele>
        <time>2023-04-16T07:25:54Z</time>
      </trkpt>
      <trkpt lat="38.251493" lon="-1.672088">
        <ele>267.0</ele>
        <time>2023-04-16T07:25:59Z</time>
      </trkpt>
      <trkpt lat="38.251474" lon="-1.672011">
        <ele>266.0</ele>
        <time>2023-04-16T07:26:14Z</time>
      </trkpt>
      <trkpt lat="38.251462" lon="-1.671930">
        <ele>263.3</ele>
        <time>2023-04-16T07:26:21Z</time>
      </trkpt>
      <trkpt lat="38.251442" lon="-1.671845">
        <ele>263.3</ele>
        <time>2023-04-16T07:26:25Z</time>
      </trkpt>
      <trkpt lat="38.251417" lon="-1.671771">
        <ele>262.1</ele>
        <time>2023-04-16T07:26:29Z</time>
      </trkpt>
      <trkpt lat="38.251393" lon="-1.671676">
        <ele>263.0</ele>
        <time>2023-04-16T07:26:34Z</time>
      </trkpt>
      <trkpt lat="38.251371" lon="-1.671584">
        <ele>265.0</ele>
        <time>2023-04-16T07:26:39Z</time>
      </trkpt>
      <trkpt lat="38.251356" lon="-1.671502">
        <ele>265.8</ele>
        <time>2023-04-16T07:26:43Z</time>
      </trkpt>
      <trkpt lat="38.251336" lon="-1.671421">
        <ele>266.0</ele>
        <time>2023-04-16T07:26:47Z</time>
      </trkpt>
      <trkpt lat="38.251314" lon="-1.671332">
        <ele>267.2</ele>
        <time>2023-04-16T07:26:52Z</time>
      </trkpt>
      <trkpt lat="38.251301" lon="-1.671251">
        <ele>267.3</ele>
        <time>2023-04-16T07:26:56Z</time>
      </trkpt>
      <trkpt lat="38.251282" lon="-1.671164">
        <ele>267.0</ele>
        <time>2023-04-16T07:27:01Z</time>
      </trkpt>
      <trkpt lat="38.251264" lon="-1.671077">
        <ele>267.0</ele>
        <time>2023-04-16T07:27:06Z</time>
      </trkpt>
      <trkpt lat="38.251254" lon="-1.670996">
        <ele>267.0</ele>
        <time>2023-04-16T07:27:10Z</time>
      </trkpt>
      <trkpt lat="38.251238" lon="-1.670911">
        <ele>266.2</ele>
        <time>2023-04-16T07:27:15Z</time>
      </trkpt>
      <trkpt lat="38.251221" lon="-1.670823">
        <ele>268.0</ele>
        <time>2023-04-16T07:27:20Z</time>
      </trkpt>
      <trkpt lat="38.251202" lon="-1.670742">
        <ele>267.0</ele>
        <time>2023-04-16T07:27:24Z</time>
      </trkpt>
      <trkpt lat="38.251187" lon="-1.670650">
        <ele>267.8</ele>
        <time>2023-04-16T07:27:29Z</time>
      </trkpt>
      <trkpt lat="38.251183" lon="-1.670561">
        <ele>268.0</ele>
        <time>2023-04-16T07:27:34Z</time>
      </trkpt>
      <trkpt lat="38.251176" lon="-1.670464">
        <ele>269.0</ele>
        <time>2023-04-16T07:27:39Z</time>
      </trkpt>
      <trkpt lat="38.251164" lon="-1.670381">
        <ele>269.0</ele>
        <time>2023-04-16T07:27:43Z</time>
      </trkpt>
      <trkpt lat="38.251145" lon="-1.670304">
        <ele>268.2</ele>
        <time>2023-04-16T07:27:47Z</time>
      </trkpt>
      <trkpt lat="38.251117" lon="-1.670221">
        <ele>268.0</ele>
        <time>2023-04-16T07:27:52Z</time>
      </trkpt>
      <trkpt lat="38.251074" lon="-1.670145">
        <ele>269.0</ele>
        <time>2023-04-16T07:27:57Z</time>
      </trkpt>
      <trkpt lat="38.251057" lon="-1.670075">
        <ele>269.0</ele>
        <time>2023-04-16T07:28:02Z</time>
      </trkpt>
      <trkpt lat="38.251021" lon="-1.669985">
        <ele>270.0</ele>
        <time>2023-04-16T07:28:07Z</time>
      </trkpt>
      <trkpt lat="38.250985" lon="-1.669851">
        <ele>270.1</ele>
        <time>2023-04-16T07:28:13Z</time>
      </trkpt>
      <trkpt lat="38.251046" lon="-1.669829">
        <ele>270.1</ele>
        <time>2023-04-16T07:28:55Z</time>
      </trkpt>
      <trkpt lat="38.251128" lon="-1.669789">
        <ele>276.0</ele>
        <time>2023-04-16T07:29:48Z</time>
      </trkpt>
      <trkpt lat="38.251151" lon="-1.669768">
        <ele>273.8</ele>
        <time>2023-04-16T07:31:50Z</time>
      </trkpt>
      <trkpt lat="38.251127" lon="-1.669724">
        <ele>274.0</ele>
        <time>2023-04-16T07:31:57Z</time>
      </trkpt>
      <trkpt lat="38.251107" lon="-1.669643">
        <ele>274.0</ele>
        <time>2023-04-16T07:32:04Z</time>
      </trkpt>
      <trkpt lat="38.251080" lon="-1.669562">
        <ele>274.0</ele>
        <time>2023-04-16T07:32:11Z</time>
      </trkpt>
      <trkpt lat="38.251069" lon="-1.669480">
        <ele>275.8</ele>
        <time>2023-04-16T07:32:48Z</time>
      </trkpt>
      <trkpt lat="38.251043" lon="-1.669402">
        <ele>278.0</ele>
        <time>2023-04-16T07:33:19Z</time>
      </trkpt>
      <trkpt lat="38.251017" lon="-1.669324">
        <ele>274.3</ele>
        <time>2023-04-16T07:33:53Z</time>
      </trkpt>
      <trkpt lat="38.250997" lon="-1.669241">
        <ele>273.0</ele>
        <time>2023-04-16T07:34:00Z</time>
      </trkpt>
      <trkpt lat="38.250999" lon="-1.669152">
        <ele>274.0</ele>
        <time>2023-04-16T07:34:06Z</time>
      </trkpt>
      <trkpt lat="38.250986" lon="-1.669073">
        <ele>273.0</ele>
        <time>2023-04-16T07:34:11Z</time>
      </trkpt>
      <trkpt lat="38.250955" lon="-1.668999">
        <ele>272.1</ele>
        <time>2023-04-16T07:34:16Z</time>
      </trkpt>
      <trkpt lat="38.250910" lon="-1.668927">
        <ele>272.0</ele>
        <time>2023-04-16T07:34:22Z</time>
      </trkpt>
      <trkpt lat="38.250852" lon="-1.668879">
        <ele>273.8</ele>
        <time>2023-04-16T07:34:28Z</time>
      </trkpt>
      <trkpt lat="38.250809" lon="-1.668820">
        <ele>274.0</ele>
        <time>2023-04-16T07:34:34Z</time>
      </trkpt>
      <trkpt lat="38.250769" lon="-1.668747">
        <ele>276.0</ele>
        <time>2023-04-16T07:34:40Z</time>
      </trkpt>
      <trkpt lat="38.250732" lon="-1.668680">
        <ele>275.8</ele>
        <time>2023-04-16T07:34:45Z</time>
      </trkpt>
      <trkpt lat="38.250691" lon="-1.668605">
        <ele>275.1</ele>
        <time>2023-04-16T07:34:51Z</time>
      </trkpt>
      <trkpt lat="38.250679" lon="-1.668519">
        <ele>275.0</ele>
        <time>2023-04-16T07:34:56Z</time>
      </trkpt>
      <trkpt lat="38.250661" lon="-1.668426">
        <ele>273.0</ele>
        <time>2023-04-16T07:35:02Z</time>
      </trkpt>
      <trkpt lat="38.250641" lon="-1.668340">
        <ele>272.3</ele>
        <time>2023-04-16T07:35:07Z</time>
      </trkpt>
      <trkpt lat="38.250620" lon="-1.668253">
        <ele>273.0</ele>
        <time>2023-04-16T07:35:12Z</time>
      </trkpt>
      <trkpt lat="38.250576" lon="-1.668183">
        <ele>273.0</ele>
        <time>2023-04-16T07:35:17Z</time>
      </trkpt>
      <trkpt lat="38.250532" lon="-1.668125">
        <ele>274.8</ele>
        <time>2023-04-16T07:35:22Z</time>
      </trkpt>
      <trkpt lat="38.250483" lon="-1.668064">
        <ele>275.0</ele>
        <time>2023-04-16T07:35:27Z</time>
      </trkpt>
      <trkpt lat="38.250441" lon="-1.667996">
        <ele>275.3</ele>
        <time>2023-04-16T07:35:32Z</time>
      </trkpt>
      <trkpt lat="38.250427" lon="-1.667909">
        <ele>275.0</ele>
        <time>2023-04-16T07:35:37Z</time>
      </trkpt>
      <trkpt lat="38.250434" lon="-1.667822">
        <ele>273.3</ele>
        <time>2023-04-16T07:35:42Z</time>
      </trkpt>
      <trkpt lat="38.250462" lon="-1.667740">
        <ele>272.3</ele>
        <time>2023-04-16T07:35:47Z</time>
      </trkpt>
      <trkpt lat="38.250496" lon="-1.667663">
        <ele>271.0</ele>
        <time>2023-04-16T07:35:52Z</time>
      </trkpt>
      <trkpt lat="38.250515" lon="-1.667582">
        <ele>271.0</ele>
        <time>2023-04-16T07:35:57Z</time>
      </trkpt>
      <trkpt lat="38.250539" lon="-1.667501">
        <ele>270.8</ele>
        <time>2023-04-16T07:36:02Z</time>
      </trkpt>
      <trkpt lat="38.250573" lon="-1.667423">
        <ele>271.0</ele>
        <time>2023-04-16T07:36:07Z</time>
      </trkpt>
      <trkpt lat="38.250594" lon="-1.667332">
        <ele>271.0</ele>
        <time>2023-04-16T07:36:12Z</time>
      </trkpt>
      <trkpt lat="38.250619" lon="-1.667241">
        <ele>271.0</ele>
        <time>2023-04-16T07:36:17Z</time>
      </trkpt>
      <trkpt lat="38.250657" lon="-1.667172">
        <ele>270.1</ele>
        <time>2023-04-16T07:36:21Z</time>
      </trkpt>
      <trkpt lat="38.250691" lon="-1.667100">
        <ele>268.3</ele>
        <time>2023-04-16T07:36:25Z</time>
      </trkpt>
      <trkpt lat="38.250723" lon="-1.667028">
        <ele>268.0</ele>
        <time>2023-04-16T07:36:29Z</time>
      </trkpt>
      <trkpt lat="38.250753" lon="-1.666951">
        <ele>267.0</ele>
        <time>2023-04-16T07:36:34Z</time>
      </trkpt>
      <trkpt lat="38.250783" lon="-1.666862">
        <ele>266.0</ele>
        <time>2023-04-16T07:36:39Z</time>
      </trkpt>
      <trkpt lat="38.250800" lon="-1.666784">
        <ele>266.0</ele>
        <time>2023-04-16T07:36:44Z</time>
      </trkpt>
      <trkpt lat="38.250814" lon="-1.666676">
        <ele>267.0</ele>
        <time>2023-04-16T07:36:49Z</time>
      </trkpt>
      <trkpt lat="38.250835" lon="-1.666592">
        <ele>267.0</ele>
        <time>2023-04-16T07:36:54Z</time>
      </trkpt>
      <trkpt lat="38.250856" lon="-1.666505">
        <ele>266.0</ele>
        <time>2023-04-16T07:36:59Z</time>
      </trkpt>
      <trkpt lat="38.250882" lon="-1.666418">
        <ele>267.0</ele>
        <time>2023-04-16T07:37:04Z</time>
      </trkpt>
      <trkpt lat="38.250913" lon="-1.666336">
        <ele>267.0</ele>
        <time>2023-04-16T07:37:09Z</time>
      </trkpt>
      <trkpt lat="38.250950" lon="-1.666259">
        <ele>267.0</ele>
        <time>2023-04-16T07:37:14Z</time>
      </trkpt>
      <trkpt lat="38.250987" lon="-1.666182">
        <ele>267.0</ele>
        <time>2023-04-16T07:37:19Z</time>
      </trkpt>
      <trkpt lat="38.251016" lon="-1.666110">
        <ele>266.0</ele>
        <time>2023-04-16T07:37:24Z</time>
      </trkpt>
      <trkpt lat="38.251054" lon="-1.666021">
        <ele>266.1</ele>
        <time>2023-04-16T07:37:29Z</time>
      </trkpt>
      <trkpt lat="38.251104" lon="-1.665936">
        <ele>267.0</ele>
        <time>2023-04-16T07:37:34Z</time>
      </trkpt>
      <trkpt lat="38.251145" lon="-1.665868">
        <ele>268.0</ele>
        <time>2023-04-16T07:37:39Z</time>
      </trkpt>
      <trkpt lat="38.251222" lon="-1.665824">
        <ele>268.1</ele>
        <time>2023-04-16T07:37:44Z</time>
      </trkpt>
      <trkpt lat="38.251310" lon="-1.665805">
        <ele>269.8</ele>
        <time>2023-04-16T07:37:49Z</time>
      </trkpt>
      <trkpt lat="38.251374" lon="-1.665780">
        <ele>269.2</ele>
        <time>2023-04-16T07:37:54Z</time>
      </trkpt>
      <trkpt lat="38.251430" lon="-1.665734">
        <ele>269.0</ele>
        <time>2023-04-16T07:37:59Z</time>
      </trkpt>
      <trkpt lat="38.251485" lon="-1.665681">
        <ele>269.0</ele>
        <time>2023-04-16T07:38:04Z</time>
      </trkpt>
      <trkpt lat="38.251549" lon="-1.665646">
        <ele>270.0</ele>
        <time>2023-04-16T07:38:09Z</time>
      </trkpt>
      <trkpt lat="38.251614" lon="-1.665656">
        <ele>269.8</ele>
        <time>2023-04-16T07:38:16Z</time>
      </trkpt>
      <trkpt lat="38.251672" lon="-1.665708">
        <ele>271.8</ele>
        <time>2023-04-16T07:38:21Z</time>
      </trkpt>
      <trkpt lat="38.251692" lon="-1.665788">
        <ele>272.0</ele>
        <time>2023-04-16T07:38:26Z</time>
      </trkpt>
      <trkpt lat="38.251699" lon="-1.665872">
        <ele>272.0</ele>
        <time>2023-04-16T07:38:31Z</time>
      </trkpt>
      <trkpt lat="38.251703" lon="-1.665956">
        <ele>273.0</ele>
        <time>2023-04-16T07:38:36Z</time>
      </trkpt>
      <trkpt lat="38.251711" lon="-1.666045">
        <ele>273.0</ele>
        <time>2023-04-16T07:38:41Z</time>
      </trkpt>
      <trkpt lat="38.251716" lon="-1.666138">
        <ele>273.8</ele>
        <time>2023-04-16T07:38:46Z</time>
      </trkpt>
      <trkpt lat="38.251721" lon="-1.666225">
        <ele>274.8</ele>
        <time>2023-04-16T07:38:51Z</time>
      </trkpt>
      <trkpt lat="38.251725" lon="-1.666318">
        <ele>274.3</ele>
        <time>2023-04-16T07:38:56Z</time>
      </trkpt>
      <trkpt lat="38.251732" lon="-1.666405">
        <ele>274.0</ele>
        <time>2023-04-16T07:39:01Z</time>
      </trkpt>
      <trkpt lat="38.251741" lon="-1.666487">
        <ele>274.0</ele>
        <time>2023-04-16T07:39:06Z</time>
      </trkpt>
      <trkpt lat="38.251744" lon="-1.666577">
        <ele>275.0</ele>
        <time>2023-04-16T07:39:11Z</time>
      </trkpt>
      <trkpt lat="38.251744" lon="-1.666672">
        <ele>276.8</ele>
        <time>2023-04-16T07:39:16Z</time>
      </trkpt>
      <trkpt lat="38.251752" lon="-1.666754">
        <ele>277.0</ele>
        <time>2023-04-16T07:39:21Z</time>
      </trkpt>
      <trkpt lat="38.251753" lon="-1.666844">
        <ele>277.0</ele>
        <time>2023-04-16T07:39:26Z</time>
      </trkpt>
      <trkpt lat="38.251772" lon="-1.666936">
        <ele>278.0</ele>
        <time>2023-04-16T07:39:31Z</time>
      </trkpt>
      <trkpt lat="38.251800" lon="-1.667018">
        <ele>279.0</ele>
        <time>2023-04-16T07:39:36Z</time>
      </trkpt>
      <trkpt lat="38.251837" lon="-1.667087">
        <ele>279.0</ele>
        <time>2023-04-16T07:39:41Z</time>
      </trkpt>
      <trkpt lat="38.251877" lon="-1.667161">
        <ele>281.0</ele>
        <time>2023-04-16T07:39:46Z</time>
      </trkpt>
      <trkpt lat="38.251921" lon="-1.667226">
        <ele>281.0</ele>
        <time>2023-04-16T07:39:51Z</time>
      </trkpt>
      <trkpt lat="38.251972" lon="-1.667274">
        <ele>281.0</ele>
        <time>2023-04-16T07:39:56Z</time>
      </trkpt>
      <trkpt lat="38.252023" lon="-1.667328">
        <ele>281.0</ele>
        <time>2023-04-16T07:40:01Z</time>
      </trkpt>
      <trkpt lat="38.252075" lon="-1.667386">
        <ele>281.0</ele>
        <time>2023-04-16T07:40:06Z</time>
      </trkpt>
      <trkpt lat="38.252141" lon="-1.667426">
        <ele>281.0</ele>
        <time>2023-04-16T07:40:18Z</time>
      </trkpt>
      <trkpt lat="38.252209" lon="-1.667467">
        <ele>280.0</ele>
        <time>2023-04-16T07:40:23Z</time>
      </trkpt>
      <trkpt lat="38.252275" lon="-1.667487">
        <ele>281.0</ele>
        <time>2023-04-16T07:40:27Z</time>
      </trkpt>
      <trkpt lat="38.252333" lon="-1.667530">
        <ele>281.0</ele>
        <time>2023-04-16T07:40:31Z</time>
      </trkpt>
      <trkpt lat="38.252386" lon="-1.667578">
        <ele>281.0</ele>
        <time>2023-04-16T07:40:35Z</time>
      </trkpt>
      <trkpt lat="38.252445" lon="-1.667630">
        <ele>282.0</ele>
        <time>2023-04-16T07:40:40Z</time>
      </trkpt>
      <trkpt lat="38.252518" lon="-1.667674">
        <ele>282.0</ele>
        <time>2023-04-16T07:40:45Z</time>
      </trkpt>
      <trkpt lat="38.252589" lon="-1.667722">
        <ele>282.0</ele>
        <time>2023-04-16T07:40:50Z</time>
      </trkpt>
      <trkpt lat="38.252661" lon="-1.667773">
        <ele>282.0</ele>
        <time>2023-04-16T07:40:55Z</time>
      </trkpt>
      <trkpt lat="38.252726" lon="-1.667812">
        <ele>283.0</ele>
        <time>2023-04-16T07:41:00Z</time>
      </trkpt>
      <trkpt lat="38.252786" lon="-1.667856">
        <ele>284.0</ele>
        <time>2023-04-16T07:41:05Z</time>
      </trkpt>
      <trkpt lat="38.252844" lon="-1.667894">
        <ele>283.3</ele>
        <time>2023-04-16T07:41:11Z</time>
      </trkpt>
      <trkpt lat="38.252906" lon="-1.667934">
        <ele>285.0</ele>
        <time>2023-04-16T07:41:17Z</time>
      </trkpt>
      <trkpt lat="38.252968" lon="-1.667978">
        <ele>284.3</ele>
        <time>2023-04-16T07:41:22Z</time>
      </trkpt>
      <trkpt lat="38.253026" lon="-1.668018">
        <ele>286.0</ele>
        <time>2023-04-16T07:41:27Z</time>
      </trkpt>
      <trkpt lat="38.253084" lon="-1.668070">
        <ele>287.8</ele>
        <time>2023-04-16T07:41:33Z</time>
      </trkpt>
      <trkpt lat="38.253151" lon="-1.668115">
        <ele>288.1</ele>
        <time>2023-04-16T07:41:39Z</time>
      </trkpt>
      <trkpt lat="38.253206" lon="-1.668155">
        <ele>286.1</ele>
        <time>2023-04-16T07:41:44Z</time>
      </trkpt>
      <trkpt lat="38.253273" lon="-1.668193">
        <ele>287.0</ele>
        <time>2023-04-16T07:41:49Z</time>
      </trkpt>
      <trkpt lat="38.253335" lon="-1.668234">
        <ele>287.8</ele>
        <time>2023-04-16T07:41:55Z</time>
      </trkpt>
      <trkpt lat="38.253397" lon="-1.668265">
        <ele>288.0</ele>
        <time>2023-04-16T07:42:01Z</time>
      </trkpt>
      <trkpt lat="38.253459" lon="-1.668228">
        <ele>286.0</ele>
        <time>2023-04-16T07:42:08Z</time>
      </trkpt>
      <trkpt lat="38.253515" lon="-1.668167">
        <ele>283.3</ele>
        <time>2023-04-16T07:42:13Z</time>
      </trkpt>
      <trkpt lat="38.253569" lon="-1.668117">
        <ele>282.0</ele>
        <time>2023-04-16T07:42:18Z</time>
      </trkpt>
      <trkpt lat="38.253627" lon="-1.668069">
        <ele>280.3</ele>
        <time>2023-04-16T07:42:23Z</time>
      </trkpt>
      <trkpt lat="38.253693" lon="-1.668033">
        <ele>280.8</ele>
        <time>2023-04-16T07:42:28Z</time>
      </trkpt>
      <trkpt lat="38.253750" lon="-1.667987">
        <ele>280.2</ele>
        <time>2023-04-16T07:42:33Z</time>
      </trkpt>
      <trkpt lat="38.253806" lon="-1.667942">
        <ele>279.1</ele>
        <time>2023-04-16T07:42:38Z</time>
      </trkpt>
      <trkpt lat="38.253863" lon="-1.667903">
        <ele>279.0</ele>
        <time>2023-04-16T07:42:43Z</time>
      </trkpt>
      <trkpt lat="38.253916" lon="-1.667847">
        <ele>279.8</ele>
        <time>2023-04-16T07:42:48Z</time>
      </trkpt>
      <trkpt lat="38.253958" lon="-1.667783">
        <ele>278.1</ele>
        <time>2023-04-16T07:42:59Z</time>
      </trkpt>
      <trkpt lat="38.254027" lon="-1.667746">
        <ele>277.0</ele>
        <time>2023-04-16T07:43:04Z</time>
      </trkpt>
      <trkpt lat="38.254090" lon="-1.667699">
        <ele>277.0</ele>
        <time>2023-04-16T07:43:09Z</time>
      </trkpt>
      <trkpt lat="38.254154" lon="-1.667651">
        <ele>278.0</ele>
        <time>2023-04-16T07:43:14Z</time>
      </trkpt>
      <trkpt lat="38.254206" lon="-1.667604">
        <ele>278.8</ele>
        <time>2023-04-16T07:43:18Z</time>
      </trkpt>
      <trkpt lat="38.254266" lon="-1.667550">
        <ele>279.1</ele>
        <time>2023-04-16T07:43:23Z</time>
      </trkpt>
      <trkpt lat="38.254318" lon="-1.667498">
        <ele>279.0</ele>
        <time>2023-04-16T07:43:28Z</time>
      </trkpt>
      <trkpt lat="38.254381" lon="-1.667449">
        <ele>279.0</ele>
        <time>2023-04-16T07:43:33Z</time>
      </trkpt>
      <trkpt lat="38.254446" lon="-1.667402">
        <ele>279.0</ele>
        <time>2023-04-16T07:43:39Z</time>
      </trkpt>
      <trkpt lat="38.254511" lon="-1.667357">
        <ele>280.0</ele>
        <time>2023-04-16T07:43:44Z</time>
      </trkpt>
      <trkpt lat="38.254572" lon="-1.667320">
        <ele>280.0</ele>
        <time>2023-04-16T07:43:49Z</time>
      </trkpt>
      <trkpt lat="38.254629" lon="-1.667268">
        <ele>279.0</ele>
        <time>2023-04-16T07:43:54Z</time>
      </trkpt>
      <trkpt lat="38.254697" lon="-1.667201">
        <ele>279.0</ele>
        <time>2023-04-16T07:44:00Z</time>
      </trkpt>
      <trkpt lat="38.254757" lon="-1.667157">
        <ele>278.0</ele>
        <time>2023-04-16T07:44:06Z</time>
      </trkpt>
      <trkpt lat="38.254814" lon="-1.667113">
        <ele>277.8</ele>
        <time>2023-04-16T07:44:10Z</time>
      </trkpt>
      <trkpt lat="38.254869" lon="-1.667064">
        <ele>277.0</ele>
        <time>2023-04-16T07:44:15Z</time>
      </trkpt>
      <trkpt lat="38.254949" lon="-1.667018">
        <ele>277.0</ele>
        <time>2023-04-16T07:44:20Z</time>
      </trkpt>
      <trkpt lat="38.255011" lon="-1.666979">
        <ele>278.0</ele>
        <time>2023-04-16T07:44:25Z</time>
      </trkpt>
      <trkpt lat="38.255067" lon="-1.666939">
        <ele>278.0</ele>
        <time>2023-04-16T07:44:31Z</time>
      </trkpt>
      <trkpt lat="38.255128" lon="-1.666901">
        <ele>278.0</ele>
        <time>2023-04-16T07:44:37Z</time>
      </trkpt>
      <trkpt lat="38.255198" lon="-1.666862">
        <ele>277.1</ele>
        <time>2023-04-16T07:44:43Z</time>
      </trkpt>
      <trkpt lat="38.255263" lon="-1.666832">
        <ele>278.8</ele>
        <time>2023-04-16T07:44:48Z</time>
      </trkpt>
      <trkpt lat="38.255347" lon="-1.666807">
        <ele>278.0</ele>
        <time>2023-04-16T07:44:55Z</time>
      </trkpt>
      <trkpt lat="38.255413" lon="-1.666790">
        <ele>277.0</ele>
        <time>2023-04-16T07:45:01Z</time>
      </trkpt>
      <trkpt lat="38.255474" lon="-1.666764">
        <ele>277.0</ele>
        <time>2023-04-16T07:45:06Z</time>
      </trkpt>
      <trkpt lat="38.255537" lon="-1.666745">
        <ele>276.3</ele>
        <time>2023-04-16T07:45:12Z</time>
      </trkpt>
      <trkpt lat="38.255607" lon="-1.666719">
        <ele>276.0</ele>
        <time>2023-04-16T07:45:18Z</time>
      </trkpt>
      <trkpt lat="38.255672" lon="-1.666695">
        <ele>276.8</ele>
        <time>2023-04-16T07:45:23Z</time>
      </trkpt>
      <trkpt lat="38.255737" lon="-1.666660">
        <ele>277.0</ele>
        <time>2023-04-16T07:45:29Z</time>
      </trkpt>
      <trkpt lat="38.255800" lon="-1.666639">
        <ele>276.0</ele>
        <time>2023-04-16T07:45:34Z</time>
      </trkpt>
      <trkpt lat="38.255860" lon="-1.666612">
        <ele>276.0</ele>
        <time>2023-04-16T07:45:39Z</time>
      </trkpt>
      <trkpt lat="38.255929" lon="-1.666597">
        <ele>277.0</ele>
        <time>2023-04-16T07:45:44Z</time>
      </trkpt>
      <trkpt lat="38.255993" lon="-1.666595">
        <ele>277.0</ele>
        <time>2023-04-16T07:45:48Z</time>
      </trkpt>
      <trkpt lat="38.256065" lon="-1.666581">
        <ele>277.0</ele>
        <time>2023-04-16T07:45:54Z</time>
      </trkpt>
      <trkpt lat="38.256129" lon="-1.666572">
        <ele>277.8</ele>
        <time>2023-04-16T07:45:59Z</time>
      </trkpt>
      <trkpt lat="38.256200" lon="-1.666569">
        <ele>277.1</ele>
        <time>2023-04-16T07:46:04Z</time>
      </trkpt>
      <trkpt lat="38.256263" lon="-1.666564">
        <ele>277.0</ele>
        <time>2023-04-16T07:46:09Z</time>
      </trkpt>
      <trkpt lat="38.256328" lon="-1.666558">
        <ele>277.0</ele>
        <time>2023-04-16T07:46:14Z</time>
      </trkpt>
      <trkpt lat="38.256397" lon="-1.666541">
        <ele>276.8</ele>
        <time>2023-04-16T07:46:19Z</time>
      </trkpt>
      <trkpt lat="38.256464" lon="-1.666506">
        <ele>276.0</ele>
        <time>2023-04-16T07:46:25Z</time>
      </trkpt>
      <trkpt lat="38.256541" lon="-1.666471">
        <ele>274.0</ele>
        <time>2023-04-16T07:46:31Z</time>
      </trkpt>
      <trkpt lat="38.256611" lon="-1.666449">
        <ele>274.0</ele>
        <time>2023-04-16T07:46:38Z</time>
      </trkpt>
      <trkpt lat="38.256684" lon="-1.666438">
        <ele>274.0</ele>
        <time>2023-04-16T07:46:44Z</time>
      </trkpt>
      <trkpt lat="38.256753" lon="-1.666426">
        <ele>273.3</ele>
        <time>2023-04-16T07:46:50Z</time>
      </trkpt>
      <trkpt lat="38.256828" lon="-1.666411">
        <ele>273.1</ele>
        <time>2023-04-16T07:46:56Z</time>
      </trkpt>
      <trkpt lat="38.256902" lon="-1.666392">
        <ele>272.8</ele>
        <time>2023-04-16T07:47:01Z</time>
      </trkpt>
      <trkpt lat="38.256966" lon="-1.666369">
        <ele>273.0</ele>
        <time>2023-04-16T07:47:07Z</time>
      </trkpt>
      <trkpt lat="38.257041" lon="-1.666367">
        <ele>271.1</ele>
        <time>2023-04-16T07:47:13Z</time>
      </trkpt>
      <trkpt lat="38.257116" lon="-1.666362">
        <ele>271.2</ele>
        <time>2023-04-16T07:47:18Z</time>
      </trkpt>
      <trkpt lat="38.257185" lon="-1.666342">
        <ele>271.1</ele>
        <time>2023-04-16T07:47:23Z</time>
      </trkpt>
      <trkpt lat="38.257251" lon="-1.666330">
        <ele>270.0</ele>
        <time>2023-04-16T07:47:29Z</time>
      </trkpt>
      <trkpt lat="38.257313" lon="-1.666311">
        <ele>269.3</ele>
        <time>2023-04-16T07:47:34Z</time>
      </trkpt>
      <trkpt lat="38.257379" lon="-1.666291">
        <ele>269.0</ele>
        <time>2023-04-16T07:47:39Z</time>
      </trkpt>
      <trkpt lat="38.257450" lon="-1.666274">
        <ele>268.0</ele>
        <time>2023-04-16T07:47:45Z</time>
      </trkpt>
      <trkpt lat="38.257528" lon="-1.666263">
        <ele>268.0</ele>
        <time>2023-04-16T07:47:51Z</time>
      </trkpt>
      <trkpt lat="38.257592" lon="-1.666257">
        <ele>268.8</ele>
        <time>2023-04-16T07:47:57Z</time>
      </trkpt>
      <trkpt lat="38.257655" lon="-1.666277">
        <ele>269.0</ele>
        <time>2023-04-16T07:48:02Z</time>
      </trkpt>
      <trkpt lat="38.257724" lon="-1.666287">
        <ele>269.0</ele>
        <time>2023-04-16T07:48:07Z</time>
      </trkpt>
      <trkpt lat="38.257794" lon="-1.666273">
        <ele>269.0</ele>
        <time>2023-04-16T07:48:13Z</time>
      </trkpt>
      <trkpt lat="38.257862" lon="-1.666279">
        <ele>269.0</ele>
        <time>2023-04-16T07:48:18Z</time>
      </trkpt>
      <trkpt lat="38.257933" lon="-1.666289">
        <ele>269.0</ele>
        <time>2023-04-16T07:48:23Z</time>
      </trkpt>
      <trkpt lat="38.258002" lon="-1.666298">
        <ele>268.8</ele>
        <time>2023-04-16T07:48:28Z</time>
      </trkpt>
      <trkpt lat="38.258078" lon="-1.666298">
        <ele>269.0</ele>
        <time>2023-04-16T07:48:34Z</time>
      </trkpt>
      <trkpt lat="38.258145" lon="-1.666313">
        <ele>269.2</ele>
        <time>2023-04-16T07:48:39Z</time>
      </trkpt>
      <trkpt lat="38.258216" lon="-1.666330">
        <ele>270.0</ele>
        <time>2023-04-16T07:48:44Z</time>
      </trkpt>
      <trkpt lat="38.258289" lon="-1.666358">
        <ele>270.0</ele>
        <time>2023-04-16T07:48:50Z</time>
      </trkpt>
      <trkpt lat="38.258362" lon="-1.666363">
        <ele>270.8</ele>
        <time>2023-04-16T07:48:55Z</time>
      </trkpt>
      <trkpt lat="38.258425" lon="-1.666355">
        <ele>270.1</ele>
        <time>2023-04-16T07:49:00Z</time>
      </trkpt>
      <trkpt lat="38.258489" lon="-1.666334">
        <ele>269.0</ele>
        <time>2023-04-16T07:49:05Z</time>
      </trkpt>
      <trkpt lat="38.258552" lon="-1.666303">
        <ele>268.3</ele>
        <time>2023-04-16T07:49:10Z</time>
      </trkpt>
      <trkpt lat="38.258611" lon="-1.666262">
        <ele>267.0</ele>
        <time>2023-04-16T07:49:15Z</time>
      </trkpt>
      <trkpt lat="38.258656" lon="-1.666201">
        <ele>266.0</ele>
        <time>2023-04-16T07:49:20Z</time>
      </trkpt>
      <trkpt lat="38.258690" lon="-1.666125">
        <ele>265.8</ele>
        <time>2023-04-16T07:49:25Z</time>
      </trkpt>
      <trkpt lat="38.258709" lon="-1.666038">
        <ele>265.3</ele>
        <time>2023-04-16T07:49:30Z</time>
      </trkpt>
      <trkpt lat="38.258711" lon="-1.665952">
        <ele>265.8</ele>
        <time>2023-04-16T07:49:35Z</time>
      </trkpt>
      <trkpt lat="38.258696" lon="-1.665865">
        <ele>266.0</ele>
        <time>2023-04-16T07:49:40Z</time>
      </trkpt>
      <trkpt lat="38.258680" lon="-1.665786">
        <ele>265.1</ele>
        <time>2023-04-16T07:49:45Z</time>
      </trkpt>
      <trkpt lat="38.258665" lon="-1.665697">
        <ele>266.0</ele>
        <time>2023-04-16T07:49:50Z</time>
      </trkpt>
      <trkpt lat="38.258672" lon="-1.665594">
        <ele>266.0</ele>
        <time>2023-04-16T07:49:56Z</time>
      </trkpt>
      <trkpt lat="38.258697" lon="-1.665520">
        <ele>264.1</ele>
        <time>2023-04-16T07:50:02Z</time>
      </trkpt>
      <trkpt lat="38.258721" lon="-1.665443">
        <ele>263.3</ele>
        <time>2023-04-16T07:50:07Z</time>
      </trkpt>
      <trkpt lat="38.258732" lon="-1.665350">
        <ele>262.3</ele>
        <time>2023-04-16T07:50:13Z</time>
      </trkpt>
      <trkpt lat="38.258748" lon="-1.665259">
        <ele>261.0</ele>
        <time>2023-04-16T07:50:19Z</time>
      </trkpt>
      <trkpt lat="38.258748" lon="-1.665176">
        <ele>262.0</ele>
        <time>2023-04-16T07:50:24Z</time>
      </trkpt>
      <trkpt lat="38.258755" lon="-1.665085">
        <ele>262.0</ele>
        <time>2023-04-16T07:50:29Z</time>
      </trkpt>
      <trkpt lat="38.258771" lon="-1.664995">
        <ele>263.0</ele>
        <time>2023-04-16T07:50:34Z</time>
      </trkpt>
      <trkpt lat="38.258780" lon="-1.664912">
        <ele>262.1</ele>
        <time>2023-04-16T07:50:39Z</time>
      </trkpt>
      <trkpt lat="38.258800" lon="-1.664823">
        <ele>263.0</ele>
        <time>2023-04-16T07:50:45Z</time>
      </trkpt>
      <trkpt lat="38.258802" lon="-1.664729">
        <ele>263.0</ele>
        <time>2023-04-16T07:50:50Z</time>
      </trkpt>
      <trkpt lat="38.258802" lon="-1.664635">
        <ele>264.0</ele>
        <time>2023-04-16T07:50:55Z</time>
      </trkpt>
      <trkpt lat="38.258805" lon="-1.664545">
        <ele>264.0</ele>
        <time>2023-04-16T07:51:01Z</time>
      </trkpt>
      <trkpt lat="38.258798" lon="-1.664460">
        <ele>265.0</ele>
        <time>2023-04-16T07:51:06Z</time>
      </trkpt>
      <trkpt lat="38.258790" lon="-1.664376">
        <ele>265.0</ele>
        <time>2023-04-16T07:51:11Z</time>
      </trkpt>
      <trkpt lat="38.258787" lon="-1.664279">
        <ele>265.0</ele>
        <time>2023-04-16T07:51:17Z</time>
      </trkpt>
      <trkpt lat="38.258785" lon="-1.664184">
        <ele>265.0</ele>
        <time>2023-04-16T07:51:23Z</time>
      </trkpt>
      <trkpt lat="38.258784" lon="-1.664104">
        <ele>265.1</ele>
        <time>2023-04-16T07:51:28Z</time>
      </trkpt>
      <trkpt lat="38.258786" lon="-1.664020">
        <ele>266.0</ele>
        <time>2023-04-16T07:51:33Z</time>
      </trkpt>
      <trkpt lat="38.258788" lon="-1.663936">
        <ele>265.0</ele>
        <time>2023-04-16T07:51:38Z</time>
      </trkpt>
      <trkpt lat="38.258796" lon="-1.663851">
        <ele>264.0</ele>
        <time>2023-04-16T07:51:43Z</time>
      </trkpt>
      <trkpt lat="38.258802" lon="-1.663770">
        <ele>265.0</ele>
        <time>2023-04-16T07:51:48Z</time>
      </trkpt>
      <trkpt lat="38.258807" lon="-1.663684">
        <ele>264.3</ele>
        <time>2023-04-16T07:51:53Z</time>
      </trkpt>
      <trkpt lat="38.258817" lon="-1.663602">
        <ele>264.0</ele>
        <time>2023-04-16T07:51:58Z</time>
      </trkpt>
      <trkpt lat="38.258830" lon="-1.663520">
        <ele>264.0</ele>
        <time>2023-04-16T07:52:03Z</time>
      </trkpt>
      <trkpt lat="38.258846" lon="-1.663429">
        <ele>263.3</ele>
        <time>2023-04-16T07:52:09Z</time>
      </trkpt>
      <trkpt lat="38.258853" lon="-1.663337">
        <ele>263.0</ele>
        <time>2023-04-16T07:52:14Z</time>
      </trkpt>
      <trkpt lat="38.258871" lon="-1.663258">
        <ele>263.0</ele>
        <time>2023-04-16T07:52:19Z</time>
      </trkpt>
      <trkpt lat="38.258884" lon="-1.663174">
        <ele>264.8</ele>
        <time>2023-04-16T07:52:24Z</time>
      </trkpt>
      <trkpt lat="38.258899" lon="-1.663088">
        <ele>266.8</ele>
        <time>2023-04-16T07:52:29Z</time>
      </trkpt>
      <trkpt lat="38.258920" lon="-1.662999">
        <ele>267.0</ele>
        <time>2023-04-16T07:52:35Z</time>
      </trkpt>
      <trkpt lat="38.258890" lon="-1.662926">
        <ele>267.8</ele>
        <time>2023-04-16T07:52:40Z</time>
      </trkpt>
      <trkpt lat="38.258840" lon="-1.662878">
        <ele>268.0</ele>
        <time>2023-04-16T07:52:44Z</time>
      </trkpt>
      <trkpt lat="38.258774" lon="-1.662844">
        <ele>268.0</ele>
        <time>2023-04-16T07:52:50Z</time>
      </trkpt>
      <trkpt lat="38.258709" lon="-1.662809">
        <ele>270.0</ele>
        <time>2023-04-16T07:52:59Z</time>
      </trkpt>
      <trkpt lat="38.258661" lon="-1.662756">
        <ele>271.0</ele>
        <time>2023-04-16T07:53:07Z</time>
      </trkpt>
      <trkpt lat="38.258620" lon="-1.662736">
        <ele>272.0</ele>
        <time>2023-04-16T07:53:30Z</time>
      </trkpt>
      <trkpt lat="38.258576" lon="-1.662712">
        <ele>271.0</ele>
        <time>2023-04-16T07:53:52Z</time>
      </trkpt>
      <trkpt lat="38.258541" lon="-1.662684">
        <ele>270.0</ele>
        <time>2023-04-16T07:54:10Z</time>
      </trkpt>
      <trkpt lat="38.258599" lon="-1.662633">
        <ele>267.3</ele>
        <time>2023-04-16T07:54:17Z</time>
      </trkpt>
      <trkpt lat="38.258653" lon="-1.662577">
        <ele>265.3</ele>
        <time>2023-04-16T07:54:31Z</time>
      </trkpt>
      <trkpt lat="38.258702" lon="-1.662522">
        <ele>265.0</ele>
        <time>2023-04-16T07:54:36Z</time>
      </trkpt>
      <trkpt lat="38.258749" lon="-1.662461">
        <ele>265.0</ele>
        <time>2023-04-16T07:54:42Z</time>
      </trkpt>
      <trkpt lat="38.258796" lon="-1.662395">
        <ele>265.0</ele>
        <time>2023-04-16T07:54:50Z</time>
      </trkpt>
      <trkpt lat="38.258841" lon="-1.662331">
        <ele>265.0</ele>
        <time>2023-04-16T07:54:55Z</time>
      </trkpt>
      <trkpt lat="38.258906" lon="-1.662284">
        <ele>264.0</ele>
        <time>2023-04-16T07:55:01Z</time>
      </trkpt>
      <trkpt lat="38.258969" lon="-1.662225">
        <ele>263.0</ele>
        <time>2023-04-16T07:55:06Z</time>
      </trkpt>
      <trkpt lat="38.258970" lon="-1.662139">
        <ele>262.0</ele>
        <time>2023-04-16T07:55:13Z</time>
      </trkpt>
      <trkpt lat="38.258992" lon="-1.662057">
        <ele>262.0</ele>
        <time>2023-04-16T07:55:18Z</time>
      </trkpt>
      <trkpt lat="38.259020" lon="-1.661972">
        <ele>261.0</ele>
        <time>2023-04-16T07:55:23Z</time>
      </trkpt>
      <trkpt lat="38.259035" lon="-1.661885">
        <ele>259.3</ele>
        <time>2023-04-16T07:55:28Z</time>
      </trkpt>
      <trkpt lat="38.259047" lon="-1.661804">
        <ele>259.8</ele>
        <time>2023-04-16T07:55:32Z</time>
      </trkpt>
      <trkpt lat="38.259043" lon="-1.661717">
        <ele>261.2</ele>
        <time>2023-04-16T07:56:01Z</time>
      </trkpt>
      <trkpt lat="38.259081" lon="-1.661647">
        <ele>260.0</ele>
        <time>2023-04-16T07:56:07Z</time>
      </trkpt>
      <trkpt lat="38.259124" lon="-1.661571">
        <ele>257.3</ele>
        <time>2023-04-16T07:56:13Z</time>
      </trkpt>
      <trkpt lat="38.259138" lon="-1.661489">
        <ele>256.8</ele>
        <time>2023-04-16T07:56:19Z</time>
      </trkpt>
      <trkpt lat="38.259093" lon="-1.661419">
        <ele>257.0</ele>
        <time>2023-04-16T07:56:24Z</time>
      </trkpt>
      <trkpt lat="38.259037" lon="-1.661357">
        <ele>259.0</ele>
        <time>2023-04-16T07:56:29Z</time>
      </trkpt>
      <trkpt lat="38.258976" lon="-1.661311">
        <ele>261.0</ele>
        <time>2023-04-16T07:56:34Z</time>
      </trkpt>
      <trkpt lat="38.258922" lon="-1.661264">
        <ele>262.0</ele>
        <time>2023-04-16T07:56:47Z</time>
      </trkpt>
      <trkpt lat="38.258868" lon="-1.661195">
        <ele>260.0</ele>
        <time>2023-04-16T07:56:58Z</time>
      </trkpt>
      <trkpt lat="38.258821" lon="-1.661121">
        <ele>260.3</ele>
        <time>2023-04-16T07:57:04Z</time>
      </trkpt>
      <trkpt lat="38.258779" lon="-1.661048">
        <ele>261.2</ele>
        <time>2023-04-16T07:57:09Z</time>
      </trkpt>
      <trkpt lat="38.258723" lon="-1.660979">
        <ele>262.0</ele>
        <time>2023-04-16T07:57:14Z</time>
      </trkpt>
      <trkpt lat="38.258657" lon="-1.660905">
        <ele>263.0</ele>
        <time>2023-04-16T07:57:19Z</time>
      </trkpt>
      <trkpt lat="38.258608" lon="-1.660853">
        <ele>262.0</ele>
        <time>2023-04-16T07:57:24Z</time>
      </trkpt>
      <trkpt lat="38.258580" lon="-1.660797">
        <ele>261.3</ele>
        <time>2023-04-16T07:57:33Z</time>
      </trkpt>
      <trkpt lat="38.258543" lon="-1.660744">
        <ele>260.0</ele>
        <time>2023-04-16T07:58:43Z</time>
      </trkpt>
      <trkpt lat="38.258488" lon="-1.660697">
        <ele>260.0</ele>
        <time>2023-04-16T07:58:47Z</time>
      </trkpt>
      <trkpt lat="38.258437" lon="-1.660633">
        <ele>261.0</ele>
        <time>2023-04-16T07:58:52Z</time>
      </trkpt>
      <trkpt lat="38.258386" lon="-1.660574">
        <ele>260.8</ele>
        <time>2023-04-16T07:58:58Z</time>
      </trkpt>
      <trkpt lat="38.258332" lon="-1.660514">
        <ele>261.8</ele>
        <time>2023-04-16T07:59:03Z</time>
      </trkpt>
      <trkpt lat="38.258290" lon="-1.660453">
        <ele>263.0</ele>
        <time>2023-04-16T07:59:09Z</time>
      </trkpt>
      <trkpt lat="38.258230" lon="-1.660423">
        <ele>263.0</ele>
        <time>2023-04-16T07:59:20Z</time>
      </trkpt>
      <trkpt lat="38.258183" lon="-1.660364">
        <ele>260.3</ele>
        <time>2023-04-16T07:59:34Z</time>
      </trkpt>
      <trkpt lat="38.258117" lon="-1.660313">
        <ele>261.0</ele>
        <time>2023-04-16T07:59:39Z</time>
      </trkpt>
      <trkpt lat="38.258074" lon="-1.660242">
        <ele>260.8</ele>
        <time>2023-04-16T07:59:44Z</time>
      </trkpt>
      <trkpt lat="38.258021" lon="-1.660192">
        <ele>257.3</ele>
        <time>2023-04-16T07:59:57Z</time>
      </trkpt>
      <trkpt lat="38.257962" lon="-1.660133">
        <ele>257.0</ele>
        <time>2023-04-16T08:00:02Z</time>
      </trkpt>
      <trkpt lat="38.257905" lon="-1.660066">
        <ele>258.0</ele>
        <time>2023-04-16T08:00:07Z</time>
      </trkpt>
      <trkpt lat="38.257836" lon="-1.660007">
        <ele>257.0</ele>
        <time>2023-04-16T08:00:13Z</time>
      </trkpt>
      <trkpt lat="38.257783" lon="-1.659955">
        <ele>257.0</ele>
        <time>2023-04-16T08:00:18Z</time>
      </trkpt>
      <trkpt lat="38.257731" lon="-1.659896">
        <ele>258.0</ele>
        <time>2023-04-16T08:00:23Z</time>
      </trkpt>
      <trkpt lat="38.257678" lon="-1.659829">
        <ele>257.0</ele>
        <time>2023-04-16T08:00:27Z</time>
      </trkpt>
      <trkpt lat="38.257624" lon="-1.659781">
        <ele>257.0</ele>
        <time>2023-04-16T08:00:32Z</time>
      </trkpt>
      <trkpt lat="38.257577" lon="-1.659727">
        <ele>257.8</ele>
        <time>2023-04-16T08:00:36Z</time>
      </trkpt>
      <trkpt lat="38.257523" lon="-1.659664">
        <ele>257.8</ele>
        <time>2023-04-16T08:00:41Z</time>
      </trkpt>
      <trkpt lat="38.257475" lon="-1.659605">
        <ele>258.0</ele>
        <time>2023-04-16T08:00:46Z</time>
      </trkpt>
      <trkpt lat="38.257421" lon="-1.659550">
        <ele>258.0</ele>
        <time>2023-04-16T08:00:51Z</time>
      </trkpt>
      <trkpt lat="38.257371" lon="-1.659478">
        <ele>257.0</ele>
        <time>2023-04-16T08:00:57Z</time>
      </trkpt>
      <trkpt lat="38.257391" lon="-1.659393">
        <ele>254.3</ele>
        <time>2023-04-16T08:01:04Z</time>
      </trkpt>
      <trkpt lat="38.257448" lon="-1.659359">
        <ele>255.0</ele>
        <time>2023-04-16T08:01:08Z</time>
      </trkpt>
      <trkpt lat="38.257481" lon="-1.659274">
        <ele>254.0</ele>
        <time>2023-04-16T08:01:15Z</time>
      </trkpt>
      <trkpt lat="38.257486" lon="-1.659185">
        <ele>254.3</ele>
        <time>2023-04-16T08:01:20Z</time>
      </trkpt>
      <trkpt lat="38.257524" lon="-1.659111">
        <ele>254.0</ele>
        <time>2023-04-16T08:01:27Z</time>
      </trkpt>
      <trkpt lat="38.257579" lon="-1.659040">
        <ele>253.0</ele>
        <time>2023-04-16T08:01:32Z</time>
      </trkpt>
      <trkpt lat="38.257636" lon="-1.658982">
        <ele>254.0</ele>
        <time>2023-04-16T08:01:36Z</time>
      </trkpt>
      <trkpt lat="38.257682" lon="-1.658909">
        <ele>254.0</ele>
        <time>2023-04-16T08:01:41Z</time>
      </trkpt>
      <trkpt lat="38.257693" lon="-1.658830">
        <ele>254.0</ele>
        <time>2023-04-16T08:01:46Z</time>
      </trkpt>
      <trkpt lat="38.257731" lon="-1.658749">
        <ele>253.0</ele>
        <time>2023-04-16T08:01:51Z</time>
      </trkpt>
      <trkpt lat="38.257767" lon="-1.658679">
        <ele>253.0</ele>
        <time>2023-04-16T08:01:56Z</time>
      </trkpt>
      <trkpt lat="38.257817" lon="-1.658609">
        <ele>253.0</ele>
        <time>2023-04-16T08:02:02Z</time>
      </trkpt>
      <trkpt lat="38.257876" lon="-1.658556">
        <ele>253.0</ele>
        <time>2023-04-16T08:02:06Z</time>
      </trkpt>
      <trkpt lat="38.257929" lon="-1.658503">
        <ele>252.0</ele>
        <time>2023-04-16T08:02:10Z</time>
      </trkpt>
      <trkpt lat="38.257976" lon="-1.658441">
        <ele>251.3</ele>
        <time>2023-04-16T08:02:15Z</time>
      </trkpt>
      <trkpt lat="38.258024" lon="-1.658378">
        <ele>251.8</ele>
        <time>2023-04-16T08:02:20Z</time>
      </trkpt>
      <trkpt lat="38.258063" lon="-1.658312">
        <ele>251.3</ele>
        <time>2023-04-16T08:02:23Z</time>
      </trkpt>
      <trkpt lat="38.258081" lon="-1.658224">
        <ele>252.0</ele>
        <time>2023-04-16T08:02:30Z</time>
      </trkpt>
      <trkpt lat="38.258111" lon="-1.658142">
        <ele>251.0</ele>
        <time>2023-04-16T08:02:35Z</time>
      </trkpt>
      <trkpt lat="38.258140" lon="-1.658068">
        <ele>250.8</ele>
        <time>2023-04-16T08:02:39Z</time>
      </trkpt>
      <trkpt lat="38.258170" lon="-1.657989">
        <ele>252.0</ele>
        <time>2023-04-16T08:02:44Z</time>
      </trkpt>
      <trkpt lat="38.258201" lon="-1.657909">
        <ele>251.0</ele>
        <time>2023-04-16T08:02:50Z</time>
      </trkpt>
      <trkpt lat="38.258241" lon="-1.657827">
        <ele>251.1</ele>
        <time>2023-04-16T08:02:55Z</time>
      </trkpt>
      <trkpt lat="38.258274" lon="-1.657735">
        <ele>250.1</ele>
        <time>2023-04-16T08:03:00Z</time>
      </trkpt>
      <trkpt lat="38.258320" lon="-1.657660">
        <ele>249.3</ele>
        <time>2023-04-16T08:03:05Z</time>
      </trkpt>
      <trkpt lat="38.258367" lon="-1.657588">
        <ele>247.3</ele>
        <time>2023-04-16T08:03:10Z</time>
      </trkpt>
      <trkpt lat="38.258390" lon="-1.657513">
        <ele>245.3</ele>
        <time>2023-04-16T08:03:15Z</time>
      </trkpt>
      <trkpt lat="38.258407" lon="-1.657425">
        <ele>243.3</ele>
        <time>2023-04-16T08:03:20Z</time>
      </trkpt>
      <trkpt lat="38.258402" lon="-1.657329">
        <ele>243.0</ele>
        <time>2023-04-16T08:03:25Z</time>
      </trkpt>
      <trkpt lat="38.258393" lon="-1.657242">
        <ele>242.8</ele>
        <time>2023-04-16T08:03:29Z</time>
      </trkpt>
      <trkpt lat="38.258375" lon="-1.657154">
        <ele>243.0</ele>
        <time>2023-04-16T08:03:34Z</time>
      </trkpt>
      <trkpt lat="38.258377" lon="-1.657060">
        <ele>242.8</ele>
        <time>2023-04-16T08:03:39Z</time>
      </trkpt>
      <trkpt lat="38.258357" lon="-1.656972">
        <ele>244.0</ele>
        <time>2023-04-16T08:03:44Z</time>
      </trkpt>
      <trkpt lat="38.258325" lon="-1.656869">
        <ele>246.0</ele>
        <time>2023-04-16T08:03:50Z</time>
      </trkpt>
      <trkpt lat="38.258296" lon="-1.656770">
        <ele>246.0</ele>
        <time>2023-04-16T08:03:55Z</time>
      </trkpt>
      <trkpt lat="38.258273" lon="-1.656685">
        <ele>247.0</ele>
        <time>2023-04-16T08:04:00Z</time>
      </trkpt>
      <trkpt lat="38.258252" lon="-1.656598">
        <ele>246.0</ele>
        <time>2023-04-16T08:04:06Z</time>
      </trkpt>
      <trkpt lat="38.258249" lon="-1.656505">
        <ele>245.8</ele>
        <time>2023-04-16T08:04:11Z</time>
      </trkpt>
      <trkpt lat="38.258240" lon="-1.656418">
        <ele>245.0</ele>
        <time>2023-04-16T08:04:16Z</time>
      </trkpt>
      <trkpt lat="38.258238" lon="-1.656324">
        <ele>244.1</ele>
        <time>2023-04-16T08:04:20Z</time>
      </trkpt>
      <trkpt lat="38.258251" lon="-1.656238">
        <ele>242.3</ele>
        <time>2023-04-16T08:04:25Z</time>
      </trkpt>
      <trkpt lat="38.258282" lon="-1.656158">
        <ele>240.3</ele>
        <time>2023-04-16T08:04:31Z</time>
      </trkpt>
      <trkpt lat="38.258316" lon="-1.656083">
        <ele>241.8</ele>
        <time>2023-04-16T08:05:05Z</time>
      </trkpt>
      <trkpt lat="38.258325" lon="-1.655984">
        <ele>242.0</ele>
        <time>2023-04-16T08:05:10Z</time>
      </trkpt>
      <trkpt lat="38.258364" lon="-1.655908">
        <ele>241.1</ele>
        <time>2023-04-16T08:05:15Z</time>
      </trkpt>
      <trkpt lat="38.258394" lon="-1.655833">
        <ele>240.1</ele>
        <time>2023-04-16T08:05:20Z</time>
      </trkpt>
      <trkpt lat="38.258424" lon="-1.655750">
        <ele>238.1</ele>
        <time>2023-04-16T08:05:25Z</time>
      </trkpt>
      <trkpt lat="38.258450" lon="-1.655657">
        <ele>237.3</ele>
        <time>2023-04-16T08:05:30Z</time>
      </trkpt>
      <trkpt lat="38.258473" lon="-1.655578">
        <ele>237.0</ele>
        <time>2023-04-16T08:05:35Z</time>
      </trkpt>
      <trkpt lat="38.258500" lon="-1.655494">
        <ele>237.0</ele>
        <time>2023-04-16T08:05:40Z</time>
      </trkpt>
      <trkpt lat="38.258543" lon="-1.655418">
        <ele>237.0</ele>
        <time>2023-04-16T08:05:45Z</time>
      </trkpt>
      <trkpt lat="38.258589" lon="-1.655339">
        <ele>237.0</ele>
        <time>2023-04-16T08:05:50Z</time>
      </trkpt>
      <trkpt lat="38.258638" lon="-1.655260">
        <ele>237.0</ele>
        <time>2023-04-16T08:05:55Z</time>
      </trkpt>
      <trkpt lat="38.258675" lon="-1.655194">
        <ele>237.0</ele>
        <time>2023-04-16T08:05:59Z</time>
      </trkpt>
      <trkpt lat="38.258718" lon="-1.655118">
        <ele>237.0</ele>
        <time>2023-04-16T08:06:04Z</time>
      </trkpt>
      <trkpt lat="38.258754" lon="-1.655051">
        <ele>236.3</ele>
        <time>2023-04-16T08:06:08Z</time>
      </trkpt>
      <trkpt lat="38.258788" lon="-1.654978">
        <ele>236.0</ele>
        <time>2023-04-16T08:06:13Z</time>
      </trkpt>
      <trkpt lat="38.258818" lon="-1.654893">
        <ele>236.0</ele>
        <time>2023-04-16T08:06:18Z</time>
      </trkpt>
      <trkpt lat="38.258835" lon="-1.654807">
        <ele>236.0</ele>
        <time>2023-04-16T08:06:22Z</time>
      </trkpt>
      <trkpt lat="38.258861" lon="-1.654720">
        <ele>236.0</ele>
        <time>2023-04-16T08:06:27Z</time>
      </trkpt>
      <trkpt lat="38.258878" lon="-1.654637">
        <ele>236.0</ele>
        <time>2023-04-16T08:06:32Z</time>
      </trkpt>
      <trkpt lat="38.258890" lon="-1.654554">
        <ele>236.0</ele>
        <time>2023-04-16T08:06:36Z</time>
      </trkpt>
      <trkpt lat="38.258897" lon="-1.654451">
        <ele>237.0</ele>
        <time>2023-04-16T08:06:41Z</time>
      </trkpt>
      <trkpt lat="38.258861" lon="-1.654353">
        <ele>238.0</ele>
        <time>2023-04-16T08:06:46Z</time>
      </trkpt>
      <trkpt lat="38.258831" lon="-1.654279">
        <ele>239.0</ele>
        <time>2023-04-16T08:06:50Z</time>
      </trkpt>
      <trkpt lat="38.258800" lon="-1.654197">
        <ele>240.9</ele>
        <time>2023-04-16T08:06:54Z</time>
      </trkpt>
      <trkpt lat="38.258760" lon="-1.654134">
        <ele>242.0</ele>
        <time>2023-04-16T08:06:58Z</time>
      </trkpt>
      <trkpt lat="38.258710" lon="-1.654071">
        <ele>244.0</ele>
        <time>2023-04-16T08:07:03Z</time>
      </trkpt>
      <trkpt lat="38.258668" lon="-1.654006">
        <ele>246.0</ele>
        <time>2023-04-16T08:07:07Z</time>
      </trkpt>
      <trkpt lat="38.258622" lon="-1.653939">
        <ele>247.0</ele>
        <time>2023-04-16T08:07:11Z</time>
      </trkpt>
      <trkpt lat="38.258563" lon="-1.653858">
        <ele>248.0</ele>
        <time>2023-04-16T08:07:16Z</time>
      </trkpt>
      <trkpt lat="38.258516" lon="-1.653788">
        <ele>248.0</ele>
        <time>2023-04-16T08:07:22Z</time>
      </trkpt>
      <trkpt lat="38.258480" lon="-1.653719">
        <ele>248.1</ele>
        <time>2023-04-16T08:07:27Z</time>
      </trkpt>
      <trkpt lat="38.258435" lon="-1.653654">
        <ele>248.0</ele>
        <time>2023-04-16T08:07:31Z</time>
      </trkpt>
      <trkpt lat="38.258387" lon="-1.653581">
        <ele>248.0</ele>
        <time>2023-04-16T08:07:36Z</time>
      </trkpt>
      <trkpt lat="38.258334" lon="-1.653500">
        <ele>249.0</ele>
        <time>2023-04-16T08:07:41Z</time>
      </trkpt>
      <trkpt lat="38.258292" lon="-1.653434">
        <ele>248.9</ele>
        <time>2023-04-16T08:07:47Z</time>
      </trkpt>
      <trkpt lat="38.258248" lon="-1.653368">
        <ele>249.0</ele>
        <time>2023-04-16T08:07:51Z</time>
      </trkpt>
      <trkpt lat="38.258200" lon="-1.653314">
        <ele>250.0</ele>
        <time>2023-04-16T08:07:55Z</time>
      </trkpt>
      <trkpt lat="38.258154" lon="-1.653241">
        <ele>251.0</ele>
        <time>2023-04-16T08:08:00Z</time>
      </trkpt>
      <trkpt lat="38.258110" lon="-1.653172">
        <ele>252.0</ele>
        <time>2023-04-16T08:08:04Z</time>
      </trkpt>
      <trkpt lat="38.258059" lon="-1.653111">
        <ele>254.0</ele>
        <time>2023-04-16T08:08:08Z</time>
      </trkpt>
      <trkpt lat="38.258004" lon="-1.653048">
        <ele>255.8</ele>
        <time>2023-04-16T08:08:13Z</time>
      </trkpt>
      <trkpt lat="38.257951" lon="-1.652999">
        <ele>255.8</ele>
        <time>2023-04-16T08:08:18Z</time>
      </trkpt>
      <trkpt lat="38.257889" lon="-1.652940">
        <ele>255.0</ele>
        <time>2023-04-16T08:08:35Z</time>
      </trkpt>
      <trkpt lat="38.257818" lon="-1.652910">
        <ele>254.3</ele>
        <time>2023-04-16T08:08:40Z</time>
      </trkpt>
      <trkpt lat="38.257762" lon="-1.652855">
        <ele>253.1</ele>
        <time>2023-04-16T08:08:46Z</time>
      </trkpt>
      <trkpt lat="38.257693" lon="-1.652813">
        <ele>251.3</ele>
        <time>2023-04-16T08:08:51Z</time>
      </trkpt>
      <trkpt lat="38.257632" lon="-1.652766">
        <ele>250.8</ele>
        <time>2023-04-16T08:08:56Z</time>
      </trkpt>
      <trkpt lat="38.257560" lon="-1.652724">
        <ele>250.0</ele>
        <time>2023-04-16T08:09:02Z</time>
      </trkpt>
      <trkpt lat="38.257499" lon="-1.652689">
        <ele>251.0</ele>
        <time>2023-04-16T08:09:08Z</time>
      </trkpt>
      <trkpt lat="38.257430" lon="-1.652639">
        <ele>249.4</ele>
        <time>2023-04-16T08:09:12Z</time>
      </trkpt>
      <trkpt lat="38.257377" lon="-1.652595">
        <ele>250.7</ele>
        <time>2023-04-16T08:09:15Z</time>
      </trkpt>
      <trkpt lat="38.257319" lon="-1.652561">
        <ele>253.5</ele>
        <time>2023-04-16T08:09:19Z</time>
      </trkpt>
      <trkpt lat="38.257252" lon="-1.652517">
        <ele>255.0</ele>
        <time>2023-04-16T08:09:24Z</time>
      </trkpt>
      <trkpt lat="38.257191" lon="-1.652465">
        <ele>255.8</ele>
        <time>2023-04-16T08:09:29Z</time>
      </trkpt>
      <trkpt lat="38.257132" lon="-1.652432">
        <ele>256.8</ele>
        <time>2023-04-16T08:09:33Z</time>
      </trkpt>
      <trkpt lat="38.257074" lon="-1.652402">
        <ele>257.8</ele>
        <time>2023-04-16T08:09:37Z</time>
      </trkpt>
      <trkpt lat="38.257008" lon="-1.652370">
        <ele>259.0</ele>
        <time>2023-04-16T08:09:42Z</time>
      </trkpt>
      <trkpt lat="38.256946" lon="-1.652333">
        <ele>253.1</ele>
        <time>2023-04-16T08:10:00Z</time>
      </trkpt>
      <trkpt lat="38.256879" lon="-1.652309">
        <ele>251.0</ele>
        <time>2023-04-16T08:10:24Z</time>
      </trkpt>
      <trkpt lat="38.256802" lon="-1.652299">
        <ele>252.0</ele>
        <time>2023-04-16T08:10:30Z</time>
      </trkpt>
      <trkpt lat="38.256738" lon="-1.652291">
        <ele>253.8</ele>
        <time>2023-04-16T08:10:34Z</time>
      </trkpt>
      <trkpt lat="38.256672" lon="-1.652258">
        <ele>253.3</ele>
        <time>2023-04-16T08:10:39Z</time>
      </trkpt>
      <trkpt lat="38.256614" lon="-1.652215">
        <ele>254.0</ele>
        <time>2023-04-16T08:10:45Z</time>
      </trkpt>
      <trkpt lat="38.256554" lon="-1.652186">
        <ele>252.3</ele>
        <time>2023-04-16T08:10:59Z</time>
      </trkpt>
      <trkpt lat="38.256514" lon="-1.652113">
        <ele>253.0</ele>
        <time>2023-04-16T08:11:13Z</time>
      </trkpt>
      <trkpt lat="38.256515" lon="-1.652030">
        <ele>250.3</ele>
        <time>2023-04-16T08:11:17Z</time>
      </trkpt>
      <trkpt lat="38.256490" lon="-1.651947">
        <ele>250.0</ele>
        <time>2023-04-16T08:11:22Z</time>
      </trkpt>
      <trkpt lat="38.256508" lon="-1.651869">
        <ele>249.1</ele>
        <time>2023-04-16T08:11:26Z</time>
      </trkpt>
      <trkpt lat="38.256528" lon="-1.651773">
        <ele>248.1</ele>
        <time>2023-04-16T08:11:32Z</time>
      </trkpt>
      <trkpt lat="38.256552" lon="-1.651678">
        <ele>247.1</ele>
        <time>2023-04-16T08:11:37Z</time>
      </trkpt>
      <trkpt lat="38.256575" lon="-1.651590">
        <ele>245.1</ele>
        <time>2023-04-16T08:11:44Z</time>
      </trkpt>
      <trkpt lat="38.256590" lon="-1.651506">
        <ele>243.1</ele>
        <time>2023-04-16T08:11:49Z</time>
      </trkpt>
      <trkpt lat="38.256610" lon="-1.651413">
        <ele>243.3</ele>
        <time>2023-04-16T08:11:55Z</time>
      </trkpt>
      <trkpt lat="38.256631" lon="-1.651324">
        <ele>243.0</ele>
        <time>2023-04-16T08:12:00Z</time>
      </trkpt>
      <trkpt lat="38.256643" lon="-1.651241">
        <ele>242.8</ele>
        <time>2023-04-16T08:12:05Z</time>
      </trkpt>
      <trkpt lat="38.256668" lon="-1.651157">
        <ele>242.0</ele>
        <time>2023-04-16T08:12:10Z</time>
      </trkpt>
      <trkpt lat="38.256680" lon="-1.651057">
        <ele>241.8</ele>
        <time>2023-04-16T08:12:16Z</time>
      </trkpt>
      <trkpt lat="38.256689" lon="-1.650967">
        <ele>242.0</ele>
        <time>2023-04-16T08:12:21Z</time>
      </trkpt>
      <trkpt lat="38.256706" lon="-1.650884">
        <ele>241.3</ele>
        <time>2023-04-16T08:12:26Z</time>
      </trkpt>
      <trkpt lat="38.256723" lon="-1.650793">
        <ele>242.0</ele>
        <time>2023-04-16T08:12:31Z</time>
      </trkpt>
      <trkpt lat="38.256744" lon="-1.650714">
        <ele>243.0</ele>
        <time>2023-04-16T08:12:35Z</time>
      </trkpt>
      <trkpt lat="38.256760" lon="-1.650627">
        <ele>242.1</ele>
        <time>2023-04-16T08:12:40Z</time>
      </trkpt>
      <trkpt lat="38.256778" lon="-1.650546">
        <ele>241.1</ele>
        <time>2023-04-16T08:12:45Z</time>
      </trkpt>
      <trkpt lat="38.256769" lon="-1.650459">
        <ele>241.1</ele>
        <time>2023-04-16T08:12:49Z</time>
      </trkpt>
      <trkpt lat="38.256772" lon="-1.650366">
        <ele>241.8</ele>
        <time>2023-04-16T08:12:54Z</time>
      </trkpt>
      <trkpt lat="38.256791" lon="-1.650287">
        <ele>241.9</ele>
        <time>2023-04-16T08:12:58Z</time>
      </trkpt>
      <trkpt lat="38.256797" lon="-1.650196">
        <ele>243.0</ele>
        <time>2023-04-16T08:13:05Z</time>
      </trkpt>
      <trkpt lat="38.256807" lon="-1.650113">
        <ele>241.3</ele>
        <time>2023-04-16T08:13:10Z</time>
      </trkpt>
      <trkpt lat="38.256822" lon="-1.650027">
        <ele>241.0</ele>
        <time>2023-04-16T08:13:15Z</time>
      </trkpt>
      <trkpt lat="38.256841" lon="-1.649931">
        <ele>241.8</ele>
        <time>2023-04-16T08:13:20Z</time>
      </trkpt>
      <trkpt lat="38.256861" lon="-1.649839">
        <ele>242.0</ele>
        <time>2023-04-16T08:13:25Z</time>
      </trkpt>
      <trkpt lat="38.256875" lon="-1.649746">
        <ele>242.1</ele>
        <time>2023-04-16T08:13:30Z</time>
      </trkpt>
      <trkpt lat="38.256890" lon="-1.649661">
        <ele>242.1</ele>
        <time>2023-04-16T08:13:35Z</time>
      </trkpt>
      <trkpt lat="38.256901" lon="-1.649572">
        <ele>242.1</ele>
        <time>2023-04-16T08:13:40Z</time>
      </trkpt>
      <trkpt lat="38.256921" lon="-1.649494">
        <ele>241.1</ele>
        <time>2023-04-16T08:13:45Z</time>
      </trkpt>
      <trkpt lat="38.256950" lon="-1.649417">
        <ele>241.0</ele>
        <time>2023-04-16T08:13:50Z</time>
      </trkpt>
      <trkpt lat="38.256983" lon="-1.649344">
        <ele>241.0</ele>
        <time>2023-04-16T08:13:55Z</time>
      </trkpt>
      <trkpt lat="38.257010" lon="-1.649266">
        <ele>241.1</ele>
        <time>2023-04-16T08:14:00Z</time>
      </trkpt>
      <trkpt lat="38.257025" lon="-1.649178">
        <ele>242.0</ele>
        <time>2023-04-16T08:14:05Z</time>
      </trkpt>
      <trkpt lat="38.257049" lon="-1.649085">
        <ele>242.1</ele>
        <time>2023-04-16T08:14:10Z</time>
      </trkpt>
      <trkpt lat="38.257076" lon="-1.649003">
        <ele>242.1</ele>
        <time>2023-04-16T08:14:15Z</time>
      </trkpt>
      <trkpt lat="38.257097" lon="-1.648925">
        <ele>243.0</ele>
        <time>2023-04-16T08:14:20Z</time>
      </trkpt>
      <trkpt lat="38.257135" lon="-1.648854">
        <ele>242.1</ele>
        <time>2023-04-16T08:14:25Z</time>
      </trkpt>
      <trkpt lat="38.257158" lon="-1.648774">
        <ele>242.8</ele>
        <time>2023-04-16T08:14:30Z</time>
      </trkpt>
      <trkpt lat="38.257183" lon="-1.648695">
        <ele>242.1</ele>
        <time>2023-04-16T08:14:35Z</time>
      </trkpt>
      <trkpt lat="38.257225" lon="-1.648631">
        <ele>240.9</ele>
        <time>2023-04-16T08:14:41Z</time>
      </trkpt>
      <trkpt lat="38.257225" lon="-1.648545">
        <ele>242.1</ele>
        <time>2023-04-16T08:14:56Z</time>
      </trkpt>
      <trkpt lat="38.257272" lon="-1.648491">
        <ele>242.9</ele>
        <time>2023-04-16T08:15:02Z</time>
      </trkpt>
      <trkpt lat="38.257315" lon="-1.648428">
        <ele>242.1</ele>
        <time>2023-04-16T08:15:07Z</time>
      </trkpt>
      <trkpt lat="38.257355" lon="-1.648344">
        <ele>245.0</ele>
        <time>2023-04-16T08:15:26Z</time>
      </trkpt>
      <trkpt lat="38.257411" lon="-1.648289">
        <ele>245.1</ele>
        <time>2023-04-16T08:15:32Z</time>
      </trkpt>
      <trkpt lat="38.257470" lon="-1.648248">
        <ele>244.1</ele>
        <time>2023-04-16T08:15:37Z</time>
      </trkpt>
      <trkpt lat="38.257526" lon="-1.648202">
        <ele>243.1</ele>
        <time>2023-04-16T08:15:42Z</time>
      </trkpt>
      <trkpt lat="38.257584" lon="-1.648148">
        <ele>245.0</ele>
        <time>2023-04-16T08:15:47Z</time>
      </trkpt>
      <trkpt lat="38.257639" lon="-1.648102">
        <ele>246.8</ele>
        <time>2023-04-16T08:15:53Z</time>
      </trkpt>
      <trkpt lat="38.257701" lon="-1.648067">
        <ele>247.8</ele>
        <time>2023-04-16T08:15:59Z</time>
      </trkpt>
      <trkpt lat="38.257752" lon="-1.648008">
        <ele>245.1</ele>
        <time>2023-04-16T08:16:32Z</time>
      </trkpt>
      <trkpt lat="38.257777" lon="-1.647927">
        <ele>245.8</ele>
        <time>2023-04-16T08:16:38Z</time>
      </trkpt>
      <trkpt lat="38.257841" lon="-1.647907">
        <ele>245.3</ele>
        <time>2023-04-16T08:16:43Z</time>
      </trkpt>
      <trkpt lat="38.257909" lon="-1.647866">
        <ele>243.8</ele>
        <time>2023-04-16T08:16:49Z</time>
      </trkpt>
      <trkpt lat="38.257968" lon="-1.647829">
        <ele>243.1</ele>
        <time>2023-04-16T08:16:56Z</time>
      </trkpt>
      <trkpt lat="38.258032" lon="-1.647793">
        <ele>244.1</ele>
        <time>2023-04-16T08:17:02Z</time>
      </trkpt>
      <trkpt lat="38.258103" lon="-1.647768">
        <ele>245.1</ele>
        <time>2023-04-16T08:17:09Z</time>
      </trkpt>
      <trkpt lat="38.258164" lon="-1.647743">
        <ele>246.0</ele>
        <time>2023-04-16T08:17:14Z</time>
      </trkpt>
      <trkpt lat="38.258221" lon="-1.647708">
        <ele>246.1</ele>
        <time>2023-04-16T08:17:20Z</time>
      </trkpt>
      <trkpt lat="38.258290" lon="-1.647669">
        <ele>247.0</ele>
        <time>2023-04-16T08:17:29Z</time>
      </trkpt>
      <trkpt lat="38.258362" lon="-1.647639">
        <ele>247.1</ele>
        <time>2023-04-16T08:17:34Z</time>
      </trkpt>
      <trkpt lat="38.258428" lon="-1.647600">
        <ele>246.1</ele>
        <time>2023-04-16T08:17:42Z</time>
      </trkpt>
      <trkpt lat="38.258498" lon="-1.647584">
        <ele>246.3</ele>
        <time>2023-04-16T08:17:48Z</time>
      </trkpt>
      <trkpt lat="38.258563" lon="-1.647558">
        <ele>246.1</ele>
        <time>2023-04-16T08:17:54Z</time>
      </trkpt>
      <trkpt lat="38.258622" lon="-1.647525">
        <ele>245.8</ele>
        <time>2023-04-16T08:18:00Z</time>
      </trkpt>
      <trkpt lat="38.258684" lon="-1.647496">
        <ele>246.1</ele>
        <time>2023-04-16T08:18:05Z</time>
      </trkpt>
      <trkpt lat="38.258746" lon="-1.647472">
        <ele>247.0</ele>
        <time>2023-04-16T08:18:11Z</time>
      </trkpt>
      <trkpt lat="38.258818" lon="-1.647448">
        <ele>246.1</ele>
        <time>2023-04-16T08:18:17Z</time>
      </trkpt>
      <trkpt lat="38.258882" lon="-1.647411">
        <ele>246.1</ele>
        <time>2023-04-16T08:18:23Z</time>
      </trkpt>
      <trkpt lat="38.258939" lon="-1.647377">
        <ele>246.0</ele>
        <time>2023-04-16T08:18:28Z</time>
      </trkpt>
      <trkpt lat="38.259000" lon="-1.647347">
        <ele>245.1</ele>
        <time>2023-04-16T08:18:33Z</time>
      </trkpt>
      <trkpt lat="38.259073" lon="-1.647316">
        <ele>246.0</ele>
        <time>2023-04-16T08:18:39Z</time>
      </trkpt>
      <trkpt lat="38.259137" lon="-1.647289">
        <ele>247.1</ele>
        <time>2023-04-16T08:18:46Z</time>
      </trkpt>
      <trkpt lat="38.259199" lon="-1.647253">
        <ele>246.3</ele>
        <time>2023-04-16T08:18:52Z</time>
      </trkpt>
      <trkpt lat="38.259262" lon="-1.647218">
        <ele>246.1</ele>
        <time>2023-04-16T08:18:57Z</time>
      </trkpt>
      <trkpt lat="38.259311" lon="-1.647165">
        <ele>246.1</ele>
        <time>2023-04-16T08:19:07Z</time>
      </trkpt>
      <trkpt lat="38.259377" lon="-1.647110">
        <ele>245.1</ele>
        <time>2023-04-16T08:19:20Z</time>
      </trkpt>
      <trkpt lat="38.259422" lon="-1.647048">
        <ele>244.1</ele>
        <time>2023-04-16T08:19:25Z</time>
      </trkpt>
      <trkpt lat="38.259459" lon="-1.646982">
        <ele>243.1</ele>
        <time>2023-04-16T08:19:30Z</time>
      </trkpt>
      <trkpt lat="38.259481" lon="-1.646894">
        <ele>243.1</ele>
        <time>2023-04-16T08:19:35Z</time>
      </trkpt>
      <trkpt lat="38.259497" lon="-1.646803">
        <ele>242.1</ele>
        <time>2023-04-16T08:19:42Z</time>
      </trkpt>
      <trkpt lat="38.259501" lon="-1.646723">
        <ele>241.2</ele>
        <time>2023-04-16T08:19:47Z</time>
      </trkpt>
      <trkpt lat="38.259500" lon="-1.646636">
        <ele>242.1</ele>
        <time>2023-04-16T08:20:00Z</time>
      </trkpt>
      <trkpt lat="38.259500" lon="-1.646667">
        <ele>245.0</ele>
        <time>2023-04-16T08:31:30Z</time>
      </trkpt>
      <trkpt lat="38.259509" lon="-1.646669">
        <ele>245.0</ele>
        <time>2023-04-16T08:40:40Z</time>
      </trkpt>
      <trkpt lat="38.259477" lon="-1.646652">
        <ele>244.8</ele>
        <time>2023-04-16T08:43:00Z</time>
      </trkpt>
      <trkpt lat="38.259514" lon="-1.646579">
        <ele>243.1</ele>
        <time>2023-04-16T08:44:31Z</time>
      </trkpt>
      <trkpt lat="38.259497" lon="-1.646496">
        <ele>242.8</ele>
        <time>2023-04-16T08:44:56Z</time>
      </trkpt>
      <trkpt lat="38.259517" lon="-1.646414">
        <ele>245.1</ele>
        <time>2023-04-16T08:45:12Z</time>
      </trkpt>
      <trkpt lat="38.259501" lon="-1.646324">
        <ele>240.1</ele>
        <time>2023-04-16T08:45:33Z</time>
      </trkpt>
      <trkpt lat="38.259487" lon="-1.646238">
        <ele>240.1</ele>
        <time>2023-04-16T08:45:39Z</time>
      </trkpt>
      <trkpt lat="38.259465" lon="-1.646149">
        <ele>241.0</ele>
        <time>2023-04-16T08:45:46Z</time>
      </trkpt>
      <trkpt lat="38.259440" lon="-1.646069">
        <ele>241.1</ele>
        <time>2023-04-16T08:45:52Z</time>
      </trkpt>
      <trkpt lat="38.259420" lon="-1.645983">
        <ele>241.8</ele>
        <time>2023-04-16T08:45:59Z</time>
      </trkpt>
      <trkpt lat="38.259392" lon="-1.645907">
        <ele>242.1</ele>
        <time>2023-04-16T08:46:05Z</time>
      </trkpt>
      <trkpt lat="38.259362" lon="-1.645824">
        <ele>243.0</ele>
        <time>2023-04-16T08:46:13Z</time>
      </trkpt>
      <trkpt lat="38.259338" lon="-1.645742">
        <ele>244.1</ele>
        <time>2023-04-16T08:46:19Z</time>
      </trkpt>
      <trkpt lat="38.259303" lon="-1.645672">
        <ele>245.1</ele>
        <time>2023-04-16T08:46:25Z</time>
      </trkpt>
      <trkpt lat="38.259256" lon="-1.645604">
        <ele>243.4</ele>
        <time>2023-04-16T08:46:33Z</time>
      </trkpt>
      <trkpt lat="38.259214" lon="-1.645526">
        <ele>243.1</ele>
        <time>2023-04-16T08:46:39Z</time>
      </trkpt>
      <trkpt lat="38.259197" lon="-1.645443">
        <ele>243.1</ele>
        <time>2023-04-16T08:46:46Z</time>
      </trkpt>
      <trkpt lat="38.259166" lon="-1.645364">
        <ele>239.1</ele>
        <time>2023-04-16T08:46:57Z</time>
      </trkpt>
      <trkpt lat="38.259118" lon="-1.645308">
        <ele>239.1</ele>
        <time>2023-04-16T08:47:03Z</time>
      </trkpt>
      <trkpt lat="38.259076" lon="-1.645239">
        <ele>238.3</ele>
        <time>2023-04-16T08:47:09Z</time>
      </trkpt>
      <trkpt lat="38.259030" lon="-1.645181">
        <ele>238.1</ele>
        <time>2023-04-16T08:47:14Z</time>
      </trkpt>
      <trkpt lat="38.258980" lon="-1.645122">
        <ele>237.1</ele>
        <time>2023-04-16T08:47:20Z</time>
      </trkpt>
      <trkpt lat="38.258936" lon="-1.645060">
        <ele>237.1</ele>
        <time>2023-04-16T08:47:25Z</time>
      </trkpt>
      <trkpt lat="38.258892" lon="-1.644984">
        <ele>237.1</ele>
        <time>2023-04-16T08:47:31Z</time>
      </trkpt>
      <trkpt lat="38.258850" lon="-1.644920">
        <ele>237.3</ele>
        <time>2023-04-16T08:47:38Z</time>
      </trkpt>
      <trkpt lat="38.258783" lon="-1.644910">
        <ele>239.8</ele>
        <time>2023-04-16T08:47:45Z</time>
      </trkpt>
      <trkpt lat="38.258733" lon="-1.644847">
        <ele>239.3</ele>
        <time>2023-04-16T08:47:51Z</time>
      </trkpt>
      <trkpt lat="38.258669" lon="-1.644841">
        <ele>241.7</ele>
        <time>2023-04-16T08:47:56Z</time>
      </trkpt>
      <trkpt lat="38.258601" lon="-1.644863">
        <ele>243.1</ele>
        <time>2023-04-16T08:48:03Z</time>
      </trkpt>
      <trkpt lat="38.258534" lon="-1.644898">
        <ele>244.1</ele>
        <time>2023-04-16T08:48:09Z</time>
      </trkpt>
      <trkpt lat="38.258470" lon="-1.644909">
        <ele>246.0</ele>
        <time>2023-04-16T08:48:14Z</time>
      </trkpt>
      <trkpt lat="38.258399" lon="-1.644898">
        <ele>247.1</ele>
        <time>2023-04-16T08:48:20Z</time>
      </trkpt>
      <trkpt lat="38.258334" lon="-1.644887">
        <ele>247.1</ele>
        <time>2023-04-16T08:48:25Z</time>
      </trkpt>
      <trkpt lat="38.258269" lon="-1.644869">
        <ele>246.1</ele>
        <time>2023-04-16T08:48:30Z</time>
      </trkpt>
      <trkpt lat="38.258190" lon="-1.644834">
        <ele>246.1</ele>
        <time>2023-04-16T08:48:36Z</time>
      </trkpt>
      <trkpt lat="38.258127" lon="-1.644792">
        <ele>245.1</ele>
        <time>2023-04-16T08:48:43Z</time>
      </trkpt>
      <trkpt lat="38.258071" lon="-1.644749">
        <ele>244.1</ele>
        <time>2023-04-16T08:48:48Z</time>
      </trkpt>
      <trkpt lat="38.258014" lon="-1.644699">
        <ele>244.1</ele>
        <time>2023-04-16T08:48:55Z</time>
      </trkpt>
      <trkpt lat="38.257942" lon="-1.644645">
        <ele>243.1</ele>
        <time>2023-04-16T08:49:01Z</time>
      </trkpt>
      <trkpt lat="38.257886" lon="-1.644602">
        <ele>245.0</ele>
        <time>2023-04-16T08:49:07Z</time>
      </trkpt>
      <trkpt lat="38.257833" lon="-1.644544">
        <ele>243.1</ele>
        <time>2023-04-16T08:49:12Z</time>
      </trkpt>
      <trkpt lat="38.257776" lon="-1.644500">
        <ele>243.1</ele>
        <time>2023-04-16T08:49:17Z</time>
      </trkpt>
      <trkpt lat="38.257717" lon="-1.644447">
        <ele>243.1</ele>
        <time>2023-04-16T08:49:22Z</time>
      </trkpt>
      <trkpt lat="38.257661" lon="-1.644387">
        <ele>242.3</ele>
        <time>2023-04-16T08:49:27Z</time>
      </trkpt>
      <trkpt lat="38.257609" lon="-1.644326">
        <ele>242.1</ele>
        <time>2023-04-16T08:49:33Z</time>
      </trkpt>
      <trkpt lat="38.257552" lon="-1.644265">
        <ele>239.1</ele>
        <time>2023-04-16T08:49:39Z</time>
      </trkpt>
      <trkpt lat="38.257509" lon="-1.644205">
        <ele>239.0</ele>
        <time>2023-04-16T08:49:44Z</time>
      </trkpt>
      <trkpt lat="38.257450" lon="-1.644150">
        <ele>237.4</ele>
        <time>2023-04-16T08:49:50Z</time>
      </trkpt>
      <trkpt lat="38.257397" lon="-1.644103">
        <ele>237.1</ele>
        <time>2023-04-16T08:49:54Z</time>
      </trkpt>
      <trkpt lat="38.257342" lon="-1.644034">
        <ele>237.1</ele>
        <time>2023-04-16T08:49:59Z</time>
      </trkpt>
      <trkpt lat="38.257291" lon="-1.643971">
        <ele>237.1</ele>
        <time>2023-04-16T08:50:04Z</time>
      </trkpt>
      <trkpt lat="38.257240" lon="-1.643919">
        <ele>237.1</ele>
        <time>2023-04-16T08:50:09Z</time>
      </trkpt>
      <trkpt lat="38.257178" lon="-1.643870">
        <ele>238.0</ele>
        <time>2023-04-16T08:50:14Z</time>
      </trkpt>
      <trkpt lat="38.257120" lon="-1.643826">
        <ele>237.3</ele>
        <time>2023-04-16T08:50:19Z</time>
      </trkpt>
      <trkpt lat="38.257066" lon="-1.643778">
        <ele>237.1</ele>
        <time>2023-04-16T08:50:24Z</time>
      </trkpt>
      <trkpt lat="38.257004" lon="-1.643726">
        <ele>238.8</ele>
        <time>2023-04-16T08:50:29Z</time>
      </trkpt>
      <trkpt lat="38.256943" lon="-1.643698">
        <ele>239.1</ele>
        <time>2023-04-16T08:50:34Z</time>
      </trkpt>
      <trkpt lat="38.256884" lon="-1.643654">
        <ele>238.1</ele>
        <time>2023-04-16T08:50:39Z</time>
      </trkpt>
      <trkpt lat="38.256819" lon="-1.643611">
        <ele>238.1</ele>
        <time>2023-04-16T08:50:45Z</time>
      </trkpt>
      <trkpt lat="38.256756" lon="-1.643572">
        <ele>238.3</ele>
        <time>2023-04-16T08:50:54Z</time>
      </trkpt>
      <trkpt lat="38.256690" lon="-1.643532">
        <ele>239.0</ele>
        <time>2023-04-16T08:51:00Z</time>
      </trkpt>
      <trkpt lat="38.256621" lon="-1.643508">
        <ele>238.1</ele>
        <time>2023-04-16T08:51:05Z</time>
      </trkpt>
      <trkpt lat="38.256550" lon="-1.643473">
        <ele>238.1</ele>
        <time>2023-04-16T08:51:10Z</time>
      </trkpt>
      <trkpt lat="38.256484" lon="-1.643447">
        <ele>237.3</ele>
        <time>2023-04-16T08:51:15Z</time>
      </trkpt>
      <trkpt lat="38.256412" lon="-1.643410">
        <ele>239.0</ele>
        <time>2023-04-16T08:51:21Z</time>
      </trkpt>
      <trkpt lat="38.256344" lon="-1.643381">
        <ele>239.1</ele>
        <time>2023-04-16T08:51:27Z</time>
      </trkpt>
      <trkpt lat="38.256291" lon="-1.643327">
        <ele>240.1</ele>
        <time>2023-04-16T08:51:33Z</time>
      </trkpt>
      <trkpt lat="38.256271" lon="-1.643251">
        <ele>240.1</ele>
        <time>2023-04-16T08:51:39Z</time>
      </trkpt>
      <trkpt lat="38.256244" lon="-1.643174">
        <ele>238.1</ele>
        <time>2023-04-16T08:51:44Z</time>
      </trkpt>
      <trkpt lat="38.256239" lon="-1.643088">
        <ele>235.1</ele>
        <time>2023-04-16T08:51:50Z</time>
      </trkpt>
      <trkpt lat="38.256249" lon="-1.643000">
        <ele>235.1</ele>
        <time>2023-04-16T08:51:56Z</time>
      </trkpt>
      <trkpt lat="38.256285" lon="-1.642901">
        <ele>235.1</ele>
        <time>2023-04-16T08:52:02Z</time>
      </trkpt>
      <trkpt lat="38.256307" lon="-1.642826">
        <ele>234.1</ele>
        <time>2023-04-16T08:52:08Z</time>
      </trkpt>
      <trkpt lat="38.256328" lon="-1.642750">
        <ele>233.1</ele>
        <time>2023-04-16T08:52:14Z</time>
      </trkpt>
      <trkpt lat="38.256355" lon="-1.642664">
        <ele>233.1</ele>
        <time>2023-04-16T08:52:20Z</time>
      </trkpt>
      <trkpt lat="38.256377" lon="-1.642578">
        <ele>234.1</ele>
        <time>2023-04-16T08:52:26Z</time>
      </trkpt>
      <trkpt lat="38.256398" lon="-1.642485">
        <ele>232.1</ele>
        <time>2023-04-16T08:52:32Z</time>
      </trkpt>
      <trkpt lat="38.256429" lon="-1.642412">
        <ele>232.1</ele>
        <time>2023-04-16T08:52:38Z</time>
      </trkpt>
      <trkpt lat="38.256473" lon="-1.642346">
        <ele>232.1</ele>
        <time>2023-04-16T08:52:43Z</time>
      </trkpt>
      <trkpt lat="38.256506" lon="-1.642276">
        <ele>231.1</ele>
        <time>2023-04-16T08:52:49Z</time>
      </trkpt>
      <trkpt lat="38.256537" lon="-1.642196">
        <ele>232.0</ele>
        <time>2023-04-16T08:52:55Z</time>
      </trkpt>
      <trkpt lat="38.256553" lon="-1.642118">
        <ele>232.1</ele>
        <time>2023-04-16T08:53:01Z</time>
      </trkpt>
      <trkpt lat="38.256578" lon="-1.642031">
        <ele>232.1</ele>
        <time>2023-04-16T08:53:07Z</time>
      </trkpt>
      <trkpt lat="38.256595" lon="-1.641952">
        <ele>232.1</ele>
        <time>2023-04-16T08:53:12Z</time>
      </trkpt>
      <trkpt lat="38.256610" lon="-1.641870">
        <ele>232.3</ele>
        <time>2023-04-16T08:53:17Z</time>
      </trkpt>
      <trkpt lat="38.256646" lon="-1.641801">
        <ele>231.1</ele>
        <time>2023-04-16T08:53:22Z</time>
      </trkpt>
      <trkpt lat="38.256693" lon="-1.641725">
        <ele>232.1</ele>
        <time>2023-04-16T08:53:27Z</time>
      </trkpt>
      <trkpt lat="38.256729" lon="-1.641654">
        <ele>232.8</ele>
        <time>2023-04-16T08:53:32Z</time>
      </trkpt>
      <trkpt lat="38.256775" lon="-1.641562">
        <ele>233.1</ele>
        <time>2023-04-16T08:53:38Z</time>
      </trkpt>
      <trkpt lat="38.256826" lon="-1.641498">
        <ele>233.1</ele>
        <time>2023-04-16T08:53:43Z</time>
      </trkpt>
      <trkpt lat="38.256870" lon="-1.641428">
        <ele>234.1</ele>
        <time>2023-04-16T08:53:49Z</time>
      </trkpt>
      <trkpt lat="38.256920" lon="-1.641362">
        <ele>234.0</ele>
        <time>2023-04-16T08:53:55Z</time>
      </trkpt>
      <trkpt lat="38.256966" lon="-1.641307">
        <ele>234.8</ele>
        <time>2023-04-16T08:53:59Z</time>
      </trkpt>
      <trkpt lat="38.257020" lon="-1.641248">
        <ele>235.1</ele>
        <time>2023-04-16T08:54:05Z</time>
      </trkpt>
      <trkpt lat="38.257068" lon="-1.641186">
        <ele>234.3</ele>
        <time>2023-04-16T08:54:11Z</time>
      </trkpt>
      <trkpt lat="38.257110" lon="-1.641120">
        <ele>234.1</ele>
        <time>2023-04-16T08:54:16Z</time>
      </trkpt>
      <trkpt lat="38.257154" lon="-1.641056">
        <ele>237.0</ele>
        <time>2023-04-16T08:54:21Z</time>
      </trkpt>
      <trkpt lat="38.257204" lon="-1.640996">
        <ele>238.1</ele>
        <time>2023-04-16T08:54:26Z</time>
      </trkpt>
      <trkpt lat="38.257248" lon="-1.640919">
        <ele>239.0</ele>
        <time>2023-04-16T08:54:32Z</time>
      </trkpt>
      <trkpt lat="38.257288" lon="-1.640845">
        <ele>237.1</ele>
        <time>2023-04-16T08:54:38Z</time>
      </trkpt>
      <trkpt lat="38.257333" lon="-1.640771">
        <ele>236.3</ele>
        <time>2023-04-16T08:54:43Z</time>
      </trkpt>
      <trkpt lat="38.257377" lon="-1.640691">
        <ele>236.1</ele>
        <time>2023-04-16T08:54:49Z</time>
      </trkpt>
      <trkpt lat="38.257419" lon="-1.640629">
        <ele>235.1</ele>
        <time>2023-04-16T08:54:54Z</time>
      </trkpt>
      <trkpt lat="38.257449" lon="-1.640555">
        <ele>235.1</ele>
        <time>2023-04-16T08:55:01Z</time>
      </trkpt>
      <trkpt lat="38.257496" lon="-1.640480">
        <ele>234.1</ele>
        <time>2023-04-16T08:55:07Z</time>
      </trkpt>
      <trkpt lat="38.257546" lon="-1.640418">
        <ele>234.1</ele>
        <time>2023-04-16T08:55:12Z</time>
      </trkpt>
      <trkpt lat="38.257582" lon="-1.640350">
        <ele>234.1</ele>
        <time>2023-04-16T08:55:17Z</time>
      </trkpt>
      <trkpt lat="38.257626" lon="-1.640286">
        <ele>233.1</ele>
        <time>2023-04-16T08:55:22Z</time>
      </trkpt>
      <trkpt lat="38.257677" lon="-1.640235">
        <ele>233.8</ele>
        <time>2023-04-16T08:55:27Z</time>
      </trkpt>
      <trkpt lat="38.257734" lon="-1.640190">
        <ele>233.1</ele>
        <time>2023-04-16T08:55:33Z</time>
      </trkpt>
      <trkpt lat="38.257773" lon="-1.640122">
        <ele>234.1</ele>
        <time>2023-04-16T08:55:39Z</time>
      </trkpt>
      <trkpt lat="38.257821" lon="-1.640046">
        <ele>235.0</ele>
        <time>2023-04-16T08:55:44Z</time>
      </trkpt>
      <trkpt lat="38.257880" lon="-1.639985">
        <ele>235.1</ele>
        <time>2023-04-16T08:55:49Z</time>
      </trkpt>
      <trkpt lat="38.257939" lon="-1.639914">
        <ele>234.1</ele>
        <time>2023-04-16T08:55:55Z</time>
      </trkpt>
      <trkpt lat="38.257988" lon="-1.639847">
        <ele>234.1</ele>
        <time>2023-04-16T08:56:02Z</time>
      </trkpt>
      <trkpt lat="38.258034" lon="-1.639780">
        <ele>234.1</ele>
        <time>2023-04-16T08:56:09Z</time>
      </trkpt>
      <trkpt lat="38.258085" lon="-1.639714">
        <ele>233.1</ele>
        <time>2023-04-16T08:56:14Z</time>
      </trkpt>
      <trkpt lat="38.258129" lon="-1.639655">
        <ele>233.1</ele>
        <time>2023-04-16T08:56:19Z</time>
      </trkpt>
      <trkpt lat="38.258167" lon="-1.639590">
        <ele>232.1</ele>
        <time>2023-04-16T08:56:24Z</time>
      </trkpt>
      <trkpt lat="38.258218" lon="-1.639534">
        <ele>231.1</ele>
        <time>2023-04-16T08:56:30Z</time>
      </trkpt>
      <trkpt lat="38.258269" lon="-1.639477">
        <ele>234.3</ele>
        <time>2023-04-16T08:57:06Z</time>
      </trkpt>
      <trkpt lat="38.258279" lon="-1.639385">
        <ele>233.9</ele>
        <time>2023-04-16T08:57:15Z</time>
      </trkpt>
      <trkpt lat="38.258282" lon="-1.639303">
        <ele>236.8</ele>
        <time>2023-04-16T08:57:22Z</time>
      </trkpt>
      <trkpt lat="38.258278" lon="-1.639220">
        <ele>238.8</ele>
        <time>2023-04-16T08:57:29Z</time>
      </trkpt>
      <trkpt lat="38.258279" lon="-1.639138">
        <ele>240.1</ele>
        <time>2023-04-16T08:57:35Z</time>
      </trkpt>
      <trkpt lat="38.258286" lon="-1.639051">
        <ele>240.3</ele>
        <time>2023-04-16T08:57:42Z</time>
      </trkpt>
      <trkpt lat="38.258286" lon="-1.638962">
        <ele>241.1</ele>
        <time>2023-04-16T08:57:49Z</time>
      </trkpt>
      <trkpt lat="38.258284" lon="-1.638878">
        <ele>241.1</ele>
        <time>2023-04-16T08:57:55Z</time>
      </trkpt>
      <trkpt lat="38.258281" lon="-1.638779">
        <ele>241.1</ele>
        <time>2023-04-16T08:58:01Z</time>
      </trkpt>
      <trkpt lat="38.258272" lon="-1.638697">
        <ele>241.1</ele>
        <time>2023-04-16T08:58:08Z</time>
      </trkpt>
      <trkpt lat="38.258260" lon="-1.638608">
        <ele>240.1</ele>
        <time>2023-04-16T08:58:14Z</time>
      </trkpt>
      <trkpt lat="38.258255" lon="-1.638525">
        <ele>241.1</ele>
        <time>2023-04-16T08:58:19Z</time>
      </trkpt>
      <trkpt lat="38.258253" lon="-1.638429">
        <ele>239.1</ele>
        <time>2023-04-16T08:58:25Z</time>
      </trkpt>
      <trkpt lat="38.258247" lon="-1.638333">
        <ele>240.1</ele>
        <time>2023-04-16T08:58:31Z</time>
      </trkpt>
      <trkpt lat="38.258233" lon="-1.638245">
        <ele>240.8</ele>
        <time>2023-04-16T08:58:37Z</time>
      </trkpt>
      <trkpt lat="38.258219" lon="-1.638155">
        <ele>241.1</ele>
        <time>2023-04-16T08:58:43Z</time>
      </trkpt>
      <trkpt lat="38.258210" lon="-1.638066">
        <ele>241.1</ele>
        <time>2023-04-16T08:58:48Z</time>
      </trkpt>
      <trkpt lat="38.258205" lon="-1.637986">
        <ele>241.1</ele>
        <time>2023-04-16T08:58:53Z</time>
      </trkpt>
      <trkpt lat="38.258211" lon="-1.637897">
        <ele>240.8</ele>
        <time>2023-04-16T08:58:59Z</time>
      </trkpt>
      <trkpt lat="38.258190" lon="-1.637813">
        <ele>238.1</ele>
        <time>2023-04-16T08:59:21Z</time>
      </trkpt>
      <trkpt lat="38.258173" lon="-1.637726">
        <ele>239.1</ele>
        <time>2023-04-16T08:59:28Z</time>
      </trkpt>
      <trkpt lat="38.258164" lon="-1.637633">
        <ele>239.3</ele>
        <time>2023-04-16T08:59:34Z</time>
      </trkpt>
      <trkpt lat="38.258150" lon="-1.637545">
        <ele>240.1</ele>
        <time>2023-04-16T08:59:40Z</time>
      </trkpt>
      <trkpt lat="38.258132" lon="-1.637468">
        <ele>238.1</ele>
        <time>2023-04-16T08:59:45Z</time>
      </trkpt>
      <trkpt lat="38.258135" lon="-1.637386">
        <ele>238.1</ele>
        <time>2023-04-16T08:59:50Z</time>
      </trkpt>
      <trkpt lat="38.258119" lon="-1.637301">
        <ele>238.1</ele>
        <time>2023-04-16T08:59:55Z</time>
      </trkpt>
      <trkpt lat="38.258091" lon="-1.637217">
        <ele>238.1</ele>
        <time>2023-04-16T09:00:00Z</time>
      </trkpt>
      <trkpt lat="38.258059" lon="-1.637142">
        <ele>238.1</ele>
        <time>2023-04-16T09:00:05Z</time>
      </trkpt>
      <trkpt lat="38.258011" lon="-1.637075">
        <ele>237.1</ele>
        <time>2023-04-16T09:00:10Z</time>
      </trkpt>
      <trkpt lat="38.257995" lon="-1.636984">
        <ele>237.8</ele>
        <time>2023-04-16T09:00:15Z</time>
      </trkpt>
      <trkpt lat="38.257967" lon="-1.636906">
        <ele>239.0</ele>
        <time>2023-04-16T09:00:19Z</time>
      </trkpt>
      <trkpt lat="38.257934" lon="-1.636826">
        <ele>239.1</ele>
        <time>2023-04-16T09:00:34Z</time>
      </trkpt>
      <trkpt lat="38.257915" lon="-1.636747">
        <ele>237.3</ele>
        <time>2023-04-16T09:00:39Z</time>
      </trkpt>
      <trkpt lat="38.257905" lon="-1.636655">
        <ele>236.1</ele>
        <time>2023-04-16T09:00:46Z</time>
      </trkpt>
      <trkpt lat="38.257892" lon="-1.636570">
        <ele>238.0</ele>
        <time>2023-04-16T09:00:53Z</time>
      </trkpt>
      <trkpt lat="38.257847" lon="-1.636505">
        <ele>237.3</ele>
        <time>2023-04-16T09:01:02Z</time>
      </trkpt>
      <trkpt lat="38.257851" lon="-1.636420">
        <ele>237.1</ele>
        <time>2023-04-16T09:01:14Z</time>
      </trkpt>
      <trkpt lat="38.257836" lon="-1.636359">
        <ele>236.4</ele>
        <time>2023-04-16T09:01:30Z</time>
      </trkpt>
      <trkpt lat="38.257850" lon="-1.636292">
        <ele>235.1</ele>
        <time>2023-04-16T09:01:38Z</time>
      </trkpt>
      <trkpt lat="38.257806" lon="-1.636231">
        <ele>235.2</ele>
        <time>2023-04-16T09:01:45Z</time>
      </trkpt>
      <trkpt lat="38.257799" lon="-1.636140">
        <ele>235.1</ele>
        <time>2023-04-16T09:01:55Z</time>
      </trkpt>
      <trkpt lat="38.257777" lon="-1.636062">
        <ele>232.3</ele>
        <time>2023-04-16T09:02:01Z</time>
      </trkpt>
      <trkpt lat="38.257754" lon="-1.635984">
        <ele>231.1</ele>
        <time>2023-04-16T09:02:05Z</time>
      </trkpt>
      <trkpt lat="38.257736" lon="-1.635901">
        <ele>230.9</ele>
        <time>2023-04-16T09:02:11Z</time>
      </trkpt>
      <trkpt lat="38.257706" lon="-1.635816">
        <ele>230.1</ele>
        <time>2023-04-16T09:02:17Z</time>
      </trkpt>
      <trkpt lat="38.257685" lon="-1.635737">
        <ele>230.3</ele>
        <time>2023-04-16T09:02:23Z</time>
      </trkpt>
      <trkpt lat="38.257656" lon="-1.635658">
        <ele>230.8</ele>
        <time>2023-04-16T09:02:30Z</time>
      </trkpt>
      <trkpt lat="38.257632" lon="-1.635584">
        <ele>230.1</ele>
        <time>2023-04-16T09:02:36Z</time>
      </trkpt>
      <trkpt lat="38.257606" lon="-1.635505">
        <ele>230.1</ele>
        <time>2023-04-16T09:02:42Z</time>
      </trkpt>
      <trkpt lat="38.257578" lon="-1.635424">
        <ele>232.0</ele>
        <time>2023-04-16T09:02:48Z</time>
      </trkpt>
      <trkpt lat="38.257545" lon="-1.635351">
        <ele>232.3</ele>
        <time>2023-04-16T09:02:54Z</time>
      </trkpt>
      <trkpt lat="38.257513" lon="-1.635252">
        <ele>231.3</ele>
        <time>2023-04-16T09:03:00Z</time>
      </trkpt>
      <trkpt lat="38.257499" lon="-1.635173">
        <ele>232.1</ele>
        <time>2023-04-16T09:03:06Z</time>
      </trkpt>
      <trkpt lat="38.257470" lon="-1.635088">
        <ele>232.8</ele>
        <time>2023-04-16T09:03:12Z</time>
      </trkpt>
      <trkpt lat="38.257444" lon="-1.635009">
        <ele>233.1</ele>
        <time>2023-04-16T09:03:18Z</time>
      </trkpt>
      <trkpt lat="38.257428" lon="-1.634921">
        <ele>234.0</ele>
        <time>2023-04-16T09:03:25Z</time>
      </trkpt>
      <trkpt lat="38.257409" lon="-1.634837">
        <ele>234.1</ele>
        <time>2023-04-16T09:03:30Z</time>
      </trkpt>
      <trkpt lat="38.257391" lon="-1.634759">
        <ele>235.0</ele>
        <time>2023-04-16T09:03:36Z</time>
      </trkpt>
      <trkpt lat="38.257368" lon="-1.634678">
        <ele>234.1</ele>
        <time>2023-04-16T09:03:42Z</time>
      </trkpt>
      <trkpt lat="38.257352" lon="-1.634596">
        <ele>233.1</ele>
        <time>2023-04-16T09:03:48Z</time>
      </trkpt>
      <trkpt lat="38.257345" lon="-1.634502">
        <ele>233.1</ele>
        <time>2023-04-16T09:03:54Z</time>
      </trkpt>
      <trkpt lat="38.257323" lon="-1.634422">
        <ele>233.3</ele>
        <time>2023-04-16T09:03:59Z</time>
      </trkpt>
      <trkpt lat="38.257292" lon="-1.634337">
        <ele>233.1</ele>
        <time>2023-04-16T09:04:05Z</time>
      </trkpt>
      <trkpt lat="38.257270" lon="-1.634254">
        <ele>234.1</ele>
        <time>2023-04-16T09:04:12Z</time>
      </trkpt>
      <trkpt lat="38.257244" lon="-1.634180">
        <ele>235.3</ele>
        <time>2023-04-16T09:04:18Z</time>
      </trkpt>
      <trkpt lat="38.257221" lon="-1.634099">
        <ele>235.3</ele>
        <time>2023-04-16T09:04:25Z</time>
      </trkpt>
      <trkpt lat="38.257205" lon="-1.634016">
        <ele>233.1</ele>
        <time>2023-04-16T09:04:32Z</time>
      </trkpt>
      <trkpt lat="38.257193" lon="-1.633926">
        <ele>231.3</ele>
        <time>2023-04-16T09:04:37Z</time>
      </trkpt>
      <trkpt lat="38.257179" lon="-1.633845">
        <ele>231.1</ele>
        <time>2023-04-16T09:04:42Z</time>
      </trkpt>
      <trkpt lat="38.257168" lon="-1.633766">
        <ele>230.3</ele>
        <time>2023-04-16T09:04:47Z</time>
      </trkpt>
      <trkpt lat="38.257166" lon="-1.633683">
        <ele>231.9</ele>
        <time>2023-04-16T09:04:55Z</time>
      </trkpt>
      <trkpt lat="38.257112" lon="-1.633631">
        <ele>231.3</ele>
        <time>2023-04-16T09:05:03Z</time>
      </trkpt>
      <trkpt lat="38.257078" lon="-1.633551">
        <ele>230.1</ele>
        <time>2023-04-16T09:05:10Z</time>
      </trkpt>
      <trkpt lat="38.257065" lon="-1.633459">
        <ele>227.4</ele>
        <time>2023-04-16T09:05:15Z</time>
      </trkpt>
      <trkpt lat="38.257049" lon="-1.633366">
        <ele>227.1</ele>
        <time>2023-04-16T09:05:21Z</time>
      </trkpt>
      <trkpt lat="38.257037" lon="-1.633287">
        <ele>225.3</ele>
        <time>2023-04-16T09:05:28Z</time>
      </trkpt>
      <trkpt lat="38.257021" lon="-1.633208">
        <ele>225.0</ele>
        <time>2023-04-16T09:05:34Z</time>
      </trkpt>
      <trkpt lat="38.257019" lon="-1.633121">
        <ele>225.8</ele>
        <time>2023-04-16T09:05:40Z</time>
      </trkpt>
      <trkpt lat="38.257008" lon="-1.633033">
        <ele>229.8</ele>
        <time>2023-04-16T09:05:48Z</time>
      </trkpt>
      <trkpt lat="38.257012" lon="-1.632950">
        <ele>231.0</ele>
        <time>2023-04-16T09:05:55Z</time>
      </trkpt>
      <trkpt lat="38.257014" lon="-1.632866">
        <ele>230.1</ele>
        <time>2023-04-16T09:06:01Z</time>
      </trkpt>
      <trkpt lat="38.257010" lon="-1.632778">
        <ele>229.3</ele>
        <time>2023-04-16T09:06:07Z</time>
      </trkpt>
      <trkpt lat="38.257008" lon="-1.632686">
        <ele>229.8</ele>
        <time>2023-04-16T09:06:13Z</time>
      </trkpt>
      <trkpt lat="38.256998" lon="-1.632604">
        <ele>231.8</ele>
        <time>2023-04-16T09:06:19Z</time>
      </trkpt>
      <trkpt lat="38.256976" lon="-1.632519">
        <ele>232.1</ele>
        <time>2023-04-16T09:06:25Z</time>
      </trkpt>
      <trkpt lat="38.256961" lon="-1.632436">
        <ele>233.1</ele>
        <time>2023-04-16T09:06:31Z</time>
      </trkpt>
      <trkpt lat="38.256945" lon="-1.632356">
        <ele>233.1</ele>
        <time>2023-04-16T09:06:37Z</time>
      </trkpt>
      <trkpt lat="38.256923" lon="-1.632268">
        <ele>233.1</ele>
        <time>2023-04-16T09:06:43Z</time>
      </trkpt>
      <trkpt lat="38.256904" lon="-1.632185">
        <ele>233.8</ele>
        <time>2023-04-16T09:06:48Z</time>
      </trkpt>
      <trkpt lat="38.256875" lon="-1.632107">
        <ele>232.3</ele>
        <time>2023-04-16T09:06:57Z</time>
      </trkpt>
      <trkpt lat="38.256833" lon="-1.632045">
        <ele>231.1</ele>
        <time>2023-04-16T09:07:02Z</time>
      </trkpt>
      <trkpt lat="38.256809" lon="-1.631964">
        <ele>229.1</ele>
        <time>2023-04-16T09:07:08Z</time>
      </trkpt>
      <trkpt lat="38.256788" lon="-1.631885">
        <ele>229.1</ele>
        <time>2023-04-16T09:07:13Z</time>
      </trkpt>
      <trkpt lat="38.256751" lon="-1.631792">
        <ele>230.1</ele>
        <time>2023-04-16T09:07:21Z</time>
      </trkpt>
      <trkpt lat="38.256745" lon="-1.631710">
        <ele>232.8</ele>
        <time>2023-04-16T09:07:27Z</time>
      </trkpt>
      <trkpt lat="38.256739" lon="-1.631623">
        <ele>233.3</ele>
        <time>2023-04-16T09:07:33Z</time>
      </trkpt>
      <trkpt lat="38.256768" lon="-1.631546">
        <ele>234.1</ele>
        <time>2023-04-16T09:07:39Z</time>
      </trkpt>
      <trkpt lat="38.256823" lon="-1.631478">
        <ele>235.1</ele>
        <time>2023-04-16T09:07:46Z</time>
      </trkpt>
      <trkpt lat="38.256848" lon="-1.631393">
        <ele>238.1</ele>
        <time>2023-04-16T09:07:54Z</time>
      </trkpt>
      <trkpt lat="38.256868" lon="-1.631310">
        <ele>238.1</ele>
        <time>2023-04-16T09:08:22Z</time>
      </trkpt>
      <trkpt lat="38.256919" lon="-1.631255">
        <ele>236.1</ele>
        <time>2023-04-16T09:09:37Z</time>
      </trkpt>
      <trkpt lat="38.256955" lon="-1.631178">
        <ele>236.1</ele>
        <time>2023-04-16T09:09:47Z</time>
      </trkpt>
      <trkpt lat="38.256991" lon="-1.631110">
        <ele>236.8</ele>
        <time>2023-04-16T09:09:55Z</time>
      </trkpt>
      <trkpt lat="38.257014" lon="-1.631028">
        <ele>239.1</ele>
        <time>2023-04-16T09:10:02Z</time>
      </trkpt>
      <trkpt lat="38.257037" lon="-1.630940">
        <ele>240.1</ele>
        <time>2023-04-16T09:10:10Z</time>
      </trkpt>
      <trkpt lat="38.257066" lon="-1.630868">
        <ele>242.1</ele>
        <time>2023-04-16T09:10:17Z</time>
      </trkpt>
      <trkpt lat="38.257096" lon="-1.630784">
        <ele>241.1</ele>
        <time>2023-04-16T09:10:24Z</time>
      </trkpt>
      <trkpt lat="38.257144" lon="-1.630721">
        <ele>239.1</ele>
        <time>2023-04-16T09:10:31Z</time>
      </trkpt>
      <trkpt lat="38.257190" lon="-1.630658">
        <ele>238.3</ele>
        <time>2023-04-16T09:10:39Z</time>
      </trkpt>
      <trkpt lat="38.257238" lon="-1.630602">
        <ele>236.1</ele>
        <time>2023-04-16T09:10:45Z</time>
      </trkpt>
      <trkpt lat="38.257286" lon="-1.630547">
        <ele>235.1</ele>
        <time>2023-04-16T09:10:51Z</time>
      </trkpt>
      <trkpt lat="38.257337" lon="-1.630490">
        <ele>234.1</ele>
        <time>2023-04-16T09:10:57Z</time>
      </trkpt>
      <trkpt lat="38.257395" lon="-1.630442">
        <ele>234.1</ele>
        <time>2023-04-16T09:11:04Z</time>
      </trkpt>
      <trkpt lat="38.257449" lon="-1.630387">
        <ele>235.3</ele>
        <time>2023-04-16T09:11:11Z</time>
      </trkpt>
      <trkpt lat="38.257503" lon="-1.630343">
        <ele>234.1</ele>
        <time>2023-04-16T09:11:18Z</time>
      </trkpt>
      <trkpt lat="38.257560" lon="-1.630290">
        <ele>235.1</ele>
        <time>2023-04-16T09:11:26Z</time>
      </trkpt>
      <trkpt lat="38.257621" lon="-1.630238">
        <ele>234.3</ele>
        <time>2023-04-16T09:11:32Z</time>
      </trkpt>
      <trkpt lat="38.257673" lon="-1.630172">
        <ele>234.3</ele>
        <time>2023-04-16T09:11:40Z</time>
      </trkpt>
      <trkpt lat="38.257741" lon="-1.630138">
        <ele>233.1</ele>
        <time>2023-04-16T09:11:46Z</time>
      </trkpt>
      <trkpt lat="38.257800" lon="-1.630094">
        <ele>233.1</ele>
        <time>2023-04-16T09:11:52Z</time>
      </trkpt>
      <trkpt lat="38.257866" lon="-1.630057">
        <ele>235.1</ele>
        <time>2023-04-16T09:12:00Z</time>
      </trkpt>
      <trkpt lat="38.257940" lon="-1.630044">
        <ele>234.3</ele>
        <time>2023-04-16T09:12:07Z</time>
      </trkpt>
      <trkpt lat="38.257984" lon="-1.629985">
        <ele>235.0</ele>
        <time>2023-04-16T09:12:16Z</time>
      </trkpt>
      <trkpt lat="38.258026" lon="-1.629916">
        <ele>236.0</ele>
        <time>2023-04-16T09:12:26Z</time>
      </trkpt>
      <trkpt lat="38.258073" lon="-1.629857">
        <ele>237.8</ele>
        <time>2023-04-16T09:12:35Z</time>
      </trkpt>
      <trkpt lat="38.258145" lon="-1.629797">
        <ele>237.3</ele>
        <time>2023-04-16T09:12:42Z</time>
      </trkpt>
      <trkpt lat="38.258207" lon="-1.629756">
        <ele>236.1</ele>
        <time>2023-04-16T09:12:50Z</time>
      </trkpt>
      <trkpt lat="38.258262" lon="-1.629711">
        <ele>235.1</ele>
        <time>2023-04-16T09:12:55Z</time>
      </trkpt>
      <trkpt lat="38.258325" lon="-1.629645">
        <ele>233.9</ele>
        <time>2023-04-16T09:13:02Z</time>
      </trkpt>
      <trkpt lat="38.258376" lon="-1.629579">
        <ele>232.9</ele>
        <time>2023-04-16T09:13:10Z</time>
      </trkpt>
      <trkpt lat="38.258423" lon="-1.629496">
        <ele>233.1</ele>
        <time>2023-04-16T09:13:17Z</time>
      </trkpt>
      <trkpt lat="38.258454" lon="-1.629419">
        <ele>233.9</ele>
        <time>2023-04-16T09:13:29Z</time>
      </trkpt>
      <trkpt lat="38.258508" lon="-1.629346">
        <ele>234.1</ele>
        <time>2023-04-16T09:13:37Z</time>
      </trkpt>
      <trkpt lat="38.258541" lon="-1.629269">
        <ele>234.1</ele>
        <time>2023-04-16T09:13:45Z</time>
      </trkpt>
      <trkpt lat="38.258577" lon="-1.629197">
        <ele>234.1</ele>
        <time>2023-04-16T09:13:51Z</time>
      </trkpt>
      <trkpt lat="38.258596" lon="-1.629118">
        <ele>236.1</ele>
        <time>2023-04-16T09:13:57Z</time>
      </trkpt>
      <trkpt lat="38.258624" lon="-1.629030">
        <ele>238.1</ele>
        <time>2023-04-16T09:14:03Z</time>
      </trkpt>
      <trkpt lat="38.258660" lon="-1.628963">
        <ele>239.0</ele>
        <time>2023-04-16T09:14:11Z</time>
      </trkpt>
      <trkpt lat="38.258691" lon="-1.628886">
        <ele>240.8</ele>
        <time>2023-04-16T09:14:19Z</time>
      </trkpt>
      <trkpt lat="38.258724" lon="-1.628813">
        <ele>239.9</ele>
        <time>2023-04-16T09:14:26Z</time>
      </trkpt>
      <trkpt lat="38.258758" lon="-1.628728">
        <ele>241.1</ele>
        <time>2023-04-16T09:14:38Z</time>
      </trkpt>
      <trkpt lat="38.258825" lon="-1.628705">
        <ele>239.1</ele>
        <time>2023-04-16T09:14:45Z</time>
      </trkpt>
      <trkpt lat="38.258895" lon="-1.628689">
        <ele>238.1</ele>
        <time>2023-04-16T09:14:51Z</time>
      </trkpt>
      <trkpt lat="38.258957" lon="-1.628676">
        <ele>238.3</ele>
        <time>2023-04-16T09:14:58Z</time>
      </trkpt>
      <trkpt lat="38.258938" lon="-1.628591">
        <ele>238.1</ele>
        <time>2023-04-16T09:15:21Z</time>
      </trkpt>
      <trkpt lat="38.258931" lon="-1.628511">
        <ele>239.1</ele>
        <time>2023-04-16T09:15:26Z</time>
      </trkpt>
      <trkpt lat="38.258972" lon="-1.628431">
        <ele>240.1</ele>
        <time>2023-04-16T09:15:33Z</time>
      </trkpt>
      <trkpt lat="38.258996" lon="-1.628353">
        <ele>240.1</ele>
        <time>2023-04-16T09:15:39Z</time>
      </trkpt>
      <trkpt lat="38.259037" lon="-1.628260">
        <ele>242.0</ele>
        <time>2023-04-16T09:15:53Z</time>
      </trkpt>
      <trkpt lat="38.259074" lon="-1.628182">
        <ele>242.1</ele>
        <time>2023-04-16T09:16:02Z</time>
      </trkpt>
      <trkpt lat="38.259105" lon="-1.628111">
        <ele>242.1</ele>
        <time>2023-04-16T09:16:09Z</time>
      </trkpt>
      <trkpt lat="38.259113" lon="-1.628022">
        <ele>239.4</ele>
        <time>2023-04-16T09:16:23Z</time>
      </trkpt>
      <trkpt lat="38.259132" lon="-1.627942">
        <ele>241.8</ele>
        <time>2023-04-16T09:16:30Z</time>
      </trkpt>
      <trkpt lat="38.259149" lon="-1.627863">
        <ele>240.1</ele>
        <time>2023-04-16T09:16:36Z</time>
      </trkpt>
      <trkpt lat="38.259159" lon="-1.627771">
        <ele>239.9</ele>
        <time>2023-04-16T09:16:54Z</time>
      </trkpt>
      <trkpt lat="38.259197" lon="-1.627697">
        <ele>239.0</ele>
        <time>2023-04-16T09:17:01Z</time>
      </trkpt>
      <trkpt lat="38.259247" lon="-1.627630">
        <ele>240.0</ele>
        <time>2023-04-16T09:17:07Z</time>
      </trkpt>
      <trkpt lat="38.259291" lon="-1.627560">
        <ele>240.1</ele>
        <time>2023-04-16T09:17:12Z</time>
      </trkpt>
      <trkpt lat="38.259313" lon="-1.627481">
        <ele>240.1</ele>
        <time>2023-04-16T09:17:17Z</time>
      </trkpt>
      <trkpt lat="38.259330" lon="-1.627404">
        <ele>241.1</ele>
        <time>2023-04-16T09:17:22Z</time>
      </trkpt>
      <trkpt lat="38.259346" lon="-1.627322">
        <ele>240.6</ele>
        <time>2023-04-16T09:17:51Z</time>
      </trkpt>
      <trkpt lat="38.259372" lon="-1.627237">
        <ele>239.3</ele>
        <time>2023-04-16T09:17:57Z</time>
      </trkpt>
      <trkpt lat="38.259374" lon="-1.627144">
        <ele>239.1</ele>
        <time>2023-04-16T09:18:02Z</time>
      </trkpt>
      <trkpt lat="38.259316" lon="-1.627104">
        <ele>240.1</ele>
        <time>2023-04-16T09:18:06Z</time>
      </trkpt>
      <trkpt lat="38.259249" lon="-1.627086">
        <ele>239.1</ele>
        <time>2023-04-16T09:18:09Z</time>
      </trkpt>
      <trkpt lat="38.259177" lon="-1.627073">
        <ele>239.1</ele>
        <time>2023-04-16T09:18:14Z</time>
      </trkpt>
      <trkpt lat="38.259112" lon="-1.627084">
        <ele>240.1</ele>
        <time>2023-04-16T09:18:43Z</time>
      </trkpt>
      <trkpt lat="38.259040" lon="-1.627063">
        <ele>238.1</ele>
        <time>2023-04-16T09:18:48Z</time>
      </trkpt>
      <trkpt lat="38.258963" lon="-1.627044">
        <ele>238.8</ele>
        <time>2023-04-16T09:18:54Z</time>
      </trkpt>
      <trkpt lat="38.258900" lon="-1.627013">
        <ele>239.1</ele>
        <time>2023-04-16T09:19:02Z</time>
      </trkpt>
      <trkpt lat="38.258829" lon="-1.627005">
        <ele>239.1</ele>
        <time>2023-04-16T09:19:08Z</time>
      </trkpt>
      <trkpt lat="38.258765" lon="-1.626987">
        <ele>239.3</ele>
        <time>2023-04-16T09:19:15Z</time>
      </trkpt>
      <trkpt lat="38.258701" lon="-1.626958">
        <ele>237.1</ele>
        <time>2023-04-16T09:19:20Z</time>
      </trkpt>
      <trkpt lat="38.258638" lon="-1.626920">
        <ele>236.3</ele>
        <time>2023-04-16T09:19:24Z</time>
      </trkpt>
      <trkpt lat="38.258569" lon="-1.626913">
        <ele>236.1</ele>
        <time>2023-04-16T09:19:29Z</time>
      </trkpt>
      <trkpt lat="38.258524" lon="-1.626854">
        <ele>235.1</ele>
        <time>2023-04-16T09:21:19Z</time>
      </trkpt>
      <trkpt lat="38.258471" lon="-1.626783">
        <ele>235.1</ele>
        <time>2023-04-16T09:21:24Z</time>
      </trkpt>
      <trkpt lat="38.258432" lon="-1.626718">
        <ele>234.9</ele>
        <time>2023-04-16T09:21:28Z</time>
      </trkpt>
      <trkpt lat="38.258396" lon="-1.626640">
        <ele>235.1</ele>
        <time>2023-04-16T09:21:33Z</time>
      </trkpt>
      <trkpt lat="38.258370" lon="-1.626548">
        <ele>236.0</ele>
        <time>2023-04-16T09:21:39Z</time>
      </trkpt>
      <trkpt lat="38.258340" lon="-1.626464">
        <ele>234.3</ele>
        <time>2023-04-16T09:21:44Z</time>
      </trkpt>
      <trkpt lat="38.258306" lon="-1.626396">
        <ele>235.1</ele>
        <time>2023-04-16T09:21:49Z</time>
      </trkpt>
      <trkpt lat="38.258274" lon="-1.626303">
        <ele>236.1</ele>
        <time>2023-04-16T09:21:54Z</time>
      </trkpt>
      <trkpt lat="38.258245" lon="-1.626219">
        <ele>236.1</ele>
        <time>2023-04-16T09:21:59Z</time>
      </trkpt>
      <trkpt lat="38.258218" lon="-1.626128">
        <ele>236.1</ele>
        <time>2023-04-16T09:22:04Z</time>
      </trkpt>
      <trkpt lat="38.258196" lon="-1.626043">
        <ele>235.3</ele>
        <time>2023-04-16T09:22:08Z</time>
      </trkpt>
      <trkpt lat="38.258200" lon="-1.625948">
        <ele>236.1</ele>
        <time>2023-04-16T09:22:13Z</time>
      </trkpt>
      <trkpt lat="38.258230" lon="-1.625875">
        <ele>236.9</ele>
        <time>2023-04-16T09:22:18Z</time>
      </trkpt>
      <trkpt lat="38.258266" lon="-1.625788">
        <ele>237.1</ele>
        <time>2023-04-16T09:22:23Z</time>
      </trkpt>
      <trkpt lat="38.258295" lon="-1.625702">
        <ele>237.1</ele>
        <time>2023-04-16T09:22:28Z</time>
      </trkpt>
      <trkpt lat="38.258324" lon="-1.625617">
        <ele>237.1</ele>
        <time>2023-04-16T09:22:33Z</time>
      </trkpt>
      <trkpt lat="38.258348" lon="-1.625536">
        <ele>236.1</ele>
        <time>2023-04-16T09:22:38Z</time>
      </trkpt>
      <trkpt lat="38.258361" lon="-1.625457">
        <ele>236.1</ele>
        <time>2023-04-16T09:22:42Z</time>
      </trkpt>
      <trkpt lat="38.258389" lon="-1.625372">
        <ele>237.1</ele>
        <time>2023-04-16T09:22:47Z</time>
      </trkpt>
      <trkpt lat="38.258412" lon="-1.625295">
        <ele>237.8</ele>
        <time>2023-04-16T09:22:51Z</time>
      </trkpt>
      <trkpt lat="38.258437" lon="-1.625222">
        <ele>237.9</ele>
        <time>2023-04-16T09:22:55Z</time>
      </trkpt>
      <trkpt lat="38.258455" lon="-1.625132">
        <ele>239.1</ele>
        <time>2023-04-16T09:23:00Z</time>
      </trkpt>
      <trkpt lat="38.258501" lon="-1.625063">
        <ele>237.1</ele>
        <time>2023-04-16T09:23:06Z</time>
      </trkpt>
      <trkpt lat="38.258541" lon="-1.624982">
        <ele>236.1</ele>
        <time>2023-04-16T09:23:11Z</time>
      </trkpt>
      <trkpt lat="38.258578" lon="-1.624914">
        <ele>234.2</ele>
        <time>2023-04-16T09:23:17Z</time>
      </trkpt>
      <trkpt lat="38.258619" lon="-1.624839">
        <ele>235.1</ele>
        <time>2023-04-16T09:23:22Z</time>
      </trkpt>
      <trkpt lat="38.258656" lon="-1.624756">
        <ele>235.1</ele>
        <time>2023-04-16T09:23:27Z</time>
      </trkpt>
      <trkpt lat="38.258690" lon="-1.624685">
        <ele>235.1</ele>
        <time>2023-04-16T09:23:31Z</time>
      </trkpt>
      <trkpt lat="38.258723" lon="-1.624609">
        <ele>235.1</ele>
        <time>2023-04-16T09:23:36Z</time>
      </trkpt>
      <trkpt lat="38.258766" lon="-1.624543">
        <ele>235.0</ele>
        <time>2023-04-16T09:23:41Z</time>
      </trkpt>
      <trkpt lat="38.258812" lon="-1.624479">
        <ele>234.9</ele>
        <time>2023-04-16T09:23:46Z</time>
      </trkpt>
      <trkpt lat="38.258853" lon="-1.624413">
        <ele>234.3</ele>
        <time>2023-04-16T09:23:51Z</time>
      </trkpt>
      <trkpt lat="38.258895" lon="-1.624339">
        <ele>234.3</ele>
        <time>2023-04-16T09:23:56Z</time>
      </trkpt>
      <trkpt lat="38.258930" lon="-1.624271">
        <ele>233.1</ele>
        <time>2023-04-16T09:24:02Z</time>
      </trkpt>
      <trkpt lat="38.258965" lon="-1.624193">
        <ele>233.1</ele>
        <time>2023-04-16T09:24:07Z</time>
      </trkpt>
      <trkpt lat="38.258982" lon="-1.624105">
        <ele>233.1</ele>
        <time>2023-04-16T09:24:13Z</time>
      </trkpt>
      <trkpt lat="38.258988" lon="-1.624022">
        <ele>233.0</ele>
        <time>2023-04-16T09:24:18Z</time>
      </trkpt>
      <trkpt lat="38.258988" lon="-1.623927">
        <ele>233.1</ele>
        <time>2023-04-16T09:24:23Z</time>
      </trkpt>
      <trkpt lat="38.258999" lon="-1.623848">
        <ele>234.1</ele>
        <time>2023-04-16T09:24:28Z</time>
      </trkpt>
      <trkpt lat="38.258983" lon="-1.623764">
        <ele>234.1</ele>
        <time>2023-04-16T09:24:33Z</time>
      </trkpt>
      <trkpt lat="38.258961" lon="-1.623677">
        <ele>235.1</ele>
        <time>2023-04-16T09:24:39Z</time>
      </trkpt>
      <trkpt lat="38.258924" lon="-1.623597">
        <ele>235.1</ele>
        <time>2023-04-16T09:24:45Z</time>
      </trkpt>
      <trkpt lat="38.258886" lon="-1.623526">
        <ele>236.0</ele>
        <time>2023-04-16T09:24:50Z</time>
      </trkpt>
      <trkpt lat="38.258842" lon="-1.623460">
        <ele>235.2</ele>
        <time>2023-04-16T09:24:55Z</time>
      </trkpt>
      <trkpt lat="38.258795" lon="-1.623400">
        <ele>235.1</ele>
        <time>2023-04-16T09:25:01Z</time>
      </trkpt>
      <trkpt lat="38.258741" lon="-1.623346">
        <ele>234.1</ele>
        <time>2023-04-16T09:25:07Z</time>
      </trkpt>
      <trkpt lat="38.258671" lon="-1.623320">
        <ele>235.1</ele>
        <time>2023-04-16T09:25:13Z</time>
      </trkpt>
      <trkpt lat="38.258605" lon="-1.623298">
        <ele>234.1</ele>
        <time>2023-04-16T09:25:19Z</time>
      </trkpt>
      <trkpt lat="38.258543" lon="-1.623282">
        <ele>234.8</ele>
        <time>2023-04-16T09:25:24Z</time>
      </trkpt>
      <trkpt lat="38.258476" lon="-1.623256">
        <ele>234.9</ele>
        <time>2023-04-16T09:25:29Z</time>
      </trkpt>
      <trkpt lat="38.258414" lon="-1.623231">
        <ele>235.8</ele>
        <time>2023-04-16T09:25:33Z</time>
      </trkpt>
      <trkpt lat="38.258347" lon="-1.623208">
        <ele>236.1</ele>
        <time>2023-04-16T09:25:38Z</time>
      </trkpt>
      <trkpt lat="38.258284" lon="-1.623188">
        <ele>237.8</ele>
        <time>2023-04-16T09:25:43Z</time>
      </trkpt>
      <trkpt lat="38.258211" lon="-1.623165">
        <ele>238.1</ele>
        <time>2023-04-16T09:25:48Z</time>
      </trkpt>
      <trkpt lat="38.258151" lon="-1.623115">
        <ele>237.1</ele>
        <time>2023-04-16T09:25:54Z</time>
      </trkpt>
      <trkpt lat="38.258088" lon="-1.623090">
        <ele>237.1</ele>
        <time>2023-04-16T09:25:59Z</time>
      </trkpt>
      <trkpt lat="38.258025" lon="-1.623046">
        <ele>237.3</ele>
        <time>2023-04-16T09:26:05Z</time>
      </trkpt>
      <trkpt lat="38.257963" lon="-1.623012">
        <ele>237.9</ele>
        <time>2023-04-16T09:26:10Z</time>
      </trkpt>
      <trkpt lat="38.257891" lon="-1.622988">
        <ele>238.9</ele>
        <time>2023-04-16T09:26:15Z</time>
      </trkpt>
      <trkpt lat="38.257829" lon="-1.622972">
        <ele>238.9</ele>
        <time>2023-04-16T09:26:20Z</time>
      </trkpt>
      <trkpt lat="38.257768" lon="-1.622943">
        <ele>240.0</ele>
        <time>2023-04-16T09:26:25Z</time>
      </trkpt>
      <trkpt lat="38.257707" lon="-1.622900">
        <ele>240.1</ele>
        <time>2023-04-16T09:26:31Z</time>
      </trkpt>
      <trkpt lat="38.257659" lon="-1.622849">
        <ele>238.2</ele>
        <time>2023-04-16T09:26:38Z</time>
      </trkpt>
      <trkpt lat="38.257603" lon="-1.622798">
        <ele>236.4</ele>
        <time>2023-04-16T09:26:43Z</time>
      </trkpt>
      <trkpt lat="38.257537" lon="-1.622757">
        <ele>236.2</ele>
        <time>2023-04-16T09:26:49Z</time>
      </trkpt>
      <trkpt lat="38.257478" lon="-1.622700">
        <ele>236.2</ele>
        <time>2023-04-16T09:26:55Z</time>
      </trkpt>
      <trkpt lat="38.257430" lon="-1.622626">
        <ele>236.2</ele>
        <time>2023-04-16T09:27:00Z</time>
      </trkpt>
      <trkpt lat="38.257370" lon="-1.622553">
        <ele>236.0</ele>
        <time>2023-04-16T09:27:06Z</time>
      </trkpt>
      <trkpt lat="38.257327" lon="-1.622488">
        <ele>236.1</ele>
        <time>2023-04-16T09:27:11Z</time>
      </trkpt>
      <trkpt lat="38.257281" lon="-1.622420">
        <ele>237.1</ele>
        <time>2023-04-16T09:27:16Z</time>
      </trkpt>
      <trkpt lat="38.257246" lon="-1.622350">
        <ele>236.4</ele>
        <time>2023-04-16T09:27:22Z</time>
      </trkpt>
      <trkpt lat="38.257196" lon="-1.622294">
        <ele>237.3</ele>
        <time>2023-04-16T09:27:28Z</time>
      </trkpt>
      <trkpt lat="38.257135" lon="-1.622262">
        <ele>238.1</ele>
        <time>2023-04-16T09:27:33Z</time>
      </trkpt>
      <trkpt lat="38.257080" lon="-1.622201">
        <ele>238.1</ele>
        <time>2023-04-16T09:27:40Z</time>
      </trkpt>
      <trkpt lat="38.257036" lon="-1.622132">
        <ele>239.0</ele>
        <time>2023-04-16T09:27:46Z</time>
      </trkpt>
      <trkpt lat="38.256990" lon="-1.622061">
        <ele>239.1</ele>
        <time>2023-04-16T09:27:52Z</time>
      </trkpt>
      <trkpt lat="38.256946" lon="-1.621985">
        <ele>238.1</ele>
        <time>2023-04-16T09:27:59Z</time>
      </trkpt>
      <trkpt lat="38.256910" lon="-1.621909">
        <ele>238.4</ele>
        <time>2023-04-16T09:28:04Z</time>
      </trkpt>
      <trkpt lat="38.256876" lon="-1.621826">
        <ele>238.1</ele>
        <time>2023-04-16T09:28:11Z</time>
      </trkpt>
      <trkpt lat="38.256824" lon="-1.621757">
        <ele>237.1</ele>
        <time>2023-04-16T09:28:17Z</time>
      </trkpt>
      <trkpt lat="38.256783" lon="-1.621681">
        <ele>236.1</ele>
        <time>2023-04-16T09:28:23Z</time>
      </trkpt>
      <trkpt lat="38.256747" lon="-1.621603">
        <ele>237.1</ele>
        <time>2023-04-16T09:28:29Z</time>
      </trkpt>
      <trkpt lat="38.256712" lon="-1.621526">
        <ele>238.0</ele>
        <time>2023-04-16T09:28:35Z</time>
      </trkpt>
      <trkpt lat="38.256674" lon="-1.621456">
        <ele>238.1</ele>
        <time>2023-04-16T09:28:40Z</time>
      </trkpt>
      <trkpt lat="38.256634" lon="-1.621384">
        <ele>239.1</ele>
        <time>2023-04-16T09:28:46Z</time>
      </trkpt>
      <trkpt lat="38.256595" lon="-1.621306">
        <ele>238.1</ele>
        <time>2023-04-16T09:28:52Z</time>
      </trkpt>
      <trkpt lat="38.256556" lon="-1.621235">
        <ele>237.1</ele>
        <time>2023-04-16T09:28:57Z</time>
      </trkpt>
      <trkpt lat="38.256514" lon="-1.621175">
        <ele>237.8</ele>
        <time>2023-04-16T09:29:03Z</time>
      </trkpt>
      <trkpt lat="38.256473" lon="-1.621104">
        <ele>236.4</ele>
        <time>2023-04-16T09:29:09Z</time>
      </trkpt>
      <trkpt lat="38.256428" lon="-1.621043">
        <ele>235.9</ele>
        <time>2023-04-16T09:29:15Z</time>
      </trkpt>
      <trkpt lat="38.256391" lon="-1.620965">
        <ele>236.0</ele>
        <time>2023-04-16T09:29:21Z</time>
      </trkpt>
      <trkpt lat="38.256347" lon="-1.620883">
        <ele>236.3</ele>
        <time>2023-04-16T09:29:27Z</time>
      </trkpt>
      <trkpt lat="38.256296" lon="-1.620814">
        <ele>237.9</ele>
        <time>2023-04-16T09:29:35Z</time>
      </trkpt>
      <trkpt lat="38.256249" lon="-1.620755">
        <ele>238.3</ele>
        <time>2023-04-16T09:29:41Z</time>
      </trkpt>
      <trkpt lat="38.256215" lon="-1.620672">
        <ele>237.2</ele>
        <time>2023-04-16T09:29:47Z</time>
      </trkpt>
      <trkpt lat="38.256196" lon="-1.620592">
        <ele>236.9</ele>
        <time>2023-04-16T09:29:52Z</time>
      </trkpt>
      <trkpt lat="38.256210" lon="-1.620505">
        <ele>237.1</ele>
        <time>2023-04-16T09:29:59Z</time>
      </trkpt>
      <trkpt lat="38.256225" lon="-1.620420">
        <ele>237.1</ele>
        <time>2023-04-16T09:30:05Z</time>
      </trkpt>
      <trkpt lat="38.256260" lon="-1.620349">
        <ele>237.1</ele>
        <time>2023-04-16T09:30:11Z</time>
      </trkpt>
      <trkpt lat="38.256275" lon="-1.620263">
        <ele>235.9</ele>
        <time>2023-04-16T09:30:18Z</time>
      </trkpt>
      <trkpt lat="38.256296" lon="-1.620176">
        <ele>235.1</ele>
        <time>2023-04-16T09:30:26Z</time>
      </trkpt>
      <trkpt lat="38.256323" lon="-1.620085">
        <ele>234.1</ele>
        <time>2023-04-16T09:30:32Z</time>
      </trkpt>
      <trkpt lat="38.256359" lon="-1.620006">
        <ele>234.2</ele>
        <time>2023-04-16T09:30:40Z</time>
      </trkpt>
      <trkpt lat="38.256393" lon="-1.619925">
        <ele>233.4</ele>
        <time>2023-04-16T09:30:46Z</time>
      </trkpt>
      <trkpt lat="38.256425" lon="-1.619843">
        <ele>233.1</ele>
        <time>2023-04-16T09:30:52Z</time>
      </trkpt>
      <trkpt lat="38.256457" lon="-1.619764">
        <ele>232.1</ele>
        <time>2023-04-16T09:30:59Z</time>
      </trkpt>
      <trkpt lat="38.256496" lon="-1.619694">
        <ele>232.9</ele>
        <time>2023-04-16T09:31:05Z</time>
      </trkpt>
      <trkpt lat="38.256525" lon="-1.619621">
        <ele>232.1</ele>
        <time>2023-04-16T09:31:11Z</time>
      </trkpt>
      <trkpt lat="38.256568" lon="-1.619562">
        <ele>234.0</ele>
        <time>2023-04-16T09:31:16Z</time>
      </trkpt>
      <trkpt lat="38.256604" lon="-1.619477">
        <ele>233.1</ele>
        <time>2023-04-16T09:31:22Z</time>
      </trkpt>
      <trkpt lat="38.256623" lon="-1.619395">
        <ele>233.1</ele>
        <time>2023-04-16T09:31:28Z</time>
      </trkpt>
      <trkpt lat="38.256641" lon="-1.619307">
        <ele>233.1</ele>
        <time>2023-04-16T09:31:35Z</time>
      </trkpt>
      <trkpt lat="38.256652" lon="-1.619214">
        <ele>232.3</ele>
        <time>2023-04-16T09:31:41Z</time>
      </trkpt>
      <trkpt lat="38.256646" lon="-1.619118">
        <ele>232.1</ele>
        <time>2023-04-16T09:31:46Z</time>
      </trkpt>
      <trkpt lat="38.256628" lon="-1.619033">
        <ele>233.1</ele>
        <time>2023-04-16T09:31:51Z</time>
      </trkpt>
      <trkpt lat="38.256593" lon="-1.618942">
        <ele>234.1</ele>
        <time>2023-04-16T09:31:57Z</time>
      </trkpt>
      <trkpt lat="38.256562" lon="-1.618871">
        <ele>234.9</ele>
        <time>2023-04-16T09:32:02Z</time>
      </trkpt>
      <trkpt lat="38.256524" lon="-1.618805">
        <ele>234.4</ele>
        <time>2023-04-16T09:32:09Z</time>
      </trkpt>
      <trkpt lat="38.256475" lon="-1.618739">
        <ele>235.1</ele>
        <time>2023-04-16T09:32:15Z</time>
      </trkpt>
      <trkpt lat="38.256423" lon="-1.618674">
        <ele>235.9</ele>
        <time>2023-04-16T09:32:21Z</time>
      </trkpt>
      <trkpt lat="38.256380" lon="-1.618611">
        <ele>236.9</ele>
        <time>2023-04-16T09:32:31Z</time>
      </trkpt>
      <trkpt lat="38.256406" lon="-1.618531">
        <ele>236.9</ele>
        <time>2023-04-16T09:32:39Z</time>
      </trkpt>
      <trkpt lat="38.256359" lon="-1.618462">
        <ele>237.1</ele>
        <time>2023-04-16T09:32:47Z</time>
      </trkpt>
      <trkpt lat="38.256286" lon="-1.618447">
        <ele>238.1</ele>
        <time>2023-04-16T09:32:53Z</time>
      </trkpt>
      <trkpt lat="38.256221" lon="-1.618440">
        <ele>238.1</ele>
        <time>2023-04-16T09:33:01Z</time>
      </trkpt>
      <trkpt lat="38.256157" lon="-1.618392">
        <ele>237.9</ele>
        <time>2023-04-16T09:33:08Z</time>
      </trkpt>
      <trkpt lat="38.256103" lon="-1.618349">
        <ele>238.1</ele>
        <time>2023-04-16T09:33:15Z</time>
      </trkpt>
      <trkpt lat="38.256048" lon="-1.618281">
        <ele>236.1</ele>
        <time>2023-04-16T09:33:23Z</time>
      </trkpt>
      <trkpt lat="38.255978" lon="-1.618250">
        <ele>236.1</ele>
        <time>2023-04-16T09:33:31Z</time>
      </trkpt>
      <trkpt lat="38.255911" lon="-1.618224">
        <ele>237.9</ele>
        <time>2023-04-16T09:33:37Z</time>
      </trkpt>
      <trkpt lat="38.255838" lon="-1.618191">
        <ele>238.1</ele>
        <time>2023-04-16T09:33:43Z</time>
      </trkpt>
      <trkpt lat="38.255812" lon="-1.618105">
        <ele>237.2</ele>
        <time>2023-04-16T09:33:50Z</time>
      </trkpt>
      <trkpt lat="38.255833" lon="-1.618026">
        <ele>239.1</ele>
        <time>2023-04-16T09:33:59Z</time>
      </trkpt>
      <trkpt lat="38.255877" lon="-1.617942">
        <ele>240.1</ele>
        <time>2023-04-16T09:34:08Z</time>
      </trkpt>
      <trkpt lat="38.255821" lon="-1.617900">
        <ele>239.1</ele>
        <time>2023-04-16T09:34:23Z</time>
      </trkpt>
      <trkpt lat="38.255756" lon="-1.617869">
        <ele>238.9</ele>
        <time>2023-04-16T09:34:28Z</time>
      </trkpt>
      <trkpt lat="38.255693" lon="-1.617837">
        <ele>238.1</ele>
        <time>2023-04-16T09:34:35Z</time>
      </trkpt>
      <trkpt lat="38.255633" lon="-1.617805">
        <ele>238.1</ele>
        <time>2023-04-16T09:34:41Z</time>
      </trkpt>
      <trkpt lat="38.255561" lon="-1.617784">
        <ele>239.1</ele>
        <time>2023-04-16T09:34:47Z</time>
      </trkpt>
      <trkpt lat="38.255493" lon="-1.617765">
        <ele>240.1</ele>
        <time>2023-04-16T09:34:54Z</time>
      </trkpt>
      <trkpt lat="38.255432" lon="-1.617741">
        <ele>241.1</ele>
        <time>2023-04-16T09:34:59Z</time>
      </trkpt>
      <trkpt lat="38.255370" lon="-1.617718">
        <ele>241.1</ele>
        <time>2023-04-16T09:35:06Z</time>
      </trkpt>
      <trkpt lat="38.255308" lon="-1.617671">
        <ele>239.2</ele>
        <time>2023-04-16T09:35:12Z</time>
      </trkpt>
      <trkpt lat="38.255286" lon="-1.617593">
        <ele>240.1</ele>
        <time>2023-04-16T09:35:18Z</time>
      </trkpt>
      <trkpt lat="38.255298" lon="-1.617509">
        <ele>240.1</ele>
        <time>2023-04-16T09:35:23Z</time>
      </trkpt>
      <trkpt lat="38.255318" lon="-1.617425">
        <ele>239.2</ele>
        <time>2023-04-16T09:35:31Z</time>
      </trkpt>
      <trkpt lat="38.255294" lon="-1.617346">
        <ele>240.4</ele>
        <time>2023-04-16T09:35:41Z</time>
      </trkpt>
      <trkpt lat="38.255238" lon="-1.617304">
        <ele>241.1</ele>
        <time>2023-04-16T09:36:00Z</time>
      </trkpt>
      <trkpt lat="38.255176" lon="-1.617258">
        <ele>241.9</ele>
        <time>2023-04-16T09:36:08Z</time>
      </trkpt>
      <trkpt lat="38.255118" lon="-1.617228">
        <ele>243.1</ele>
        <time>2023-04-16T09:36:20Z</time>
      </trkpt>
      <trkpt lat="38.255070" lon="-1.617229">
        <ele>243.4</ele>
        <time>2023-04-16T09:36:43Z</time>
      </trkpt>
      <trkpt lat="38.255015" lon="-1.617191">
        <ele>243.1</ele>
        <time>2023-04-16T09:36:48Z</time>
      </trkpt>
      <trkpt lat="38.254948" lon="-1.617207">
        <ele>244.2</ele>
        <time>2023-04-16T09:36:57Z</time>
      </trkpt>
      <trkpt lat="38.254887" lon="-1.617159">
        <ele>244.9</ele>
        <time>2023-04-16T09:37:04Z</time>
      </trkpt>
      <trkpt lat="38.254831" lon="-1.617121">
        <ele>245.9</ele>
        <time>2023-04-16T09:37:13Z</time>
      </trkpt>
      <trkpt lat="38.254772" lon="-1.617081">
        <ele>245.4</ele>
        <time>2023-04-16T09:37:21Z</time>
      </trkpt>
      <trkpt lat="38.254708" lon="-1.617060">
        <ele>246.1</ele>
        <time>2023-04-16T09:37:29Z</time>
      </trkpt>
      <trkpt lat="38.254646" lon="-1.617011">
        <ele>245.1</ele>
        <time>2023-04-16T09:37:36Z</time>
      </trkpt>
      <trkpt lat="38.254581" lon="-1.616982">
        <ele>243.4</ele>
        <time>2023-04-16T09:37:43Z</time>
      </trkpt>
      <trkpt lat="38.254521" lon="-1.616936">
        <ele>243.2</ele>
        <time>2023-04-16T09:37:49Z</time>
      </trkpt>
      <trkpt lat="38.254465" lon="-1.616884">
        <ele>242.3</ele>
        <time>2023-04-16T09:37:58Z</time>
      </trkpt>
      <trkpt lat="38.254409" lon="-1.616845">
        <ele>242.1</ele>
        <time>2023-04-16T09:38:05Z</time>
      </trkpt>
      <trkpt lat="38.254347" lon="-1.616816">
        <ele>243.1</ele>
        <time>2023-04-16T09:38:14Z</time>
      </trkpt>
      <trkpt lat="38.254331" lon="-1.616806">
        <ele>245.6</ele>
        <time>2023-04-16T09:40:23Z</time>
      </trkpt>
      <trkpt lat="38.254320" lon="-1.616759">
        <ele>244.1</ele>
        <time>2023-04-16T09:42:47Z</time>
      </trkpt>
      <trkpt lat="38.254326" lon="-1.616678">
        <ele>243.1</ele>
        <time>2023-04-16T09:42:56Z</time>
      </trkpt>
      <trkpt lat="38.254326" lon="-1.616597">
        <ele>244.9</ele>
        <time>2023-04-16T09:43:05Z</time>
      </trkpt>
      <trkpt lat="38.254300" lon="-1.616520">
        <ele>247.1</ele>
        <time>2023-04-16T09:43:18Z</time>
      </trkpt>
      <trkpt lat="38.254274" lon="-1.616440">
        <ele>245.1</ele>
        <time>2023-04-16T09:43:27Z</time>
      </trkpt>
      <trkpt lat="38.254240" lon="-1.616364">
        <ele>245.9</ele>
        <time>2023-04-16T09:43:34Z</time>
      </trkpt>
      <trkpt lat="38.254196" lon="-1.616294">
        <ele>245.1</ele>
        <time>2023-04-16T09:43:42Z</time>
      </trkpt>
      <trkpt lat="38.254161" lon="-1.616220">
        <ele>244.1</ele>
        <time>2023-04-16T09:43:50Z</time>
      </trkpt>
      <trkpt lat="38.254146" lon="-1.616139">
        <ele>244.1</ele>
        <time>2023-04-16T09:43:58Z</time>
      </trkpt>
      <trkpt lat="38.254129" lon="-1.616060">
        <ele>244.9</ele>
        <time>2023-04-16T09:44:06Z</time>
      </trkpt>
      <trkpt lat="38.254105" lon="-1.615976">
        <ele>244.9</ele>
        <time>2023-04-16T09:44:14Z</time>
      </trkpt>
      <trkpt lat="38.254092" lon="-1.615894">
        <ele>245.9</ele>
        <time>2023-04-16T09:44:20Z</time>
      </trkpt>
      <trkpt lat="38.254068" lon="-1.615813">
        <ele>247.1</ele>
        <time>2023-04-16T09:44:27Z</time>
      </trkpt>
      <trkpt lat="38.254053" lon="-1.615726">
        <ele>247.1</ele>
        <time>2023-04-16T09:44:33Z</time>
      </trkpt>
      <trkpt lat="38.254043" lon="-1.615638">
        <ele>248.1</ele>
        <time>2023-04-16T09:44:40Z</time>
      </trkpt>
      <trkpt lat="38.254037" lon="-1.615551">
        <ele>249.1</ele>
        <time>2023-04-16T09:44:48Z</time>
      </trkpt>
      <trkpt lat="38.254021" lon="-1.615455">
        <ele>249.9</ele>
        <time>2023-04-16T09:44:55Z</time>
      </trkpt>
      <trkpt lat="38.254005" lon="-1.615368">
        <ele>250.1</ele>
        <time>2023-04-16T09:45:02Z</time>
      </trkpt>
      <trkpt lat="38.253995" lon="-1.615285">
        <ele>250.1</ele>
        <time>2023-04-16T09:45:07Z</time>
      </trkpt>
      <trkpt lat="38.253985" lon="-1.615192">
        <ele>251.9</ele>
        <time>2023-04-16T09:45:14Z</time>
      </trkpt>
      <trkpt lat="38.253986" lon="-1.615110">
        <ele>253.1</ele>
        <time>2023-04-16T09:45:19Z</time>
      </trkpt>
      <trkpt lat="38.254003" lon="-1.615003">
        <ele>252.1</ele>
        <time>2023-04-16T09:45:25Z</time>
      </trkpt>
      <trkpt lat="38.254033" lon="-1.614922">
        <ele>253.1</ele>
        <time>2023-04-16T09:45:33Z</time>
      </trkpt>
      <trkpt lat="38.254053" lon="-1.614833">
        <ele>253.1</ele>
        <time>2023-04-16T09:45:39Z</time>
      </trkpt>
      <trkpt lat="38.254078" lon="-1.614745">
        <ele>252.1</ele>
        <time>2023-04-16T09:45:44Z</time>
      </trkpt>
      <trkpt lat="38.254100" lon="-1.614661">
        <ele>252.2</ele>
        <time>2023-04-16T09:45:50Z</time>
      </trkpt>
      <trkpt lat="38.254120" lon="-1.614561">
        <ele>251.1</ele>
        <time>2023-04-16T09:45:56Z</time>
      </trkpt>
      <trkpt lat="38.254134" lon="-1.614470">
        <ele>251.9</ele>
        <time>2023-04-16T09:46:01Z</time>
      </trkpt>
      <trkpt lat="38.254148" lon="-1.614389">
        <ele>252.1</ele>
        <time>2023-04-16T09:46:07Z</time>
      </trkpt>
      <trkpt lat="38.254160" lon="-1.614300">
        <ele>251.1</ele>
        <time>2023-04-16T09:46:13Z</time>
      </trkpt>
      <trkpt lat="38.254174" lon="-1.614209">
        <ele>251.1</ele>
        <time>2023-04-16T09:46:19Z</time>
      </trkpt>
      <trkpt lat="38.254178" lon="-1.614120">
        <ele>250.2</ele>
        <time>2023-04-16T09:46:24Z</time>
      </trkpt>
      <trkpt lat="38.254190" lon="-1.614025">
        <ele>250.9</ele>
        <time>2023-04-16T09:46:30Z</time>
      </trkpt>
      <trkpt lat="38.254205" lon="-1.613934">
        <ele>250.1</ele>
        <time>2023-04-16T09:46:36Z</time>
      </trkpt>
      <trkpt lat="38.254221" lon="-1.613854">
        <ele>250.1</ele>
        <time>2023-04-16T09:46:41Z</time>
      </trkpt>
      <trkpt lat="38.254221" lon="-1.613769">
        <ele>250.1</ele>
        <time>2023-04-16T09:46:46Z</time>
      </trkpt>
      <trkpt lat="38.254242" lon="-1.613682">
        <ele>250.1</ele>
        <time>2023-04-16T09:46:53Z</time>
      </trkpt>
      <trkpt lat="38.254256" lon="-1.613590">
        <ele>248.9</ele>
        <time>2023-04-16T09:46:58Z</time>
      </trkpt>
      <trkpt lat="38.254258" lon="-1.613505">
        <ele>251.1</ele>
        <time>2023-04-16T09:47:04Z</time>
      </trkpt>
      <trkpt lat="38.254197" lon="-1.613471">
        <ele>251.2</ele>
        <time>2023-04-16T09:47:14Z</time>
      </trkpt>
      <trkpt lat="38.254134" lon="-1.613448">
        <ele>251.1</ele>
        <time>2023-04-16T09:47:19Z</time>
      </trkpt>
      <trkpt lat="38.254073" lon="-1.613380">
        <ele>251.1</ele>
        <time>2023-04-16T09:47:26Z</time>
      </trkpt>
      <trkpt lat="38.254031" lon="-1.613304">
        <ele>252.1</ele>
        <time>2023-04-16T09:47:31Z</time>
      </trkpt>
      <trkpt lat="38.254003" lon="-1.613222">
        <ele>253.1</ele>
        <time>2023-04-16T09:47:36Z</time>
      </trkpt>
      <trkpt lat="38.253973" lon="-1.613140">
        <ele>254.1</ele>
        <time>2023-04-16T09:47:41Z</time>
      </trkpt>
      <trkpt lat="38.253953" lon="-1.613060">
        <ele>254.1</ele>
        <time>2023-04-16T09:47:47Z</time>
      </trkpt>
      <trkpt lat="38.253941" lon="-1.612980">
        <ele>253.1</ele>
        <time>2023-04-16T09:47:51Z</time>
      </trkpt>
      <trkpt lat="38.253916" lon="-1.612901">
        <ele>253.1</ele>
        <time>2023-04-16T09:47:57Z</time>
      </trkpt>
      <trkpt lat="38.253895" lon="-1.612813">
        <ele>254.9</ele>
        <time>2023-04-16T09:48:04Z</time>
      </trkpt>
      <trkpt lat="38.253881" lon="-1.612733">
        <ele>254.1</ele>
        <time>2023-04-16T09:48:09Z</time>
      </trkpt>
      <trkpt lat="38.253878" lon="-1.612645">
        <ele>254.1</ele>
        <time>2023-04-16T09:48:15Z</time>
      </trkpt>
      <trkpt lat="38.253870" lon="-1.612559">
        <ele>254.1</ele>
        <time>2023-04-16T09:48:20Z</time>
      </trkpt>
      <trkpt lat="38.253857" lon="-1.612465">
        <ele>254.1</ele>
        <time>2023-04-16T09:48:26Z</time>
      </trkpt>
      <trkpt lat="38.253853" lon="-1.612370">
        <ele>253.1</ele>
        <time>2023-04-16T09:48:31Z</time>
      </trkpt>
      <trkpt lat="38.253850" lon="-1.612285">
        <ele>252.9</ele>
        <time>2023-04-16T09:48:37Z</time>
      </trkpt>
      <trkpt lat="38.253845" lon="-1.612204">
        <ele>253.1</ele>
        <time>2023-04-16T09:48:42Z</time>
      </trkpt>
      <trkpt lat="38.253850" lon="-1.612114">
        <ele>254.1</ele>
        <time>2023-04-16T09:48:48Z</time>
      </trkpt>
      <trkpt lat="38.253835" lon="-1.612020">
        <ele>253.3</ele>
        <time>2023-04-16T09:48:54Z</time>
      </trkpt>
      <trkpt lat="38.253814" lon="-1.611942">
        <ele>253.1</ele>
        <time>2023-04-16T09:48:59Z</time>
      </trkpt>
      <trkpt lat="38.253789" lon="-1.611867">
        <ele>253.1</ele>
        <time>2023-04-16T09:49:04Z</time>
      </trkpt>
      <trkpt lat="38.253724" lon="-1.611815">
        <ele>251.2</ele>
        <time>2023-04-16T09:49:11Z</time>
      </trkpt>
      <trkpt lat="38.253664" lon="-1.611783">
        <ele>251.1</ele>
        <time>2023-04-16T09:49:16Z</time>
      </trkpt>
      <trkpt lat="38.253599" lon="-1.611757">
        <ele>250.2</ele>
        <time>2023-04-16T09:49:22Z</time>
      </trkpt>
      <trkpt lat="38.253532" lon="-1.611730">
        <ele>249.4</ele>
        <time>2023-04-16T09:49:27Z</time>
      </trkpt>
      <trkpt lat="38.253469" lon="-1.611705">
        <ele>249.1</ele>
        <time>2023-04-16T09:49:32Z</time>
      </trkpt>
      <trkpt lat="38.253407" lon="-1.611667">
        <ele>248.2</ele>
        <time>2023-04-16T09:49:37Z</time>
      </trkpt>
      <trkpt lat="38.253342" lon="-1.611639">
        <ele>248.2</ele>
        <time>2023-04-16T09:49:43Z</time>
      </trkpt>
      <trkpt lat="38.253276" lon="-1.611605">
        <ele>250.1</ele>
        <time>2023-04-16T09:49:49Z</time>
      </trkpt>
      <trkpt lat="38.253212" lon="-1.611575">
        <ele>249.1</ele>
        <time>2023-04-16T09:49:55Z</time>
      </trkpt>
      <trkpt lat="38.253144" lon="-1.611534">
        <ele>248.1</ele>
        <time>2023-04-16T09:50:01Z</time>
      </trkpt>
      <trkpt lat="38.253070" lon="-1.611497">
        <ele>247.1</ele>
        <time>2023-04-16T09:50:06Z</time>
      </trkpt>
      <trkpt lat="38.253008" lon="-1.611477">
        <ele>247.2</ele>
        <time>2023-04-16T09:50:11Z</time>
      </trkpt>
      <trkpt lat="38.252946" lon="-1.611449">
        <ele>248.8</ele>
        <time>2023-04-16T09:50:17Z</time>
      </trkpt>
      <trkpt lat="38.252878" lon="-1.611423">
        <ele>248.1</ele>
        <time>2023-04-16T09:50:23Z</time>
      </trkpt>
      <trkpt lat="38.252810" lon="-1.611410">
        <ele>248.1</ele>
        <time>2023-04-16T09:50:28Z</time>
      </trkpt>
      <trkpt lat="38.252740" lon="-1.611409">
        <ele>248.1</ele>
        <time>2023-04-16T09:50:33Z</time>
      </trkpt>
      <trkpt lat="38.252670" lon="-1.611416">
        <ele>249.1</ele>
        <time>2023-04-16T09:50:38Z</time>
      </trkpt>
      <trkpt lat="38.252603" lon="-1.611436">
        <ele>250.1</ele>
        <time>2023-04-16T09:50:43Z</time>
      </trkpt>
      <trkpt lat="38.252532" lon="-1.611451">
        <ele>249.4</ele>
        <time>2023-04-16T09:50:49Z</time>
      </trkpt>
      <trkpt lat="38.252466" lon="-1.611485">
        <ele>251.1</ele>
        <time>2023-04-16T09:50:54Z</time>
      </trkpt>
      <trkpt lat="38.252404" lon="-1.611519">
        <ele>251.9</ele>
        <time>2023-04-16T09:50:59Z</time>
      </trkpt>
      <trkpt lat="38.252337" lon="-1.611558">
        <ele>252.1</ele>
        <time>2023-04-16T09:51:05Z</time>
      </trkpt>
      <trkpt lat="38.252266" lon="-1.611587">
        <ele>252.9</ele>
        <time>2023-04-16T09:51:11Z</time>
      </trkpt>
      <trkpt lat="38.252190" lon="-1.611633">
        <ele>253.1</ele>
        <time>2023-04-16T09:51:17Z</time>
      </trkpt>
      <trkpt lat="38.252132" lon="-1.611670">
        <ele>253.1</ele>
        <time>2023-04-16T09:51:22Z</time>
      </trkpt>
      <trkpt lat="38.252073" lon="-1.611714">
        <ele>253.9</ele>
        <time>2023-04-16T09:51:27Z</time>
      </trkpt>
      <trkpt lat="38.252024" lon="-1.611766">
        <ele>254.2</ele>
        <time>2023-04-16T09:51:32Z</time>
      </trkpt>
      <trkpt lat="38.251964" lon="-1.611799">
        <ele>255.1</ele>
        <time>2023-04-16T09:51:37Z</time>
      </trkpt>
      <trkpt lat="38.251905" lon="-1.611841">
        <ele>254.1</ele>
        <time>2023-04-16T09:51:43Z</time>
      </trkpt>
      <trkpt lat="38.251853" lon="-1.611888">
        <ele>254.1</ele>
        <time>2023-04-16T09:51:48Z</time>
      </trkpt>
      <trkpt lat="38.251800" lon="-1.611938">
        <ele>254.1</ele>
        <time>2023-04-16T09:51:53Z</time>
      </trkpt>
      <trkpt lat="38.251745" lon="-1.611984">
        <ele>254.9</ele>
        <time>2023-04-16T09:51:58Z</time>
      </trkpt>
      <trkpt lat="38.251686" lon="-1.612036">
        <ele>255.1</ele>
        <time>2023-04-16T09:52:04Z</time>
      </trkpt>
      <trkpt lat="38.251642" lon="-1.612113">
        <ele>255.1</ele>
        <time>2023-04-16T09:52:10Z</time>
      </trkpt>
      <trkpt lat="38.251593" lon="-1.612175">
        <ele>255.4</ele>
        <time>2023-04-16T09:52:16Z</time>
      </trkpt>
      <trkpt lat="38.251538" lon="-1.612221">
        <ele>255.1</ele>
        <time>2023-04-16T09:52:25Z</time>
      </trkpt>
      <trkpt lat="38.251464" lon="-1.612252">
        <ele>255.1</ele>
        <time>2023-04-16T09:52:37Z</time>
      </trkpt>
      <trkpt lat="38.251409" lon="-1.612302">
        <ele>254.9</ele>
        <time>2023-04-16T09:52:42Z</time>
      </trkpt>
      <trkpt lat="38.251354" lon="-1.612355">
        <ele>254.1</ele>
        <time>2023-04-16T09:52:49Z</time>
      </trkpt>
      <trkpt lat="38.251283" lon="-1.612371">
        <ele>253.4</ele>
        <time>2023-04-16T09:52:55Z</time>
      </trkpt>
      <trkpt lat="38.251219" lon="-1.612365">
        <ele>252.1</ele>
        <time>2023-04-16T09:53:01Z</time>
      </trkpt>
      <trkpt lat="38.251168" lon="-1.612306">
        <ele>252.1</ele>
        <time>2023-04-16T09:53:06Z</time>
      </trkpt>
      <trkpt lat="38.251116" lon="-1.612250">
        <ele>252.1</ele>
        <time>2023-04-16T09:53:11Z</time>
      </trkpt>
      <trkpt lat="38.251062" lon="-1.612194">
        <ele>252.1</ele>
        <time>2023-04-16T09:53:16Z</time>
      </trkpt>
      <trkpt lat="38.251002" lon="-1.612117">
        <ele>252.1</ele>
        <time>2023-04-16T09:53:22Z</time>
      </trkpt>
      <trkpt lat="38.250956" lon="-1.612057">
        <ele>252.1</ele>
        <time>2023-04-16T09:53:28Z</time>
      </trkpt>
      <trkpt lat="38.250907" lon="-1.611999">
        <ele>252.4</ele>
        <time>2023-04-16T09:53:34Z</time>
      </trkpt>
      <trkpt lat="38.250852" lon="-1.611951">
        <ele>253.1</ele>
        <time>2023-04-16T09:53:40Z</time>
      </trkpt>
      <trkpt lat="38.250802" lon="-1.611897">
        <ele>253.1</ele>
        <time>2023-04-16T09:53:45Z</time>
      </trkpt>
      <trkpt lat="38.250750" lon="-1.611838">
        <ele>253.1</ele>
        <time>2023-04-16T09:53:51Z</time>
      </trkpt>
      <trkpt lat="38.250687" lon="-1.611764">
        <ele>255.1</ele>
        <time>2023-04-16T09:53:57Z</time>
      </trkpt>
      <trkpt lat="38.250633" lon="-1.611703">
        <ele>255.1</ele>
        <time>2023-04-16T09:54:04Z</time>
      </trkpt>
      <trkpt lat="38.250586" lon="-1.611644">
        <ele>255.1</ele>
        <time>2023-04-16T09:54:09Z</time>
      </trkpt>
      <trkpt lat="38.250534" lon="-1.611578">
        <ele>255.1</ele>
        <time>2023-04-16T09:54:15Z</time>
      </trkpt>
      <trkpt lat="38.250479" lon="-1.611525">
        <ele>255.1</ele>
        <time>2023-04-16T09:54:21Z</time>
      </trkpt>
      <trkpt lat="38.250430" lon="-1.611463">
        <ele>255.1</ele>
        <time>2023-04-16T09:54:27Z</time>
      </trkpt>
      <trkpt lat="38.250377" lon="-1.611405">
        <ele>256.1</ele>
        <time>2023-04-16T09:54:34Z</time>
      </trkpt>
      <trkpt lat="38.250319" lon="-1.611343">
        <ele>257.1</ele>
        <time>2023-04-16T09:54:40Z</time>
      </trkpt>
      <trkpt lat="38.250279" lon="-1.611281">
        <ele>258.1</ele>
        <time>2023-04-16T09:54:45Z</time>
      </trkpt>
      <trkpt lat="38.250221" lon="-1.611211">
        <ele>258.1</ele>
        <time>2023-04-16T09:54:52Z</time>
      </trkpt>
      <trkpt lat="38.250161" lon="-1.611157">
        <ele>259.9</ele>
        <time>2023-04-16T09:54:59Z</time>
      </trkpt>
      <trkpt lat="38.250114" lon="-1.611102">
        <ele>261.1</ele>
        <time>2023-04-16T09:55:04Z</time>
      </trkpt>
      <trkpt lat="38.250065" lon="-1.611047">
        <ele>261.1</ele>
        <time>2023-04-16T09:55:10Z</time>
      </trkpt>
      <trkpt lat="38.250013" lon="-1.610988">
        <ele>261.1</ele>
        <time>2023-04-16T09:55:16Z</time>
      </trkpt>
      <trkpt lat="38.249955" lon="-1.610929">
        <ele>261.1</ele>
        <time>2023-04-16T09:55:22Z</time>
      </trkpt>
      <trkpt lat="38.249901" lon="-1.610857">
        <ele>260.1</ele>
        <time>2023-04-16T09:55:28Z</time>
      </trkpt>
      <trkpt lat="38.249850" lon="-1.610800">
        <ele>262.1</ele>
        <time>2023-04-16T09:55:34Z</time>
      </trkpt>
      <trkpt lat="38.249794" lon="-1.610746">
        <ele>263.1</ele>
        <time>2023-04-16T09:55:41Z</time>
      </trkpt>
      <trkpt lat="38.249742" lon="-1.610683">
        <ele>264.1</ele>
        <time>2023-04-16T09:55:47Z</time>
      </trkpt>
      <trkpt lat="38.249686" lon="-1.610607">
        <ele>263.4</ele>
        <time>2023-04-16T09:55:53Z</time>
      </trkpt>
      <trkpt lat="38.249633" lon="-1.610547">
        <ele>263.1</ele>
        <time>2023-04-16T09:55:59Z</time>
      </trkpt>
      <trkpt lat="38.249586" lon="-1.610485">
        <ele>263.1</ele>
        <time>2023-04-16T09:56:04Z</time>
      </trkpt>
      <trkpt lat="38.249537" lon="-1.610430">
        <ele>263.1</ele>
        <time>2023-04-16T09:56:09Z</time>
      </trkpt>
      <trkpt lat="38.249488" lon="-1.610378">
        <ele>263.1</ele>
        <time>2023-04-16T09:56:15Z</time>
      </trkpt>
      <trkpt lat="38.249436" lon="-1.610324">
        <ele>263.2</ele>
        <time>2023-04-16T09:56:21Z</time>
      </trkpt>
      <trkpt lat="38.249375" lon="-1.610270">
        <ele>264.1</ele>
        <time>2023-04-16T09:56:27Z</time>
      </trkpt>
      <trkpt lat="38.249319" lon="-1.610216">
        <ele>264.9</ele>
        <time>2023-04-16T09:56:32Z</time>
      </trkpt>
      <trkpt lat="38.249254" lon="-1.610163">
        <ele>266.1</ele>
        <time>2023-04-16T09:56:38Z</time>
      </trkpt>
      <trkpt lat="38.249191" lon="-1.610123">
        <ele>265.2</ele>
        <time>2023-04-16T09:56:44Z</time>
      </trkpt>
      <trkpt lat="38.249129" lon="-1.610088">
        <ele>266.9</ele>
        <time>2023-04-16T09:56:49Z</time>
      </trkpt>
      <trkpt lat="38.249068" lon="-1.610070">
        <ele>268.1</ele>
        <time>2023-04-16T09:56:54Z</time>
      </trkpt>
      <trkpt lat="38.249001" lon="-1.610047">
        <ele>268.1</ele>
        <time>2023-04-16T09:57:01Z</time>
      </trkpt>
      <trkpt lat="38.248932" lon="-1.610016">
        <ele>268.2</ele>
        <time>2023-04-16T09:57:07Z</time>
      </trkpt>
      <trkpt lat="38.248868" lon="-1.609985">
        <ele>269.1</ele>
        <time>2023-04-16T09:57:12Z</time>
      </trkpt>
      <trkpt lat="38.248803" lon="-1.609963">
        <ele>270.1</ele>
        <time>2023-04-16T09:57:18Z</time>
      </trkpt>
      <trkpt lat="38.248737" lon="-1.609942">
        <ele>270.1</ele>
        <time>2023-04-16T09:57:23Z</time>
      </trkpt>
      <trkpt lat="38.248672" lon="-1.609931">
        <ele>272.1</ele>
        <time>2023-04-16T09:57:29Z</time>
      </trkpt>
      <trkpt lat="38.248609" lon="-1.609921">
        <ele>273.1</ele>
        <time>2023-04-16T09:57:33Z</time>
      </trkpt>
      <trkpt lat="38.248541" lon="-1.609916">
        <ele>273.1</ele>
        <time>2023-04-16T09:57:40Z</time>
      </trkpt>
      <trkpt lat="38.248471" lon="-1.609903">
        <ele>272.2</ele>
        <time>2023-04-16T09:57:46Z</time>
      </trkpt>
      <trkpt lat="38.248408" lon="-1.609881">
        <ele>273.1</ele>
        <time>2023-04-16T09:57:51Z</time>
      </trkpt>
      <trkpt lat="38.248340" lon="-1.609850">
        <ele>273.1</ele>
        <time>2023-04-16T09:57:57Z</time>
      </trkpt>
      <trkpt lat="38.248291" lon="-1.609786">
        <ele>273.1</ele>
        <time>2023-04-16T09:58:02Z</time>
      </trkpt>
      <trkpt lat="38.248264" lon="-1.609709">
        <ele>273.1</ele>
        <time>2023-04-16T09:58:07Z</time>
      </trkpt>
      <trkpt lat="38.248264" lon="-1.609613">
        <ele>272.1</ele>
        <time>2023-04-16T09:58:12Z</time>
      </trkpt>
      <trkpt lat="38.248272" lon="-1.609506">
        <ele>272.1</ele>
        <time>2023-04-16T09:58:18Z</time>
      </trkpt>
      <trkpt lat="38.248282" lon="-1.609422">
        <ele>273.1</ele>
        <time>2023-04-16T09:58:25Z</time>
      </trkpt>
      <trkpt lat="38.248286" lon="-1.609338">
        <ele>272.1</ele>
        <time>2023-04-16T09:58:30Z</time>
      </trkpt>
      <trkpt lat="38.248284" lon="-1.609250">
        <ele>271.1</ele>
        <time>2023-04-16T09:58:35Z</time>
      </trkpt>
      <trkpt lat="38.248281" lon="-1.609170">
        <ele>271.9</ele>
        <time>2023-04-16T09:58:41Z</time>
      </trkpt>
      <trkpt lat="38.248283" lon="-1.609076">
        <ele>273.1</ele>
        <time>2023-04-16T09:58:47Z</time>
      </trkpt>
      <trkpt lat="38.248285" lon="-1.608963">
        <ele>273.1</ele>
        <time>2023-04-16T09:58:53Z</time>
      </trkpt>
      <trkpt lat="38.248291" lon="-1.608881">
        <ele>272.4</ele>
        <time>2023-04-16T09:59:00Z</time>
      </trkpt>
      <trkpt lat="38.248284" lon="-1.608788">
        <ele>273.9</ele>
        <time>2023-04-16T09:59:06Z</time>
      </trkpt>
      <trkpt lat="38.248294" lon="-1.608700">
        <ele>273.1</ele>
        <time>2023-04-16T09:59:12Z</time>
      </trkpt>
      <trkpt lat="38.248301" lon="-1.608611">
        <ele>273.3</ele>
        <time>2023-04-16T09:59:18Z</time>
      </trkpt>
      <trkpt lat="38.248297" lon="-1.608514">
        <ele>274.1</ele>
        <time>2023-04-16T09:59:26Z</time>
      </trkpt>
      <trkpt lat="38.248295" lon="-1.608425">
        <ele>275.9</ele>
        <time>2023-04-16T09:59:31Z</time>
      </trkpt>
      <trkpt lat="38.248294" lon="-1.608344">
        <ele>275.1</ele>
        <time>2023-04-16T09:59:36Z</time>
      </trkpt>
      <trkpt lat="38.248294" lon="-1.608260">
        <ele>275.1</ele>
        <time>2023-04-16T09:59:41Z</time>
      </trkpt>
      <trkpt lat="38.248298" lon="-1.608175">
        <ele>275.1</ele>
        <time>2023-04-16T09:59:46Z</time>
      </trkpt>
      <trkpt lat="38.248301" lon="-1.608095">
        <ele>274.1</ele>
        <time>2023-04-16T09:59:51Z</time>
      </trkpt>
      <trkpt lat="38.248300" lon="-1.608002">
        <ele>275.1</ele>
        <time>2023-04-16T09:59:57Z</time>
      </trkpt>
      <trkpt lat="38.248309" lon="-1.607911">
        <ele>275.1</ele>
        <time>2023-04-16T10:00:03Z</time>
      </trkpt>
      <trkpt lat="38.248319" lon="-1.607807">
        <ele>274.1</ele>
        <time>2023-04-16T10:00:09Z</time>
      </trkpt>
      <trkpt lat="38.248319" lon="-1.607723">
        <ele>273.1</ele>
        <time>2023-04-16T10:00:15Z</time>
      </trkpt>
      <trkpt lat="38.248321" lon="-1.607640">
        <ele>274.1</ele>
        <time>2023-04-16T10:00:20Z</time>
      </trkpt>
      <trkpt lat="38.248320" lon="-1.607553">
        <ele>274.1</ele>
        <time>2023-04-16T10:00:26Z</time>
      </trkpt>
      <trkpt lat="38.248318" lon="-1.607468">
        <ele>274.9</ele>
        <time>2023-04-16T10:00:32Z</time>
      </trkpt>
      <trkpt lat="38.248317" lon="-1.607372">
        <ele>274.1</ele>
        <time>2023-04-16T10:00:38Z</time>
      </trkpt>
      <trkpt lat="38.248317" lon="-1.607289">
        <ele>273.4</ele>
        <time>2023-04-16T10:00:43Z</time>
      </trkpt>
      <trkpt lat="38.248326" lon="-1.607208">
        <ele>274.1</ele>
        <time>2023-04-16T10:00:48Z</time>
      </trkpt>
      <trkpt lat="38.248331" lon="-1.607124">
        <ele>275.1</ele>
        <time>2023-04-16T10:00:53Z</time>
      </trkpt>
      <trkpt lat="38.248323" lon="-1.607045">
        <ele>274.1</ele>
        <time>2023-04-16T10:00:58Z</time>
      </trkpt>
      <trkpt lat="38.248323" lon="-1.606964">
        <ele>274.1</ele>
        <time>2023-04-16T10:01:03Z</time>
      </trkpt>
      <trkpt lat="38.248319" lon="-1.606878">
        <ele>273.2</ele>
        <time>2023-04-16T10:01:08Z</time>
      </trkpt>
      <trkpt lat="38.248318" lon="-1.606790">
        <ele>274.1</ele>
        <time>2023-04-16T10:01:13Z</time>
      </trkpt>
      <trkpt lat="38.248318" lon="-1.606706">
        <ele>275.1</ele>
        <time>2023-04-16T10:01:18Z</time>
      </trkpt>
      <trkpt lat="38.248326" lon="-1.606609">
        <ele>275.1</ele>
        <time>2023-04-16T10:01:24Z</time>
      </trkpt>
      <trkpt lat="38.248332" lon="-1.606520">
        <ele>276.1</ele>
        <time>2023-04-16T10:01:30Z</time>
      </trkpt>
      <trkpt lat="38.248337" lon="-1.606440">
        <ele>276.1</ele>
        <time>2023-04-16T10:01:35Z</time>
      </trkpt>
      <trkpt lat="38.248339" lon="-1.606356">
        <ele>275.2</ele>
        <time>2023-04-16T10:01:41Z</time>
      </trkpt>
      <trkpt lat="38.248342" lon="-1.606271">
        <ele>275.1</ele>
        <time>2023-04-16T10:01:46Z</time>
      </trkpt>
      <trkpt lat="38.248340" lon="-1.606180">
        <ele>275.1</ele>
        <time>2023-04-16T10:01:51Z</time>
      </trkpt>
      <trkpt lat="38.248346" lon="-1.606098">
        <ele>276.1</ele>
        <time>2023-04-16T10:01:56Z</time>
      </trkpt>
      <trkpt lat="38.248344" lon="-1.606012">
        <ele>277.1</ele>
        <time>2023-04-16T10:02:01Z</time>
      </trkpt>
      <trkpt lat="38.248345" lon="-1.605920">
        <ele>278.1</ele>
        <time>2023-04-16T10:02:07Z</time>
      </trkpt>
      <trkpt lat="38.248349" lon="-1.605835">
        <ele>278.1</ele>
        <time>2023-04-16T10:02:12Z</time>
      </trkpt>
      <trkpt lat="38.248342" lon="-1.605743">
        <ele>278.1</ele>
        <time>2023-04-16T10:02:18Z</time>
      </trkpt>
      <trkpt lat="38.248343" lon="-1.605660">
        <ele>278.9</ele>
        <time>2023-04-16T10:02:23Z</time>
      </trkpt>
      <trkpt lat="38.248340" lon="-1.605574">
        <ele>279.1</ele>
        <time>2023-04-16T10:02:28Z</time>
      </trkpt>
      <trkpt lat="38.248347" lon="-1.605475">
        <ele>279.1</ele>
        <time>2023-04-16T10:02:34Z</time>
      </trkpt>
      <trkpt lat="38.248344" lon="-1.605381">
        <ele>279.1</ele>
        <time>2023-04-16T10:02:39Z</time>
      </trkpt>
      <trkpt lat="38.248349" lon="-1.605296">
        <ele>279.1</ele>
        <time>2023-04-16T10:02:45Z</time>
      </trkpt>
      <trkpt lat="38.248351" lon="-1.605206">
        <ele>280.1</ele>
        <time>2023-04-16T10:02:51Z</time>
      </trkpt>
      <trkpt lat="38.248356" lon="-1.605123">
        <ele>280.1</ele>
        <time>2023-04-16T10:02:56Z</time>
      </trkpt>
      <trkpt lat="38.248355" lon="-1.605028">
        <ele>280.1</ele>
        <time>2023-04-16T10:03:02Z</time>
      </trkpt>
      <trkpt lat="38.248362" lon="-1.604945">
        <ele>279.2</ele>
        <time>2023-04-16T10:03:07Z</time>
      </trkpt>
      <trkpt lat="38.248364" lon="-1.604851">
        <ele>280.1</ele>
        <time>2023-04-16T10:03:13Z</time>
      </trkpt>
      <trkpt lat="38.248366" lon="-1.604765">
        <ele>280.1</ele>
        <time>2023-04-16T10:03:18Z</time>
      </trkpt>
      <trkpt lat="38.248363" lon="-1.604675">
        <ele>280.2</ele>
        <time>2023-04-16T10:03:23Z</time>
      </trkpt>
      <trkpt lat="38.248364" lon="-1.604594">
        <ele>280.1</ele>
        <time>2023-04-16T10:03:28Z</time>
      </trkpt>
      <trkpt lat="38.248368" lon="-1.604508">
        <ele>279.4</ele>
        <time>2023-04-16T10:03:33Z</time>
      </trkpt>
      <trkpt lat="38.248364" lon="-1.604421">
        <ele>280.1</ele>
        <time>2023-04-16T10:03:38Z</time>
      </trkpt>
      <trkpt lat="38.248368" lon="-1.604338">
        <ele>280.9</ele>
        <time>2023-04-16T10:03:43Z</time>
      </trkpt>
      <trkpt lat="38.248368" lon="-1.604256">
        <ele>281.1</ele>
        <time>2023-04-16T10:03:48Z</time>
      </trkpt>
      <trkpt lat="38.248376" lon="-1.604173">
        <ele>281.3</ele>
        <time>2023-04-16T10:03:53Z</time>
      </trkpt>
      <trkpt lat="38.248383" lon="-1.604067">
        <ele>281.2</ele>
        <time>2023-04-16T10:03:59Z</time>
      </trkpt>
      <trkpt lat="38.248381" lon="-1.603979">
        <ele>281.2</ele>
        <time>2023-04-16T10:04:06Z</time>
      </trkpt>
      <trkpt lat="38.248381" lon="-1.603885">
        <ele>281.1</ele>
        <time>2023-04-16T10:04:12Z</time>
      </trkpt>
      <trkpt lat="38.248388" lon="-1.603794">
        <ele>281.9</ele>
        <time>2023-04-16T10:04:18Z</time>
      </trkpt>
      <trkpt lat="38.248389" lon="-1.603707">
        <ele>282.1</ele>
        <time>2023-04-16T10:04:23Z</time>
      </trkpt>
      <trkpt lat="38.248388" lon="-1.603624">
        <ele>282.1</ele>
        <time>2023-04-16T10:04:28Z</time>
      </trkpt>
      <trkpt lat="38.248390" lon="-1.603534">
        <ele>282.4</ele>
        <time>2023-04-16T10:04:33Z</time>
      </trkpt>
      <trkpt lat="38.248385" lon="-1.603446">
        <ele>283.1</ele>
        <time>2023-04-16T10:04:38Z</time>
      </trkpt>
      <trkpt lat="38.248386" lon="-1.603364">
        <ele>283.1</ele>
        <time>2023-04-16T10:04:43Z</time>
      </trkpt>
      <trkpt lat="38.248394" lon="-1.603274">
        <ele>283.2</ele>
        <time>2023-04-16T10:04:49Z</time>
      </trkpt>
      <trkpt lat="38.248393" lon="-1.603166">
        <ele>283.9</ele>
        <time>2023-04-16T10:04:55Z</time>
      </trkpt>
      <trkpt lat="38.248392" lon="-1.603086">
        <ele>284.1</ele>
        <time>2023-04-16T10:05:00Z</time>
      </trkpt>
      <trkpt lat="38.248388" lon="-1.602997">
        <ele>284.1</ele>
        <time>2023-04-16T10:05:05Z</time>
      </trkpt>
      <trkpt lat="38.248392" lon="-1.602912">
        <ele>283.4</ele>
        <time>2023-04-16T10:05:11Z</time>
      </trkpt>
      <trkpt lat="38.248393" lon="-1.602826">
        <ele>282.2</ele>
        <time>2023-04-16T10:05:16Z</time>
      </trkpt>
      <trkpt lat="38.248383" lon="-1.602743">
        <ele>283.1</ele>
        <time>2023-04-16T10:05:21Z</time>
      </trkpt>
      <trkpt lat="38.248377" lon="-1.602664">
        <ele>282.2</ele>
        <time>2023-04-16T10:05:25Z</time>
      </trkpt>
      <trkpt lat="38.248376" lon="-1.602581">
        <ele>284.1</ele>
        <time>2023-04-16T10:05:31Z</time>
      </trkpt>
      <trkpt lat="38.248376" lon="-1.602484">
        <ele>284.1</ele>
        <time>2023-04-16T10:05:37Z</time>
      </trkpt>
      <trkpt lat="38.248369" lon="-1.602402">
        <ele>284.1</ele>
        <time>2023-04-16T10:05:42Z</time>
      </trkpt>
      <trkpt lat="38.248366" lon="-1.602314">
        <ele>284.1</ele>
        <time>2023-04-16T10:05:47Z</time>
      </trkpt>
      <trkpt lat="38.248361" lon="-1.602234">
        <ele>285.1</ele>
        <time>2023-04-16T10:05:52Z</time>
      </trkpt>
      <trkpt lat="38.248355" lon="-1.602153">
        <ele>285.1</ele>
        <time>2023-04-16T10:05:57Z</time>
      </trkpt>
      <trkpt lat="38.248344" lon="-1.602068">
        <ele>285.1</ele>
        <time>2023-04-16T10:06:02Z</time>
      </trkpt>
      <trkpt lat="38.248342" lon="-1.601972">
        <ele>285.1</ele>
        <time>2023-04-16T10:06:08Z</time>
      </trkpt>
      <trkpt lat="38.248342" lon="-1.601877">
        <ele>284.9</ele>
        <time>2023-04-16T10:06:14Z</time>
      </trkpt>
      <trkpt lat="38.248336" lon="-1.601796">
        <ele>284.2</ele>
        <time>2023-04-16T10:06:19Z</time>
      </trkpt>
      <trkpt lat="38.248328" lon="-1.601711">
        <ele>284.1</ele>
        <time>2023-04-16T10:06:24Z</time>
      </trkpt>
      <trkpt lat="38.248324" lon="-1.601621">
        <ele>285.1</ele>
        <time>2023-04-16T10:06:29Z</time>
      </trkpt>
      <trkpt lat="38.248316" lon="-1.601523">
        <ele>285.9</ele>
        <time>2023-04-16T10:06:35Z</time>
      </trkpt>
      <trkpt lat="38.248312" lon="-1.601438">
        <ele>285.1</ele>
        <time>2023-04-16T10:06:40Z</time>
      </trkpt>
      <trkpt lat="38.248316" lon="-1.601349">
        <ele>285.1</ele>
        <time>2023-04-16T10:06:46Z</time>
      </trkpt>
      <trkpt lat="38.248309" lon="-1.601266">
        <ele>285.1</ele>
        <time>2023-04-16T10:06:51Z</time>
      </trkpt>
      <trkpt lat="38.248300" lon="-1.601183">
        <ele>285.1</ele>
        <time>2023-04-16T10:06:55Z</time>
      </trkpt>
      <trkpt lat="38.248293" lon="-1.601102">
        <ele>286.1</ele>
        <time>2023-04-16T10:07:00Z</time>
      </trkpt>
      <trkpt lat="38.248293" lon="-1.601022">
        <ele>286.1</ele>
        <time>2023-04-16T10:07:05Z</time>
      </trkpt>
      <trkpt lat="38.248283" lon="-1.600939">
        <ele>285.2</ele>
        <time>2023-04-16T10:07:10Z</time>
      </trkpt>
      <trkpt lat="38.248279" lon="-1.600851">
        <ele>285.1</ele>
        <time>2023-04-16T10:07:15Z</time>
      </trkpt>
      <trkpt lat="38.248272" lon="-1.600760">
        <ele>286.1</ele>
        <time>2023-04-16T10:07:22Z</time>
      </trkpt>
      <trkpt lat="38.248271" lon="-1.600669">
        <ele>285.2</ele>
        <time>2023-04-16T10:07:28Z</time>
      </trkpt>
      <trkpt lat="38.248266" lon="-1.600589">
        <ele>285.0</ele>
        <time>2023-04-16T10:07:33Z</time>
      </trkpt>
      <trkpt lat="38.248266" lon="-1.600505">
        <ele>285.1</ele>
        <time>2023-04-16T10:07:38Z</time>
      </trkpt>
      <trkpt lat="38.248263" lon="-1.600423">
        <ele>286.1</ele>
        <time>2023-04-16T10:07:43Z</time>
      </trkpt>
      <trkpt lat="38.248263" lon="-1.600327">
        <ele>286.9</ele>
        <time>2023-04-16T10:07:49Z</time>
      </trkpt>
      <trkpt lat="38.248257" lon="-1.600241">
        <ele>287.0</ele>
        <time>2023-04-16T10:07:54Z</time>
      </trkpt>
      <trkpt lat="38.248248" lon="-1.600151">
        <ele>286.2</ele>
        <time>2023-04-16T10:07:59Z</time>
      </trkpt>
      <trkpt lat="38.248240" lon="-1.600043">
        <ele>286.2</ele>
        <time>2023-04-16T10:08:05Z</time>
      </trkpt>
      <trkpt lat="38.248236" lon="-1.599961">
        <ele>286.2</ele>
        <time>2023-04-16T10:08:11Z</time>
      </trkpt>
      <trkpt lat="38.248231" lon="-1.599862">
        <ele>286.0</ele>
        <time>2023-04-16T10:08:17Z</time>
      </trkpt>
      <trkpt lat="38.248233" lon="-1.599776">
        <ele>286.1</ele>
        <time>2023-04-16T10:08:22Z</time>
      </trkpt>
      <trkpt lat="38.248228" lon="-1.599689">
        <ele>285.4</ele>
        <time>2023-04-16T10:08:27Z</time>
      </trkpt>
      <trkpt lat="38.248223" lon="-1.599603">
        <ele>285.1</ele>
        <time>2023-04-16T10:08:32Z</time>
      </trkpt>
      <trkpt lat="38.248214" lon="-1.599518">
        <ele>285.1</ele>
        <time>2023-04-16T10:08:37Z</time>
      </trkpt>
      <trkpt lat="38.248211" lon="-1.599426">
        <ele>284.2</ele>
        <time>2023-04-16T10:08:43Z</time>
      </trkpt>
      <trkpt lat="38.248209" lon="-1.599338">
        <ele>284.1</ele>
        <time>2023-04-16T10:08:48Z</time>
      </trkpt>
      <trkpt lat="38.248201" lon="-1.599258">
        <ele>284.1</ele>
        <time>2023-04-16T10:08:53Z</time>
      </trkpt>
      <trkpt lat="38.248202" lon="-1.599169">
        <ele>286.1</ele>
        <time>2023-04-16T10:08:59Z</time>
      </trkpt>
      <trkpt lat="38.248202" lon="-1.599080">
        <ele>286.1</ele>
        <time>2023-04-16T10:09:04Z</time>
      </trkpt>
      <trkpt lat="38.248195" lon="-1.598997">
        <ele>287.1</ele>
        <time>2023-04-16T10:09:09Z</time>
      </trkpt>
      <trkpt lat="38.248192" lon="-1.598915">
        <ele>287.2</ele>
        <time>2023-04-16T10:09:14Z</time>
      </trkpt>
      <trkpt lat="38.248185" lon="-1.598833">
        <ele>286.2</ele>
        <time>2023-04-16T10:09:19Z</time>
      </trkpt>
      <trkpt lat="38.248187" lon="-1.598738">
        <ele>287.1</ele>
        <time>2023-04-16T10:09:26Z</time>
      </trkpt>
      <trkpt lat="38.248175" lon="-1.598650">
        <ele>287.2</ele>
        <time>2023-04-16T10:09:32Z</time>
      </trkpt>
      <trkpt lat="38.248169" lon="-1.598557">
        <ele>287.2</ele>
        <time>2023-04-16T10:09:38Z</time>
      </trkpt>
      <trkpt lat="38.248164" lon="-1.598465">
        <ele>286.4</ele>
        <time>2023-04-16T10:09:43Z</time>
      </trkpt>
      <trkpt lat="38.248157" lon="-1.598373">
        <ele>287.1</ele>
        <time>2023-04-16T10:09:49Z</time>
      </trkpt>
      <trkpt lat="38.248146" lon="-1.598282">
        <ele>286.2</ele>
        <time>2023-04-16T10:09:55Z</time>
      </trkpt>
      <trkpt lat="38.248133" lon="-1.598187">
        <ele>286.3</ele>
        <time>2023-04-16T10:10:01Z</time>
      </trkpt>
      <trkpt lat="38.248133" lon="-1.598103">
        <ele>286.2</ele>
        <time>2023-04-16T10:10:06Z</time>
      </trkpt>
      <trkpt lat="38.248131" lon="-1.598021">
        <ele>286.9</ele>
        <time>2023-04-16T10:10:11Z</time>
      </trkpt>
      <trkpt lat="38.248127" lon="-1.597938">
        <ele>286.2</ele>
        <time>2023-04-16T10:10:16Z</time>
      </trkpt>
      <trkpt lat="38.248121" lon="-1.597856">
        <ele>286.2</ele>
        <time>2023-04-16T10:10:21Z</time>
      </trkpt>
      <trkpt lat="38.248119" lon="-1.597770">
        <ele>287.2</ele>
        <time>2023-04-16T10:10:27Z</time>
      </trkpt>
      <trkpt lat="38.248122" lon="-1.597690">
        <ele>287.9</ele>
        <time>2023-04-16T10:10:33Z</time>
      </trkpt>
      <trkpt lat="38.248119" lon="-1.597598">
        <ele>287.2</ele>
        <time>2023-04-16T10:10:39Z</time>
      </trkpt>
      <trkpt lat="38.248114" lon="-1.597504">
        <ele>286.4</ele>
        <time>2023-04-16T10:10:45Z</time>
      </trkpt>
      <trkpt lat="38.248109" lon="-1.597417">
        <ele>286.1</ele>
        <time>2023-04-16T10:10:50Z</time>
      </trkpt>
      <trkpt lat="38.248102" lon="-1.597325">
        <ele>287.1</ele>
        <time>2023-04-16T10:10:55Z</time>
      </trkpt>
      <trkpt lat="38.248097" lon="-1.597235">
        <ele>287.2</ele>
        <time>2023-04-16T10:11:00Z</time>
      </trkpt>
      <trkpt lat="38.248093" lon="-1.597140">
        <ele>288.2</ele>
        <time>2023-04-16T10:11:06Z</time>
      </trkpt>
      <trkpt lat="38.248095" lon="-1.597059">
        <ele>288.2</ele>
        <time>2023-04-16T10:11:12Z</time>
      </trkpt>
      <trkpt lat="38.248086" lon="-1.596970">
        <ele>287.2</ele>
        <time>2023-04-16T10:11:17Z</time>
      </trkpt>
      <trkpt lat="38.248089" lon="-1.596875">
        <ele>287.4</ele>
        <time>2023-04-16T10:11:23Z</time>
      </trkpt>
      <trkpt lat="38.248083" lon="-1.596781">
        <ele>289.0</ele>
        <time>2023-04-16T10:11:29Z</time>
      </trkpt>
      <trkpt lat="38.248081" lon="-1.596686">
        <ele>288.4</ele>
        <time>2023-04-16T10:11:35Z</time>
      </trkpt>
      <trkpt lat="38.248094" lon="-1.596588">
        <ele>289.2</ele>
        <time>2023-04-16T10:11:41Z</time>
      </trkpt>
      <trkpt lat="38.248096" lon="-1.596495">
        <ele>289.2</ele>
        <time>2023-04-16T10:11:46Z</time>
      </trkpt>
      <trkpt lat="38.248095" lon="-1.596410">
        <ele>288.2</ele>
        <time>2023-04-16T10:11:51Z</time>
      </trkpt>
      <trkpt lat="38.248102" lon="-1.596329">
        <ele>288.2</ele>
        <time>2023-04-16T10:11:56Z</time>
      </trkpt>
      <trkpt lat="38.248112" lon="-1.596246">
        <ele>288.2</ele>
        <time>2023-04-16T10:12:01Z</time>
      </trkpt>
      <trkpt lat="38.248124" lon="-1.596156">
        <ele>288.2</ele>
        <time>2023-04-16T10:12:07Z</time>
      </trkpt>
      <trkpt lat="38.248138" lon="-1.596056">
        <ele>289.1</ele>
        <time>2023-04-16T10:12:12Z</time>
      </trkpt>
      <trkpt lat="38.248143" lon="-1.595962">
        <ele>287.4</ele>
        <time>2023-04-16T10:12:19Z</time>
      </trkpt>
      <trkpt lat="38.248150" lon="-1.595881">
        <ele>286.2</ele>
        <time>2023-04-16T10:12:23Z</time>
      </trkpt>
      <trkpt lat="38.248158" lon="-1.595799">
        <ele>285.2</ele>
        <time>2023-04-16T10:12:28Z</time>
      </trkpt>
      <trkpt lat="38.248174" lon="-1.595708">
        <ele>285.2</ele>
        <time>2023-04-16T10:12:34Z</time>
      </trkpt>
      <trkpt lat="38.248183" lon="-1.595627">
        <ele>284.2</ele>
        <time>2023-04-16T10:12:39Z</time>
      </trkpt>
      <trkpt lat="38.248192" lon="-1.595537">
        <ele>284.2</ele>
        <time>2023-04-16T10:12:44Z</time>
      </trkpt>
      <trkpt lat="38.248203" lon="-1.595438">
        <ele>283.2</ele>
        <time>2023-04-16T10:12:50Z</time>
      </trkpt>
      <trkpt lat="38.248219" lon="-1.595353">
        <ele>283.2</ele>
        <time>2023-04-16T10:12:55Z</time>
      </trkpt>
      <trkpt lat="38.248231" lon="-1.595258">
        <ele>283.2</ele>
        <time>2023-04-16T10:13:00Z</time>
      </trkpt>
      <trkpt lat="38.248233" lon="-1.595168">
        <ele>283.2</ele>
        <time>2023-04-16T10:13:05Z</time>
      </trkpt>
      <trkpt lat="38.248241" lon="-1.595081">
        <ele>284.2</ele>
        <time>2023-04-16T10:13:10Z</time>
      </trkpt>
      <trkpt lat="38.248253" lon="-1.594970">
        <ele>284.2</ele>
        <time>2023-04-16T10:13:16Z</time>
      </trkpt>
      <trkpt lat="38.248271" lon="-1.594889">
        <ele>284.2</ele>
        <time>2023-04-16T10:13:21Z</time>
      </trkpt>
      <trkpt lat="38.248284" lon="-1.594801">
        <ele>283.2</ele>
        <time>2023-04-16T10:13:27Z</time>
      </trkpt>
      <trkpt lat="38.248293" lon="-1.594707">
        <ele>283.4</ele>
        <time>2023-04-16T10:13:33Z</time>
      </trkpt>
      <trkpt lat="38.248304" lon="-1.594625">
        <ele>283.2</ele>
        <time>2023-04-16T10:13:38Z</time>
      </trkpt>
      <trkpt lat="38.248309" lon="-1.594545">
        <ele>284.2</ele>
        <time>2023-04-16T10:13:43Z</time>
      </trkpt>
      <trkpt lat="38.248322" lon="-1.594462">
        <ele>285.2</ele>
        <time>2023-04-16T10:13:48Z</time>
      </trkpt>
      <trkpt lat="38.248329" lon="-1.594382">
        <ele>284.2</ele>
        <time>2023-04-16T10:13:53Z</time>
      </trkpt>
      <trkpt lat="38.248340" lon="-1.594291">
        <ele>282.2</ele>
        <time>2023-04-16T10:13:58Z</time>
      </trkpt>
      <trkpt lat="38.248358" lon="-1.594205">
        <ele>282.2</ele>
        <time>2023-04-16T10:14:03Z</time>
      </trkpt>
      <trkpt lat="38.248368" lon="-1.594120">
        <ele>282.2</ele>
        <time>2023-04-16T10:14:08Z</time>
      </trkpt>
      <trkpt lat="38.248374" lon="-1.594035">
        <ele>281.4</ele>
        <time>2023-04-16T10:14:13Z</time>
      </trkpt>
      <trkpt lat="38.248383" lon="-1.593951">
        <ele>281.9</ele>
        <time>2023-04-16T10:14:18Z</time>
      </trkpt>
      <trkpt lat="38.248395" lon="-1.593862">
        <ele>282.2</ele>
        <time>2023-04-16T10:14:23Z</time>
      </trkpt>
      <trkpt lat="38.248409" lon="-1.593773">
        <ele>281.2</ele>
        <time>2023-04-16T10:14:29Z</time>
      </trkpt>
      <trkpt lat="38.248419" lon="-1.593688">
        <ele>281.2</ele>
        <time>2023-04-16T10:14:34Z</time>
      </trkpt>
      <trkpt lat="38.248439" lon="-1.593596">
        <ele>281.2</ele>
        <time>2023-04-16T10:14:40Z</time>
      </trkpt>
      <trkpt lat="38.248451" lon="-1.593502">
        <ele>281.9</ele>
        <time>2023-04-16T10:14:45Z</time>
      </trkpt>
      <trkpt lat="38.248459" lon="-1.593414">
        <ele>283.1</ele>
        <time>2023-04-16T10:14:50Z</time>
      </trkpt>
      <trkpt lat="38.248471" lon="-1.593329">
        <ele>282.2</ele>
        <time>2023-04-16T10:14:55Z</time>
      </trkpt>
      <trkpt lat="38.248478" lon="-1.593244">
        <ele>282.2</ele>
        <time>2023-04-16T10:15:00Z</time>
      </trkpt>
      <trkpt lat="38.248484" lon="-1.593156">
        <ele>280.2</ele>
        <time>2023-04-16T10:15:05Z</time>
      </trkpt>
      <trkpt lat="38.248491" lon="-1.593068">
        <ele>279.2</ele>
        <time>2023-04-16T10:15:10Z</time>
      </trkpt>
      <trkpt lat="38.248500" lon="-1.592984">
        <ele>279.2</ele>
        <time>2023-04-16T10:15:15Z</time>
      </trkpt>
      <trkpt lat="38.248515" lon="-1.592903">
        <ele>279.4</ele>
        <time>2023-04-16T10:15:21Z</time>
      </trkpt>
      <trkpt lat="38.248534" lon="-1.592803">
        <ele>279.2</ele>
        <time>2023-04-16T10:15:27Z</time>
      </trkpt>
      <trkpt lat="38.248543" lon="-1.592722">
        <ele>279.2</ele>
        <time>2023-04-16T10:15:32Z</time>
      </trkpt>
      <trkpt lat="38.248564" lon="-1.592627">
        <ele>280.1</ele>
        <time>2023-04-16T10:15:37Z</time>
      </trkpt>
      <trkpt lat="38.248576" lon="-1.592539">
        <ele>279.4</ele>
        <time>2023-04-16T10:15:43Z</time>
      </trkpt>
      <trkpt lat="38.248586" lon="-1.592455">
        <ele>280.1</ele>
        <time>2023-04-16T10:15:47Z</time>
      </trkpt>
      <trkpt lat="38.248592" lon="-1.592360">
        <ele>279.2</ele>
        <time>2023-04-16T10:15:54Z</time>
      </trkpt>
      <trkpt lat="38.248598" lon="-1.592266">
        <ele>279.2</ele>
        <time>2023-04-16T10:15:59Z</time>
      </trkpt>
      <trkpt lat="38.248607" lon="-1.592180">
        <ele>280.1</ele>
        <time>2023-04-16T10:16:03Z</time>
      </trkpt>
      <trkpt lat="38.248624" lon="-1.592101">
        <ele>279.2</ele>
        <time>2023-04-16T10:16:08Z</time>
      </trkpt>
      <trkpt lat="38.248641" lon="-1.592013">
        <ele>280.2</ele>
        <time>2023-04-16T10:16:14Z</time>
      </trkpt>
      <trkpt lat="38.248656" lon="-1.591927">
        <ele>279.2</ele>
        <time>2023-04-16T10:16:19Z</time>
      </trkpt>
      <trkpt lat="38.248671" lon="-1.591830">
        <ele>280.1</ele>
        <time>2023-04-16T10:16:25Z</time>
      </trkpt>
      <trkpt lat="38.248683" lon="-1.591751">
        <ele>280.2</ele>
        <time>2023-04-16T10:16:30Z</time>
      </trkpt>
      <trkpt lat="38.248690" lon="-1.591657">
        <ele>280.2</ele>
        <time>2023-04-16T10:16:35Z</time>
      </trkpt>
      <trkpt lat="38.248703" lon="-1.591576">
        <ele>280.9</ele>
        <time>2023-04-16T10:16:40Z</time>
      </trkpt>
      <trkpt lat="38.248708" lon="-1.591496">
        <ele>282.2</ele>
        <time>2023-04-16T10:16:45Z</time>
      </trkpt>
      <trkpt lat="38.248716" lon="-1.591404">
        <ele>281.2</ele>
        <time>2023-04-16T10:16:51Z</time>
      </trkpt>
      <trkpt lat="38.248722" lon="-1.591321">
        <ele>280.2</ele>
        <time>2023-04-16T10:16:56Z</time>
      </trkpt>
      <trkpt lat="38.248729" lon="-1.591228">
        <ele>281.9</ele>
        <time>2023-04-16T10:17:01Z</time>
      </trkpt>
      <trkpt lat="38.248744" lon="-1.591147">
        <ele>282.9</ele>
        <time>2023-04-16T10:17:06Z</time>
      </trkpt>
      <trkpt lat="38.248759" lon="-1.591064">
        <ele>283.2</ele>
        <time>2023-04-16T10:17:11Z</time>
      </trkpt>
      <trkpt lat="38.248771" lon="-1.590981">
        <ele>284.2</ele>
        <time>2023-04-16T10:17:16Z</time>
      </trkpt>
      <trkpt lat="38.248786" lon="-1.590882">
        <ele>282.2</ele>
        <time>2023-04-16T10:17:22Z</time>
      </trkpt>
      <trkpt lat="38.248801" lon="-1.590788">
        <ele>282.4</ele>
        <time>2023-04-16T10:17:27Z</time>
      </trkpt>
      <trkpt lat="38.248804" lon="-1.590700">
        <ele>282.2</ele>
        <time>2023-04-16T10:17:32Z</time>
      </trkpt>
      <trkpt lat="38.248821" lon="-1.590620">
        <ele>282.2</ele>
        <time>2023-04-16T10:17:37Z</time>
      </trkpt>
      <trkpt lat="38.248827" lon="-1.590525">
        <ele>281.2</ele>
        <time>2023-04-16T10:17:42Z</time>
      </trkpt>
      <trkpt lat="38.248837" lon="-1.590438">
        <ele>281.9</ele>
        <time>2023-04-16T10:17:47Z</time>
      </trkpt>
      <trkpt lat="38.248848" lon="-1.590347">
        <ele>283.0</ele>
        <time>2023-04-16T10:17:52Z</time>
      </trkpt>
      <trkpt lat="38.248859" lon="-1.590265">
        <ele>282.9</ele>
        <time>2023-04-16T10:17:58Z</time>
      </trkpt>
      <trkpt lat="38.248871" lon="-1.590179">
        <ele>283.4</ele>
        <time>2023-04-16T10:18:03Z</time>
      </trkpt>
      <trkpt lat="38.248882" lon="-1.590091">
        <ele>283.2</ele>
        <time>2023-04-16T10:18:07Z</time>
      </trkpt>
      <trkpt lat="38.248889" lon="-1.589999">
        <ele>283.2</ele>
        <time>2023-04-16T10:18:12Z</time>
      </trkpt>
      <trkpt lat="38.248894" lon="-1.589910">
        <ele>283.2</ele>
        <time>2023-04-16T10:18:18Z</time>
      </trkpt>
      <trkpt lat="38.248906" lon="-1.589824">
        <ele>282.4</ele>
        <time>2023-04-16T10:18:24Z</time>
      </trkpt>
      <trkpt lat="38.248915" lon="-1.589734">
        <ele>282.4</ele>
        <time>2023-04-16T10:18:30Z</time>
      </trkpt>
      <trkpt lat="38.248933" lon="-1.589652">
        <ele>282.2</ele>
        <time>2023-04-16T10:18:34Z</time>
      </trkpt>
      <trkpt lat="38.248944" lon="-1.589567">
        <ele>282.2</ele>
        <time>2023-04-16T10:18:39Z</time>
      </trkpt>
      <trkpt lat="38.248950" lon="-1.589478">
        <ele>282.2</ele>
        <time>2023-04-16T10:18:44Z</time>
      </trkpt>
      <trkpt lat="38.248962" lon="-1.589392">
        <ele>282.4</ele>
        <time>2023-04-16T10:18:49Z</time>
      </trkpt>
      <trkpt lat="38.248968" lon="-1.589295">
        <ele>281.2</ele>
        <time>2023-04-16T10:18:55Z</time>
      </trkpt>
      <trkpt lat="38.248970" lon="-1.589214">
        <ele>282.2</ele>
        <time>2023-04-16T10:19:00Z</time>
      </trkpt>
      <trkpt lat="38.248989" lon="-1.589133">
        <ele>281.1</ele>
        <time>2023-04-16T10:19:05Z</time>
      </trkpt>
      <trkpt lat="38.249002" lon="-1.589050">
        <ele>281.2</ele>
        <time>2023-04-16T10:19:10Z</time>
      </trkpt>
      <trkpt lat="38.249010" lon="-1.588969">
        <ele>280.2</ele>
        <time>2023-04-16T10:19:15Z</time>
      </trkpt>
      <trkpt lat="38.249017" lon="-1.588872">
        <ele>280.2</ele>
        <time>2023-04-16T10:19:20Z</time>
      </trkpt>
      <trkpt lat="38.249024" lon="-1.588790">
        <ele>279.2</ele>
        <time>2023-04-16T10:19:25Z</time>
      </trkpt>
      <trkpt lat="38.249038" lon="-1.588701">
        <ele>279.9</ele>
        <time>2023-04-16T10:19:31Z</time>
      </trkpt>
      <trkpt lat="38.249048" lon="-1.588612">
        <ele>279.2</ele>
        <time>2023-04-16T10:19:36Z</time>
      </trkpt>
      <trkpt lat="38.249055" lon="-1.588524">
        <ele>279.2</ele>
        <time>2023-04-16T10:19:41Z</time>
      </trkpt>
      <trkpt lat="38.249066" lon="-1.588436">
        <ele>279.2</ele>
        <time>2023-04-16T10:19:46Z</time>
      </trkpt>
      <trkpt lat="38.249082" lon="-1.588348">
        <ele>279.2</ele>
        <time>2023-04-16T10:19:52Z</time>
      </trkpt>
      <trkpt lat="38.249092" lon="-1.588266">
        <ele>278.2</ele>
        <time>2023-04-16T10:19:57Z</time>
      </trkpt>
      <trkpt lat="38.249111" lon="-1.588181">
        <ele>278.2</ele>
        <time>2023-04-16T10:20:02Z</time>
      </trkpt>
      <trkpt lat="38.249127" lon="-1.588101">
        <ele>278.0</ele>
        <time>2023-04-16T10:20:07Z</time>
      </trkpt>
      <trkpt lat="38.249155" lon="-1.588006">
        <ele>278.2</ele>
        <time>2023-04-16T10:20:13Z</time>
      </trkpt>
      <trkpt lat="38.249185" lon="-1.587922">
        <ele>278.2</ele>
        <time>2023-04-16T10:20:19Z</time>
      </trkpt>
      <trkpt lat="38.249223" lon="-1.587849">
        <ele>278.2</ele>
        <time>2023-04-16T10:20:24Z</time>
      </trkpt>
      <trkpt lat="38.249256" lon="-1.587771">
        <ele>277.2</ele>
        <time>2023-04-16T10:20:29Z</time>
      </trkpt>
      <trkpt lat="38.249290" lon="-1.587698">
        <ele>278.1</ele>
        <time>2023-04-16T10:20:34Z</time>
      </trkpt>
      <trkpt lat="38.249325" lon="-1.587628">
        <ele>277.4</ele>
        <time>2023-04-16T10:20:39Z</time>
      </trkpt>
      <trkpt lat="38.249361" lon="-1.587553">
        <ele>277.2</ele>
        <time>2023-04-16T10:20:43Z</time>
      </trkpt>
      <trkpt lat="38.249412" lon="-1.587483">
        <ele>276.2</ele>
        <time>2023-04-16T10:20:48Z</time>
      </trkpt>
      <trkpt lat="38.249464" lon="-1.587425">
        <ele>277.2</ele>
        <time>2023-04-16T10:20:54Z</time>
      </trkpt>
      <trkpt lat="38.249510" lon="-1.587370">
        <ele>277.2</ele>
        <time>2023-04-16T10:20:59Z</time>
      </trkpt>
      <trkpt lat="38.249567" lon="-1.587316">
        <ele>277.4</ele>
        <time>2023-04-16T10:21:04Z</time>
      </trkpt>
      <trkpt lat="38.249628" lon="-1.587263">
        <ele>276.4</ele>
        <time>2023-04-16T10:21:08Z</time>
      </trkpt>
      <trkpt lat="38.249688" lon="-1.587236">
        <ele>274.2</ele>
        <time>2023-04-16T10:21:14Z</time>
      </trkpt>
      <trkpt lat="38.249749" lon="-1.587193">
        <ele>274.2</ele>
        <time>2023-04-16T10:21:20Z</time>
      </trkpt>
      <trkpt lat="38.249805" lon="-1.587156">
        <ele>274.2</ele>
        <time>2023-04-16T10:21:25Z</time>
      </trkpt>
      <trkpt lat="38.249874" lon="-1.587115">
        <ele>274.2</ele>
        <time>2023-04-16T10:21:31Z</time>
      </trkpt>
      <trkpt lat="38.249928" lon="-1.587058">
        <ele>275.2</ele>
        <time>2023-04-16T10:21:37Z</time>
      </trkpt>
      <trkpt lat="38.249967" lon="-1.586984">
        <ele>275.2</ele>
        <time>2023-04-16T10:21:42Z</time>
      </trkpt>
      <trkpt lat="38.249961" lon="-1.586886">
        <ele>275.2</ele>
        <time>2023-04-16T10:21:48Z</time>
      </trkpt>
      <trkpt lat="38.249900" lon="-1.586859">
        <ele>275.2</ele>
        <time>2023-04-16T10:21:56Z</time>
      </trkpt>
      <trkpt lat="38.249834" lon="-1.586837">
        <ele>276.2</ele>
        <time>2023-04-16T10:22:02Z</time>
      </trkpt>
      <trkpt lat="38.249772" lon="-1.586813">
        <ele>276.9</ele>
        <time>2023-04-16T10:22:07Z</time>
      </trkpt>
      <trkpt lat="38.249688" lon="-1.586783">
        <ele>278.2</ele>
        <time>2023-04-16T10:22:13Z</time>
      </trkpt>
      <trkpt lat="38.249625" lon="-1.586763">
        <ele>277.2</ele>
        <time>2023-04-16T10:22:20Z</time>
      </trkpt>
      <trkpt lat="38.249553" lon="-1.586744">
        <ele>275.4</ele>
        <time>2023-04-16T10:22:27Z</time>
      </trkpt>
      <trkpt lat="38.249489" lon="-1.586711">
        <ele>274.2</ele>
        <time>2023-04-16T10:22:32Z</time>
      </trkpt>
      <trkpt lat="38.249428" lon="-1.586682">
        <ele>275.1</ele>
        <time>2023-04-16T10:22:38Z</time>
      </trkpt>
      <trkpt lat="38.249354" lon="-1.586651">
        <ele>275.2</ele>
        <time>2023-04-16T10:22:44Z</time>
      </trkpt>
      <trkpt lat="38.249291" lon="-1.586635">
        <ele>274.2</ele>
        <time>2023-04-16T10:22:49Z</time>
      </trkpt>
      <trkpt lat="38.249226" lon="-1.586604">
        <ele>275.2</ele>
        <time>2023-04-16T10:22:55Z</time>
      </trkpt>
      <trkpt lat="38.249165" lon="-1.586573">
        <ele>275.2</ele>
        <time>2023-04-16T10:23:01Z</time>
      </trkpt>
      <trkpt lat="38.249095" lon="-1.586547">
        <ele>277.1</ele>
        <time>2023-04-16T10:23:06Z</time>
      </trkpt>
      <trkpt lat="38.249030" lon="-1.586529">
        <ele>278.2</ele>
        <time>2023-04-16T10:23:11Z</time>
      </trkpt>
      <trkpt lat="38.248963" lon="-1.586523">
        <ele>278.1</ele>
        <time>2023-04-16T10:23:17Z</time>
      </trkpt>
      <trkpt lat="38.248894" lon="-1.586499">
        <ele>278.2</ele>
        <time>2023-04-16T10:23:23Z</time>
      </trkpt>
      <trkpt lat="38.248823" lon="-1.586477">
        <ele>279.2</ele>
        <time>2023-04-16T10:23:32Z</time>
      </trkpt>
      <trkpt lat="38.248758" lon="-1.586463">
        <ele>279.4</ele>
        <time>2023-04-16T10:23:37Z</time>
      </trkpt>
      <trkpt lat="38.248685" lon="-1.586439">
        <ele>279.9</ele>
        <time>2023-04-16T10:23:43Z</time>
      </trkpt>
      <trkpt lat="38.248624" lon="-1.586420">
        <ele>280.2</ele>
        <time>2023-04-16T10:23:48Z</time>
      </trkpt>
      <trkpt lat="38.248562" lon="-1.586400">
        <ele>282.2</ele>
        <time>2023-04-16T10:23:53Z</time>
      </trkpt>
      <trkpt lat="38.248498" lon="-1.586391">
        <ele>284.2</ele>
        <time>2023-04-16T10:23:59Z</time>
      </trkpt>
      <trkpt lat="38.248427" lon="-1.586375">
        <ele>284.4</ele>
        <time>2023-04-16T10:24:04Z</time>
      </trkpt>
      <trkpt lat="38.248349" lon="-1.586370">
        <ele>286.1</ele>
        <time>2023-04-16T10:24:09Z</time>
      </trkpt>
      <trkpt lat="38.248284" lon="-1.586341">
        <ele>287.1</ele>
        <time>2023-04-16T10:24:16Z</time>
      </trkpt>
      <trkpt lat="38.248221" lon="-1.586323">
        <ele>286.2</ele>
        <time>2023-04-16T10:24:22Z</time>
      </trkpt>
      <trkpt lat="38.248153" lon="-1.586308">
        <ele>286.2</ele>
        <time>2023-04-16T10:24:28Z</time>
      </trkpt>
      <trkpt lat="38.248078" lon="-1.586293">
        <ele>286.2</ele>
        <time>2023-04-16T10:24:34Z</time>
      </trkpt>
      <trkpt lat="38.248012" lon="-1.586275">
        <ele>287.2</ele>
        <time>2023-04-16T10:24:40Z</time>
      </trkpt>
      <trkpt lat="38.247950" lon="-1.586249">
        <ele>288.9</ele>
        <time>2023-04-16T10:24:45Z</time>
      </trkpt>
      <trkpt lat="38.247883" lon="-1.586228">
        <ele>291.1</ele>
        <time>2023-04-16T10:24:51Z</time>
      </trkpt>
      <trkpt lat="38.247812" lon="-1.586203">
        <ele>291.2</ele>
        <time>2023-04-16T10:24:57Z</time>
      </trkpt>
      <trkpt lat="38.247742" lon="-1.586182">
        <ele>291.2</ele>
        <time>2023-04-16T10:25:02Z</time>
      </trkpt>
      <trkpt lat="38.247680" lon="-1.586159">
        <ele>291.4</ele>
        <time>2023-04-16T10:25:08Z</time>
      </trkpt>
      <trkpt lat="38.247616" lon="-1.586136">
        <ele>291.2</ele>
        <time>2023-04-16T10:25:14Z</time>
      </trkpt>
      <trkpt lat="38.247552" lon="-1.586112">
        <ele>290.4</ele>
        <time>2023-04-16T10:25:20Z</time>
      </trkpt>
      <trkpt lat="38.247487" lon="-1.586093">
        <ele>291.9</ele>
        <time>2023-04-16T10:25:24Z</time>
      </trkpt>
      <trkpt lat="38.247424" lon="-1.586067">
        <ele>292.9</ele>
        <time>2023-04-16T10:25:29Z</time>
      </trkpt>
      <trkpt lat="38.247353" lon="-1.586063">
        <ele>293.2</ele>
        <time>2023-04-16T10:25:36Z</time>
      </trkpt>
      <trkpt lat="38.247285" lon="-1.586031">
        <ele>292.2</ele>
        <time>2023-04-16T10:25:41Z</time>
      </trkpt>
      <trkpt lat="38.247221" lon="-1.586018">
        <ele>294.2</ele>
        <time>2023-04-16T10:25:47Z</time>
      </trkpt>
      <trkpt lat="38.247155" lon="-1.585998">
        <ele>294.2</ele>
        <time>2023-04-16T10:25:54Z</time>
      </trkpt>
      <trkpt lat="38.247091" lon="-1.585981">
        <ele>294.2</ele>
        <time>2023-04-16T10:25:59Z</time>
      </trkpt>
      <trkpt lat="38.247019" lon="-1.585959">
        <ele>295.2</ele>
        <time>2023-04-16T10:26:06Z</time>
      </trkpt>
      <trkpt lat="38.246954" lon="-1.585939">
        <ele>294.2</ele>
        <time>2023-04-16T10:26:11Z</time>
      </trkpt>
      <trkpt lat="38.246896" lon="-1.585890">
        <ele>296.2</ele>
        <time>2023-04-16T10:26:17Z</time>
      </trkpt>
      <trkpt lat="38.246825" lon="-1.585833">
        <ele>297.2</ele>
        <time>2023-04-16T10:26:26Z</time>
      </trkpt>
      <trkpt lat="38.246780" lon="-1.585769">
        <ele>296.2</ele>
        <time>2023-04-16T10:26:30Z</time>
      </trkpt>
      <trkpt lat="38.246756" lon="-1.585695">
        <ele>296.9</ele>
        <time>2023-04-16T10:26:34Z</time>
      </trkpt>
      <trkpt lat="38.246730" lon="-1.585616">
        <ele>299.1</ele>
        <time>2023-04-16T10:26:44Z</time>
      </trkpt>
      <trkpt lat="38.246721" lon="-1.585522">
        <ele>300.2</ele>
        <time>2023-04-16T10:26:52Z</time>
      </trkpt>
      <trkpt lat="38.246711" lon="-1.585440">
        <ele>300.2</ele>
        <time>2023-04-16T10:26:57Z</time>
      </trkpt>
      <trkpt lat="38.246697" lon="-1.585352">
        <ele>299.4</ele>
        <time>2023-04-16T10:27:02Z</time>
      </trkpt>
      <trkpt lat="38.246694" lon="-1.585264">
        <ele>300.2</ele>
        <time>2023-04-16T10:27:07Z</time>
      </trkpt>
      <trkpt lat="38.246696" lon="-1.585185">
        <ele>299.2</ele>
        <time>2023-04-16T10:27:12Z</time>
      </trkpt>
      <trkpt lat="38.246686" lon="-1.585100">
        <ele>300.1</ele>
        <time>2023-04-16T10:27:17Z</time>
      </trkpt>
      <trkpt lat="38.246688" lon="-1.585020">
        <ele>300.2</ele>
        <time>2023-04-16T10:27:23Z</time>
      </trkpt>
      <trkpt lat="38.246671" lon="-1.584912">
        <ele>301.2</ele>
        <time>2023-04-16T10:27:30Z</time>
      </trkpt>
      <trkpt lat="38.246656" lon="-1.584825">
        <ele>301.2</ele>
        <time>2023-04-16T10:27:35Z</time>
      </trkpt>
      <trkpt lat="38.246646" lon="-1.584734">
        <ele>302.2</ele>
        <time>2023-04-16T10:27:40Z</time>
      </trkpt>
      <trkpt lat="38.246659" lon="-1.584636">
        <ele>303.1</ele>
        <time>2023-04-16T10:27:45Z</time>
      </trkpt>
      <trkpt lat="38.246693" lon="-1.584560">
        <ele>304.2</ele>
        <time>2023-04-16T10:27:50Z</time>
      </trkpt>
      <trkpt lat="38.246745" lon="-1.584497">
        <ele>304.2</ele>
        <time>2023-04-16T10:27:57Z</time>
      </trkpt>
      <trkpt lat="38.246781" lon="-1.584427">
        <ele>303.4</ele>
        <time>2023-04-16T10:28:02Z</time>
      </trkpt>
      <trkpt lat="38.246822" lon="-1.584353">
        <ele>302.2</ele>
        <time>2023-04-16T10:28:08Z</time>
      </trkpt>
      <trkpt lat="38.246869" lon="-1.584285">
        <ele>301.2</ele>
        <time>2023-04-16T10:28:14Z</time>
      </trkpt>
      <trkpt lat="38.246901" lon="-1.584203">
        <ele>300.2</ele>
        <time>2023-04-16T10:28:20Z</time>
      </trkpt>
      <trkpt lat="38.246917" lon="-1.584125">
        <ele>299.2</ele>
        <time>2023-04-16T10:28:25Z</time>
      </trkpt>
      <trkpt lat="38.246936" lon="-1.584048">
        <ele>299.2</ele>
        <time>2023-04-16T10:28:30Z</time>
      </trkpt>
      <trkpt lat="38.246957" lon="-1.583967">
        <ele>298.2</ele>
        <time>2023-04-16T10:28:36Z</time>
      </trkpt>
      <trkpt lat="38.246962" lon="-1.583882">
        <ele>298.1</ele>
        <time>2023-04-16T10:28:42Z</time>
      </trkpt>
      <trkpt lat="38.246968" lon="-1.583794">
        <ele>299.2</ele>
        <time>2023-04-16T10:29:04Z</time>
      </trkpt>
      <trkpt lat="38.246988" lon="-1.583718">
        <ele>297.2</ele>
        <time>2023-04-16T10:29:10Z</time>
      </trkpt>
      <trkpt lat="38.246995" lon="-1.583633">
        <ele>296.2</ele>
        <time>2023-04-16T10:29:17Z</time>
      </trkpt>
      <trkpt lat="38.246994" lon="-1.583538">
        <ele>295.2</ele>
        <time>2023-04-16T10:29:23Z</time>
      </trkpt>
      <trkpt lat="38.246992" lon="-1.583445">
        <ele>295.2</ele>
        <time>2023-04-16T10:29:28Z</time>
      </trkpt>
      <trkpt lat="38.246992" lon="-1.583362">
        <ele>295.2</ele>
        <time>2023-04-16T10:29:33Z</time>
      </trkpt>
      <trkpt lat="38.246987" lon="-1.583268">
        <ele>295.4</ele>
        <time>2023-04-16T10:29:39Z</time>
      </trkpt>
      <trkpt lat="38.246981" lon="-1.583183">
        <ele>295.2</ele>
        <time>2023-04-16T10:29:45Z</time>
      </trkpt>
      <trkpt lat="38.246978" lon="-1.583079">
        <ele>294.2</ele>
        <time>2023-04-16T10:29:51Z</time>
      </trkpt>
      <trkpt lat="38.246977" lon="-1.582995">
        <ele>294.2</ele>
        <time>2023-04-16T10:29:56Z</time>
      </trkpt>
      <trkpt lat="38.246970" lon="-1.582909">
        <ele>294.2</ele>
        <time>2023-04-16T10:30:01Z</time>
      </trkpt>
      <trkpt lat="38.246958" lon="-1.582830">
        <ele>294.4</ele>
        <time>2023-04-16T10:30:06Z</time>
      </trkpt>
      <trkpt lat="38.246952" lon="-1.582749">
        <ele>294.2</ele>
        <time>2023-04-16T10:30:11Z</time>
      </trkpt>
      <trkpt lat="38.246948" lon="-1.582667">
        <ele>294.9</ele>
        <time>2023-04-16T10:30:17Z</time>
      </trkpt>
      <trkpt lat="38.246930" lon="-1.582586">
        <ele>295.2</ele>
        <time>2023-04-16T10:30:22Z</time>
      </trkpt>
      <trkpt lat="38.246919" lon="-1.582496">
        <ele>294.2</ele>
        <time>2023-04-16T10:30:28Z</time>
      </trkpt>
      <trkpt lat="38.246913" lon="-1.582400">
        <ele>293.2</ele>
        <time>2023-04-16T10:30:34Z</time>
      </trkpt>
      <trkpt lat="38.246914" lon="-1.582318">
        <ele>294.2</ele>
        <time>2023-04-16T10:30:39Z</time>
      </trkpt>
      <trkpt lat="38.246929" lon="-1.582239">
        <ele>294.2</ele>
        <time>2023-04-16T10:30:44Z</time>
      </trkpt>
      <trkpt lat="38.246941" lon="-1.582146">
        <ele>293.2</ele>
        <time>2023-04-16T10:30:50Z</time>
      </trkpt>
      <trkpt lat="38.246965" lon="-1.582036">
        <ele>291.4</ele>
        <time>2023-04-16T10:30:56Z</time>
      </trkpt>
      <trkpt lat="38.246980" lon="-1.581957">
        <ele>290.2</ele>
        <time>2023-04-16T10:31:02Z</time>
      </trkpt>
      <trkpt lat="38.246997" lon="-1.581878">
        <ele>289.2</ele>
        <time>2023-04-16T10:31:08Z</time>
      </trkpt>
      <trkpt lat="38.247007" lon="-1.581797">
        <ele>288.2</ele>
        <time>2023-04-16T10:31:13Z</time>
      </trkpt>
      <trkpt lat="38.247019" lon="-1.581713">
        <ele>288.2</ele>
        <time>2023-04-16T10:31:18Z</time>
      </trkpt>
      <trkpt lat="38.247021" lon="-1.581626">
        <ele>288.4</ele>
        <time>2023-04-16T10:31:24Z</time>
      </trkpt>
      <trkpt lat="38.247025" lon="-1.581533">
        <ele>286.2</ele>
        <time>2023-04-16T10:31:30Z</time>
      </trkpt>
      <trkpt lat="38.247040" lon="-1.581452">
        <ele>284.2</ele>
        <time>2023-04-16T10:31:35Z</time>
      </trkpt>
      <trkpt lat="38.247034" lon="-1.581372">
        <ele>285.2</ele>
        <time>2023-04-16T10:31:40Z</time>
      </trkpt>
      <trkpt lat="38.247033" lon="-1.581260">
        <ele>283.5</ele>
        <time>2023-04-16T10:31:46Z</time>
      </trkpt>
      <trkpt lat="38.247031" lon="-1.581165">
        <ele>283.2</ele>
        <time>2023-04-16T10:31:52Z</time>
      </trkpt>
      <trkpt lat="38.247026" lon="-1.581075">
        <ele>283.2</ele>
        <time>2023-04-16T10:31:58Z</time>
      </trkpt>
      <trkpt lat="38.247044" lon="-1.580988">
        <ele>282.2</ele>
        <time>2023-04-16T10:32:04Z</time>
      </trkpt>
      <trkpt lat="38.247041" lon="-1.580902">
        <ele>281.2</ele>
        <time>2023-04-16T10:32:10Z</time>
      </trkpt>
      <trkpt lat="38.247046" lon="-1.580820">
        <ele>280.2</ele>
        <time>2023-04-16T10:32:16Z</time>
      </trkpt>
      <trkpt lat="38.247062" lon="-1.580737">
        <ele>280.2</ele>
        <time>2023-04-16T10:32:22Z</time>
      </trkpt>
      <trkpt lat="38.247063" lon="-1.580656">
        <ele>279.2</ele>
        <time>2023-04-16T10:32:28Z</time>
      </trkpt>
      <trkpt lat="38.247072" lon="-1.580571">
        <ele>279.2</ele>
        <time>2023-04-16T10:32:34Z</time>
      </trkpt>
      <trkpt lat="38.247084" lon="-1.580488">
        <ele>278.2</ele>
        <time>2023-04-16T10:32:40Z</time>
      </trkpt>
      <trkpt lat="38.247083" lon="-1.580403">
        <ele>279.2</ele>
        <time>2023-04-16T10:32:46Z</time>
      </trkpt>
      <trkpt lat="38.247082" lon="-1.580322">
        <ele>280.1</ele>
        <time>2023-04-16T10:32:51Z</time>
      </trkpt>
      <trkpt lat="38.247080" lon="-1.580226">
        <ele>280.2</ele>
        <time>2023-04-16T10:32:57Z</time>
      </trkpt>
      <trkpt lat="38.247083" lon="-1.580146">
        <ele>280.2</ele>
        <time>2023-04-16T10:33:10Z</time>
      </trkpt>
      <trkpt lat="38.247090" lon="-1.580058">
        <ele>278.4</ele>
        <time>2023-04-16T10:33:30Z</time>
      </trkpt>
      <trkpt lat="38.247104" lon="-1.580027">
        <ele>277.4</ele>
        <time>2023-04-16T10:38:28Z</time>
      </trkpt>
      <trkpt lat="38.247106" lon="-1.579943">
        <ele>276.3</ele>
        <time>2023-04-16T10:39:24Z</time>
      </trkpt>
      <trkpt lat="38.247120" lon="-1.579864">
        <ele>277.2</ele>
        <time>2023-04-16T10:39:32Z</time>
      </trkpt>
      <trkpt lat="38.247126" lon="-1.579773">
        <ele>275.2</ele>
        <time>2023-04-16T10:39:42Z</time>
      </trkpt>
      <trkpt lat="38.247133" lon="-1.579692">
        <ele>276.4</ele>
        <time>2023-04-16T10:39:51Z</time>
      </trkpt>
      <trkpt lat="38.247138" lon="-1.579605">
        <ele>276.2</ele>
        <time>2023-04-16T10:40:00Z</time>
      </trkpt>
      <trkpt lat="38.247139" lon="-1.579518">
        <ele>276.9</ele>
        <time>2023-04-16T10:40:07Z</time>
      </trkpt>
      <trkpt lat="38.247140" lon="-1.579423">
        <ele>276.2</ele>
        <time>2023-04-16T10:40:13Z</time>
      </trkpt>
      <trkpt lat="38.247150" lon="-1.579341">
        <ele>276.2</ele>
        <time>2023-04-16T10:40:18Z</time>
      </trkpt>
      <trkpt lat="38.247163" lon="-1.579255">
        <ele>277.0</ele>
        <time>2023-04-16T10:40:26Z</time>
      </trkpt>
      <trkpt lat="38.247165" lon="-1.579168">
        <ele>277.2</ele>
        <time>2023-04-16T10:40:32Z</time>
      </trkpt>
      <trkpt lat="38.247180" lon="-1.579073">
        <ele>277.2</ele>
        <time>2023-04-16T10:40:38Z</time>
      </trkpt>
      <trkpt lat="38.247180" lon="-1.578989">
        <ele>276.2</ele>
        <time>2023-04-16T10:40:44Z</time>
      </trkpt>
      <trkpt lat="38.247176" lon="-1.578899">
        <ele>277.9</ele>
        <time>2023-04-16T10:40:50Z</time>
      </trkpt>
      <trkpt lat="38.247174" lon="-1.578813">
        <ele>279.2</ele>
        <time>2023-04-16T10:40:55Z</time>
      </trkpt>
      <trkpt lat="38.247176" lon="-1.578721">
        <ele>279.2</ele>
        <time>2023-04-16T10:41:01Z</time>
      </trkpt>
      <trkpt lat="38.247178" lon="-1.578639">
        <ele>279.9</ele>
        <time>2023-04-16T10:41:06Z</time>
      </trkpt>
      <trkpt lat="38.247182" lon="-1.578559">
        <ele>280.2</ele>
        <time>2023-04-16T10:41:11Z</time>
      </trkpt>
      <trkpt lat="38.247182" lon="-1.578466">
        <ele>280.2</ele>
        <time>2023-04-16T10:41:17Z</time>
      </trkpt>
      <trkpt lat="38.247184" lon="-1.578380">
        <ele>280.1</ele>
        <time>2023-04-16T10:41:22Z</time>
      </trkpt>
      <trkpt lat="38.247182" lon="-1.578299">
        <ele>279.2</ele>
        <time>2023-04-16T10:41:27Z</time>
      </trkpt>
      <trkpt lat="38.247173" lon="-1.578187">
        <ele>278.3</ele>
        <time>2023-04-16T10:41:33Z</time>
      </trkpt>
      <trkpt lat="38.247164" lon="-1.578090">
        <ele>278.2</ele>
        <time>2023-04-16T10:41:39Z</time>
      </trkpt>
      <trkpt lat="38.247152" lon="-1.577999">
        <ele>277.3</ele>
        <time>2023-04-16T10:41:46Z</time>
      </trkpt>
      <trkpt lat="38.247141" lon="-1.577911">
        <ele>278.2</ele>
        <time>2023-04-16T10:41:51Z</time>
      </trkpt>
      <trkpt lat="38.247140" lon="-1.577819">
        <ele>279.2</ele>
        <time>2023-04-16T10:41:56Z</time>
      </trkpt>
      <trkpt lat="38.247137" lon="-1.577723">
        <ele>277.2</ele>
        <time>2023-04-16T10:42:02Z</time>
      </trkpt>
      <trkpt lat="38.247133" lon="-1.577637">
        <ele>278.2</ele>
        <time>2023-04-16T10:42:07Z</time>
      </trkpt>
      <trkpt lat="38.247123" lon="-1.577551">
        <ele>278.2</ele>
        <time>2023-04-16T10:42:12Z</time>
      </trkpt>
      <trkpt lat="38.247121" lon="-1.577461">
        <ele>278.4</ele>
        <time>2023-04-16T10:42:17Z</time>
      </trkpt>
      <trkpt lat="38.247119" lon="-1.577373">
        <ele>277.2</ele>
        <time>2023-04-16T10:42:23Z</time>
      </trkpt>
      <trkpt lat="38.247121" lon="-1.577275">
        <ele>276.3</ele>
        <time>2023-04-16T10:42:29Z</time>
      </trkpt>
      <trkpt lat="38.247130" lon="-1.577186">
        <ele>276.1</ele>
        <time>2023-04-16T10:42:34Z</time>
      </trkpt>
      <trkpt lat="38.247142" lon="-1.577097">
        <ele>274.3</ele>
        <time>2023-04-16T10:42:40Z</time>
      </trkpt>
      <trkpt lat="38.247159" lon="-1.577009">
        <ele>272.3</ele>
        <time>2023-04-16T10:42:46Z</time>
      </trkpt>
      <trkpt lat="38.247164" lon="-1.576926">
        <ele>272.2</ele>
        <time>2023-04-16T10:42:51Z</time>
      </trkpt>
      <trkpt lat="38.247171" lon="-1.576836">
        <ele>271.3</ele>
        <time>2023-04-16T10:42:56Z</time>
      </trkpt>
      <trkpt lat="38.247190" lon="-1.576755">
        <ele>271.2</ele>
        <time>2023-04-16T10:43:01Z</time>
      </trkpt>
      <trkpt lat="38.247207" lon="-1.576675">
        <ele>271.2</ele>
        <time>2023-04-16T10:43:06Z</time>
      </trkpt>
      <trkpt lat="38.247221" lon="-1.576585">
        <ele>270.2</ele>
        <time>2023-04-16T10:43:12Z</time>
      </trkpt>
      <trkpt lat="38.247240" lon="-1.576505">
        <ele>269.2</ele>
        <time>2023-04-16T10:43:17Z</time>
      </trkpt>
      <trkpt lat="38.247265" lon="-1.576427">
        <ele>268.2</ele>
        <time>2023-04-16T10:43:22Z</time>
      </trkpt>
      <trkpt lat="38.247282" lon="-1.576344">
        <ele>268.2</ele>
        <time>2023-04-16T10:43:27Z</time>
      </trkpt>
      <trkpt lat="38.247296" lon="-1.576252">
        <ele>266.5</ele>
        <time>2023-04-16T10:43:33Z</time>
      </trkpt>
      <trkpt lat="38.247308" lon="-1.576169">
        <ele>267.2</ele>
        <time>2023-04-16T10:43:38Z</time>
      </trkpt>
      <trkpt lat="38.247319" lon="-1.576068">
        <ele>267.2</ele>
        <time>2023-04-16T10:43:44Z</time>
      </trkpt>
      <trkpt lat="38.247322" lon="-1.575973">
        <ele>267.2</ele>
        <time>2023-04-16T10:43:49Z</time>
      </trkpt>
      <trkpt lat="38.247321" lon="-1.575884">
        <ele>265.3</ele>
        <time>2023-04-16T10:43:55Z</time>
      </trkpt>
      <trkpt lat="38.247318" lon="-1.575804">
        <ele>265.2</ele>
        <time>2023-04-16T10:43:59Z</time>
      </trkpt>
      <trkpt lat="38.247312" lon="-1.575716">
        <ele>265.2</ele>
        <time>2023-04-16T10:44:04Z</time>
      </trkpt>
      <trkpt lat="38.247280" lon="-1.575641">
        <ele>267.0</ele>
        <time>2023-04-16T10:44:09Z</time>
      </trkpt>
      <trkpt lat="38.247255" lon="-1.575557">
        <ele>267.2</ele>
        <time>2023-04-16T10:44:14Z</time>
      </trkpt>
      <trkpt lat="38.247224" lon="-1.575469">
        <ele>268.2</ele>
        <time>2023-04-16T10:44:19Z</time>
      </trkpt>
      <trkpt lat="38.247200" lon="-1.575381">
        <ele>270.0</ele>
        <time>2023-04-16T10:44:24Z</time>
      </trkpt>
      <trkpt lat="38.247167" lon="-1.575301">
        <ele>272.2</ele>
        <time>2023-04-16T10:44:30Z</time>
      </trkpt>
      <trkpt lat="38.247134" lon="-1.575223">
        <ele>272.2</ele>
        <time>2023-04-16T10:44:34Z</time>
      </trkpt>
      <trkpt lat="38.247104" lon="-1.575140">
        <ele>275.0</ele>
        <time>2023-04-16T10:44:40Z</time>
      </trkpt>
      <trkpt lat="38.247072" lon="-1.575065">
        <ele>274.3</ele>
        <time>2023-04-16T10:44:44Z</time>
      </trkpt>
      <trkpt lat="38.247040" lon="-1.574979">
        <ele>274.2</ele>
        <time>2023-04-16T10:44:50Z</time>
      </trkpt>
      <trkpt lat="38.247009" lon="-1.574896">
        <ele>274.2</ele>
        <time>2023-04-16T10:44:56Z</time>
      </trkpt>
      <trkpt lat="38.246967" lon="-1.574828">
        <ele>274.2</ele>
        <time>2023-04-16T10:45:01Z</time>
      </trkpt>
      <trkpt lat="38.246937" lon="-1.574757">
        <ele>275.1</ele>
        <time>2023-04-16T10:45:06Z</time>
      </trkpt>
      <trkpt lat="38.246899" lon="-1.574675">
        <ele>275.2</ele>
        <time>2023-04-16T10:45:12Z</time>
      </trkpt>
      <trkpt lat="38.246873" lon="-1.574598">
        <ele>275.2</ele>
        <time>2023-04-16T10:45:17Z</time>
      </trkpt>
      <trkpt lat="38.246840" lon="-1.574529">
        <ele>274.2</ele>
        <time>2023-04-16T10:45:22Z</time>
      </trkpt>
      <trkpt lat="38.246806" lon="-1.574460">
        <ele>275.2</ele>
        <time>2023-04-16T10:45:27Z</time>
      </trkpt>
      <trkpt lat="38.246765" lon="-1.574387">
        <ele>275.2</ele>
        <time>2023-04-16T10:45:33Z</time>
      </trkpt>
      <trkpt lat="38.246742" lon="-1.574307">
        <ele>275.2</ele>
        <time>2023-04-16T10:45:38Z</time>
      </trkpt>
      <trkpt lat="38.246708" lon="-1.574232">
        <ele>275.0</ele>
        <time>2023-04-16T10:45:43Z</time>
      </trkpt>
      <trkpt lat="38.246678" lon="-1.574152">
        <ele>275.2</ele>
        <time>2023-04-16T10:45:49Z</time>
      </trkpt>
      <trkpt lat="38.246642" lon="-1.574081">
        <ele>276.0</ele>
        <time>2023-04-16T10:45:54Z</time>
      </trkpt>
      <trkpt lat="38.246598" lon="-1.574019">
        <ele>274.2</ele>
        <time>2023-04-16T10:46:01Z</time>
      </trkpt>
      <trkpt lat="38.246536" lon="-1.573997">
        <ele>274.2</ele>
        <time>2023-04-16T10:46:06Z</time>
      </trkpt>
      <trkpt lat="38.246497" lon="-1.573983">
        <ele>274.2</ele>
        <time>2023-04-16T10:46:12Z</time>
      </trkpt>
      <trkpt lat="38.246483" lon="-1.573980">
        <ele>273.5</ele>
        <time>2023-04-16T10:48:13Z</time>
      </trkpt>
      <trkpt lat="38.246472" lon="-1.573981">
        <ele>267.5</ele>
        <time>2023-04-16T10:50:18Z</time>
      </trkpt>
      <trkpt lat="38.246433" lon="-1.573941">
        <ele>267.5</ele>
        <time>2023-04-16T10:51:31Z</time>
      </trkpt>
      <trkpt lat="38.246366" lon="-1.573904">
        <ele>268.0</ele>
        <time>2023-04-16T10:51:39Z</time>
      </trkpt>
      <trkpt lat="38.246292" lon="-1.573864">
        <ele>270.0</ele>
        <time>2023-04-16T10:51:46Z</time>
      </trkpt>
      <trkpt lat="38.246230" lon="-1.573822">
        <ele>270.2</ele>
        <time>2023-04-16T10:51:55Z</time>
      </trkpt>
      <trkpt lat="38.246173" lon="-1.573781">
        <ele>270.2</ele>
        <time>2023-04-16T10:52:01Z</time>
      </trkpt>
      <trkpt lat="38.246109" lon="-1.573743">
        <ele>271.2</ele>
        <time>2023-04-16T10:52:19Z</time>
      </trkpt>
      <trkpt lat="38.246047" lon="-1.573728">
        <ele>270.4</ele>
        <time>2023-04-16T10:52:25Z</time>
      </trkpt>
      <trkpt lat="38.245982" lon="-1.573696">
        <ele>270.2</ele>
        <time>2023-04-16T10:52:33Z</time>
      </trkpt>
      <trkpt lat="38.245918" lon="-1.573657">
        <ele>272.1</ele>
        <time>2023-04-16T10:52:39Z</time>
      </trkpt>
      <trkpt lat="38.245852" lon="-1.573619">
        <ele>272.2</ele>
        <time>2023-04-16T10:52:45Z</time>
      </trkpt>
      <trkpt lat="38.245779" lon="-1.573594">
        <ele>272.2</ele>
        <time>2023-04-16T10:52:51Z</time>
      </trkpt>
      <trkpt lat="38.245715" lon="-1.573566">
        <ele>272.2</ele>
        <time>2023-04-16T10:52:57Z</time>
      </trkpt>
      <trkpt lat="38.245646" lon="-1.573538">
        <ele>272.9</ele>
        <time>2023-04-16T10:53:03Z</time>
      </trkpt>
      <trkpt lat="38.245576" lon="-1.573541">
        <ele>273.2</ele>
        <time>2023-04-16T10:53:10Z</time>
      </trkpt>
      <trkpt lat="38.245511" lon="-1.573559">
        <ele>274.2</ele>
        <time>2023-04-16T10:53:16Z</time>
      </trkpt>
      <trkpt lat="38.245443" lon="-1.573571">
        <ele>276.2</ele>
        <time>2023-04-16T10:53:24Z</time>
      </trkpt>
      <trkpt lat="38.245365" lon="-1.573585">
        <ele>278.1</ele>
        <time>2023-04-16T10:53:31Z</time>
      </trkpt>
      <trkpt lat="38.245295" lon="-1.573605">
        <ele>278.5</ele>
        <time>2023-04-16T10:53:39Z</time>
      </trkpt>
      <trkpt lat="38.245228" lon="-1.573644">
        <ele>280.2</ele>
        <time>2023-04-16T10:53:46Z</time>
      </trkpt>
      <trkpt lat="38.245170" lon="-1.573695">
        <ele>282.0</ele>
        <time>2023-04-16T10:53:53Z</time>
      </trkpt>
      <trkpt lat="38.245106" lon="-1.573705">
        <ele>284.2</ele>
        <time>2023-04-16T10:54:00Z</time>
      </trkpt>
      <trkpt lat="38.245051" lon="-1.573658">
        <ele>283.2</ele>
        <time>2023-04-16T10:54:06Z</time>
      </trkpt>
      <trkpt lat="38.244999" lon="-1.573609">
        <ele>281.3</ele>
        <time>2023-04-16T10:54:13Z</time>
      </trkpt>
      <trkpt lat="38.244940" lon="-1.573571">
        <ele>281.2</ele>
        <time>2023-04-16T10:54:19Z</time>
      </trkpt>
      <trkpt lat="38.244881" lon="-1.573525">
        <ele>280.3</ele>
        <time>2023-04-16T10:54:26Z</time>
      </trkpt>
      <trkpt lat="38.244825" lon="-1.573476">
        <ele>280.2</ele>
        <time>2023-04-16T10:54:32Z</time>
      </trkpt>
      <trkpt lat="38.244759" lon="-1.573439">
        <ele>280.2</ele>
        <time>2023-04-16T10:54:39Z</time>
      </trkpt>
      <trkpt lat="38.244695" lon="-1.573415">
        <ele>279.2</ele>
        <time>2023-04-16T10:54:45Z</time>
      </trkpt>
      <trkpt lat="38.244631" lon="-1.573386">
        <ele>278.2</ele>
        <time>2023-04-16T10:54:53Z</time>
      </trkpt>
      <trkpt lat="38.244570" lon="-1.573343">
        <ele>278.2</ele>
        <time>2023-04-16T10:55:01Z</time>
      </trkpt>
      <trkpt lat="38.244508" lon="-1.573323">
        <ele>278.2</ele>
        <time>2023-04-16T10:55:06Z</time>
      </trkpt>
      <trkpt lat="38.244440" lon="-1.573345">
        <ele>279.2</ele>
        <time>2023-04-16T10:55:12Z</time>
      </trkpt>
      <trkpt lat="38.244380" lon="-1.573395">
        <ele>279.4</ele>
        <time>2023-04-16T10:55:17Z</time>
      </trkpt>
      <trkpt lat="38.244324" lon="-1.573444">
        <ele>281.0</ele>
        <time>2023-04-16T10:55:22Z</time>
      </trkpt>
      <trkpt lat="38.244263" lon="-1.573478">
        <ele>282.2</ele>
        <time>2023-04-16T10:55:28Z</time>
      </trkpt>
      <trkpt lat="38.244201" lon="-1.573506">
        <ele>283.2</ele>
        <time>2023-04-16T10:55:34Z</time>
      </trkpt>
      <trkpt lat="38.244133" lon="-1.573493">
        <ele>283.2</ele>
        <time>2023-04-16T10:55:40Z</time>
      </trkpt>
      <trkpt lat="38.244071" lon="-1.573458">
        <ele>283.2</ele>
        <time>2023-04-16T10:55:46Z</time>
      </trkpt>
      <trkpt lat="38.243998" lon="-1.573422">
        <ele>280.3</ele>
        <time>2023-04-16T10:55:52Z</time>
      </trkpt>
      <trkpt lat="38.243938" lon="-1.573392">
        <ele>279.5</ele>
        <time>2023-04-16T10:55:58Z</time>
      </trkpt>
      <trkpt lat="38.243876" lon="-1.573347">
        <ele>278.2</ele>
        <time>2023-04-16T10:56:04Z</time>
      </trkpt>
      <trkpt lat="38.243820" lon="-1.573306">
        <ele>276.5</ele>
        <time>2023-04-16T10:56:10Z</time>
      </trkpt>
      <trkpt lat="38.243761" lon="-1.573255">
        <ele>276.2</ele>
        <time>2023-04-16T10:56:16Z</time>
      </trkpt>
      <trkpt lat="38.243698" lon="-1.573199">
        <ele>276.2</ele>
        <time>2023-04-16T10:56:22Z</time>
      </trkpt>
      <trkpt lat="38.243657" lon="-1.573133">
        <ele>275.3</ele>
        <time>2023-04-16T10:56:29Z</time>
      </trkpt>
      <trkpt lat="38.243612" lon="-1.573069">
        <ele>276.2</ele>
        <time>2023-04-16T10:56:36Z</time>
      </trkpt>
      <trkpt lat="38.243561" lon="-1.573006">
        <ele>275.2</ele>
        <time>2023-04-16T10:56:42Z</time>
      </trkpt>
      <trkpt lat="38.243518" lon="-1.572934">
        <ele>274.2</ele>
        <time>2023-04-16T10:56:48Z</time>
      </trkpt>
      <trkpt lat="38.243476" lon="-1.572874">
        <ele>274.2</ele>
        <time>2023-04-16T10:56:53Z</time>
      </trkpt>
      <trkpt lat="38.243426" lon="-1.572818">
        <ele>273.5</ele>
        <time>2023-04-16T10:56:59Z</time>
      </trkpt>
      <trkpt lat="38.243390" lon="-1.572749">
        <ele>274.2</ele>
        <time>2023-04-16T10:57:05Z</time>
      </trkpt>
      <trkpt lat="38.243348" lon="-1.572675">
        <ele>273.3</ele>
        <time>2023-04-16T10:57:11Z</time>
      </trkpt>
      <trkpt lat="38.243291" lon="-1.572620">
        <ele>273.2</ele>
        <time>2023-04-16T10:57:17Z</time>
      </trkpt>
      <trkpt lat="38.243236" lon="-1.572579">
        <ele>273.2</ele>
        <time>2023-04-16T10:57:22Z</time>
      </trkpt>
      <trkpt lat="38.243182" lon="-1.572524">
        <ele>272.2</ele>
        <time>2023-04-16T10:57:28Z</time>
      </trkpt>
      <trkpt lat="38.243120" lon="-1.572488">
        <ele>273.2</ele>
        <time>2023-04-16T10:57:34Z</time>
      </trkpt>
      <trkpt lat="38.243062" lon="-1.572444">
        <ele>274.0</ele>
        <time>2023-04-16T10:57:40Z</time>
      </trkpt>
      <trkpt lat="38.242998" lon="-1.572397">
        <ele>274.2</ele>
        <time>2023-04-16T10:57:46Z</time>
      </trkpt>
      <trkpt lat="38.242937" lon="-1.572356">
        <ele>275.0</ele>
        <time>2023-04-16T10:57:52Z</time>
      </trkpt>
      <trkpt lat="38.242888" lon="-1.572290">
        <ele>276.2</ele>
        <time>2023-04-16T10:57:57Z</time>
      </trkpt>
      <trkpt lat="38.242857" lon="-1.572218">
        <ele>276.2</ele>
        <time>2023-04-16T10:58:01Z</time>
      </trkpt>
      <trkpt lat="38.242816" lon="-1.572156">
        <ele>276.2</ele>
        <time>2023-04-16T10:58:06Z</time>
      </trkpt>
      <trkpt lat="38.242785" lon="-1.572079">
        <ele>276.5</ele>
        <time>2023-04-16T10:58:13Z</time>
      </trkpt>
      <trkpt lat="38.242740" lon="-1.572014">
        <ele>276.3</ele>
        <time>2023-04-16T10:58:21Z</time>
      </trkpt>
      <trkpt lat="38.242703" lon="-1.571933">
        <ele>276.2</ele>
        <time>2023-04-16T10:58:27Z</time>
      </trkpt>
      <trkpt lat="38.242655" lon="-1.571872">
        <ele>275.5</ele>
        <time>2023-04-16T10:58:33Z</time>
      </trkpt>
      <trkpt lat="38.242618" lon="-1.571803">
        <ele>275.2</ele>
        <time>2023-04-16T10:58:39Z</time>
      </trkpt>
      <trkpt lat="38.242585" lon="-1.571728">
        <ele>275.2</ele>
        <time>2023-04-16T10:58:45Z</time>
      </trkpt>
      <trkpt lat="38.242544" lon="-1.571653">
        <ele>275.3</ele>
        <time>2023-04-16T10:58:51Z</time>
      </trkpt>
      <trkpt lat="38.242506" lon="-1.571582">
        <ele>276.2</ele>
        <time>2023-04-16T10:58:56Z</time>
      </trkpt>
      <trkpt lat="38.242462" lon="-1.571515">
        <ele>276.2</ele>
        <time>2023-04-16T10:59:01Z</time>
      </trkpt>
      <trkpt lat="38.242417" lon="-1.571446">
        <ele>274.3</ele>
        <time>2023-04-16T10:59:07Z</time>
      </trkpt>
      <trkpt lat="38.242363" lon="-1.571395">
        <ele>274.2</ele>
        <time>2023-04-16T10:59:12Z</time>
      </trkpt>
      <trkpt lat="38.242308" lon="-1.571343">
        <ele>274.2</ele>
        <time>2023-04-16T10:59:19Z</time>
      </trkpt>
      <trkpt lat="38.242252" lon="-1.571298">
        <ele>274.2</ele>
        <time>2023-04-16T10:59:23Z</time>
      </trkpt>
      <trkpt lat="38.242197" lon="-1.571260">
        <ele>273.3</ele>
        <time>2023-04-16T10:59:28Z</time>
      </trkpt>
      <trkpt lat="38.242138" lon="-1.571202">
        <ele>272.2</ele>
        <time>2023-04-16T10:59:35Z</time>
      </trkpt>
      <trkpt lat="38.242078" lon="-1.571155">
        <ele>273.2</ele>
        <time>2023-04-16T10:59:42Z</time>
      </trkpt>
      <trkpt lat="38.242021" lon="-1.571097">
        <ele>273.2</ele>
        <time>2023-04-16T10:59:48Z</time>
      </trkpt>
      <trkpt lat="38.241967" lon="-1.571042">
        <ele>275.5</ele>
        <time>2023-04-16T11:00:00Z</time>
      </trkpt>
      <trkpt lat="38.241909" lon="-1.570984">
        <ele>275.2</ele>
        <time>2023-04-16T11:00:06Z</time>
      </trkpt>
      <trkpt lat="38.241857" lon="-1.570924">
        <ele>276.2</ele>
        <time>2023-04-16T11:00:12Z</time>
      </trkpt>
      <trkpt lat="38.241791" lon="-1.570864">
        <ele>277.2</ele>
        <time>2023-04-16T11:00:18Z</time>
      </trkpt>
      <trkpt lat="38.241739" lon="-1.570810">
        <ele>277.2</ele>
        <time>2023-04-16T11:00:24Z</time>
      </trkpt>
      <trkpt lat="38.241675" lon="-1.570765">
        <ele>277.5</ele>
        <time>2023-04-16T11:00:30Z</time>
      </trkpt>
      <trkpt lat="38.241619" lon="-1.570722">
        <ele>278.2</ele>
        <time>2023-04-16T11:00:35Z</time>
      </trkpt>
      <trkpt lat="38.241556" lon="-1.570675">
        <ele>278.2</ele>
        <time>2023-04-16T11:00:41Z</time>
      </trkpt>
      <trkpt lat="38.241494" lon="-1.570630">
        <ele>279.0</ele>
        <time>2023-04-16T11:00:47Z</time>
      </trkpt>
      <trkpt lat="38.241430" lon="-1.570556">
        <ele>278.2</ele>
        <time>2023-04-16T11:00:53Z</time>
      </trkpt>
      <trkpt lat="38.241372" lon="-1.570519">
        <ele>280.1</ele>
        <time>2023-04-16T11:00:59Z</time>
      </trkpt>
      <trkpt lat="38.241299" lon="-1.570515">
        <ele>278.3</ele>
        <time>2023-04-16T11:01:06Z</time>
      </trkpt>
      <trkpt lat="38.241245" lon="-1.570567">
        <ele>276.1</ele>
        <time>2023-04-16T11:01:16Z</time>
      </trkpt>
      <trkpt lat="38.241195" lon="-1.570624">
        <ele>276.0</ele>
        <time>2023-04-16T11:01:22Z</time>
      </trkpt>
      <trkpt lat="38.241129" lon="-1.570676">
        <ele>276.1</ele>
        <time>2023-04-16T11:01:29Z</time>
      </trkpt>
      <trkpt lat="38.241076" lon="-1.570720">
        <ele>277.2</ele>
        <time>2023-04-16T11:01:34Z</time>
      </trkpt>
      <trkpt lat="38.241009" lon="-1.570757">
        <ele>276.0</ele>
        <time>2023-04-16T11:01:41Z</time>
      </trkpt>
      <trkpt lat="38.240944" lon="-1.570758">
        <ele>275.3</ele>
        <time>2023-04-16T11:01:46Z</time>
      </trkpt>
      <trkpt lat="38.240879" lon="-1.570767">
        <ele>275.2</ele>
        <time>2023-04-16T11:01:51Z</time>
      </trkpt>
      <trkpt lat="38.240813" lon="-1.570776">
        <ele>276.2</ele>
        <time>2023-04-16T11:01:57Z</time>
      </trkpt>
      <trkpt lat="38.240750" lon="-1.570797">
        <ele>275.2</ele>
        <time>2023-04-16T11:02:03Z</time>
      </trkpt>
      <trkpt lat="38.240687" lon="-1.570856">
        <ele>275.2</ele>
        <time>2023-04-16T11:02:09Z</time>
      </trkpt>
      <trkpt lat="38.240654" lon="-1.570925">
        <ele>274.2</ele>
        <time>2023-04-16T11:02:15Z</time>
      </trkpt>
      <trkpt lat="38.240628" lon="-1.571000">
        <ele>272.2</ele>
        <time>2023-04-16T11:02:21Z</time>
      </trkpt>
      <trkpt lat="38.240594" lon="-1.571079">
        <ele>271.2</ele>
        <time>2023-04-16T11:02:27Z</time>
      </trkpt>
      <trkpt lat="38.240531" lon="-1.571106">
        <ele>270.2</ele>
        <time>2023-04-16T11:02:33Z</time>
      </trkpt>
      <trkpt lat="38.240465" lon="-1.571133">
        <ele>270.0</ele>
        <time>2023-04-16T11:04:05Z</time>
      </trkpt>
      <trkpt lat="38.240399" lon="-1.571124">
        <ele>269.0</ele>
        <time>2023-04-16T11:04:11Z</time>
      </trkpt>
      <trkpt lat="38.240328" lon="-1.571122">
        <ele>269.2</ele>
        <time>2023-04-16T11:04:16Z</time>
      </trkpt>
      <trkpt lat="38.240259" lon="-1.571150">
        <ele>270.2</ele>
        <time>2023-04-16T11:04:22Z</time>
      </trkpt>
      <trkpt lat="38.240196" lon="-1.571173">
        <ele>272.1</ele>
        <time>2023-04-16T11:04:27Z</time>
      </trkpt>
      <trkpt lat="38.240135" lon="-1.571202">
        <ele>273.2</ele>
        <time>2023-04-16T11:04:32Z</time>
      </trkpt>
      <trkpt lat="38.240074" lon="-1.571227">
        <ele>273.0</ele>
        <time>2023-04-16T11:04:37Z</time>
      </trkpt>
      <trkpt lat="38.240017" lon="-1.571284">
        <ele>273.2</ele>
        <time>2023-04-16T11:04:43Z</time>
      </trkpt>
      <trkpt lat="38.239941" lon="-1.571280">
        <ele>274.4</ele>
        <time>2023-04-16T11:04:49Z</time>
      </trkpt>
      <trkpt lat="38.239875" lon="-1.571268">
        <ele>273.2</ele>
        <time>2023-04-16T11:04:54Z</time>
      </trkpt>
      <trkpt lat="38.239824" lon="-1.571328">
        <ele>273.1</ele>
        <time>2023-04-16T11:05:05Z</time>
      </trkpt>
      <trkpt lat="38.239812" lon="-1.571355">
        <ele>271.3</ele>
        <time>2023-04-16T11:05:46Z</time>
      </trkpt>
      <trkpt lat="38.239802" lon="-1.571383">
        <ele>273.2</ele>
        <time>2023-04-16T11:06:38Z</time>
      </trkpt>
      <trkpt lat="38.239800" lon="-1.571448">
        <ele>273.2</ele>
        <time>2023-04-16T11:06:46Z</time>
      </trkpt>
      <trkpt lat="38.239808" lon="-1.571532">
        <ele>271.3</ele>
        <time>2023-04-16T11:07:26Z</time>
      </trkpt>
      <trkpt lat="38.239780" lon="-1.571458">
        <ele>276.9</ele>
        <time>2023-04-16T11:08:12Z</time>
      </trkpt>
      <trkpt lat="38.239788" lon="-1.571374">
        <ele>277.2</ele>
        <time>2023-04-16T11:08:21Z</time>
      </trkpt>
      <trkpt lat="38.239808" lon="-1.571296">
        <ele>277.0</ele>
        <time>2023-04-16T11:09:23Z</time>
      </trkpt>
      <trkpt lat="38.239873" lon="-1.571233">
        <ele>277.2</ele>
        <time>2023-04-16T11:09:32Z</time>
      </trkpt>
      <trkpt lat="38.239991" lon="-1.571231">
        <ele>278.2</ele>
        <time>2023-04-16T11:09:41Z</time>
      </trkpt>
      <trkpt lat="38.240108" lon="-1.571161">
        <ele>279.1</ele>
        <time>2023-04-16T11:09:47Z</time>
      </trkpt>
      <trkpt lat="38.240271" lon="-1.571102">
        <ele>279.1</ele>
        <time>2023-04-16T11:09:57Z</time>
      </trkpt>
      <trkpt lat="38.240394" lon="-1.571081">
        <ele>279.2</ele>
        <time>2023-04-16T11:10:04Z</time>
      </trkpt>
      <trkpt lat="38.240394" lon="-1.570976">
        <ele>278.2</ele>
        <time>2023-04-16T11:10:11Z</time>
      </trkpt>
      <trkpt lat="38.240397" lon="-1.570840">
        <ele>277.4</ele>
        <time>2023-04-16T11:10:17Z</time>
      </trkpt>
      <trkpt lat="38.240389" lon="-1.570738">
        <ele>278.2</ele>
        <time>2023-04-16T11:10:26Z</time>
      </trkpt>
      <trkpt lat="38.240392" lon="-1.570644">
        <ele>277.2</ele>
        <time>2023-04-16T11:10:33Z</time>
      </trkpt>
      <trkpt lat="38.240394" lon="-1.570549">
        <ele>278.0</ele>
        <time>2023-04-16T11:10:48Z</time>
      </trkpt>
      <trkpt lat="38.240389" lon="-1.570448">
        <ele>278.0</ele>
        <time>2023-04-16T11:10:54Z</time>
      </trkpt>
      <trkpt lat="38.240392" lon="-1.570385">
        <ele>278.2</ele>
        <time>2023-04-16T11:11:03Z</time>
      </trkpt>
      <trkpt lat="38.240397" lon="-1.570297">
        <ele>277.0</ele>
        <time>2023-04-16T11:11:12Z</time>
      </trkpt>
      <trkpt lat="38.240392" lon="-1.570213">
        <ele>279.0</ele>
        <time>2023-04-16T11:11:22Z</time>
      </trkpt>
      <trkpt lat="38.240394" lon="-1.570129">
        <ele>284.0</ele>
        <time>2023-04-16T11:11:51Z</time>
      </trkpt>
      <trkpt lat="38.240372" lon="-1.570024">
        <ele>285.2</ele>
        <time>2023-04-16T11:12:08Z</time>
      </trkpt>
      <trkpt lat="38.240353" lon="-1.569944">
        <ele>287.2</ele>
        <time>2023-04-16T11:12:22Z</time>
      </trkpt>
      <trkpt lat="38.240315" lon="-1.569804">
        <ele>290.2</ele>
        <time>2023-04-16T11:12:40Z</time>
      </trkpt>
      <trkpt lat="38.240306" lon="-1.569650">
        <ele>290.4</ele>
        <time>2023-04-16T11:12:51Z</time>
      </trkpt>
      <trkpt lat="38.240323" lon="-1.569440">
        <ele>291.1</ele>
        <time>2023-04-16T11:13:15Z</time>
      </trkpt>
      <trkpt lat="38.240376" lon="-1.569263">
        <ele>294.1</ele>
        <time>2023-04-16T11:13:27Z</time>
      </trkpt>
      <trkpt lat="38.240392" lon="-1.569182">
        <ele>304.3</ele>
        <time>2023-04-16T11:20:34Z</time>
      </trkpt>
      <trkpt lat="38.240431" lon="-1.569091">
        <ele>301.2</ele>
        <time>2023-04-16T11:20:44Z</time>
      </trkpt>
      <trkpt lat="38.240536" lon="-1.569013">
        <ele>299.5</ele>
        <time>2023-04-16T11:20:55Z</time>
      </trkpt>
      <trkpt lat="38.240595" lon="-1.568967">
        <ele>299.2</ele>
        <time>2023-04-16T11:21:04Z</time>
      </trkpt>
      <trkpt lat="38.240647" lon="-1.568881">
        <ele>299.2</ele>
        <time>2023-04-16T11:21:15Z</time>
      </trkpt>
      <trkpt lat="38.240676" lon="-1.568787">
        <ele>297.2</ele>
        <time>2023-04-16T11:21:30Z</time>
      </trkpt>
      <trkpt lat="38.240700" lon="-1.568589">
        <ele>295.5</ele>
        <time>2023-04-16T11:21:38Z</time>
      </trkpt>
      <trkpt lat="38.240685" lon="-1.568272">
        <ele>296.2</ele>
        <time>2023-04-16T11:21:49Z</time>
      </trkpt>
      <trkpt lat="38.240644" lon="-1.568095">
        <ele>295.2</ele>
        <time>2023-04-16T11:21:59Z</time>
      </trkpt>
      <trkpt lat="38.240623" lon="-1.567936">
        <ele>294.5</ele>
        <time>2023-04-16T11:22:08Z</time>
      </trkpt>
      <trkpt lat="38.240641" lon="-1.567766">
        <ele>294.2</ele>
        <time>2023-04-16T11:22:17Z</time>
      </trkpt>
      <trkpt lat="38.240674" lon="-1.567651">
        <ele>292.0</ele>
        <time>2023-04-16T11:22:29Z</time>
      </trkpt>
      <trkpt lat="38.240694" lon="-1.567578">
        <ele>291.3</ele>
        <time>2023-04-16T11:22:36Z</time>
      </trkpt>
      <trkpt lat="38.240693" lon="-1.567525">
        <ele>289.5</ele>
        <time>2023-04-16T11:22:45Z</time>
      </trkpt>
      <trkpt lat="38.240670" lon="-1.567420">
        <ele>289.3</ele>
        <time>2023-04-16T11:22:57Z</time>
      </trkpt>
      <trkpt lat="38.240645" lon="-1.567316">
        <ele>289.2</ele>
        <time>2023-04-16T11:23:05Z</time>
      </trkpt>
      <trkpt lat="38.240625" lon="-1.567206">
        <ele>289.2</ele>
        <time>2023-04-16T11:23:15Z</time>
      </trkpt>
      <trkpt lat="38.240694" lon="-1.566993">
        <ele>288.5</ele>
        <time>2023-04-16T11:23:26Z</time>
      </trkpt>
      <trkpt lat="38.240755" lon="-1.567006">
        <ele>289.3</ele>
        <time>2023-04-16T11:23:43Z</time>
      </trkpt>
      <trkpt lat="38.240815" lon="-1.567037">
        <ele>286.3</ele>
        <time>2023-04-16T11:23:55Z</time>
      </trkpt>
      <trkpt lat="38.240896" lon="-1.567063">
        <ele>285.4</ele>
        <time>2023-04-16T11:25:39Z</time>
      </trkpt>
      <trkpt lat="38.241020" lon="-1.567088">
        <ele>285.5</ele>
        <time>2023-04-16T11:26:14Z</time>
      </trkpt>
      <trkpt lat="38.241108" lon="-1.567057">
        <ele>283.2</ele>
        <time>2023-04-16T11:26:54Z</time>
      </trkpt>
      <trkpt lat="38.241164" lon="-1.567006">
        <ele>281.5</ele>
        <time>2023-04-16T11:27:08Z</time>
      </trkpt>
      <trkpt lat="38.241472" lon="-1.566839">
        <ele>280.2</ele>
        <time>2023-04-16T11:27:29Z</time>
      </trkpt>
      <trkpt lat="38.241853" lon="-1.566711">
        <ele>278.2</ele>
        <time>2023-04-16T11:27:46Z</time>
      </trkpt>
      <trkpt lat="38.242111" lon="-1.566704">
        <ele>276.3</ele>
        <time>2023-04-16T11:28:01Z</time>
      </trkpt>
      <trkpt lat="38.241974" lon="-1.566362">
        <ele>276.5</ele>
        <time>2023-04-16T11:28:14Z</time>
      </trkpt>
      <trkpt lat="38.241908" lon="-1.566213">
        <ele>273.2</ele>
        <time>2023-04-16T11:28:43Z</time>
      </trkpt>
      <trkpt lat="38.241850" lon="-1.566026">
        <ele>275.0</ele>
        <time>2023-04-16T11:28:57Z</time>
      </trkpt>
      <trkpt lat="38.241771" lon="-1.565783">
        <ele>273.2</ele>
        <time>2023-04-16T11:29:16Z</time>
      </trkpt>
      <trkpt lat="38.241702" lon="-1.565614">
        <ele>271.3</ele>
        <time>2023-04-16T11:29:26Z</time>
      </trkpt>
      <trkpt lat="38.241651" lon="-1.565400">
        <ele>271.2</ele>
        <time>2023-04-16T11:29:42Z</time>
      </trkpt>
      <trkpt lat="38.241638" lon="-1.565284">
        <ele>268.7</ele>
        <time>2023-04-16T11:30:04Z</time>
      </trkpt>
      <trkpt lat="38.241617" lon="-1.565044">
        <ele>266.3</ele>
        <time>2023-04-16T11:30:15Z</time>
      </trkpt>
      <trkpt lat="38.241609" lon="-1.564857">
        <ele>267.2</ele>
        <time>2023-04-16T11:30:26Z</time>
      </trkpt>
      <trkpt lat="38.241602" lon="-1.564607">
        <ele>267.2</ele>
        <time>2023-04-16T11:30:37Z</time>
      </trkpt>
      <trkpt lat="38.241609" lon="-1.564438">
        <ele>261.2</ele>
        <time>2023-04-16T11:31:02Z</time>
      </trkpt>
      <trkpt lat="38.241596" lon="-1.564260">
        <ele>261.3</ele>
        <time>2023-04-16T11:31:17Z</time>
      </trkpt>
      <trkpt lat="38.241584" lon="-1.564076">
        <ele>262.2</ele>
        <time>2023-04-16T11:31:27Z</time>
      </trkpt>
      <trkpt lat="38.241244" lon="-1.563466">
        <ele>261.3</ele>
        <time>2023-04-16T11:31:41Z</time>
      </trkpt>
      <trkpt lat="38.240898" lon="-1.563084">
        <ele>259.2</ele>
        <time>2023-04-16T11:31:56Z</time>
      </trkpt>
      <trkpt lat="38.240692" lon="-1.562745">
        <ele>259.4</ele>
        <time>2023-04-16T11:32:07Z</time>
      </trkpt>
      <trkpt lat="38.240572" lon="-1.562440">
        <ele>259.2</ele>
        <time>2023-04-16T11:32:18Z</time>
      </trkpt>
      <trkpt lat="38.240504" lon="-1.562204">
        <ele>257.0</ele>
        <time>2023-04-16T11:32:27Z</time>
      </trkpt>
      <trkpt lat="38.240467" lon="-1.562102">
        <ele>246.2</ele>
        <time>2023-04-16T11:38:21Z</time>
      </trkpt>
      <trkpt lat="38.240432" lon="-1.561976">
        <ele>247.2</ele>
        <time>2023-04-16T11:38:28Z</time>
      </trkpt>
      <trkpt lat="38.240407" lon="-1.561897">
        <ele>248.2</ele>
        <time>2023-04-16T11:38:38Z</time>
      </trkpt>
      <trkpt lat="38.240389" lon="-1.561821">
        <ele>249.2</ele>
        <time>2023-04-16T11:38:49Z</time>
      </trkpt>
      <trkpt lat="38.240352" lon="-1.561725">
        <ele>249.5</ele>
        <time>2023-04-16T11:38:59Z</time>
      </trkpt>
      <trkpt lat="38.240318" lon="-1.561655">
        <ele>249.2</ele>
        <time>2023-04-16T11:39:07Z</time>
      </trkpt>
      <trkpt lat="38.240274" lon="-1.561580">
        <ele>249.2</ele>
        <time>2023-04-16T11:39:14Z</time>
      </trkpt>
      <trkpt lat="38.240233" lon="-1.561514">
        <ele>249.2</ele>
        <time>2023-04-16T11:39:26Z</time>
      </trkpt>
      <trkpt lat="38.240184" lon="-1.561450">
        <ele>248.3</ele>
        <time>2023-04-16T11:39:34Z</time>
      </trkpt>
      <trkpt lat="38.240144" lon="-1.561387">
        <ele>248.2</ele>
        <time>2023-04-16T11:39:41Z</time>
      </trkpt>
      <trkpt lat="38.240099" lon="-1.561327">
        <ele>246.2</ele>
        <time>2023-04-16T11:39:50Z</time>
      </trkpt>
      <trkpt lat="38.240062" lon="-1.561263">
        <ele>245.5</ele>
        <time>2023-04-16T11:39:58Z</time>
      </trkpt>
      <trkpt lat="38.240015" lon="-1.561198">
        <ele>245.2</ele>
        <time>2023-04-16T11:40:05Z</time>
      </trkpt>
      <trkpt lat="38.239968" lon="-1.561144">
        <ele>245.2</ele>
        <time>2023-04-16T11:40:11Z</time>
      </trkpt>
      <trkpt lat="38.239917" lon="-1.561076">
        <ele>244.2</ele>
        <time>2023-04-16T11:40:19Z</time>
      </trkpt>
      <trkpt lat="38.239869" lon="-1.561017">
        <ele>242.5</ele>
        <time>2023-04-16T11:40:26Z</time>
      </trkpt>
      <trkpt lat="38.239823" lon="-1.560959">
        <ele>242.2</ele>
        <time>2023-04-16T11:40:32Z</time>
      </trkpt>
      <trkpt lat="38.239785" lon="-1.560879">
        <ele>241.2</ele>
        <time>2023-04-16T11:40:40Z</time>
      </trkpt>
      <trkpt lat="38.239751" lon="-1.560799">
        <ele>239.3</ele>
        <time>2023-04-16T11:40:47Z</time>
      </trkpt>
      <trkpt lat="38.239731" lon="-1.560714">
        <ele>241.0</ele>
        <time>2023-04-16T11:40:53Z</time>
      </trkpt>
      <trkpt lat="38.239714" lon="-1.560628">
        <ele>241.2</ele>
        <time>2023-04-16T11:41:00Z</time>
      </trkpt>
      <trkpt lat="38.239691" lon="-1.560551">
        <ele>241.2</ele>
        <time>2023-04-16T11:41:07Z</time>
      </trkpt>
      <trkpt lat="38.239653" lon="-1.560479">
        <ele>240.5</ele>
        <time>2023-04-16T11:41:14Z</time>
      </trkpt>
      <trkpt lat="38.239624" lon="-1.560406">
        <ele>238.2</ele>
        <time>2023-04-16T11:41:22Z</time>
      </trkpt>
      <trkpt lat="38.239579" lon="-1.560342">
        <ele>238.2</ele>
        <time>2023-04-16T11:41:30Z</time>
      </trkpt>
      <trkpt lat="38.239541" lon="-1.560278">
        <ele>236.2</ele>
        <time>2023-04-16T11:41:37Z</time>
      </trkpt>
      <trkpt lat="38.239510" lon="-1.560202">
        <ele>237.2</ele>
        <time>2023-04-16T11:41:46Z</time>
      </trkpt>
      <trkpt lat="38.239482" lon="-1.560130">
        <ele>235.3</ele>
        <time>2023-04-16T11:41:53Z</time>
      </trkpt>
      <trkpt lat="38.239453" lon="-1.560052">
        <ele>234.5</ele>
        <time>2023-04-16T11:42:01Z</time>
      </trkpt>
      <trkpt lat="38.239421" lon="-1.559975">
        <ele>234.2</ele>
        <time>2023-04-16T11:42:07Z</time>
      </trkpt>
      <trkpt lat="38.239384" lon="-1.559889">
        <ele>234.2</ele>
        <time>2023-04-16T11:42:14Z</time>
      </trkpt>
      <trkpt lat="38.239357" lon="-1.559816">
        <ele>234.2</ele>
        <time>2023-04-16T11:42:21Z</time>
      </trkpt>
      <trkpt lat="38.239335" lon="-1.559733">
        <ele>235.2</ele>
        <time>2023-04-16T11:42:29Z</time>
      </trkpt>
      <trkpt lat="38.239318" lon="-1.559655">
        <ele>236.2</ele>
        <time>2023-04-16T11:42:38Z</time>
      </trkpt>
      <trkpt lat="38.239305" lon="-1.559572">
        <ele>237.0</ele>
        <time>2023-04-16T11:42:45Z</time>
      </trkpt>
      <trkpt lat="38.239274" lon="-1.559495">
        <ele>234.3</ele>
        <time>2023-04-16T11:42:53Z</time>
      </trkpt>
      <trkpt lat="38.239261" lon="-1.559407">
        <ele>232.2</ele>
        <time>2023-04-16T11:43:00Z</time>
      </trkpt>
      <trkpt lat="38.239220" lon="-1.559339">
        <ele>229.5</ele>
        <time>2023-04-16T11:43:09Z</time>
      </trkpt>
      <trkpt lat="38.239169" lon="-1.559289">
        <ele>228.5</ele>
        <time>2023-04-16T11:43:16Z</time>
      </trkpt>
      <trkpt lat="38.239136" lon="-1.559210">
        <ele>229.2</ele>
        <time>2023-04-16T11:43:24Z</time>
      </trkpt>
      <trkpt lat="38.239101" lon="-1.559123">
        <ele>228.5</ele>
        <time>2023-04-16T11:43:30Z</time>
      </trkpt>
      <trkpt lat="38.239069" lon="-1.559048">
        <ele>228.2</ele>
        <time>2023-04-16T11:43:38Z</time>
      </trkpt>
      <trkpt lat="38.239079" lon="-1.558967">
        <ele>230.2</ele>
        <time>2023-04-16T11:43:48Z</time>
      </trkpt>
      <trkpt lat="38.239099" lon="-1.558880">
        <ele>228.4</ele>
        <time>2023-04-16T11:43:55Z</time>
      </trkpt>
      <trkpt lat="38.239115" lon="-1.558796">
        <ele>229.2</ele>
        <time>2023-04-16T11:44:03Z</time>
      </trkpt>
      <trkpt lat="38.239164" lon="-1.558745">
        <ele>229.4</ele>
        <time>2023-04-16T11:44:14Z</time>
      </trkpt>
      <trkpt lat="38.239197" lon="-1.558673">
        <ele>228.2</ele>
        <time>2023-04-16T11:44:22Z</time>
      </trkpt>
      <trkpt lat="38.239248" lon="-1.558622">
        <ele>226.2</ele>
        <time>2023-04-16T11:44:35Z</time>
      </trkpt>
      <trkpt lat="38.239287" lon="-1.558550">
        <ele>226.2</ele>
        <time>2023-04-16T11:44:55Z</time>
      </trkpt>
      <trkpt lat="38.239261" lon="-1.558470">
        <ele>225.2</ele>
        <time>2023-04-16T11:45:12Z</time>
      </trkpt>
      <trkpt lat="38.239217" lon="-1.558405">
        <ele>223.2</ele>
        <time>2023-04-16T11:45:23Z</time>
      </trkpt>
      <trkpt lat="38.239179" lon="-1.558335">
        <ele>224.2</ele>
        <time>2023-04-16T11:45:31Z</time>
      </trkpt>
      <trkpt lat="38.239187" lon="-1.558254">
        <ele>224.2</ele>
        <time>2023-04-16T11:45:40Z</time>
      </trkpt>
      <trkpt lat="38.239163" lon="-1.558173">
        <ele>224.2</ele>
        <time>2023-04-16T11:45:49Z</time>
      </trkpt>
      <trkpt lat="38.239141" lon="-1.558092">
        <ele>225.2</ele>
        <time>2023-04-16T11:45:56Z</time>
      </trkpt>
      <trkpt lat="38.239150" lon="-1.558011">
        <ele>227.2</ele>
        <time>2023-04-16T11:46:06Z</time>
      </trkpt>
      <trkpt lat="38.239135" lon="-1.557926">
        <ele>228.2</ele>
        <time>2023-04-16T11:46:18Z</time>
      </trkpt>
      <trkpt lat="38.239164" lon="-1.557845">
        <ele>229.2</ele>
        <time>2023-04-16T11:47:02Z</time>
      </trkpt>
      <trkpt lat="38.239151" lon="-1.557766">
        <ele>227.2</ele>
        <time>2023-04-16T11:47:24Z</time>
      </trkpt>
      <trkpt lat="38.239147" lon="-1.557686">
        <ele>228.2</ele>
        <time>2023-04-16T11:47:32Z</time>
      </trkpt>
      <trkpt lat="38.239141" lon="-1.557598">
        <ele>227.5</ele>
        <time>2023-04-16T11:47:45Z</time>
      </trkpt>
      <trkpt lat="38.239120" lon="-1.557518">
        <ele>225.2</ele>
        <time>2023-04-16T11:47:54Z</time>
      </trkpt>
      <trkpt lat="38.239149" lon="-1.557439">
        <ele>220.2</ele>
        <time>2023-04-16T11:48:26Z</time>
      </trkpt>
      <trkpt lat="38.239140" lon="-1.557356">
        <ele>219.5</ele>
        <time>2023-04-16T11:48:49Z</time>
      </trkpt>
      <trkpt lat="38.239142" lon="-1.557264">
        <ele>219.2</ele>
        <time>2023-04-16T11:49:20Z</time>
      </trkpt>
      <trkpt lat="38.239131" lon="-1.557183">
        <ele>217.2</ele>
        <time>2023-04-16T11:49:51Z</time>
      </trkpt>
      <trkpt lat="38.239158" lon="-1.557096">
        <ele>215.2</ele>
        <time>2023-04-16T11:50:47Z</time>
      </trkpt>
      <trkpt lat="38.239175" lon="-1.557011">
        <ele>209.2</ele>
        <time>2023-04-16T11:51:08Z</time>
      </trkpt>
      <trkpt lat="38.239197" lon="-1.556929">
        <ele>210.2</ele>
        <time>2023-04-16T11:51:17Z</time>
      </trkpt>
      <trkpt lat="38.239225" lon="-1.556865">
        <ele>210.2</ele>
        <time>2023-04-16T11:51:37Z</time>
      </trkpt>
      <trkpt lat="38.239310" lon="-1.556794">
        <ele>208.0</ele>
        <time>2023-04-16T11:51:59Z</time>
      </trkpt>
      <trkpt lat="38.239370" lon="-1.556733">
        <ele>206.2</ele>
        <time>2023-04-16T11:52:07Z</time>
      </trkpt>
      <trkpt lat="38.239355" lon="-1.556669">
        <ele>206.2</ele>
        <time>2023-04-16T11:52:14Z</time>
      </trkpt>
      <trkpt lat="38.239300" lon="-1.556714">
        <ele>203.2</ele>
        <time>2023-04-16T11:52:49Z</time>
      </trkpt>
      <trkpt lat="38.239227" lon="-1.556725">
        <ele>199.3</ele>
        <time>2023-04-16T11:53:19Z</time>
      </trkpt>
      <trkpt lat="38.239174" lon="-1.556760">
        <ele>207.2</ele>
        <time>2023-04-16T11:54:09Z</time>
      </trkpt>
      <trkpt lat="38.239103" lon="-1.556793">
        <ele>207.2</ele>
        <time>2023-04-16T11:54:17Z</time>
      </trkpt>
      <trkpt lat="38.239054" lon="-1.556818">
        <ele>207.2</ele>
        <time>2023-04-16T11:54:22Z</time>
      </trkpt>
      <trkpt lat="38.239005" lon="-1.556857">
        <ele>204.3</ele>
        <time>2023-04-16T11:54:27Z</time>
      </trkpt>
      <trkpt lat="38.238955" lon="-1.556863">
        <ele>201.3</ele>
        <time>2023-04-16T11:54:34Z</time>
      </trkpt>
      <trkpt lat="38.238896" lon="-1.556873">
        <ele>197.5</ele>
        <time>2023-04-16T11:54:39Z</time>
      </trkpt>
      <trkpt lat="38.238851" lon="-1.556868">
        <ele>195.6</ele>
        <time>2023-04-16T11:54:46Z</time>
      </trkpt>
      <trkpt lat="38.238833" lon="-1.556870">
        <ele>192.2</ele>
        <time>2023-04-16T12:01:11Z</time>
      </trkpt>
      <trkpt lat="38.238810" lon="-1.556872">
        <ele>193.0</ele>
        <time>2023-04-16T12:06:51Z</time>
      </trkpt>
      <trkpt lat="38.238800" lon="-1.556869">
        <ele>193.2</ele>
        <time>2023-04-16T12:09:04Z</time>
      </trkpt>
      <trkpt lat="38.238748" lon="-1.556855">
        <ele>193.2</ele>
        <time>2023-04-16T12:10:07Z</time>
      </trkpt>
      <trkpt lat="38.238682" lon="-1.556885">
        <ele>191.2</ele>
        <time>2023-04-16T12:10:45Z</time>
      </trkpt>
      <trkpt lat="38.238621" lon="-1.556916">
        <ele>189.5</ele>
        <time>2023-04-16T12:10:52Z</time>
      </trkpt>
      <trkpt lat="38.238560" lon="-1.556943">
        <ele>187.2</ele>
        <time>2023-04-16T12:10:57Z</time>
      </trkpt>
      <trkpt lat="38.238505" lon="-1.556995">
        <ele>187.3</ele>
        <time>2023-04-16T12:11:03Z</time>
      </trkpt>
      <trkpt lat="38.238453" lon="-1.557048">
        <ele>187.2</ele>
        <time>2023-04-16T12:11:21Z</time>
      </trkpt>
      <trkpt lat="38.238389" lon="-1.557067">
        <ele>185.3</ele>
        <time>2023-04-16T12:11:31Z</time>
      </trkpt>
      <trkpt lat="38.238330" lon="-1.557110">
        <ele>185.4</ele>
        <time>2023-04-16T12:11:47Z</time>
      </trkpt>
      <trkpt lat="38.238306" lon="-1.557170">
        <ele>186.2</ele>
        <time>2023-04-16T12:12:02Z</time>
      </trkpt>
      <trkpt lat="38.238260" lon="-1.557213">
        <ele>186.2</ele>
        <time>2023-04-16T12:12:06Z</time>
      </trkpt>
      <trkpt lat="38.238194" lon="-1.557238">
        <ele>192.0</ele>
        <time>2023-04-16T12:12:42Z</time>
      </trkpt>
      <trkpt lat="38.238155" lon="-1.557163">
        <ele>194.2</ele>
        <time>2023-04-16T12:12:47Z</time>
      </trkpt>
      <trkpt lat="38.238121" lon="-1.557120">
        <ele>194.5</ele>
        <time>2023-04-16T12:16:48Z</time>
      </trkpt>
      <trkpt lat="38.238060" lon="-1.557068">
        <ele>194.2</ele>
        <time>2023-04-16T12:16:54Z</time>
      </trkpt>
      <trkpt lat="38.238010" lon="-1.556998">
        <ele>195.2</ele>
        <time>2023-04-16T12:17:00Z</time>
      </trkpt>
      <trkpt lat="38.237960" lon="-1.556929">
        <ele>193.2</ele>
        <time>2023-04-16T12:17:06Z</time>
      </trkpt>
      <trkpt lat="38.237903" lon="-1.556838">
        <ele>192.2</ele>
        <time>2023-04-16T12:17:16Z</time>
      </trkpt>
      <trkpt lat="38.237828" lon="-1.556894">
        <ele>190.2</ele>
        <time>2023-04-16T12:17:29Z</time>
      </trkpt>
      <trkpt lat="38.237814" lon="-1.556842">
        <ele>193.0</ele>
        <time>2023-04-16T12:17:46Z</time>
      </trkpt>
      <trkpt lat="38.237897" lon="-1.556718">
        <ele>191.2</ele>
        <time>2023-04-16T12:17:55Z</time>
      </trkpt>
      <trkpt lat="38.237946" lon="-1.556593">
        <ele>191.2</ele>
        <time>2023-04-16T12:18:02Z</time>
      </trkpt>
      <trkpt lat="38.238010" lon="-1.556561">
        <ele>193.2</ele>
        <time>2023-04-16T12:18:08Z</time>
      </trkpt>
      <trkpt lat="38.238080" lon="-1.556568">
        <ele>193.2</ele>
        <time>2023-04-16T12:18:14Z</time>
      </trkpt>
      <trkpt lat="38.238149" lon="-1.556544">
        <ele>196.2</ele>
        <time>2023-04-16T12:18:23Z</time>
      </trkpt>
      <trkpt lat="38.238213" lon="-1.556529">
        <ele>195.3</ele>
        <time>2023-04-16T12:18:28Z</time>
      </trkpt>
      <trkpt lat="38.238264" lon="-1.556481">
        <ele>195.3</ele>
        <time>2023-04-16T12:18:36Z</time>
      </trkpt>
      <trkpt lat="38.238330" lon="-1.556451">
        <ele>192.3</ele>
        <time>2023-04-16T12:18:47Z</time>
      </trkpt>
      <trkpt lat="38.238360" lon="-1.556442">
        <ele>194.0</ele>
        <time>2023-04-16T12:18:55Z</time>
      </trkpt>
      <trkpt lat="38.238326" lon="-1.556380">
        <ele>198.0</ele>
        <time>2023-04-16T12:19:55Z</time>
      </trkpt>
      <trkpt lat="38.238275" lon="-1.556352">
        <ele>200.0</ele>
        <time>2023-04-16T12:20:02Z</time>
      </trkpt>
      <trkpt lat="38.238208" lon="-1.556314">
        <ele>203.2</ele>
        <time>2023-04-16T12:20:09Z</time>
      </trkpt>
      <trkpt lat="38.238159" lon="-1.556258">
        <ele>205.0</ele>
        <time>2023-04-16T12:20:15Z</time>
      </trkpt>
      <trkpt lat="38.238151" lon="-1.556177">
        <ele>207.2</ele>
        <time>2023-04-16T12:20:23Z</time>
      </trkpt>
      <trkpt lat="38.238145" lon="-1.556121">
        <ele>208.2</ele>
        <time>2023-04-16T12:20:31Z</time>
      </trkpt>
      <trkpt lat="38.238130" lon="-1.556125">
        <ele>208.2</ele>
        <time>2023-04-16T12:20:40Z</time>
      </trkpt>
      <trkpt lat="38.238118" lon="-1.556130">
        <ele>209.2</ele>
        <time>2023-04-16T12:20:46Z</time>
      </trkpt>
      <trkpt lat="38.238096" lon="-1.556140">
        <ele>210.0</ele>
        <time>2023-04-16T12:21:02Z</time>
      </trkpt>
      <trkpt lat="38.238087" lon="-1.556111">
        <ele>210.2</ele>
        <time>2023-04-16T12:21:07Z</time>
      </trkpt>
      <trkpt lat="38.238110" lon="-1.556079">
        <ele>214.0</ele>
        <time>2023-04-16T12:21:17Z</time>
      </trkpt>
      <trkpt lat="38.238134" lon="-1.556053">
        <ele>209.2</ele>
        <time>2023-04-16T12:22:51Z</time>
      </trkpt>
      <trkpt lat="38.238156" lon="-1.556043">
        <ele>209.2</ele>
        <time>2023-04-16T12:26:12Z</time>
      </trkpt>
      <trkpt lat="38.238162" lon="-1.556148">
        <ele>207.2</ele>
        <time>2023-04-30T06:24:35Z</time>
      </trkpt>
      <trkpt lat="38.238171" lon="-1.556229">
        <ele>207.0</ele>
        <time>2023-04-30T06:25:35Z</time>
      </trkpt>
      <trkpt lat="38.238207" lon="-1.556280">
        <ele>206.5</ele>
        <time>2023-04-30T06:25:46Z</time>
      </trkpt>
      <trkpt lat="38.238265" lon="-1.556316">
        <ele>207.2</ele>
        <time>2023-04-30T06:25:56Z</time>
      </trkpt>
      <trkpt lat="38.238326" lon="-1.556351">
        <ele>207.3</ele>
        <time>2023-04-30T06:26:24Z</time>
      </trkpt>
      <trkpt lat="38.238374" lon="-1.556392">
        <ele>207.2</ele>
        <time>2023-04-30T06:26:31Z</time>
      </trkpt>
      <trkpt lat="38.238414" lon="-1.556435">
        <ele>199.5</ele>
        <time>2023-04-30T06:27:16Z</time>
      </trkpt>
      <trkpt lat="38.238389" lon="-1.556450">
        <ele>195.2</ele>
        <time>2023-04-30T06:29:17Z</time>
      </trkpt>
      <trkpt lat="38.238373" lon="-1.556454">
        <ele>198.5</ele>
        <time>2023-04-30T06:32:05Z</time>
      </trkpt>
      <trkpt lat="38.238311" lon="-1.556493">
        <ele>192.0</ele>
        <time>2023-04-30T06:33:25Z</time>
      </trkpt>
      <trkpt lat="38.238295" lon="-1.556573">
        <ele>192.6</ele>
        <time>2023-04-30T06:34:51Z</time>
      </trkpt>
      <trkpt lat="38.238365" lon="-1.556587">
        <ele>191.2</ele>
        <time>2023-04-30T06:35:31Z</time>
      </trkpt>
      <trkpt lat="38.238432" lon="-1.556568">
        <ele>190.1</ele>
        <time>2023-04-30T06:35:50Z</time>
      </trkpt>
      <trkpt lat="38.238478" lon="-1.556504">
        <ele>189.2</ele>
        <time>2023-04-30T06:36:00Z</time>
      </trkpt>
      <trkpt lat="38.238521" lon="-1.556446">
        <ele>188.2</ele>
        <time>2023-04-30T06:36:44Z</time>
      </trkpt>
      <trkpt lat="38.238591" lon="-1.556429">
        <ele>189.2</ele>
        <time>2023-04-30T06:36:56Z</time>
      </trkpt>
      <trkpt lat="38.238631" lon="-1.556366">
        <ele>190.2</ele>
        <time>2023-04-30T06:37:02Z</time>
      </trkpt>
      <trkpt lat="38.238689" lon="-1.556323">
        <ele>189.2</ele>
        <time>2023-04-30T06:37:19Z</time>
      </trkpt>
      <trkpt lat="38.238726" lon="-1.556244">
        <ele>187.2</ele>
        <time>2023-04-30T06:37:36Z</time>
      </trkpt>
      <trkpt lat="38.238777" lon="-1.556181">
        <ele>187.5</ele>
        <time>2023-04-30T06:37:54Z</time>
      </trkpt>
      <trkpt lat="38.238795" lon="-1.556104">
        <ele>187.3</ele>
        <time>2023-04-30T06:38:10Z</time>
      </trkpt>
      <trkpt lat="38.238861" lon="-1.556063">
        <ele>185.2</ele>
        <time>2023-04-30T06:38:45Z</time>
      </trkpt>
      <trkpt lat="38.238913" lon="-1.556001">
        <ele>185.2</ele>
        <time>2023-04-30T06:38:51Z</time>
      </trkpt>
      <trkpt lat="38.238944" lon="-1.555924">
        <ele>187.0</ele>
        <time>2023-04-30T06:38:56Z</time>
      </trkpt>
      <trkpt lat="38.238987" lon="-1.555857">
        <ele>186.3</ele>
        <time>2023-04-30T06:39:00Z</time>
      </trkpt>
      <trkpt lat="38.239029" lon="-1.555796">
        <ele>188.2</ele>
        <time>2023-04-30T06:39:06Z</time>
      </trkpt>
      <trkpt lat="38.239079" lon="-1.555738">
        <ele>188.2</ele>
        <time>2023-04-30T06:39:11Z</time>
      </trkpt>
      <trkpt lat="38.239130" lon="-1.555675">
        <ele>187.4</ele>
        <time>2023-04-30T06:39:16Z</time>
      </trkpt>
      <trkpt lat="38.239174" lon="-1.555609">
        <ele>188.2</ele>
        <time>2023-04-30T06:39:20Z</time>
      </trkpt>
      <trkpt lat="38.239218" lon="-1.555509">
        <ele>188.2</ele>
        <time>2023-04-30T06:39:25Z</time>
      </trkpt>
      <trkpt lat="38.239257" lon="-1.555425">
        <ele>189.2</ele>
        <time>2023-04-30T06:39:35Z</time>
      </trkpt>
      <trkpt lat="38.239303" lon="-1.555363">
        <ele>188.2</ele>
        <time>2023-04-30T06:39:40Z</time>
      </trkpt>
      <trkpt lat="38.239347" lon="-1.555289">
        <ele>189.0</ele>
        <time>2023-04-30T06:39:45Z</time>
      </trkpt>
      <trkpt lat="38.239380" lon="-1.555209">
        <ele>188.5</ele>
        <time>2023-04-30T06:39:50Z</time>
      </trkpt>
      <trkpt lat="38.239416" lon="-1.555115">
        <ele>188.2</ele>
        <time>2023-04-30T06:39:55Z</time>
      </trkpt>
      <trkpt lat="38.239443" lon="-1.555027">
        <ele>188.4</ele>
        <time>2023-04-30T06:40:00Z</time>
      </trkpt>
      <trkpt lat="38.239487" lon="-1.554943">
        <ele>189.2</ele>
        <time>2023-04-30T06:40:05Z</time>
      </trkpt>
      <trkpt lat="38.239537" lon="-1.554847">
        <ele>189.2</ele>
        <time>2023-04-30T06:40:10Z</time>
      </trkpt>
      <trkpt lat="38.239574" lon="-1.554780">
        <ele>189.2</ele>
        <time>2023-04-30T06:40:15Z</time>
      </trkpt>
      <trkpt lat="38.239623" lon="-1.554704">
        <ele>189.2</ele>
        <time>2023-04-30T06:40:20Z</time>
      </trkpt>
      <trkpt lat="38.239672" lon="-1.554617">
        <ele>190.2</ele>
        <time>2023-04-30T06:40:25Z</time>
      </trkpt>
      <trkpt lat="38.239727" lon="-1.554538">
        <ele>190.2</ele>
        <time>2023-04-30T06:40:30Z</time>
      </trkpt>
      <trkpt lat="38.239762" lon="-1.554451">
        <ele>189.2</ele>
        <time>2023-04-30T06:40:35Z</time>
      </trkpt>
      <trkpt lat="38.239800" lon="-1.554366">
        <ele>189.2</ele>
        <time>2023-04-30T06:40:40Z</time>
      </trkpt>
      <trkpt lat="38.239842" lon="-1.554283">
        <ele>189.2</ele>
        <time>2023-04-30T06:40:45Z</time>
      </trkpt>
      <trkpt lat="38.239880" lon="-1.554203">
        <ele>189.2</ele>
        <time>2023-04-30T06:40:50Z</time>
      </trkpt>
      <trkpt lat="38.239916" lon="-1.554117">
        <ele>189.3</ele>
        <time>2023-04-30T06:40:56Z</time>
      </trkpt>
      <trkpt lat="38.239953" lon="-1.554039">
        <ele>190.2</ele>
        <time>2023-04-30T06:41:02Z</time>
      </trkpt>
      <trkpt lat="38.239978" lon="-1.553959">
        <ele>190.2</ele>
        <time>2023-04-30T06:41:08Z</time>
      </trkpt>
      <trkpt lat="38.240005" lon="-1.553876">
        <ele>190.2</ele>
        <time>2023-04-30T06:41:13Z</time>
      </trkpt>
      <trkpt lat="38.240033" lon="-1.553801">
        <ele>190.2</ele>
        <time>2023-04-30T06:41:18Z</time>
      </trkpt>
      <trkpt lat="38.240077" lon="-1.553725">
        <ele>190.2</ele>
        <time>2023-04-30T06:41:24Z</time>
      </trkpt>
      <trkpt lat="38.240114" lon="-1.553660">
        <ele>190.2</ele>
        <time>2023-04-30T06:41:29Z</time>
      </trkpt>
      <trkpt lat="38.240143" lon="-1.553584">
        <ele>191.2</ele>
        <time>2023-04-30T06:41:34Z</time>
      </trkpt>
      <trkpt lat="38.240178" lon="-1.553518">
        <ele>191.2</ele>
        <time>2023-04-30T06:41:39Z</time>
      </trkpt>
      <trkpt lat="38.240206" lon="-1.553441">
        <ele>191.2</ele>
        <time>2023-04-30T06:41:46Z</time>
      </trkpt>
      <trkpt lat="38.240245" lon="-1.553370">
        <ele>193.0</ele>
        <time>2023-04-30T06:41:52Z</time>
      </trkpt>
      <trkpt lat="38.240282" lon="-1.553291">
        <ele>191.5</ele>
        <time>2023-04-30T06:41:58Z</time>
      </trkpt>
      <trkpt lat="38.240311" lon="-1.553215">
        <ele>190.3</ele>
        <time>2023-04-30T06:42:03Z</time>
      </trkpt>
      <trkpt lat="38.240346" lon="-1.553131">
        <ele>189.5</ele>
        <time>2023-04-30T06:42:09Z</time>
      </trkpt>
      <trkpt lat="38.240365" lon="-1.553047">
        <ele>190.2</ele>
        <time>2023-04-30T06:42:21Z</time>
      </trkpt>
      <trkpt lat="38.240379" lon="-1.552957">
        <ele>190.2</ele>
        <time>2023-04-30T06:42:26Z</time>
      </trkpt>
      <trkpt lat="38.240405" lon="-1.552876">
        <ele>191.2</ele>
        <time>2023-04-30T06:42:31Z</time>
      </trkpt>
      <trkpt lat="38.240459" lon="-1.552835">
        <ele>191.1</ele>
        <time>2023-04-30T06:42:36Z</time>
      </trkpt>
      <trkpt lat="38.240443" lon="-1.552741">
        <ele>194.2</ele>
        <time>2023-04-30T06:43:33Z</time>
      </trkpt>
      <trkpt lat="38.240442" lon="-1.552643">
        <ele>193.5</ele>
        <time>2023-04-30T06:43:38Z</time>
      </trkpt>
      <trkpt lat="38.240461" lon="-1.552556">
        <ele>192.3</ele>
        <time>2023-04-30T06:43:43Z</time>
      </trkpt>
      <trkpt lat="38.240477" lon="-1.552477">
        <ele>192.2</ele>
        <time>2023-04-30T06:43:47Z</time>
      </trkpt>
      <trkpt lat="38.240485" lon="-1.552386">
        <ele>192.2</ele>
        <time>2023-04-30T06:43:52Z</time>
      </trkpt>
      <trkpt lat="38.240479" lon="-1.552304">
        <ele>193.0</ele>
        <time>2023-04-30T06:43:57Z</time>
      </trkpt>
      <trkpt lat="38.240482" lon="-1.552223">
        <ele>192.3</ele>
        <time>2023-04-30T06:44:04Z</time>
      </trkpt>
      <trkpt lat="38.240473" lon="-1.552143">
        <ele>191.5</ele>
        <time>2023-04-30T06:44:08Z</time>
      </trkpt>
      <trkpt lat="38.240472" lon="-1.552063">
        <ele>192.0</ele>
        <time>2023-04-30T06:44:12Z</time>
      </trkpt>
      <trkpt lat="38.240470" lon="-1.551969">
        <ele>192.2</ele>
        <time>2023-04-30T06:44:16Z</time>
      </trkpt>
      <trkpt lat="38.240465" lon="-1.551875">
        <ele>191.2</ele>
        <time>2023-04-30T06:44:21Z</time>
      </trkpt>
      <trkpt lat="38.240454" lon="-1.551764">
        <ele>189.5</ele>
        <time>2023-04-30T06:44:26Z</time>
      </trkpt>
      <trkpt lat="38.240448" lon="-1.551678">
        <ele>190.2</ele>
        <time>2023-04-30T06:44:31Z</time>
      </trkpt>
      <trkpt lat="38.240453" lon="-1.551591">
        <ele>190.2</ele>
        <time>2023-04-30T06:44:36Z</time>
      </trkpt>
      <trkpt lat="38.240450" lon="-1.551510">
        <ele>191.2</ele>
        <time>2023-04-30T06:44:41Z</time>
      </trkpt>
      <trkpt lat="38.240454" lon="-1.551429">
        <ele>191.3</ele>
        <time>2023-04-30T06:44:45Z</time>
      </trkpt>
      <trkpt lat="38.240465" lon="-1.551345">
        <ele>190.5</ele>
        <time>2023-04-30T06:44:50Z</time>
      </trkpt>
      <trkpt lat="38.240491" lon="-1.551248">
        <ele>190.5</ele>
        <time>2023-04-30T06:44:55Z</time>
      </trkpt>
      <trkpt lat="38.240509" lon="-1.551163">
        <ele>191.0</ele>
        <time>2023-04-30T06:44:59Z</time>
      </trkpt>
      <trkpt lat="38.240523" lon="-1.551079">
        <ele>190.3</ele>
        <time>2023-04-30T06:45:03Z</time>
      </trkpt>
      <trkpt lat="38.240544" lon="-1.550993">
        <ele>190.3</ele>
        <time>2023-04-30T06:45:07Z</time>
      </trkpt>
      <trkpt lat="38.240566" lon="-1.550910">
        <ele>192.2</ele>
        <time>2023-04-30T06:45:12Z</time>
      </trkpt>
      <trkpt lat="38.240569" lon="-1.550830">
        <ele>193.2</ele>
        <time>2023-04-30T06:45:23Z</time>
      </trkpt>
      <trkpt lat="38.240587" lon="-1.550747">
        <ele>192.2</ele>
        <time>2023-04-30T06:45:46Z</time>
      </trkpt>
      <trkpt lat="38.240608" lon="-1.550670">
        <ele>192.2</ele>
        <time>2023-04-30T06:45:51Z</time>
      </trkpt>
      <trkpt lat="38.240591" lon="-1.550590">
        <ele>192.0</ele>
        <time>2023-04-30T06:46:13Z</time>
      </trkpt>
      <trkpt lat="38.240645" lon="-1.550546">
        <ele>191.2</ele>
        <time>2023-04-30T06:46:30Z</time>
      </trkpt>
      <trkpt lat="38.240676" lon="-1.550475">
        <ele>192.2</ele>
        <time>2023-04-30T06:46:34Z</time>
      </trkpt>
      <trkpt lat="38.240706" lon="-1.550404">
        <ele>194.0</ele>
        <time>2023-04-30T06:46:38Z</time>
      </trkpt>
      <trkpt lat="38.240738" lon="-1.550328">
        <ele>194.2</ele>
        <time>2023-04-30T06:46:42Z</time>
      </trkpt>
      <trkpt lat="38.240792" lon="-1.550277">
        <ele>194.2</ele>
        <time>2023-04-30T06:46:47Z</time>
      </trkpt>
      <trkpt lat="38.240859" lon="-1.550281">
        <ele>195.2</ele>
        <time>2023-04-30T06:46:52Z</time>
      </trkpt>
      <trkpt lat="38.240926" lon="-1.550299">
        <ele>194.2</ele>
        <time>2023-04-30T06:47:03Z</time>
      </trkpt>
      <trkpt lat="38.240998" lon="-1.550296">
        <ele>193.2</ele>
        <time>2023-04-30T06:47:07Z</time>
      </trkpt>
      <trkpt lat="38.241059" lon="-1.550320">
        <ele>193.2</ele>
        <time>2023-04-30T06:47:12Z</time>
      </trkpt>
      <trkpt lat="38.241104" lon="-1.550238">
        <ele>191.2</ele>
        <time>2023-04-30T06:47:18Z</time>
      </trkpt>
      <trkpt lat="38.241106" lon="-1.550152">
        <ele>190.2</ele>
        <time>2023-04-30T06:47:22Z</time>
      </trkpt>
      <trkpt lat="38.241119" lon="-1.550057">
        <ele>190.0</ele>
        <time>2023-04-30T06:47:27Z</time>
      </trkpt>
      <trkpt lat="38.241110" lon="-1.549967">
        <ele>190.0</ele>
        <time>2023-04-30T06:47:35Z</time>
      </trkpt>
      <trkpt lat="38.241118" lon="-1.549882">
        <ele>188.3</ele>
        <time>2023-04-30T06:47:39Z</time>
      </trkpt>
      <trkpt lat="38.241129" lon="-1.549802">
        <ele>188.2</ele>
        <time>2023-04-30T06:47:43Z</time>
      </trkpt>
      <trkpt lat="38.241133" lon="-1.549719">
        <ele>188.2</ele>
        <time>2023-04-30T06:47:47Z</time>
      </trkpt>
      <trkpt lat="38.241137" lon="-1.549622">
        <ele>188.2</ele>
        <time>2023-04-30T06:47:52Z</time>
      </trkpt>
      <trkpt lat="38.241132" lon="-1.549524">
        <ele>188.2</ele>
        <time>2023-04-30T06:47:57Z</time>
      </trkpt>
      <trkpt lat="38.241143" lon="-1.549431">
        <ele>189.2</ele>
        <time>2023-04-30T06:48:02Z</time>
      </trkpt>
      <trkpt lat="38.241150" lon="-1.549338">
        <ele>189.2</ele>
        <time>2023-04-30T06:48:08Z</time>
      </trkpt>
      <trkpt lat="38.241172" lon="-1.549245">
        <ele>189.2</ele>
        <time>2023-04-30T06:48:13Z</time>
      </trkpt>
      <trkpt lat="38.241196" lon="-1.549154">
        <ele>189.2</ele>
        <time>2023-04-30T06:48:18Z</time>
      </trkpt>
      <trkpt lat="38.241215" lon="-1.549067">
        <ele>189.2</ele>
        <time>2023-04-30T06:48:24Z</time>
      </trkpt>
      <trkpt lat="38.241225" lon="-1.548985">
        <ele>189.2</ele>
        <time>2023-04-30T06:48:28Z</time>
      </trkpt>
      <trkpt lat="38.241227" lon="-1.548903">
        <ele>188.3</ele>
        <time>2023-04-30T06:48:33Z</time>
      </trkpt>
      <trkpt lat="38.241233" lon="-1.548810">
        <ele>188.2</ele>
        <time>2023-04-30T06:48:38Z</time>
      </trkpt>
      <trkpt lat="38.241232" lon="-1.548715">
        <ele>189.2</ele>
        <time>2023-04-30T06:48:43Z</time>
      </trkpt>
      <trkpt lat="38.241245" lon="-1.548636">
        <ele>188.2</ele>
        <time>2023-04-30T06:48:49Z</time>
      </trkpt>
      <trkpt lat="38.241253" lon="-1.548551">
        <ele>189.2</ele>
        <time>2023-04-30T06:48:54Z</time>
      </trkpt>
      <trkpt lat="38.241264" lon="-1.548463">
        <ele>189.2</ele>
        <time>2023-04-30T06:48:59Z</time>
      </trkpt>
      <trkpt lat="38.241293" lon="-1.548383">
        <ele>188.5</ele>
        <time>2023-04-30T06:49:04Z</time>
      </trkpt>
      <trkpt lat="38.241311" lon="-1.548304">
        <ele>189.0</ele>
        <time>2023-04-30T06:49:09Z</time>
      </trkpt>
      <trkpt lat="38.241324" lon="-1.548218">
        <ele>189.2</ele>
        <time>2023-04-30T06:49:15Z</time>
      </trkpt>
      <trkpt lat="38.241352" lon="-1.548135">
        <ele>188.3</ele>
        <time>2023-04-30T06:49:20Z</time>
      </trkpt>
      <trkpt lat="38.241381" lon="-1.548046">
        <ele>187.3</ele>
        <time>2023-04-30T06:49:25Z</time>
      </trkpt>
      <trkpt lat="38.241388" lon="-1.547955">
        <ele>186.3</ele>
        <time>2023-04-30T06:49:30Z</time>
      </trkpt>
      <trkpt lat="38.241392" lon="-1.547861">
        <ele>184.3</ele>
        <time>2023-04-30T06:49:35Z</time>
      </trkpt>
      <trkpt lat="38.241400" lon="-1.547763">
        <ele>185.2</ele>
        <time>2023-04-30T06:49:40Z</time>
      </trkpt>
      <trkpt lat="38.241397" lon="-1.547682">
        <ele>186.2</ele>
        <time>2023-04-30T06:49:44Z</time>
      </trkpt>
      <trkpt lat="38.241403" lon="-1.547602">
        <ele>189.0</ele>
        <time>2023-04-30T06:49:48Z</time>
      </trkpt>
      <trkpt lat="38.241414" lon="-1.547519">
        <ele>190.2</ele>
        <time>2023-04-30T06:49:53Z</time>
      </trkpt>
      <trkpt lat="38.241441" lon="-1.547424">
        <ele>190.2</ele>
        <time>2023-04-30T06:49:58Z</time>
      </trkpt>
      <trkpt lat="38.241462" lon="-1.547332">
        <ele>189.3</ele>
        <time>2023-04-30T06:50:03Z</time>
      </trkpt>
      <trkpt lat="38.241475" lon="-1.547248">
        <ele>188.3</ele>
        <time>2023-04-30T06:50:08Z</time>
      </trkpt>
      <trkpt lat="38.241490" lon="-1.547154">
        <ele>188.2</ele>
        <time>2023-04-30T06:50:13Z</time>
      </trkpt>
      <trkpt lat="38.241543" lon="-1.547111">
        <ele>191.2</ele>
        <time>2023-04-30T06:50:25Z</time>
      </trkpt>
      <trkpt lat="38.241502" lon="-1.547049">
        <ele>187.2</ele>
        <time>2023-04-30T06:51:21Z</time>
      </trkpt>
      <trkpt lat="38.241492" lon="-1.546963">
        <ele>190.2</ele>
        <time>2023-04-30T06:51:30Z</time>
      </trkpt>
      <trkpt lat="38.241503" lon="-1.546883">
        <ele>190.2</ele>
        <time>2023-04-30T06:51:36Z</time>
      </trkpt>
      <trkpt lat="38.241498" lon="-1.546795">
        <ele>191.2</ele>
        <time>2023-04-30T06:52:07Z</time>
      </trkpt>
      <trkpt lat="38.241510" lon="-1.546708">
        <ele>191.2</ele>
        <time>2023-04-30T06:52:18Z</time>
      </trkpt>
      <trkpt lat="38.241535" lon="-1.546621">
        <ele>190.3</ele>
        <time>2023-04-30T06:52:24Z</time>
      </trkpt>
      <trkpt lat="38.241549" lon="-1.546533">
        <ele>190.3</ele>
        <time>2023-04-30T06:52:30Z</time>
      </trkpt>
      <trkpt lat="38.241577" lon="-1.546457">
        <ele>190.2</ele>
        <time>2023-04-30T06:53:33Z</time>
      </trkpt>
      <trkpt lat="38.241522" lon="-1.546412">
        <ele>187.2</ele>
        <time>2023-04-30T06:54:37Z</time>
      </trkpt>
      <trkpt lat="38.241501" lon="-1.546335">
        <ele>187.5</ele>
        <time>2023-04-30T06:54:44Z</time>
      </trkpt>
      <trkpt lat="38.241462" lon="-1.546263">
        <ele>185.5</ele>
        <time>2023-04-30T06:54:50Z</time>
      </trkpt>
      <trkpt lat="38.241456" lon="-1.546178">
        <ele>185.3</ele>
        <time>2023-04-30T06:54:54Z</time>
      </trkpt>
      <trkpt lat="38.241443" lon="-1.546086">
        <ele>186.2</ele>
        <time>2023-04-30T06:54:59Z</time>
      </trkpt>
      <trkpt lat="38.241444" lon="-1.545976">
        <ele>188.0</ele>
        <time>2023-04-30T06:55:04Z</time>
      </trkpt>
      <trkpt lat="38.241468" lon="-1.545888">
        <ele>189.2</ele>
        <time>2023-04-30T06:55:09Z</time>
      </trkpt>
      <trkpt lat="38.241474" lon="-1.545796">
        <ele>189.3</ele>
        <time>2023-04-30T06:55:15Z</time>
      </trkpt>
      <trkpt lat="38.241474" lon="-1.545708">
        <ele>190.2</ele>
        <time>2023-04-30T06:55:20Z</time>
      </trkpt>
      <trkpt lat="38.241482" lon="-1.545618">
        <ele>190.3</ele>
        <time>2023-04-30T06:55:25Z</time>
      </trkpt>
      <trkpt lat="38.241477" lon="-1.545533">
        <ele>190.3</ele>
        <time>2023-04-30T06:55:29Z</time>
      </trkpt>
      <trkpt lat="38.241485" lon="-1.545452">
        <ele>190.3</ele>
        <time>2023-04-30T06:55:34Z</time>
      </trkpt>
      <trkpt lat="38.241489" lon="-1.545369">
        <ele>190.3</ele>
        <time>2023-04-30T06:55:38Z</time>
      </trkpt>
      <trkpt lat="38.241516" lon="-1.545289">
        <ele>188.3</ele>
        <time>2023-04-30T06:55:47Z</time>
      </trkpt>
      <trkpt lat="38.241563" lon="-1.545210">
        <ele>190.2</ele>
        <time>2023-04-30T06:56:04Z</time>
      </trkpt>
      <trkpt lat="38.241593" lon="-1.545112">
        <ele>189.5</ele>
        <time>2023-04-30T06:56:09Z</time>
      </trkpt>
      <trkpt lat="38.241611" lon="-1.545022">
        <ele>189.3</ele>
        <time>2023-04-30T06:56:14Z</time>
      </trkpt>
      <trkpt lat="38.241616" lon="-1.544927">
        <ele>189.3</ele>
        <time>2023-04-30T06:56:19Z</time>
      </trkpt>
      <trkpt lat="38.241621" lon="-1.544844">
        <ele>190.2</ele>
        <time>2023-04-30T06:56:24Z</time>
      </trkpt>
      <trkpt lat="38.241629" lon="-1.544763">
        <ele>189.3</ele>
        <time>2023-04-30T06:56:29Z</time>
      </trkpt>
      <trkpt lat="38.241624" lon="-1.544670">
        <ele>190.3</ele>
        <time>2023-04-30T06:56:34Z</time>
      </trkpt>
      <trkpt lat="38.241637" lon="-1.544580">
        <ele>190.3</ele>
        <time>2023-04-30T06:56:39Z</time>
      </trkpt>
      <trkpt lat="38.241653" lon="-1.544488">
        <ele>190.3</ele>
        <time>2023-04-30T06:56:44Z</time>
      </trkpt>
      <trkpt lat="38.241638" lon="-1.544406">
        <ele>190.3</ele>
        <time>2023-04-30T06:56:48Z</time>
      </trkpt>
      <trkpt lat="38.241659" lon="-1.544310">
        <ele>191.2</ele>
        <time>2023-04-30T06:56:53Z</time>
      </trkpt>
      <trkpt lat="38.241662" lon="-1.544215">
        <ele>190.3</ele>
        <time>2023-04-30T06:56:58Z</time>
      </trkpt>
      <trkpt lat="38.241670" lon="-1.544118">
        <ele>190.5</ele>
        <time>2023-04-30T06:57:03Z</time>
      </trkpt>
      <trkpt lat="38.241700" lon="-1.544032">
        <ele>189.5</ele>
        <time>2023-04-30T06:57:09Z</time>
      </trkpt>
      <trkpt lat="38.241703" lon="-1.543932">
        <ele>190.3</ele>
        <time>2023-04-30T06:57:14Z</time>
      </trkpt>
      <trkpt lat="38.241705" lon="-1.543845">
        <ele>189.3</ele>
        <time>2023-04-30T06:57:18Z</time>
      </trkpt>
      <trkpt lat="38.241709" lon="-1.543759">
        <ele>189.3</ele>
        <time>2023-04-30T06:57:22Z</time>
      </trkpt>
      <trkpt lat="38.241711" lon="-1.543678">
        <ele>190.3</ele>
        <time>2023-04-30T06:57:26Z</time>
      </trkpt>
      <trkpt lat="38.241701" lon="-1.543589">
        <ele>189.3</ele>
        <time>2023-04-30T06:57:30Z</time>
      </trkpt>
      <trkpt lat="38.241719" lon="-1.543495">
        <ele>189.3</ele>
        <time>2023-04-30T06:57:35Z</time>
      </trkpt>
      <trkpt lat="38.241716" lon="-1.543409">
        <ele>189.3</ele>
        <time>2023-04-30T06:57:40Z</time>
      </trkpt>
      <trkpt lat="38.241713" lon="-1.543307">
        <ele>189.2</ele>
        <time>2023-04-30T06:57:45Z</time>
      </trkpt>
      <trkpt lat="38.241705" lon="-1.543212">
        <ele>189.3</ele>
        <time>2023-04-30T06:57:50Z</time>
      </trkpt>
      <trkpt lat="38.241713" lon="-1.543132">
        <ele>189.3</ele>
        <time>2023-04-30T06:57:54Z</time>
      </trkpt>
      <trkpt lat="38.241707" lon="-1.543036">
        <ele>188.3</ele>
        <time>2023-04-30T06:57:59Z</time>
      </trkpt>
      <trkpt lat="38.241707" lon="-1.542937">
        <ele>190.0</ele>
        <time>2023-04-30T06:58:04Z</time>
      </trkpt>
      <trkpt lat="38.241705" lon="-1.542856">
        <ele>190.2</ele>
        <time>2023-04-30T06:58:09Z</time>
      </trkpt>
      <trkpt lat="38.241701" lon="-1.542758">
        <ele>189.5</ele>
        <time>2023-04-30T06:58:14Z</time>
      </trkpt>
      <trkpt lat="38.241698" lon="-1.542674">
        <ele>190.0</ele>
        <time>2023-04-30T06:58:18Z</time>
      </trkpt>
      <trkpt lat="38.241700" lon="-1.542589">
        <ele>189.3</ele>
        <time>2023-04-30T06:58:23Z</time>
      </trkpt>
      <trkpt lat="38.241703" lon="-1.542501">
        <ele>189.3</ele>
        <time>2023-04-30T06:58:28Z</time>
      </trkpt>
      <trkpt lat="38.241696" lon="-1.542414">
        <ele>189.3</ele>
        <time>2023-04-30T06:58:32Z</time>
      </trkpt>
      <trkpt lat="38.241693" lon="-1.542325">
        <ele>188.3</ele>
        <time>2023-04-30T06:58:36Z</time>
      </trkpt>
      <trkpt lat="38.241687" lon="-1.542240">
        <ele>188.3</ele>
        <time>2023-04-30T06:58:40Z</time>
      </trkpt>
      <trkpt lat="38.241672" lon="-1.542146">
        <ele>188.3</ele>
        <time>2023-04-30T06:58:45Z</time>
      </trkpt>
      <trkpt lat="38.241667" lon="-1.542058">
        <ele>188.3</ele>
        <time>2023-04-30T06:58:50Z</time>
      </trkpt>
      <trkpt lat="38.241674" lon="-1.541973">
        <ele>189.3</ele>
        <time>2023-04-30T06:58:59Z</time>
      </trkpt>
      <trkpt lat="38.241688" lon="-1.541882">
        <ele>190.0</ele>
        <time>2023-04-30T06:59:04Z</time>
      </trkpt>
      <trkpt lat="38.241701" lon="-1.541794">
        <ele>190.3</ele>
        <time>2023-04-30T06:59:09Z</time>
      </trkpt>
      <trkpt lat="38.241692" lon="-1.541711">
        <ele>188.5</ele>
        <time>2023-04-30T06:59:14Z</time>
      </trkpt>
      <trkpt lat="38.241693" lon="-1.541631">
        <ele>189.2</ele>
        <time>2023-04-30T06:59:19Z</time>
      </trkpt>
      <trkpt lat="38.241693" lon="-1.541546">
        <ele>189.3</ele>
        <time>2023-04-30T06:59:24Z</time>
      </trkpt>
      <trkpt lat="38.241685" lon="-1.541465">
        <ele>188.3</ele>
        <time>2023-04-30T06:59:29Z</time>
      </trkpt>
      <trkpt lat="38.241679" lon="-1.541375">
        <ele>188.3</ele>
        <time>2023-04-30T06:59:34Z</time>
      </trkpt>
      <trkpt lat="38.241678" lon="-1.541286">
        <ele>187.3</ele>
        <time>2023-04-30T06:59:39Z</time>
      </trkpt>
      <trkpt lat="38.241656" lon="-1.541207">
        <ele>188.2</ele>
        <time>2023-04-30T06:59:43Z</time>
      </trkpt>
      <trkpt lat="38.241654" lon="-1.541122">
        <ele>191.3</ele>
        <time>2023-04-30T06:59:51Z</time>
      </trkpt>
      <trkpt lat="38.241643" lon="-1.541033">
        <ele>191.3</ele>
        <time>2023-04-30T07:00:01Z</time>
      </trkpt>
      <trkpt lat="38.241644" lon="-1.540937">
        <ele>190.5</ele>
        <time>2023-04-30T07:00:06Z</time>
      </trkpt>
      <trkpt lat="38.241626" lon="-1.540851">
        <ele>189.5</ele>
        <time>2023-04-30T07:00:11Z</time>
      </trkpt>
      <trkpt lat="38.241642" lon="-1.540751">
        <ele>188.3</ele>
        <time>2023-04-30T07:00:26Z</time>
      </trkpt>
      <trkpt lat="38.241622" lon="-1.540664">
        <ele>189.3</ele>
        <time>2023-04-30T07:00:31Z</time>
      </trkpt>
      <trkpt lat="38.241602" lon="-1.540569">
        <ele>188.5</ele>
        <time>2023-04-30T07:00:36Z</time>
      </trkpt>
      <trkpt lat="38.241585" lon="-1.540489">
        <ele>188.3</ele>
        <time>2023-04-30T07:00:41Z</time>
      </trkpt>
      <trkpt lat="38.241526" lon="-1.540450">
        <ele>188.5</ele>
        <time>2023-04-30T07:00:48Z</time>
      </trkpt>
      <trkpt lat="38.241460" lon="-1.540461">
        <ele>187.5</ele>
        <time>2023-04-30T07:00:52Z</time>
      </trkpt>
      <trkpt lat="38.241395" lon="-1.540467">
        <ele>187.3</ele>
        <time>2023-04-30T07:00:56Z</time>
      </trkpt>
      <trkpt lat="38.241316" lon="-1.540474">
        <ele>189.0</ele>
        <time>2023-04-30T07:01:01Z</time>
      </trkpt>
      <trkpt lat="38.241241" lon="-1.540478">
        <ele>188.3</ele>
        <time>2023-04-30T07:01:11Z</time>
      </trkpt>
      <trkpt lat="38.241180" lon="-1.540517">
        <ele>188.1</ele>
        <time>2023-04-30T07:01:16Z</time>
      </trkpt>
      <trkpt lat="38.241109" lon="-1.540535">
        <ele>188.2</ele>
        <time>2023-04-30T07:01:21Z</time>
      </trkpt>
      <trkpt lat="38.241027" lon="-1.540545">
        <ele>188.3</ele>
        <time>2023-04-30T07:01:26Z</time>
      </trkpt>
      <trkpt lat="38.240954" lon="-1.540557">
        <ele>189.3</ele>
        <time>2023-04-30T07:01:31Z</time>
      </trkpt>
      <trkpt lat="38.240887" lon="-1.540579">
        <ele>189.3</ele>
        <time>2023-04-30T07:01:36Z</time>
      </trkpt>
      <trkpt lat="38.240818" lon="-1.540588">
        <ele>188.3</ele>
        <time>2023-04-30T07:01:42Z</time>
      </trkpt>
      <trkpt lat="38.240749" lon="-1.540576">
        <ele>190.3</ele>
        <time>2023-04-30T07:01:52Z</time>
      </trkpt>
      <trkpt lat="38.240677" lon="-1.540596">
        <ele>188.3</ele>
        <time>2023-04-30T07:01:59Z</time>
      </trkpt>
      <trkpt lat="38.240605" lon="-1.540606">
        <ele>187.5</ele>
        <time>2023-04-30T07:02:04Z</time>
      </trkpt>
      <trkpt lat="38.240530" lon="-1.540624">
        <ele>189.0</ele>
        <time>2023-04-30T07:02:10Z</time>
      </trkpt>
      <trkpt lat="38.240463" lon="-1.540645">
        <ele>187.3</ele>
        <time>2023-04-30T07:02:15Z</time>
      </trkpt>
      <trkpt lat="38.240397" lon="-1.540669">
        <ele>189.2</ele>
        <time>2023-04-30T07:02:23Z</time>
      </trkpt>
      <trkpt lat="38.240327" lon="-1.540682">
        <ele>188.3</ele>
        <time>2023-04-30T07:02:28Z</time>
      </trkpt>
      <trkpt lat="38.240262" lon="-1.540701">
        <ele>188.3</ele>
        <time>2023-04-30T07:02:33Z</time>
      </trkpt>
      <trkpt lat="38.240201" lon="-1.540725">
        <ele>187.3</ele>
        <time>2023-04-30T07:02:38Z</time>
      </trkpt>
      <trkpt lat="38.240130" lon="-1.540746">
        <ele>187.3</ele>
        <time>2023-04-30T07:02:43Z</time>
      </trkpt>
      <trkpt lat="38.240056" lon="-1.540755">
        <ele>186.3</ele>
        <time>2023-04-30T07:02:49Z</time>
      </trkpt>
      <trkpt lat="38.239983" lon="-1.540762">
        <ele>188.2</ele>
        <time>2023-04-30T07:02:56Z</time>
      </trkpt>
      <trkpt lat="38.239919" lon="-1.540778">
        <ele>187.5</ele>
        <time>2023-04-30T07:03:01Z</time>
      </trkpt>
      <trkpt lat="38.239845" lon="-1.540794">
        <ele>187.5</ele>
        <time>2023-04-30T07:03:07Z</time>
      </trkpt>
      <trkpt lat="38.239775" lon="-1.540808">
        <ele>187.3</ele>
        <time>2023-04-30T07:03:11Z</time>
      </trkpt>
      <trkpt lat="38.239708" lon="-1.540811">
        <ele>188.0</ele>
        <time>2023-04-30T07:03:17Z</time>
      </trkpt>
      <trkpt lat="38.239634" lon="-1.540795">
        <ele>188.5</ele>
        <time>2023-04-30T07:03:25Z</time>
      </trkpt>
      <trkpt lat="38.239572" lon="-1.540759">
        <ele>188.4</ele>
        <time>2023-04-30T07:03:30Z</time>
      </trkpt>
      <trkpt lat="38.239514" lon="-1.540708">
        <ele>190.0</ele>
        <time>2023-04-30T07:03:35Z</time>
      </trkpt>
      <trkpt lat="38.239434" lon="-1.540673">
        <ele>190.3</ele>
        <time>2023-04-30T07:03:57Z</time>
      </trkpt>
      <trkpt lat="38.239386" lon="-1.540605">
        <ele>190.3</ele>
        <time>2023-04-30T07:04:02Z</time>
      </trkpt>
      <trkpt lat="38.239361" lon="-1.540513">
        <ele>189.5</ele>
        <time>2023-04-30T07:04:07Z</time>
      </trkpt>
      <trkpt lat="38.239338" lon="-1.540429">
        <ele>189.3</ele>
        <time>2023-04-30T07:04:14Z</time>
      </trkpt>
      <trkpt lat="38.239301" lon="-1.540337">
        <ele>190.3</ele>
        <time>2023-04-30T07:04:19Z</time>
      </trkpt>
      <trkpt lat="38.239266" lon="-1.540258">
        <ele>191.2</ele>
        <time>2023-04-30T07:04:23Z</time>
      </trkpt>
      <trkpt lat="38.239231" lon="-1.540185">
        <ele>190.3</ele>
        <time>2023-04-30T07:04:27Z</time>
      </trkpt>
      <trkpt lat="38.239206" lon="-1.540108">
        <ele>190.3</ele>
        <time>2023-04-30T07:04:32Z</time>
      </trkpt>
      <trkpt lat="38.239182" lon="-1.540019">
        <ele>192.2</ele>
        <time>2023-04-30T07:04:37Z</time>
      </trkpt>
      <trkpt lat="38.239150" lon="-1.539912">
        <ele>192.3</ele>
        <time>2023-04-30T07:04:43Z</time>
      </trkpt>
      <trkpt lat="38.239140" lon="-1.539828">
        <ele>192.3</ele>
        <time>2023-04-30T07:04:49Z</time>
      </trkpt>
      <trkpt lat="38.239125" lon="-1.539745">
        <ele>192.3</ele>
        <time>2023-04-30T07:04:54Z</time>
      </trkpt>
      <trkpt lat="38.239118" lon="-1.539665">
        <ele>191.5</ele>
        <time>2023-04-30T07:04:59Z</time>
      </trkpt>
      <trkpt lat="38.239105" lon="-1.539585">
        <ele>192.2</ele>
        <time>2023-04-30T07:05:04Z</time>
      </trkpt>
      <trkpt lat="38.239075" lon="-1.539501">
        <ele>191.3</ele>
        <time>2023-04-30T07:05:09Z</time>
      </trkpt>
      <trkpt lat="38.239063" lon="-1.539420">
        <ele>192.2</ele>
        <time>2023-04-30T07:05:13Z</time>
      </trkpt>
      <trkpt lat="38.239056" lon="-1.539329">
        <ele>192.3</ele>
        <time>2023-04-30T07:05:17Z</time>
      </trkpt>
      <trkpt lat="38.239050" lon="-1.539238">
        <ele>194.2</ele>
        <time>2023-04-30T07:05:24Z</time>
      </trkpt>
      <trkpt lat="38.239057" lon="-1.539151">
        <ele>194.3</ele>
        <time>2023-04-30T07:05:29Z</time>
      </trkpt>
      <trkpt lat="38.239074" lon="-1.539063">
        <ele>194.3</ele>
        <time>2023-04-30T07:05:35Z</time>
      </trkpt>
      <trkpt lat="38.239085" lon="-1.538979">
        <ele>194.3</ele>
        <time>2023-04-30T07:05:40Z</time>
      </trkpt>
      <trkpt lat="38.239090" lon="-1.538887">
        <ele>194.3</ele>
        <time>2023-04-30T07:05:45Z</time>
      </trkpt>
      <trkpt lat="38.239079" lon="-1.538808">
        <ele>194.3</ele>
        <time>2023-04-30T07:05:49Z</time>
      </trkpt>
      <trkpt lat="38.239076" lon="-1.538723">
        <ele>195.3</ele>
        <time>2023-04-30T07:05:57Z</time>
      </trkpt>
      <trkpt lat="38.239053" lon="-1.538625">
        <ele>195.3</ele>
        <time>2023-04-30T07:06:02Z</time>
      </trkpt>
      <trkpt lat="38.239025" lon="-1.538544">
        <ele>195.3</ele>
        <time>2023-04-30T07:06:07Z</time>
      </trkpt>
      <trkpt lat="38.238990" lon="-1.538462">
        <ele>195.3</ele>
        <time>2023-04-30T07:06:13Z</time>
      </trkpt>
      <trkpt lat="38.238950" lon="-1.538383">
        <ele>195.3</ele>
        <time>2023-04-30T07:06:18Z</time>
      </trkpt>
      <trkpt lat="38.238904" lon="-1.538313">
        <ele>195.3</ele>
        <time>2023-04-30T07:06:24Z</time>
      </trkpt>
      <trkpt lat="38.238861" lon="-1.538246">
        <ele>195.3</ele>
        <time>2023-04-30T07:06:29Z</time>
      </trkpt>
      <trkpt lat="38.238829" lon="-1.538171">
        <ele>195.3</ele>
        <time>2023-04-30T07:06:34Z</time>
      </trkpt>
      <trkpt lat="38.238790" lon="-1.538097">
        <ele>196.3</ele>
        <time>2023-04-30T07:06:39Z</time>
      </trkpt>
      <trkpt lat="38.238757" lon="-1.538016">
        <ele>197.3</ele>
        <time>2023-04-30T07:06:45Z</time>
      </trkpt>
      <trkpt lat="38.238728" lon="-1.537943">
        <ele>196.3</ele>
        <time>2023-04-30T07:06:50Z</time>
      </trkpt>
      <trkpt lat="38.238695" lon="-1.537875">
        <ele>196.3</ele>
        <time>2023-04-30T07:06:55Z</time>
      </trkpt>
      <trkpt lat="38.238657" lon="-1.537804">
        <ele>196.3</ele>
        <time>2023-04-30T07:07:00Z</time>
      </trkpt>
      <trkpt lat="38.238615" lon="-1.537725">
        <ele>197.2</ele>
        <time>2023-04-30T07:07:06Z</time>
      </trkpt>
      <trkpt lat="38.238592" lon="-1.537642">
        <ele>197.3</ele>
        <time>2023-04-30T07:07:11Z</time>
      </trkpt>
      <trkpt lat="38.238548" lon="-1.537552">
        <ele>197.1</ele>
        <time>2023-04-30T07:07:17Z</time>
      </trkpt>
      <trkpt lat="38.238541" lon="-1.537453">
        <ele>196.3</ele>
        <time>2023-04-30T07:07:23Z</time>
      </trkpt>
      <trkpt lat="38.238498" lon="-1.537391">
        <ele>194.4</ele>
        <time>2023-04-30T07:07:33Z</time>
      </trkpt>
      <trkpt lat="38.238472" lon="-1.537309">
        <ele>197.2</ele>
        <time>2023-04-30T07:07:39Z</time>
      </trkpt>
      <trkpt lat="38.238434" lon="-1.537240">
        <ele>199.0</ele>
        <time>2023-04-30T07:07:45Z</time>
      </trkpt>
      <trkpt lat="38.238390" lon="-1.537164">
        <ele>197.3</ele>
        <time>2023-04-30T07:07:51Z</time>
      </trkpt>
      <trkpt lat="38.238354" lon="-1.537093">
        <ele>197.3</ele>
        <time>2023-04-30T07:07:56Z</time>
      </trkpt>
      <trkpt lat="38.238312" lon="-1.537013">
        <ele>197.3</ele>
        <time>2023-04-30T07:08:01Z</time>
      </trkpt>
      <trkpt lat="38.238271" lon="-1.536945">
        <ele>197.3</ele>
        <time>2023-04-30T07:08:06Z</time>
      </trkpt>
      <trkpt lat="38.238233" lon="-1.536872">
        <ele>197.3</ele>
        <time>2023-04-30T07:08:11Z</time>
      </trkpt>
      <trkpt lat="38.238197" lon="-1.536800">
        <ele>198.3</ele>
        <time>2023-04-30T07:08:16Z</time>
      </trkpt>
      <trkpt lat="38.238152" lon="-1.536736">
        <ele>198.5</ele>
        <time>2023-04-30T07:08:21Z</time>
      </trkpt>
      <trkpt lat="38.238112" lon="-1.536666">
        <ele>198.3</ele>
        <time>2023-04-30T07:08:26Z</time>
      </trkpt>
      <trkpt lat="38.238076" lon="-1.536597">
        <ele>198.3</ele>
        <time>2023-04-30T07:08:31Z</time>
      </trkpt>
      <trkpt lat="38.238039" lon="-1.536518">
        <ele>199.3</ele>
        <time>2023-04-30T07:08:37Z</time>
      </trkpt>
      <trkpt lat="38.238006" lon="-1.536449">
        <ele>198.5</ele>
        <time>2023-04-30T07:08:42Z</time>
      </trkpt>
      <trkpt lat="38.237981" lon="-1.536366">
        <ele>197.3</ele>
        <time>2023-04-30T07:08:48Z</time>
      </trkpt>
      <trkpt lat="38.237951" lon="-1.536288">
        <ele>196.3</ele>
        <time>2023-04-30T07:08:53Z</time>
      </trkpt>
      <trkpt lat="38.237919" lon="-1.536197">
        <ele>196.5</ele>
        <time>2023-04-30T07:08:58Z</time>
      </trkpt>
      <trkpt lat="38.237881" lon="-1.536127">
        <ele>194.5</ele>
        <time>2023-04-30T07:09:04Z</time>
      </trkpt>
      <trkpt lat="38.237834" lon="-1.536067">
        <ele>193.5</ele>
        <time>2023-04-30T07:09:10Z</time>
      </trkpt>
      <trkpt lat="38.237771" lon="-1.536002">
        <ele>193.3</ele>
        <time>2023-04-30T07:09:23Z</time>
      </trkpt>
      <trkpt lat="38.237750" lon="-1.535926">
        <ele>192.3</ele>
        <time>2023-04-30T07:09:40Z</time>
      </trkpt>
      <trkpt lat="38.237724" lon="-1.535848">
        <ele>190.3</ele>
        <time>2023-04-30T07:09:46Z</time>
      </trkpt>
      <trkpt lat="38.237709" lon="-1.535761">
        <ele>189.3</ele>
        <time>2023-04-30T07:09:52Z</time>
      </trkpt>
      <trkpt lat="38.237686" lon="-1.535681">
        <ele>189.3</ele>
        <time>2023-04-30T07:09:57Z</time>
      </trkpt>
      <trkpt lat="38.237675" lon="-1.535597">
        <ele>188.3</ele>
        <time>2023-04-30T07:10:05Z</time>
      </trkpt>
      <trkpt lat="38.237714" lon="-1.535522">
        <ele>190.1</ele>
        <time>2023-04-30T07:10:11Z</time>
      </trkpt>
      <trkpt lat="38.237785" lon="-1.535499">
        <ele>191.2</ele>
        <time>2023-04-30T07:10:18Z</time>
      </trkpt>
      <trkpt lat="38.237854" lon="-1.535480">
        <ele>192.3</ele>
        <time>2023-04-30T07:10:34Z</time>
      </trkpt>
      <trkpt lat="38.237930" lon="-1.535473">
        <ele>192.3</ele>
        <time>2023-04-30T07:10:40Z</time>
      </trkpt>
      <trkpt lat="38.237996" lon="-1.535475">
        <ele>191.3</ele>
        <time>2023-04-30T07:10:45Z</time>
      </trkpt>
      <trkpt lat="38.238066" lon="-1.535509">
        <ele>192.2</ele>
        <time>2023-04-30T07:10:51Z</time>
      </trkpt>
      <trkpt lat="38.238137" lon="-1.535532">
        <ele>190.5</ele>
        <time>2023-04-30T07:10:56Z</time>
      </trkpt>
      <trkpt lat="38.238200" lon="-1.535552">
        <ele>191.3</ele>
        <time>2023-04-30T07:11:00Z</time>
      </trkpt>
      <trkpt lat="38.238274" lon="-1.535576">
        <ele>190.3</ele>
        <time>2023-04-30T07:11:05Z</time>
      </trkpt>
      <trkpt lat="38.238341" lon="-1.535598">
        <ele>191.2</ele>
        <time>2023-04-30T07:11:10Z</time>
      </trkpt>
      <trkpt lat="38.238411" lon="-1.535618">
        <ele>192.3</ele>
        <time>2023-04-30T07:11:16Z</time>
      </trkpt>
      <trkpt lat="38.238479" lon="-1.535632">
        <ele>192.5</ele>
        <time>2023-04-30T07:11:22Z</time>
      </trkpt>
      <trkpt lat="38.238549" lon="-1.535614">
        <ele>192.3</ele>
        <time>2023-04-30T07:11:27Z</time>
      </trkpt>
      <trkpt lat="38.238606" lon="-1.535563">
        <ele>192.0</ele>
        <time>2023-04-30T07:11:32Z</time>
      </trkpt>
      <trkpt lat="38.238666" lon="-1.535537">
        <ele>191.5</ele>
        <time>2023-04-30T07:11:37Z</time>
      </trkpt>
      <trkpt lat="38.238733" lon="-1.535526">
        <ele>192.3</ele>
        <time>2023-04-30T07:11:42Z</time>
      </trkpt>
      <trkpt lat="38.238800" lon="-1.535501">
        <ele>193.0</ele>
        <time>2023-04-30T07:11:47Z</time>
      </trkpt>
      <trkpt lat="38.238866" lon="-1.535471">
        <ele>193.3</ele>
        <time>2023-04-30T07:11:52Z</time>
      </trkpt>
      <trkpt lat="38.238905" lon="-1.535404">
        <ele>191.5</ele>
        <time>2023-04-30T07:12:18Z</time>
      </trkpt>
      <trkpt lat="38.238950" lon="-1.535348">
        <ele>191.3</ele>
        <time>2023-04-30T07:12:22Z</time>
      </trkpt>
      <trkpt lat="38.239007" lon="-1.535311">
        <ele>192.3</ele>
        <time>2023-04-30T07:12:26Z</time>
      </trkpt>
      <trkpt lat="38.239070" lon="-1.535284">
        <ele>192.3</ele>
        <time>2023-04-30T07:12:30Z</time>
      </trkpt>
      <trkpt lat="38.239133" lon="-1.535264">
        <ele>193.3</ele>
        <time>2023-04-30T07:12:34Z</time>
      </trkpt>
      <trkpt lat="38.239212" lon="-1.535260">
        <ele>194.2</ele>
        <time>2023-04-30T07:12:39Z</time>
      </trkpt>
      <trkpt lat="38.239277" lon="-1.535277">
        <ele>193.3</ele>
        <time>2023-04-30T07:12:44Z</time>
      </trkpt>
      <trkpt lat="38.239343" lon="-1.535311">
        <ele>193.3</ele>
        <time>2023-04-30T07:12:49Z</time>
      </trkpt>
      <trkpt lat="38.239425" lon="-1.535359">
        <ele>192.3</ele>
        <time>2023-04-30T07:12:54Z</time>
      </trkpt>
      <trkpt lat="38.239499" lon="-1.535366">
        <ele>192.3</ele>
        <time>2023-04-30T07:13:01Z</time>
      </trkpt>
      <trkpt lat="38.239556" lon="-1.535417">
        <ele>190.6</ele>
        <time>2023-04-30T07:13:05Z</time>
      </trkpt>
      <trkpt lat="38.239608" lon="-1.535465">
        <ele>191.1</ele>
        <time>2023-04-30T07:13:09Z</time>
      </trkpt>
      <trkpt lat="38.239674" lon="-1.535512">
        <ele>190.3</ele>
        <time>2023-04-30T07:13:14Z</time>
      </trkpt>
      <trkpt lat="38.239741" lon="-1.535566">
        <ele>190.3</ele>
        <time>2023-04-30T07:13:19Z</time>
      </trkpt>
      <trkpt lat="38.239810" lon="-1.535614">
        <ele>188.5</ele>
        <time>2023-04-30T07:13:24Z</time>
      </trkpt>
      <trkpt lat="38.239877" lon="-1.535604">
        <ele>189.3</ele>
        <time>2023-04-30T07:13:30Z</time>
      </trkpt>
      <trkpt lat="38.239943" lon="-1.535570">
        <ele>189.3</ele>
        <time>2023-04-30T07:13:34Z</time>
      </trkpt>
      <trkpt lat="38.240016" lon="-1.535541">
        <ele>190.2</ele>
        <time>2023-04-30T07:13:39Z</time>
      </trkpt>
      <trkpt lat="38.240081" lon="-1.535500">
        <ele>190.3</ele>
        <time>2023-04-30T07:13:44Z</time>
      </trkpt>
      <trkpt lat="38.240144" lon="-1.535465">
        <ele>188.3</ele>
        <time>2023-04-30T07:13:49Z</time>
      </trkpt>
      <trkpt lat="38.240194" lon="-1.535398">
        <ele>187.3</ele>
        <time>2023-04-30T07:13:54Z</time>
      </trkpt>
      <trkpt lat="38.240209" lon="-1.535319">
        <ele>185.3</ele>
        <time>2023-04-30T07:13:59Z</time>
      </trkpt>
      <trkpt lat="38.240212" lon="-1.535237">
        <ele>184.3</ele>
        <time>2023-04-30T07:14:05Z</time>
      </trkpt>
      <trkpt lat="38.240212" lon="-1.535156">
        <ele>184.3</ele>
        <time>2023-04-30T07:14:09Z</time>
      </trkpt>
      <trkpt lat="38.240200" lon="-1.535069">
        <ele>183.3</ele>
        <time>2023-04-30T07:14:16Z</time>
      </trkpt>
      <trkpt lat="38.240169" lon="-1.534980">
        <ele>185.2</ele>
        <time>2023-04-30T07:14:22Z</time>
      </trkpt>
      <trkpt lat="38.240133" lon="-1.534898">
        <ele>187.3</ele>
        <time>2023-04-30T07:14:28Z</time>
      </trkpt>
      <trkpt lat="38.240101" lon="-1.534823">
        <ele>187.3</ele>
        <time>2023-04-30T07:14:33Z</time>
      </trkpt>
      <trkpt lat="38.240090" lon="-1.534725">
        <ele>187.3</ele>
        <time>2023-04-30T07:14:39Z</time>
      </trkpt>
      <trkpt lat="38.240075" lon="-1.534642">
        <ele>187.5</ele>
        <time>2023-04-30T07:14:48Z</time>
      </trkpt>
      <trkpt lat="38.240042" lon="-1.534564">
        <ele>189.3</ele>
        <time>2023-04-30T07:14:53Z</time>
      </trkpt>
      <trkpt lat="38.240019" lon="-1.534478">
        <ele>190.3</ele>
        <time>2023-04-30T07:14:58Z</time>
      </trkpt>
      <trkpt lat="38.240013" lon="-1.534396">
        <ele>189.3</ele>
        <time>2023-04-30T07:15:03Z</time>
      </trkpt>
      <trkpt lat="38.240013" lon="-1.534289">
        <ele>188.3</ele>
        <time>2023-04-30T07:15:09Z</time>
      </trkpt>
      <trkpt lat="38.240009" lon="-1.534203">
        <ele>188.3</ele>
        <time>2023-04-30T07:15:15Z</time>
      </trkpt>
      <trkpt lat="38.239986" lon="-1.534128">
        <ele>187.3</ele>
        <time>2023-04-30T07:15:21Z</time>
      </trkpt>
      <trkpt lat="38.239970" lon="-1.534035">
        <ele>187.3</ele>
        <time>2023-04-30T07:15:27Z</time>
      </trkpt>
      <trkpt lat="38.239974" lon="-1.533941">
        <ele>186.3</ele>
        <time>2023-04-30T07:15:34Z</time>
      </trkpt>
      <trkpt lat="38.239964" lon="-1.533859">
        <ele>185.3</ele>
        <time>2023-04-30T07:15:41Z</time>
      </trkpt>
      <trkpt lat="38.239937" lon="-1.533771">
        <ele>184.3</ele>
        <time>2023-04-30T07:15:47Z</time>
      </trkpt>
      <trkpt lat="38.239924" lon="-1.533690">
        <ele>184.3</ele>
        <time>2023-04-30T07:15:52Z</time>
      </trkpt>
      <trkpt lat="38.239916" lon="-1.533610">
        <ele>184.2</ele>
        <time>2023-04-30T07:15:57Z</time>
      </trkpt>
      <trkpt lat="38.239914" lon="-1.533527">
        <ele>183.3</ele>
        <time>2023-04-30T07:16:02Z</time>
      </trkpt>
      <trkpt lat="38.239912" lon="-1.533438">
        <ele>181.3</ele>
        <time>2023-04-30T07:16:07Z</time>
      </trkpt>
      <trkpt lat="38.239910" lon="-1.533351">
        <ele>182.3</ele>
        <time>2023-04-30T07:16:13Z</time>
      </trkpt>
      <trkpt lat="38.239898" lon="-1.533265">
        <ele>182.3</ele>
        <time>2023-04-30T07:16:19Z</time>
      </trkpt>
      <trkpt lat="38.239876" lon="-1.533182">
        <ele>182.3</ele>
        <time>2023-04-30T07:16:24Z</time>
      </trkpt>
      <trkpt lat="38.239849" lon="-1.533105">
        <ele>182.3</ele>
        <time>2023-04-30T07:16:28Z</time>
      </trkpt>
      <trkpt lat="38.239845" lon="-1.533011">
        <ele>182.3</ele>
        <time>2023-04-30T07:16:33Z</time>
      </trkpt>
      <trkpt lat="38.239840" lon="-1.532929">
        <ele>182.3</ele>
        <time>2023-04-30T07:16:39Z</time>
      </trkpt>
      <trkpt lat="38.239820" lon="-1.532835">
        <ele>182.3</ele>
        <time>2023-04-30T07:16:45Z</time>
      </trkpt>
      <trkpt lat="38.239805" lon="-1.532756">
        <ele>183.3</ele>
        <time>2023-04-30T07:16:50Z</time>
      </trkpt>
      <trkpt lat="38.239792" lon="-1.532676">
        <ele>183.2</ele>
        <time>2023-04-30T07:16:55Z</time>
      </trkpt>
      <trkpt lat="38.239771" lon="-1.532595">
        <ele>183.3</ele>
        <time>2023-04-30T07:17:00Z</time>
      </trkpt>
      <trkpt lat="38.239759" lon="-1.532512">
        <ele>183.3</ele>
        <time>2023-04-30T07:17:06Z</time>
      </trkpt>
      <trkpt lat="38.239752" lon="-1.532429">
        <ele>184.3</ele>
        <time>2023-04-30T07:17:12Z</time>
      </trkpt>
      <trkpt lat="38.239742" lon="-1.532349">
        <ele>183.3</ele>
        <time>2023-04-30T07:17:17Z</time>
      </trkpt>
      <trkpt lat="38.239746" lon="-1.532257">
        <ele>183.3</ele>
        <time>2023-04-30T07:17:23Z</time>
      </trkpt>
      <trkpt lat="38.239736" lon="-1.532176">
        <ele>183.3</ele>
        <time>2023-04-30T07:17:28Z</time>
      </trkpt>
      <trkpt lat="38.239740" lon="-1.532093">
        <ele>183.3</ele>
        <time>2023-04-30T07:17:33Z</time>
      </trkpt>
      <trkpt lat="38.239715" lon="-1.532018">
        <ele>187.2</ele>
        <time>2023-04-30T07:17:40Z</time>
      </trkpt>
      <trkpt lat="38.239722" lon="-1.531905">
        <ele>187.3</ele>
        <time>2023-04-30T07:17:55Z</time>
      </trkpt>
      <trkpt lat="38.239697" lon="-1.531824">
        <ele>187.3</ele>
        <time>2023-04-30T07:18:00Z</time>
      </trkpt>
      <trkpt lat="38.239697" lon="-1.531739">
        <ele>187.3</ele>
        <time>2023-04-30T07:18:04Z</time>
      </trkpt>
      <trkpt lat="38.239675" lon="-1.531647">
        <ele>187.5</ele>
        <time>2023-04-30T07:18:09Z</time>
      </trkpt>
      <trkpt lat="38.239649" lon="-1.531563">
        <ele>187.3</ele>
        <time>2023-04-30T07:18:14Z</time>
      </trkpt>
      <trkpt lat="38.239617" lon="-1.531475">
        <ele>186.3</ele>
        <time>2023-04-30T07:18:19Z</time>
      </trkpt>
      <trkpt lat="38.239591" lon="-1.531399">
        <ele>186.3</ele>
        <time>2023-04-30T07:18:24Z</time>
      </trkpt>
      <trkpt lat="38.239577" lon="-1.531320">
        <ele>187.3</ele>
        <time>2023-04-30T07:18:28Z</time>
      </trkpt>
      <trkpt lat="38.239565" lon="-1.531240">
        <ele>188.3</ele>
        <time>2023-04-30T07:18:32Z</time>
      </trkpt>
      <trkpt lat="38.239545" lon="-1.531162">
        <ele>187.3</ele>
        <time>2023-04-30T07:18:37Z</time>
      </trkpt>
      <trkpt lat="38.239530" lon="-1.531077">
        <ele>188.0</ele>
        <time>2023-04-30T07:18:42Z</time>
      </trkpt>
      <trkpt lat="38.239494" lon="-1.530998">
        <ele>187.3</ele>
        <time>2023-04-30T07:18:48Z</time>
      </trkpt>
      <trkpt lat="38.239462" lon="-1.530922">
        <ele>188.2</ele>
        <time>2023-04-30T07:18:52Z</time>
      </trkpt>
      <trkpt lat="38.239443" lon="-1.530832">
        <ele>186.5</ele>
        <time>2023-04-30T07:18:58Z</time>
      </trkpt>
      <trkpt lat="38.239464" lon="-1.530745">
        <ele>184.6</ele>
        <time>2023-04-30T07:19:03Z</time>
      </trkpt>
      <trkpt lat="38.239512" lon="-1.530676">
        <ele>184.3</ele>
        <time>2023-04-30T07:19:09Z</time>
      </trkpt>
      <trkpt lat="38.239461" lon="-1.530603">
        <ele>186.3</ele>
        <time>2023-04-30T07:19:17Z</time>
      </trkpt>
      <trkpt lat="38.239428" lon="-1.530513">
        <ele>186.3</ele>
        <time>2023-04-30T07:19:22Z</time>
      </trkpt>
      <trkpt lat="38.239396" lon="-1.530440">
        <ele>186.3</ele>
        <time>2023-04-30T07:19:27Z</time>
      </trkpt>
      <trkpt lat="38.239351" lon="-1.530375">
        <ele>187.3</ele>
        <time>2023-04-30T07:19:31Z</time>
      </trkpt>
      <trkpt lat="38.239299" lon="-1.530314">
        <ele>187.2</ele>
        <time>2023-04-30T07:19:36Z</time>
      </trkpt>
      <trkpt lat="38.239242" lon="-1.530252">
        <ele>187.3</ele>
        <time>2023-04-30T07:19:41Z</time>
      </trkpt>
      <trkpt lat="38.239187" lon="-1.530206">
        <ele>186.3</ele>
        <time>2023-04-30T07:19:46Z</time>
      </trkpt>
      <trkpt lat="38.239128" lon="-1.530152">
        <ele>185.5</ele>
        <time>2023-04-30T07:19:52Z</time>
      </trkpt>
      <trkpt lat="38.239066" lon="-1.530098">
        <ele>185.3</ele>
        <time>2023-04-30T07:19:57Z</time>
      </trkpt>
      <trkpt lat="38.239014" lon="-1.530043">
        <ele>186.3</ele>
        <time>2023-04-30T07:20:03Z</time>
      </trkpt>
      <trkpt lat="38.238957" lon="-1.529993">
        <ele>186.5</ele>
        <time>2023-04-30T07:20:09Z</time>
      </trkpt>
      <trkpt lat="38.238907" lon="-1.529927">
        <ele>188.2</ele>
        <time>2023-04-30T07:20:15Z</time>
      </trkpt>
      <trkpt lat="38.238861" lon="-1.529859">
        <ele>185.6</ele>
        <time>2023-04-30T07:20:21Z</time>
      </trkpt>
      <trkpt lat="38.238829" lon="-1.529786">
        <ele>184.5</ele>
        <time>2023-04-30T07:20:26Z</time>
      </trkpt>
      <trkpt lat="38.238790" lon="-1.529703">
        <ele>184.3</ele>
        <time>2023-04-30T07:20:32Z</time>
      </trkpt>
      <trkpt lat="38.238751" lon="-1.529630">
        <ele>183.5</ele>
        <time>2023-04-30T07:20:39Z</time>
      </trkpt>
      <trkpt lat="38.238703" lon="-1.529558">
        <ele>184.3</ele>
        <time>2023-04-30T07:20:45Z</time>
      </trkpt>
      <trkpt lat="38.238653" lon="-1.529493">
        <ele>184.3</ele>
        <time>2023-04-30T07:20:50Z</time>
      </trkpt>
      <trkpt lat="38.238606" lon="-1.529421">
        <ele>184.3</ele>
        <time>2023-04-30T07:20:56Z</time>
      </trkpt>
      <trkpt lat="38.238564" lon="-1.529358">
        <ele>185.3</ele>
        <time>2023-04-30T07:21:01Z</time>
      </trkpt>
      <trkpt lat="38.238507" lon="-1.529316">
        <ele>187.3</ele>
        <time>2023-04-30T07:21:06Z</time>
      </trkpt>
      <trkpt lat="38.238437" lon="-1.529268">
        <ele>187.3</ele>
        <time>2023-04-30T07:21:14Z</time>
      </trkpt>
      <trkpt lat="38.238399" lon="-1.529191">
        <ele>187.3</ele>
        <time>2023-04-30T07:21:20Z</time>
      </trkpt>
      <trkpt lat="38.238359" lon="-1.529117">
        <ele>188.3</ele>
        <time>2023-04-30T07:21:26Z</time>
      </trkpt>
      <trkpt lat="38.238306" lon="-1.529049">
        <ele>187.3</ele>
        <time>2023-04-30T07:21:34Z</time>
      </trkpt>
      <trkpt lat="38.238254" lon="-1.528976">
        <ele>189.0</ele>
        <time>2023-04-30T07:21:40Z</time>
      </trkpt>
      <trkpt lat="38.238213" lon="-1.528908">
        <ele>188.5</ele>
        <time>2023-04-30T07:21:45Z</time>
      </trkpt>
      <trkpt lat="38.238165" lon="-1.528838">
        <ele>189.3</ele>
        <time>2023-04-30T07:21:51Z</time>
      </trkpt>
      <trkpt lat="38.238116" lon="-1.528776">
        <ele>190.2</ele>
        <time>2023-04-30T07:21:57Z</time>
      </trkpt>
      <trkpt lat="38.238072" lon="-1.528698">
        <ele>189.5</ele>
        <time>2023-04-30T07:22:04Z</time>
      </trkpt>
      <trkpt lat="38.238022" lon="-1.528639">
        <ele>189.1</ele>
        <time>2023-04-30T07:22:09Z</time>
      </trkpt>
      <trkpt lat="38.237971" lon="-1.528573">
        <ele>188.3</ele>
        <time>2023-04-30T07:22:14Z</time>
      </trkpt>
      <trkpt lat="38.237926" lon="-1.528514">
        <ele>187.4</ele>
        <time>2023-04-30T07:22:20Z</time>
      </trkpt>
      <trkpt lat="38.237868" lon="-1.528455">
        <ele>184.4</ele>
        <time>2023-04-30T07:22:26Z</time>
      </trkpt>
      <trkpt lat="38.237812" lon="-1.528407">
        <ele>184.3</ele>
        <time>2023-04-30T07:22:31Z</time>
      </trkpt>
      <trkpt lat="38.237754" lon="-1.528369">
        <ele>184.3</ele>
        <time>2023-04-30T07:22:36Z</time>
      </trkpt>
      <trkpt lat="38.237692" lon="-1.528331">
        <ele>184.3</ele>
        <time>2023-04-30T07:22:41Z</time>
      </trkpt>
      <trkpt lat="38.237636" lon="-1.528294">
        <ele>184.3</ele>
        <time>2023-04-30T07:22:45Z</time>
      </trkpt>
      <trkpt lat="38.237584" lon="-1.528240">
        <ele>183.4</ele>
        <time>2023-04-30T07:22:51Z</time>
      </trkpt>
      <trkpt lat="38.237529" lon="-1.528198">
        <ele>183.3</ele>
        <time>2023-04-30T07:22:56Z</time>
      </trkpt>
      <trkpt lat="38.237472" lon="-1.528145">
        <ele>183.3</ele>
        <time>2023-04-30T07:23:01Z</time>
      </trkpt>
      <trkpt lat="38.237415" lon="-1.528095">
        <ele>183.3</ele>
        <time>2023-04-30T07:23:07Z</time>
      </trkpt>
      <trkpt lat="38.237360" lon="-1.528050">
        <ele>183.3</ele>
        <time>2023-04-30T07:23:12Z</time>
      </trkpt>
      <trkpt lat="38.237300" lon="-1.528011">
        <ele>184.3</ele>
        <time>2023-04-30T07:23:17Z</time>
      </trkpt>
      <trkpt lat="38.237229" lon="-1.527990">
        <ele>184.5</ele>
        <time>2023-04-30T07:23:22Z</time>
      </trkpt>
      <trkpt lat="38.237164" lon="-1.527970">
        <ele>185.5</ele>
        <time>2023-04-30T07:23:28Z</time>
      </trkpt>
      <trkpt lat="38.237092" lon="-1.527963">
        <ele>185.3</ele>
        <time>2023-04-30T07:23:33Z</time>
      </trkpt>
      <trkpt lat="38.237021" lon="-1.527947">
        <ele>187.0</ele>
        <time>2023-04-30T07:23:38Z</time>
      </trkpt>
      <trkpt lat="38.236948" lon="-1.527950">
        <ele>187.3</ele>
        <time>2023-04-30T07:23:43Z</time>
      </trkpt>
      <trkpt lat="38.236883" lon="-1.527953">
        <ele>188.2</ele>
        <time>2023-04-30T07:23:48Z</time>
      </trkpt>
      <trkpt lat="38.236811" lon="-1.527958">
        <ele>187.3</ele>
        <time>2023-04-30T07:23:54Z</time>
      </trkpt>
      <trkpt lat="38.236748" lon="-1.527962">
        <ele>186.3</ele>
        <time>2023-04-30T07:24:05Z</time>
      </trkpt>
      <trkpt lat="38.236682" lon="-1.527958">
        <ele>186.3</ele>
        <time>2023-04-30T07:24:09Z</time>
      </trkpt>
      <trkpt lat="38.236609" lon="-1.527946">
        <ele>186.3</ele>
        <time>2023-04-30T07:24:14Z</time>
      </trkpt>
      <trkpt lat="38.236544" lon="-1.527963">
        <ele>188.0</ele>
        <time>2023-04-30T07:24:18Z</time>
      </trkpt>
      <trkpt lat="38.236472" lon="-1.527975">
        <ele>188.3</ele>
        <time>2023-04-30T07:24:23Z</time>
      </trkpt>
      <trkpt lat="38.236403" lon="-1.527977">
        <ele>188.2</ele>
        <time>2023-04-30T07:24:29Z</time>
      </trkpt>
      <trkpt lat="38.236330" lon="-1.527976">
        <ele>189.4</ele>
        <time>2023-04-30T07:24:35Z</time>
      </trkpt>
      <trkpt lat="38.236257" lon="-1.527985">
        <ele>191.0</ele>
        <time>2023-04-30T07:24:40Z</time>
      </trkpt>
      <trkpt lat="38.236186" lon="-1.527986">
        <ele>191.2</ele>
        <time>2023-04-30T07:24:45Z</time>
      </trkpt>
      <trkpt lat="38.236112" lon="-1.527980">
        <ele>190.1</ele>
        <time>2023-04-30T07:24:50Z</time>
      </trkpt>
      <trkpt lat="38.236043" lon="-1.528001">
        <ele>190.3</ele>
        <time>2023-04-30T07:24:55Z</time>
      </trkpt>
      <trkpt lat="38.235976" lon="-1.528010">
        <ele>188.6</ele>
        <time>2023-04-30T07:25:00Z</time>
      </trkpt>
      <trkpt lat="38.235902" lon="-1.528022">
        <ele>189.3</ele>
        <time>2023-04-30T07:25:07Z</time>
      </trkpt>
      <trkpt lat="38.235828" lon="-1.528040">
        <ele>190.1</ele>
        <time>2023-04-30T07:25:12Z</time>
      </trkpt>
      <trkpt lat="38.235762" lon="-1.528072">
        <ele>191.3</ele>
        <time>2023-04-30T07:25:18Z</time>
      </trkpt>
      <trkpt lat="38.235697" lon="-1.528079">
        <ele>190.3</ele>
        <time>2023-04-30T07:25:32Z</time>
      </trkpt>
      <trkpt lat="38.235632" lon="-1.528097">
        <ele>190.3</ele>
        <time>2023-04-30T07:25:37Z</time>
      </trkpt>
      <trkpt lat="38.235562" lon="-1.528117">
        <ele>189.3</ele>
        <time>2023-04-30T07:25:42Z</time>
      </trkpt>
      <trkpt lat="38.235497" lon="-1.528158">
        <ele>189.3</ele>
        <time>2023-04-30T07:25:47Z</time>
      </trkpt>
      <trkpt lat="38.235432" lon="-1.528184">
        <ele>188.3</ele>
        <time>2023-04-30T07:25:52Z</time>
      </trkpt>
      <trkpt lat="38.235369" lon="-1.528217">
        <ele>188.2</ele>
        <time>2023-04-30T07:25:57Z</time>
      </trkpt>
      <trkpt lat="38.235305" lon="-1.528247">
        <ele>190.0</ele>
        <time>2023-04-30T07:26:02Z</time>
      </trkpt>
      <trkpt lat="38.235234" lon="-1.528284">
        <ele>190.5</ele>
        <time>2023-04-30T07:26:07Z</time>
      </trkpt>
      <trkpt lat="38.235167" lon="-1.528306">
        <ele>190.3</ele>
        <time>2023-04-30T07:26:13Z</time>
      </trkpt>
      <trkpt lat="38.235109" lon="-1.528360">
        <ele>190.3</ele>
        <time>2023-04-30T07:26:19Z</time>
      </trkpt>
      <trkpt lat="38.235081" lon="-1.528440">
        <ele>190.0</ele>
        <time>2023-04-30T07:26:25Z</time>
      </trkpt>
      <trkpt lat="38.235014" lon="-1.528497">
        <ele>189.5</ele>
        <time>2023-04-30T07:26:31Z</time>
      </trkpt>
      <trkpt lat="38.234931" lon="-1.528504">
        <ele>188.3</ele>
        <time>2023-04-30T07:26:36Z</time>
      </trkpt>
      <trkpt lat="38.234865" lon="-1.528510">
        <ele>189.0</ele>
        <time>2023-04-30T07:26:41Z</time>
      </trkpt>
      <trkpt lat="38.234797" lon="-1.528529">
        <ele>190.3</ele>
        <time>2023-04-30T07:26:46Z</time>
      </trkpt>
      <trkpt lat="38.234724" lon="-1.528563">
        <ele>188.4</ele>
        <time>2023-04-30T07:26:53Z</time>
      </trkpt>
      <trkpt lat="38.234659" lon="-1.528608">
        <ele>189.3</ele>
        <time>2023-04-30T07:26:58Z</time>
      </trkpt>
      <trkpt lat="38.234606" lon="-1.528651">
        <ele>189.5</ele>
        <time>2023-04-30T07:27:02Z</time>
      </trkpt>
      <trkpt lat="38.234551" lon="-1.528697">
        <ele>189.3</ele>
        <time>2023-04-30T07:27:07Z</time>
      </trkpt>
      <trkpt lat="38.234497" lon="-1.528743">
        <ele>187.3</ele>
        <time>2023-04-30T07:27:11Z</time>
      </trkpt>
      <trkpt lat="38.234429" lon="-1.528776">
        <ele>187.3</ele>
        <time>2023-04-30T07:27:16Z</time>
      </trkpt>
      <trkpt lat="38.234365" lon="-1.528807">
        <ele>186.2</ele>
        <time>2023-04-30T07:27:21Z</time>
      </trkpt>
      <trkpt lat="38.234306" lon="-1.528850">
        <ele>187.1</ele>
        <time>2023-04-30T07:27:26Z</time>
      </trkpt>
      <trkpt lat="38.234247" lon="-1.528883">
        <ele>188.0</ele>
        <time>2023-04-30T07:27:31Z</time>
      </trkpt>
      <trkpt lat="38.234186" lon="-1.528925">
        <ele>189.3</ele>
        <time>2023-04-30T07:27:38Z</time>
      </trkpt>
      <trkpt lat="38.234123" lon="-1.528960">
        <ele>189.3</ele>
        <time>2023-04-30T07:27:44Z</time>
      </trkpt>
      <trkpt lat="38.234061" lon="-1.528994">
        <ele>188.6</ele>
        <time>2023-04-30T07:27:50Z</time>
      </trkpt>
      <trkpt lat="38.233984" lon="-1.528991">
        <ele>189.2</ele>
        <time>2023-04-30T07:27:55Z</time>
      </trkpt>
      <trkpt lat="38.233914" lon="-1.528964">
        <ele>189.3</ele>
        <time>2023-04-30T07:28:00Z</time>
      </trkpt>
      <trkpt lat="38.233841" lon="-1.529004">
        <ele>188.3</ele>
        <time>2023-04-30T07:28:06Z</time>
      </trkpt>
      <trkpt lat="38.233782" lon="-1.529050">
        <ele>189.3</ele>
        <time>2023-04-30T07:28:11Z</time>
      </trkpt>
      <trkpt lat="38.233724" lon="-1.529083">
        <ele>189.3</ele>
        <time>2023-04-30T07:28:16Z</time>
      </trkpt>
      <trkpt lat="38.233670" lon="-1.529142">
        <ele>188.3</ele>
        <time>2023-04-30T07:28:23Z</time>
      </trkpt>
      <trkpt lat="38.233634" lon="-1.529211">
        <ele>188.3</ele>
        <time>2023-04-30T07:28:28Z</time>
      </trkpt>
      <trkpt lat="38.233598" lon="-1.529284">
        <ele>188.3</ele>
        <time>2023-04-30T07:28:33Z</time>
      </trkpt>
      <trkpt lat="38.233543" lon="-1.529340">
        <ele>188.1</ele>
        <time>2023-04-30T07:28:37Z</time>
      </trkpt>
      <trkpt lat="38.233496" lon="-1.529402">
        <ele>188.2</ele>
        <time>2023-04-30T07:28:41Z</time>
      </trkpt>
      <trkpt lat="38.233444" lon="-1.529470">
        <ele>188.3</ele>
        <time>2023-04-30T07:28:46Z</time>
      </trkpt>
      <trkpt lat="38.233393" lon="-1.529520">
        <ele>188.3</ele>
        <time>2023-04-30T07:28:52Z</time>
      </trkpt>
      <trkpt lat="38.233351" lon="-1.529580">
        <ele>189.0</ele>
        <time>2023-04-30T07:28:57Z</time>
      </trkpt>
      <trkpt lat="38.233320" lon="-1.529654">
        <ele>187.3</ele>
        <time>2023-04-30T07:29:08Z</time>
      </trkpt>
      <trkpt lat="38.233261" lon="-1.529723">
        <ele>179.4</ele>
        <time>2023-04-30T07:30:14Z</time>
      </trkpt>
      <trkpt lat="38.233242" lon="-1.529804">
        <ele>182.0</ele>
        <time>2023-04-30T07:31:01Z</time>
      </trkpt>
      <trkpt lat="38.233180" lon="-1.529833">
        <ele>182.5</ele>
        <time>2023-04-30T07:31:09Z</time>
      </trkpt>
      <trkpt lat="38.233149" lon="-1.529906">
        <ele>182.3</ele>
        <time>2023-04-30T07:31:23Z</time>
      </trkpt>
      <trkpt lat="38.233166" lon="-1.529984">
        <ele>181.3</ele>
        <time>2023-04-30T07:31:49Z</time>
      </trkpt>
      <trkpt lat="38.233115" lon="-1.530038">
        <ele>183.3</ele>
        <time>2023-04-30T07:32:04Z</time>
      </trkpt>
      <trkpt lat="38.233063" lon="-1.530084">
        <ele>183.3</ele>
        <time>2023-04-30T07:32:09Z</time>
      </trkpt>
      <trkpt lat="38.233004" lon="-1.530123">
        <ele>183.3</ele>
        <time>2023-04-30T07:32:13Z</time>
      </trkpt>
      <trkpt lat="38.232950" lon="-1.530174">
        <ele>184.0</ele>
        <time>2023-04-30T07:32:18Z</time>
      </trkpt>
      <trkpt lat="38.232890" lon="-1.530225">
        <ele>184.3</ele>
        <time>2023-04-30T07:32:22Z</time>
      </trkpt>
      <trkpt lat="38.232831" lon="-1.530275">
        <ele>185.3</ele>
        <time>2023-04-30T07:32:29Z</time>
      </trkpt>
      <trkpt lat="38.232776" lon="-1.530340">
        <ele>184.5</ele>
        <time>2023-04-30T07:32:34Z</time>
      </trkpt>
      <trkpt lat="38.232710" lon="-1.530396">
        <ele>185.3</ele>
        <time>2023-04-30T07:32:39Z</time>
      </trkpt>
      <trkpt lat="38.232651" lon="-1.530430">
        <ele>185.3</ele>
        <time>2023-04-30T07:32:44Z</time>
      </trkpt>
      <trkpt lat="38.232586" lon="-1.530451">
        <ele>186.0</ele>
        <time>2023-04-30T07:32:49Z</time>
      </trkpt>
      <trkpt lat="38.232524" lon="-1.530472">
        <ele>186.3</ele>
        <time>2023-04-30T07:32:56Z</time>
      </trkpt>
      <trkpt lat="38.232440" lon="-1.530467">
        <ele>186.3</ele>
        <time>2023-04-30T07:33:02Z</time>
      </trkpt>
      <trkpt lat="38.232376" lon="-1.530460">
        <ele>187.3</ele>
        <time>2023-04-30T07:33:08Z</time>
      </trkpt>
      <trkpt lat="38.232309" lon="-1.530440">
        <ele>188.3</ele>
        <time>2023-04-30T07:33:14Z</time>
      </trkpt>
      <trkpt lat="38.232241" lon="-1.530423">
        <ele>185.4</ele>
        <time>2023-04-30T07:33:20Z</time>
      </trkpt>
      <trkpt lat="38.232168" lon="-1.530377">
        <ele>184.3</ele>
        <time>2023-04-30T07:33:27Z</time>
      </trkpt>
      <trkpt lat="38.232105" lon="-1.530367">
        <ele>186.0</ele>
        <time>2023-04-30T07:33:33Z</time>
      </trkpt>
      <trkpt lat="38.232027" lon="-1.530364">
        <ele>185.3</ele>
        <time>2023-04-30T07:33:37Z</time>
      </trkpt>
      <trkpt lat="38.231965" lon="-1.530343">
        <ele>186.4</ele>
        <time>2023-04-30T07:33:44Z</time>
      </trkpt>
      <trkpt lat="38.231892" lon="-1.530341">
        <ele>186.3</ele>
        <time>2023-04-30T07:33:50Z</time>
      </trkpt>
      <trkpt lat="38.231822" lon="-1.530307">
        <ele>185.3</ele>
        <time>2023-04-30T07:33:57Z</time>
      </trkpt>
      <trkpt lat="38.231755" lon="-1.530275">
        <ele>185.2</ele>
        <time>2023-04-30T07:34:02Z</time>
      </trkpt>
      <trkpt lat="38.231689" lon="-1.530250">
        <ele>182.6</ele>
        <time>2023-04-30T07:34:09Z</time>
      </trkpt>
      <trkpt lat="38.231630" lon="-1.530204">
        <ele>180.5</ele>
        <time>2023-04-30T07:34:15Z</time>
      </trkpt>
      <trkpt lat="38.231570" lon="-1.530158">
        <ele>179.3</ele>
        <time>2023-04-30T07:34:20Z</time>
      </trkpt>
      <trkpt lat="38.231509" lon="-1.530124">
        <ele>179.3</ele>
        <time>2023-04-30T07:34:25Z</time>
      </trkpt>
      <trkpt lat="38.231444" lon="-1.530079">
        <ele>179.3</ele>
        <time>2023-04-30T07:34:31Z</time>
      </trkpt>
      <trkpt lat="38.231390" lon="-1.530025">
        <ele>179.3</ele>
        <time>2023-04-30T07:34:37Z</time>
      </trkpt>
      <trkpt lat="38.231323" lon="-1.529975">
        <ele>182.2</ele>
        <time>2023-04-30T07:34:43Z</time>
      </trkpt>
      <trkpt lat="38.231269" lon="-1.529934">
        <ele>181.3</ele>
        <time>2023-04-30T07:34:48Z</time>
      </trkpt>
      <trkpt lat="38.231210" lon="-1.529893">
        <ele>181.3</ele>
        <time>2023-04-30T07:34:53Z</time>
      </trkpt>
      <trkpt lat="38.231146" lon="-1.529851">
        <ele>182.2</ele>
        <time>2023-04-30T07:34:59Z</time>
      </trkpt>
      <trkpt lat="38.231089" lon="-1.529806">
        <ele>182.3</ele>
        <time>2023-04-30T07:35:05Z</time>
      </trkpt>
      <trkpt lat="38.231029" lon="-1.529754">
        <ele>179.5</ele>
        <time>2023-04-30T07:35:11Z</time>
      </trkpt>
      <trkpt lat="38.230972" lon="-1.529715">
        <ele>179.3</ele>
        <time>2023-04-30T07:35:16Z</time>
      </trkpt>
      <trkpt lat="38.230913" lon="-1.529662">
        <ele>179.3</ele>
        <time>2023-04-30T07:35:21Z</time>
      </trkpt>
      <trkpt lat="38.230861" lon="-1.529612">
        <ele>179.1</ele>
        <time>2023-04-30T07:35:26Z</time>
      </trkpt>
      <trkpt lat="38.230803" lon="-1.529550">
        <ele>178.5</ele>
        <time>2023-04-30T07:35:31Z</time>
      </trkpt>
      <trkpt lat="38.230755" lon="-1.529484">
        <ele>178.2</ele>
        <time>2023-04-30T07:35:37Z</time>
      </trkpt>
      <trkpt lat="38.230694" lon="-1.529424">
        <ele>178.3</ele>
        <time>2023-04-30T07:35:43Z</time>
      </trkpt>
      <trkpt lat="38.230642" lon="-1.529366">
        <ele>178.3</ele>
        <time>2023-04-30T07:35:49Z</time>
      </trkpt>
      <trkpt lat="38.230592" lon="-1.529311">
        <ele>179.3</ele>
        <time>2023-04-30T07:35:54Z</time>
      </trkpt>
      <trkpt lat="38.230555" lon="-1.529246">
        <ele>181.0</ele>
        <time>2023-04-30T07:35:58Z</time>
      </trkpt>
      <trkpt lat="38.230515" lon="-1.529176">
        <ele>181.0</ele>
        <time>2023-04-30T07:36:04Z</time>
      </trkpt>
      <trkpt lat="38.230493" lon="-1.529098">
        <ele>181.3</ele>
        <time>2023-04-30T07:36:09Z</time>
      </trkpt>
      <trkpt lat="38.230470" lon="-1.529005">
        <ele>178.4</ele>
        <time>2023-04-30T07:36:18Z</time>
      </trkpt>
      <trkpt lat="38.230434" lon="-1.528939">
        <ele>181.0</ele>
        <time>2023-04-30T07:36:23Z</time>
      </trkpt>
      <trkpt lat="38.230381" lon="-1.528874">
        <ele>181.3</ele>
        <time>2023-04-30T07:36:41Z</time>
      </trkpt>
      <trkpt lat="38.230330" lon="-1.528817">
        <ele>181.1</ele>
        <time>2023-04-30T07:36:46Z</time>
      </trkpt>
      <trkpt lat="38.230275" lon="-1.528778">
        <ele>182.0</ele>
        <time>2023-04-30T07:36:50Z</time>
      </trkpt>
      <trkpt lat="38.230237" lon="-1.528708">
        <ele>182.1</ele>
        <time>2023-04-30T07:36:55Z</time>
      </trkpt>
      <trkpt lat="38.230201" lon="-1.528642">
        <ele>181.3</ele>
        <time>2023-04-30T07:36:59Z</time>
      </trkpt>
      <trkpt lat="38.230158" lon="-1.528583">
        <ele>182.3</ele>
        <time>2023-04-30T07:37:03Z</time>
      </trkpt>
      <trkpt lat="38.230142" lon="-1.528492">
        <ele>181.5</ele>
        <time>2023-04-30T07:37:08Z</time>
      </trkpt>
      <trkpt lat="38.230120" lon="-1.528411">
        <ele>182.3</ele>
        <time>2023-04-30T07:37:13Z</time>
      </trkpt>
      <trkpt lat="38.230089" lon="-1.528317">
        <ele>181.3</ele>
        <time>2023-04-30T07:37:18Z</time>
      </trkpt>
      <trkpt lat="38.230058" lon="-1.528242">
        <ele>182.3</ele>
        <time>2023-04-30T07:37:24Z</time>
      </trkpt>
      <trkpt lat="38.230036" lon="-1.528156">
        <ele>183.2</ele>
        <time>2023-04-30T07:37:30Z</time>
      </trkpt>
      <trkpt lat="38.230012" lon="-1.528078">
        <ele>183.3</ele>
        <time>2023-04-30T07:37:36Z</time>
      </trkpt>
      <trkpt lat="38.229973" lon="-1.528008">
        <ele>181.5</ele>
        <time>2023-04-30T07:37:41Z</time>
      </trkpt>
      <trkpt lat="38.229942" lon="-1.527930">
        <ele>182.3</ele>
        <time>2023-04-30T07:37:46Z</time>
      </trkpt>
      <trkpt lat="38.229921" lon="-1.527843">
        <ele>182.5</ele>
        <time>2023-04-30T07:37:52Z</time>
      </trkpt>
      <trkpt lat="38.229888" lon="-1.527746">
        <ele>183.3</ele>
        <time>2023-04-30T07:37:58Z</time>
      </trkpt>
      <trkpt lat="38.229855" lon="-1.527675">
        <ele>184.3</ele>
        <time>2023-04-30T07:38:03Z</time>
      </trkpt>
      <trkpt lat="38.229843" lon="-1.527580">
        <ele>182.4</ele>
        <time>2023-04-30T07:38:08Z</time>
      </trkpt>
      <trkpt lat="38.229831" lon="-1.527497">
        <ele>182.3</ele>
        <time>2023-04-30T07:38:14Z</time>
      </trkpt>
      <trkpt lat="38.229828" lon="-1.527414">
        <ele>182.4</ele>
        <time>2023-04-30T07:38:20Z</time>
      </trkpt>
      <trkpt lat="38.229813" lon="-1.527328">
        <ele>182.3</ele>
        <time>2023-04-30T07:38:26Z</time>
      </trkpt>
      <trkpt lat="38.229794" lon="-1.527243">
        <ele>182.3</ele>
        <time>2023-04-30T07:38:31Z</time>
      </trkpt>
      <trkpt lat="38.229785" lon="-1.527163">
        <ele>183.2</ele>
        <time>2023-04-30T07:38:35Z</time>
      </trkpt>
      <trkpt lat="38.229778" lon="-1.527084">
        <ele>184.0</ele>
        <time>2023-04-30T07:38:39Z</time>
      </trkpt>
      <trkpt lat="38.229767" lon="-1.527005">
        <ele>185.3</ele>
        <time>2023-04-30T07:38:44Z</time>
      </trkpt>
      <trkpt lat="38.229758" lon="-1.526925">
        <ele>185.3</ele>
        <time>2023-04-30T07:38:50Z</time>
      </trkpt>
      <trkpt lat="38.229735" lon="-1.526836">
        <ele>185.3</ele>
        <time>2023-04-30T07:38:56Z</time>
      </trkpt>
      <trkpt lat="38.229724" lon="-1.526756">
        <ele>185.3</ele>
        <time>2023-04-30T07:39:01Z</time>
      </trkpt>
      <trkpt lat="38.229713" lon="-1.526671">
        <ele>185.3</ele>
        <time>2023-04-30T07:39:07Z</time>
      </trkpt>
      <trkpt lat="38.229703" lon="-1.526587">
        <ele>183.3</ele>
        <time>2023-04-30T07:39:13Z</time>
      </trkpt>
      <trkpt lat="38.229696" lon="-1.526494">
        <ele>181.5</ele>
        <time>2023-04-30T07:39:19Z</time>
      </trkpt>
      <trkpt lat="38.229683" lon="-1.526403">
        <ele>182.3</ele>
        <time>2023-04-30T07:39:26Z</time>
      </trkpt>
      <trkpt lat="38.229674" lon="-1.526311">
        <ele>182.3</ele>
        <time>2023-04-30T07:39:32Z</time>
      </trkpt>
      <trkpt lat="38.229669" lon="-1.526223">
        <ele>181.3</ele>
        <time>2023-04-30T07:39:37Z</time>
      </trkpt>
      <trkpt lat="38.229662" lon="-1.526140">
        <ele>180.3</ele>
        <time>2023-04-30T07:39:42Z</time>
      </trkpt>
      <trkpt lat="38.229676" lon="-1.526053">
        <ele>180.3</ele>
        <time>2023-04-30T07:39:48Z</time>
      </trkpt>
      <trkpt lat="38.229683" lon="-1.525971">
        <ele>179.3</ele>
        <time>2023-04-30T07:39:53Z</time>
      </trkpt>
      <trkpt lat="38.229700" lon="-1.525881">
        <ele>176.3</ele>
        <time>2023-04-30T07:39:59Z</time>
      </trkpt>
      <trkpt lat="38.229718" lon="-1.525795">
        <ele>174.5</ele>
        <time>2023-04-30T07:40:05Z</time>
      </trkpt>
      <trkpt lat="38.229735" lon="-1.525710">
        <ele>173.3</ele>
        <time>2023-04-30T07:40:10Z</time>
      </trkpt>
      <trkpt lat="38.229742" lon="-1.525625">
        <ele>173.2</ele>
        <time>2023-04-30T07:40:15Z</time>
      </trkpt>
      <trkpt lat="38.229747" lon="-1.525531">
        <ele>171.4</ele>
        <time>2023-04-30T07:40:21Z</time>
      </trkpt>
      <trkpt lat="38.229764" lon="-1.525442">
        <ele>171.3</ele>
        <time>2023-04-30T07:40:27Z</time>
      </trkpt>
      <trkpt lat="38.229762" lon="-1.525362">
        <ele>175.0</ele>
        <time>2023-04-30T07:40:57Z</time>
      </trkpt>
      <trkpt lat="38.229794" lon="-1.525293">
        <ele>176.1</ele>
        <time>2023-04-30T07:41:06Z</time>
      </trkpt>
      <trkpt lat="38.229745" lon="-1.525223">
        <ele>179.3</ele>
        <time>2023-04-30T07:41:34Z</time>
      </trkpt>
      <trkpt lat="38.229747" lon="-1.525139">
        <ele>181.0</ele>
        <time>2023-04-30T07:41:44Z</time>
      </trkpt>
      <trkpt lat="38.229815" lon="-1.525124">
        <ele>180.3</ele>
        <time>2023-04-30T07:42:17Z</time>
      </trkpt>
      <trkpt lat="38.229879" lon="-1.525091">
        <ele>181.3</ele>
        <time>2023-04-30T07:42:25Z</time>
      </trkpt>
      <trkpt lat="38.229935" lon="-1.525047">
        <ele>182.3</ele>
        <time>2023-04-30T07:42:37Z</time>
      </trkpt>
      <trkpt lat="38.229992" lon="-1.525006">
        <ele>183.3</ele>
        <time>2023-04-30T07:42:45Z</time>
      </trkpt>
      <trkpt lat="38.230053" lon="-1.524979">
        <ele>182.4</ele>
        <time>2023-04-30T07:42:54Z</time>
      </trkpt>
      <trkpt lat="38.230107" lon="-1.524932">
        <ele>180.3</ele>
        <time>2023-04-30T07:43:01Z</time>
      </trkpt>
      <trkpt lat="38.230163" lon="-1.524880">
        <ele>180.0</ele>
        <time>2023-04-30T07:43:08Z</time>
      </trkpt>
      <trkpt lat="38.230215" lon="-1.524823">
        <ele>180.3</ele>
        <time>2023-04-30T07:43:16Z</time>
      </trkpt>
      <trkpt lat="38.230259" lon="-1.524763">
        <ele>180.3</ele>
        <time>2023-04-30T07:43:23Z</time>
      </trkpt>
      <trkpt lat="38.230297" lon="-1.524695">
        <ele>179.3</ele>
        <time>2023-04-30T07:43:28Z</time>
      </trkpt>
      <trkpt lat="38.230338" lon="-1.524629">
        <ele>180.3</ele>
        <time>2023-04-30T07:43:33Z</time>
      </trkpt>
      <trkpt lat="38.230403" lon="-1.524597">
        <ele>179.3</ele>
        <time>2023-04-30T07:43:40Z</time>
      </trkpt>
      <trkpt lat="38.230465" lon="-1.524582">
        <ele>179.5</ele>
        <time>2023-04-30T07:43:46Z</time>
      </trkpt>
      <trkpt lat="38.230530" lon="-1.524568">
        <ele>179.3</ele>
        <time>2023-04-30T07:43:51Z</time>
      </trkpt>
      <trkpt lat="38.230598" lon="-1.524557">
        <ele>178.5</ele>
        <time>2023-04-30T07:43:57Z</time>
      </trkpt>
      <trkpt lat="38.230666" lon="-1.524548">
        <ele>179.5</ele>
        <time>2023-04-30T07:44:03Z</time>
      </trkpt>
      <trkpt lat="38.230740" lon="-1.524536">
        <ele>180.3</ele>
        <time>2023-04-30T07:44:09Z</time>
      </trkpt>
      <trkpt lat="38.230801" lon="-1.524517">
        <ele>181.0</ele>
        <time>2023-04-30T07:44:14Z</time>
      </trkpt>
      <trkpt lat="38.230865" lon="-1.524480">
        <ele>181.3</ele>
        <time>2023-04-30T07:44:20Z</time>
      </trkpt>
      <trkpt lat="38.230937" lon="-1.524484">
        <ele>185.0</ele>
        <time>2023-04-30T07:45:38Z</time>
      </trkpt>
      <trkpt lat="38.231002" lon="-1.524464">
        <ele>184.2</ele>
        <time>2023-04-30T07:46:59Z</time>
      </trkpt>
      <trkpt lat="38.231043" lon="-1.524489">
        <ele>183.2</ele>
        <time>2023-04-30T07:47:10Z</time>
      </trkpt>
      <trkpt lat="38.231100" lon="-1.524479">
        <ele>182.3</ele>
        <time>2023-04-30T07:47:19Z</time>
      </trkpt>
      <trkpt lat="38.231104" lon="-1.524439">
        <ele>181.3</ele>
        <time>2023-04-30T07:47:42Z</time>
      </trkpt>
      <trkpt lat="38.231039" lon="-1.524426">
        <ele>179.4</ele>
        <time>2023-04-30T07:47:50Z</time>
      </trkpt>
      <trkpt lat="38.231024" lon="-1.524414">
        <ele>187.3</ele>
        <time>2023-04-30T07:53:02Z</time>
      </trkpt>
      <trkpt lat="38.231017" lon="-1.524411">
        <ele>186.5</ele>
        <time>2023-04-30T07:55:53Z</time>
      </trkpt>
      <trkpt lat="38.230999" lon="-1.524399">
        <ele>178.4</ele>
        <time>2023-04-30T08:02:41Z</time>
      </trkpt>
      <trkpt lat="38.230987" lon="-1.524405">
        <ele>176.0</ele>
        <time>2023-04-30T08:06:22Z</time>
      </trkpt>
      <trkpt lat="38.230935" lon="-1.524337">
        <ele>176.3</ele>
        <time>2023-04-30T08:06:30Z</time>
      </trkpt>
      <trkpt lat="38.230904" lon="-1.524257">
        <ele>175.3</ele>
        <time>2023-04-30T08:06:40Z</time>
      </trkpt>
      <trkpt lat="38.230918" lon="-1.524164">
        <ele>177.0</ele>
        <time>2023-04-30T08:06:46Z</time>
      </trkpt>
      <trkpt lat="38.230929" lon="-1.524072">
        <ele>178.3</ele>
        <time>2023-04-30T08:06:52Z</time>
      </trkpt>
      <trkpt lat="38.230936" lon="-1.523981">
        <ele>177.3</ele>
        <time>2023-04-30T08:06:58Z</time>
      </trkpt>
      <trkpt lat="38.230958" lon="-1.523899">
        <ele>176.3</ele>
        <time>2023-04-30T08:07:04Z</time>
      </trkpt>
      <trkpt lat="38.230999" lon="-1.523828">
        <ele>175.3</ele>
        <time>2023-04-30T08:07:09Z</time>
      </trkpt>
      <trkpt lat="38.231057" lon="-1.523764">
        <ele>176.0</ele>
        <time>2023-04-30T08:07:15Z</time>
      </trkpt>
      <trkpt lat="38.231126" lon="-1.523731">
        <ele>178.3</ele>
        <time>2023-04-30T08:07:22Z</time>
      </trkpt>
      <trkpt lat="38.231185" lon="-1.523699">
        <ele>178.3</ele>
        <time>2023-04-30T08:07:27Z</time>
      </trkpt>
      <trkpt lat="38.231241" lon="-1.523662">
        <ele>177.5</ele>
        <time>2023-04-30T08:07:33Z</time>
      </trkpt>
      <trkpt lat="38.231306" lon="-1.523624">
        <ele>177.3</ele>
        <time>2023-04-30T08:07:39Z</time>
      </trkpt>
      <trkpt lat="38.231364" lon="-1.523585">
        <ele>176.5</ele>
        <time>2023-04-30T08:07:44Z</time>
      </trkpt>
      <trkpt lat="38.231416" lon="-1.523540">
        <ele>177.3</ele>
        <time>2023-04-30T08:07:49Z</time>
      </trkpt>
      <trkpt lat="38.231473" lon="-1.523486">
        <ele>178.0</ele>
        <time>2023-04-30T08:07:55Z</time>
      </trkpt>
      <trkpt lat="38.231524" lon="-1.523425">
        <ele>178.3</ele>
        <time>2023-04-30T08:08:00Z</time>
      </trkpt>
      <trkpt lat="38.231568" lon="-1.523360">
        <ele>179.3</ele>
        <time>2023-04-30T08:08:05Z</time>
      </trkpt>
      <trkpt lat="38.231614" lon="-1.523291">
        <ele>179.2</ele>
        <time>2023-04-30T08:08:11Z</time>
      </trkpt>
      <trkpt lat="38.231652" lon="-1.523221">
        <ele>178.3</ele>
        <time>2023-04-30T08:08:16Z</time>
      </trkpt>
      <trkpt lat="38.231701" lon="-1.523154">
        <ele>178.3</ele>
        <time>2023-04-30T08:08:22Z</time>
      </trkpt>
      <trkpt lat="38.231742" lon="-1.523081">
        <ele>178.3</ele>
        <time>2023-04-30T08:08:27Z</time>
      </trkpt>
      <trkpt lat="38.231787" lon="-1.523011">
        <ele>178.3</ele>
        <time>2023-04-30T08:08:32Z</time>
      </trkpt>
      <trkpt lat="38.231830" lon="-1.522945">
        <ele>176.5</ele>
        <time>2023-04-30T08:08:38Z</time>
      </trkpt>
      <trkpt lat="38.231888" lon="-1.522880">
        <ele>176.3</ele>
        <time>2023-04-30T08:08:44Z</time>
      </trkpt>
      <trkpt lat="38.231941" lon="-1.522823">
        <ele>177.3</ele>
        <time>2023-04-30T08:08:49Z</time>
      </trkpt>
      <trkpt lat="38.231987" lon="-1.522762">
        <ele>178.3</ele>
        <time>2023-04-30T08:08:54Z</time>
      </trkpt>
      <trkpt lat="38.232029" lon="-1.522695">
        <ele>178.3</ele>
        <time>2023-04-30T08:08:59Z</time>
      </trkpt>
      <trkpt lat="38.232078" lon="-1.522631">
        <ele>178.3</ele>
        <time>2023-04-30T08:09:04Z</time>
      </trkpt>
      <trkpt lat="38.232127" lon="-1.522572">
        <ele>178.3</ele>
        <time>2023-04-30T08:09:09Z</time>
      </trkpt>
      <trkpt lat="38.232179" lon="-1.522510">
        <ele>177.6</ele>
        <time>2023-04-30T08:09:15Z</time>
      </trkpt>
      <trkpt lat="38.232221" lon="-1.522434">
        <ele>177.3</ele>
        <time>2023-04-30T08:09:21Z</time>
      </trkpt>
      <trkpt lat="38.232268" lon="-1.522381">
        <ele>175.3</ele>
        <time>2023-04-30T08:09:32Z</time>
      </trkpt>
      <trkpt lat="38.232292" lon="-1.522303">
        <ele>173.3</ele>
        <time>2023-04-30T08:09:55Z</time>
      </trkpt>
      <trkpt lat="38.232345" lon="-1.522251">
        <ele>172.3</ele>
        <time>2023-04-30T08:10:00Z</time>
      </trkpt>
      <trkpt lat="38.232403" lon="-1.522196">
        <ele>173.3</ele>
        <time>2023-04-30T08:10:08Z</time>
      </trkpt>
      <trkpt lat="38.232442" lon="-1.522120">
        <ele>172.3</ele>
        <time>2023-04-30T08:10:14Z</time>
      </trkpt>
      <trkpt lat="38.232498" lon="-1.522069">
        <ele>171.4</ele>
        <time>2023-04-30T08:10:20Z</time>
      </trkpt>
      <trkpt lat="38.232553" lon="-1.522025">
        <ele>172.3</ele>
        <time>2023-04-30T08:10:31Z</time>
      </trkpt>
      <trkpt lat="38.232619" lon="-1.521995">
        <ele>174.1</ele>
        <time>2023-04-30T08:11:13Z</time>
      </trkpt>
      <trkpt lat="38.232684" lon="-1.521970">
        <ele>176.2</ele>
        <time>2023-04-30T08:11:18Z</time>
      </trkpt>
      <trkpt lat="38.232746" lon="-1.521944">
        <ele>177.3</ele>
        <time>2023-04-30T08:11:23Z</time>
      </trkpt>
      <trkpt lat="38.232812" lon="-1.521912">
        <ele>177.3</ele>
        <time>2023-04-30T08:11:28Z</time>
      </trkpt>
      <trkpt lat="38.232879" lon="-1.521883">
        <ele>178.1</ele>
        <time>2023-04-30T08:11:34Z</time>
      </trkpt>
      <trkpt lat="38.232949" lon="-1.521849">
        <ele>178.3</ele>
        <time>2023-04-30T08:11:40Z</time>
      </trkpt>
      <trkpt lat="38.233019" lon="-1.521828">
        <ele>178.3</ele>
        <time>2023-04-30T08:11:45Z</time>
      </trkpt>
      <trkpt lat="38.233092" lon="-1.521798">
        <ele>178.3</ele>
        <time>2023-04-30T08:11:50Z</time>
      </trkpt>
      <trkpt lat="38.233168" lon="-1.521768">
        <ele>180.2</ele>
        <time>2023-04-30T08:11:55Z</time>
      </trkpt>
      <trkpt lat="38.233236" lon="-1.521741">
        <ele>180.3</ele>
        <time>2023-04-30T08:12:00Z</time>
      </trkpt>
      <trkpt lat="38.233305" lon="-1.521714">
        <ele>179.4</ele>
        <time>2023-04-30T08:12:05Z</time>
      </trkpt>
      <trkpt lat="38.233365" lon="-1.521668">
        <ele>179.5</ele>
        <time>2023-04-30T08:12:10Z</time>
      </trkpt>
      <trkpt lat="38.233417" lon="-1.521617">
        <ele>179.3</ele>
        <time>2023-04-30T08:12:16Z</time>
      </trkpt>
      <trkpt lat="38.233465" lon="-1.521559">
        <ele>178.6</ele>
        <time>2023-04-30T08:12:21Z</time>
      </trkpt>
      <trkpt lat="38.233503" lon="-1.521493">
        <ele>177.3</ele>
        <time>2023-04-30T08:12:27Z</time>
      </trkpt>
      <trkpt lat="38.233545" lon="-1.521414">
        <ele>174.1</ele>
        <time>2023-04-30T08:13:54Z</time>
      </trkpt>
      <trkpt lat="38.233596" lon="-1.521348">
        <ele>174.3</ele>
        <time>2023-04-30T08:14:00Z</time>
      </trkpt>
      <trkpt lat="38.233640" lon="-1.521268">
        <ele>174.6</ele>
        <time>2023-04-30T08:14:05Z</time>
      </trkpt>
      <trkpt lat="38.233687" lon="-1.521208">
        <ele>175.1</ele>
        <time>2023-04-30T08:14:10Z</time>
      </trkpt>
      <trkpt lat="38.233724" lon="-1.521137">
        <ele>175.1</ele>
        <time>2023-04-30T08:14:14Z</time>
      </trkpt>
      <trkpt lat="38.233766" lon="-1.521065">
        <ele>175.3</ele>
        <time>2023-04-30T08:14:19Z</time>
      </trkpt>
      <trkpt lat="38.233812" lon="-1.521005">
        <ele>176.1</ele>
        <time>2023-04-30T08:14:24Z</time>
      </trkpt>
      <trkpt lat="38.233854" lon="-1.520930">
        <ele>175.3</ele>
        <time>2023-04-30T08:14:29Z</time>
      </trkpt>
      <trkpt lat="38.233898" lon="-1.520855">
        <ele>174.4</ele>
        <time>2023-04-30T08:14:34Z</time>
      </trkpt>
      <trkpt lat="38.233945" lon="-1.520782">
        <ele>176.1</ele>
        <time>2023-04-30T08:14:39Z</time>
      </trkpt>
      <trkpt lat="38.233999" lon="-1.520718">
        <ele>175.4</ele>
        <time>2023-04-30T08:14:44Z</time>
      </trkpt>
      <trkpt lat="38.234046" lon="-1.520650">
        <ele>175.5</ele>
        <time>2023-04-30T08:14:49Z</time>
      </trkpt>
      <trkpt lat="38.234102" lon="-1.520582">
        <ele>176.1</ele>
        <time>2023-04-30T08:14:54Z</time>
      </trkpt>
      <trkpt lat="38.234155" lon="-1.520522">
        <ele>175.4</ele>
        <time>2023-04-30T08:14:59Z</time>
      </trkpt>
      <trkpt lat="38.234212" lon="-1.520458">
        <ele>176.3</ele>
        <time>2023-04-30T08:15:04Z</time>
      </trkpt>
      <trkpt lat="38.234275" lon="-1.520420">
        <ele>176.3</ele>
        <time>2023-04-30T08:15:09Z</time>
      </trkpt>
      <trkpt lat="38.234327" lon="-1.520371">
        <ele>176.3</ele>
        <time>2023-04-30T08:15:13Z</time>
      </trkpt>
      <trkpt lat="38.234380" lon="-1.520321">
        <ele>176.3</ele>
        <time>2023-04-30T08:15:17Z</time>
      </trkpt>
      <trkpt lat="38.234435" lon="-1.520270">
        <ele>175.3</ele>
        <time>2023-04-30T08:15:22Z</time>
      </trkpt>
      <trkpt lat="38.234487" lon="-1.520213">
        <ele>175.3</ele>
        <time>2023-04-30T08:15:27Z</time>
      </trkpt>
      <trkpt lat="38.234555" lon="-1.520153">
        <ele>174.3</ele>
        <time>2023-04-30T08:15:32Z</time>
      </trkpt>
      <trkpt lat="38.234614" lon="-1.520112">
        <ele>174.3</ele>
        <time>2023-04-30T08:15:37Z</time>
      </trkpt>
      <trkpt lat="38.234680" lon="-1.520060">
        <ele>174.6</ele>
        <time>2023-04-30T08:15:42Z</time>
      </trkpt>
      <trkpt lat="38.234743" lon="-1.519995">
        <ele>175.1</ele>
        <time>2023-04-30T08:15:47Z</time>
      </trkpt>
      <trkpt lat="38.234808" lon="-1.519942">
        <ele>176.3</ele>
        <time>2023-04-30T08:15:52Z</time>
      </trkpt>
      <trkpt lat="38.234862" lon="-1.519889">
        <ele>176.3</ele>
        <time>2023-04-30T08:15:58Z</time>
      </trkpt>
      <trkpt lat="38.234914" lon="-1.519830">
        <ele>176.3</ele>
        <time>2023-04-30T08:16:02Z</time>
      </trkpt>
      <trkpt lat="38.234978" lon="-1.519792">
        <ele>177.2</ele>
        <time>2023-04-30T08:16:07Z</time>
      </trkpt>
      <trkpt lat="38.235038" lon="-1.519736">
        <ele>177.3</ele>
        <time>2023-04-30T08:16:12Z</time>
      </trkpt>
      <trkpt lat="38.235094" lon="-1.519691">
        <ele>177.3</ele>
        <time>2023-04-30T08:16:17Z</time>
      </trkpt>
      <trkpt lat="38.235157" lon="-1.519635">
        <ele>177.3</ele>
        <time>2023-04-30T08:16:22Z</time>
      </trkpt>
      <trkpt lat="38.235220" lon="-1.519580">
        <ele>178.3</ele>
        <time>2023-04-30T08:16:28Z</time>
      </trkpt>
      <trkpt lat="38.235282" lon="-1.519551">
        <ele>177.6</ele>
        <time>2023-04-30T08:16:33Z</time>
      </trkpt>
      <trkpt lat="38.235347" lon="-1.519497">
        <ele>177.3</ele>
        <time>2023-04-30T08:16:38Z</time>
      </trkpt>
      <trkpt lat="38.235413" lon="-1.519450">
        <ele>176.3</ele>
        <time>2023-04-30T08:16:43Z</time>
      </trkpt>
      <trkpt lat="38.235472" lon="-1.519406">
        <ele>176.3</ele>
        <time>2023-04-30T08:16:48Z</time>
      </trkpt>
      <trkpt lat="38.235530" lon="-1.519354">
        <ele>175.3</ele>
        <time>2023-04-30T08:16:53Z</time>
      </trkpt>
      <trkpt lat="38.235583" lon="-1.519308">
        <ele>175.3</ele>
        <time>2023-04-30T08:16:57Z</time>
      </trkpt>
      <trkpt lat="38.235637" lon="-1.519261">
        <ele>175.3</ele>
        <time>2023-04-30T08:17:01Z</time>
      </trkpt>
      <trkpt lat="38.235680" lon="-1.519199">
        <ele>175.3</ele>
        <time>2023-04-30T08:17:05Z</time>
      </trkpt>
      <trkpt lat="38.235715" lon="-1.519119">
        <ele>174.4</ele>
        <time>2023-04-30T08:17:10Z</time>
      </trkpt>
      <trkpt lat="38.235748" lon="-1.519034">
        <ele>174.3</ele>
        <time>2023-04-30T08:17:15Z</time>
      </trkpt>
      <trkpt lat="38.235775" lon="-1.518962">
        <ele>173.6</ele>
        <time>2023-04-30T08:17:19Z</time>
      </trkpt>
      <trkpt lat="38.235799" lon="-1.518876">
        <ele>172.6</ele>
        <time>2023-04-30T08:17:24Z</time>
      </trkpt>
      <trkpt lat="38.235824" lon="-1.518802">
        <ele>171.4</ele>
        <time>2023-04-30T08:17:29Z</time>
      </trkpt>
      <trkpt lat="38.235856" lon="-1.518728">
        <ele>170.3</ele>
        <time>2023-04-30T08:17:34Z</time>
      </trkpt>
      <trkpt lat="38.235883" lon="-1.518654">
        <ele>170.3</ele>
        <time>2023-04-30T08:17:38Z</time>
      </trkpt>
      <trkpt lat="38.235905" lon="-1.518561">
        <ele>170.3</ele>
        <time>2023-04-30T08:17:43Z</time>
      </trkpt>
      <trkpt lat="38.235922" lon="-1.518467">
        <ele>169.3</ele>
        <time>2023-04-30T08:17:48Z</time>
      </trkpt>
      <trkpt lat="38.235940" lon="-1.518378">
        <ele>170.3</ele>
        <time>2023-04-30T08:17:53Z</time>
      </trkpt>
      <trkpt lat="38.235966" lon="-1.518288">
        <ele>170.1</ele>
        <time>2023-04-30T08:17:58Z</time>
      </trkpt>
      <trkpt lat="38.235993" lon="-1.518198">
        <ele>169.5</ele>
        <time>2023-04-30T08:18:03Z</time>
      </trkpt>
      <trkpt lat="38.236025" lon="-1.518114">
        <ele>170.3</ele>
        <time>2023-04-30T08:18:08Z</time>
      </trkpt>
      <trkpt lat="38.236049" lon="-1.518027">
        <ele>170.5</ele>
        <time>2023-04-30T08:18:13Z</time>
      </trkpt>
      <trkpt lat="38.236073" lon="-1.517930">
        <ele>171.3</ele>
        <time>2023-04-30T08:18:18Z</time>
      </trkpt>
      <trkpt lat="38.236098" lon="-1.517846">
        <ele>171.1</ele>
        <time>2023-04-30T08:18:23Z</time>
      </trkpt>
      <trkpt lat="38.236117" lon="-1.517756">
        <ele>169.3</ele>
        <time>2023-04-30T08:18:28Z</time>
      </trkpt>
      <trkpt lat="38.236135" lon="-1.517655">
        <ele>170.3</ele>
        <time>2023-04-30T08:18:33Z</time>
      </trkpt>
      <trkpt lat="38.236154" lon="-1.517576">
        <ele>171.3</ele>
        <time>2023-04-30T08:18:38Z</time>
      </trkpt>
      <trkpt lat="38.236170" lon="-1.517491">
        <ele>171.3</ele>
        <time>2023-04-30T08:18:43Z</time>
      </trkpt>
      <trkpt lat="38.236219" lon="-1.517422">
        <ele>172.1</ele>
        <time>2023-04-30T08:18:48Z</time>
      </trkpt>
      <trkpt lat="38.236243" lon="-1.517343">
        <ele>173.3</ele>
        <time>2023-04-30T08:19:06Z</time>
      </trkpt>
      <trkpt lat="38.236221" lon="-1.517261">
        <ele>172.3</ele>
        <time>2023-04-30T08:19:11Z</time>
      </trkpt>
      <trkpt lat="38.236256" lon="-1.517174">
        <ele>172.3</ele>
        <time>2023-04-30T08:19:16Z</time>
      </trkpt>
      <trkpt lat="38.236297" lon="-1.517096">
        <ele>172.3</ele>
        <time>2023-04-30T08:19:21Z</time>
      </trkpt>
      <trkpt lat="38.236329" lon="-1.517009">
        <ele>173.3</ele>
        <time>2023-04-30T08:19:27Z</time>
      </trkpt>
      <trkpt lat="38.236358" lon="-1.516919">
        <ele>173.2</ele>
        <time>2023-04-30T08:19:32Z</time>
      </trkpt>
      <trkpt lat="38.236389" lon="-1.516835">
        <ele>174.1</ele>
        <time>2023-04-30T08:19:38Z</time>
      </trkpt>
      <trkpt lat="38.236418" lon="-1.516751">
        <ele>175.3</ele>
        <time>2023-04-30T08:19:44Z</time>
      </trkpt>
      <trkpt lat="38.236442" lon="-1.516677">
        <ele>177.3</ele>
        <time>2023-04-30T08:19:52Z</time>
      </trkpt>
      <trkpt lat="38.236482" lon="-1.516580">
        <ele>177.3</ele>
        <time>2023-04-30T08:19:59Z</time>
      </trkpt>
      <trkpt lat="38.236522" lon="-1.516509">
        <ele>178.2</ele>
        <time>2023-04-30T08:20:05Z</time>
      </trkpt>
      <trkpt lat="38.236544" lon="-1.516428">
        <ele>179.3</ele>
        <time>2023-04-30T08:20:11Z</time>
      </trkpt>
      <trkpt lat="38.236582" lon="-1.516358">
        <ele>178.4</ele>
        <time>2023-04-30T08:20:17Z</time>
      </trkpt>
      <trkpt lat="38.236601" lon="-1.516276">
        <ele>177.3</ele>
        <time>2023-04-30T08:20:22Z</time>
      </trkpt>
      <trkpt lat="38.236621" lon="-1.516173">
        <ele>176.1</ele>
        <time>2023-04-30T08:20:39Z</time>
      </trkpt>
      <trkpt lat="38.236643" lon="-1.516079">
        <ele>176.3</ele>
        <time>2023-04-30T08:20:44Z</time>
      </trkpt>
      <trkpt lat="38.236670" lon="-1.515997">
        <ele>175.4</ele>
        <time>2023-04-30T08:20:52Z</time>
      </trkpt>
      <trkpt lat="38.236697" lon="-1.515911">
        <ele>174.3</ele>
        <time>2023-04-30T08:20:57Z</time>
      </trkpt>
      <trkpt lat="38.236719" lon="-1.515823">
        <ele>174.3</ele>
        <time>2023-04-30T08:21:02Z</time>
      </trkpt>
      <trkpt lat="38.236735" lon="-1.515742">
        <ele>175.2</ele>
        <time>2023-04-30T08:21:07Z</time>
      </trkpt>
      <trkpt lat="38.236758" lon="-1.515666">
        <ele>175.1</ele>
        <time>2023-04-30T08:21:11Z</time>
      </trkpt>
      <trkpt lat="38.236778" lon="-1.515580">
        <ele>175.3</ele>
        <time>2023-04-30T08:21:15Z</time>
      </trkpt>
      <trkpt lat="38.236793" lon="-1.515502">
        <ele>176.2</ele>
        <time>2023-04-30T08:21:19Z</time>
      </trkpt>
      <trkpt lat="38.236806" lon="-1.515411">
        <ele>174.4</ele>
        <time>2023-04-30T08:21:31Z</time>
      </trkpt>
      <trkpt lat="38.236819" lon="-1.515327">
        <ele>174.3</ele>
        <time>2023-04-30T08:21:36Z</time>
      </trkpt>
      <trkpt lat="38.236840" lon="-1.515229">
        <ele>177.1</ele>
        <time>2023-04-30T08:21:41Z</time>
      </trkpt>
      <trkpt lat="38.236856" lon="-1.515151">
        <ele>177.3</ele>
        <time>2023-04-30T08:21:45Z</time>
      </trkpt>
      <trkpt lat="38.236883" lon="-1.515060">
        <ele>176.3</ele>
        <time>2023-04-30T08:21:50Z</time>
      </trkpt>
      <trkpt lat="38.236902" lon="-1.514972">
        <ele>176.3</ele>
        <time>2023-04-30T08:21:54Z</time>
      </trkpt>
      <trkpt lat="38.236919" lon="-1.514862">
        <ele>176.3</ele>
        <time>2023-04-30T08:21:59Z</time>
      </trkpt>
      <trkpt lat="38.236950" lon="-1.514786">
        <ele>174.5</ele>
        <time>2023-04-30T08:22:05Z</time>
      </trkpt>
      <trkpt lat="38.236976" lon="-1.514711">
        <ele>173.4</ele>
        <time>2023-04-30T08:22:10Z</time>
      </trkpt>
      <trkpt lat="38.236986" lon="-1.514625">
        <ele>172.3</ele>
        <time>2023-04-30T08:22:15Z</time>
      </trkpt>
      <trkpt lat="38.237005" lon="-1.514534">
        <ele>170.6</ele>
        <time>2023-04-30T08:22:21Z</time>
      </trkpt>
      <trkpt lat="38.237019" lon="-1.514453">
        <ele>169.4</ele>
        <time>2023-04-30T08:22:25Z</time>
      </trkpt>
      <trkpt lat="38.237031" lon="-1.514373">
        <ele>167.3</ele>
        <time>2023-04-30T08:22:31Z</time>
      </trkpt>
      <trkpt lat="38.237034" lon="-1.514287">
        <ele>166.3</ele>
        <time>2023-04-30T08:22:36Z</time>
      </trkpt>
      <trkpt lat="38.237041" lon="-1.514202">
        <ele>167.2</ele>
        <time>2023-04-30T08:22:40Z</time>
      </trkpt>
      <trkpt lat="38.237047" lon="-1.514119">
        <ele>165.4</ele>
        <time>2023-04-30T08:22:45Z</time>
      </trkpt>
      <trkpt lat="38.237054" lon="-1.514035">
        <ele>165.3</ele>
        <time>2023-04-30T08:22:49Z</time>
      </trkpt>
      <trkpt lat="38.237058" lon="-1.513937">
        <ele>165.1</ele>
        <time>2023-04-30T08:22:54Z</time>
      </trkpt>
      <trkpt lat="38.237052" lon="-1.513853">
        <ele>165.3</ele>
        <time>2023-04-30T08:23:01Z</time>
      </trkpt>
      <trkpt lat="38.237073" lon="-1.513772">
        <ele>166.1</ele>
        <time>2023-04-30T08:23:05Z</time>
      </trkpt>
      <trkpt lat="38.237101" lon="-1.513682">
        <ele>167.3</ele>
        <time>2023-04-30T08:23:12Z</time>
      </trkpt>
      <trkpt lat="38.237100" lon="-1.513596">
        <ele>170.6</ele>
        <time>2023-04-30T08:23:21Z</time>
      </trkpt>
      <trkpt lat="38.237093" lon="-1.513500">
        <ele>171.3</ele>
        <time>2023-04-30T08:23:27Z</time>
      </trkpt>
      <trkpt lat="38.237087" lon="-1.513419">
        <ele>170.3</ele>
        <time>2023-04-30T08:23:32Z</time>
      </trkpt>
      <trkpt lat="38.237066" lon="-1.513330">
        <ele>170.3</ele>
        <time>2023-04-30T08:23:37Z</time>
      </trkpt>
      <trkpt lat="38.237056" lon="-1.513242">
        <ele>171.1</ele>
        <time>2023-04-30T08:23:43Z</time>
      </trkpt>
      <trkpt lat="38.237057" lon="-1.513151">
        <ele>170.3</ele>
        <time>2023-04-30T08:23:49Z</time>
      </trkpt>
      <trkpt lat="38.237054" lon="-1.513070">
        <ele>170.3</ele>
        <time>2023-04-30T08:23:53Z</time>
      </trkpt>
      <trkpt lat="38.237051" lon="-1.512984">
        <ele>171.3</ele>
        <time>2023-04-30T08:23:59Z</time>
      </trkpt>
      <trkpt lat="38.237036" lon="-1.512900">
        <ele>172.3</ele>
        <time>2023-04-30T08:24:05Z</time>
      </trkpt>
      <trkpt lat="38.237029" lon="-1.512817">
        <ele>172.3</ele>
        <time>2023-04-30T08:24:11Z</time>
      </trkpt>
      <trkpt lat="38.237033" lon="-1.512730">
        <ele>172.3</ele>
        <time>2023-04-30T08:24:16Z</time>
      </trkpt>
      <trkpt lat="38.237035" lon="-1.512649">
        <ele>171.3</ele>
        <time>2023-04-30T08:24:22Z</time>
      </trkpt>
      <trkpt lat="38.237040" lon="-1.512565">
        <ele>170.6</ele>
        <time>2023-04-30T08:24:30Z</time>
      </trkpt>
      <trkpt lat="38.237047" lon="-1.512484">
        <ele>170.3</ele>
        <time>2023-04-30T08:24:34Z</time>
      </trkpt>
      <trkpt lat="38.237056" lon="-1.512399">
        <ele>171.3</ele>
        <time>2023-04-30T08:24:39Z</time>
      </trkpt>
      <trkpt lat="38.237064" lon="-1.512303">
        <ele>172.3</ele>
        <time>2023-04-30T08:24:45Z</time>
      </trkpt>
      <trkpt lat="38.237078" lon="-1.512218">
        <ele>173.3</ele>
        <time>2023-04-30T08:24:52Z</time>
      </trkpt>
      <trkpt lat="38.237085" lon="-1.512126">
        <ele>173.1</ele>
        <time>2023-04-30T08:24:58Z</time>
      </trkpt>
      <trkpt lat="38.237088" lon="-1.512040">
        <ele>174.1</ele>
        <time>2023-04-30T08:25:04Z</time>
      </trkpt>
      <trkpt lat="38.237090" lon="-1.511937">
        <ele>174.3</ele>
        <time>2023-04-30T08:25:10Z</time>
      </trkpt>
      <trkpt lat="38.237096" lon="-1.511845">
        <ele>173.3</ele>
        <time>2023-04-30T08:25:17Z</time>
      </trkpt>
      <trkpt lat="38.237100" lon="-1.511761">
        <ele>175.1</ele>
        <time>2023-04-30T08:25:23Z</time>
      </trkpt>
      <trkpt lat="38.237101" lon="-1.511674">
        <ele>173.3</ele>
        <time>2023-04-30T08:25:31Z</time>
      </trkpt>
      <trkpt lat="38.237109" lon="-1.511587">
        <ele>170.6</ele>
        <time>2023-04-30T08:25:36Z</time>
      </trkpt>
      <trkpt lat="38.237070" lon="-1.511377">
        <ele>171.3</ele>
        <time>2023-04-30T08:27:09Z</time>
      </trkpt>
      <trkpt lat="38.237082" lon="-1.511294">
        <ele>172.3</ele>
        <time>2023-04-30T08:27:14Z</time>
      </trkpt>
      <trkpt lat="38.237080" lon="-1.511213">
        <ele>171.3</ele>
        <time>2023-04-30T08:27:19Z</time>
      </trkpt>
      <trkpt lat="38.237090" lon="-1.511124">
        <ele>170.5</ele>
        <time>2023-04-30T08:27:24Z</time>
      </trkpt>
      <trkpt lat="38.237104" lon="-1.511028">
        <ele>170.3</ele>
        <time>2023-04-30T08:27:29Z</time>
      </trkpt>
      <trkpt lat="38.237117" lon="-1.510941">
        <ele>171.3</ele>
        <time>2023-04-30T08:27:34Z</time>
      </trkpt>
      <trkpt lat="38.237126" lon="-1.510855">
        <ele>171.3</ele>
        <time>2023-04-30T08:27:40Z</time>
      </trkpt>
      <trkpt lat="38.237129" lon="-1.510771">
        <ele>170.4</ele>
        <time>2023-04-30T08:27:46Z</time>
      </trkpt>
      <trkpt lat="38.237125" lon="-1.510691">
        <ele>168.4</ele>
        <time>2023-04-30T08:27:58Z</time>
      </trkpt>
      <trkpt lat="38.237099" lon="-1.510607">
        <ele>166.1</ele>
        <time>2023-04-30T08:28:11Z</time>
      </trkpt>
      <trkpt lat="38.237105" lon="-1.510520">
        <ele>166.3</ele>
        <time>2023-04-30T08:28:16Z</time>
      </trkpt>
      <trkpt lat="38.237095" lon="-1.510441">
        <ele>166.3</ele>
        <time>2023-04-30T08:28:21Z</time>
      </trkpt>
      <trkpt lat="38.237086" lon="-1.510353">
        <ele>166.3</ele>
        <time>2023-04-30T08:28:26Z</time>
      </trkpt>
      <trkpt lat="38.237072" lon="-1.510265">
        <ele>166.5</ele>
        <time>2023-04-30T08:28:33Z</time>
      </trkpt>
      <trkpt lat="38.237085" lon="-1.510183">
        <ele>167.3</ele>
        <time>2023-04-30T08:28:39Z</time>
      </trkpt>
      <trkpt lat="38.237085" lon="-1.510101">
        <ele>167.3</ele>
        <time>2023-04-30T08:28:44Z</time>
      </trkpt>
      <trkpt lat="38.237076" lon="-1.510008">
        <ele>166.6</ele>
        <time>2023-04-30T08:28:50Z</time>
      </trkpt>
      <trkpt lat="38.237062" lon="-1.509925">
        <ele>165.6</ele>
        <time>2023-04-30T08:28:56Z</time>
      </trkpt>
      <trkpt lat="38.237061" lon="-1.509840">
        <ele>165.1</ele>
        <time>2023-04-30T08:29:01Z</time>
      </trkpt>
      <trkpt lat="38.237061" lon="-1.509760">
        <ele>165.3</ele>
        <time>2023-04-30T08:29:08Z</time>
      </trkpt>
      <trkpt lat="38.237037" lon="-1.509683">
        <ele>165.6</ele>
        <time>2023-04-30T08:29:20Z</time>
      </trkpt>
      <trkpt lat="38.237029" lon="-1.509594">
        <ele>165.3</ele>
        <time>2023-04-30T08:29:35Z</time>
      </trkpt>
      <trkpt lat="38.237009" lon="-1.509516">
        <ele>165.3</ele>
        <time>2023-04-30T08:29:48Z</time>
      </trkpt>
      <trkpt lat="38.236984" lon="-1.509429">
        <ele>166.1</ele>
        <time>2023-04-30T08:29:54Z</time>
      </trkpt>
      <trkpt lat="38.236962" lon="-1.509352">
        <ele>167.0</ele>
        <time>2023-04-30T08:30:01Z</time>
      </trkpt>
      <trkpt lat="38.236957" lon="-1.509259">
        <ele>168.3</ele>
        <time>2023-04-30T08:30:05Z</time>
      </trkpt>
      <trkpt lat="38.236948" lon="-1.509180">
        <ele>169.3</ele>
        <time>2023-04-30T08:30:09Z</time>
      </trkpt>
      <trkpt lat="38.236921" lon="-1.509101">
        <ele>169.3</ele>
        <time>2023-04-30T08:30:13Z</time>
      </trkpt>
      <trkpt lat="38.236895" lon="-1.509015">
        <ele>167.6</ele>
        <time>2023-04-30T08:30:18Z</time>
      </trkpt>
      <trkpt lat="38.236885" lon="-1.508922">
        <ele>166.4</ele>
        <time>2023-04-30T08:30:22Z</time>
      </trkpt>
      <trkpt lat="38.236889" lon="-1.508839">
        <ele>168.3</ele>
        <time>2023-04-30T08:30:27Z</time>
      </trkpt>
      <trkpt lat="38.236872" lon="-1.508735">
        <ele>167.4</ele>
        <time>2023-04-30T08:30:32Z</time>
      </trkpt>
      <trkpt lat="38.236868" lon="-1.508645">
        <ele>166.6</ele>
        <time>2023-04-30T08:30:37Z</time>
      </trkpt>
      <trkpt lat="38.236868" lon="-1.508563">
        <ele>167.1</ele>
        <time>2023-04-30T08:30:42Z</time>
      </trkpt>
      <trkpt lat="38.236853" lon="-1.508479">
        <ele>168.3</ele>
        <time>2023-04-30T08:30:47Z</time>
      </trkpt>
      <trkpt lat="38.236853" lon="-1.508392">
        <ele>168.3</ele>
        <time>2023-04-30T08:30:54Z</time>
      </trkpt>
      <trkpt lat="38.236827" lon="-1.508307">
        <ele>169.3</ele>
        <time>2023-04-30T08:30:58Z</time>
      </trkpt>
      <trkpt lat="38.236800" lon="-1.508231">
        <ele>169.3</ele>
        <time>2023-04-30T08:31:02Z</time>
      </trkpt>
      <trkpt lat="38.236795" lon="-1.508152">
        <ele>168.3</ele>
        <time>2023-04-30T08:31:10Z</time>
      </trkpt>
      <trkpt lat="38.236757" lon="-1.508076">
        <ele>173.3</ele>
        <time>2023-04-30T08:31:42Z</time>
      </trkpt>
      <trkpt lat="38.236737" lon="-1.507993">
        <ele>172.3</ele>
        <time>2023-04-30T08:31:47Z</time>
      </trkpt>
      <trkpt lat="38.236716" lon="-1.507915">
        <ele>171.3</ele>
        <time>2023-04-30T08:31:54Z</time>
      </trkpt>
      <trkpt lat="38.236677" lon="-1.507834">
        <ele>170.5</ele>
        <time>2023-04-30T08:32:01Z</time>
      </trkpt>
      <trkpt lat="38.236640" lon="-1.507763">
        <ele>170.3</ele>
        <time>2023-04-30T08:32:06Z</time>
      </trkpt>
      <trkpt lat="38.236642" lon="-1.507681">
        <ele>170.3</ele>
        <time>2023-04-30T08:32:14Z</time>
      </trkpt>
      <trkpt lat="38.236610" lon="-1.507612">
        <ele>175.4</ele>
        <time>2023-04-30T08:32:47Z</time>
      </trkpt>
      <trkpt lat="38.236569" lon="-1.507533">
        <ele>172.7</ele>
        <time>2023-04-30T08:32:52Z</time>
      </trkpt>
      <trkpt lat="38.236565" lon="-1.507446">
        <ele>171.6</ele>
        <time>2023-04-30T08:33:00Z</time>
      </trkpt>
      <trkpt lat="38.236548" lon="-1.507357">
        <ele>168.6</ele>
        <time>2023-04-30T08:33:13Z</time>
      </trkpt>
      <trkpt lat="38.236501" lon="-1.507275">
        <ele>169.3</ele>
        <time>2023-04-30T08:33:31Z</time>
      </trkpt>
      <trkpt lat="38.236458" lon="-1.507212">
        <ele>168.6</ele>
        <time>2023-04-30T08:33:35Z</time>
      </trkpt>
      <trkpt lat="38.236397" lon="-1.507167">
        <ele>168.3</ele>
        <time>2023-04-30T08:33:40Z</time>
      </trkpt>
      <trkpt lat="38.236325" lon="-1.507135">
        <ele>168.4</ele>
        <time>2023-04-30T08:33:45Z</time>
      </trkpt>
      <trkpt lat="38.236276" lon="-1.507196">
        <ele>169.3</ele>
        <time>2023-04-30T08:33:50Z</time>
      </trkpt>
      <trkpt lat="38.236252" lon="-1.507109">
        <ele>171.1</ele>
        <time>2023-04-30T08:34:16Z</time>
      </trkpt>
      <trkpt lat="38.236272" lon="-1.507013">
        <ele>171.3</ele>
        <time>2023-04-30T08:34:21Z</time>
      </trkpt>
      <trkpt lat="38.236315" lon="-1.506946">
        <ele>172.3</ele>
        <time>2023-04-30T08:34:26Z</time>
      </trkpt>
      <trkpt lat="38.236391" lon="-1.506948">
        <ele>172.3</ele>
        <time>2023-04-30T08:34:30Z</time>
      </trkpt>
      <trkpt lat="38.236456" lon="-1.506943">
        <ele>172.3</ele>
        <time>2023-04-30T08:34:34Z</time>
      </trkpt>
      <trkpt lat="38.236529" lon="-1.506943">
        <ele>172.3</ele>
        <time>2023-04-30T08:34:39Z</time>
      </trkpt>
      <trkpt lat="38.236594" lon="-1.506915">
        <ele>170.6</ele>
        <time>2023-04-30T08:34:47Z</time>
      </trkpt>
      <trkpt lat="38.236611" lon="-1.506831">
        <ele>169.6</ele>
        <time>2023-04-30T08:34:51Z</time>
      </trkpt>
      <trkpt lat="38.236619" lon="-1.506736">
        <ele>169.3</ele>
        <time>2023-04-30T08:34:56Z</time>
      </trkpt>
      <trkpt lat="38.236620" lon="-1.506643">
        <ele>169.3</ele>
        <time>2023-04-30T08:35:01Z</time>
      </trkpt>
      <trkpt lat="38.236608" lon="-1.506557">
        <ele>168.4</ele>
        <time>2023-04-30T08:35:06Z</time>
      </trkpt>
      <trkpt lat="38.236597" lon="-1.506468">
        <ele>168.3</ele>
        <time>2023-04-30T08:35:11Z</time>
      </trkpt>
      <trkpt lat="38.236580" lon="-1.506389">
        <ele>167.4</ele>
        <time>2023-04-30T08:35:15Z</time>
      </trkpt>
      <trkpt lat="38.236560" lon="-1.506309">
        <ele>167.3</ele>
        <time>2023-04-30T08:35:19Z</time>
      </trkpt>
      <trkpt lat="38.236533" lon="-1.506224">
        <ele>166.4</ele>
        <time>2023-04-30T08:35:24Z</time>
      </trkpt>
      <trkpt lat="38.236501" lon="-1.506151">
        <ele>166.3</ele>
        <time>2023-04-30T08:35:28Z</time>
      </trkpt>
      <trkpt lat="38.236478" lon="-1.506074">
        <ele>166.3</ele>
        <time>2023-04-30T08:35:32Z</time>
      </trkpt>
      <trkpt lat="38.236474" lon="-1.505988">
        <ele>165.4</ele>
        <time>2023-04-30T08:35:39Z</time>
      </trkpt>
      <trkpt lat="38.236476" lon="-1.505906">
        <ele>164.3</ele>
        <time>2023-04-30T08:35:44Z</time>
      </trkpt>
      <trkpt lat="38.236475" lon="-1.505822">
        <ele>165.3</ele>
        <time>2023-04-30T08:35:48Z</time>
      </trkpt>
      <trkpt lat="38.236469" lon="-1.505722">
        <ele>167.3</ele>
        <time>2023-04-30T08:35:53Z</time>
      </trkpt>
      <trkpt lat="38.236465" lon="-1.505616">
        <ele>168.3</ele>
        <time>2023-04-30T08:35:58Z</time>
      </trkpt>
      <trkpt lat="38.236447" lon="-1.505510">
        <ele>169.3</ele>
        <time>2023-04-30T08:36:03Z</time>
      </trkpt>
      <trkpt lat="38.236445" lon="-1.505429">
        <ele>169.3</ele>
        <time>2023-04-30T08:36:08Z</time>
      </trkpt>
      <trkpt lat="38.236389" lon="-1.505381">
        <ele>167.6</ele>
        <time>2023-04-30T08:36:32Z</time>
      </trkpt>
      <trkpt lat="38.236352" lon="-1.505314">
        <ele>165.6</ele>
        <time>2023-04-30T08:36:36Z</time>
      </trkpt>
      <trkpt lat="38.236314" lon="-1.505242">
        <ele>165.3</ele>
        <time>2023-04-30T08:36:41Z</time>
      </trkpt>
      <trkpt lat="38.236260" lon="-1.505196">
        <ele>164.2</ele>
        <time>2023-04-30T08:36:46Z</time>
      </trkpt>
      <trkpt lat="38.236191" lon="-1.505159">
        <ele>164.3</ele>
        <time>2023-04-30T08:36:51Z</time>
      </trkpt>
      <trkpt lat="38.236135" lon="-1.505117">
        <ele>163.6</ele>
        <time>2023-04-30T08:36:55Z</time>
      </trkpt>
      <trkpt lat="38.236077" lon="-1.505079">
        <ele>162.6</ele>
        <time>2023-04-30T08:37:00Z</time>
      </trkpt>
      <trkpt lat="38.236012" lon="-1.505052">
        <ele>162.3</ele>
        <time>2023-04-30T08:37:05Z</time>
      </trkpt>
      <trkpt lat="38.235945" lon="-1.505015">
        <ele>161.4</ele>
        <time>2023-04-30T08:37:10Z</time>
      </trkpt>
      <trkpt lat="38.235878" lon="-1.504988">
        <ele>161.3</ele>
        <time>2023-04-30T08:37:15Z</time>
      </trkpt>
      <trkpt lat="38.235817" lon="-1.504958">
        <ele>161.3</ele>
        <time>2023-04-30T08:37:19Z</time>
      </trkpt>
      <trkpt lat="38.235745" lon="-1.504928">
        <ele>162.3</ele>
        <time>2023-04-30T08:37:24Z</time>
      </trkpt>
      <trkpt lat="38.235673" lon="-1.504905">
        <ele>162.1</ele>
        <time>2023-04-30T08:37:28Z</time>
      </trkpt>
      <trkpt lat="38.235600" lon="-1.504875">
        <ele>162.1</ele>
        <time>2023-04-30T08:37:33Z</time>
      </trkpt>
      <trkpt lat="38.235530" lon="-1.504856">
        <ele>162.3</ele>
        <time>2023-04-30T08:37:39Z</time>
      </trkpt>
      <trkpt lat="38.235472" lon="-1.504824">
        <ele>161.6</ele>
        <time>2023-04-30T08:37:44Z</time>
      </trkpt>
      <trkpt lat="38.235407" lon="-1.504792">
        <ele>163.1</ele>
        <time>2023-04-30T08:37:48Z</time>
      </trkpt>
      <trkpt lat="38.235337" lon="-1.504762">
        <ele>163.6</ele>
        <time>2023-04-30T08:37:53Z</time>
      </trkpt>
      <trkpt lat="38.235262" lon="-1.504731">
        <ele>162.4</ele>
        <time>2023-04-30T08:37:58Z</time>
      </trkpt>
      <trkpt lat="38.235188" lon="-1.504714">
        <ele>163.5</ele>
        <time>2023-04-30T08:38:03Z</time>
      </trkpt>
      <trkpt lat="38.235120" lon="-1.504701">
        <ele>164.3</ele>
        <time>2023-04-30T08:38:09Z</time>
      </trkpt>
      <trkpt lat="38.235046" lon="-1.504691">
        <ele>165.3</ele>
        <time>2023-04-30T08:38:13Z</time>
      </trkpt>
      <trkpt lat="38.234971" lon="-1.504687">
        <ele>164.3</ele>
        <time>2023-04-30T08:38:18Z</time>
      </trkpt>
      <trkpt lat="38.234908" lon="-1.504689">
        <ele>163.4</ele>
        <time>2023-04-30T08:38:23Z</time>
      </trkpt>
      <trkpt lat="38.234843" lon="-1.504702">
        <ele>164.1</ele>
        <time>2023-04-30T08:38:27Z</time>
      </trkpt>
      <trkpt lat="38.234765" lon="-1.504699">
        <ele>162.6</ele>
        <time>2023-04-30T08:38:32Z</time>
      </trkpt>
      <trkpt lat="38.234693" lon="-1.504706">
        <ele>163.3</ele>
        <time>2023-04-30T08:38:37Z</time>
      </trkpt>
      <trkpt lat="38.234621" lon="-1.504718">
        <ele>162.3</ele>
        <time>2023-04-30T08:38:42Z</time>
      </trkpt>
      <trkpt lat="38.234546" lon="-1.504729">
        <ele>162.3</ele>
        <time>2023-04-30T08:38:48Z</time>
      </trkpt>
      <trkpt lat="38.234478" lon="-1.504756">
        <ele>163.3</ele>
        <time>2023-04-30T08:38:53Z</time>
      </trkpt>
      <trkpt lat="38.234414" lon="-1.504772">
        <ele>163.3</ele>
        <time>2023-04-30T08:38:58Z</time>
      </trkpt>
      <trkpt lat="38.234330" lon="-1.504810">
        <ele>163.6</ele>
        <time>2023-04-30T08:39:04Z</time>
      </trkpt>
      <trkpt lat="38.234266" lon="-1.504844">
        <ele>164.3</ele>
        <time>2023-04-30T08:39:09Z</time>
      </trkpt>
      <trkpt lat="38.234190" lon="-1.504869">
        <ele>163.4</ele>
        <time>2023-04-30T08:39:15Z</time>
      </trkpt>
      <trkpt lat="38.234132" lon="-1.504902">
        <ele>163.3</ele>
        <time>2023-04-30T08:39:19Z</time>
      </trkpt>
      <trkpt lat="38.234075" lon="-1.504940">
        <ele>162.6</ele>
        <time>2023-04-30T08:39:24Z</time>
      </trkpt>
      <trkpt lat="38.234018" lon="-1.505000">
        <ele>163.3</ele>
        <time>2023-04-30T08:39:33Z</time>
      </trkpt>
      <trkpt lat="38.233959" lon="-1.505037">
        <ele>164.3</ele>
        <time>2023-04-30T08:39:38Z</time>
      </trkpt>
      <trkpt lat="38.233895" lon="-1.505075">
        <ele>164.3</ele>
        <time>2023-04-30T08:39:43Z</time>
      </trkpt>
      <trkpt lat="38.233826" lon="-1.505108">
        <ele>163.4</ele>
        <time>2023-04-30T08:39:48Z</time>
      </trkpt>
      <trkpt lat="38.233752" lon="-1.505132">
        <ele>161.4</ele>
        <time>2023-04-30T08:39:54Z</time>
      </trkpt>
      <trkpt lat="38.233674" lon="-1.505151">
        <ele>159.6</ele>
        <time>2023-04-30T08:39:59Z</time>
      </trkpt>
      <trkpt lat="38.233608" lon="-1.505178">
        <ele>158.3</ele>
        <time>2023-04-30T08:40:05Z</time>
      </trkpt>
      <trkpt lat="38.233546" lon="-1.505201">
        <ele>157.4</ele>
        <time>2023-04-30T08:40:09Z</time>
      </trkpt>
      <trkpt lat="38.233475" lon="-1.505237">
        <ele>157.3</ele>
        <time>2023-04-30T08:40:14Z</time>
      </trkpt>
      <trkpt lat="38.233413" lon="-1.505274">
        <ele>158.3</ele>
        <time>2023-04-30T08:40:20Z</time>
      </trkpt>
      <trkpt lat="38.233351" lon="-1.505313">
        <ele>158.3</ele>
        <time>2023-04-30T08:40:25Z</time>
      </trkpt>
      <trkpt lat="38.233290" lon="-1.505338">
        <ele>159.3</ele>
        <time>2023-04-30T08:40:30Z</time>
      </trkpt>
      <trkpt lat="38.233234" lon="-1.505386">
        <ele>159.3</ele>
        <time>2023-04-30T08:40:34Z</time>
      </trkpt>
      <trkpt lat="38.233181" lon="-1.505431">
        <ele>158.6</ele>
        <time>2023-04-30T08:40:40Z</time>
      </trkpt>
      <trkpt lat="38.233123" lon="-1.505462">
        <ele>159.1</ele>
        <time>2023-04-30T08:40:46Z</time>
      </trkpt>
      <trkpt lat="38.233068" lon="-1.505528">
        <ele>164.2</ele>
        <time>2023-04-30T08:40:53Z</time>
      </trkpt>
      <trkpt lat="38.233002" lon="-1.505559">
        <ele>165.3</ele>
        <time>2023-04-30T08:40:58Z</time>
      </trkpt>
      <trkpt lat="38.232929" lon="-1.505586">
        <ele>164.3</ele>
        <time>2023-04-30T08:41:04Z</time>
      </trkpt>
      <trkpt lat="38.232873" lon="-1.505633">
        <ele>164.3</ele>
        <time>2023-04-30T08:41:09Z</time>
      </trkpt>
      <trkpt lat="38.232806" lon="-1.505672">
        <ele>164.3</ele>
        <time>2023-04-30T08:41:16Z</time>
      </trkpt>
      <trkpt lat="38.232744" lon="-1.505714">
        <ele>163.3</ele>
        <time>2023-04-30T08:41:21Z</time>
      </trkpt>
      <trkpt lat="38.232684" lon="-1.505747">
        <ele>165.3</ele>
        <time>2023-04-30T08:41:26Z</time>
      </trkpt>
      <trkpt lat="38.232620" lon="-1.505792">
        <ele>164.6</ele>
        <time>2023-04-30T08:41:32Z</time>
      </trkpt>
      <trkpt lat="38.232567" lon="-1.505838">
        <ele>165.3</ele>
        <time>2023-04-30T08:41:37Z</time>
      </trkpt>
      <trkpt lat="38.232505" lon="-1.505890">
        <ele>165.3</ele>
        <time>2023-04-30T08:41:43Z</time>
      </trkpt>
      <trkpt lat="38.232427" lon="-1.505949">
        <ele>165.3</ele>
        <time>2023-04-30T08:41:49Z</time>
      </trkpt>
      <trkpt lat="38.232364" lon="-1.506003">
        <ele>166.1</ele>
        <time>2023-04-30T08:41:54Z</time>
      </trkpt>
      <trkpt lat="38.232308" lon="-1.506039">
        <ele>166.3</ele>
        <time>2023-04-30T08:41:59Z</time>
      </trkpt>
      <trkpt lat="38.232251" lon="-1.506103">
        <ele>165.6</ele>
        <time>2023-04-30T08:42:04Z</time>
      </trkpt>
      <trkpt lat="38.232183" lon="-1.506162">
        <ele>166.3</ele>
        <time>2023-04-30T08:42:09Z</time>
      </trkpt>
      <trkpt lat="38.232118" lon="-1.506199">
        <ele>165.3</ele>
        <time>2023-04-30T08:42:14Z</time>
      </trkpt>
      <trkpt lat="38.232054" lon="-1.506249">
        <ele>166.3</ele>
        <time>2023-04-30T08:42:20Z</time>
      </trkpt>
      <trkpt lat="38.232002" lon="-1.506298">
        <ele>167.1</ele>
        <time>2023-04-30T08:42:25Z</time>
      </trkpt>
      <trkpt lat="38.231942" lon="-1.506350">
        <ele>167.3</ele>
        <time>2023-04-30T08:42:32Z</time>
      </trkpt>
      <trkpt lat="38.231879" lon="-1.506410">
        <ele>167.3</ele>
        <time>2023-04-30T08:42:38Z</time>
      </trkpt>
      <trkpt lat="38.231824" lon="-1.506475">
        <ele>167.1</ele>
        <time>2023-04-30T08:42:43Z</time>
      </trkpt>
      <trkpt lat="38.231782" lon="-1.506542">
        <ele>166.4</ele>
        <time>2023-04-30T08:42:49Z</time>
      </trkpt>
      <trkpt lat="38.231735" lon="-1.506595">
        <ele>166.3</ele>
        <time>2023-04-30T08:42:53Z</time>
      </trkpt>
      <trkpt lat="38.231685" lon="-1.506654">
        <ele>167.3</ele>
        <time>2023-04-30T08:42:59Z</time>
      </trkpt>
      <trkpt lat="38.231629" lon="-1.506722">
        <ele>167.3</ele>
        <time>2023-04-30T08:43:05Z</time>
      </trkpt>
      <trkpt lat="38.231567" lon="-1.506773">
        <ele>166.3</ele>
        <time>2023-04-30T08:43:10Z</time>
      </trkpt>
      <trkpt lat="38.231514" lon="-1.506819">
        <ele>166.1</ele>
        <time>2023-04-30T08:43:16Z</time>
      </trkpt>
      <trkpt lat="38.231463" lon="-1.506867">
        <ele>167.3</ele>
        <time>2023-04-30T08:43:21Z</time>
      </trkpt>
      <trkpt lat="38.231415" lon="-1.506922">
        <ele>168.1</ele>
        <time>2023-04-30T08:43:26Z</time>
      </trkpt>
      <trkpt lat="38.231363" lon="-1.506987">
        <ele>167.6</ele>
        <time>2023-04-30T08:43:32Z</time>
      </trkpt>
      <trkpt lat="38.231315" lon="-1.507043">
        <ele>167.3</ele>
        <time>2023-04-30T08:43:37Z</time>
      </trkpt>
      <trkpt lat="38.231268" lon="-1.507098">
        <ele>168.5</ele>
        <time>2023-04-30T08:43:42Z</time>
      </trkpt>
      <trkpt lat="38.231221" lon="-1.507166">
        <ele>168.3</ele>
        <time>2023-04-30T08:43:47Z</time>
      </trkpt>
      <trkpt lat="38.231161" lon="-1.507189">
        <ele>169.3</ele>
        <time>2023-04-30T08:43:53Z</time>
      </trkpt>
      <trkpt lat="38.231091" lon="-1.507214">
        <ele>169.3</ele>
        <time>2023-04-30T08:44:00Z</time>
      </trkpt>
      <trkpt lat="38.231046" lon="-1.507272">
        <ele>168.6</ele>
        <time>2023-04-30T08:44:06Z</time>
      </trkpt>
      <trkpt lat="38.231001" lon="-1.507332">
        <ele>167.3</ele>
        <time>2023-04-30T08:44:11Z</time>
      </trkpt>
      <trkpt lat="38.230951" lon="-1.507384">
        <ele>167.3</ele>
        <time>2023-04-30T08:44:16Z</time>
      </trkpt>
      <trkpt lat="38.230888" lon="-1.507410">
        <ele>166.6</ele>
        <time>2023-04-30T08:44:20Z</time>
      </trkpt>
      <trkpt lat="38.230837" lon="-1.507464">
        <ele>167.3</ele>
        <time>2023-04-30T08:44:25Z</time>
      </trkpt>
      <trkpt lat="38.230774" lon="-1.507516">
        <ele>165.6</ele>
        <time>2023-04-30T08:44:30Z</time>
      </trkpt>
      <trkpt lat="38.230717" lon="-1.507554">
        <ele>165.4</ele>
        <time>2023-04-30T08:44:35Z</time>
      </trkpt>
      <trkpt lat="38.230664" lon="-1.507605">
        <ele>164.5</ele>
        <time>2023-04-30T08:44:40Z</time>
      </trkpt>
      <trkpt lat="38.230594" lon="-1.507648">
        <ele>165.3</ele>
        <time>2023-04-30T08:44:45Z</time>
      </trkpt>
      <trkpt lat="38.230539" lon="-1.507693">
        <ele>164.4</ele>
        <time>2023-04-30T08:44:52Z</time>
      </trkpt>
      <trkpt lat="38.230491" lon="-1.507743">
        <ele>165.1</ele>
        <time>2023-04-30T08:44:57Z</time>
      </trkpt>
      <trkpt lat="38.230450" lon="-1.507819">
        <ele>166.1</ele>
        <time>2023-04-30T08:45:03Z</time>
      </trkpt>
      <trkpt lat="38.230383" lon="-1.507863">
        <ele>169.2</ele>
        <time>2023-04-30T08:45:09Z</time>
      </trkpt>
      <trkpt lat="38.230321" lon="-1.507883">
        <ele>169.3</ele>
        <time>2023-04-30T08:45:14Z</time>
      </trkpt>
      <trkpt lat="38.230238" lon="-1.507902">
        <ele>168.3</ele>
        <time>2023-04-30T08:45:20Z</time>
      </trkpt>
      <trkpt lat="38.230168" lon="-1.507911">
        <ele>167.6</ele>
        <time>2023-04-30T08:45:25Z</time>
      </trkpt>
      <trkpt lat="38.230106" lon="-1.507924">
        <ele>168.3</ele>
        <time>2023-04-30T08:45:30Z</time>
      </trkpt>
      <trkpt lat="38.230033" lon="-1.507920">
        <ele>168.4</ele>
        <time>2023-04-30T08:45:36Z</time>
      </trkpt>
      <trkpt lat="38.229968" lon="-1.507920">
        <ele>168.3</ele>
        <time>2023-04-30T08:45:41Z</time>
      </trkpt>
      <trkpt lat="38.229898" lon="-1.507915">
        <ele>168.5</ele>
        <time>2023-04-30T08:45:47Z</time>
      </trkpt>
      <trkpt lat="38.229835" lon="-1.507898">
        <ele>169.3</ele>
        <time>2023-04-30T08:45:52Z</time>
      </trkpt>
      <trkpt lat="38.229775" lon="-1.507864">
        <ele>168.3</ele>
        <time>2023-04-30T08:45:57Z</time>
      </trkpt>
      <trkpt lat="38.229711" lon="-1.507841">
        <ele>168.3</ele>
        <time>2023-04-30T08:46:02Z</time>
      </trkpt>
      <trkpt lat="38.229652" lon="-1.507814">
        <ele>167.3</ele>
        <time>2023-04-30T08:46:06Z</time>
      </trkpt>
      <trkpt lat="38.229583" lon="-1.507788">
        <ele>167.3</ele>
        <time>2023-04-30T08:46:12Z</time>
      </trkpt>
      <trkpt lat="38.229517" lon="-1.507755">
        <ele>166.4</ele>
        <time>2023-04-30T08:46:17Z</time>
      </trkpt>
      <trkpt lat="38.229457" lon="-1.507715">
        <ele>165.6</ele>
        <time>2023-04-30T08:46:22Z</time>
      </trkpt>
      <trkpt lat="38.229392" lon="-1.507691">
        <ele>165.6</ele>
        <time>2023-04-30T08:46:27Z</time>
      </trkpt>
      <trkpt lat="38.229330" lon="-1.507642">
        <ele>166.3</ele>
        <time>2023-04-30T08:46:32Z</time>
      </trkpt>
      <trkpt lat="38.229273" lon="-1.507592">
        <ele>166.3</ele>
        <time>2023-04-30T08:46:37Z</time>
      </trkpt>
      <trkpt lat="38.229218" lon="-1.507545">
        <ele>166.1</ele>
        <time>2023-04-30T08:46:42Z</time>
      </trkpt>
      <trkpt lat="38.229170" lon="-1.507485">
        <ele>165.3</ele>
        <time>2023-04-30T08:46:47Z</time>
      </trkpt>
      <trkpt lat="38.229105" lon="-1.507435">
        <ele>165.5</ele>
        <time>2023-04-30T08:46:53Z</time>
      </trkpt>
      <trkpt lat="38.229051" lon="-1.507377">
        <ele>166.3</ele>
        <time>2023-04-30T08:46:59Z</time>
      </trkpt>
      <trkpt lat="38.229004" lon="-1.507320">
        <ele>166.3</ele>
        <time>2023-04-30T08:47:04Z</time>
      </trkpt>
      <trkpt lat="38.228942" lon="-1.507270">
        <ele>167.3</ele>
        <time>2023-04-30T08:47:09Z</time>
      </trkpt>
      <trkpt lat="38.228887" lon="-1.507228">
        <ele>167.3</ele>
        <time>2023-04-30T08:47:14Z</time>
      </trkpt>
      <trkpt lat="38.228823" lon="-1.507176">
        <ele>166.3</ele>
        <time>2023-04-30T08:47:20Z</time>
      </trkpt>
      <trkpt lat="38.228768" lon="-1.507116">
        <ele>166.4</ele>
        <time>2023-04-30T08:47:25Z</time>
      </trkpt>
      <trkpt lat="38.228713" lon="-1.507067">
        <ele>168.1</ele>
        <time>2023-04-30T08:47:30Z</time>
      </trkpt>
      <trkpt lat="38.228654" lon="-1.507002">
        <ele>168.3</ele>
        <time>2023-04-30T08:47:36Z</time>
      </trkpt>
      <trkpt lat="38.228605" lon="-1.506947">
        <ele>169.3</ele>
        <time>2023-04-30T08:47:41Z</time>
      </trkpt>
      <trkpt lat="38.228546" lon="-1.506897">
        <ele>168.4</ele>
        <time>2023-04-30T08:47:47Z</time>
      </trkpt>
      <trkpt lat="38.228499" lon="-1.506839">
        <ele>168.3</ele>
        <time>2023-04-30T08:47:52Z</time>
      </trkpt>
      <trkpt lat="38.228456" lon="-1.506775">
        <ele>167.3</ele>
        <time>2023-04-30T08:47:56Z</time>
      </trkpt>
      <trkpt lat="38.228420" lon="-1.506702">
        <ele>166.3</ele>
        <time>2023-04-30T08:48:02Z</time>
      </trkpt>
      <trkpt lat="38.228377" lon="-1.506635">
        <ele>167.1</ele>
        <time>2023-04-30T08:48:07Z</time>
      </trkpt>
      <trkpt lat="38.228356" lon="-1.506558">
        <ele>167.3</ele>
        <time>2023-04-30T08:48:13Z</time>
      </trkpt>
      <trkpt lat="38.228344" lon="-1.506469">
        <ele>167.3</ele>
        <time>2023-04-30T08:48:18Z</time>
      </trkpt>
      <trkpt lat="38.228335" lon="-1.506379">
        <ele>167.5</ele>
        <time>2023-04-30T08:48:25Z</time>
      </trkpt>
      <trkpt lat="38.228322" lon="-1.506297">
        <ele>168.3</ele>
        <time>2023-04-30T08:48:31Z</time>
      </trkpt>
      <trkpt lat="38.228299" lon="-1.506213">
        <ele>172.3</ele>
        <time>2023-04-30T08:48:39Z</time>
      </trkpt>
      <trkpt lat="38.228299" lon="-1.506127">
        <ele>168.6</ele>
        <time>2023-04-30T08:50:03Z</time>
      </trkpt>
      <trkpt lat="38.228309" lon="-1.506042">
        <ele>169.3</ele>
        <time>2023-04-30T08:50:14Z</time>
      </trkpt>
      <trkpt lat="38.228288" lon="-1.505959">
        <ele>170.1</ele>
        <time>2023-04-30T08:50:52Z</time>
      </trkpt>
      <trkpt lat="38.228329" lon="-1.505888">
        <ele>170.1</ele>
        <time>2023-04-30T08:50:57Z</time>
      </trkpt>
      <trkpt lat="38.228364" lon="-1.505809">
        <ele>173.1</ele>
        <time>2023-04-30T08:51:02Z</time>
      </trkpt>
      <trkpt lat="38.228401" lon="-1.505734">
        <ele>174.3</ele>
        <time>2023-04-30T08:51:07Z</time>
      </trkpt>
      <trkpt lat="38.228440" lon="-1.505648">
        <ele>175.3</ele>
        <time>2023-04-30T08:51:12Z</time>
      </trkpt>
      <trkpt lat="38.228488" lon="-1.505570">
        <ele>176.1</ele>
        <time>2023-04-30T08:51:17Z</time>
      </trkpt>
      <trkpt lat="38.228548" lon="-1.505504">
        <ele>175.3</ele>
        <time>2023-04-30T08:51:22Z</time>
      </trkpt>
      <trkpt lat="38.228597" lon="-1.505426">
        <ele>174.4</ele>
        <time>2023-04-30T08:51:27Z</time>
      </trkpt>
      <trkpt lat="38.228617" lon="-1.505343">
        <ele>174.3</ele>
        <time>2023-04-30T08:51:32Z</time>
      </trkpt>
      <trkpt lat="38.228651" lon="-1.505263">
        <ele>176.3</ele>
        <time>2023-04-30T08:51:37Z</time>
      </trkpt>
      <trkpt lat="38.228678" lon="-1.505174">
        <ele>177.3</ele>
        <time>2023-04-30T08:51:42Z</time>
      </trkpt>
      <trkpt lat="38.228710" lon="-1.505086">
        <ele>178.3</ele>
        <time>2023-04-30T08:51:47Z</time>
      </trkpt>
      <trkpt lat="38.228749" lon="-1.505019">
        <ele>177.3</ele>
        <time>2023-04-30T08:51:52Z</time>
      </trkpt>
      <trkpt lat="38.228789" lon="-1.504937">
        <ele>176.4</ele>
        <time>2023-04-30T08:51:58Z</time>
      </trkpt>
      <trkpt lat="38.228817" lon="-1.504864">
        <ele>178.1</ele>
        <time>2023-04-30T08:52:03Z</time>
      </trkpt>
      <trkpt lat="38.228850" lon="-1.504785">
        <ele>179.3</ele>
        <time>2023-04-30T08:52:10Z</time>
      </trkpt>
      <trkpt lat="38.228876" lon="-1.504703">
        <ele>180.3</ele>
        <time>2023-04-30T08:52:16Z</time>
      </trkpt>
      <trkpt lat="38.228908" lon="-1.504633">
        <ele>179.3</ele>
        <time>2023-04-30T08:52:21Z</time>
      </trkpt>
      <trkpt lat="38.228933" lon="-1.504533">
        <ele>179.3</ele>
        <time>2023-04-30T08:52:27Z</time>
      </trkpt>
      <trkpt lat="38.228953" lon="-1.504457">
        <ele>180.3</ele>
        <time>2023-04-30T08:52:32Z</time>
      </trkpt>
      <trkpt lat="38.228999" lon="-1.504385">
        <ele>181.3</ele>
        <time>2023-04-30T08:52:37Z</time>
      </trkpt>
      <trkpt lat="38.229025" lon="-1.504312">
        <ele>182.3</ele>
        <time>2023-04-30T08:52:42Z</time>
      </trkpt>
      <trkpt lat="38.229056" lon="-1.504228">
        <ele>182.3</ele>
        <time>2023-04-30T08:52:48Z</time>
      </trkpt>
      <trkpt lat="38.229075" lon="-1.504147">
        <ele>182.3</ele>
        <time>2023-04-30T08:52:53Z</time>
      </trkpt>
      <trkpt lat="38.229101" lon="-1.504064">
        <ele>182.3</ele>
        <time>2023-04-30T08:52:59Z</time>
      </trkpt>
      <trkpt lat="38.229125" lon="-1.503975">
        <ele>182.3</ele>
        <time>2023-04-30T08:53:05Z</time>
      </trkpt>
      <trkpt lat="38.229134" lon="-1.503895">
        <ele>181.3</ele>
        <time>2023-04-30T08:53:11Z</time>
      </trkpt>
      <trkpt lat="38.229155" lon="-1.503812">
        <ele>181.3</ele>
        <time>2023-04-30T08:53:16Z</time>
      </trkpt>
      <trkpt lat="38.229175" lon="-1.503734">
        <ele>181.3</ele>
        <time>2023-04-30T08:53:21Z</time>
      </trkpt>
      <trkpt lat="38.229191" lon="-1.503655">
        <ele>180.4</ele>
        <time>2023-04-30T08:53:26Z</time>
      </trkpt>
      <trkpt lat="38.229208" lon="-1.503573">
        <ele>181.3</ele>
        <time>2023-04-30T08:53:32Z</time>
      </trkpt>
      <trkpt lat="38.229227" lon="-1.503478">
        <ele>179.6</ele>
        <time>2023-04-30T08:53:37Z</time>
      </trkpt>
      <trkpt lat="38.229251" lon="-1.503396">
        <ele>179.3</ele>
        <time>2023-04-30T08:53:42Z</time>
      </trkpt>
      <trkpt lat="38.229284" lon="-1.503305">
        <ele>179.3</ele>
        <time>2023-04-30T08:53:47Z</time>
      </trkpt>
      <trkpt lat="38.229292" lon="-1.503224">
        <ele>177.4</ele>
        <time>2023-04-30T08:53:54Z</time>
      </trkpt>
      <trkpt lat="38.229319" lon="-1.503132">
        <ele>178.3</ele>
        <time>2023-04-30T08:54:00Z</time>
      </trkpt>
      <trkpt lat="38.229344" lon="-1.503051">
        <ele>178.3</ele>
        <time>2023-04-30T08:54:04Z</time>
      </trkpt>
      <trkpt lat="38.229360" lon="-1.502965">
        <ele>179.3</ele>
        <time>2023-04-30T08:54:09Z</time>
      </trkpt>
      <trkpt lat="38.229360" lon="-1.502876">
        <ele>177.1</ele>
        <time>2023-04-30T08:54:16Z</time>
      </trkpt>
      <trkpt lat="38.229389" lon="-1.502802">
        <ele>176.4</ele>
        <time>2023-04-30T08:54:21Z</time>
      </trkpt>
      <trkpt lat="38.229424" lon="-1.502718">
        <ele>177.3</ele>
        <time>2023-04-30T08:54:26Z</time>
      </trkpt>
      <trkpt lat="38.229440" lon="-1.502628">
        <ele>175.4</ele>
        <time>2023-04-30T08:54:31Z</time>
      </trkpt>
      <trkpt lat="38.229469" lon="-1.502550">
        <ele>175.3</ele>
        <time>2023-04-30T08:54:36Z</time>
      </trkpt>
      <trkpt lat="38.229487" lon="-1.502467">
        <ele>174.4</ele>
        <time>2023-04-30T08:54:41Z</time>
      </trkpt>
      <trkpt lat="38.229517" lon="-1.502390">
        <ele>173.4</ele>
        <time>2023-04-30T08:54:46Z</time>
      </trkpt>
      <trkpt lat="38.229537" lon="-1.502310">
        <ele>173.3</ele>
        <time>2023-04-30T08:54:51Z</time>
      </trkpt>
      <trkpt lat="38.229551" lon="-1.502227">
        <ele>173.3</ele>
        <time>2023-04-30T08:54:56Z</time>
      </trkpt>
      <trkpt lat="38.229569" lon="-1.502137">
        <ele>172.4</ele>
        <time>2023-04-30T08:55:02Z</time>
      </trkpt>
      <trkpt lat="38.229578" lon="-1.502048">
        <ele>170.6</ele>
        <time>2023-04-30T08:55:08Z</time>
      </trkpt>
      <trkpt lat="38.229595" lon="-1.501963">
        <ele>171.3</ele>
        <time>2023-04-30T08:55:13Z</time>
      </trkpt>
      <trkpt lat="38.229602" lon="-1.501878">
        <ele>173.3</ele>
        <time>2023-04-30T08:55:19Z</time>
      </trkpt>
      <trkpt lat="38.229614" lon="-1.501788">
        <ele>175.3</ele>
        <time>2023-04-30T08:55:26Z</time>
      </trkpt>
      <trkpt lat="38.229633" lon="-1.501699">
        <ele>175.4</ele>
        <time>2023-04-30T08:55:32Z</time>
      </trkpt>
      <trkpt lat="38.229662" lon="-1.501624">
        <ele>174.3</ele>
        <time>2023-04-30T08:55:38Z</time>
      </trkpt>
      <trkpt lat="38.229690" lon="-1.501550">
        <ele>175.3</ele>
        <time>2023-04-30T08:55:43Z</time>
      </trkpt>
      <trkpt lat="38.229720" lon="-1.501471">
        <ele>175.3</ele>
        <time>2023-04-30T08:55:48Z</time>
      </trkpt>
      <trkpt lat="38.229751" lon="-1.501395">
        <ele>175.3</ele>
        <time>2023-04-30T08:55:53Z</time>
      </trkpt>
      <trkpt lat="38.229782" lon="-1.501321">
        <ele>176.3</ele>
        <time>2023-04-30T08:55:58Z</time>
      </trkpt>
      <trkpt lat="38.229812" lon="-1.501243">
        <ele>175.3</ele>
        <time>2023-04-30T08:56:05Z</time>
      </trkpt>
      <trkpt lat="38.229851" lon="-1.501173">
        <ele>175.3</ele>
        <time>2023-04-30T08:56:10Z</time>
      </trkpt>
      <trkpt lat="38.229889" lon="-1.501101">
        <ele>177.3</ele>
        <time>2023-04-30T08:56:16Z</time>
      </trkpt>
      <trkpt lat="38.229919" lon="-1.501021">
        <ele>176.4</ele>
        <time>2023-04-30T08:56:21Z</time>
      </trkpt>
      <trkpt lat="38.229949" lon="-1.500940">
        <ele>177.3</ele>
        <time>2023-04-30T08:56:27Z</time>
      </trkpt>
      <trkpt lat="38.229989" lon="-1.500853">
        <ele>178.3</ele>
        <time>2023-04-30T08:56:33Z</time>
      </trkpt>
      <trkpt lat="38.230016" lon="-1.500777">
        <ele>177.1</ele>
        <time>2023-04-30T08:56:39Z</time>
      </trkpt>
      <trkpt lat="38.230057" lon="-1.500704">
        <ele>176.4</ele>
        <time>2023-04-30T08:56:46Z</time>
      </trkpt>
      <trkpt lat="38.230096" lon="-1.500638">
        <ele>177.3</ele>
        <time>2023-04-30T08:56:51Z</time>
      </trkpt>
      <trkpt lat="38.230130" lon="-1.500556">
        <ele>175.6</ele>
        <time>2023-04-30T08:56:57Z</time>
      </trkpt>
      <trkpt lat="38.230163" lon="-1.500484">
        <ele>176.3</ele>
        <time>2023-04-30T08:57:02Z</time>
      </trkpt>
      <trkpt lat="38.230194" lon="-1.500397">
        <ele>175.3</ele>
        <time>2023-04-30T08:57:08Z</time>
      </trkpt>
      <trkpt lat="38.230235" lon="-1.500329">
        <ele>174.4</ele>
        <time>2023-04-30T08:57:13Z</time>
      </trkpt>
      <trkpt lat="38.230280" lon="-1.500268">
        <ele>174.3</ele>
        <time>2023-04-30T08:57:18Z</time>
      </trkpt>
      <trkpt lat="38.230326" lon="-1.500198">
        <ele>172.4</ele>
        <time>2023-04-30T08:57:25Z</time>
      </trkpt>
      <trkpt lat="38.230363" lon="-1.500119">
        <ele>172.3</ele>
        <time>2023-04-30T08:57:31Z</time>
      </trkpt>
      <trkpt lat="38.230395" lon="-1.500033">
        <ele>172.3</ele>
        <time>2023-04-30T08:57:37Z</time>
      </trkpt>
      <trkpt lat="38.230451" lon="-1.499954">
        <ele>172.3</ele>
        <time>2023-04-30T08:57:43Z</time>
      </trkpt>
      <trkpt lat="38.230491" lon="-1.499885">
        <ele>171.4</ele>
        <time>2023-04-30T08:57:50Z</time>
      </trkpt>
      <trkpt lat="38.230519" lon="-1.499812">
        <ele>172.3</ele>
        <time>2023-04-30T08:57:55Z</time>
      </trkpt>
      <trkpt lat="38.230557" lon="-1.499744">
        <ele>173.3</ele>
        <time>2023-04-30T08:58:00Z</time>
      </trkpt>
      <trkpt lat="38.230602" lon="-1.499680">
        <ele>173.3</ele>
        <time>2023-04-30T08:58:05Z</time>
      </trkpt>
      <trkpt lat="38.230642" lon="-1.499615">
        <ele>173.3</ele>
        <time>2023-04-30T08:58:11Z</time>
      </trkpt>
      <trkpt lat="38.230684" lon="-1.499552">
        <ele>173.1</ele>
        <time>2023-04-30T08:58:16Z</time>
      </trkpt>
      <trkpt lat="38.230725" lon="-1.499483">
        <ele>172.3</ele>
        <time>2023-04-30T08:58:22Z</time>
      </trkpt>
      <trkpt lat="38.230774" lon="-1.499393">
        <ele>172.3</ele>
        <time>2023-04-30T08:58:28Z</time>
      </trkpt>
      <trkpt lat="38.230815" lon="-1.499319">
        <ele>171.4</ele>
        <time>2023-04-30T08:58:35Z</time>
      </trkpt>
      <trkpt lat="38.230855" lon="-1.499245">
        <ele>171.3</ele>
        <time>2023-04-30T08:58:42Z</time>
      </trkpt>
      <trkpt lat="38.230909" lon="-1.499163">
        <ele>172.3</ele>
        <time>2023-04-30T08:58:48Z</time>
      </trkpt>
      <trkpt lat="38.230939" lon="-1.499091">
        <ele>172.3</ele>
        <time>2023-04-30T08:58:54Z</time>
      </trkpt>
      <trkpt lat="38.230976" lon="-1.499017">
        <ele>171.6</ele>
        <time>2023-04-30T08:59:00Z</time>
      </trkpt>
      <trkpt lat="38.231013" lon="-1.498950">
        <ele>171.5</ele>
        <time>2023-04-30T08:59:06Z</time>
      </trkpt>
      <trkpt lat="38.231051" lon="-1.498879">
        <ele>171.6</ele>
        <time>2023-04-30T08:59:11Z</time>
      </trkpt>
      <trkpt lat="38.231090" lon="-1.498812">
        <ele>171.4</ele>
        <time>2023-04-30T08:59:16Z</time>
      </trkpt>
      <trkpt lat="38.231123" lon="-1.498741">
        <ele>172.3</ele>
        <time>2023-04-30T08:59:21Z</time>
      </trkpt>
      <trkpt lat="38.231161" lon="-1.498675">
        <ele>171.3</ele>
        <time>2023-04-30T08:59:28Z</time>
      </trkpt>
      <trkpt lat="38.231197" lon="-1.498601">
        <ele>171.3</ele>
        <time>2023-04-30T08:59:34Z</time>
      </trkpt>
      <trkpt lat="38.231236" lon="-1.498535">
        <ele>170.3</ele>
        <time>2023-04-30T08:59:40Z</time>
      </trkpt>
      <trkpt lat="38.231273" lon="-1.498463">
        <ele>170.3</ele>
        <time>2023-04-30T08:59:46Z</time>
      </trkpt>
      <trkpt lat="38.231312" lon="-1.498395">
        <ele>171.1</ele>
        <time>2023-04-30T08:59:50Z</time>
      </trkpt>
      <trkpt lat="38.231349" lon="-1.498315">
        <ele>172.1</ele>
        <time>2023-04-30T08:59:56Z</time>
      </trkpt>
      <trkpt lat="38.231385" lon="-1.498238">
        <ele>172.3</ele>
        <time>2023-04-30T09:00:02Z</time>
      </trkpt>
      <trkpt lat="38.231421" lon="-1.498169">
        <ele>172.4</ele>
        <time>2023-04-30T09:00:08Z</time>
      </trkpt>
      <trkpt lat="38.231458" lon="-1.498100">
        <ele>172.3</ele>
        <time>2023-04-30T09:00:13Z</time>
      </trkpt>
      <trkpt lat="38.231499" lon="-1.498027">
        <ele>173.3</ele>
        <time>2023-04-30T09:00:18Z</time>
      </trkpt>
      <trkpt lat="38.231523" lon="-1.497946">
        <ele>173.3</ele>
        <time>2023-04-30T09:00:23Z</time>
      </trkpt>
      <trkpt lat="38.231563" lon="-1.497868">
        <ele>172.4</ele>
        <time>2023-04-30T09:00:29Z</time>
      </trkpt>
      <trkpt lat="38.231587" lon="-1.497792">
        <ele>172.3</ele>
        <time>2023-04-30T09:00:35Z</time>
      </trkpt>
      <trkpt lat="38.231614" lon="-1.497708">
        <ele>172.3</ele>
        <time>2023-04-30T09:00:41Z</time>
      </trkpt>
      <trkpt lat="38.231626" lon="-1.497617">
        <ele>171.3</ele>
        <time>2023-04-30T09:00:47Z</time>
      </trkpt>
      <trkpt lat="38.231651" lon="-1.497527">
        <ele>171.3</ele>
        <time>2023-04-30T09:00:53Z</time>
      </trkpt>
      <trkpt lat="38.231654" lon="-1.497427">
        <ele>172.3</ele>
        <time>2023-04-30T09:00:59Z</time>
      </trkpt>
      <trkpt lat="38.231656" lon="-1.497334">
        <ele>173.3</ele>
        <time>2023-04-30T09:01:05Z</time>
      </trkpt>
      <trkpt lat="38.231661" lon="-1.497240">
        <ele>173.3</ele>
        <time>2023-04-30T09:01:11Z</time>
      </trkpt>
      <trkpt lat="38.231664" lon="-1.497152">
        <ele>173.3</ele>
        <time>2023-04-30T09:01:16Z</time>
      </trkpt>
      <trkpt lat="38.231694" lon="-1.497079">
        <ele>174.3</ele>
        <time>2023-04-30T09:01:21Z</time>
      </trkpt>
      <trkpt lat="38.231713" lon="-1.496993">
        <ele>172.4</ele>
        <time>2023-04-30T09:01:27Z</time>
      </trkpt>
      <trkpt lat="38.231734" lon="-1.496902">
        <ele>171.3</ele>
        <time>2023-04-30T09:01:33Z</time>
      </trkpt>
      <trkpt lat="38.231735" lon="-1.496790">
        <ele>170.4</ele>
        <time>2023-04-30T09:01:39Z</time>
      </trkpt>
      <trkpt lat="38.231738" lon="-1.496708">
        <ele>170.3</ele>
        <time>2023-04-30T09:01:45Z</time>
      </trkpt>
      <trkpt lat="38.231742" lon="-1.496628">
        <ele>170.3</ele>
        <time>2023-04-30T09:01:50Z</time>
      </trkpt>
      <trkpt lat="38.231747" lon="-1.496546">
        <ele>170.3</ele>
        <time>2023-04-30T09:01:55Z</time>
      </trkpt>
      <trkpt lat="38.231756" lon="-1.496456">
        <ele>171.3</ele>
        <time>2023-04-30T09:02:00Z</time>
      </trkpt>
      <trkpt lat="38.231770" lon="-1.496376">
        <ele>170.6</ele>
        <time>2023-04-30T09:02:05Z</time>
      </trkpt>
      <trkpt lat="38.231786" lon="-1.496291">
        <ele>169.6</ele>
        <time>2023-04-30T09:02:10Z</time>
      </trkpt>
      <trkpt lat="38.231834" lon="-1.496224">
        <ele>170.3</ele>
        <time>2023-04-30T09:02:17Z</time>
      </trkpt>
      <trkpt lat="38.231846" lon="-1.496129">
        <ele>168.4</ele>
        <time>2023-04-30T09:02:34Z</time>
      </trkpt>
      <trkpt lat="38.231831" lon="-1.496046">
        <ele>167.4</ele>
        <time>2023-04-30T09:02:42Z</time>
      </trkpt>
      <trkpt lat="38.231845" lon="-1.495961">
        <ele>171.3</ele>
        <time>2023-04-30T09:03:48Z</time>
      </trkpt>
      <trkpt lat="38.231854" lon="-1.495872">
        <ele>171.3</ele>
        <time>2023-04-30T09:03:54Z</time>
      </trkpt>
      <trkpt lat="38.231860" lon="-1.495769">
        <ele>170.4</ele>
        <time>2023-04-30T09:04:00Z</time>
      </trkpt>
      <trkpt lat="38.231868" lon="-1.495688">
        <ele>170.3</ele>
        <time>2023-04-30T09:04:05Z</time>
      </trkpt>
      <trkpt lat="38.231867" lon="-1.495602">
        <ele>170.3</ele>
        <time>2023-04-30T09:04:11Z</time>
      </trkpt>
      <trkpt lat="38.231877" lon="-1.495506">
        <ele>170.3</ele>
        <time>2023-04-30T09:04:17Z</time>
      </trkpt>
      <trkpt lat="38.231882" lon="-1.495419">
        <ele>170.4</ele>
        <time>2023-04-30T09:04:23Z</time>
      </trkpt>
      <trkpt lat="38.231890" lon="-1.495332">
        <ele>170.3</ele>
        <time>2023-04-30T09:04:28Z</time>
      </trkpt>
      <trkpt lat="38.231885" lon="-1.495237">
        <ele>170.3</ele>
        <time>2023-04-30T09:04:34Z</time>
      </trkpt>
      <trkpt lat="38.231884" lon="-1.495134">
        <ele>171.3</ele>
        <time>2023-04-30T09:04:40Z</time>
      </trkpt>
      <trkpt lat="38.231889" lon="-1.495040">
        <ele>172.3</ele>
        <time>2023-04-30T09:04:45Z</time>
      </trkpt>
      <trkpt lat="38.231912" lon="-1.494964">
        <ele>170.6</ele>
        <time>2023-04-30T09:04:52Z</time>
      </trkpt>
      <trkpt lat="38.231918" lon="-1.494881">
        <ele>169.6</ele>
        <time>2023-04-30T09:04:57Z</time>
      </trkpt>
      <trkpt lat="38.231905" lon="-1.494787">
        <ele>169.3</ele>
        <time>2023-04-30T09:05:03Z</time>
      </trkpt>
      <trkpt lat="38.231901" lon="-1.494703">
        <ele>170.1</ele>
        <time>2023-04-30T09:05:08Z</time>
      </trkpt>
      <trkpt lat="38.231891" lon="-1.494615">
        <ele>171.3</ele>
        <time>2023-04-30T09:05:13Z</time>
      </trkpt>
      <trkpt lat="38.231898" lon="-1.494524">
        <ele>171.3</ele>
        <time>2023-04-30T09:05:19Z</time>
      </trkpt>
      <trkpt lat="38.231903" lon="-1.494423">
        <ele>170.4</ele>
        <time>2023-04-30T09:05:25Z</time>
      </trkpt>
      <trkpt lat="38.231919" lon="-1.494337">
        <ele>170.2</ele>
        <time>2023-04-30T09:05:30Z</time>
      </trkpt>
      <trkpt lat="38.231927" lon="-1.494248">
        <ele>169.4</ele>
        <time>2023-04-30T09:05:35Z</time>
      </trkpt>
      <trkpt lat="38.231948" lon="-1.494168">
        <ele>168.4</ele>
        <time>2023-04-30T09:05:40Z</time>
      </trkpt>
      <trkpt lat="38.231961" lon="-1.494076">
        <ele>168.4</ele>
        <time>2023-04-30T09:05:45Z</time>
      </trkpt>
      <trkpt lat="38.231969" lon="-1.493994">
        <ele>168.4</ele>
        <time>2023-04-30T09:05:50Z</time>
      </trkpt>
      <trkpt lat="38.231981" lon="-1.493903">
        <ele>170.3</ele>
        <time>2023-04-30T09:05:56Z</time>
      </trkpt>
      <trkpt lat="38.231981" lon="-1.493819">
        <ele>170.3</ele>
        <time>2023-04-30T09:06:02Z</time>
      </trkpt>
      <trkpt lat="38.231989" lon="-1.493727">
        <ele>171.1</ele>
        <time>2023-04-30T09:06:07Z</time>
      </trkpt>
      <trkpt lat="38.232012" lon="-1.493647">
        <ele>171.3</ele>
        <time>2023-04-30T09:06:11Z</time>
      </trkpt>
      <trkpt lat="38.232024" lon="-1.493567">
        <ele>170.4</ele>
        <time>2023-04-30T09:06:15Z</time>
      </trkpt>
      <trkpt lat="38.232043" lon="-1.493485">
        <ele>171.3</ele>
        <time>2023-04-30T09:06:21Z</time>
      </trkpt>
      <trkpt lat="38.232059" lon="-1.493394">
        <ele>170.4</ele>
        <time>2023-04-30T09:06:25Z</time>
      </trkpt>
      <trkpt lat="38.232078" lon="-1.493313">
        <ele>169.4</ele>
        <time>2023-04-30T09:06:31Z</time>
      </trkpt>
      <trkpt lat="38.232112" lon="-1.493245">
        <ele>169.4</ele>
        <time>2023-04-30T09:06:41Z</time>
      </trkpt>
      <trkpt lat="38.232133" lon="-1.493147">
        <ele>167.6</ele>
        <time>2023-04-30T09:06:45Z</time>
      </trkpt>
      <trkpt lat="38.232153" lon="-1.493047">
        <ele>168.1</ele>
        <time>2023-04-30T09:06:50Z</time>
      </trkpt>
      <trkpt lat="38.232160" lon="-1.492954">
        <ele>168.3</ele>
        <time>2023-04-30T09:07:00Z</time>
      </trkpt>
      <trkpt lat="38.232201" lon="-1.492881">
        <ele>168.4</ele>
        <time>2023-04-30T09:07:12Z</time>
      </trkpt>
      <trkpt lat="38.232222" lon="-1.492802">
        <ele>168.4</ele>
        <time>2023-04-30T09:07:17Z</time>
      </trkpt>
      <trkpt lat="38.232268" lon="-1.492746">
        <ele>167.4</ele>
        <time>2023-04-30T09:07:29Z</time>
      </trkpt>
      <trkpt lat="38.232322" lon="-1.492791">
        <ele>167.1</ele>
        <time>2023-04-30T09:07:39Z</time>
      </trkpt>
      <trkpt lat="38.232384" lon="-1.492815">
        <ele>168.4</ele>
        <time>2023-04-30T09:07:45Z</time>
      </trkpt>
      <trkpt lat="38.232441" lon="-1.492850">
        <ele>168.4</ele>
        <time>2023-04-30T09:07:50Z</time>
      </trkpt>
      <trkpt lat="38.232500" lon="-1.492886">
        <ele>168.3</ele>
        <time>2023-04-30T09:07:54Z</time>
      </trkpt>
      <trkpt lat="38.232567" lon="-1.492881">
        <ele>168.4</ele>
        <time>2023-04-30T09:08:01Z</time>
      </trkpt>
      <trkpt lat="38.232630" lon="-1.492902">
        <ele>168.3</ele>
        <time>2023-04-30T09:08:05Z</time>
      </trkpt>
      <trkpt lat="38.232692" lon="-1.492931">
        <ele>167.4</ele>
        <time>2023-04-30T09:08:11Z</time>
      </trkpt>
      <trkpt lat="38.232760" lon="-1.492960">
        <ele>166.4</ele>
        <time>2023-04-30T09:08:16Z</time>
      </trkpt>
      <trkpt lat="38.232827" lon="-1.493000">
        <ele>165.4</ele>
        <time>2023-04-30T09:08:21Z</time>
      </trkpt>
      <trkpt lat="38.232901" lon="-1.493038">
        <ele>165.3</ele>
        <time>2023-04-30T09:08:26Z</time>
      </trkpt>
      <trkpt lat="38.232974" lon="-1.493076">
        <ele>165.6</ele>
        <time>2023-04-30T09:08:31Z</time>
      </trkpt>
      <trkpt lat="38.233039" lon="-1.493116">
        <ele>165.4</ele>
        <time>2023-04-30T09:08:36Z</time>
      </trkpt>
      <trkpt lat="38.233104" lon="-1.493152">
        <ele>164.4</ele>
        <time>2023-04-30T09:08:41Z</time>
      </trkpt>
      <trkpt lat="38.233168" lon="-1.493195">
        <ele>164.3</ele>
        <time>2023-04-30T09:08:46Z</time>
      </trkpt>
      <trkpt lat="38.233247" lon="-1.493239">
        <ele>164.3</ele>
        <time>2023-04-30T09:08:51Z</time>
      </trkpt>
      <trkpt lat="38.233313" lon="-1.493278">
        <ele>165.3</ele>
        <time>2023-04-30T09:08:57Z</time>
      </trkpt>
      <trkpt lat="38.233369" lon="-1.493336">
        <ele>165.4</ele>
        <time>2023-04-30T09:09:02Z</time>
      </trkpt>
      <trkpt lat="38.233434" lon="-1.493368">
        <ele>163.6</ele>
        <time>2023-04-30T09:09:07Z</time>
      </trkpt>
      <trkpt lat="38.233499" lon="-1.493397">
        <ele>163.4</ele>
        <time>2023-04-30T09:09:11Z</time>
      </trkpt>
      <trkpt lat="38.233572" lon="-1.493439">
        <ele>163.4</ele>
        <time>2023-04-30T09:09:16Z</time>
      </trkpt>
      <trkpt lat="38.233642" lon="-1.493477">
        <ele>163.4</ele>
        <time>2023-04-30T09:09:21Z</time>
      </trkpt>
      <trkpt lat="38.233711" lon="-1.493509">
        <ele>163.4</ele>
        <time>2023-04-30T09:09:26Z</time>
      </trkpt>
      <trkpt lat="38.233777" lon="-1.493549">
        <ele>163.4</ele>
        <time>2023-04-30T09:09:31Z</time>
      </trkpt>
      <trkpt lat="38.233846" lon="-1.493594">
        <ele>163.4</ele>
        <time>2023-04-30T09:09:36Z</time>
      </trkpt>
      <trkpt lat="38.233913" lon="-1.493624">
        <ele>162.4</ele>
        <time>2023-04-30T09:09:41Z</time>
      </trkpt>
      <trkpt lat="38.233976" lon="-1.493656">
        <ele>163.4</ele>
        <time>2023-04-30T09:09:46Z</time>
      </trkpt>
      <trkpt lat="38.234033" lon="-1.493692">
        <ele>163.4</ele>
        <time>2023-04-30T09:09:51Z</time>
      </trkpt>
      <trkpt lat="38.234096" lon="-1.493735">
        <ele>163.3</ele>
        <time>2023-04-30T09:09:57Z</time>
      </trkpt>
      <trkpt lat="38.234165" lon="-1.493769">
        <ele>163.4</ele>
        <time>2023-04-30T09:10:03Z</time>
      </trkpt>
      <trkpt lat="38.234233" lon="-1.493800">
        <ele>162.4</ele>
        <time>2023-04-30T09:10:09Z</time>
      </trkpt>
      <trkpt lat="38.234299" lon="-1.493832">
        <ele>163.3</ele>
        <time>2023-04-30T09:10:15Z</time>
      </trkpt>
      <trkpt lat="38.234360" lon="-1.493867">
        <ele>163.4</ele>
        <time>2023-04-30T09:10:19Z</time>
      </trkpt>
      <trkpt lat="38.234418" lon="-1.493910">
        <ele>165.1</ele>
        <time>2023-04-30T09:10:24Z</time>
      </trkpt>
      <trkpt lat="38.234481" lon="-1.493950">
        <ele>164.4</ele>
        <time>2023-04-30T09:10:30Z</time>
      </trkpt>
      <trkpt lat="38.234537" lon="-1.493993">
        <ele>165.3</ele>
        <time>2023-04-30T09:10:38Z</time>
      </trkpt>
      <trkpt lat="38.234601" lon="-1.494022">
        <ele>165.4</ele>
        <time>2023-04-30T09:10:44Z</time>
      </trkpt>
      <trkpt lat="38.234657" lon="-1.494069">
        <ele>164.4</ele>
        <time>2023-04-30T09:10:49Z</time>
      </trkpt>
      <trkpt lat="38.234718" lon="-1.494108">
        <ele>165.4</ele>
        <time>2023-04-30T09:10:54Z</time>
      </trkpt>
      <trkpt lat="38.234760" lon="-1.494167">
        <ele>166.4</ele>
        <time>2023-04-30T09:11:00Z</time>
      </trkpt>
      <trkpt lat="38.234829" lon="-1.494158">
        <ele>165.4</ele>
        <time>2023-04-30T09:11:15Z</time>
      </trkpt>
      <trkpt lat="38.234887" lon="-1.494094">
        <ele>165.4</ele>
        <time>2023-04-30T09:11:21Z</time>
      </trkpt>
      <trkpt lat="38.234963" lon="-1.494075">
        <ele>164.4</ele>
        <time>2023-04-30T09:11:26Z</time>
      </trkpt>
      <trkpt lat="38.235021" lon="-1.494113">
        <ele>164.4</ele>
        <time>2023-04-30T09:11:32Z</time>
      </trkpt>
      <trkpt lat="38.235083" lon="-1.494140">
        <ele>163.3</ele>
        <time>2023-04-30T09:11:48Z</time>
      </trkpt>
      <trkpt lat="38.235135" lon="-1.494192">
        <ele>164.4</ele>
        <time>2023-04-30T09:12:05Z</time>
      </trkpt>
      <trkpt lat="38.235202" lon="-1.494227">
        <ele>163.4</ele>
        <time>2023-04-30T09:12:13Z</time>
      </trkpt>
      <trkpt lat="38.235264" lon="-1.494243">
        <ele>162.6</ele>
        <time>2023-04-30T09:12:18Z</time>
      </trkpt>
      <trkpt lat="38.235332" lon="-1.494236">
        <ele>163.3</ele>
        <time>2023-04-30T09:12:23Z</time>
      </trkpt>
      <trkpt lat="38.235396" lon="-1.494207">
        <ele>162.4</ele>
        <time>2023-04-30T09:12:28Z</time>
      </trkpt>
      <trkpt lat="38.235452" lon="-1.494165">
        <ele>162.3</ele>
        <time>2023-04-30T09:12:33Z</time>
      </trkpt>
      <trkpt lat="38.235491" lon="-1.494102">
        <ele>162.4</ele>
        <time>2023-04-30T09:12:38Z</time>
      </trkpt>
      <trkpt lat="38.235537" lon="-1.494034">
        <ele>167.4</ele>
        <time>2023-04-30T09:13:27Z</time>
      </trkpt>
      <trkpt lat="38.235563" lon="-1.493921">
        <ele>167.4</ele>
        <time>2023-04-30T09:13:32Z</time>
      </trkpt>
      <trkpt lat="38.235601" lon="-1.493844">
        <ele>165.4</ele>
        <time>2023-04-30T09:13:37Z</time>
      </trkpt>
      <trkpt lat="38.235643" lon="-1.493759">
        <ele>163.6</ele>
        <time>2023-04-30T09:13:42Z</time>
      </trkpt>
      <trkpt lat="38.235673" lon="-1.493663">
        <ele>164.1</ele>
        <time>2023-04-30T09:13:47Z</time>
      </trkpt>
      <trkpt lat="38.235709" lon="-1.493583">
        <ele>165.3</ele>
        <time>2023-04-30T09:13:52Z</time>
      </trkpt>
      <trkpt lat="38.235749" lon="-1.493499">
        <ele>165.4</ele>
        <time>2023-04-30T09:13:57Z</time>
      </trkpt>
      <trkpt lat="38.235794" lon="-1.493428">
        <ele>165.4</ele>
        <time>2023-04-30T09:14:02Z</time>
      </trkpt>
      <trkpt lat="38.235845" lon="-1.493358">
        <ele>165.4</ele>
        <time>2023-04-30T09:14:07Z</time>
      </trkpt>
      <trkpt lat="38.235897" lon="-1.493292">
        <ele>165.6</ele>
        <time>2023-04-30T09:14:12Z</time>
      </trkpt>
      <trkpt lat="38.235952" lon="-1.493241">
        <ele>165.6</ele>
        <time>2023-04-30T09:14:17Z</time>
      </trkpt>
      <trkpt lat="38.236016" lon="-1.493182">
        <ele>165.4</ele>
        <time>2023-04-30T09:14:22Z</time>
      </trkpt>
      <trkpt lat="38.236075" lon="-1.493125">
        <ele>165.4</ele>
        <time>2023-04-30T09:14:27Z</time>
      </trkpt>
      <trkpt lat="38.236138" lon="-1.493068">
        <ele>164.6</ele>
        <time>2023-04-30T09:14:32Z</time>
      </trkpt>
      <trkpt lat="38.236183" lon="-1.492994">
        <ele>165.3</ele>
        <time>2023-04-30T09:14:38Z</time>
      </trkpt>
      <trkpt lat="38.236237" lon="-1.492943">
        <ele>165.4</ele>
        <time>2023-04-30T09:14:42Z</time>
      </trkpt>
      <trkpt lat="38.236306" lon="-1.492878">
        <ele>164.4</ele>
        <time>2023-04-30T09:14:47Z</time>
      </trkpt>
      <trkpt lat="38.236364" lon="-1.492837">
        <ele>162.4</ele>
        <time>2023-04-30T09:14:52Z</time>
      </trkpt>
      <trkpt lat="38.236417" lon="-1.492792">
        <ele>164.3</ele>
        <time>2023-04-30T09:14:57Z</time>
      </trkpt>
      <trkpt lat="38.236485" lon="-1.492742">
        <ele>165.4</ele>
        <time>2023-04-30T09:15:02Z</time>
      </trkpt>
      <trkpt lat="38.236547" lon="-1.492689">
        <ele>164.4</ele>
        <time>2023-04-30T09:15:07Z</time>
      </trkpt>
      <trkpt lat="38.236602" lon="-1.492633">
        <ele>165.4</ele>
        <time>2023-04-30T09:15:13Z</time>
      </trkpt>
      <trkpt lat="38.236667" lon="-1.492579">
        <ele>165.4</ele>
        <time>2023-04-30T09:15:18Z</time>
      </trkpt>
      <trkpt lat="38.236728" lon="-1.492531">
        <ele>165.1</ele>
        <time>2023-04-30T09:15:22Z</time>
      </trkpt>
      <trkpt lat="38.236792" lon="-1.492522">
        <ele>165.4</ele>
        <time>2023-04-30T09:15:27Z</time>
      </trkpt>
      <trkpt lat="38.236863" lon="-1.492488">
        <ele>165.4</ele>
        <time>2023-04-30T09:15:32Z</time>
      </trkpt>
      <trkpt lat="38.236926" lon="-1.492433">
        <ele>165.4</ele>
        <time>2023-04-30T09:15:37Z</time>
      </trkpt>
      <trkpt lat="38.236983" lon="-1.492389">
        <ele>165.4</ele>
        <time>2023-04-30T09:15:44Z</time>
      </trkpt>
      <trkpt lat="38.237046" lon="-1.492344">
        <ele>164.4</ele>
        <time>2023-04-30T09:15:50Z</time>
      </trkpt>
      <trkpt lat="38.237086" lon="-1.492283">
        <ele>164.3</ele>
        <time>2023-04-30T09:15:55Z</time>
      </trkpt>
      <trkpt lat="38.237113" lon="-1.492203">
        <ele>165.3</ele>
        <time>2023-04-30T09:16:01Z</time>
      </trkpt>
      <trkpt lat="38.237147" lon="-1.492134">
        <ele>165.4</ele>
        <time>2023-04-30T09:16:08Z</time>
      </trkpt>
      <trkpt lat="38.237189" lon="-1.492072">
        <ele>163.6</ele>
        <time>2023-04-30T09:16:24Z</time>
      </trkpt>
      <trkpt lat="38.237226" lon="-1.492006">
        <ele>163.4</ele>
        <time>2023-04-30T09:16:29Z</time>
      </trkpt>
      <trkpt lat="38.237258" lon="-1.491919">
        <ele>162.4</ele>
        <time>2023-04-30T09:16:38Z</time>
      </trkpt>
      <trkpt lat="38.237306" lon="-1.491844">
        <ele>160.4</ele>
        <time>2023-04-30T09:16:43Z</time>
      </trkpt>
      <trkpt lat="38.237350" lon="-1.491776">
        <ele>161.4</ele>
        <time>2023-04-30T09:16:48Z</time>
      </trkpt>
      <trkpt lat="38.237369" lon="-1.491688">
        <ele>159.6</ele>
        <time>2023-04-30T09:16:53Z</time>
      </trkpt>
      <trkpt lat="38.237351" lon="-1.491600">
        <ele>159.4</ele>
        <time>2023-04-30T09:16:58Z</time>
      </trkpt>
      <trkpt lat="38.237340" lon="-1.491516">
        <ele>158.4</ele>
        <time>2023-04-30T09:17:05Z</time>
      </trkpt>
      <trkpt lat="38.237384" lon="-1.491455">
        <ele>161.3</ele>
        <time>2023-04-30T09:17:16Z</time>
      </trkpt>
      <trkpt lat="38.237374" lon="-1.491368">
        <ele>161.4</ele>
        <time>2023-04-30T09:17:23Z</time>
      </trkpt>
      <trkpt lat="38.237348" lon="-1.491291">
        <ele>162.4</ele>
        <time>2023-04-30T09:17:30Z</time>
      </trkpt>
      <trkpt lat="38.237333" lon="-1.491199">
        <ele>163.3</ele>
        <time>2023-04-30T09:17:38Z</time>
      </trkpt>
      <trkpt lat="38.237324" lon="-1.491109">
        <ele>161.4</ele>
        <time>2023-04-30T09:17:45Z</time>
      </trkpt>
      <trkpt lat="38.237298" lon="-1.491035">
        <ele>161.4</ele>
        <time>2023-04-30T09:17:49Z</time>
      </trkpt>
      <trkpt lat="38.237293" lon="-1.490949">
        <ele>161.5</ele>
        <time>2023-04-30T09:17:53Z</time>
      </trkpt>
      <trkpt lat="38.237297" lon="-1.490861">
        <ele>161.4</ele>
        <time>2023-04-30T09:18:00Z</time>
      </trkpt>
      <trkpt lat="38.237301" lon="-1.490779">
        <ele>161.4</ele>
        <time>2023-04-30T09:18:06Z</time>
      </trkpt>
      <trkpt lat="38.237327" lon="-1.490699">
        <ele>161.4</ele>
        <time>2023-04-30T09:18:13Z</time>
      </trkpt>
      <trkpt lat="38.237356" lon="-1.490617">
        <ele>161.6</ele>
        <time>2023-04-30T09:18:21Z</time>
      </trkpt>
      <trkpt lat="38.237344" lon="-1.490515">
        <ele>163.3</ele>
        <time>2023-04-30T09:18:28Z</time>
      </trkpt>
      <trkpt lat="38.237340" lon="-1.490431">
        <ele>163.4</ele>
        <time>2023-04-30T09:18:36Z</time>
      </trkpt>
      <trkpt lat="38.237344" lon="-1.490344">
        <ele>164.1</ele>
        <time>2023-04-30T09:19:38Z</time>
      </trkpt>
      <trkpt lat="38.237357" lon="-1.490262">
        <ele>162.6</ele>
        <time>2023-04-30T09:19:45Z</time>
      </trkpt>
      <trkpt lat="38.237307" lon="-1.490205">
        <ele>161.4</ele>
        <time>2023-04-30T09:19:54Z</time>
      </trkpt>
      <trkpt lat="38.237334" lon="-1.490182">
        <ele>163.4</ele>
        <time>2023-04-30T09:21:54Z</time>
      </trkpt>
      <trkpt lat="38.237348" lon="-1.490159">
        <ele>158.9</ele>
        <time>2023-04-30T09:24:12Z</time>
      </trkpt>
      <trkpt lat="38.237361" lon="-1.490052">
        <ele>160.4</ele>
        <time>2023-04-30T09:25:36Z</time>
      </trkpt>
      <trkpt lat="38.237353" lon="-1.489961">
        <ele>161.4</ele>
        <time>2023-04-30T09:26:01Z</time>
      </trkpt>
      <trkpt lat="38.237367" lon="-1.489874">
        <ele>160.6</ele>
        <time>2023-04-30T09:26:13Z</time>
      </trkpt>
      <trkpt lat="38.237392" lon="-1.489795">
        <ele>160.4</ele>
        <time>2023-04-30T09:26:24Z</time>
      </trkpt>
      <trkpt lat="38.237395" lon="-1.489702">
        <ele>159.4</ele>
        <time>2023-04-30T09:26:36Z</time>
      </trkpt>
      <trkpt lat="38.237398" lon="-1.489612">
        <ele>160.1</ele>
        <time>2023-04-30T09:26:44Z</time>
      </trkpt>
      <trkpt lat="38.237375" lon="-1.489535">
        <ele>168.2</ele>
        <time>2023-04-30T09:28:27Z</time>
      </trkpt>
      <trkpt lat="38.237332" lon="-1.489462">
        <ele>164.6</ele>
        <time>2023-04-30T09:29:01Z</time>
      </trkpt>
      <trkpt lat="38.237323" lon="-1.489367">
        <ele>159.6</ele>
        <time>2023-04-30T09:29:14Z</time>
      </trkpt>
      <trkpt lat="38.237310" lon="-1.489285">
        <ele>163.1</ele>
        <time>2023-04-30T09:29:23Z</time>
      </trkpt>
      <trkpt lat="38.237280" lon="-1.489202">
        <ele>161.4</ele>
        <time>2023-04-30T09:29:29Z</time>
      </trkpt>
      <trkpt lat="38.237259" lon="-1.489125">
        <ele>160.6</ele>
        <time>2023-04-30T09:29:35Z</time>
      </trkpt>
      <trkpt lat="38.237217" lon="-1.489064">
        <ele>161.1</ele>
        <time>2023-04-30T09:29:40Z</time>
      </trkpt>
      <trkpt lat="38.237190" lon="-1.488990">
        <ele>160.6</ele>
        <time>2023-04-30T09:29:46Z</time>
      </trkpt>
      <trkpt lat="38.237161" lon="-1.488911">
        <ele>159.4</ele>
        <time>2023-04-30T09:29:53Z</time>
      </trkpt>
      <trkpt lat="38.237133" lon="-1.488830">
        <ele>159.4</ele>
        <time>2023-04-30T09:29:59Z</time>
      </trkpt>
      <trkpt lat="38.237098" lon="-1.488750">
        <ele>159.4</ele>
        <time>2023-04-30T09:30:06Z</time>
      </trkpt>
      <trkpt lat="38.237059" lon="-1.488660">
        <ele>160.5</ele>
        <time>2023-04-30T09:30:12Z</time>
      </trkpt>
      <trkpt lat="38.237027" lon="-1.488578">
        <ele>159.6</ele>
        <time>2023-04-30T09:30:18Z</time>
      </trkpt>
      <trkpt lat="38.237009" lon="-1.488499">
        <ele>158.4</ele>
        <time>2023-04-30T09:30:23Z</time>
      </trkpt>
      <trkpt lat="38.236981" lon="-1.488417">
        <ele>158.4</ele>
        <time>2023-04-30T09:30:30Z</time>
      </trkpt>
      <trkpt lat="38.236958" lon="-1.488335">
        <ele>156.4</ele>
        <time>2023-04-30T09:30:37Z</time>
      </trkpt>
      <trkpt lat="38.236943" lon="-1.488246">
        <ele>158.1</ele>
        <time>2023-04-30T09:30:45Z</time>
      </trkpt>
      <trkpt lat="38.236933" lon="-1.488164">
        <ele>157.4</ele>
        <time>2023-04-30T09:30:51Z</time>
      </trkpt>
      <trkpt lat="38.236927" lon="-1.488082">
        <ele>156.6</ele>
        <time>2023-04-30T09:30:57Z</time>
      </trkpt>
      <trkpt lat="38.236915" lon="-1.487988">
        <ele>156.4</ele>
        <time>2023-04-30T09:31:06Z</time>
      </trkpt>
      <trkpt lat="38.236913" lon="-1.487907">
        <ele>156.4</ele>
        <time>2023-04-30T09:31:13Z</time>
      </trkpt>
      <trkpt lat="38.236889" lon="-1.487823">
        <ele>157.4</ele>
        <time>2023-04-30T09:31:20Z</time>
      </trkpt>
      <trkpt lat="38.236868" lon="-1.487731">
        <ele>158.4</ele>
        <time>2023-04-30T09:31:27Z</time>
      </trkpt>
      <trkpt lat="38.236865" lon="-1.487646">
        <ele>158.4</ele>
        <time>2023-04-30T09:31:35Z</time>
      </trkpt>
      <trkpt lat="38.236845" lon="-1.487564">
        <ele>160.3</ele>
        <time>2023-04-30T09:31:44Z</time>
      </trkpt>
      <trkpt lat="38.236819" lon="-1.487483">
        <ele>160.1</ele>
        <time>2023-04-30T09:31:51Z</time>
      </trkpt>
      <trkpt lat="38.236821" lon="-1.487392">
        <ele>159.4</ele>
        <time>2023-04-30T09:32:00Z</time>
      </trkpt>
      <trkpt lat="38.236833" lon="-1.487306">
        <ele>157.6</ele>
        <time>2023-04-30T09:32:07Z</time>
      </trkpt>
      <trkpt lat="38.236838" lon="-1.487209">
        <ele>159.3</ele>
        <time>2023-04-30T09:32:17Z</time>
      </trkpt>
      <trkpt lat="38.236838" lon="-1.487127">
        <ele>161.1</ele>
        <time>2023-04-30T09:32:26Z</time>
      </trkpt>
      <trkpt lat="38.236858" lon="-1.487041">
        <ele>162.0</ele>
        <time>2023-04-30T09:32:52Z</time>
      </trkpt>
      <trkpt lat="38.236893" lon="-1.486967">
        <ele>161.4</ele>
        <time>2023-04-30T09:32:58Z</time>
      </trkpt>
      <trkpt lat="38.236924" lon="-1.486896">
        <ele>163.1</ele>
        <time>2023-04-30T09:33:03Z</time>
      </trkpt>
      <trkpt lat="38.236968" lon="-1.486829">
        <ele>162.4</ele>
        <time>2023-04-30T09:33:09Z</time>
      </trkpt>
      <trkpt lat="38.237003" lon="-1.486750">
        <ele>162.1</ele>
        <time>2023-04-30T09:33:15Z</time>
      </trkpt>
      <trkpt lat="38.237029" lon="-1.486676">
        <ele>163.3</ele>
        <time>2023-04-30T09:33:20Z</time>
      </trkpt>
      <trkpt lat="38.237065" lon="-1.486595">
        <ele>163.4</ele>
        <time>2023-04-30T09:33:27Z</time>
      </trkpt>
      <trkpt lat="38.237101" lon="-1.486528">
        <ele>164.1</ele>
        <time>2023-04-30T09:33:32Z</time>
      </trkpt>
      <trkpt lat="38.237137" lon="-1.486460">
        <ele>162.4</ele>
        <time>2023-04-30T09:33:43Z</time>
      </trkpt>
      <trkpt lat="38.237183" lon="-1.486401">
        <ele>161.4</ele>
        <time>2023-04-30T09:35:10Z</time>
      </trkpt>
      <trkpt lat="38.237224" lon="-1.486322">
        <ele>160.4</ele>
        <time>2023-04-30T09:35:15Z</time>
      </trkpt>
      <trkpt lat="38.237254" lon="-1.486247">
        <ele>159.4</ele>
        <time>2023-04-30T09:35:19Z</time>
      </trkpt>
      <trkpt lat="38.237284" lon="-1.486174">
        <ele>160.1</ele>
        <time>2023-04-30T09:35:23Z</time>
      </trkpt>
      <trkpt lat="38.237331" lon="-1.486108">
        <ele>159.6</ele>
        <time>2023-04-30T09:35:31Z</time>
      </trkpt>
      <trkpt lat="38.237374" lon="-1.486041">
        <ele>161.1</ele>
        <time>2023-04-30T09:35:36Z</time>
      </trkpt>
      <trkpt lat="38.237416" lon="-1.485970">
        <ele>162.1</ele>
        <time>2023-04-30T09:35:41Z</time>
      </trkpt>
      <trkpt lat="38.237445" lon="-1.485893">
        <ele>162.3</ele>
        <time>2023-04-30T09:35:45Z</time>
      </trkpt>
      <trkpt lat="38.237489" lon="-1.485833">
        <ele>162.4</ele>
        <time>2023-04-30T09:35:49Z</time>
      </trkpt>
      <trkpt lat="38.237545" lon="-1.485775">
        <ele>160.4</ele>
        <time>2023-04-30T09:35:55Z</time>
      </trkpt>
      <trkpt lat="38.237579" lon="-1.485700">
        <ele>159.4</ele>
        <time>2023-04-30T09:35:59Z</time>
      </trkpt>
      <trkpt lat="38.237613" lon="-1.485632">
        <ele>159.4</ele>
        <time>2023-04-30T09:36:04Z</time>
      </trkpt>
      <trkpt lat="38.237653" lon="-1.485568">
        <ele>158.4</ele>
        <time>2023-04-30T09:36:11Z</time>
      </trkpt>
      <trkpt lat="38.237690" lon="-1.485500">
        <ele>157.4</ele>
        <time>2023-04-30T09:36:18Z</time>
      </trkpt>
      <trkpt lat="38.237727" lon="-1.485434">
        <ele>158.4</ele>
        <time>2023-04-30T09:36:23Z</time>
      </trkpt>
      <trkpt lat="38.237774" lon="-1.485374">
        <ele>158.3</ele>
        <time>2023-04-30T09:36:29Z</time>
      </trkpt>
      <trkpt lat="38.237817" lon="-1.485311">
        <ele>158.4</ele>
        <time>2023-04-30T09:36:35Z</time>
      </trkpt>
      <trkpt lat="38.237883" lon="-1.485280">
        <ele>160.1</ele>
        <time>2023-04-30T09:36:43Z</time>
      </trkpt>
      <trkpt lat="38.237895" lon="-1.485212">
        <ele>166.4</ele>
        <time>2023-04-30T09:38:43Z</time>
      </trkpt>
      <trkpt lat="38.237920" lon="-1.485136">
        <ele>163.7</ele>
        <time>2023-04-30T09:38:53Z</time>
      </trkpt>
      <trkpt lat="38.237956" lon="-1.485054">
        <ele>163.4</ele>
        <time>2023-04-30T09:39:00Z</time>
      </trkpt>
      <trkpt lat="38.238003" lon="-1.484986">
        <ele>162.4</ele>
        <time>2023-04-30T09:39:06Z</time>
      </trkpt>
      <trkpt lat="38.238042" lon="-1.484918">
        <ele>161.6</ele>
        <time>2023-04-30T09:39:12Z</time>
      </trkpt>
      <trkpt lat="38.238093" lon="-1.484863">
        <ele>161.4</ele>
        <time>2023-04-30T09:39:18Z</time>
      </trkpt>
      <trkpt lat="38.238146" lon="-1.484804">
        <ele>161.4</ele>
        <time>2023-04-30T09:39:23Z</time>
      </trkpt>
      <trkpt lat="38.238193" lon="-1.484749">
        <ele>162.4</ele>
        <time>2023-04-30T09:39:28Z</time>
      </trkpt>
      <trkpt lat="38.238234" lon="-1.484686">
        <ele>162.4</ele>
        <time>2023-04-30T09:39:33Z</time>
      </trkpt>
      <trkpt lat="38.238279" lon="-1.484624">
        <ele>162.5</ele>
        <time>2023-04-30T09:39:38Z</time>
      </trkpt>
      <trkpt lat="38.238323" lon="-1.484567">
        <ele>161.4</ele>
        <time>2023-04-30T09:39:43Z</time>
      </trkpt>
      <trkpt lat="38.238353" lon="-1.484494">
        <ele>160.6</ele>
        <time>2023-04-30T09:39:48Z</time>
      </trkpt>
      <trkpt lat="38.238413" lon="-1.484433">
        <ele>160.4</ele>
        <time>2023-04-30T09:39:54Z</time>
      </trkpt>
      <trkpt lat="38.238462" lon="-1.484359">
        <ele>158.4</ele>
        <time>2023-04-30T09:40:04Z</time>
      </trkpt>
      <trkpt lat="38.238507" lon="-1.484296">
        <ele>157.4</ele>
        <time>2023-04-30T09:40:12Z</time>
      </trkpt>
      <trkpt lat="38.238552" lon="-1.484228">
        <ele>157.3</ele>
        <time>2023-04-30T09:40:19Z</time>
      </trkpt>
      <trkpt lat="38.238586" lon="-1.484156">
        <ele>158.4</ele>
        <time>2023-04-30T09:40:26Z</time>
      </trkpt>
      <trkpt lat="38.238622" lon="-1.484080">
        <ele>160.4</ele>
        <time>2023-04-30T09:40:33Z</time>
      </trkpt>
      <trkpt lat="38.238655" lon="-1.484011">
        <ele>161.1</ele>
        <time>2023-04-30T09:40:38Z</time>
      </trkpt>
      <trkpt lat="38.238683" lon="-1.483927">
        <ele>162.4</ele>
        <time>2023-04-30T09:40:45Z</time>
      </trkpt>
      <trkpt lat="38.238725" lon="-1.483855">
        <ele>160.4</ele>
        <time>2023-04-30T09:40:53Z</time>
      </trkpt>
      <trkpt lat="38.238761" lon="-1.483780">
        <ele>160.4</ele>
        <time>2023-04-30T09:40:59Z</time>
      </trkpt>
      <trkpt lat="38.238795" lon="-1.483703">
        <ele>160.4</ele>
        <time>2023-04-30T09:41:04Z</time>
      </trkpt>
      <trkpt lat="38.238820" lon="-1.483621">
        <ele>159.4</ele>
        <time>2023-04-30T09:41:10Z</time>
      </trkpt>
      <trkpt lat="38.238838" lon="-1.483541">
        <ele>160.3</ele>
        <time>2023-04-30T09:41:17Z</time>
      </trkpt>
      <trkpt lat="38.238857" lon="-1.483464">
        <ele>159.4</ele>
        <time>2023-04-30T09:41:22Z</time>
      </trkpt>
      <trkpt lat="38.238876" lon="-1.483382">
        <ele>159.6</ele>
        <time>2023-04-30T09:41:27Z</time>
      </trkpt>
      <trkpt lat="38.238879" lon="-1.483293">
        <ele>160.4</ele>
        <time>2023-04-30T09:41:33Z</time>
      </trkpt>
      <trkpt lat="38.238888" lon="-1.483214">
        <ele>160.4</ele>
        <time>2023-04-30T09:41:38Z</time>
      </trkpt>
      <trkpt lat="38.238918" lon="-1.483129">
        <ele>161.3</ele>
        <time>2023-04-30T09:41:44Z</time>
      </trkpt>
      <trkpt lat="38.238961" lon="-1.483032">
        <ele>161.4</ele>
        <time>2023-04-30T09:41:50Z</time>
      </trkpt>
      <trkpt lat="38.239009" lon="-1.482972">
        <ele>161.4</ele>
        <time>2023-04-30T09:41:57Z</time>
      </trkpt>
      <trkpt lat="38.239052" lon="-1.482911">
        <ele>160.4</ele>
        <time>2023-04-30T09:42:03Z</time>
      </trkpt>
      <trkpt lat="38.239093" lon="-1.482835">
        <ele>160.4</ele>
        <time>2023-04-30T09:42:09Z</time>
      </trkpt>
      <trkpt lat="38.239133" lon="-1.482758">
        <ele>161.5</ele>
        <time>2023-04-30T09:42:15Z</time>
      </trkpt>
      <trkpt lat="38.239169" lon="-1.482687">
        <ele>162.3</ele>
        <time>2023-04-30T09:42:20Z</time>
      </trkpt>
      <trkpt lat="38.239191" lon="-1.482612">
        <ele>160.4</ele>
        <time>2023-04-30T09:42:26Z</time>
      </trkpt>
      <trkpt lat="38.239221" lon="-1.482531">
        <ele>161.4</ele>
        <time>2023-04-30T09:42:32Z</time>
      </trkpt>
      <trkpt lat="38.239242" lon="-1.482445">
        <ele>161.4</ele>
        <time>2023-04-30T09:42:37Z</time>
      </trkpt>
      <trkpt lat="38.239262" lon="-1.482360">
        <ele>162.4</ele>
        <time>2023-04-30T09:42:43Z</time>
      </trkpt>
      <trkpt lat="38.239285" lon="-1.482285">
        <ele>162.4</ele>
        <time>2023-04-30T09:42:48Z</time>
      </trkpt>
      <trkpt lat="38.239310" lon="-1.482202">
        <ele>161.4</ele>
        <time>2023-04-30T09:42:54Z</time>
      </trkpt>
      <trkpt lat="38.239335" lon="-1.482106">
        <ele>161.1</ele>
        <time>2023-04-30T09:43:00Z</time>
      </trkpt>
      <trkpt lat="38.239340" lon="-1.482023">
        <ele>160.4</ele>
        <time>2023-04-30T09:43:05Z</time>
      </trkpt>
      <trkpt lat="38.239348" lon="-1.481936">
        <ele>159.4</ele>
        <time>2023-04-30T09:43:11Z</time>
      </trkpt>
      <trkpt lat="38.239353" lon="-1.481854">
        <ele>159.6</ele>
        <time>2023-04-30T09:43:16Z</time>
      </trkpt>
      <trkpt lat="38.239367" lon="-1.481763">
        <ele>160.4</ele>
        <time>2023-04-30T09:43:22Z</time>
      </trkpt>
      <trkpt lat="38.239375" lon="-1.481681">
        <ele>160.1</ele>
        <time>2023-04-30T09:43:25Z</time>
      </trkpt>
      <trkpt lat="38.239392" lon="-1.481599">
        <ele>159.4</ele>
        <time>2023-04-30T09:43:30Z</time>
      </trkpt>
      <trkpt lat="38.239400" lon="-1.481516">
        <ele>159.3</ele>
        <time>2023-04-30T09:43:36Z</time>
      </trkpt>
      <trkpt lat="38.239416" lon="-1.481433">
        <ele>160.4</ele>
        <time>2023-04-30T09:43:42Z</time>
      </trkpt>
      <trkpt lat="38.239428" lon="-1.481344">
        <ele>160.4</ele>
        <time>2023-04-30T09:43:48Z</time>
      </trkpt>
      <trkpt lat="38.239434" lon="-1.481254">
        <ele>159.6</ele>
        <time>2023-04-30T09:43:54Z</time>
      </trkpt>
      <trkpt lat="38.239440" lon="-1.481143">
        <ele>159.4</ele>
        <time>2023-04-30T09:44:00Z</time>
      </trkpt>
      <trkpt lat="38.239452" lon="-1.481060">
        <ele>159.4</ele>
        <time>2023-04-30T09:44:05Z</time>
      </trkpt>
      <trkpt lat="38.239465" lon="-1.480980">
        <ele>159.4</ele>
        <time>2023-04-30T09:44:11Z</time>
      </trkpt>
      <trkpt lat="38.239485" lon="-1.480903">
        <ele>159.4</ele>
        <time>2023-04-30T09:44:15Z</time>
      </trkpt>
      <trkpt lat="38.239501" lon="-1.480821">
        <ele>158.4</ele>
        <time>2023-04-30T09:44:21Z</time>
      </trkpt>
      <trkpt lat="38.239526" lon="-1.480737">
        <ele>159.4</ele>
        <time>2023-04-30T09:44:27Z</time>
      </trkpt>
      <trkpt lat="38.239554" lon="-1.480651">
        <ele>160.4</ele>
        <time>2023-04-30T09:44:33Z</time>
      </trkpt>
      <trkpt lat="38.239575" lon="-1.480562">
        <ele>159.4</ele>
        <time>2023-04-30T09:44:38Z</time>
      </trkpt>
      <trkpt lat="38.239585" lon="-1.480471">
        <ele>160.4</ele>
        <time>2023-04-30T09:44:44Z</time>
      </trkpt>
      <trkpt lat="38.239601" lon="-1.480381">
        <ele>159.6</ele>
        <time>2023-04-30T09:44:50Z</time>
      </trkpt>
      <trkpt lat="38.239611" lon="-1.480280">
        <ele>158.4</ele>
        <time>2023-04-30T09:44:56Z</time>
      </trkpt>
      <trkpt lat="38.239617" lon="-1.480195">
        <ele>158.4</ele>
        <time>2023-04-30T09:45:01Z</time>
      </trkpt>
      <trkpt lat="38.239617" lon="-1.480104">
        <ele>158.1</ele>
        <time>2023-04-30T09:45:07Z</time>
      </trkpt>
      <trkpt lat="38.239617" lon="-1.480021">
        <ele>158.4</ele>
        <time>2023-04-30T09:45:12Z</time>
      </trkpt>
      <trkpt lat="38.239611" lon="-1.479933">
        <ele>158.1</ele>
        <time>2023-04-30T09:45:18Z</time>
      </trkpt>
      <trkpt lat="38.239612" lon="-1.479846">
        <ele>159.2</ele>
        <time>2023-04-30T09:45:23Z</time>
      </trkpt>
      <trkpt lat="38.239610" lon="-1.479755">
        <ele>159.4</ele>
        <time>2023-04-30T09:45:29Z</time>
      </trkpt>
      <trkpt lat="38.239606" lon="-1.479661">
        <ele>159.3</ele>
        <time>2023-04-30T09:45:35Z</time>
      </trkpt>
      <trkpt lat="38.239605" lon="-1.479570">
        <ele>161.1</ele>
        <time>2023-04-30T09:45:40Z</time>
      </trkpt>
      <trkpt lat="38.239607" lon="-1.479470">
        <ele>162.4</ele>
        <time>2023-04-30T09:45:46Z</time>
      </trkpt>
      <trkpt lat="38.239619" lon="-1.479383">
        <ele>162.6</ele>
        <time>2023-04-30T09:45:52Z</time>
      </trkpt>
      <trkpt lat="38.239623" lon="-1.479290">
        <ele>162.4</ele>
        <time>2023-04-30T09:45:58Z</time>
      </trkpt>
      <trkpt lat="38.239636" lon="-1.479208">
        <ele>162.4</ele>
        <time>2023-04-30T09:46:03Z</time>
      </trkpt>
      <trkpt lat="38.239663" lon="-1.479126">
        <ele>162.1</ele>
        <time>2023-04-30T09:46:08Z</time>
      </trkpt>
      <trkpt lat="38.239689" lon="-1.479038">
        <ele>160.6</ele>
        <time>2023-04-30T09:46:14Z</time>
      </trkpt>
      <trkpt lat="38.239706" lon="-1.478961">
        <ele>160.4</ele>
        <time>2023-04-30T09:46:19Z</time>
      </trkpt>
      <trkpt lat="38.239726" lon="-1.478885">
        <ele>159.4</ele>
        <time>2023-04-30T09:46:25Z</time>
      </trkpt>
      <trkpt lat="38.239753" lon="-1.478791">
        <ele>160.4</ele>
        <time>2023-04-30T09:46:31Z</time>
      </trkpt>
      <trkpt lat="38.239763" lon="-1.478711">
        <ele>159.4</ele>
        <time>2023-04-30T09:46:37Z</time>
      </trkpt>
      <trkpt lat="38.239770" lon="-1.478632">
        <ele>159.4</ele>
        <time>2023-04-30T09:46:41Z</time>
      </trkpt>
      <trkpt lat="38.239781" lon="-1.478551">
        <ele>158.4</ele>
        <time>2023-04-30T09:46:46Z</time>
      </trkpt>
      <trkpt lat="38.239789" lon="-1.478456">
        <ele>158.6</ele>
        <time>2023-04-30T09:46:51Z</time>
      </trkpt>
      <trkpt lat="38.239790" lon="-1.478367">
        <ele>157.4</ele>
        <time>2023-04-30T09:46:58Z</time>
      </trkpt>
      <trkpt lat="38.239786" lon="-1.478278">
        <ele>157.6</ele>
        <time>2023-04-30T09:47:04Z</time>
      </trkpt>
      <trkpt lat="38.239782" lon="-1.478188">
        <ele>158.4</ele>
        <time>2023-04-30T09:47:10Z</time>
      </trkpt>
      <trkpt lat="38.239760" lon="-1.478107">
        <ele>157.4</ele>
        <time>2023-04-30T09:47:18Z</time>
      </trkpt>
      <trkpt lat="38.239745" lon="-1.478024">
        <ele>156.6</ele>
        <time>2023-04-30T09:47:23Z</time>
      </trkpt>
      <trkpt lat="38.239726" lon="-1.477941">
        <ele>156.4</ele>
        <time>2023-04-30T09:47:28Z</time>
      </trkpt>
      <trkpt lat="38.239701" lon="-1.477867">
        <ele>156.1</ele>
        <time>2023-04-30T09:47:32Z</time>
      </trkpt>
      <trkpt lat="38.239675" lon="-1.477788">
        <ele>158.1</ele>
        <time>2023-04-30T09:47:36Z</time>
      </trkpt>
      <trkpt lat="38.239647" lon="-1.477696">
        <ele>160.1</ele>
        <time>2023-04-30T09:47:43Z</time>
      </trkpt>
      <trkpt lat="38.239632" lon="-1.477618">
        <ele>161.3</ele>
        <time>2023-04-30T09:47:47Z</time>
      </trkpt>
      <trkpt lat="38.239618" lon="-1.477528">
        <ele>160.4</ele>
        <time>2023-04-30T09:47:53Z</time>
      </trkpt>
      <trkpt lat="38.239597" lon="-1.477444">
        <ele>161.4</ele>
        <time>2023-04-30T09:47:58Z</time>
      </trkpt>
      <trkpt lat="38.239588" lon="-1.477359">
        <ele>162.4</ele>
        <time>2023-04-30T09:48:03Z</time>
      </trkpt>
      <trkpt lat="38.239579" lon="-1.477278">
        <ele>162.4</ele>
        <time>2023-04-30T09:48:09Z</time>
      </trkpt>
      <trkpt lat="38.239573" lon="-1.477188">
        <ele>162.4</ele>
        <time>2023-04-30T09:48:15Z</time>
      </trkpt>
      <trkpt lat="38.239580" lon="-1.477107">
        <ele>161.6</ele>
        <time>2023-04-30T09:48:20Z</time>
      </trkpt>
      <trkpt lat="38.239585" lon="-1.477023">
        <ele>161.4</ele>
        <time>2023-04-30T09:48:25Z</time>
      </trkpt>
      <trkpt lat="38.239613" lon="-1.476932">
        <ele>159.6</ele>
        <time>2023-04-30T09:48:32Z</time>
      </trkpt>
      <trkpt lat="38.239610" lon="-1.476845">
        <ele>167.3</ele>
        <time>2023-04-30T09:48:38Z</time>
      </trkpt>
      <trkpt lat="38.239572" lon="-1.476777">
        <ele>167.9</ele>
        <time>2023-04-30T09:48:43Z</time>
      </trkpt>
      <trkpt lat="38.239560" lon="-1.476695">
        <ele>167.9</ele>
        <time>2023-04-30T09:48:48Z</time>
      </trkpt>
      <trkpt lat="38.239567" lon="-1.476607">
        <ele>167.9</ele>
        <time>2023-04-30T09:48:54Z</time>
      </trkpt>
      <trkpt lat="38.239585" lon="-1.476526">
        <ele>167.9</ele>
        <time>2023-04-30T09:48:59Z</time>
      </trkpt>
      <trkpt lat="38.239612" lon="-1.476446">
        <ele>167.9</ele>
        <time>2023-04-30T09:49:04Z</time>
      </trkpt>
      <trkpt lat="38.239633" lon="-1.476357">
        <ele>167.9</ele>
        <time>2023-04-30T09:49:10Z</time>
      </trkpt>
      <trkpt lat="38.239646" lon="-1.476277">
        <ele>167.9</ele>
        <time>2023-04-30T09:49:15Z</time>
      </trkpt>
      <trkpt lat="38.239668" lon="-1.476192">
        <ele>167.9</ele>
        <time>2023-04-30T09:49:20Z</time>
      </trkpt>
      <trkpt lat="38.239690" lon="-1.476107">
        <ele>167.9</ele>
        <time>2023-04-30T09:49:25Z</time>
      </trkpt>
      <trkpt lat="38.239706" lon="-1.476019">
        <ele>167.9</ele>
        <time>2023-04-30T09:49:30Z</time>
      </trkpt>
      <trkpt lat="38.239729" lon="-1.475943">
        <ele>167.9</ele>
        <time>2023-04-30T09:49:35Z</time>
      </trkpt>
      <trkpt lat="38.239754" lon="-1.475862">
        <ele>166.4</ele>
        <time>2023-04-30T09:49:40Z</time>
      </trkpt>
      <trkpt lat="38.239772" lon="-1.475773">
        <ele>166.4</ele>
        <time>2023-04-30T09:49:46Z</time>
      </trkpt>
      <trkpt lat="38.239793" lon="-1.475689">
        <ele>166.6</ele>
        <time>2023-04-30T09:49:52Z</time>
      </trkpt>
      <trkpt lat="38.239812" lon="-1.475608">
        <ele>167.4</ele>
        <time>2023-04-30T09:49:57Z</time>
      </trkpt>
      <trkpt lat="38.239843" lon="-1.475529">
        <ele>168.4</ele>
        <time>2023-04-30T09:50:02Z</time>
      </trkpt>
      <trkpt lat="38.239874" lon="-1.475456">
        <ele>167.4</ele>
        <time>2023-04-30T09:50:08Z</time>
      </trkpt>
      <trkpt lat="38.239891" lon="-1.475378">
        <ele>167.4</ele>
        <time>2023-04-30T09:50:13Z</time>
      </trkpt>
      <trkpt lat="38.239907" lon="-1.475295">
        <ele>166.6</ele>
        <time>2023-04-30T09:50:18Z</time>
      </trkpt>
      <trkpt lat="38.239922" lon="-1.475215">
        <ele>166.4</ele>
        <time>2023-04-30T09:50:23Z</time>
      </trkpt>
      <trkpt lat="38.239936" lon="-1.475129">
        <ele>165.4</ele>
        <time>2023-04-30T09:50:29Z</time>
      </trkpt>
      <trkpt lat="38.239947" lon="-1.475044">
        <ele>165.6</ele>
        <time>2023-04-30T09:50:35Z</time>
      </trkpt>
      <trkpt lat="38.239965" lon="-1.474957">
        <ele>164.4</ele>
        <time>2023-04-30T09:50:41Z</time>
      </trkpt>
      <trkpt lat="38.239966" lon="-1.474855">
        <ele>165.1</ele>
        <time>2023-04-30T09:50:47Z</time>
      </trkpt>
      <trkpt lat="38.239975" lon="-1.474774">
        <ele>164.4</ele>
        <time>2023-04-30T09:50:52Z</time>
      </trkpt>
      <trkpt lat="38.239973" lon="-1.474692">
        <ele>164.4</ele>
        <time>2023-04-30T09:50:59Z</time>
      </trkpt>
      <trkpt lat="38.239971" lon="-1.474610">
        <ele>164.4</ele>
        <time>2023-04-30T09:51:04Z</time>
      </trkpt>
      <trkpt lat="38.239969" lon="-1.474524">
        <ele>165.1</ele>
        <time>2023-04-30T09:51:10Z</time>
      </trkpt>
      <trkpt lat="38.239943" lon="-1.474447">
        <ele>160.4</ele>
        <time>2023-04-30T09:51:56Z</time>
      </trkpt>
      <trkpt lat="38.239873" lon="-1.474425">
        <ele>165.4</ele>
        <time>2023-04-30T09:53:16Z</time>
      </trkpt>
      <trkpt lat="38.239805" lon="-1.474393">
        <ele>165.4</ele>
        <time>2023-04-30T09:53:22Z</time>
      </trkpt>
      <trkpt lat="38.239745" lon="-1.474363">
        <ele>166.4</ele>
        <time>2023-04-30T09:53:28Z</time>
      </trkpt>
      <trkpt lat="38.239680" lon="-1.474350">
        <ele>165.4</ele>
        <time>2023-04-30T09:53:35Z</time>
      </trkpt>
      <trkpt lat="38.239612" lon="-1.474366">
        <ele>167.4</ele>
        <time>2023-04-30T09:54:47Z</time>
      </trkpt>
      <trkpt lat="38.239539" lon="-1.474323">
        <ele>168.4</ele>
        <time>2023-04-30T09:54:53Z</time>
      </trkpt>
      <trkpt lat="38.239468" lon="-1.474309">
        <ele>168.4</ele>
        <time>2023-04-30T09:54:58Z</time>
      </trkpt>
      <trkpt lat="38.239405" lon="-1.474287">
        <ele>167.4</ele>
        <time>2023-04-30T09:55:05Z</time>
      </trkpt>
      <trkpt lat="38.239345" lon="-1.474259">
        <ele>167.4</ele>
        <time>2023-04-30T09:55:11Z</time>
      </trkpt>
      <trkpt lat="38.239274" lon="-1.474231">
        <ele>166.4</ele>
        <time>2023-04-30T09:55:17Z</time>
      </trkpt>
      <trkpt lat="38.239206" lon="-1.474206">
        <ele>167.4</ele>
        <time>2023-04-30T09:55:23Z</time>
      </trkpt>
      <trkpt lat="38.239145" lon="-1.474175">
        <ele>167.4</ele>
        <time>2023-04-30T09:55:28Z</time>
      </trkpt>
      <trkpt lat="38.239074" lon="-1.474140">
        <ele>168.4</ele>
        <time>2023-04-30T09:55:33Z</time>
      </trkpt>
      <trkpt lat="38.239000" lon="-1.474105">
        <ele>167.4</ele>
        <time>2023-04-30T09:55:38Z</time>
      </trkpt>
      <trkpt lat="38.238943" lon="-1.474071">
        <ele>167.4</ele>
        <time>2023-04-30T09:55:43Z</time>
      </trkpt>
      <trkpt lat="38.238878" lon="-1.474045">
        <ele>168.4</ele>
        <time>2023-04-30T09:55:48Z</time>
      </trkpt>
      <trkpt lat="38.238812" lon="-1.473994">
        <ele>167.4</ele>
        <time>2023-04-30T09:55:53Z</time>
      </trkpt>
      <trkpt lat="38.238750" lon="-1.473965">
        <ele>168.4</ele>
        <time>2023-04-30T09:55:58Z</time>
      </trkpt>
      <trkpt lat="38.238694" lon="-1.473918">
        <ele>168.4</ele>
        <time>2023-04-30T09:56:03Z</time>
      </trkpt>
      <trkpt lat="38.238628" lon="-1.473903">
        <ele>167.6</ele>
        <time>2023-04-30T09:56:09Z</time>
      </trkpt>
      <trkpt lat="38.238562" lon="-1.473870">
        <ele>167.4</ele>
        <time>2023-04-30T09:56:15Z</time>
      </trkpt>
      <trkpt lat="38.238498" lon="-1.473845">
        <ele>166.4</ele>
        <time>2023-04-30T09:56:21Z</time>
      </trkpt>
      <trkpt lat="38.238436" lon="-1.473816">
        <ele>165.4</ele>
        <time>2023-04-30T09:56:27Z</time>
      </trkpt>
      <trkpt lat="38.238376" lon="-1.473771">
        <ele>164.4</ele>
        <time>2023-04-30T09:56:32Z</time>
      </trkpt>
      <trkpt lat="38.238310" lon="-1.473722">
        <ele>164.4</ele>
        <time>2023-04-30T09:56:37Z</time>
      </trkpt>
      <trkpt lat="38.238247" lon="-1.473670">
        <ele>165.3</ele>
        <time>2023-04-30T09:56:42Z</time>
      </trkpt>
      <trkpt lat="38.238185" lon="-1.473642">
        <ele>166.3</ele>
        <time>2023-04-30T09:56:48Z</time>
      </trkpt>
      <trkpt lat="38.238101" lon="-1.473605">
        <ele>167.6</ele>
        <time>2023-04-30T09:56:53Z</time>
      </trkpt>
      <trkpt lat="38.238038" lon="-1.473577">
        <ele>165.4</ele>
        <time>2023-04-30T09:57:00Z</time>
      </trkpt>
      <trkpt lat="38.237977" lon="-1.473552">
        <ele>166.1</ele>
        <time>2023-04-30T09:57:05Z</time>
      </trkpt>
      <trkpt lat="38.237914" lon="-1.473532">
        <ele>167.3</ele>
        <time>2023-04-30T09:57:10Z</time>
      </trkpt>
      <trkpt lat="38.237845" lon="-1.473530">
        <ele>168.1</ele>
        <time>2023-04-30T09:57:15Z</time>
      </trkpt>
      <trkpt lat="38.237783" lon="-1.473504">
        <ele>168.3</ele>
        <time>2023-04-30T09:57:20Z</time>
      </trkpt>
      <trkpt lat="38.237709" lon="-1.473500">
        <ele>168.4</ele>
        <time>2023-04-30T09:57:26Z</time>
      </trkpt>
      <trkpt lat="38.237638" lon="-1.473505">
        <ele>169.3</ele>
        <time>2023-04-30T09:57:32Z</time>
      </trkpt>
      <trkpt lat="38.237568" lon="-1.473505">
        <ele>170.4</ele>
        <time>2023-04-30T09:57:38Z</time>
      </trkpt>
      <trkpt lat="38.237503" lon="-1.473520">
        <ele>172.1</ele>
        <time>2023-04-30T09:57:44Z</time>
      </trkpt>
      <trkpt lat="38.237431" lon="-1.473532">
        <ele>173.1</ele>
        <time>2023-04-30T09:57:49Z</time>
      </trkpt>
      <trkpt lat="38.237357" lon="-1.473531">
        <ele>175.4</ele>
        <time>2023-04-30T09:58:07Z</time>
      </trkpt>
      <trkpt lat="38.237323" lon="-1.473457">
        <ele>174.4</ele>
        <time>2023-04-30T09:58:35Z</time>
      </trkpt>
      <trkpt lat="38.237323" lon="-1.473375">
        <ele>173.4</ele>
        <time>2023-04-30T09:58:40Z</time>
      </trkpt>
      <trkpt lat="38.237354" lon="-1.473287">
        <ele>171.6</ele>
        <time>2023-04-30T09:58:46Z</time>
      </trkpt>
      <trkpt lat="38.237391" lon="-1.473219">
        <ele>172.4</ele>
        <time>2023-04-30T09:58:52Z</time>
      </trkpt>
      <trkpt lat="38.237434" lon="-1.473159">
        <ele>171.4</ele>
        <time>2023-04-30T09:58:56Z</time>
      </trkpt>
      <trkpt lat="38.237491" lon="-1.473102">
        <ele>172.4</ele>
        <time>2023-04-30T09:59:02Z</time>
      </trkpt>
      <trkpt lat="38.237548" lon="-1.473057">
        <ele>173.1</ele>
        <time>2023-04-30T09:59:07Z</time>
      </trkpt>
      <trkpt lat="38.237592" lon="-1.472995">
        <ele>172.4</ele>
        <time>2023-04-30T09:59:12Z</time>
      </trkpt>
      <trkpt lat="38.237636" lon="-1.472922">
        <ele>172.4</ele>
        <time>2023-04-30T09:59:18Z</time>
      </trkpt>
      <trkpt lat="38.237684" lon="-1.472850">
        <ele>172.4</ele>
        <time>2023-04-30T09:59:23Z</time>
      </trkpt>
      <trkpt lat="38.237734" lon="-1.472786">
        <ele>172.4</ele>
        <time>2023-04-30T09:59:28Z</time>
      </trkpt>
      <trkpt lat="38.237775" lon="-1.472712">
        <ele>172.4</ele>
        <time>2023-04-30T09:59:33Z</time>
      </trkpt>
      <trkpt lat="38.237815" lon="-1.472641">
        <ele>172.4</ele>
        <time>2023-04-30T09:59:38Z</time>
      </trkpt>
      <trkpt lat="38.237846" lon="-1.472569">
        <ele>172.3</ele>
        <time>2023-04-30T09:59:42Z</time>
      </trkpt>
      <trkpt lat="38.237877" lon="-1.472493">
        <ele>173.4</ele>
        <time>2023-04-30T09:59:47Z</time>
      </trkpt>
      <trkpt lat="38.237899" lon="-1.472402">
        <ele>174.1</ele>
        <time>2023-04-30T09:59:53Z</time>
      </trkpt>
      <trkpt lat="38.237924" lon="-1.472312">
        <ele>174.4</ele>
        <time>2023-04-30T09:59:59Z</time>
      </trkpt>
      <trkpt lat="38.237944" lon="-1.472233">
        <ele>174.4</ele>
        <time>2023-04-30T10:00:04Z</time>
      </trkpt>
      <trkpt lat="38.237957" lon="-1.472142">
        <ele>176.3</ele>
        <time>2023-04-30T10:00:14Z</time>
      </trkpt>
      <trkpt lat="38.238012" lon="-1.472055">
        <ele>174.4</ele>
        <time>2023-04-30T10:00:19Z</time>
      </trkpt>
      <trkpt lat="38.238056" lon="-1.471986">
        <ele>175.4</ele>
        <time>2023-04-30T10:00:25Z</time>
      </trkpt>
      <trkpt lat="38.238070" lon="-1.471901">
        <ele>175.4</ele>
        <time>2023-04-30T10:00:29Z</time>
      </trkpt>
      <trkpt lat="38.238071" lon="-1.471819">
        <ele>174.4</ele>
        <time>2023-04-30T10:00:36Z</time>
      </trkpt>
      <trkpt lat="38.238073" lon="-1.471728">
        <ele>175.1</ele>
        <time>2023-04-30T10:00:41Z</time>
      </trkpt>
      <trkpt lat="38.238077" lon="-1.471645">
        <ele>175.4</ele>
        <time>2023-04-30T10:00:44Z</time>
      </trkpt>
      <trkpt lat="38.238079" lon="-1.471562">
        <ele>175.4</ele>
        <time>2023-04-30T10:01:02Z</time>
      </trkpt>
      <trkpt lat="38.238069" lon="-1.471480">
        <ele>174.4</ele>
        <time>2023-04-30T10:01:08Z</time>
      </trkpt>
      <trkpt lat="38.238051" lon="-1.471397">
        <ele>177.1</ele>
        <time>2023-04-30T10:01:22Z</time>
      </trkpt>
      <trkpt lat="38.238037" lon="-1.471311">
        <ele>178.4</ele>
        <time>2023-04-30T10:01:28Z</time>
      </trkpt>
      <trkpt lat="38.238035" lon="-1.471228">
        <ele>178.6</ele>
        <time>2023-04-30T10:01:33Z</time>
      </trkpt>
      <trkpt lat="38.238016" lon="-1.471141">
        <ele>178.1</ele>
        <time>2023-04-30T10:01:54Z</time>
      </trkpt>
      <trkpt lat="38.238032" lon="-1.471044">
        <ele>176.4</ele>
        <time>2023-04-30T10:02:05Z</time>
      </trkpt>
      <trkpt lat="38.238014" lon="-1.470950">
        <ele>174.4</ele>
        <time>2023-04-30T10:02:10Z</time>
      </trkpt>
      <trkpt lat="38.238000" lon="-1.470871">
        <ele>174.4</ele>
        <time>2023-04-30T10:02:15Z</time>
      </trkpt>
      <trkpt lat="38.237971" lon="-1.470798">
        <ele>173.6</ele>
        <time>2023-04-30T10:02:22Z</time>
      </trkpt>
      <trkpt lat="38.237979" lon="-1.470710">
        <ele>176.4</ele>
        <time>2023-04-30T10:02:33Z</time>
      </trkpt>
      <trkpt lat="38.237947" lon="-1.470591">
        <ele>174.6</ele>
        <time>2023-04-30T10:02:44Z</time>
      </trkpt>
      <trkpt lat="38.237930" lon="-1.470506">
        <ele>175.4</ele>
        <time>2023-04-30T10:02:49Z</time>
      </trkpt>
      <trkpt lat="38.237898" lon="-1.470424">
        <ele>176.3</ele>
        <time>2023-04-30T10:02:54Z</time>
      </trkpt>
      <trkpt lat="38.237859" lon="-1.470353">
        <ele>177.4</ele>
        <time>2023-04-30T10:02:59Z</time>
      </trkpt>
      <trkpt lat="38.237810" lon="-1.470272">
        <ele>177.4</ele>
        <time>2023-04-30T10:03:05Z</time>
      </trkpt>
      <trkpt lat="38.237768" lon="-1.470198">
        <ele>177.4</ele>
        <time>2023-04-30T10:03:18Z</time>
      </trkpt>
      <trkpt lat="38.237713" lon="-1.470140">
        <ele>176.4</ele>
        <time>2023-04-30T10:03:22Z</time>
      </trkpt>
      <trkpt lat="38.237681" lon="-1.470059">
        <ele>175.4</ele>
        <time>2023-04-30T10:03:30Z</time>
      </trkpt>
      <trkpt lat="38.237637" lon="-1.469954">
        <ele>175.4</ele>
        <time>2023-04-30T10:03:35Z</time>
      </trkpt>
      <trkpt lat="38.237623" lon="-1.469842">
        <ele>176.1</ele>
        <time>2023-04-30T10:03:40Z</time>
      </trkpt>
      <trkpt lat="38.237607" lon="-1.469743">
        <ele>175.4</ele>
        <time>2023-04-30T10:03:45Z</time>
      </trkpt>
      <trkpt lat="38.237592" lon="-1.469661">
        <ele>176.1</ele>
        <time>2023-04-30T10:03:51Z</time>
      </trkpt>
      <trkpt lat="38.237563" lon="-1.469587">
        <ele>176.4</ele>
        <time>2023-04-30T10:03:55Z</time>
      </trkpt>
      <trkpt lat="38.237533" lon="-1.469503">
        <ele>175.6</ele>
        <time>2023-04-30T10:04:00Z</time>
      </trkpt>
      <trkpt lat="38.237501" lon="-1.469434">
        <ele>174.4</ele>
        <time>2023-04-30T10:04:05Z</time>
      </trkpt>
      <trkpt lat="38.237474" lon="-1.469355">
        <ele>175.3</ele>
        <time>2023-04-30T10:04:10Z</time>
      </trkpt>
      <trkpt lat="38.237435" lon="-1.469291">
        <ele>174.4</ele>
        <time>2023-04-30T10:04:16Z</time>
      </trkpt>
      <trkpt lat="38.237407" lon="-1.469218">
        <ele>173.4</ele>
        <time>2023-04-30T10:04:21Z</time>
      </trkpt>
      <trkpt lat="38.237378" lon="-1.469131">
        <ele>174.3</ele>
        <time>2023-04-30T10:04:27Z</time>
      </trkpt>
      <trkpt lat="38.237347" lon="-1.469047">
        <ele>173.4</ele>
        <time>2023-04-30T10:04:34Z</time>
      </trkpt>
      <trkpt lat="38.237315" lon="-1.468960">
        <ele>173.4</ele>
        <time>2023-04-30T10:04:40Z</time>
      </trkpt>
      <trkpt lat="38.237295" lon="-1.468872">
        <ele>173.4</ele>
        <time>2023-04-30T10:04:45Z</time>
      </trkpt>
      <trkpt lat="38.237281" lon="-1.468781">
        <ele>175.4</ele>
        <time>2023-04-30T10:04:52Z</time>
      </trkpt>
      <trkpt lat="38.237278" lon="-1.468688">
        <ele>176.4</ele>
        <time>2023-04-30T10:04:59Z</time>
      </trkpt>
      <trkpt lat="38.237278" lon="-1.468603">
        <ele>176.4</ele>
        <time>2023-04-30T10:05:05Z</time>
      </trkpt>
      <trkpt lat="38.237291" lon="-1.468516">
        <ele>174.6</ele>
        <time>2023-04-30T10:05:12Z</time>
      </trkpt>
      <trkpt lat="38.237306" lon="-1.468430">
        <ele>174.4</ele>
        <time>2023-04-30T10:05:18Z</time>
      </trkpt>
      <trkpt lat="38.237324" lon="-1.468331">
        <ele>173.4</ele>
        <time>2023-04-30T10:05:25Z</time>
      </trkpt>
      <trkpt lat="38.237338" lon="-1.468250">
        <ele>173.4</ele>
        <time>2023-04-30T10:05:30Z</time>
      </trkpt>
      <trkpt lat="38.237354" lon="-1.468161">
        <ele>174.4</ele>
        <time>2023-04-30T10:05:37Z</time>
      </trkpt>
      <trkpt lat="38.237367" lon="-1.468076">
        <ele>174.3</ele>
        <time>2023-04-30T10:05:43Z</time>
      </trkpt>
      <trkpt lat="38.237376" lon="-1.467992">
        <ele>173.4</ele>
        <time>2023-04-30T10:05:49Z</time>
      </trkpt>
      <trkpt lat="38.237385" lon="-1.467907">
        <ele>173.6</ele>
        <time>2023-04-30T10:05:54Z</time>
      </trkpt>
      <trkpt lat="38.237397" lon="-1.467804">
        <ele>173.6</ele>
        <time>2023-04-30T10:06:00Z</time>
      </trkpt>
      <trkpt lat="38.237408" lon="-1.467724">
        <ele>173.4</ele>
        <time>2023-04-30T10:06:06Z</time>
      </trkpt>
      <trkpt lat="38.237421" lon="-1.467644">
        <ele>174.4</ele>
        <time>2023-04-30T10:06:13Z</time>
      </trkpt>
      <trkpt lat="38.237440" lon="-1.467557">
        <ele>174.4</ele>
        <time>2023-04-30T10:06:19Z</time>
      </trkpt>
      <trkpt lat="38.237465" lon="-1.467460">
        <ele>174.4</ele>
        <time>2023-04-30T10:06:25Z</time>
      </trkpt>
      <trkpt lat="38.237485" lon="-1.467367">
        <ele>173.6</ele>
        <time>2023-04-30T10:06:32Z</time>
      </trkpt>
      <trkpt lat="38.237495" lon="-1.467279">
        <ele>174.4</ele>
        <time>2023-04-30T10:06:37Z</time>
      </trkpt>
      <trkpt lat="38.237491" lon="-1.467191">
        <ele>174.4</ele>
        <time>2023-04-30T10:06:43Z</time>
      </trkpt>
      <trkpt lat="38.237468" lon="-1.467117">
        <ele>175.4</ele>
        <time>2023-04-30T10:06:48Z</time>
      </trkpt>
      <trkpt lat="38.237439" lon="-1.467046">
        <ele>175.4</ele>
        <time>2023-04-30T10:06:54Z</time>
      </trkpt>
      <trkpt lat="38.237403" lon="-1.466975">
        <ele>176.4</ele>
        <time>2023-04-30T10:06:59Z</time>
      </trkpt>
      <trkpt lat="38.237362" lon="-1.466909">
        <ele>176.4</ele>
        <time>2023-04-30T10:07:04Z</time>
      </trkpt>
      <trkpt lat="38.237322" lon="-1.466847">
        <ele>176.4</ele>
        <time>2023-04-30T10:07:09Z</time>
      </trkpt>
      <trkpt lat="38.237281" lon="-1.466783">
        <ele>177.4</ele>
        <time>2023-04-30T10:07:14Z</time>
      </trkpt>
      <trkpt lat="38.237249" lon="-1.466705">
        <ele>177.4</ele>
        <time>2023-04-30T10:07:20Z</time>
      </trkpt>
      <trkpt lat="38.237221" lon="-1.466631">
        <ele>176.4</ele>
        <time>2023-04-30T10:07:28Z</time>
      </trkpt>
      <trkpt lat="38.237197" lon="-1.466552">
        <ele>176.4</ele>
        <time>2023-04-30T10:07:34Z</time>
      </trkpt>
      <trkpt lat="38.237169" lon="-1.466462">
        <ele>177.1</ele>
        <time>2023-04-30T10:07:40Z</time>
      </trkpt>
      <trkpt lat="38.237145" lon="-1.466380">
        <ele>178.3</ele>
        <time>2023-04-30T10:07:47Z</time>
      </trkpt>
      <trkpt lat="38.237125" lon="-1.466289">
        <ele>177.4</ele>
        <time>2023-04-30T10:07:53Z</time>
      </trkpt>
      <trkpt lat="38.237099" lon="-1.466200">
        <ele>178.2</ele>
        <time>2023-04-30T10:07:59Z</time>
      </trkpt>
      <trkpt lat="38.237077" lon="-1.466117">
        <ele>178.4</ele>
        <time>2023-04-30T10:08:05Z</time>
      </trkpt>
      <trkpt lat="38.237047" lon="-1.466040">
        <ele>179.4</ele>
        <time>2023-04-30T10:08:13Z</time>
      </trkpt>
      <trkpt lat="38.237017" lon="-1.465968">
        <ele>179.3</ele>
        <time>2023-04-30T10:08:18Z</time>
      </trkpt>
      <trkpt lat="38.237000" lon="-1.465877">
        <ele>180.1</ele>
        <time>2023-04-30T10:08:25Z</time>
      </trkpt>
      <trkpt lat="38.236986" lon="-1.465784">
        <ele>178.6</ele>
        <time>2023-04-30T10:08:31Z</time>
      </trkpt>
      <trkpt lat="38.236964" lon="-1.465706">
        <ele>179.2</ele>
        <time>2023-04-30T10:08:36Z</time>
      </trkpt>
      <trkpt lat="38.236934" lon="-1.465629">
        <ele>179.4</ele>
        <time>2023-04-30T10:08:41Z</time>
      </trkpt>
      <trkpt lat="38.236912" lon="-1.465543">
        <ele>179.4</ele>
        <time>2023-04-30T10:08:46Z</time>
      </trkpt>
      <trkpt lat="38.236896" lon="-1.465458">
        <ele>179.4</ele>
        <time>2023-04-30T10:08:53Z</time>
      </trkpt>
      <trkpt lat="38.236879" lon="-1.465367">
        <ele>181.1</ele>
        <time>2023-04-30T10:08:58Z</time>
      </trkpt>
      <trkpt lat="38.236853" lon="-1.465289">
        <ele>182.4</ele>
        <time>2023-04-30T10:09:03Z</time>
      </trkpt>
      <trkpt lat="38.236829" lon="-1.465209">
        <ele>183.4</ele>
        <time>2023-04-30T10:09:08Z</time>
      </trkpt>
      <trkpt lat="38.236809" lon="-1.465130">
        <ele>184.4</ele>
        <time>2023-04-30T10:09:14Z</time>
      </trkpt>
      <trkpt lat="38.236804" lon="-1.465044">
        <ele>185.1</ele>
        <time>2023-04-30T10:09:20Z</time>
      </trkpt>
      <trkpt lat="38.236777" lon="-1.464957">
        <ele>187.1</ele>
        <time>2023-04-30T10:09:30Z</time>
      </trkpt>
      <trkpt lat="38.236753" lon="-1.464874">
        <ele>186.6</ele>
        <time>2023-04-30T10:09:35Z</time>
      </trkpt>
      <trkpt lat="38.236730" lon="-1.464780">
        <ele>186.6</ele>
        <time>2023-04-30T10:09:41Z</time>
      </trkpt>
      <trkpt lat="38.236697" lon="-1.464697">
        <ele>185.4</ele>
        <time>2023-04-30T10:09:50Z</time>
      </trkpt>
      <trkpt lat="38.236682" lon="-1.464611">
        <ele>185.4</ele>
        <time>2023-04-30T10:09:55Z</time>
      </trkpt>
      <trkpt lat="38.236656" lon="-1.464534">
        <ele>187.3</ele>
        <time>2023-04-30T10:10:01Z</time>
      </trkpt>
      <trkpt lat="38.236630" lon="-1.464455">
        <ele>186.4</ele>
        <time>2023-04-30T10:10:06Z</time>
      </trkpt>
      <trkpt lat="38.236611" lon="-1.464372">
        <ele>186.3</ele>
        <time>2023-04-30T10:10:13Z</time>
      </trkpt>
      <trkpt lat="38.236584" lon="-1.464287">
        <ele>186.4</ele>
        <time>2023-04-30T10:10:20Z</time>
      </trkpt>
      <trkpt lat="38.236567" lon="-1.464208">
        <ele>186.4</ele>
        <time>2023-04-30T10:10:25Z</time>
      </trkpt>
      <trkpt lat="38.236548" lon="-1.464116">
        <ele>187.1</ele>
        <time>2023-04-30T10:10:31Z</time>
      </trkpt>
      <trkpt lat="38.236521" lon="-1.464040">
        <ele>187.4</ele>
        <time>2023-04-30T10:10:38Z</time>
      </trkpt>
      <trkpt lat="38.236501" lon="-1.463953">
        <ele>187.4</ele>
        <time>2023-04-30T10:10:44Z</time>
      </trkpt>
      <trkpt lat="38.236479" lon="-1.463874">
        <ele>186.6</ele>
        <time>2023-04-30T10:10:50Z</time>
      </trkpt>
      <trkpt lat="38.236473" lon="-1.463791">
        <ele>188.3</ele>
        <time>2023-04-30T10:10:56Z</time>
      </trkpt>
      <trkpt lat="38.236455" lon="-1.463712">
        <ele>193.4</ele>
        <time>2023-04-30T10:11:08Z</time>
      </trkpt>
      <trkpt lat="38.236437" lon="-1.463621">
        <ele>195.4</ele>
        <time>2023-04-30T10:11:15Z</time>
      </trkpt>
      <trkpt lat="38.236412" lon="-1.463521">
        <ele>195.2</ele>
        <time>2023-04-30T10:11:21Z</time>
      </trkpt>
      <trkpt lat="38.236383" lon="-1.463438">
        <ele>194.6</ele>
        <time>2023-04-30T10:11:28Z</time>
      </trkpt>
      <trkpt lat="38.236364" lon="-1.463352">
        <ele>195.4</ele>
        <time>2023-04-30T10:11:34Z</time>
      </trkpt>
      <trkpt lat="38.236348" lon="-1.463260">
        <ele>196.1</ele>
        <time>2023-04-30T10:11:41Z</time>
      </trkpt>
      <trkpt lat="38.236325" lon="-1.463171">
        <ele>197.4</ele>
        <time>2023-04-30T10:11:48Z</time>
      </trkpt>
      <trkpt lat="38.236306" lon="-1.463082">
        <ele>199.4</ele>
        <time>2023-04-30T10:11:55Z</time>
      </trkpt>
      <trkpt lat="38.236284" lon="-1.463000">
        <ele>200.4</ele>
        <time>2023-04-30T10:12:00Z</time>
      </trkpt>
      <trkpt lat="38.236265" lon="-1.462914">
        <ele>201.1</ele>
        <time>2023-04-30T10:12:05Z</time>
      </trkpt>
      <trkpt lat="38.236239" lon="-1.462836">
        <ele>200.4</ele>
        <time>2023-04-30T10:12:11Z</time>
      </trkpt>
      <trkpt lat="38.236221" lon="-1.462758">
        <ele>199.6</ele>
        <time>2023-04-30T10:12:17Z</time>
      </trkpt>
      <trkpt lat="38.236198" lon="-1.462676">
        <ele>199.6</ele>
        <time>2023-04-30T10:12:24Z</time>
      </trkpt>
      <trkpt lat="38.236168" lon="-1.462586">
        <ele>199.4</ele>
        <time>2023-04-30T10:12:31Z</time>
      </trkpt>
      <trkpt lat="38.236147" lon="-1.462506">
        <ele>200.3</ele>
        <time>2023-04-30T10:12:36Z</time>
      </trkpt>
      <trkpt lat="38.236143" lon="-1.462421">
        <ele>201.4</ele>
        <time>2023-04-30T10:12:43Z</time>
      </trkpt>
      <trkpt lat="38.236139" lon="-1.462336">
        <ele>201.4</ele>
        <time>2023-04-30T10:12:49Z</time>
      </trkpt>
      <trkpt lat="38.236122" lon="-1.462254">
        <ele>202.4</ele>
        <time>2023-04-30T10:12:55Z</time>
      </trkpt>
      <trkpt lat="38.236120" lon="-1.462171">
        <ele>202.4</ele>
        <time>2023-04-30T10:13:01Z</time>
      </trkpt>
      <trkpt lat="38.236127" lon="-1.462073">
        <ele>204.4</ele>
        <time>2023-04-30T10:13:07Z</time>
      </trkpt>
      <trkpt lat="38.236156" lon="-1.461998">
        <ele>205.4</ele>
        <time>2023-04-30T10:13:16Z</time>
      </trkpt>
      <trkpt lat="38.236219" lon="-1.461951">
        <ele>207.4</ele>
        <time>2023-04-30T10:13:50Z</time>
      </trkpt>
      <trkpt lat="38.236291" lon="-1.461948">
        <ele>206.6</ele>
        <time>2023-04-30T10:13:58Z</time>
      </trkpt>
      <trkpt lat="38.236359" lon="-1.461941">
        <ele>204.4</ele>
        <time>2023-04-30T10:14:04Z</time>
      </trkpt>
      <trkpt lat="38.236425" lon="-1.461948">
        <ele>201.4</ele>
        <time>2023-04-30T10:14:18Z</time>
      </trkpt>
      <trkpt lat="38.236489" lon="-1.461970">
        <ele>197.7</ele>
        <time>2023-04-30T10:14:25Z</time>
      </trkpt>
      <trkpt lat="38.236556" lon="-1.462003">
        <ele>196.4</ele>
        <time>2023-04-30T10:14:30Z</time>
      </trkpt>
      <trkpt lat="38.236619" lon="-1.462041">
        <ele>194.6</ele>
        <time>2023-04-30T10:14:35Z</time>
      </trkpt>
      <trkpt lat="38.236682" lon="-1.462052">
        <ele>193.4</ele>
        <time>2023-04-30T10:14:39Z</time>
      </trkpt>
      <trkpt lat="38.236738" lon="-1.462089">
        <ele>196.4</ele>
        <time>2023-04-30T10:14:53Z</time>
      </trkpt>
      <trkpt lat="38.236794" lon="-1.462139">
        <ele>193.6</ele>
        <time>2023-04-30T10:15:01Z</time>
      </trkpt>
      <trkpt lat="38.236848" lon="-1.462183">
        <ele>192.4</ele>
        <time>2023-04-30T10:15:06Z</time>
      </trkpt>
      <trkpt lat="38.236923" lon="-1.462223">
        <ele>192.4</ele>
        <time>2023-04-30T10:15:12Z</time>
      </trkpt>
      <trkpt lat="38.236994" lon="-1.462235">
        <ele>192.4</ele>
        <time>2023-04-30T10:15:17Z</time>
      </trkpt>
      <trkpt lat="38.237066" lon="-1.462247">
        <ele>192.1</ele>
        <time>2023-04-30T10:15:23Z</time>
      </trkpt>
      <trkpt lat="38.237139" lon="-1.462224">
        <ele>191.4</ele>
        <time>2023-04-30T10:15:29Z</time>
      </trkpt>
      <trkpt lat="38.237209" lon="-1.462232">
        <ele>191.4</ele>
        <time>2023-04-30T10:15:35Z</time>
      </trkpt>
      <trkpt lat="38.237277" lon="-1.462228">
        <ele>190.6</ele>
        <time>2023-04-30T10:15:41Z</time>
      </trkpt>
      <trkpt lat="38.237340" lon="-1.462219">
        <ele>189.6</ele>
        <time>2023-04-30T10:15:47Z</time>
      </trkpt>
      <trkpt lat="38.237412" lon="-1.462219">
        <ele>190.4</ele>
        <time>2023-04-30T10:15:54Z</time>
      </trkpt>
      <trkpt lat="38.237485" lon="-1.462222">
        <ele>189.6</ele>
        <time>2023-04-30T10:16:01Z</time>
      </trkpt>
      <trkpt lat="38.237542" lon="-1.462262">
        <ele>189.4</ele>
        <time>2023-04-30T10:16:06Z</time>
      </trkpt>
      <trkpt lat="38.237605" lon="-1.462294">
        <ele>189.3</ele>
        <time>2023-04-30T10:16:12Z</time>
      </trkpt>
      <trkpt lat="38.237687" lon="-1.462291">
        <ele>188.6</ele>
        <time>2023-04-30T10:16:18Z</time>
      </trkpt>
      <trkpt lat="38.237756" lon="-1.462288">
        <ele>189.4</ele>
        <time>2023-04-30T10:16:25Z</time>
      </trkpt>
      <trkpt lat="38.237822" lon="-1.462320">
        <ele>187.6</ele>
        <time>2023-04-30T10:16:32Z</time>
      </trkpt>
      <trkpt lat="38.237874" lon="-1.462372">
        <ele>185.4</ele>
        <time>2023-04-30T10:16:38Z</time>
      </trkpt>
      <trkpt lat="38.237923" lon="-1.462439">
        <ele>184.4</ele>
        <time>2023-04-30T10:16:44Z</time>
      </trkpt>
      <trkpt lat="38.237961" lon="-1.462509">
        <ele>184.4</ele>
        <time>2023-04-30T10:16:50Z</time>
      </trkpt>
      <trkpt lat="38.238017" lon="-1.462548">
        <ele>182.6</ele>
        <time>2023-04-30T10:16:57Z</time>
      </trkpt>
      <trkpt lat="38.238080" lon="-1.462563">
        <ele>183.4</ele>
        <time>2023-04-30T10:17:03Z</time>
      </trkpt>
      <trkpt lat="38.238135" lon="-1.462505">
        <ele>182.6</ele>
        <time>2023-04-30T10:17:16Z</time>
      </trkpt>
      <trkpt lat="38.238198" lon="-1.462458">
        <ele>182.4</ele>
        <time>2023-04-30T10:17:23Z</time>
      </trkpt>
      <trkpt lat="38.238259" lon="-1.462428">
        <ele>181.4</ele>
        <time>2023-04-30T10:17:29Z</time>
      </trkpt>
      <trkpt lat="38.238324" lon="-1.462390">
        <ele>179.6</ele>
        <time>2023-04-30T10:17:36Z</time>
      </trkpt>
      <trkpt lat="38.238391" lon="-1.462354">
        <ele>180.6</ele>
        <time>2023-04-30T10:17:42Z</time>
      </trkpt>
      <trkpt lat="38.238452" lon="-1.462332">
        <ele>181.4</ele>
        <time>2023-04-30T10:17:51Z</time>
      </trkpt>
      <trkpt lat="38.238522" lon="-1.462319">
        <ele>177.6</ele>
        <time>2023-04-30T10:18:07Z</time>
      </trkpt>
      <trkpt lat="38.238593" lon="-1.462295">
        <ele>177.4</ele>
        <time>2023-04-30T10:18:12Z</time>
      </trkpt>
      <trkpt lat="38.238667" lon="-1.462303">
        <ele>173.4</ele>
        <time>2023-04-30T10:18:22Z</time>
      </trkpt>
      <trkpt lat="38.238736" lon="-1.462335">
        <ele>172.4</ele>
        <time>2023-04-30T10:18:28Z</time>
      </trkpt>
      <trkpt lat="38.238792" lon="-1.462377">
        <ele>169.6</ele>
        <time>2023-04-30T10:18:34Z</time>
      </trkpt>
      <trkpt lat="38.238851" lon="-1.462409">
        <ele>168.4</ele>
        <time>2023-04-30T10:18:40Z</time>
      </trkpt>
      <trkpt lat="38.238914" lon="-1.462395">
        <ele>166.4</ele>
        <time>2023-04-30T10:18:48Z</time>
      </trkpt>
      <trkpt lat="38.238976" lon="-1.462334">
        <ele>165.4</ele>
        <time>2023-04-30T10:18:58Z</time>
      </trkpt>
      <trkpt lat="38.239003" lon="-1.462254">
        <ele>167.4</ele>
        <time>2023-04-30T10:19:06Z</time>
      </trkpt>
      <trkpt lat="38.239030" lon="-1.462174">
        <ele>168.4</ele>
        <time>2023-04-30T10:19:12Z</time>
      </trkpt>
      <trkpt lat="38.239064" lon="-1.462107">
        <ele>169.4</ele>
        <time>2023-04-30T10:19:17Z</time>
      </trkpt>
      <trkpt lat="38.239142" lon="-1.462065">
        <ele>169.4</ele>
        <time>2023-04-30T10:19:23Z</time>
      </trkpt>
      <trkpt lat="38.239201" lon="-1.462032">
        <ele>169.4</ele>
        <time>2023-04-30T10:19:29Z</time>
      </trkpt>
      <trkpt lat="38.239262" lon="-1.461990">
        <ele>168.4</ele>
        <time>2023-04-30T10:19:34Z</time>
      </trkpt>
      <trkpt lat="38.239305" lon="-1.461918">
        <ele>167.6</ele>
        <time>2023-04-30T10:19:40Z</time>
      </trkpt>
      <trkpt lat="38.239341" lon="-1.461849">
        <ele>167.4</ele>
        <time>2023-04-30T10:19:44Z</time>
      </trkpt>
      <trkpt lat="38.239384" lon="-1.461777">
        <ele>167.4</ele>
        <time>2023-04-30T10:19:50Z</time>
      </trkpt>
      <trkpt lat="38.239414" lon="-1.461698">
        <ele>168.4</ele>
        <time>2023-04-30T10:19:55Z</time>
      </trkpt>
      <trkpt lat="38.239428" lon="-1.461615">
        <ele>169.4</ele>
        <time>2023-04-30T10:20:02Z</time>
      </trkpt>
      <trkpt lat="38.239463" lon="-1.461541">
        <ele>170.3</ele>
        <time>2023-04-30T10:20:07Z</time>
      </trkpt>
      <trkpt lat="38.239497" lon="-1.461464">
        <ele>170.4</ele>
        <time>2023-04-30T10:20:13Z</time>
      </trkpt>
      <trkpt lat="38.239531" lon="-1.461391">
        <ele>172.3</ele>
        <time>2023-04-30T10:20:19Z</time>
      </trkpt>
      <trkpt lat="38.239575" lon="-1.461324">
        <ele>173.4</ele>
        <time>2023-04-30T10:20:24Z</time>
      </trkpt>
      <trkpt lat="38.239612" lon="-1.461249">
        <ele>174.4</ele>
        <time>2023-04-30T10:20:30Z</time>
      </trkpt>
      <trkpt lat="38.239631" lon="-1.461172">
        <ele>174.7</ele>
        <time>2023-04-30T10:20:37Z</time>
      </trkpt>
      <trkpt lat="38.239686" lon="-1.461120">
        <ele>173.4</ele>
        <time>2023-04-30T10:20:43Z</time>
      </trkpt>
      <trkpt lat="38.239722" lon="-1.461045">
        <ele>172.4</ele>
        <time>2023-04-30T10:20:48Z</time>
      </trkpt>
      <trkpt lat="38.239755" lon="-1.460969">
        <ele>172.4</ele>
        <time>2023-04-30T10:20:52Z</time>
      </trkpt>
      <trkpt lat="38.239772" lon="-1.460882">
        <ele>172.4</ele>
        <time>2023-04-30T10:20:58Z</time>
      </trkpt>
      <trkpt lat="38.239803" lon="-1.460810">
        <ele>171.4</ele>
        <time>2023-04-30T10:21:16Z</time>
      </trkpt>
      <trkpt lat="38.239807" lon="-1.460721">
        <ele>168.4</ele>
        <time>2023-04-30T10:21:22Z</time>
      </trkpt>
      <trkpt lat="38.239838" lon="-1.460632">
        <ele>166.6</ele>
        <time>2023-04-30T10:21:27Z</time>
      </trkpt>
      <trkpt lat="38.239859" lon="-1.460551">
        <ele>167.4</ele>
        <time>2023-04-30T10:21:32Z</time>
      </trkpt>
      <trkpt lat="38.239873" lon="-1.460469">
        <ele>167.4</ele>
        <time>2023-04-30T10:21:37Z</time>
      </trkpt>
      <trkpt lat="38.239890" lon="-1.460387">
        <ele>167.4</ele>
        <time>2023-04-30T10:21:42Z</time>
      </trkpt>
      <trkpt lat="38.239927" lon="-1.460322">
        <ele>165.4</ele>
        <time>2023-04-30T10:21:47Z</time>
      </trkpt>
      <trkpt lat="38.239974" lon="-1.460247">
        <ele>166.6</ele>
        <time>2023-04-30T10:21:52Z</time>
      </trkpt>
      <trkpt lat="38.240020" lon="-1.460172">
        <ele>167.1</ele>
        <time>2023-04-30T10:21:57Z</time>
      </trkpt>
      <trkpt lat="38.240070" lon="-1.460114">
        <ele>167.4</ele>
        <time>2023-04-30T10:22:01Z</time>
      </trkpt>
      <trkpt lat="38.240122" lon="-1.460060">
        <ele>166.6</ele>
        <time>2023-04-30T10:22:06Z</time>
      </trkpt>
      <trkpt lat="38.240140" lon="-1.460004">
        <ele>163.6</ele>
        <time>2023-04-30T10:22:29Z</time>
      </trkpt>
      <trkpt lat="38.240165" lon="-1.459926">
        <ele>163.4</ele>
        <time>2023-04-30T10:22:34Z</time>
      </trkpt>
      <trkpt lat="38.240198" lon="-1.459846">
        <ele>162.6</ele>
        <time>2023-04-30T10:22:39Z</time>
      </trkpt>
      <trkpt lat="38.240239" lon="-1.459784">
        <ele>162.4</ele>
        <time>2023-04-30T10:22:54Z</time>
      </trkpt>
      <trkpt lat="38.240302" lon="-1.459751">
        <ele>168.3</ele>
        <time>2023-04-30T10:24:49Z</time>
      </trkpt>
      <trkpt lat="38.240338" lon="-1.459682">
        <ele>167.4</ele>
        <time>2023-04-30T10:24:56Z</time>
      </trkpt>
      <trkpt lat="38.240396" lon="-1.459634">
        <ele>167.4</ele>
        <time>2023-04-30T10:25:03Z</time>
      </trkpt>
      <trkpt lat="38.240455" lon="-1.459583">
        <ele>167.4</ele>
        <time>2023-04-30T10:25:10Z</time>
      </trkpt>
      <trkpt lat="38.240507" lon="-1.459535">
        <ele>167.4</ele>
        <time>2023-04-30T10:25:19Z</time>
      </trkpt>
      <trkpt lat="38.240557" lon="-1.459469">
        <ele>166.4</ele>
        <time>2023-04-30T10:25:25Z</time>
      </trkpt>
      <trkpt lat="38.240611" lon="-1.459411">
        <ele>168.4</ele>
        <time>2023-04-30T10:25:33Z</time>
      </trkpt>
      <trkpt lat="38.240668" lon="-1.459368">
        <ele>169.4</ele>
        <time>2023-04-30T10:25:39Z</time>
      </trkpt>
      <trkpt lat="38.240721" lon="-1.459308">
        <ele>169.4</ele>
        <time>2023-04-30T10:25:46Z</time>
      </trkpt>
      <trkpt lat="38.240749" lon="-1.459231">
        <ele>169.4</ele>
        <time>2023-04-30T10:25:55Z</time>
      </trkpt>
      <trkpt lat="38.240780" lon="-1.459158">
        <ele>168.3</ele>
        <time>2023-04-30T10:26:01Z</time>
      </trkpt>
      <trkpt lat="38.240802" lon="-1.459079">
        <ele>169.4</ele>
        <time>2023-04-30T10:26:08Z</time>
      </trkpt>
      <trkpt lat="38.240824" lon="-1.458997">
        <ele>172.3</ele>
        <time>2023-04-30T10:26:15Z</time>
      </trkpt>
      <trkpt lat="38.240888" lon="-1.458944">
        <ele>176.4</ele>
        <time>2023-04-30T10:26:47Z</time>
      </trkpt>
      <trkpt lat="38.240940" lon="-1.458874">
        <ele>175.4</ele>
        <time>2023-04-30T10:27:03Z</time>
      </trkpt>
      <trkpt lat="38.240989" lon="-1.458812">
        <ele>174.4</ele>
        <time>2023-04-30T10:27:08Z</time>
      </trkpt>
      <trkpt lat="38.241048" lon="-1.458774">
        <ele>172.4</ele>
        <time>2023-04-30T10:27:22Z</time>
      </trkpt>
      <trkpt lat="38.241091" lon="-1.458700">
        <ele>172.4</ele>
        <time>2023-04-30T10:27:30Z</time>
      </trkpt>
      <trkpt lat="38.241131" lon="-1.458618">
        <ele>173.4</ele>
        <time>2023-04-30T10:27:35Z</time>
      </trkpt>
      <trkpt lat="38.241164" lon="-1.458537">
        <ele>175.4</ele>
        <time>2023-04-30T10:27:40Z</time>
      </trkpt>
      <trkpt lat="38.241204" lon="-1.458465">
        <ele>175.4</ele>
        <time>2023-04-30T10:27:45Z</time>
      </trkpt>
      <trkpt lat="38.241243" lon="-1.458390">
        <ele>175.4</ele>
        <time>2023-04-30T10:27:51Z</time>
      </trkpt>
      <trkpt lat="38.241286" lon="-1.458307">
        <ele>176.1</ele>
        <time>2023-04-30T10:27:56Z</time>
      </trkpt>
      <trkpt lat="38.241322" lon="-1.458226">
        <ele>176.4</ele>
        <time>2023-04-30T10:28:01Z</time>
      </trkpt>
      <trkpt lat="38.241367" lon="-1.458145">
        <ele>175.4</ele>
        <time>2023-04-30T10:28:06Z</time>
      </trkpt>
      <trkpt lat="38.241397" lon="-1.458058">
        <ele>176.3</ele>
        <time>2023-04-30T10:28:11Z</time>
      </trkpt>
      <trkpt lat="38.241411" lon="-1.457968">
        <ele>176.4</ele>
        <time>2023-04-30T10:28:17Z</time>
      </trkpt>
      <trkpt lat="38.241431" lon="-1.457888">
        <ele>176.3</ele>
        <time>2023-04-30T10:28:23Z</time>
      </trkpt>
      <trkpt lat="38.241429" lon="-1.457802">
        <ele>174.6</ele>
        <time>2023-04-30T10:28:28Z</time>
      </trkpt>
      <trkpt lat="38.241411" lon="-1.457709">
        <ele>176.4</ele>
        <time>2023-04-30T10:28:34Z</time>
      </trkpt>
      <trkpt lat="38.241389" lon="-1.457622">
        <ele>177.3</ele>
        <time>2023-04-30T10:28:39Z</time>
      </trkpt>
      <trkpt lat="38.241360" lon="-1.457550">
        <ele>177.4</ele>
        <time>2023-04-30T10:28:43Z</time>
      </trkpt>
      <trkpt lat="38.241339" lon="-1.457469">
        <ele>177.4</ele>
        <time>2023-04-30T10:28:49Z</time>
      </trkpt>
      <trkpt lat="38.241323" lon="-1.457384">
        <ele>179.4</ele>
        <time>2023-04-30T10:28:55Z</time>
      </trkpt>
      <trkpt lat="38.241355" lon="-1.457315">
        <ele>177.4</ele>
        <time>2023-04-30T10:29:05Z</time>
      </trkpt>
      <trkpt lat="38.241401" lon="-1.457240">
        <ele>176.4</ele>
        <time>2023-04-30T10:29:10Z</time>
      </trkpt>
      <trkpt lat="38.241439" lon="-1.457176">
        <ele>177.4</ele>
        <time>2023-04-30T10:29:15Z</time>
      </trkpt>
      <trkpt lat="38.241500" lon="-1.457143">
        <ele>177.1</ele>
        <time>2023-04-30T10:29:21Z</time>
      </trkpt>
      <trkpt lat="38.241546" lon="-1.457083">
        <ele>177.4</ele>
        <time>2023-04-30T10:29:27Z</time>
      </trkpt>
      <trkpt lat="38.241604" lon="-1.457043">
        <ele>175.4</ele>
        <time>2023-04-30T10:29:32Z</time>
      </trkpt>
      <trkpt lat="38.241683" lon="-1.457001">
        <ele>175.6</ele>
        <time>2023-04-30T10:29:37Z</time>
      </trkpt>
      <trkpt lat="38.241754" lon="-1.456978">
        <ele>176.4</ele>
        <time>2023-04-30T10:29:44Z</time>
      </trkpt>
      <trkpt lat="38.241815" lon="-1.456937">
        <ele>177.3</ele>
        <time>2023-04-30T10:29:49Z</time>
      </trkpt>
      <trkpt lat="38.241863" lon="-1.456874">
        <ele>178.4</ele>
        <time>2023-04-30T10:29:55Z</time>
      </trkpt>
      <trkpt lat="38.241862" lon="-1.456786">
        <ele>179.4</ele>
        <time>2023-04-30T10:30:01Z</time>
      </trkpt>
      <trkpt lat="38.241846" lon="-1.456703">
        <ele>180.4</ele>
        <time>2023-04-30T10:30:06Z</time>
      </trkpt>
      <trkpt lat="38.241824" lon="-1.456616">
        <ele>179.4</ele>
        <time>2023-04-30T10:30:11Z</time>
      </trkpt>
      <trkpt lat="38.241814" lon="-1.456520">
        <ele>181.1</ele>
        <time>2023-04-30T10:30:16Z</time>
      </trkpt>
      <trkpt lat="38.241822" lon="-1.456429">
        <ele>182.3</ele>
        <time>2023-04-30T10:30:21Z</time>
      </trkpt>
      <trkpt lat="38.241852" lon="-1.456327">
        <ele>182.4</ele>
        <time>2023-04-30T10:30:27Z</time>
      </trkpt>
      <trkpt lat="38.241861" lon="-1.456248">
        <ele>182.4</ele>
        <time>2023-04-30T10:30:33Z</time>
      </trkpt>
      <trkpt lat="38.241845" lon="-1.456156">
        <ele>182.4</ele>
        <time>2023-04-30T10:30:39Z</time>
      </trkpt>
      <trkpt lat="38.241815" lon="-1.456083">
        <ele>182.1</ele>
        <time>2023-04-30T10:30:44Z</time>
      </trkpt>
      <trkpt lat="38.241785" lon="-1.456002">
        <ele>181.3</ele>
        <time>2023-04-30T10:30:50Z</time>
      </trkpt>
      <trkpt lat="38.241751" lon="-1.455922">
        <ele>179.4</ele>
        <time>2023-04-30T10:30:56Z</time>
      </trkpt>
      <trkpt lat="38.241734" lon="-1.455825">
        <ele>179.4</ele>
        <time>2023-04-30T10:31:02Z</time>
      </trkpt>
      <trkpt lat="38.241727" lon="-1.455744">
        <ele>178.4</ele>
        <time>2023-04-30T10:31:07Z</time>
      </trkpt>
      <trkpt lat="38.241725" lon="-1.455661">
        <ele>177.4</ele>
        <time>2023-04-30T10:31:13Z</time>
      </trkpt>
      <trkpt lat="38.241730" lon="-1.455578">
        <ele>176.4</ele>
        <time>2023-04-30T10:31:18Z</time>
      </trkpt>
      <trkpt lat="38.241739" lon="-1.455494">
        <ele>176.1</ele>
        <time>2023-04-30T10:31:24Z</time>
      </trkpt>
      <trkpt lat="38.241762" lon="-1.455418">
        <ele>175.4</ele>
        <time>2023-04-30T10:31:29Z</time>
      </trkpt>
      <trkpt lat="38.241808" lon="-1.455363">
        <ele>175.4</ele>
        <time>2023-04-30T10:31:34Z</time>
      </trkpt>
      <trkpt lat="38.241857" lon="-1.455293">
        <ele>175.3</ele>
        <time>2023-04-30T10:31:40Z</time>
      </trkpt>
      <trkpt lat="38.241900" lon="-1.455232">
        <ele>175.4</ele>
        <time>2023-04-30T10:31:45Z</time>
      </trkpt>
      <trkpt lat="38.241937" lon="-1.455151">
        <ele>176.4</ele>
        <time>2023-04-30T10:31:51Z</time>
      </trkpt>
      <trkpt lat="38.241959" lon="-1.455049">
        <ele>177.1</ele>
        <time>2023-04-30T10:31:57Z</time>
      </trkpt>
      <trkpt lat="38.241964" lon="-1.454968">
        <ele>180.1</ele>
        <time>2023-04-30T10:32:03Z</time>
      </trkpt>
      <trkpt lat="38.241969" lon="-1.454878">
        <ele>180.4</ele>
        <time>2023-04-30T10:32:09Z</time>
      </trkpt>
      <trkpt lat="38.241962" lon="-1.454795">
        <ele>181.3</ele>
        <time>2023-04-30T10:32:14Z</time>
      </trkpt>
      <trkpt lat="38.241960" lon="-1.454712">
        <ele>181.4</ele>
        <time>2023-04-30T10:32:21Z</time>
      </trkpt>
      <trkpt lat="38.241958" lon="-1.454622">
        <ele>182.2</ele>
        <time>2023-04-30T10:32:27Z</time>
      </trkpt>
      <trkpt lat="38.241984" lon="-1.454549">
        <ele>181.4</ele>
        <time>2023-04-30T10:32:33Z</time>
      </trkpt>
      <trkpt lat="38.242034" lon="-1.454490">
        <ele>181.6</ele>
        <time>2023-04-30T10:32:39Z</time>
      </trkpt>
      <trkpt lat="38.242106" lon="-1.454500">
        <ele>180.4</ele>
        <time>2023-04-30T10:32:43Z</time>
      </trkpt>
      <trkpt lat="38.242169" lon="-1.454528">
        <ele>180.6</ele>
        <time>2023-04-30T10:32:49Z</time>
      </trkpt>
      <trkpt lat="38.242237" lon="-1.454548">
        <ele>179.6</ele>
        <time>2023-04-30T10:32:55Z</time>
      </trkpt>
      <trkpt lat="38.242308" lon="-1.454570">
        <ele>177.4</ele>
        <time>2023-04-30T10:33:02Z</time>
      </trkpt>
      <trkpt lat="38.242384" lon="-1.454604">
        <ele>177.4</ele>
        <time>2023-04-30T10:33:08Z</time>
      </trkpt>
      <trkpt lat="38.242450" lon="-1.454631">
        <ele>177.4</ele>
        <time>2023-04-30T10:33:15Z</time>
      </trkpt>
      <trkpt lat="38.242519" lon="-1.454646">
        <ele>176.6</ele>
        <time>2023-04-30T10:33:21Z</time>
      </trkpt>
      <trkpt lat="38.242583" lon="-1.454644">
        <ele>176.4</ele>
        <time>2023-04-30T10:33:27Z</time>
      </trkpt>
      <trkpt lat="38.242652" lon="-1.454654">
        <ele>174.6</ele>
        <time>2023-04-30T10:33:33Z</time>
      </trkpt>
      <trkpt lat="38.242723" lon="-1.454672">
        <ele>173.4</ele>
        <time>2023-04-30T10:33:40Z</time>
      </trkpt>
      <trkpt lat="38.242789" lon="-1.454685">
        <ele>172.4</ele>
        <time>2023-04-30T10:33:45Z</time>
      </trkpt>
      <trkpt lat="38.242861" lon="-1.454691">
        <ele>170.6</ele>
        <time>2023-04-30T10:33:52Z</time>
      </trkpt>
      <trkpt lat="38.242927" lon="-1.454680">
        <ele>170.4</ele>
        <time>2023-04-30T10:34:00Z</time>
      </trkpt>
      <trkpt lat="38.242991" lon="-1.454666">
        <ele>170.3</ele>
        <time>2023-04-30T10:34:08Z</time>
      </trkpt>
      <trkpt lat="38.243054" lon="-1.454675">
        <ele>169.4</ele>
        <time>2023-04-30T10:34:13Z</time>
      </trkpt>
      <trkpt lat="38.243122" lon="-1.454693">
        <ele>169.4</ele>
        <time>2023-04-30T10:34:18Z</time>
      </trkpt>
      <trkpt lat="38.243191" lon="-1.454716">
        <ele>168.6</ele>
        <time>2023-04-30T10:34:26Z</time>
      </trkpt>
      <trkpt lat="38.243249" lon="-1.454751">
        <ele>168.4</ele>
        <time>2023-04-30T10:34:32Z</time>
      </trkpt>
      <trkpt lat="38.243311" lon="-1.454790">
        <ele>168.4</ele>
        <time>2023-04-30T10:34:38Z</time>
      </trkpt>
      <trkpt lat="38.243366" lon="-1.454867">
        <ele>169.4</ele>
        <time>2023-04-30T10:34:48Z</time>
      </trkpt>
      <trkpt lat="38.243407" lon="-1.454933">
        <ele>169.4</ele>
        <time>2023-04-30T10:34:53Z</time>
      </trkpt>
      <trkpt lat="38.243452" lon="-1.455003">
        <ele>169.4</ele>
        <time>2023-04-30T10:35:00Z</time>
      </trkpt>
      <trkpt lat="38.243504" lon="-1.455068">
        <ele>169.4</ele>
        <time>2023-04-30T10:35:07Z</time>
      </trkpt>
      <trkpt lat="38.243563" lon="-1.455124">
        <ele>167.6</ele>
        <time>2023-04-30T10:35:13Z</time>
      </trkpt>
      <trkpt lat="38.243619" lon="-1.455171">
        <ele>166.4</ele>
        <time>2023-04-30T10:35:21Z</time>
      </trkpt>
      <trkpt lat="38.243676" lon="-1.455220">
        <ele>164.4</ele>
        <time>2023-04-30T10:35:28Z</time>
      </trkpt>
      <trkpt lat="38.243738" lon="-1.455248">
        <ele>163.4</ele>
        <time>2023-04-30T10:35:37Z</time>
      </trkpt>
      <trkpt lat="38.243807" lon="-1.455220">
        <ele>162.4</ele>
        <time>2023-04-30T10:35:45Z</time>
      </trkpt>
      <trkpt lat="38.243859" lon="-1.455150">
        <ele>162.4</ele>
        <time>2023-04-30T10:35:51Z</time>
      </trkpt>
      <trkpt lat="38.243929" lon="-1.455121">
        <ele>162.4</ele>
        <time>2023-04-30T10:35:57Z</time>
      </trkpt>
      <trkpt lat="38.243991" lon="-1.455149">
        <ele>162.6</ele>
        <time>2023-04-30T10:36:02Z</time>
      </trkpt>
      <trkpt lat="38.244046" lon="-1.455191">
        <ele>161.4</ele>
        <time>2023-04-30T10:36:07Z</time>
      </trkpt>
      <trkpt lat="38.244109" lon="-1.455222">
        <ele>160.6</ele>
        <time>2023-04-30T10:36:13Z</time>
      </trkpt>
      <trkpt lat="38.244174" lon="-1.455199">
        <ele>159.4</ele>
        <time>2023-04-30T10:36:25Z</time>
      </trkpt>
      <trkpt lat="38.244231" lon="-1.455153">
        <ele>158.6</ele>
        <time>2023-04-30T10:36:31Z</time>
      </trkpt>
      <trkpt lat="38.244283" lon="-1.455096">
        <ele>159.1</ele>
        <time>2023-04-30T10:36:37Z</time>
      </trkpt>
      <trkpt lat="38.244350" lon="-1.455079">
        <ele>158.4</ele>
        <time>2023-04-30T10:36:43Z</time>
      </trkpt>
      <trkpt lat="38.244423" lon="-1.455101">
        <ele>158.4</ele>
        <time>2023-04-30T10:36:49Z</time>
      </trkpt>
      <trkpt lat="38.244489" lon="-1.455124">
        <ele>158.3</ele>
        <time>2023-04-30T10:36:55Z</time>
      </trkpt>
      <trkpt lat="38.244560" lon="-1.455139">
        <ele>158.3</ele>
        <time>2023-04-30T10:37:02Z</time>
      </trkpt>
      <trkpt lat="38.244631" lon="-1.455158">
        <ele>158.2</ele>
        <time>2023-04-30T10:37:08Z</time>
      </trkpt>
      <trkpt lat="38.244718" lon="-1.455176">
        <ele>159.4</ele>
        <time>2023-04-30T10:37:14Z</time>
      </trkpt>
      <trkpt lat="38.244785" lon="-1.455198">
        <ele>159.4</ele>
        <time>2023-04-30T10:37:20Z</time>
      </trkpt>
      <trkpt lat="38.244849" lon="-1.455219">
        <ele>159.4</ele>
        <time>2023-04-30T10:37:25Z</time>
      </trkpt>
      <trkpt lat="38.244918" lon="-1.455233">
        <ele>160.4</ele>
        <time>2023-04-30T10:37:31Z</time>
      </trkpt>
      <trkpt lat="38.244983" lon="-1.455249">
        <ele>159.4</ele>
        <time>2023-04-30T10:37:37Z</time>
      </trkpt>
      <trkpt lat="38.245051" lon="-1.455272">
        <ele>160.4</ele>
        <time>2023-04-30T10:37:43Z</time>
      </trkpt>
      <trkpt lat="38.245114" lon="-1.455290">
        <ele>160.4</ele>
        <time>2023-04-30T10:37:49Z</time>
      </trkpt>
      <trkpt lat="38.245175" lon="-1.455270">
        <ele>161.4</ele>
        <time>2023-04-30T10:37:57Z</time>
      </trkpt>
      <trkpt lat="38.245175" lon="-1.455184">
        <ele>163.1</ele>
        <time>2023-04-30T10:38:03Z</time>
      </trkpt>
      <trkpt lat="38.245165" lon="-1.455103">
        <ele>163.4</ele>
        <time>2023-04-30T10:38:08Z</time>
      </trkpt>
      <trkpt lat="38.245143" lon="-1.455026">
        <ele>163.4</ele>
        <time>2023-04-30T10:38:13Z</time>
      </trkpt>
      <trkpt lat="38.245123" lon="-1.454938">
        <ele>163.4</ele>
        <time>2023-04-30T10:38:19Z</time>
      </trkpt>
      <trkpt lat="38.245096" lon="-1.454860">
        <ele>162.6</ele>
        <time>2023-04-30T10:38:25Z</time>
      </trkpt>
      <trkpt lat="38.245061" lon="-1.454783">
        <ele>163.4</ele>
        <time>2023-04-30T10:38:31Z</time>
      </trkpt>
      <trkpt lat="38.245036" lon="-1.454696">
        <ele>163.6</ele>
        <time>2023-04-30T10:38:36Z</time>
      </trkpt>
      <trkpt lat="38.245003" lon="-1.454611">
        <ele>163.6</ele>
        <time>2023-04-30T10:38:42Z</time>
      </trkpt>
      <trkpt lat="38.244982" lon="-1.454534">
        <ele>162.4</ele>
        <time>2023-04-30T10:38:50Z</time>
      </trkpt>
      <trkpt lat="38.244925" lon="-1.454491">
        <ele>162.6</ele>
        <time>2023-04-30T10:38:55Z</time>
      </trkpt>
      <trkpt lat="38.244864" lon="-1.454459">
        <ele>160.4</ele>
        <time>2023-04-30T10:39:14Z</time>
      </trkpt>
      <trkpt lat="38.244819" lon="-1.454381">
        <ele>159.4</ele>
        <time>2023-04-30T10:39:20Z</time>
      </trkpt>
      <trkpt lat="38.244765" lon="-1.454326">
        <ele>160.4</ele>
        <time>2023-04-30T10:39:33Z</time>
      </trkpt>
      <trkpt lat="38.244717" lon="-1.454273">
        <ele>160.4</ele>
        <time>2023-04-30T10:39:38Z</time>
      </trkpt>
      <trkpt lat="38.244666" lon="-1.454214">
        <ele>159.4</ele>
        <time>2023-04-30T10:39:42Z</time>
      </trkpt>
      <trkpt lat="38.244613" lon="-1.454167">
        <ele>158.6</ele>
        <time>2023-04-30T10:39:45Z</time>
      </trkpt>
      <trkpt lat="38.244561" lon="-1.454112">
        <ele>158.4</ele>
        <time>2023-04-30T10:39:51Z</time>
      </trkpt>
      <trkpt lat="38.244512" lon="-1.454059">
        <ele>159.3</ele>
        <time>2023-04-30T10:39:55Z</time>
      </trkpt>
      <trkpt lat="38.244484" lon="-1.453982">
        <ele>160.1</ele>
        <time>2023-04-30T10:39:59Z</time>
      </trkpt>
      <trkpt lat="38.244446" lon="-1.453906">
        <ele>161.3</ele>
        <time>2023-04-30T10:40:03Z</time>
      </trkpt>
      <trkpt lat="38.244407" lon="-1.453832">
        <ele>162.4</ele>
        <time>2023-04-30T10:40:08Z</time>
      </trkpt>
      <trkpt lat="38.244371" lon="-1.453757">
        <ele>162.4</ele>
        <time>2023-04-30T10:40:15Z</time>
      </trkpt>
      <trkpt lat="38.244331" lon="-1.453691">
        <ele>162.4</ele>
        <time>2023-04-30T10:40:22Z</time>
      </trkpt>
      <trkpt lat="38.244308" lon="-1.453615">
        <ele>163.1</ele>
        <time>2023-04-30T10:40:29Z</time>
      </trkpt>
      <trkpt lat="38.244286" lon="-1.453530">
        <ele>163.6</ele>
        <time>2023-04-30T10:40:35Z</time>
      </trkpt>
      <trkpt lat="38.244268" lon="-1.453434">
        <ele>164.3</ele>
        <time>2023-04-30T10:40:45Z</time>
      </trkpt>
      <trkpt lat="38.244252" lon="-1.453353">
        <ele>165.4</ele>
        <time>2023-04-30T10:40:50Z</time>
      </trkpt>
      <trkpt lat="38.244238" lon="-1.453268">
        <ele>165.4</ele>
        <time>2023-04-30T10:40:56Z</time>
      </trkpt>
      <trkpt lat="38.244227" lon="-1.453180">
        <ele>167.4</ele>
        <time>2023-04-30T10:41:01Z</time>
      </trkpt>
      <trkpt lat="38.244226" lon="-1.453100">
        <ele>166.6</ele>
        <time>2023-04-30T10:41:07Z</time>
      </trkpt>
      <trkpt lat="38.244214" lon="-1.453017">
        <ele>166.4</ele>
        <time>2023-04-30T10:41:13Z</time>
      </trkpt>
      <trkpt lat="38.244200" lon="-1.452935">
        <ele>165.6</ele>
        <time>2023-04-30T10:41:19Z</time>
      </trkpt>
      <trkpt lat="38.244180" lon="-1.452847">
        <ele>164.4</ele>
        <time>2023-04-30T10:41:25Z</time>
      </trkpt>
      <trkpt lat="38.244160" lon="-1.452764">
        <ele>163.6</ele>
        <time>2023-04-30T10:41:32Z</time>
      </trkpt>
      <trkpt lat="38.244136" lon="-1.452682">
        <ele>162.6</ele>
        <time>2023-04-30T10:41:37Z</time>
      </trkpt>
      <trkpt lat="38.244116" lon="-1.452596">
        <ele>164.1</ele>
        <time>2023-04-30T10:41:42Z</time>
      </trkpt>
      <trkpt lat="38.244099" lon="-1.452516">
        <ele>165.3</ele>
        <time>2023-04-30T10:41:47Z</time>
      </trkpt>
      <trkpt lat="38.244074" lon="-1.452441">
        <ele>164.4</ele>
        <time>2023-04-30T10:41:52Z</time>
      </trkpt>
      <trkpt lat="38.244057" lon="-1.452358">
        <ele>164.4</ele>
        <time>2023-04-30T10:41:58Z</time>
      </trkpt>
      <trkpt lat="38.244044" lon="-1.452268">
        <ele>164.4</ele>
        <time>2023-04-30T10:42:04Z</time>
      </trkpt>
      <trkpt lat="38.244001" lon="-1.452173">
        <ele>164.3</ele>
        <time>2023-04-30T10:42:10Z</time>
      </trkpt>
      <trkpt lat="38.243982" lon="-1.452096">
        <ele>163.4</ele>
        <time>2023-04-30T10:42:16Z</time>
      </trkpt>
      <trkpt lat="38.243963" lon="-1.452018">
        <ele>164.4</ele>
        <time>2023-04-30T10:42:21Z</time>
      </trkpt>
      <trkpt lat="38.243958" lon="-1.451928">
        <ele>164.4</ele>
        <time>2023-04-30T10:42:27Z</time>
      </trkpt>
      <trkpt lat="38.243946" lon="-1.451843">
        <ele>164.4</ele>
        <time>2023-04-30T10:42:32Z</time>
      </trkpt>
      <trkpt lat="38.243934" lon="-1.451762">
        <ele>163.4</ele>
        <time>2023-04-30T10:42:37Z</time>
      </trkpt>
      <trkpt lat="38.243910" lon="-1.451685">
        <ele>163.2</ele>
        <time>2023-04-30T10:42:42Z</time>
      </trkpt>
      <trkpt lat="38.243888" lon="-1.451600">
        <ele>162.4</ele>
        <time>2023-04-30T10:42:48Z</time>
      </trkpt>
      <trkpt lat="38.243877" lon="-1.451498">
        <ele>161.6</ele>
        <time>2023-04-30T10:42:55Z</time>
      </trkpt>
      <trkpt lat="38.243853" lon="-1.451421">
        <ele>161.4</ele>
        <time>2023-04-30T10:43:01Z</time>
      </trkpt>
      <trkpt lat="38.243834" lon="-1.451343">
        <ele>160.4</ele>
        <time>2023-04-30T10:43:07Z</time>
      </trkpt>
      <trkpt lat="38.243827" lon="-1.451257">
        <ele>160.6</ele>
        <time>2023-04-30T10:43:13Z</time>
      </trkpt>
      <trkpt lat="38.243840" lon="-1.451177">
        <ele>162.3</ele>
        <time>2023-04-30T10:43:18Z</time>
      </trkpt>
      <trkpt lat="38.243836" lon="-1.451084">
        <ele>164.3</ele>
        <time>2023-04-30T10:43:23Z</time>
      </trkpt>
      <trkpt lat="38.243827" lon="-1.450992">
        <ele>165.4</ele>
        <time>2023-04-30T10:43:29Z</time>
      </trkpt>
      <trkpt lat="38.243830" lon="-1.450905">
        <ele>166.1</ele>
        <time>2023-04-30T10:43:41Z</time>
      </trkpt>
      <trkpt lat="38.243834" lon="-1.450826">
        <ele>162.4</ele>
        <time>2023-04-30T10:44:52Z</time>
      </trkpt>
      <trkpt lat="38.243827" lon="-1.450737">
        <ele>164.1</ele>
        <time>2023-04-30T10:44:56Z</time>
      </trkpt>
      <trkpt lat="38.243822" lon="-1.450652">
        <ele>165.4</ele>
        <time>2023-04-30T10:45:00Z</time>
      </trkpt>
      <trkpt lat="38.243820" lon="-1.450564">
        <ele>165.4</ele>
        <time>2023-04-30T10:45:04Z</time>
      </trkpt>
      <trkpt lat="38.243816" lon="-1.450480">
        <ele>164.4</ele>
        <time>2023-04-30T10:45:09Z</time>
      </trkpt>
      <trkpt lat="38.243815" lon="-1.450391">
        <ele>163.4</ele>
        <time>2023-04-30T10:45:20Z</time>
      </trkpt>
      <trkpt lat="38.243802" lon="-1.450296">
        <ele>163.4</ele>
        <time>2023-04-30T10:45:25Z</time>
      </trkpt>
      <trkpt lat="38.243804" lon="-1.450210">
        <ele>164.4</ele>
        <time>2023-04-30T10:45:31Z</time>
      </trkpt>
      <trkpt lat="38.243780" lon="-1.450114">
        <ele>164.6</ele>
        <time>2023-04-30T10:45:36Z</time>
      </trkpt>
      <trkpt lat="38.243771" lon="-1.450033">
        <ele>164.4</ele>
        <time>2023-04-30T10:45:42Z</time>
      </trkpt>
      <trkpt lat="38.243768" lon="-1.449932">
        <ele>164.4</ele>
        <time>2023-04-30T10:45:46Z</time>
      </trkpt>
      <trkpt lat="38.243771" lon="-1.449845">
        <ele>163.4</ele>
        <time>2023-04-30T10:45:51Z</time>
      </trkpt>
      <trkpt lat="38.243767" lon="-1.449730">
        <ele>162.4</ele>
        <time>2023-04-30T10:45:56Z</time>
      </trkpt>
      <trkpt lat="38.243761" lon="-1.449627">
        <ele>162.4</ele>
        <time>2023-04-30T10:46:01Z</time>
      </trkpt>
      <trkpt lat="38.243757" lon="-1.449534">
        <ele>161.6</ele>
        <time>2023-04-30T10:46:07Z</time>
      </trkpt>
      <trkpt lat="38.243759" lon="-1.449444">
        <ele>162.1</ele>
        <time>2023-04-30T10:46:11Z</time>
      </trkpt>
      <trkpt lat="38.243749" lon="-1.449345">
        <ele>161.4</ele>
        <time>2023-04-30T10:46:16Z</time>
      </trkpt>
      <trkpt lat="38.243744" lon="-1.449249">
        <ele>160.4</ele>
        <time>2023-04-30T10:46:21Z</time>
      </trkpt>
      <trkpt lat="38.243740" lon="-1.449157">
        <ele>160.4</ele>
        <time>2023-04-30T10:46:26Z</time>
      </trkpt>
      <trkpt lat="38.243738" lon="-1.449074">
        <ele>162.1</ele>
        <time>2023-04-30T10:46:31Z</time>
      </trkpt>
      <trkpt lat="38.243731" lon="-1.448958">
        <ele>162.4</ele>
        <time>2023-04-30T10:46:36Z</time>
      </trkpt>
      <trkpt lat="38.243724" lon="-1.448853">
        <ele>163.4</ele>
        <time>2023-04-30T10:46:41Z</time>
      </trkpt>
      <trkpt lat="38.243722" lon="-1.448761">
        <ele>162.2</ele>
        <time>2023-04-30T10:46:48Z</time>
      </trkpt>
      <trkpt lat="38.243708" lon="-1.448677">
        <ele>162.6</ele>
        <time>2023-04-30T10:46:52Z</time>
      </trkpt>
      <trkpt lat="38.243697" lon="-1.448587">
        <ele>162.4</ele>
        <time>2023-04-30T10:46:57Z</time>
      </trkpt>
      <trkpt lat="38.243687" lon="-1.448494">
        <ele>161.6</ele>
        <time>2023-04-30T10:47:02Z</time>
      </trkpt>
      <trkpt lat="38.243681" lon="-1.448387">
        <ele>161.4</ele>
        <time>2023-04-30T10:47:07Z</time>
      </trkpt>
      <trkpt lat="38.243678" lon="-1.448301">
        <ele>161.4</ele>
        <time>2023-04-30T10:47:12Z</time>
      </trkpt>
      <trkpt lat="38.243676" lon="-1.448210">
        <ele>160.4</ele>
        <time>2023-04-30T10:47:18Z</time>
      </trkpt>
      <trkpt lat="38.243670" lon="-1.448122">
        <ele>160.4</ele>
        <time>2023-04-30T10:47:22Z</time>
      </trkpt>
      <trkpt lat="38.243660" lon="-1.448037">
        <ele>160.4</ele>
        <time>2023-04-30T10:47:27Z</time>
      </trkpt>
      <trkpt lat="38.243643" lon="-1.447944">
        <ele>161.1</ele>
        <time>2023-04-30T10:47:32Z</time>
      </trkpt>
      <trkpt lat="38.243646" lon="-1.447844">
        <ele>163.3</ele>
        <time>2023-04-30T10:47:37Z</time>
      </trkpt>
      <trkpt lat="38.243629" lon="-1.447758">
        <ele>162.4</ele>
        <time>2023-04-30T10:47:43Z</time>
      </trkpt>
      <trkpt lat="38.243605" lon="-1.447666">
        <ele>163.3</ele>
        <time>2023-04-30T10:47:49Z</time>
      </trkpt>
      <trkpt lat="38.243577" lon="-1.447583">
        <ele>164.1</ele>
        <time>2023-04-30T10:47:54Z</time>
      </trkpt>
      <trkpt lat="38.243550" lon="-1.447497">
        <ele>166.1</ele>
        <time>2023-04-30T10:48:00Z</time>
      </trkpt>
      <trkpt lat="38.243522" lon="-1.447414">
        <ele>166.4</ele>
        <time>2023-04-30T10:48:06Z</time>
      </trkpt>
      <trkpt lat="38.243487" lon="-1.447339">
        <ele>166.4</ele>
        <time>2023-04-30T10:48:14Z</time>
      </trkpt>
      <trkpt lat="38.243462" lon="-1.447255">
        <ele>163.6</ele>
        <time>2023-04-30T10:48:33Z</time>
      </trkpt>
      <trkpt lat="38.243436" lon="-1.447179">
        <ele>163.2</ele>
        <time>2023-04-30T10:48:40Z</time>
      </trkpt>
      <trkpt lat="38.243405" lon="-1.447100">
        <ele>163.4</ele>
        <time>2023-04-30T10:48:46Z</time>
      </trkpt>
      <trkpt lat="38.243362" lon="-1.447033">
        <ele>163.4</ele>
        <time>2023-04-30T10:48:51Z</time>
      </trkpt>
      <trkpt lat="38.243314" lon="-1.446966">
        <ele>161.4</ele>
        <time>2023-04-30T10:48:57Z</time>
      </trkpt>
      <trkpt lat="38.243281" lon="-1.446895">
        <ele>161.4</ele>
        <time>2023-04-30T10:49:02Z</time>
      </trkpt>
      <trkpt lat="38.243240" lon="-1.446831">
        <ele>161.4</ele>
        <time>2023-04-30T10:49:09Z</time>
      </trkpt>
      <trkpt lat="38.243197" lon="-1.446761">
        <ele>162.1</ele>
        <time>2023-04-30T10:49:14Z</time>
      </trkpt>
      <trkpt lat="38.243154" lon="-1.446685">
        <ele>161.4</ele>
        <time>2023-04-30T10:49:21Z</time>
      </trkpt>
      <trkpt lat="38.243113" lon="-1.446614">
        <ele>160.6</ele>
        <time>2023-04-30T10:49:27Z</time>
      </trkpt>
      <trkpt lat="38.243073" lon="-1.446544">
        <ele>161.4</ele>
        <time>2023-04-30T10:49:32Z</time>
      </trkpt>
      <trkpt lat="38.243038" lon="-1.446470">
        <ele>160.4</ele>
        <time>2023-04-30T10:49:37Z</time>
      </trkpt>
      <trkpt lat="38.242986" lon="-1.446414">
        <ele>161.4</ele>
        <time>2023-04-30T10:49:45Z</time>
      </trkpt>
      <trkpt lat="38.242931" lon="-1.446348">
        <ele>160.4</ele>
        <time>2023-04-30T10:49:52Z</time>
      </trkpt>
      <trkpt lat="38.242887" lon="-1.446284">
        <ele>160.6</ele>
        <time>2023-04-30T10:49:57Z</time>
      </trkpt>
      <trkpt lat="38.242841" lon="-1.446206">
        <ele>161.4</ele>
        <time>2023-04-30T10:50:02Z</time>
      </trkpt>
      <trkpt lat="38.242792" lon="-1.446136">
        <ele>161.6</ele>
        <time>2023-04-30T10:50:09Z</time>
      </trkpt>
      <trkpt lat="38.242739" lon="-1.446075">
        <ele>161.4</ele>
        <time>2023-04-30T10:50:15Z</time>
      </trkpt>
      <trkpt lat="38.242685" lon="-1.446013">
        <ele>162.4</ele>
        <time>2023-04-30T10:50:21Z</time>
      </trkpt>
      <trkpt lat="38.242636" lon="-1.445930">
        <ele>162.4</ele>
        <time>2023-04-30T10:50:27Z</time>
      </trkpt>
      <trkpt lat="38.242584" lon="-1.445868">
        <ele>161.4</ele>
        <time>2023-04-30T10:50:32Z</time>
      </trkpt>
      <trkpt lat="38.242534" lon="-1.445812">
        <ele>161.4</ele>
        <time>2023-04-30T10:50:37Z</time>
      </trkpt>
      <trkpt lat="38.242486" lon="-1.445759">
        <ele>162.4</ele>
        <time>2023-04-30T10:50:42Z</time>
      </trkpt>
      <trkpt lat="38.242430" lon="-1.445711">
        <ele>163.3</ele>
        <time>2023-04-30T10:50:48Z</time>
      </trkpt>
      <trkpt lat="38.242378" lon="-1.445665">
        <ele>163.4</ele>
        <time>2023-04-30T10:50:54Z</time>
      </trkpt>
      <trkpt lat="38.242323" lon="-1.445609">
        <ele>162.6</ele>
        <time>2023-04-30T10:50:59Z</time>
      </trkpt>
      <trkpt lat="38.242270" lon="-1.445555">
        <ele>162.4</ele>
        <time>2023-04-30T10:51:04Z</time>
      </trkpt>
      <trkpt lat="38.242208" lon="-1.445497">
        <ele>163.4</ele>
        <time>2023-04-30T10:51:10Z</time>
      </trkpt>
      <trkpt lat="38.242159" lon="-1.445436">
        <ele>162.4</ele>
        <time>2023-04-30T10:51:15Z</time>
      </trkpt>
      <trkpt lat="38.242115" lon="-1.445373">
        <ele>163.4</ele>
        <time>2023-04-30T10:51:20Z</time>
      </trkpt>
      <trkpt lat="38.242074" lon="-1.445303">
        <ele>163.6</ele>
        <time>2023-04-30T10:51:25Z</time>
      </trkpt>
      <trkpt lat="38.242039" lon="-1.445234">
        <ele>162.6</ele>
        <time>2023-04-30T10:51:31Z</time>
      </trkpt>
      <trkpt lat="38.241995" lon="-1.445173">
        <ele>162.4</ele>
        <time>2023-04-30T10:51:39Z</time>
      </trkpt>
      <trkpt lat="38.241975" lon="-1.445088">
        <ele>163.3</ele>
        <time>2023-04-30T10:51:44Z</time>
      </trkpt>
      <trkpt lat="38.241959" lon="-1.445007">
        <ele>163.3</ele>
        <time>2023-04-30T10:51:49Z</time>
      </trkpt>
      <trkpt lat="38.241953" lon="-1.444919">
        <ele>163.4</ele>
        <time>2023-04-30T10:51:55Z</time>
      </trkpt>
      <trkpt lat="38.241942" lon="-1.444836">
        <ele>163.4</ele>
        <time>2023-04-30T10:52:00Z</time>
      </trkpt>
      <trkpt lat="38.241926" lon="-1.444755">
        <ele>163.4</ele>
        <time>2023-04-30T10:52:06Z</time>
      </trkpt>
      <trkpt lat="38.241914" lon="-1.444673">
        <ele>164.1</ele>
        <time>2023-04-30T10:52:12Z</time>
      </trkpt>
      <trkpt lat="38.241905" lon="-1.444590">
        <ele>163.6</ele>
        <time>2023-04-30T10:52:17Z</time>
      </trkpt>
      <trkpt lat="38.241883" lon="-1.444501">
        <ele>163.4</ele>
        <time>2023-04-30T10:52:22Z</time>
      </trkpt>
      <trkpt lat="38.241859" lon="-1.444415">
        <ele>164.3</ele>
        <time>2023-04-30T10:52:28Z</time>
      </trkpt>
      <trkpt lat="38.241832" lon="-1.444341">
        <ele>162.6</ele>
        <time>2023-04-30T10:52:33Z</time>
      </trkpt>
      <trkpt lat="38.241814" lon="-1.444249">
        <ele>162.4</ele>
        <time>2023-04-30T10:52:40Z</time>
      </trkpt>
      <trkpt lat="38.241793" lon="-1.444169">
        <ele>163.1</ele>
        <time>2023-04-30T10:52:45Z</time>
      </trkpt>
      <trkpt lat="38.241773" lon="-1.444088">
        <ele>163.1</ele>
        <time>2023-04-30T10:52:51Z</time>
      </trkpt>
      <trkpt lat="38.241750" lon="-1.444011">
        <ele>163.4</ele>
        <time>2023-04-30T10:52:56Z</time>
      </trkpt>
      <trkpt lat="38.241724" lon="-1.443936">
        <ele>161.4</ele>
        <time>2023-04-30T10:53:01Z</time>
      </trkpt>
      <trkpt lat="38.241705" lon="-1.443848">
        <ele>162.6</ele>
        <time>2023-04-30T10:53:07Z</time>
      </trkpt>
      <trkpt lat="38.241677" lon="-1.443773">
        <ele>162.4</ele>
        <time>2023-04-30T10:53:13Z</time>
      </trkpt>
      <trkpt lat="38.241661" lon="-1.443676">
        <ele>162.4</ele>
        <time>2023-04-30T10:53:18Z</time>
      </trkpt>
      <trkpt lat="38.241632" lon="-1.443592">
        <ele>163.3</ele>
        <time>2023-04-30T10:53:25Z</time>
      </trkpt>
      <trkpt lat="38.241612" lon="-1.443513">
        <ele>161.6</ele>
        <time>2023-04-30T10:53:30Z</time>
      </trkpt>
      <trkpt lat="38.241590" lon="-1.443424">
        <ele>162.1</ele>
        <time>2023-04-30T10:53:36Z</time>
      </trkpt>
      <trkpt lat="38.241572" lon="-1.443337">
        <ele>162.6</ele>
        <time>2023-04-30T10:53:41Z</time>
      </trkpt>
      <trkpt lat="38.241557" lon="-1.443257">
        <ele>161.4</ele>
        <time>2023-04-30T10:53:47Z</time>
      </trkpt>
      <trkpt lat="38.241543" lon="-1.443173">
        <ele>161.6</ele>
        <time>2023-04-30T10:53:52Z</time>
      </trkpt>
      <trkpt lat="38.241536" lon="-1.443093">
        <ele>163.4</ele>
        <time>2023-04-30T10:53:57Z</time>
      </trkpt>
      <trkpt lat="38.241520" lon="-1.442995">
        <ele>161.6</ele>
        <time>2023-04-30T10:54:03Z</time>
      </trkpt>
      <trkpt lat="38.241508" lon="-1.442913">
        <ele>162.1</ele>
        <time>2023-04-30T10:54:08Z</time>
      </trkpt>
      <trkpt lat="38.241506" lon="-1.442819">
        <ele>163.1</ele>
        <time>2023-04-30T10:54:15Z</time>
      </trkpt>
      <trkpt lat="38.241499" lon="-1.442731">
        <ele>164.2</ele>
        <time>2023-04-30T10:54:20Z</time>
      </trkpt>
      <trkpt lat="38.241495" lon="-1.442643">
        <ele>164.4</ele>
        <time>2023-04-30T10:54:26Z</time>
      </trkpt>
      <trkpt lat="38.241493" lon="-1.442551">
        <ele>164.3</ele>
        <time>2023-04-30T10:54:32Z</time>
      </trkpt>
      <trkpt lat="38.241485" lon="-1.442464">
        <ele>164.4</ele>
        <time>2023-04-30T10:54:37Z</time>
      </trkpt>
      <trkpt lat="38.241485" lon="-1.442354">
        <ele>165.1</ele>
        <time>2023-04-30T10:54:43Z</time>
      </trkpt>
      <trkpt lat="38.241475" lon="-1.442265">
        <ele>163.4</ele>
        <time>2023-04-30T10:54:51Z</time>
      </trkpt>
      <trkpt lat="38.241483" lon="-1.442181">
        <ele>162.2</ele>
        <time>2023-04-30T10:54:57Z</time>
      </trkpt>
      <trkpt lat="38.241484" lon="-1.442078">
        <ele>162.4</ele>
        <time>2023-04-30T10:55:04Z</time>
      </trkpt>
      <trkpt lat="38.241485" lon="-1.441995">
        <ele>163.3</ele>
        <time>2023-04-30T10:55:09Z</time>
      </trkpt>
      <trkpt lat="38.241489" lon="-1.441915">
        <ele>162.4</ele>
        <time>2023-04-30T10:55:15Z</time>
      </trkpt>
      <trkpt lat="38.241504" lon="-1.441828">
        <ele>162.4</ele>
        <time>2023-04-30T10:55:22Z</time>
      </trkpt>
      <trkpt lat="38.241511" lon="-1.441737">
        <ele>162.4</ele>
        <time>2023-04-30T10:55:28Z</time>
      </trkpt>
      <trkpt lat="38.241519" lon="-1.441641">
        <ele>162.4</ele>
        <time>2023-04-30T10:55:34Z</time>
      </trkpt>
      <trkpt lat="38.241523" lon="-1.441559">
        <ele>162.4</ele>
        <time>2023-04-30T10:55:39Z</time>
      </trkpt>
      <trkpt lat="38.241529" lon="-1.441476">
        <ele>161.4</ele>
        <time>2023-04-30T10:55:45Z</time>
      </trkpt>
      <trkpt lat="38.241535" lon="-1.441382">
        <ele>161.4</ele>
        <time>2023-04-30T10:55:51Z</time>
      </trkpt>
      <trkpt lat="38.241539" lon="-1.441292">
        <ele>162.4</ele>
        <time>2023-04-30T10:55:57Z</time>
      </trkpt>
      <trkpt lat="38.241551" lon="-1.441202">
        <ele>162.4</ele>
        <time>2023-04-30T10:56:03Z</time>
      </trkpt>
      <trkpt lat="38.241557" lon="-1.441101">
        <ele>161.6</ele>
        <time>2023-04-30T10:56:09Z</time>
      </trkpt>
      <trkpt lat="38.241578" lon="-1.441019">
        <ele>162.4</ele>
        <time>2023-04-30T10:56:14Z</time>
      </trkpt>
      <trkpt lat="38.241605" lon="-1.440931">
        <ele>163.3</ele>
        <time>2023-04-30T10:56:23Z</time>
      </trkpt>
      <trkpt lat="38.241622" lon="-1.440854">
        <ele>164.3</ele>
        <time>2023-04-30T10:56:28Z</time>
      </trkpt>
      <trkpt lat="38.241656" lon="-1.440769">
        <ele>164.4</ele>
        <time>2023-04-30T10:56:34Z</time>
      </trkpt>
      <trkpt lat="38.241679" lon="-1.440689">
        <ele>165.1</ele>
        <time>2023-04-30T10:56:39Z</time>
      </trkpt>
      <trkpt lat="38.241702" lon="-1.440607">
        <ele>165.4</ele>
        <time>2023-04-30T10:56:45Z</time>
      </trkpt>
      <trkpt lat="38.241726" lon="-1.440532">
        <ele>165.4</ele>
        <time>2023-04-30T10:56:50Z</time>
      </trkpt>
      <trkpt lat="38.241744" lon="-1.440449">
        <ele>164.4</ele>
        <time>2023-04-30T10:56:57Z</time>
      </trkpt>
      <trkpt lat="38.241765" lon="-1.440373">
        <ele>164.4</ele>
        <time>2023-04-30T10:57:02Z</time>
      </trkpt>
      <trkpt lat="38.241792" lon="-1.440295">
        <ele>163.4</ele>
        <time>2023-04-30T10:57:08Z</time>
      </trkpt>
      <trkpt lat="38.241819" lon="-1.440193">
        <ele>163.4</ele>
        <time>2023-04-30T10:57:14Z</time>
      </trkpt>
      <trkpt lat="38.241842" lon="-1.440108">
        <ele>163.4</ele>
        <time>2023-04-30T10:57:20Z</time>
      </trkpt>
      <trkpt lat="38.241862" lon="-1.440031">
        <ele>164.3</ele>
        <time>2023-04-30T10:57:26Z</time>
      </trkpt>
      <trkpt lat="38.241880" lon="-1.439943">
        <ele>164.2</ele>
        <time>2023-04-30T10:57:33Z</time>
      </trkpt>
      <trkpt lat="38.241930" lon="-1.439877">
        <ele>164.4</ele>
        <time>2023-04-30T10:57:45Z</time>
      </trkpt>
      <trkpt lat="38.241953" lon="-1.439792">
        <ele>164.4</ele>
        <time>2023-04-30T10:57:49Z</time>
      </trkpt>
      <trkpt lat="38.241964" lon="-1.439702">
        <ele>163.4</ele>
        <time>2023-04-30T10:57:58Z</time>
      </trkpt>
      <trkpt lat="38.242028" lon="-1.439711">
        <ele>160.2</ele>
        <time>2023-04-30T10:58:49Z</time>
      </trkpt>
      <trkpt lat="38.242064" lon="-1.439634">
        <ele>161.4</ele>
        <time>2023-04-30T10:59:19Z</time>
      </trkpt>
      <trkpt lat="38.242138" lon="-1.439600">
        <ele>163.1</ele>
        <time>2023-04-30T10:59:25Z</time>
      </trkpt>
      <trkpt lat="38.242195" lon="-1.439552">
        <ele>164.1</ele>
        <time>2023-04-30T10:59:32Z</time>
      </trkpt>
      <trkpt lat="38.242245" lon="-1.439495">
        <ele>163.4</ele>
        <time>2023-04-30T10:59:37Z</time>
      </trkpt>
      <trkpt lat="38.242289" lon="-1.439426">
        <ele>215.8</ele>
        <time>2023-04-30T10:59:42Z</time>
      </trkpt>
      <trkpt lat="38.242333" lon="-1.439351">
        <ele>216.7</ele>
        <time>2023-04-30T10:59:49Z</time>
      </trkpt>
      <trkpt lat="38.242393" lon="-1.439287">
        <ele>216.7</ele>
        <time>2023-04-30T10:59:55Z</time>
      </trkpt>
      <trkpt lat="38.242435" lon="-1.439207">
        <ele>176.7</ele>
        <time>2023-04-30T11:00:00Z</time>
      </trkpt>
      <trkpt lat="38.242471" lon="-1.439139">
        <ele>164.3</ele>
        <time>2023-04-30T11:00:05Z</time>
      </trkpt>
      <trkpt lat="38.242514" lon="-1.439070">
        <ele>164.4</ele>
        <time>2023-04-30T11:00:10Z</time>
      </trkpt>
      <trkpt lat="38.242569" lon="-1.438990">
        <ele>167.1</ele>
        <time>2023-04-30T11:00:15Z</time>
      </trkpt>
      <trkpt lat="38.242605" lon="-1.438925">
        <ele>166.4</ele>
        <time>2023-04-30T11:00:20Z</time>
      </trkpt>
      <trkpt lat="38.242639" lon="-1.438840">
        <ele>167.4</ele>
        <time>2023-04-30T11:00:29Z</time>
      </trkpt>
      <trkpt lat="38.242688" lon="-1.438774">
        <ele>166.4</ele>
        <time>2023-04-30T11:00:34Z</time>
      </trkpt>
      <trkpt lat="38.242724" lon="-1.438708">
        <ele>166.4</ele>
        <time>2023-04-30T11:00:38Z</time>
      </trkpt>
      <trkpt lat="38.242767" lon="-1.438648">
        <ele>165.4</ele>
        <time>2023-04-30T11:00:43Z</time>
      </trkpt>
      <trkpt lat="38.242813" lon="-1.438589">
        <ele>164.6</ele>
        <time>2023-04-30T11:00:48Z</time>
      </trkpt>
      <trkpt lat="38.242849" lon="-1.438517">
        <ele>164.4</ele>
        <time>2023-04-30T11:00:53Z</time>
      </trkpt>
      <trkpt lat="38.242877" lon="-1.438439">
        <ele>164.4</ele>
        <time>2023-04-30T11:00:58Z</time>
      </trkpt>
      <trkpt lat="38.242901" lon="-1.438351">
        <ele>164.4</ele>
        <time>2023-04-30T11:01:03Z</time>
      </trkpt>
      <trkpt lat="38.242934" lon="-1.438276">
        <ele>165.4</ele>
        <time>2023-04-30T11:01:08Z</time>
      </trkpt>
      <trkpt lat="38.242958" lon="-1.438189">
        <ele>164.4</ele>
        <time>2023-04-30T11:01:13Z</time>
      </trkpt>
      <trkpt lat="38.242989" lon="-1.438109">
        <ele>164.2</ele>
        <time>2023-04-30T11:01:18Z</time>
      </trkpt>
      <trkpt lat="38.243007" lon="-1.438030">
        <ele>163.4</ele>
        <time>2023-04-30T11:01:22Z</time>
      </trkpt>
      <trkpt lat="38.243030" lon="-1.437944">
        <ele>163.4</ele>
        <time>2023-04-30T11:01:27Z</time>
      </trkpt>
      <trkpt lat="38.243062" lon="-1.437855">
        <ele>163.3</ele>
        <time>2023-04-30T11:01:33Z</time>
      </trkpt>
      <trkpt lat="38.243095" lon="-1.437782">
        <ele>164.3</ele>
        <time>2023-04-30T11:01:38Z</time>
      </trkpt>
      <trkpt lat="38.243124" lon="-1.437703">
        <ele>163.6</ele>
        <time>2023-04-30T11:01:44Z</time>
      </trkpt>
      <trkpt lat="38.243150" lon="-1.437623">
        <ele>162.4</ele>
        <time>2023-04-30T11:01:49Z</time>
      </trkpt>
      <trkpt lat="38.243185" lon="-1.437555">
        <ele>162.4</ele>
        <time>2023-04-30T11:01:53Z</time>
      </trkpt>
      <trkpt lat="38.243234" lon="-1.437484">
        <ele>162.4</ele>
        <time>2023-04-30T11:01:59Z</time>
      </trkpt>
      <trkpt lat="38.243286" lon="-1.437416">
        <ele>163.1</ele>
        <time>2023-04-30T11:02:04Z</time>
      </trkpt>
      <trkpt lat="38.243345" lon="-1.437371">
        <ele>163.3</ele>
        <time>2023-04-30T11:02:09Z</time>
      </trkpt>
      <trkpt lat="38.243401" lon="-1.437329">
        <ele>164.4</ele>
        <time>2023-04-30T11:02:13Z</time>
      </trkpt>
      <trkpt lat="38.243464" lon="-1.437305">
        <ele>164.4</ele>
        <time>2023-04-30T11:02:18Z</time>
      </trkpt>
      <trkpt lat="38.243527" lon="-1.437294">
        <ele>165.3</ele>
        <time>2023-04-30T11:02:23Z</time>
      </trkpt>
      <trkpt lat="38.243588" lon="-1.437264">
        <ele>166.3</ele>
        <time>2023-04-30T11:02:27Z</time>
      </trkpt>
      <trkpt lat="38.243654" lon="-1.437226">
        <ele>166.4</ele>
        <time>2023-04-30T11:02:33Z</time>
      </trkpt>
      <trkpt lat="38.243724" lon="-1.437192">
        <ele>164.6</ele>
        <time>2023-04-30T11:02:39Z</time>
      </trkpt>
      <trkpt lat="38.243787" lon="-1.437155">
        <ele>164.4</ele>
        <time>2023-04-30T11:02:43Z</time>
      </trkpt>
      <trkpt lat="38.243854" lon="-1.437111">
        <ele>164.4</ele>
        <time>2023-04-30T11:02:48Z</time>
      </trkpt>
      <trkpt lat="38.243919" lon="-1.437059">
        <ele>163.4</ele>
        <time>2023-04-30T11:02:53Z</time>
      </trkpt>
      <trkpt lat="38.243977" lon="-1.437018">
        <ele>163.4</ele>
        <time>2023-04-30T11:02:58Z</time>
      </trkpt>
      <trkpt lat="38.244044" lon="-1.436973">
        <ele>163.4</ele>
        <time>2023-04-30T11:03:03Z</time>
      </trkpt>
      <trkpt lat="38.244110" lon="-1.436927">
        <ele>162.4</ele>
        <time>2023-04-30T11:03:08Z</time>
      </trkpt>
      <trkpt lat="38.244165" lon="-1.436883">
        <ele>162.4</ele>
        <time>2023-04-30T11:03:12Z</time>
      </trkpt>
      <trkpt lat="38.244223" lon="-1.436843">
        <ele>163.3</ele>
        <time>2023-04-30T11:03:17Z</time>
      </trkpt>
      <trkpt lat="38.244294" lon="-1.436818">
        <ele>162.4</ele>
        <time>2023-04-30T11:03:22Z</time>
      </trkpt>
      <trkpt lat="38.244367" lon="-1.436793">
        <ele>162.4</ele>
        <time>2023-04-30T11:03:26Z</time>
      </trkpt>
      <trkpt lat="38.244430" lon="-1.436771">
        <ele>162.4</ele>
        <time>2023-04-30T11:03:31Z</time>
      </trkpt>
      <trkpt lat="38.244496" lon="-1.436750">
        <ele>161.5</ele>
        <time>2023-04-30T11:03:36Z</time>
      </trkpt>
      <trkpt lat="38.244553" lon="-1.436723">
        <ele>161.4</ele>
        <time>2023-04-30T11:03:42Z</time>
      </trkpt>
      <trkpt lat="38.244619" lon="-1.436686">
        <ele>162.4</ele>
        <time>2023-04-30T11:03:48Z</time>
      </trkpt>
      <trkpt lat="38.244676" lon="-1.436640">
        <ele>163.4</ele>
        <time>2023-04-30T11:03:54Z</time>
      </trkpt>
      <trkpt lat="38.244739" lon="-1.436582">
        <ele>162.6</ele>
        <time>2023-04-30T11:04:00Z</time>
      </trkpt>
      <trkpt lat="38.244776" lon="-1.436588">
        <ele>168.9</ele>
        <time>2023-04-30T11:06:48Z</time>
      </trkpt>
      <trkpt lat="38.244720" lon="-1.436635">
        <ele>168.9</ele>
        <time>2023-04-30T11:07:10Z</time>
      </trkpt>
      <trkpt lat="38.244671" lon="-1.436701">
        <ele>168.9</ele>
        <time>2023-04-30T11:07:17Z</time>
      </trkpt>
      <trkpt lat="38.244612" lon="-1.436739">
        <ele>168.9</ele>
        <time>2023-04-30T11:07:27Z</time>
      </trkpt>
      <trkpt lat="38.244548" lon="-1.436767">
        <ele>188.0</ele>
        <time>2023-04-30T11:07:36Z</time>
      </trkpt>
      <trkpt lat="38.244530" lon="-1.436849">
        <ele>191.8</ele>
        <time>2023-04-30T11:07:50Z</time>
      </trkpt>
      <trkpt lat="38.244560" lon="-1.436924">
        <ele>162.4</ele>
        <time>2023-04-30T11:08:03Z</time>
      </trkpt>
      <trkpt lat="38.244573" lon="-1.436940">
        <ele>163.6</ele>
        <time>2023-04-30T11:10:19Z</time>
      </trkpt>
      <trkpt lat="38.244586" lon="-1.437022">
        <ele>163.4</ele>
        <time>2023-04-30T11:10:26Z</time>
      </trkpt>
      <trkpt lat="38.244600" lon="-1.437104">
        <ele>162.5</ele>
        <time>2023-04-30T11:10:33Z</time>
      </trkpt>
      <trkpt lat="38.244650" lon="-1.437157">
        <ele>161.4</ele>
        <time>2023-04-30T11:10:46Z</time>
      </trkpt>
      <trkpt lat="38.244710" lon="-1.437124">
        <ele>162.3</ele>
        <time>2023-04-30T11:10:56Z</time>
      </trkpt>
      <trkpt lat="38.244772" lon="-1.437095">
        <ele>162.3</ele>
        <time>2023-04-30T11:11:02Z</time>
      </trkpt>
      <trkpt lat="38.244844" lon="-1.437072">
        <ele>162.3</ele>
        <time>2023-04-30T11:11:08Z</time>
      </trkpt>
      <trkpt lat="38.244902" lon="-1.437040">
        <ele>186.6</ele>
        <time>2023-04-30T11:11:13Z</time>
      </trkpt>
      <trkpt lat="38.244974" lon="-1.437015">
        <ele>163.3</ele>
        <time>2023-04-30T11:11:19Z</time>
      </trkpt>
      <trkpt lat="38.245042" lon="-1.436972">
        <ele>164.6</ele>
        <time>2023-04-30T11:11:26Z</time>
      </trkpt>
      <trkpt lat="38.245113" lon="-1.436939">
        <ele>168.9</ele>
        <time>2023-04-30T11:11:31Z</time>
      </trkpt>
      <trkpt lat="38.245171" lon="-1.436905">
        <ele>168.9</ele>
        <time>2023-04-30T11:11:36Z</time>
      </trkpt>
      <trkpt lat="38.245234" lon="-1.436888">
        <ele>168.9</ele>
        <time>2023-04-30T11:11:41Z</time>
      </trkpt>
      <trkpt lat="38.245306" lon="-1.436856">
        <ele>168.9</ele>
        <time>2023-04-30T11:11:46Z</time>
      </trkpt>
      <trkpt lat="38.245369" lon="-1.436816">
        <ele>168.9</ele>
        <time>2023-04-30T11:11:51Z</time>
      </trkpt>
      <trkpt lat="38.245435" lon="-1.436782">
        <ele>168.9</ele>
        <time>2023-04-30T11:11:57Z</time>
      </trkpt>
      <trkpt lat="38.245463" lon="-1.436707">
        <ele>168.9</ele>
        <time>2023-04-30T11:12:06Z</time>
      </trkpt>
      <trkpt lat="38.245532" lon="-1.436676">
        <ele>168.9</ele>
        <time>2023-04-30T11:12:12Z</time>
      </trkpt>
      <trkpt lat="38.245596" lon="-1.436635">
        <ele>168.9</ele>
        <time>2023-04-30T11:12:19Z</time>
      </trkpt>
      <trkpt lat="38.245645" lon="-1.436581">
        <ele>185.6</ele>
        <time>2023-04-30T11:12:32Z</time>
      </trkpt>
      <trkpt lat="38.245710" lon="-1.436546">
        <ele>185.6</ele>
        <time>2023-04-30T11:12:37Z</time>
      </trkpt>
      <trkpt lat="38.245765" lon="-1.436474">
        <ele>185.6</ele>
        <time>2023-04-30T11:12:43Z</time>
      </trkpt>
      <trkpt lat="38.245807" lon="-1.436412">
        <ele>185.6</ele>
        <time>2023-04-30T11:12:48Z</time>
      </trkpt>
      <trkpt lat="38.245863" lon="-1.436354">
        <ele>185.6</ele>
        <time>2023-04-30T11:12:54Z</time>
      </trkpt>
      <trkpt lat="38.245913" lon="-1.436297">
        <ele>185.6</ele>
        <time>2023-04-30T11:12:59Z</time>
      </trkpt>
      <trkpt lat="38.245952" lon="-1.436218">
        <ele>214.8</ele>
        <time>2023-04-30T11:13:04Z</time>
      </trkpt>
      <trkpt lat="38.245990" lon="-1.436148">
        <ele>216.7</ele>
        <time>2023-04-30T11:13:09Z</time>
      </trkpt>
      <trkpt lat="38.246030" lon="-1.436083">
        <ele>216.7</ele>
        <time>2023-04-30T11:13:14Z</time>
      </trkpt>
      <trkpt lat="38.246066" lon="-1.436006">
        <ele>168.4</ele>
        <time>2023-04-30T11:13:20Z</time>
      </trkpt>
      <trkpt lat="38.246085" lon="-1.435926">
        <ele>163.5</ele>
        <time>2023-04-30T11:13:26Z</time>
      </trkpt>
      <trkpt lat="38.246111" lon="-1.435850">
        <ele>163.4</ele>
        <time>2023-04-30T11:13:31Z</time>
      </trkpt>
      <trkpt lat="38.246138" lon="-1.435758">
        <ele>163.4</ele>
        <time>2023-04-30T11:13:36Z</time>
      </trkpt>
      <trkpt lat="38.246161" lon="-1.435669">
        <ele>163.4</ele>
        <time>2023-04-30T11:13:41Z</time>
      </trkpt>
      <trkpt lat="38.246194" lon="-1.435589">
        <ele>163.4</ele>
        <time>2023-04-30T11:13:46Z</time>
      </trkpt>
      <trkpt lat="38.246238" lon="-1.435508">
        <ele>185.5</ele>
        <time>2023-04-30T11:13:51Z</time>
      </trkpt>
      <trkpt lat="38.246280" lon="-1.435442">
        <ele>185.6</ele>
        <time>2023-04-30T11:13:56Z</time>
      </trkpt>
      <trkpt lat="38.246317" lon="-1.435378">
        <ele>185.6</ele>
        <time>2023-04-30T11:14:00Z</time>
      </trkpt>
      <trkpt lat="38.246360" lon="-1.435317">
        <ele>185.6</ele>
        <time>2023-04-30T11:14:05Z</time>
      </trkpt>
      <trkpt lat="38.246412" lon="-1.435250">
        <ele>185.6</ele>
        <time>2023-04-30T11:14:11Z</time>
      </trkpt>
      <trkpt lat="38.246463" lon="-1.435180">
        <ele>185.6</ele>
        <time>2023-04-30T11:14:17Z</time>
      </trkpt>
      <trkpt lat="38.246504" lon="-1.435117">
        <ele>165.4</ele>
        <time>2023-04-30T11:14:22Z</time>
      </trkpt>
      <trkpt lat="38.246543" lon="-1.435052">
        <ele>166.7</ele>
        <time>2023-04-30T11:14:27Z</time>
      </trkpt>
      <trkpt lat="38.246583" lon="-1.434978">
        <ele>166.1</ele>
        <time>2023-04-30T11:14:32Z</time>
      </trkpt>
      <trkpt lat="38.246623" lon="-1.434905">
        <ele>164.6</ele>
        <time>2023-04-30T11:14:37Z</time>
      </trkpt>
      <trkpt lat="38.246657" lon="-1.434820">
        <ele>166.1</ele>
        <time>2023-04-30T11:14:43Z</time>
      </trkpt>
      <trkpt lat="38.246696" lon="-1.434751">
        <ele>165.4</ele>
        <time>2023-04-30T11:14:48Z</time>
      </trkpt>
      <trkpt lat="38.246730" lon="-1.434674">
        <ele>165.4</ele>
        <time>2023-04-30T11:14:53Z</time>
      </trkpt>
      <trkpt lat="38.246763" lon="-1.434598">
        <ele>185.3</ele>
        <time>2023-04-30T11:14:58Z</time>
      </trkpt>
      <trkpt lat="38.246792" lon="-1.434523">
        <ele>184.6</ele>
        <time>2023-04-30T11:15:03Z</time>
      </trkpt>
      <trkpt lat="38.246830" lon="-1.434443">
        <ele>166.7</ele>
        <time>2023-04-30T11:15:09Z</time>
      </trkpt>
      <trkpt lat="38.246865" lon="-1.434368">
        <ele>170.4</ele>
        <time>2023-04-30T11:15:14Z</time>
      </trkpt>
      <trkpt lat="38.246899" lon="-1.434297">
        <ele>180.6</ele>
        <time>2023-04-30T11:15:19Z</time>
      </trkpt>
      <trkpt lat="38.246932" lon="-1.434223">
        <ele>171.9</ele>
        <time>2023-04-30T11:15:24Z</time>
      </trkpt>
      <trkpt lat="38.246974" lon="-1.434144">
        <ele>184.4</ele>
        <time>2023-04-30T11:15:30Z</time>
      </trkpt>
      <trkpt lat="38.247013" lon="-1.434070">
        <ele>167.8</ele>
        <time>2023-04-30T11:15:35Z</time>
      </trkpt>
      <trkpt lat="38.247053" lon="-1.434006">
        <ele>169.2</ele>
        <time>2023-04-30T11:15:40Z</time>
      </trkpt>
      <trkpt lat="38.247089" lon="-1.433938">
        <ele>169.4</ele>
        <time>2023-04-30T11:15:45Z</time>
      </trkpt>
      <trkpt lat="38.247119" lon="-1.433860">
        <ele>168.1</ele>
        <time>2023-04-30T11:15:50Z</time>
      </trkpt>
      <trkpt lat="38.247151" lon="-1.433780">
        <ele>169.4</ele>
        <time>2023-04-30T11:15:56Z</time>
      </trkpt>
      <trkpt lat="38.247175" lon="-1.433698">
        <ele>169.4</ele>
        <time>2023-04-30T11:16:01Z</time>
      </trkpt>
      <trkpt lat="38.247195" lon="-1.433622">
        <ele>169.4</ele>
        <time>2023-04-30T11:16:07Z</time>
      </trkpt>
      <trkpt lat="38.247202" lon="-1.433534">
        <ele>169.4</ele>
        <time>2023-04-30T11:16:12Z</time>
      </trkpt>
      <trkpt lat="38.247207" lon="-1.433442">
        <ele>169.4</ele>
        <time>2023-04-30T11:16:17Z</time>
      </trkpt>
      <trkpt lat="38.247212" lon="-1.433352">
        <ele>169.4</ele>
        <time>2023-04-30T11:16:22Z</time>
      </trkpt>
      <trkpt lat="38.247202" lon="-1.433268">
        <ele>169.4</ele>
        <time>2023-04-30T11:16:27Z</time>
      </trkpt>
      <trkpt lat="38.247189" lon="-1.433178">
        <ele>169.4</ele>
        <time>2023-04-30T11:16:33Z</time>
      </trkpt>
      <trkpt lat="38.247170" lon="-1.433101">
        <ele>168.4</ele>
        <time>2023-04-30T11:16:39Z</time>
      </trkpt>
      <trkpt lat="38.247143" lon="-1.433021">
        <ele>162.5</ele>
        <time>2023-04-30T11:16:44Z</time>
      </trkpt>
      <trkpt lat="38.247107" lon="-1.432938">
        <ele>167.9</ele>
        <time>2023-04-30T11:16:49Z</time>
      </trkpt>
      <trkpt lat="38.247083" lon="-1.432850">
        <ele>164.6</ele>
        <time>2023-04-30T11:16:54Z</time>
      </trkpt>
      <trkpt lat="38.247051" lon="-1.432780">
        <ele>166.6</ele>
        <time>2023-04-30T11:16:59Z</time>
      </trkpt>
      <trkpt lat="38.247004" lon="-1.432710">
        <ele>163.4</ele>
        <time>2023-04-30T11:17:04Z</time>
      </trkpt>
      <trkpt lat="38.246977" lon="-1.432628">
        <ele>163.6</ele>
        <time>2023-04-30T11:17:09Z</time>
      </trkpt>
      <trkpt lat="38.246936" lon="-1.432564">
        <ele>166.9</ele>
        <time>2023-04-30T11:17:14Z</time>
      </trkpt>
      <trkpt lat="38.246899" lon="-1.432488">
        <ele>162.2</ele>
        <time>2023-04-30T11:17:20Z</time>
      </trkpt>
      <trkpt lat="38.246855" lon="-1.432418">
        <ele>162.4</ele>
        <time>2023-04-30T11:17:25Z</time>
      </trkpt>
      <trkpt lat="38.246812" lon="-1.432340">
        <ele>161.5</ele>
        <time>2023-04-30T11:17:31Z</time>
      </trkpt>
      <trkpt lat="38.246758" lon="-1.432275">
        <ele>161.4</ele>
        <time>2023-04-30T11:17:36Z</time>
      </trkpt>
      <trkpt lat="38.246704" lon="-1.432215">
        <ele>161.2</ele>
        <time>2023-04-30T11:17:41Z</time>
      </trkpt>
      <trkpt lat="38.246648" lon="-1.432157">
        <ele>160.4</ele>
        <time>2023-04-30T11:17:47Z</time>
      </trkpt>
      <trkpt lat="38.246600" lon="-1.432093">
        <ele>159.4</ele>
        <time>2023-04-30T11:17:52Z</time>
      </trkpt>
      <trkpt lat="38.246556" lon="-1.432025">
        <ele>158.5</ele>
        <time>2023-04-30T11:17:57Z</time>
      </trkpt>
      <trkpt lat="38.246504" lon="-1.431964">
        <ele>158.4</ele>
        <time>2023-04-30T11:18:02Z</time>
      </trkpt>
      <trkpt lat="38.246460" lon="-1.431896">
        <ele>159.4</ele>
        <time>2023-04-30T11:18:07Z</time>
      </trkpt>
      <trkpt lat="38.246398" lon="-1.431845">
        <ele>160.3</ele>
        <time>2023-04-30T11:18:12Z</time>
      </trkpt>
      <trkpt lat="38.246345" lon="-1.431796">
        <ele>159.6</ele>
        <time>2023-04-30T11:18:17Z</time>
      </trkpt>
      <trkpt lat="38.246285" lon="-1.431759">
        <ele>160.6</ele>
        <time>2023-04-30T11:18:22Z</time>
      </trkpt>
      <trkpt lat="38.246222" lon="-1.431733">
        <ele>169.4</ele>
        <time>2023-04-30T11:18:27Z</time>
      </trkpt>
      <trkpt lat="38.246164" lon="-1.431691">
        <ele>167.4</ele>
        <time>2023-04-30T11:18:33Z</time>
      </trkpt>
      <trkpt lat="38.246100" lon="-1.431654">
        <ele>167.4</ele>
        <time>2023-04-30T11:18:38Z</time>
      </trkpt>
      <trkpt lat="38.246032" lon="-1.431628">
        <ele>167.4</ele>
        <time>2023-04-30T11:18:43Z</time>
      </trkpt>
      <trkpt lat="38.245967" lon="-1.431593">
        <ele>167.4</ele>
        <time>2023-04-30T11:18:48Z</time>
      </trkpt>
      <trkpt lat="38.245909" lon="-1.431558">
        <ele>167.4</ele>
        <time>2023-04-30T11:18:53Z</time>
      </trkpt>
      <trkpt lat="38.245847" lon="-1.431517">
        <ele>167.4</ele>
        <time>2023-04-30T11:18:58Z</time>
      </trkpt>
      <trkpt lat="38.245785" lon="-1.431475">
        <ele>167.4</ele>
        <time>2023-04-30T11:19:04Z</time>
      </trkpt>
      <trkpt lat="38.245720" lon="-1.431434">
        <ele>167.4</ele>
        <time>2023-04-30T11:19:09Z</time>
      </trkpt>
      <trkpt lat="38.245645" lon="-1.431408">
        <ele>167.4</ele>
        <time>2023-04-30T11:19:14Z</time>
      </trkpt>
      <trkpt lat="38.245582" lon="-1.431392">
        <ele>167.4</ele>
        <time>2023-04-30T11:19:18Z</time>
      </trkpt>
      <trkpt lat="38.245525" lon="-1.431352">
        <ele>167.4</ele>
        <time>2023-04-30T11:19:23Z</time>
      </trkpt>
      <trkpt lat="38.245454" lon="-1.431328">
        <ele>167.4</ele>
        <time>2023-04-30T11:19:28Z</time>
      </trkpt>
      <trkpt lat="38.245392" lon="-1.431297">
        <ele>167.4</ele>
        <time>2023-04-30T11:19:34Z</time>
      </trkpt>
      <trkpt lat="38.245329" lon="-1.431269">
        <ele>167.4</ele>
        <time>2023-04-30T11:19:39Z</time>
      </trkpt>
      <trkpt lat="38.245266" lon="-1.431240">
        <ele>167.4</ele>
        <time>2023-04-30T11:19:44Z</time>
      </trkpt>
      <trkpt lat="38.245206" lon="-1.431206">
        <ele>167.4</ele>
        <time>2023-04-30T11:19:49Z</time>
      </trkpt>
      <trkpt lat="38.245145" lon="-1.431175">
        <ele>167.4</ele>
        <time>2023-04-30T11:19:54Z</time>
      </trkpt>
      <trkpt lat="38.245077" lon="-1.431132">
        <ele>167.4</ele>
        <time>2023-04-30T11:20:00Z</time>
      </trkpt>
      <trkpt lat="38.245014" lon="-1.431097">
        <ele>167.4</ele>
        <time>2023-04-30T11:20:05Z</time>
      </trkpt>
      <trkpt lat="38.244950" lon="-1.431049">
        <ele>167.4</ele>
        <time>2023-04-30T11:20:10Z</time>
      </trkpt>
      <trkpt lat="38.244888" lon="-1.431006">
        <ele>167.1</ele>
        <time>2023-04-30T11:20:16Z</time>
      </trkpt>
      <trkpt lat="38.244824" lon="-1.430982">
        <ele>167.1</ele>
        <time>2023-04-30T11:20:20Z</time>
      </trkpt>
      <trkpt lat="38.244757" lon="-1.430950">
        <ele>167.1</ele>
        <time>2023-04-30T11:20:25Z</time>
      </trkpt>
      <trkpt lat="38.244694" lon="-1.430919">
        <ele>160.4</ele>
        <time>2023-04-30T11:20:31Z</time>
      </trkpt>
      <trkpt lat="38.244636" lon="-1.430888">
        <ele>159.6</ele>
        <time>2023-04-30T11:20:35Z</time>
      </trkpt>
      <trkpt lat="38.244570" lon="-1.430863">
        <ele>159.2</ele>
        <time>2023-04-30T11:20:40Z</time>
      </trkpt>
      <trkpt lat="38.244508" lon="-1.430837">
        <ele>159.4</ele>
        <time>2023-04-30T11:20:45Z</time>
      </trkpt>
      <trkpt lat="38.244441" lon="-1.430821">
        <ele>158.6</ele>
        <time>2023-04-30T11:20:50Z</time>
      </trkpt>
      <trkpt lat="38.244392" lon="-1.430793">
        <ele>151.9</ele>
        <time>2023-04-30T11:22:55Z</time>
      </trkpt>
      <trkpt lat="38.244330" lon="-1.430766">
        <ele>152.4</ele>
        <time>2023-04-30T11:23:02Z</time>
      </trkpt>
      <trkpt lat="38.244256" lon="-1.430784">
        <ele>151.6</ele>
        <time>2023-04-30T11:23:09Z</time>
      </trkpt>
      <trkpt lat="38.244189" lon="-1.430778">
        <ele>187.6</ele>
        <time>2023-04-30T11:23:14Z</time>
      </trkpt>
      <trkpt lat="38.244113" lon="-1.430782">
        <ele>187.6</ele>
        <time>2023-04-30T11:23:19Z</time>
      </trkpt>
      <trkpt lat="38.244042" lon="-1.430773">
        <ele>173.4</ele>
        <time>2023-04-30T11:23:25Z</time>
      </trkpt>
      <trkpt lat="38.243984" lon="-1.430732">
        <ele>203.7</ele>
        <time>2023-04-30T11:23:35Z</time>
      </trkpt>
      <trkpt lat="38.243916" lon="-1.430685">
        <ele>203.7</ele>
        <time>2023-04-30T11:23:41Z</time>
      </trkpt>
      <trkpt lat="38.243838" lon="-1.430650">
        <ele>203.7</ele>
        <time>2023-04-30T11:23:46Z</time>
      </trkpt>
      <trkpt lat="38.243775" lon="-1.430605">
        <ele>203.7</ele>
        <time>2023-04-30T11:23:52Z</time>
      </trkpt>
      <trkpt lat="38.243714" lon="-1.430574">
        <ele>203.7</ele>
        <time>2023-04-30T11:23:57Z</time>
      </trkpt>
      <trkpt lat="38.243642" lon="-1.430534">
        <ele>203.7</ele>
        <time>2023-04-30T11:24:02Z</time>
      </trkpt>
      <trkpt lat="38.243577" lon="-1.430496">
        <ele>173.4</ele>
        <time>2023-04-30T11:24:07Z</time>
      </trkpt>
      <trkpt lat="38.243514" lon="-1.430465">
        <ele>173.4</ele>
        <time>2023-04-30T11:24:12Z</time>
      </trkpt>
      <trkpt lat="38.243441" lon="-1.430441">
        <ele>173.4</ele>
        <time>2023-04-30T11:24:17Z</time>
      </trkpt>
      <trkpt lat="38.243377" lon="-1.430411">
        <ele>173.4</ele>
        <time>2023-04-30T11:24:22Z</time>
      </trkpt>
      <trkpt lat="38.243314" lon="-1.430393">
        <ele>175.1</ele>
        <time>2023-04-30T11:24:26Z</time>
      </trkpt>
      <trkpt lat="38.243237" lon="-1.430373">
        <ele>173.4</ele>
        <time>2023-04-30T11:24:31Z</time>
      </trkpt>
      <trkpt lat="38.243173" lon="-1.430347">
        <ele>159.4</ele>
        <time>2023-04-30T11:24:36Z</time>
      </trkpt>
      <trkpt lat="38.243107" lon="-1.430314">
        <ele>172.5</ele>
        <time>2023-04-30T11:24:41Z</time>
      </trkpt>
      <trkpt lat="38.243049" lon="-1.430279">
        <ele>159.5</ele>
        <time>2023-04-30T11:24:46Z</time>
      </trkpt>
      <trkpt lat="38.242984" lon="-1.430225">
        <ele>173.1</ele>
        <time>2023-04-30T11:24:52Z</time>
      </trkpt>
      <trkpt lat="38.242919" lon="-1.430179">
        <ele>157.6</ele>
        <time>2023-04-30T11:24:57Z</time>
      </trkpt>
      <trkpt lat="38.242864" lon="-1.430131">
        <ele>173.2</ele>
        <time>2023-04-30T11:25:02Z</time>
      </trkpt>
      <trkpt lat="38.242810" lon="-1.430085">
        <ele>157.9</ele>
        <time>2023-04-30T11:25:07Z</time>
      </trkpt>
      <trkpt lat="38.242745" lon="-1.430048">
        <ele>173.1</ele>
        <time>2023-04-30T11:25:12Z</time>
      </trkpt>
      <trkpt lat="38.242683" lon="-1.430013">
        <ele>173.4</ele>
        <time>2023-04-30T11:25:17Z</time>
      </trkpt>
      <trkpt lat="38.242626" lon="-1.429974">
        <ele>173.4</ele>
        <time>2023-04-30T11:25:22Z</time>
      </trkpt>
      <trkpt lat="38.242568" lon="-1.429916">
        <ele>168.2</ele>
        <time>2023-04-30T11:25:28Z</time>
      </trkpt>
      <trkpt lat="38.242499" lon="-1.429876">
        <ele>168.2</ele>
        <time>2023-04-30T11:25:33Z</time>
      </trkpt>
      <trkpt lat="38.242436" lon="-1.429827">
        <ele>173.3</ele>
        <time>2023-04-30T11:25:38Z</time>
      </trkpt>
      <trkpt lat="38.242378" lon="-1.429769">
        <ele>168.3</ele>
        <time>2023-04-30T11:25:43Z</time>
      </trkpt>
      <trkpt lat="38.242330" lon="-1.429707">
        <ele>173.3</ele>
        <time>2023-04-30T11:25:48Z</time>
      </trkpt>
      <trkpt lat="38.242275" lon="-1.429652">
        <ele>173.4</ele>
        <time>2023-04-30T11:25:53Z</time>
      </trkpt>
      <trkpt lat="38.242227" lon="-1.429590">
        <ele>173.4</ele>
        <time>2023-04-30T11:25:57Z</time>
      </trkpt>
      <trkpt lat="38.242181" lon="-1.429518">
        <ele>167.5</ele>
        <time>2023-04-30T11:26:02Z</time>
      </trkpt>
      <trkpt lat="38.242133" lon="-1.429440">
        <ele>172.5</ele>
        <time>2023-04-30T11:26:07Z</time>
      </trkpt>
      <trkpt lat="38.242087" lon="-1.429378">
        <ele>158.4</ele>
        <time>2023-04-30T11:26:12Z</time>
      </trkpt>
      <trkpt lat="38.242048" lon="-1.429310">
        <ele>168.6</ele>
        <time>2023-04-30T11:26:17Z</time>
      </trkpt>
      <trkpt lat="38.242011" lon="-1.429244">
        <ele>172.6</ele>
        <time>2023-04-30T11:26:22Z</time>
      </trkpt>
      <trkpt lat="38.241976" lon="-1.429173">
        <ele>173.4</ele>
        <time>2023-04-30T11:26:28Z</time>
      </trkpt>
      <trkpt lat="38.241926" lon="-1.429111">
        <ele>173.4</ele>
        <time>2023-04-30T11:26:35Z</time>
      </trkpt>
      <trkpt lat="38.241936" lon="-1.429030">
        <ele>159.6</ele>
        <time>2023-04-30T11:26:42Z</time>
      </trkpt>
      <trkpt lat="38.241866" lon="-1.429012">
        <ele>169.6</ele>
        <time>2023-04-30T11:26:46Z</time>
      </trkpt>
      <trkpt lat="38.241803" lon="-1.428984">
        <ele>173.4</ele>
        <time>2023-04-30T11:26:50Z</time>
      </trkpt>
      <trkpt lat="38.241738" lon="-1.428961">
        <ele>173.4</ele>
        <time>2023-04-30T11:26:55Z</time>
      </trkpt>
      <trkpt lat="38.241675" lon="-1.428935">
        <ele>170.0</ele>
        <time>2023-04-30T11:27:00Z</time>
      </trkpt>
      <trkpt lat="38.241607" lon="-1.428876">
        <ele>173.1</ele>
        <time>2023-04-30T11:27:07Z</time>
      </trkpt>
      <trkpt lat="38.241559" lon="-1.428809">
        <ele>175.0</ele>
        <time>2023-04-30T11:27:12Z</time>
      </trkpt>
      <trkpt lat="38.241514" lon="-1.428741">
        <ele>173.5</ele>
        <time>2023-04-30T11:27:17Z</time>
      </trkpt>
      <trkpt lat="38.241463" lon="-1.428690">
        <ele>170.8</ele>
        <time>2023-04-30T11:27:22Z</time>
      </trkpt>
      <trkpt lat="38.241411" lon="-1.428645">
        <ele>173.2</ele>
        <time>2023-04-30T11:27:27Z</time>
      </trkpt>
      <trkpt lat="38.241358" lon="-1.428595">
        <ele>173.4</ele>
        <time>2023-04-30T11:27:32Z</time>
      </trkpt>
      <trkpt lat="38.241301" lon="-1.428560">
        <ele>169.1</ele>
        <time>2023-04-30T11:27:37Z</time>
      </trkpt>
      <trkpt lat="38.241247" lon="-1.428517">
        <ele>173.1</ele>
        <time>2023-04-30T11:27:42Z</time>
      </trkpt>
      <trkpt lat="38.241183" lon="-1.428462">
        <ele>173.4</ele>
        <time>2023-04-30T11:27:48Z</time>
      </trkpt>
      <trkpt lat="38.241120" lon="-1.428412">
        <ele>157.2</ele>
        <time>2023-04-30T11:27:54Z</time>
      </trkpt>
      <trkpt lat="38.241066" lon="-1.428365">
        <ele>156.4</ele>
        <time>2023-04-30T11:27:59Z</time>
      </trkpt>
      <trkpt lat="38.241012" lon="-1.428320">
        <ele>157.4</ele>
        <time>2023-04-30T11:28:04Z</time>
      </trkpt>
      <trkpt lat="38.240946" lon="-1.428279">
        <ele>156.5</ele>
        <time>2023-04-30T11:28:10Z</time>
      </trkpt>
      <trkpt lat="38.240887" lon="-1.428240">
        <ele>157.1</ele>
        <time>2023-04-30T11:28:15Z</time>
      </trkpt>
      <trkpt lat="38.240831" lon="-1.428203">
        <ele>171.6</ele>
        <time>2023-04-30T11:28:20Z</time>
      </trkpt>
      <trkpt lat="38.240763" lon="-1.428157">
        <ele>173.4</ele>
        <time>2023-04-30T11:28:26Z</time>
      </trkpt>
      <trkpt lat="38.240703" lon="-1.428125">
        <ele>173.4</ele>
        <time>2023-04-30T11:28:31Z</time>
      </trkpt>
      <trkpt lat="38.240632" lon="-1.428092">
        <ele>177.9</ele>
        <time>2023-04-30T11:28:37Z</time>
      </trkpt>
      <trkpt lat="38.240566" lon="-1.428060">
        <ele>178.5</ele>
        <time>2023-04-30T11:28:43Z</time>
      </trkpt>
      <trkpt lat="38.240500" lon="-1.428036">
        <ele>184.3</ele>
        <time>2023-04-30T11:28:48Z</time>
      </trkpt>
      <trkpt lat="38.240435" lon="-1.427996">
        <ele>173.4</ele>
        <time>2023-04-30T11:28:55Z</time>
      </trkpt>
      <trkpt lat="38.240377" lon="-1.427960">
        <ele>160.6</ele>
        <time>2023-04-30T11:29:00Z</time>
      </trkpt>
      <trkpt lat="38.240316" lon="-1.427934">
        <ele>171.7</ele>
        <time>2023-04-30T11:29:05Z</time>
      </trkpt>
      <trkpt lat="38.240248" lon="-1.427913">
        <ele>170.6</ele>
        <time>2023-04-30T11:29:10Z</time>
      </trkpt>
      <trkpt lat="38.240187" lon="-1.427889">
        <ele>170.6</ele>
        <time>2023-04-30T11:29:15Z</time>
      </trkpt>
      <trkpt lat="38.240122" lon="-1.427885">
        <ele>172.3</ele>
        <time>2023-04-30T11:29:20Z</time>
      </trkpt>
      <trkpt lat="38.240058" lon="-1.427874">
        <ele>170.6</ele>
        <time>2023-04-30T11:29:24Z</time>
      </trkpt>
      <trkpt lat="38.239985" lon="-1.427864">
        <ele>168.4</ele>
        <time>2023-04-30T11:29:29Z</time>
      </trkpt>
      <trkpt lat="38.239922" lon="-1.427849">
        <ele>173.0</ele>
        <time>2023-04-30T11:29:34Z</time>
      </trkpt>
      <trkpt lat="38.239856" lon="-1.427839">
        <ele>170.6</ele>
        <time>2023-04-30T11:29:39Z</time>
      </trkpt>
      <trkpt lat="38.239782" lon="-1.427822">
        <ele>169.5</ele>
        <time>2023-04-30T11:29:45Z</time>
      </trkpt>
      <trkpt lat="38.239727" lon="-1.427781">
        <ele>168.4</ele>
        <time>2023-04-30T11:29:50Z</time>
      </trkpt>
      <trkpt lat="38.239692" lon="-1.427713">
        <ele>168.2</ele>
        <time>2023-04-30T11:29:56Z</time>
      </trkpt>
      <trkpt lat="38.239626" lon="-1.427700">
        <ele>170.6</ele>
        <time>2023-04-30T11:30:03Z</time>
      </trkpt>
      <trkpt lat="38.239601" lon="-1.427626">
        <ele>168.3</ele>
        <time>2023-04-30T11:30:08Z</time>
      </trkpt>
      <trkpt lat="38.239599" lon="-1.427533">
        <ele>169.5</ele>
        <time>2023-04-30T11:30:14Z</time>
      </trkpt>
      <trkpt lat="38.239554" lon="-1.427477">
        <ele>170.6</ele>
        <time>2023-04-30T11:30:21Z</time>
      </trkpt>
      <trkpt lat="38.239484" lon="-1.427469">
        <ele>170.6</ele>
        <time>2023-04-30T11:30:26Z</time>
      </trkpt>
      <trkpt lat="38.239416" lon="-1.427479">
        <ele>159.4</ele>
        <time>2023-04-30T11:30:31Z</time>
      </trkpt>
      <trkpt lat="38.239353" lon="-1.427490">
        <ele>166.6</ele>
        <time>2023-04-30T11:30:36Z</time>
      </trkpt>
      <trkpt lat="38.239271" lon="-1.427516">
        <ele>159.6</ele>
        <time>2023-04-30T11:30:43Z</time>
      </trkpt>
      <trkpt lat="38.239210" lon="-1.427540">
        <ele>157.4</ele>
        <time>2023-04-30T11:30:48Z</time>
      </trkpt>
      <trkpt lat="38.239145" lon="-1.427568">
        <ele>166.4</ele>
        <time>2023-04-30T11:30:54Z</time>
      </trkpt>
      <trkpt lat="38.239083" lon="-1.427594">
        <ele>166.6</ele>
        <time>2023-04-30T11:30:59Z</time>
      </trkpt>
      <trkpt lat="38.239015" lon="-1.427623">
        <ele>178.4</ele>
        <time>2023-04-30T11:31:05Z</time>
      </trkpt>
      <trkpt lat="38.238955" lon="-1.427648">
        <ele>166.0</ele>
        <time>2023-04-30T11:31:10Z</time>
      </trkpt>
      <trkpt lat="38.238888" lon="-1.427664">
        <ele>165.9</ele>
        <time>2023-04-30T11:31:16Z</time>
      </trkpt>
      <trkpt lat="38.238828" lon="-1.427689">
        <ele>166.0</ele>
        <time>2023-04-30T11:31:22Z</time>
      </trkpt>
      <trkpt lat="38.238760" lon="-1.427695">
        <ele>166.0</ele>
        <time>2023-04-30T11:31:27Z</time>
      </trkpt>
      <trkpt lat="38.238694" lon="-1.427704">
        <ele>166.4</ele>
        <time>2023-04-30T11:31:32Z</time>
      </trkpt>
      <trkpt lat="38.238628" lon="-1.427706">
        <ele>166.6</ele>
        <time>2023-04-30T11:31:36Z</time>
      </trkpt>
      <trkpt lat="38.238558" lon="-1.427726">
        <ele>166.6</ele>
        <time>2023-04-30T11:31:42Z</time>
      </trkpt>
      <trkpt lat="38.238495" lon="-1.427746">
        <ele>166.6</ele>
        <time>2023-04-30T11:31:47Z</time>
      </trkpt>
      <trkpt lat="38.238425" lon="-1.427786">
        <ele>166.6</ele>
        <time>2023-04-30T11:31:53Z</time>
      </trkpt>
      <trkpt lat="38.238366" lon="-1.427817">
        <ele>166.6</ele>
        <time>2023-04-30T11:31:58Z</time>
      </trkpt>
      <trkpt lat="38.238310" lon="-1.427861">
        <ele>166.9</ele>
        <time>2023-04-30T11:32:04Z</time>
      </trkpt>
      <trkpt lat="38.238251" lon="-1.427910">
        <ele>166.8</ele>
        <time>2023-04-30T11:32:10Z</time>
      </trkpt>
      <trkpt lat="38.238195" lon="-1.427972">
        <ele>166.6</ele>
        <time>2023-04-30T11:32:16Z</time>
      </trkpt>
      <trkpt lat="38.238139" lon="-1.428029">
        <ele>184.0</ele>
        <time>2023-04-30T11:32:22Z</time>
      </trkpt>
      <trkpt lat="38.238093" lon="-1.428088">
        <ele>166.6</ele>
        <time>2023-04-30T11:32:28Z</time>
      </trkpt>
      <trkpt lat="38.238047" lon="-1.428147">
        <ele>155.4</ele>
        <time>2023-04-30T11:32:36Z</time>
      </trkpt>
      <trkpt lat="38.237987" lon="-1.428204">
        <ele>182.2</ele>
        <time>2023-04-30T11:32:44Z</time>
      </trkpt>
      <trkpt lat="38.237943" lon="-1.428278">
        <ele>178.6</ele>
        <time>2023-04-30T11:32:50Z</time>
      </trkpt>
      <trkpt lat="38.237894" lon="-1.428345">
        <ele>184.0</ele>
        <time>2023-04-30T11:32:56Z</time>
      </trkpt>
      <trkpt lat="38.237848" lon="-1.428413">
        <ele>182.3</ele>
        <time>2023-04-30T11:33:04Z</time>
      </trkpt>
      <trkpt lat="38.237787" lon="-1.428446">
        <ele>184.0</ele>
        <time>2023-04-30T11:33:21Z</time>
      </trkpt>
      <trkpt lat="38.237752" lon="-1.428519">
        <ele>183.6</ele>
        <time>2023-04-30T11:33:30Z</time>
      </trkpt>
      <trkpt lat="38.237702" lon="-1.428577">
        <ele>183.6</ele>
        <time>2023-04-30T11:33:40Z</time>
      </trkpt>
      <trkpt lat="38.237717" lon="-1.428642">
        <ele>158.4</ele>
        <time>2023-04-30T11:35:45Z</time>
      </trkpt>
      <trkpt lat="38.237704" lon="-1.428720">
        <ele>159.4</ele>
        <time>2023-04-30T11:35:53Z</time>
      </trkpt>
      <trkpt lat="38.237691" lon="-1.428809">
        <ele>162.4</ele>
        <time>2023-04-30T11:36:01Z</time>
      </trkpt>
      <trkpt lat="38.237677" lon="-1.428892">
        <ele>163.4</ele>
        <time>2023-04-30T11:36:08Z</time>
      </trkpt>
      <trkpt lat="38.237657" lon="-1.428973">
        <ele>165.6</ele>
        <time>2023-04-30T11:36:14Z</time>
      </trkpt>
      <trkpt lat="38.237642" lon="-1.429065">
        <ele>166.6</ele>
        <time>2023-04-30T11:36:20Z</time>
      </trkpt>
      <trkpt lat="38.237614" lon="-1.429142">
        <ele>166.6</ele>
        <time>2023-04-30T11:36:27Z</time>
      </trkpt>
      <trkpt lat="38.237581" lon="-1.429213">
        <ele>168.6</ele>
        <time>2023-04-30T11:36:35Z</time>
      </trkpt>
      <trkpt lat="38.237530" lon="-1.429272">
        <ele>166.6</ele>
        <time>2023-04-30T11:36:42Z</time>
      </trkpt>
      <trkpt lat="38.237508" lon="-1.429356">
        <ele>168.6</ele>
        <time>2023-04-30T11:36:48Z</time>
      </trkpt>
      <trkpt lat="38.237476" lon="-1.429427">
        <ele>160.3</ele>
        <time>2023-04-30T11:37:01Z</time>
      </trkpt>
      <trkpt lat="38.237430" lon="-1.429367">
        <ele>167.3</ele>
        <time>2023-04-30T11:37:22Z</time>
      </trkpt>
      <trkpt lat="38.237398" lon="-1.429446">
        <ele>168.1</ele>
        <time>2023-04-30T11:37:43Z</time>
      </trkpt>
      <trkpt lat="38.237371" lon="-1.429536">
        <ele>170.0</ele>
        <time>2023-05-27T09:27:17Z</time>
      </trkpt>
      <trkpt lat="38.237453" lon="-1.429570">
        <ele>170.0</ele>
        <time>2023-05-27T09:28:10Z</time>
      </trkpt>
      <trkpt lat="38.237616" lon="-1.429633">
        <ele>170.0</ele>
        <time>2023-05-27T09:28:37Z</time>
      </trkpt>
      <trkpt lat="38.237783" lon="-1.429766">
        <ele>170.0</ele>
        <time>2023-05-27T09:29:21Z</time>
      </trkpt>
      <trkpt lat="38.237933" lon="-1.429883">
        <ele>170.0</ele>
        <time>2023-05-27T09:29:35Z</time>
      </trkpt>
      <trkpt lat="38.237903" lon="-1.430126">
        <ele>168.7</ele>
        <time>2023-05-27T09:29:54Z</time>
      </trkpt>
      <trkpt lat="38.237829" lon="-1.430346">
        <ele>168.2</ele>
        <time>2023-05-27T09:30:18Z</time>
      </trkpt>
      <trkpt lat="38.237740" lon="-1.430563">
        <ele>168.2</ele>
        <time>2023-05-27T09:30:31Z</time>
      </trkpt>
      <trkpt lat="38.237656" lon="-1.430769">
        <ele>168.2</ele>
        <time>2023-05-27T09:30:54Z</time>
      </trkpt>
      <trkpt lat="38.237557" lon="-1.430974">
        <ele>168.2</ele>
        <time>2023-05-27T09:31:06Z</time>
      </trkpt>
      <trkpt lat="38.237433" lon="-1.431150">
        <ele>168.0</ele>
        <time>2023-05-27T09:31:17Z</time>
      </trkpt>
      <trkpt lat="38.237333" lon="-1.431333">
        <ele>167.0</ele>
        <time>2023-05-27T09:31:35Z</time>
      </trkpt>
      <trkpt lat="38.237233" lon="-1.431517">
        <ele>167.0</ele>
        <time>2023-05-27T09:31:47Z</time>
      </trkpt>
      <trkpt lat="38.237100" lon="-1.431683">
        <ele>167.0</ele>
        <time>2023-05-27T09:32:14Z</time>
      </trkpt>
      <trkpt lat="38.237000" lon="-1.431883">
        <ele>167.0</ele>
        <time>2023-05-27T09:32:35Z</time>
      </trkpt>
      <trkpt lat="38.236883" lon="-1.432083">
        <ele>167.0</ele>
        <time>2023-05-27T09:32:46Z</time>
      </trkpt>
      <trkpt lat="38.236766" lon="-1.432250">
        <ele>167.0</ele>
        <time>2023-05-27T09:32:59Z</time>
      </trkpt>
      <trkpt lat="38.236633" lon="-1.432433">
        <ele>167.0</ele>
        <time>2023-05-27T09:33:10Z</time>
      </trkpt>
      <trkpt lat="38.236500" lon="-1.432617">
        <ele>167.0</ele>
        <time>2023-05-27T09:33:21Z</time>
      </trkpt>
      <trkpt lat="38.236367" lon="-1.432750">
        <ele>167.0</ele>
        <time>2023-05-27T09:33:52Z</time>
      </trkpt>
      <trkpt lat="38.236183" lon="-1.432850">
        <ele>167.0</ele>
        <time>2023-05-27T09:34:05Z</time>
      </trkpt>
      <trkpt lat="38.236017" lon="-1.432900">
        <ele>167.0</ele>
        <time>2023-05-27T09:34:21Z</time>
      </trkpt>
      <trkpt lat="38.235833" lon="-1.432867">
        <ele>167.0</ele>
        <time>2023-05-27T09:34:37Z</time>
      </trkpt>
      <trkpt lat="38.235650" lon="-1.432783">
        <ele>167.0</ele>
        <time>2023-05-27T09:34:54Z</time>
      </trkpt>
      <trkpt lat="38.235483" lon="-1.432666">
        <ele>167.0</ele>
        <time>2023-05-27T09:35:09Z</time>
      </trkpt>
      <trkpt lat="38.235317" lon="-1.432566">
        <ele>168.0</ele>
        <time>2023-05-27T09:35:22Z</time>
      </trkpt>
      <trkpt lat="38.235133" lon="-1.432450">
        <ele>168.0</ele>
        <time>2023-05-27T09:35:34Z</time>
      </trkpt>
      <trkpt lat="38.235000" lon="-1.432300">
        <ele>168.0</ele>
        <time>2023-05-27T09:35:42Z</time>
      </trkpt>
      <trkpt lat="38.234883" lon="-1.432133">
        <ele>167.0</ele>
        <time>2023-05-27T09:35:57Z</time>
      </trkpt>
      <trkpt lat="38.234733" lon="-1.432000">
        <ele>168.0</ele>
        <time>2023-05-27T09:36:14Z</time>
      </trkpt>
      <trkpt lat="38.234567" lon="-1.431883">
        <ele>168.0</ele>
        <time>2023-05-27T09:36:26Z</time>
      </trkpt>
      <trkpt lat="38.234400" lon="-1.431766">
        <ele>167.0</ele>
        <time>2023-05-27T09:36:39Z</time>
      </trkpt>
      <trkpt lat="38.234283" lon="-1.431583">
        <ele>167.0</ele>
        <time>2023-05-27T09:36:51Z</time>
      </trkpt>
      <trkpt lat="38.234117" lon="-1.431466">
        <ele>167.0</ele>
        <time>2023-05-27T09:37:11Z</time>
      </trkpt>
      <trkpt lat="38.233970" lon="-1.431311">
        <ele>169.0</ele>
        <time>2023-05-27T09:37:24Z</time>
      </trkpt>
      <trkpt lat="38.233805" lon="-1.431152">
        <ele>169.0</ele>
        <time>2023-05-27T09:37:36Z</time>
      </trkpt>
      <trkpt lat="38.233667" lon="-1.430983">
        <ele>167.0</ele>
        <time>2023-05-27T09:37:48Z</time>
      </trkpt>
      <trkpt lat="38.233533" lon="-1.430783">
        <ele>167.0</ele>
        <time>2023-05-27T09:38:01Z</time>
      </trkpt>
      <trkpt lat="38.233400" lon="-1.430600">
        <ele>167.0</ele>
        <time>2023-05-27T09:38:13Z</time>
      </trkpt>
      <trkpt lat="38.233283" lon="-1.430400">
        <ele>167.0</ele>
        <time>2023-05-27T09:38:26Z</time>
      </trkpt>
      <trkpt lat="38.233166" lon="-1.430233">
        <ele>167.0</ele>
        <time>2023-05-27T09:38:39Z</time>
      </trkpt>
      <trkpt lat="38.233066" lon="-1.430033">
        <ele>168.0</ele>
        <time>2023-05-27T09:38:50Z</time>
      </trkpt>
      <trkpt lat="38.232983" lon="-1.429817">
        <ele>168.0</ele>
        <time>2023-05-27T09:39:05Z</time>
      </trkpt>
      <trkpt lat="38.232883" lon="-1.429617">
        <ele>168.0</ele>
        <time>2023-05-27T09:39:34Z</time>
      </trkpt>
      <trkpt lat="38.232783" lon="-1.429383">
        <ele>168.0</ele>
        <time>2023-05-27T09:39:45Z</time>
      </trkpt>
      <trkpt lat="38.232716" lon="-1.429167">
        <ele>168.0</ele>
        <time>2023-05-27T09:40:01Z</time>
      </trkpt>
      <trkpt lat="38.232600" lon="-1.428966">
        <ele>168.0</ele>
        <time>2023-05-27T09:40:48Z</time>
      </trkpt>
      <trkpt lat="38.232550" lon="-1.428750">
        <ele>168.0</ele>
        <time>2023-05-27T09:41:04Z</time>
      </trkpt>
      <trkpt lat="38.232479" lon="-1.428524">
        <ele>170.0</ele>
        <time>2023-05-27T09:41:19Z</time>
      </trkpt>
      <trkpt lat="38.232433" lon="-1.428300">
        <ele>170.0</ele>
        <time>2023-05-27T09:41:32Z</time>
      </trkpt>
      <trkpt lat="38.232466" lon="-1.428054">
        <ele>169.6</ele>
        <time>2023-05-27T09:41:50Z</time>
      </trkpt>
      <trkpt lat="38.232488" lon="-1.427825">
        <ele>170.0</ele>
        <time>2023-05-27T09:42:02Z</time>
      </trkpt>
      <trkpt lat="38.232565" lon="-1.427609">
        <ele>170.0</ele>
        <time>2023-05-27T09:42:26Z</time>
      </trkpt>
      <trkpt lat="38.232619" lon="-1.427370">
        <ele>170.0</ele>
        <time>2023-05-27T09:42:38Z</time>
      </trkpt>
      <trkpt lat="38.232683" lon="-1.427150">
        <ele>169.0</ele>
        <time>2023-05-27T09:42:53Z</time>
      </trkpt>
      <trkpt lat="38.232745" lon="-1.426917">
        <ele>169.0</ele>
        <time>2023-05-27T09:43:06Z</time>
      </trkpt>
      <trkpt lat="38.232797" lon="-1.426697">
        <ele>169.7</ele>
        <time>2023-05-27T09:43:17Z</time>
      </trkpt>
      <trkpt lat="38.232859" lon="-1.426469">
        <ele>170.0</ele>
        <time>2023-05-27T09:43:29Z</time>
      </trkpt>
      <trkpt lat="38.232925" lon="-1.426247">
        <ele>170.0</ele>
        <time>2023-05-27T09:43:41Z</time>
      </trkpt>
      <trkpt lat="38.232989" lon="-1.426030">
        <ele>170.0</ele>
        <time>2023-05-27T09:43:52Z</time>
      </trkpt>
      <trkpt lat="38.233083" lon="-1.425834">
        <ele>170.0</ele>
        <time>2023-05-27T09:44:02Z</time>
      </trkpt>
      <trkpt lat="38.233117" lon="-1.425600">
        <ele>169.0</ele>
        <time>2023-05-27T09:44:22Z</time>
      </trkpt>
      <trkpt lat="38.233150" lon="-1.425367">
        <ele>168.0</ele>
        <time>2023-05-27T09:44:36Z</time>
      </trkpt>
      <trkpt lat="38.233133" lon="-1.425133">
        <ele>167.0</ele>
        <time>2023-05-27T09:44:47Z</time>
      </trkpt>
      <trkpt lat="38.233100" lon="-1.424900">
        <ele>168.0</ele>
        <time>2023-05-27T09:45:06Z</time>
      </trkpt>
      <trkpt lat="38.233050" lon="-1.424850">
        <ele>168.0</ele>
        <time>2023-05-27T09:47:42Z</time>
      </trkpt>
      <trkpt lat="38.233066" lon="-1.424783">
        <ele>168.0</ele>
        <time>2023-05-27T09:59:26Z</time>
      </trkpt>
      <trkpt lat="38.233217" lon="-1.424783">
        <ele>166.0</ele>
        <time>2023-05-27T10:00:16Z</time>
      </trkpt>
      <trkpt lat="38.233417" lon="-1.424800">
        <ele>167.0</ele>
        <time>2023-05-27T10:00:52Z</time>
      </trkpt>
      <trkpt lat="38.233550" lon="-1.424933">
        <ele>166.0</ele>
        <time>2023-05-27T10:01:16Z</time>
      </trkpt>
      <trkpt lat="38.233683" lon="-1.425100">
        <ele>166.0</ele>
        <time>2023-05-27T10:01:27Z</time>
      </trkpt>
      <trkpt lat="38.233833" lon="-1.425267">
        <ele>166.0</ele>
        <time>2023-05-27T10:01:40Z</time>
      </trkpt>
      <trkpt lat="38.233983" lon="-1.425433">
        <ele>166.0</ele>
        <time>2023-05-27T10:01:54Z</time>
      </trkpt>
      <trkpt lat="38.234133" lon="-1.425567">
        <ele>166.0</ele>
        <time>2023-05-27T10:02:08Z</time>
      </trkpt>
      <trkpt lat="38.234283" lon="-1.425716">
        <ele>166.0</ele>
        <time>2023-05-27T10:02:22Z</time>
      </trkpt>
      <trkpt lat="38.234433" lon="-1.425866">
        <ele>166.0</ele>
        <time>2023-05-27T10:02:34Z</time>
      </trkpt>
      <trkpt lat="38.234633" lon="-1.425850">
        <ele>167.0</ele>
        <time>2023-05-27T10:03:19Z</time>
      </trkpt>
      <trkpt lat="38.234783" lon="-1.425733">
        <ele>167.0</ele>
        <time>2023-05-27T10:03:35Z</time>
      </trkpt>
      <trkpt lat="38.234966" lon="-1.425650">
        <ele>168.0</ele>
        <time>2023-05-27T10:03:58Z</time>
      </trkpt>
      <trkpt lat="38.235106" lon="-1.425787">
        <ele>172.0</ele>
        <time>2023-05-27T10:04:26Z</time>
      </trkpt>
      <trkpt lat="38.235276" lon="-1.425884">
        <ele>172.2</ele>
        <time>2023-05-27T10:04:41Z</time>
      </trkpt>
      <trkpt lat="38.235459" lon="-1.425903">
        <ele>175.1</ele>
        <time>2023-05-27T10:04:55Z</time>
      </trkpt>
      <trkpt lat="38.235646" lon="-1.425894">
        <ele>177.4</ele>
        <time>2023-05-27T10:05:10Z</time>
      </trkpt>
      <trkpt lat="38.235853" lon="-1.425889">
        <ele>178.4</ele>
        <time>2023-05-27T10:05:23Z</time>
      </trkpt>
      <trkpt lat="38.235944" lon="-1.425653">
        <ele>181.4</ele>
        <time>2023-05-27T10:05:52Z</time>
      </trkpt>
      <trkpt lat="38.236004" lon="-1.425430">
        <ele>183.9</ele>
        <time>2023-05-27T10:06:04Z</time>
      </trkpt>
      <trkpt lat="38.236120" lon="-1.425242">
        <ele>184.0</ele>
        <time>2023-05-27T10:06:32Z</time>
      </trkpt>
      <trkpt lat="38.236217" lon="-1.425038">
        <ele>184.5</ele>
        <time>2023-05-27T10:06:48Z</time>
      </trkpt>
      <trkpt lat="38.236243" lon="-1.424804">
        <ele>184.5</ele>
        <time>2023-05-27T10:06:59Z</time>
      </trkpt>
      <trkpt lat="38.236300" lon="-1.424567">
        <ele>183.8</ele>
        <time>2023-05-27T10:07:14Z</time>
      </trkpt>
      <trkpt lat="38.236423" lon="-1.424386">
        <ele>183.9</ele>
        <time>2023-05-27T10:07:49Z</time>
      </trkpt>
      <trkpt lat="38.236452" lon="-1.424142">
        <ele>183.6</ele>
        <time>2023-05-27T10:08:10Z</time>
      </trkpt>
      <trkpt lat="38.236470" lon="-1.423903">
        <ele>184.5</ele>
        <time>2023-05-27T10:08:43Z</time>
      </trkpt>
      <trkpt lat="38.236483" lon="-1.423650">
        <ele>186.0</ele>
        <time>2023-05-27T10:08:59Z</time>
      </trkpt>
      <trkpt lat="38.236500" lon="-1.423416">
        <ele>186.0</ele>
        <time>2023-05-27T10:09:47Z</time>
      </trkpt>
      <trkpt lat="38.236550" lon="-1.423200">
        <ele>186.0</ele>
        <time>2023-05-27T10:09:59Z</time>
      </trkpt>
      <trkpt lat="38.236716" lon="-1.422950">
        <ele>187.0</ele>
        <time>2023-05-27T10:10:12Z</time>
      </trkpt>
      <trkpt lat="38.236874" lon="-1.422935">
        <ele>187.5</ele>
        <time>2023-05-27T10:10:30Z</time>
      </trkpt>
      <trkpt lat="38.237083" lon="-1.423061">
        <ele>188.6</ele>
        <time>2023-05-27T10:11:19Z</time>
      </trkpt>
      <trkpt lat="38.237259" lon="-1.422800">
        <ele>189.0</ele>
        <time>2023-05-27T10:11:54Z</time>
      </trkpt>
    </trkseg>
  </trk>
</gpx>
